<?xml version="1.0" encoding="UTF-8"?><gpx creator="Garmin Connect" version="1.1"
xsi:schemaLocation="http://www.topografix.com/GPX/1/1 http://www.topografix.com/GPX/11.xsd"
xmlns:ns3="http://www.garmin.com/xmlschemas/TrackPointExtension/v1"
xmlns="http://www.topografix.com/GPX/1/1"
xmlns:xsi="http://www.w3.org/2001/XMLSchema-instance"
xmlns:ns2="http://www.garmin.com/xmlschemas/GpxExtensions/v3"><metadata><time>2026-04-05T06:49:19.000Z</time></metadata><trk><type>20260405Mountain hike</type><extensions><totalTime>24083</totalTime><cumulativeDecrease>1091.8</cumulativeDecrease><cumulativeClimb>1075.2</cumulativeClimb><totalDistance>14450</totalDistance><routeType>0</routeType></extensions><trkseg><trkpt lat="42.226711" lon="23.581175"><ele>2381.6</ele><time>2026-04-05T06:49:19.000Z</time></trkpt>
<trkpt lat="42.226701" lon="23.581167"><ele>2381.6</ele><time>2026-04-05T06:49:20.000Z</time></trkpt>
<trkpt lat="42.226698" lon="23.581162"><ele>2381.6</ele><time>2026-04-05T06:49:21.000Z</time></trkpt>
<trkpt lat="42.226692" lon="23.581156"><ele>2381.6</ele><time>2026-04-05T06:49:22.000Z</time></trkpt>
<trkpt lat="42.226687" lon="23.581149"><ele>2381.6</ele><time>2026-04-05T06:49:23.000Z</time></trkpt>
<trkpt lat="42.226682" lon="23.581143"><ele>2381.7</ele><time>2026-04-05T06:49:24.000Z</time></trkpt>
<trkpt lat="42.226677" lon="23.581138"><ele>2381.7</ele><time>2026-04-05T06:49:25.000Z</time></trkpt>
<trkpt lat="42.226673" lon="23.581134"><ele>2381.7</ele><time>2026-04-05T06:49:26.000Z</time></trkpt>
<trkpt lat="42.226667" lon="23.581129"><ele>2381.7</ele><time>2026-04-05T06:49:27.000Z</time></trkpt>
<trkpt lat="42.226663" lon="23.581125"><ele>2381.7</ele><time>2026-04-05T06:49:28.000Z</time></trkpt>
<trkpt lat="42.226657" lon="23.58112"><ele>2382.1</ele><time>2026-04-05T06:49:29.000Z</time></trkpt>
<trkpt lat="42.226651" lon="23.581112"><ele>2382.1</ele><time>2026-04-05T06:49:30.000Z</time></trkpt>
<trkpt lat="42.226646" lon="23.581105"><ele>2382.1</ele><time>2026-04-05T06:49:31.000Z</time></trkpt>
<trkpt lat="42.226642" lon="23.581098"><ele>2382.1</ele><time>2026-04-05T06:49:32.000Z</time></trkpt>
<trkpt lat="42.226637" lon="23.581091"><ele>2382.1</ele><time>2026-04-05T06:49:33.000Z</time></trkpt>
<trkpt lat="42.226633" lon="23.581084"><ele>2382.4</ele><time>2026-04-05T06:49:34.000Z</time></trkpt>
<trkpt lat="42.226629" lon="23.581078"><ele>2382.4</ele><time>2026-04-05T06:49:35.000Z</time></trkpt>
<trkpt lat="42.226625" lon="23.581071"><ele>2382.4</ele><time>2026-04-05T06:49:36.000Z</time></trkpt>
<trkpt lat="42.226621" lon="23.581064"><ele>2382.4</ele><time>2026-04-05T06:49:37.000Z</time></trkpt>
<trkpt lat="42.226618" lon="23.581058"><ele>2382.4</ele><time>2026-04-05T06:49:38.000Z</time></trkpt>
<trkpt lat="42.226614" lon="23.581051"><ele>2382.9</ele><time>2026-04-05T06:49:39.000Z</time></trkpt>
<trkpt lat="42.226611" lon="23.581045"><ele>2382.9</ele><time>2026-04-05T06:49:40.000Z</time></trkpt>
<trkpt lat="42.226607" lon="23.581039"><ele>2382.9</ele><time>2026-04-05T06:49:41.000Z</time></trkpt>
<trkpt lat="42.226601" lon="23.581031"><ele>2382.9</ele><time>2026-04-05T06:49:42.000Z</time></trkpt>
<trkpt lat="42.226595" lon="23.581021"><ele>2382.9</ele><time>2026-04-05T06:49:43.000Z</time></trkpt>
<trkpt lat="42.226589" lon="23.581011"><ele>2383.1</ele><time>2026-04-05T06:49:44.000Z</time></trkpt>
<trkpt lat="42.226583" lon="23.581"><ele>2383.1</ele><time>2026-04-05T06:49:45.000Z</time></trkpt>
<trkpt lat="42.226577" lon="23.580989"><ele>2383.1</ele><time>2026-04-05T06:49:46.000Z</time></trkpt>
<trkpt lat="42.226572" lon="23.580977"><ele>2383.1</ele><time>2026-04-05T06:49:47.000Z</time></trkpt>
<trkpt lat="42.226566" lon="23.580966"><ele>2383.1</ele><time>2026-04-05T06:49:48.000Z</time></trkpt>
<trkpt lat="42.226559" lon="23.580954"><ele>2383</ele><time>2026-04-05T06:49:49.000Z</time></trkpt>
<trkpt lat="42.226552" lon="23.580941"><ele>2383</ele><time>2026-04-05T06:49:50.000Z</time></trkpt>
<trkpt lat="42.226544" lon="23.58093"><ele>2383</ele><time>2026-04-05T06:49:51.000Z</time></trkpt>
<trkpt lat="42.226535" lon="23.580919"><ele>2383</ele><time>2026-04-05T06:49:52.000Z</time></trkpt>
<trkpt lat="42.226525" lon="23.580909"><ele>2383</ele><time>2026-04-05T06:49:53.000Z</time></trkpt>
<trkpt lat="42.226516" lon="23.580898"><ele>2382.8</ele><time>2026-04-05T06:49:54.000Z</time></trkpt>
<trkpt lat="42.226507" lon="23.580889"><ele>2382.8</ele><time>2026-04-05T06:49:55.000Z</time></trkpt>
<trkpt lat="42.226499" lon="23.580878"><ele>2382.8</ele><time>2026-04-05T06:49:56.000Z</time></trkpt>
<trkpt lat="42.226491" lon="23.580866"><ele>2382.8</ele><time>2026-04-05T06:49:57.000Z</time></trkpt>
<trkpt lat="42.226483" lon="23.580854"><ele>2382.8</ele><time>2026-04-05T06:49:58.000Z</time></trkpt>
<trkpt lat="42.226474" lon="23.580842"><ele>2382.5</ele><time>2026-04-05T06:49:59.000Z</time></trkpt>
<trkpt lat="42.226464" lon="23.58083"><ele>2382.5</ele><time>2026-04-05T06:50:00.000Z</time></trkpt>
<trkpt lat="42.226454" lon="23.580819"><ele>2382.5</ele><time>2026-04-05T06:50:01.000Z</time></trkpt>
<trkpt lat="42.226443" lon="23.58081"><ele>2382.5</ele><time>2026-04-05T06:50:02.000Z</time></trkpt>
<trkpt lat="42.226433" lon="23.580801"><ele>2382.5</ele><time>2026-04-05T06:50:03.000Z</time></trkpt>
<trkpt lat="42.226423" lon="23.580794"><ele>2382.3</ele><time>2026-04-05T06:50:04.000Z</time></trkpt>
<trkpt lat="42.226413" lon="23.580787"><ele>2382.3</ele><time>2026-04-05T06:50:05.000Z</time></trkpt>
<trkpt lat="42.226404" lon="23.580781"><ele>2382.3</ele><time>2026-04-05T06:50:06.000Z</time></trkpt>
<trkpt lat="42.226395" lon="23.580774"><ele>2382.3</ele><time>2026-04-05T06:50:07.000Z</time></trkpt>
<trkpt lat="42.226386" lon="23.580767"><ele>2382.3</ele><time>2026-04-05T06:50:08.000Z</time></trkpt>
<trkpt lat="42.226376" lon="23.580758"><ele>2381.7</ele><time>2026-04-05T06:50:09.000Z</time></trkpt>
<trkpt lat="42.226367" lon="23.580748"><ele>2381.7</ele><time>2026-04-05T06:50:10.000Z</time></trkpt>
<trkpt lat="42.226358" lon="23.580737"><ele>2381.7</ele><time>2026-04-05T06:50:11.000Z</time></trkpt>
<trkpt lat="42.22635" lon="23.580727"><ele>2381.7</ele><time>2026-04-05T06:50:12.000Z</time></trkpt>
<trkpt lat="42.226342" lon="23.580717"><ele>2381.7</ele><time>2026-04-05T06:50:13.000Z</time></trkpt>
<trkpt lat="42.226335" lon="23.580708"><ele>2381.1</ele><time>2026-04-05T06:50:14.000Z</time></trkpt>
<trkpt lat="42.226329" lon="23.5807"><ele>2381.1</ele><time>2026-04-05T06:50:15.000Z</time></trkpt>
<trkpt lat="42.226323" lon="23.580692"><ele>2381.1</ele><time>2026-04-05T06:50:16.000Z</time></trkpt>
<trkpt lat="42.226317" lon="23.580685"><ele>2381.1</ele><time>2026-04-05T06:50:17.000Z</time></trkpt>
<trkpt lat="42.22631" lon="23.580677"><ele>2381.1</ele><time>2026-04-05T06:50:18.000Z</time></trkpt>
<trkpt lat="42.226303" lon="23.580669"><ele>2380.6</ele><time>2026-04-05T06:50:19.000Z</time></trkpt>
<trkpt lat="42.226295" lon="23.580661"><ele>2380.6</ele><time>2026-04-05T06:50:20.000Z</time></trkpt>
<trkpt lat="42.226287" lon="23.580653"><ele>2380.6</ele><time>2026-04-05T06:50:21.000Z</time></trkpt>
<trkpt lat="42.22628" lon="23.580645"><ele>2380.6</ele><time>2026-04-05T06:50:22.000Z</time></trkpt>
<trkpt lat="42.226272" lon="23.580638"><ele>2380.6</ele><time>2026-04-05T06:50:23.000Z</time></trkpt>
<trkpt lat="42.226265" lon="23.580632"><ele>2379.8</ele><time>2026-04-05T06:50:24.000Z</time></trkpt>
<trkpt lat="42.226258" lon="23.580627"><ele>2379.8</ele><time>2026-04-05T06:50:25.000Z</time></trkpt>
<trkpt lat="42.226251" lon="23.580621"><ele>2379.8</ele><time>2026-04-05T06:50:26.000Z</time></trkpt>
<trkpt lat="42.226245" lon="23.580615"><ele>2379.8</ele><time>2026-04-05T06:50:27.000Z</time></trkpt>
<trkpt lat="42.226239" lon="23.580608"><ele>2379.8</ele><time>2026-04-05T06:50:28.000Z</time></trkpt>
<trkpt lat="42.226233" lon="23.580601"><ele>2379.1</ele><time>2026-04-05T06:50:29.000Z</time></trkpt>
<trkpt lat="42.226226" lon="23.580593"><ele>2379.1</ele><time>2026-04-05T06:50:30.000Z</time></trkpt>
<trkpt lat="42.226219" lon="23.580587"><ele>2379.1</ele><time>2026-04-05T06:50:31.000Z</time></trkpt>
<trkpt lat="42.226212" lon="23.58058"><ele>2379.1</ele><time>2026-04-05T06:50:32.000Z</time></trkpt>
<trkpt lat="42.226205" lon="23.580574"><ele>2379.1</ele><time>2026-04-05T06:50:33.000Z</time></trkpt>
<trkpt lat="42.226198" lon="23.580568"><ele>2378.7</ele><time>2026-04-05T06:50:34.000Z</time></trkpt>
<trkpt lat="42.226193" lon="23.580561"><ele>2378.7</ele><time>2026-04-05T06:50:35.000Z</time></trkpt>
<trkpt lat="42.226188" lon="23.580554"><ele>2378.7</ele><time>2026-04-05T06:50:36.000Z</time></trkpt>
<trkpt lat="42.226183" lon="23.580547"><ele>2378.7</ele><time>2026-04-05T06:50:37.000Z</time></trkpt>
<trkpt lat="42.226178" lon="23.580542"><ele>2378.7</ele><time>2026-04-05T06:50:38.000Z</time></trkpt>
<trkpt lat="42.226173" lon="23.580536"><ele>2377.6</ele><time>2026-04-05T06:50:39.000Z</time></trkpt>
<trkpt lat="42.226168" lon="23.580532"><ele>2377.6</ele><time>2026-04-05T06:50:40.000Z</time></trkpt>
<trkpt lat="42.226163" lon="23.580527"><ele>2377.6</ele><time>2026-04-05T06:50:41.000Z</time></trkpt>
<trkpt lat="42.226158" lon="23.580521"><ele>2377.6</ele><time>2026-04-05T06:50:42.000Z</time></trkpt>
<trkpt lat="42.226153" lon="23.580514"><ele>2377.6</ele><time>2026-04-05T06:50:43.000Z</time></trkpt>
<trkpt lat="42.226148" lon="23.580506"><ele>2376.3</ele><time>2026-04-05T06:50:44.000Z</time></trkpt>
<trkpt lat="42.226141" lon="23.580497"><ele>2376.3</ele><time>2026-04-05T06:50:45.000Z</time></trkpt>
<trkpt lat="42.226134" lon="23.580489"><ele>2376.3</ele><time>2026-04-05T06:50:46.000Z</time></trkpt>
<trkpt lat="42.226127" lon="23.580482"><ele>2376.3</ele><time>2026-04-05T06:50:47.000Z</time></trkpt>
<trkpt lat="42.226119" lon="23.580475"><ele>2376.3</ele><time>2026-04-05T06:50:48.000Z</time></trkpt>
<trkpt lat="42.22611" lon="23.580469"><ele>2375.6</ele><time>2026-04-05T06:50:49.000Z</time></trkpt>
<trkpt lat="42.226101" lon="23.580462"><ele>2375.6</ele><time>2026-04-05T06:50:50.000Z</time></trkpt>
<trkpt lat="42.226093" lon="23.580455"><ele>2375.6</ele><time>2026-04-05T06:50:51.000Z</time></trkpt>
<trkpt lat="42.226085" lon="23.580446"><ele>2375.6</ele><time>2026-04-05T06:50:52.000Z</time></trkpt>
<trkpt lat="42.226077" lon="23.580437"><ele>2375.6</ele><time>2026-04-05T06:50:53.000Z</time></trkpt>
<trkpt lat="42.22607" lon="23.580427"><ele>2374.4</ele><time>2026-04-05T06:50:54.000Z</time></trkpt>
<trkpt lat="42.226062" lon="23.580419"><ele>2374.4</ele><time>2026-04-05T06:50:55.000Z</time></trkpt>
<trkpt lat="42.226052" lon="23.580409"><ele>2374.4</ele><time>2026-04-05T06:50:56.000Z</time></trkpt>
<trkpt lat="42.226043" lon="23.580401"><ele>2374.4</ele><time>2026-04-05T06:50:57.000Z</time></trkpt>
<trkpt lat="42.226035" lon="23.580394"><ele>2374.4</ele><time>2026-04-05T06:50:58.000Z</time></trkpt>
<trkpt lat="42.226025" lon="23.580388"><ele>2373.2</ele><time>2026-04-05T06:50:59.000Z</time></trkpt>
<trkpt lat="42.226016" lon="23.580381"><ele>2373.2</ele><time>2026-04-05T06:51:00.000Z</time></trkpt>
<trkpt lat="42.226008" lon="23.580376"><ele>2373.2</ele><time>2026-04-05T06:51:01.000Z</time></trkpt>
<trkpt lat="42.226001" lon="23.58037"><ele>2373.2</ele><time>2026-04-05T06:51:02.000Z</time></trkpt>
<trkpt lat="42.225992" lon="23.580363"><ele>2373.2</ele><time>2026-04-05T06:51:03.000Z</time></trkpt>
<trkpt lat="42.225984" lon="23.580356"><ele>2372.5</ele><time>2026-04-05T06:51:04.000Z</time></trkpt>
<trkpt lat="42.225975" lon="23.580351"><ele>2372.5</ele><time>2026-04-05T06:51:05.000Z</time></trkpt>
<trkpt lat="42.225966" lon="23.580348"><ele>2372.5</ele><time>2026-04-05T06:51:06.000Z</time></trkpt>
<trkpt lat="42.225958" lon="23.580345"><ele>2372.5</ele><time>2026-04-05T06:51:07.000Z</time></trkpt>
<trkpt lat="42.225949" lon="23.580343"><ele>2372.5</ele><time>2026-04-05T06:51:08.000Z</time></trkpt>
<trkpt lat="42.225941" lon="23.580342"><ele>2371.1</ele><time>2026-04-05T06:51:09.000Z</time></trkpt>
<trkpt lat="42.225934" lon="23.580339"><ele>2371.1</ele><time>2026-04-05T06:51:10.000Z</time></trkpt>
<trkpt lat="42.225927" lon="23.580336"><ele>2371.1</ele><time>2026-04-05T06:51:11.000Z</time></trkpt>
<trkpt lat="42.22592" lon="23.580332"><ele>2371.1</ele><time>2026-04-05T06:51:12.000Z</time></trkpt>
<trkpt lat="42.225914" lon="23.58033"><ele>2371.1</ele><time>2026-04-05T06:51:13.000Z</time></trkpt>
<trkpt lat="42.225907" lon="23.580326"><ele>2369.7</ele><time>2026-04-05T06:51:14.000Z</time></trkpt>
<trkpt lat="42.2259" lon="23.580323"><ele>2369.7</ele><time>2026-04-05T06:51:15.000Z</time></trkpt>
<trkpt lat="42.225893" lon="23.58032"><ele>2369.7</ele><time>2026-04-05T06:51:16.000Z</time></trkpt>
<trkpt lat="42.225887" lon="23.580317"><ele>2369.7</ele><time>2026-04-05T06:51:17.000Z</time></trkpt>
<trkpt lat="42.225881" lon="23.580314"><ele>2369.7</ele><time>2026-04-05T06:51:18.000Z</time></trkpt>
<trkpt lat="42.225876" lon="23.580311"><ele>2369</ele><time>2026-04-05T06:51:19.000Z</time></trkpt>
<trkpt lat="42.22587" lon="23.580309"><ele>2369</ele><time>2026-04-05T06:51:20.000Z</time></trkpt>
<trkpt lat="42.225865" lon="23.580307"><ele>2369</ele><time>2026-04-05T06:51:21.000Z</time></trkpt>
<trkpt lat="42.225858" lon="23.580306"><ele>2369</ele><time>2026-04-05T06:51:22.000Z</time></trkpt>
<trkpt lat="42.225851" lon="23.580304"><ele>2369</ele><time>2026-04-05T06:51:23.000Z</time></trkpt>
<trkpt lat="42.225842" lon="23.580301"><ele>2367.7</ele><time>2026-04-05T06:51:24.000Z</time></trkpt>
<trkpt lat="42.225833" lon="23.580297"><ele>2367.7</ele><time>2026-04-05T06:51:25.000Z</time></trkpt>
<trkpt lat="42.225823" lon="23.580292"><ele>2367.7</ele><time>2026-04-05T06:51:26.000Z</time></trkpt>
<trkpt lat="42.225814" lon="23.580286"><ele>2367.7</ele><time>2026-04-05T06:51:27.000Z</time></trkpt>
<trkpt lat="42.225804" lon="23.580279"><ele>2367.7</ele><time>2026-04-05T06:51:28.000Z</time></trkpt>
<trkpt lat="42.225794" lon="23.580272"><ele>2366.6</ele><time>2026-04-05T06:51:29.000Z</time></trkpt>
<trkpt lat="42.225783" lon="23.580265"><ele>2366.6</ele><time>2026-04-05T06:51:30.000Z</time></trkpt>
<trkpt lat="42.225772" lon="23.580259"><ele>2366.6</ele><time>2026-04-05T06:51:31.000Z</time></trkpt>
<trkpt lat="42.225761" lon="23.580252"><ele>2366.6</ele><time>2026-04-05T06:51:32.000Z</time></trkpt>
<trkpt lat="42.225749" lon="23.580245"><ele>2366.6</ele><time>2026-04-05T06:51:33.000Z</time></trkpt>
<trkpt lat="42.225738" lon="23.580238"><ele>2366.2</ele><time>2026-04-05T06:51:34.000Z</time></trkpt>
<trkpt lat="42.225728" lon="23.580231"><ele>2366.2</ele><time>2026-04-05T06:51:35.000Z</time></trkpt>
<trkpt lat="42.225716" lon="23.580223"><ele>2366.2</ele><time>2026-04-05T06:51:36.000Z</time></trkpt>
<trkpt lat="42.225705" lon="23.580215"><ele>2366.2</ele><time>2026-04-05T06:51:37.000Z</time></trkpt>
<trkpt lat="42.225695" lon="23.580207"><ele>2366.2</ele><time>2026-04-05T06:51:38.000Z</time></trkpt>
<trkpt lat="42.225685" lon="23.580198"><ele>2365.4</ele><time>2026-04-05T06:51:39.000Z</time></trkpt>
<trkpt lat="42.225675" lon="23.58019"><ele>2365.4</ele><time>2026-04-05T06:51:40.000Z</time></trkpt>
<trkpt lat="42.225665" lon="23.580182"><ele>2365.4</ele><time>2026-04-05T06:51:41.000Z</time></trkpt>
<trkpt lat="42.225654" lon="23.580174"><ele>2365.4</ele><time>2026-04-05T06:51:42.000Z</time></trkpt>
<trkpt lat="42.225644" lon="23.580168"><ele>2365.4</ele><time>2026-04-05T06:51:43.000Z</time></trkpt>
<trkpt lat="42.225633" lon="23.580162"><ele>2364.6</ele><time>2026-04-05T06:51:44.000Z</time></trkpt>
<trkpt lat="42.225623" lon="23.580156"><ele>2364.6</ele><time>2026-04-05T06:51:45.000Z</time></trkpt>
<trkpt lat="42.225613" lon="23.58015"><ele>2364.6</ele><time>2026-04-05T06:51:46.000Z</time></trkpt>
<trkpt lat="42.225604" lon="23.580144"><ele>2364.6</ele><time>2026-04-05T06:51:47.000Z</time></trkpt>
<trkpt lat="42.225595" lon="23.580137"><ele>2364.6</ele><time>2026-04-05T06:51:48.000Z</time></trkpt>
<trkpt lat="42.225586" lon="23.580131"><ele>2364.1</ele><time>2026-04-05T06:51:49.000Z</time></trkpt>
<trkpt lat="42.225577" lon="23.580126"><ele>2364.1</ele><time>2026-04-05T06:51:50.000Z</time></trkpt>
<trkpt lat="42.225567" lon="23.580122"><ele>2364.1</ele><time>2026-04-05T06:51:51.000Z</time></trkpt>
<trkpt lat="42.225557" lon="23.580117"><ele>2364.1</ele><time>2026-04-05T06:51:52.000Z</time></trkpt>
<trkpt lat="42.225545" lon="23.58011"><ele>2364.1</ele><time>2026-04-05T06:51:53.000Z</time></trkpt>
<trkpt lat="42.225534" lon="23.580104"><ele>2363.5</ele><time>2026-04-05T06:51:54.000Z</time></trkpt>
<trkpt lat="42.225522" lon="23.580098"><ele>2363.5</ele><time>2026-04-05T06:51:55.000Z</time></trkpt>
<trkpt lat="42.225512" lon="23.580092"><ele>2363.5</ele><time>2026-04-05T06:51:56.000Z</time></trkpt>
<trkpt lat="42.225501" lon="23.580087"><ele>2363.5</ele><time>2026-04-05T06:51:57.000Z</time></trkpt>
<trkpt lat="42.225492" lon="23.580083"><ele>2363.5</ele><time>2026-04-05T06:51:58.000Z</time></trkpt>
<trkpt lat="42.225482" lon="23.580079"><ele>2362.9</ele><time>2026-04-05T06:51:59.000Z</time></trkpt>
<trkpt lat="42.225472" lon="23.580075"><ele>2362.9</ele><time>2026-04-05T06:52:00.000Z</time></trkpt>
<trkpt lat="42.225462" lon="23.580069"><ele>2362.9</ele><time>2026-04-05T06:52:01.000Z</time></trkpt>
<trkpt lat="42.225453" lon="23.580063"><ele>2362.9</ele><time>2026-04-05T06:52:02.000Z</time></trkpt>
<trkpt lat="42.225443" lon="23.580057"><ele>2362.9</ele><time>2026-04-05T06:52:03.000Z</time></trkpt>
<trkpt lat="42.225433" lon="23.580051"><ele>2362.5</ele><time>2026-04-05T06:52:04.000Z</time></trkpt>
<trkpt lat="42.225422" lon="23.580045"><ele>2362.5</ele><time>2026-04-05T06:52:05.000Z</time></trkpt>
<trkpt lat="42.225412" lon="23.580041"><ele>2362.5</ele><time>2026-04-05T06:52:06.000Z</time></trkpt>
<trkpt lat="42.225401" lon="23.580037"><ele>2362.5</ele><time>2026-04-05T06:52:07.000Z</time></trkpt>
<trkpt lat="42.225391" lon="23.580032"><ele>2362.5</ele><time>2026-04-05T06:52:08.000Z</time></trkpt>
<trkpt lat="42.22538" lon="23.580027"><ele>2361.4</ele><time>2026-04-05T06:52:09.000Z</time></trkpt>
<trkpt lat="42.22537" lon="23.580022"><ele>2361.4</ele><time>2026-04-05T06:52:10.000Z</time></trkpt>
<trkpt lat="42.22536" lon="23.580016"><ele>2361.4</ele><time>2026-04-05T06:52:11.000Z</time></trkpt>
<trkpt lat="42.225349" lon="23.58001"><ele>2361.4</ele><time>2026-04-05T06:52:12.000Z</time></trkpt>
<trkpt lat="42.225339" lon="23.580004"><ele>2361.4</ele><time>2026-04-05T06:52:13.000Z</time></trkpt>
<trkpt lat="42.225329" lon="23.58"><ele>2360.3</ele><time>2026-04-05T06:52:14.000Z</time></trkpt>
<trkpt lat="42.225319" lon="23.579994"><ele>2360.3</ele><time>2026-04-05T06:52:15.000Z</time></trkpt>
<trkpt lat="42.22531" lon="23.57999"><ele>2360.3</ele><time>2026-04-05T06:52:16.000Z</time></trkpt>
<trkpt lat="42.2253" lon="23.579986"><ele>2360.3</ele><time>2026-04-05T06:52:17.000Z</time></trkpt>
<trkpt lat="42.22529" lon="23.57998"><ele>2360.3</ele><time>2026-04-05T06:52:18.000Z</time></trkpt>
<trkpt lat="42.225279" lon="23.579975"><ele>2359.9</ele><time>2026-04-05T06:52:19.000Z</time></trkpt>
<trkpt lat="42.225268" lon="23.57997"><ele>2359.9</ele><time>2026-04-05T06:52:20.000Z</time></trkpt>
<trkpt lat="42.225256" lon="23.579965"><ele>2359.9</ele><time>2026-04-05T06:52:21.000Z</time></trkpt>
<trkpt lat="42.225244" lon="23.579961"><ele>2359.9</ele><time>2026-04-05T06:52:22.000Z</time></trkpt>
<trkpt lat="42.225233" lon="23.579957"><ele>2359.9</ele><time>2026-04-05T06:52:23.000Z</time></trkpt>
<trkpt lat="42.225223" lon="23.579952"><ele>2359.4</ele><time>2026-04-05T06:52:24.000Z</time></trkpt>
<trkpt lat="42.225212" lon="23.579946"><ele>2359.4</ele><time>2026-04-05T06:52:25.000Z</time></trkpt>
<trkpt lat="42.225202" lon="23.579942"><ele>2359.4</ele><time>2026-04-05T06:52:26.000Z</time></trkpt>
<trkpt lat="42.225192" lon="23.579938"><ele>2359.4</ele><time>2026-04-05T06:52:27.000Z</time></trkpt>
<trkpt lat="42.225181" lon="23.579934"><ele>2359.4</ele><time>2026-04-05T06:52:28.000Z</time></trkpt>
<trkpt lat="42.22517" lon="23.579931"><ele>2359.2</ele><time>2026-04-05T06:52:29.000Z</time></trkpt>
<trkpt lat="42.22516" lon="23.579928"><ele>2359.2</ele><time>2026-04-05T06:52:30.000Z</time></trkpt>
<trkpt lat="42.225149" lon="23.579926"><ele>2359.2</ele><time>2026-04-05T06:52:31.000Z</time></trkpt>
<trkpt lat="42.225138" lon="23.579922"><ele>2359.2</ele><time>2026-04-05T06:52:32.000Z</time></trkpt>
<trkpt lat="42.225128" lon="23.579918"><ele>2359.2</ele><time>2026-04-05T06:52:33.000Z</time></trkpt>
<trkpt lat="42.225118" lon="23.579915"><ele>2359</ele><time>2026-04-05T06:52:34.000Z</time></trkpt>
<trkpt lat="42.225108" lon="23.579912"><ele>2359</ele><time>2026-04-05T06:52:35.000Z</time></trkpt>
<trkpt lat="42.225097" lon="23.579909"><ele>2359</ele><time>2026-04-05T06:52:36.000Z</time></trkpt>
<trkpt lat="42.225086" lon="23.579907"><ele>2359</ele><time>2026-04-05T06:52:37.000Z</time></trkpt>
<trkpt lat="42.225075" lon="23.579905"><ele>2359</ele><time>2026-04-05T06:52:38.000Z</time></trkpt>
<trkpt lat="42.225064" lon="23.579904"><ele>2358.6</ele><time>2026-04-05T06:52:39.000Z</time></trkpt>
<trkpt lat="42.225054" lon="23.579902"><ele>2358.6</ele><time>2026-04-05T06:52:40.000Z</time></trkpt>
<trkpt lat="42.225044" lon="23.5799"><ele>2358.6</ele><time>2026-04-05T06:52:41.000Z</time></trkpt>
<trkpt lat="42.225036" lon="23.579899"><ele>2358.6</ele><time>2026-04-05T06:52:42.000Z</time></trkpt>
<trkpt lat="42.225027" lon="23.579897"><ele>2358.6</ele><time>2026-04-05T06:52:43.000Z</time></trkpt>
<trkpt lat="42.225018" lon="23.579896"><ele>2357.9</ele><time>2026-04-05T06:52:44.000Z</time></trkpt>
<trkpt lat="42.225009" lon="23.579895"><ele>2357.9</ele><time>2026-04-05T06:52:45.000Z</time></trkpt>
<trkpt lat="42.225" lon="23.579894"><ele>2357.9</ele><time>2026-04-05T06:52:46.000Z</time></trkpt>
<trkpt lat="42.224991" lon="23.579892"><ele>2357.9</ele><time>2026-04-05T06:52:47.000Z</time></trkpt>
<trkpt lat="42.224982" lon="23.57989"><ele>2357.9</ele><time>2026-04-05T06:52:48.000Z</time></trkpt>
<trkpt lat="42.224973" lon="23.579888"><ele>2357.5</ele><time>2026-04-05T06:52:49.000Z</time></trkpt>
<trkpt lat="42.224964" lon="23.579885"><ele>2357.5</ele><time>2026-04-05T06:52:50.000Z</time></trkpt>
<trkpt lat="42.224954" lon="23.579884"><ele>2357.5</ele><time>2026-04-05T06:52:51.000Z</time></trkpt>
<trkpt lat="42.224943" lon="23.579882"><ele>2357.5</ele><time>2026-04-05T06:52:52.000Z</time></trkpt>
<trkpt lat="42.224932" lon="23.57988"><ele>2357.5</ele><time>2026-04-05T06:52:53.000Z</time></trkpt>
<trkpt lat="42.22492" lon="23.579879"><ele>2356.9</ele><time>2026-04-05T06:52:54.000Z</time></trkpt>
<trkpt lat="42.224908" lon="23.579877"><ele>2356.9</ele><time>2026-04-05T06:52:55.000Z</time></trkpt>
<trkpt lat="42.224897" lon="23.579876"><ele>2356.9</ele><time>2026-04-05T06:52:56.000Z</time></trkpt>
<trkpt lat="42.224886" lon="23.579875"><ele>2356.9</ele><time>2026-04-05T06:52:57.000Z</time></trkpt>
<trkpt lat="42.224874" lon="23.579874"><ele>2356.9</ele><time>2026-04-05T06:52:58.000Z</time></trkpt>
<trkpt lat="42.224863" lon="23.579872"><ele>2356.8</ele><time>2026-04-05T06:52:59.000Z</time></trkpt>
<trkpt lat="42.224853" lon="23.57987"><ele>2356.8</ele><time>2026-04-05T06:53:00.000Z</time></trkpt>
<trkpt lat="42.224842" lon="23.579868"><ele>2356.8</ele><time>2026-04-05T06:53:01.000Z</time></trkpt>
<trkpt lat="42.224831" lon="23.579865"><ele>2356.8</ele><time>2026-04-05T06:53:02.000Z</time></trkpt>
<trkpt lat="42.224821" lon="23.579861"><ele>2356.8</ele><time>2026-04-05T06:53:03.000Z</time></trkpt>
<trkpt lat="42.224811" lon="23.579857"><ele>2356.7</ele><time>2026-04-05T06:53:04.000Z</time></trkpt>
<trkpt lat="42.224801" lon="23.579853"><ele>2356.7</ele><time>2026-04-05T06:53:05.000Z</time></trkpt>
<trkpt lat="42.224791" lon="23.57985"><ele>2356.7</ele><time>2026-04-05T06:53:06.000Z</time></trkpt>
<trkpt lat="42.224781" lon="23.579848"><ele>2356.7</ele><time>2026-04-05T06:53:07.000Z</time></trkpt>
<trkpt lat="42.224771" lon="23.579846"><ele>2356.7</ele><time>2026-04-05T06:53:08.000Z</time></trkpt>
<trkpt lat="42.224761" lon="23.579845"><ele>2356.6</ele><time>2026-04-05T06:53:09.000Z</time></trkpt>
<trkpt lat="42.224751" lon="23.579842"><ele>2356.6</ele><time>2026-04-05T06:53:10.000Z</time></trkpt>
<trkpt lat="42.22474" lon="23.57984"><ele>2356.6</ele><time>2026-04-05T06:53:11.000Z</time></trkpt>
<trkpt lat="42.224729" lon="23.579839"><ele>2356.6</ele><time>2026-04-05T06:53:12.000Z</time></trkpt>
<trkpt lat="42.224718" lon="23.579838"><ele>2356.6</ele><time>2026-04-05T06:53:13.000Z</time></trkpt>
<trkpt lat="42.224708" lon="23.579838"><ele>2356.3</ele><time>2026-04-05T06:53:14.000Z</time></trkpt>
<trkpt lat="42.224697" lon="23.579838"><ele>2356.3</ele><time>2026-04-05T06:53:15.000Z</time></trkpt>
<trkpt lat="42.224686" lon="23.579839"><ele>2356.3</ele><time>2026-04-05T06:53:16.000Z</time></trkpt>
<trkpt lat="42.224675" lon="23.57984"><ele>2356.3</ele><time>2026-04-05T06:53:17.000Z</time></trkpt>
<trkpt lat="42.224664" lon="23.579841"><ele>2356.3</ele><time>2026-04-05T06:53:18.000Z</time></trkpt>
<trkpt lat="42.224652" lon="23.579842"><ele>2356.2</ele><time>2026-04-05T06:53:19.000Z</time></trkpt>
<trkpt lat="42.224641" lon="23.579843"><ele>2356.2</ele><time>2026-04-05T06:53:20.000Z</time></trkpt>
<trkpt lat="42.22463" lon="23.579844"><ele>2356.2</ele><time>2026-04-05T06:53:21.000Z</time></trkpt>
<trkpt lat="42.22462" lon="23.579846"><ele>2356.2</ele><time>2026-04-05T06:53:22.000Z</time></trkpt>
<trkpt lat="42.22461" lon="23.579847"><ele>2356.2</ele><time>2026-04-05T06:53:23.000Z</time></trkpt>
<trkpt lat="42.2246" lon="23.579848"><ele>2356</ele><time>2026-04-05T06:53:24.000Z</time></trkpt>
<trkpt lat="42.22459" lon="23.579848"><ele>2356</ele><time>2026-04-05T06:53:25.000Z</time></trkpt>
<trkpt lat="42.224581" lon="23.579848"><ele>2356</ele><time>2026-04-05T06:53:26.000Z</time></trkpt>
<trkpt lat="42.224571" lon="23.579849"><ele>2356</ele><time>2026-04-05T06:53:27.000Z</time></trkpt>
<trkpt lat="42.224562" lon="23.57985"><ele>2356</ele><time>2026-04-05T06:53:28.000Z</time></trkpt>
<trkpt lat="42.224552" lon="23.579852"><ele>2355.9</ele><time>2026-04-05T06:53:29.000Z</time></trkpt>
<trkpt lat="42.224542" lon="23.579853"><ele>2355.9</ele><time>2026-04-05T06:53:30.000Z</time></trkpt>
<trkpt lat="42.224531" lon="23.579855"><ele>2355.9</ele><time>2026-04-05T06:53:31.000Z</time></trkpt>
<trkpt lat="42.22452" lon="23.579857"><ele>2355.9</ele><time>2026-04-05T06:53:32.000Z</time></trkpt>
<trkpt lat="42.224507" lon="23.579858"><ele>2355.9</ele><time>2026-04-05T06:53:33.000Z</time></trkpt>
<trkpt lat="42.224495" lon="23.57986"><ele>2355.8</ele><time>2026-04-05T06:53:34.000Z</time></trkpt>
<trkpt lat="42.224483" lon="23.579862"><ele>2355.8</ele><time>2026-04-05T06:53:35.000Z</time></trkpt>
<trkpt lat="42.224471" lon="23.579864"><ele>2355.8</ele><time>2026-04-05T06:53:36.000Z</time></trkpt>
<trkpt lat="42.22446" lon="23.579865"><ele>2355.8</ele><time>2026-04-05T06:53:37.000Z</time></trkpt>
<trkpt lat="42.224449" lon="23.579866"><ele>2355.8</ele><time>2026-04-05T06:53:38.000Z</time></trkpt>
<trkpt lat="42.224439" lon="23.579866"><ele>2355.6</ele><time>2026-04-05T06:53:39.000Z</time></trkpt>
<trkpt lat="42.224429" lon="23.579866"><ele>2355.6</ele><time>2026-04-05T06:53:40.000Z</time></trkpt>
<trkpt lat="42.224419" lon="23.579866"><ele>2355.6</ele><time>2026-04-05T06:53:41.000Z</time></trkpt>
<trkpt lat="42.224409" lon="23.579866"><ele>2355.6</ele><time>2026-04-05T06:53:42.000Z</time></trkpt>
<trkpt lat="42.224398" lon="23.579867"><ele>2355.6</ele><time>2026-04-05T06:53:43.000Z</time></trkpt>
<trkpt lat="42.224386" lon="23.579868"><ele>2355.1</ele><time>2026-04-05T06:53:44.000Z</time></trkpt>
<trkpt lat="42.224374" lon="23.579869"><ele>2355.1</ele><time>2026-04-05T06:53:45.000Z</time></trkpt>
<trkpt lat="42.224362" lon="23.579869"><ele>2355.1</ele><time>2026-04-05T06:53:46.000Z</time></trkpt>
<trkpt lat="42.224349" lon="23.579869"><ele>2355.1</ele><time>2026-04-05T06:53:47.000Z</time></trkpt>
<trkpt lat="42.224337" lon="23.57987"><ele>2355.1</ele><time>2026-04-05T06:53:48.000Z</time></trkpt>
<trkpt lat="42.224325" lon="23.579871"><ele>2354.8</ele><time>2026-04-05T06:53:49.000Z</time></trkpt>
<trkpt lat="42.224313" lon="23.579873"><ele>2354.8</ele><time>2026-04-05T06:53:50.000Z</time></trkpt>
<trkpt lat="42.224302" lon="23.579876"><ele>2354.8</ele><time>2026-04-05T06:53:51.000Z</time></trkpt>
<trkpt lat="42.224291" lon="23.579878"><ele>2354.8</ele><time>2026-04-05T06:53:52.000Z</time></trkpt>
<trkpt lat="42.22428" lon="23.57988"><ele>2354.8</ele><time>2026-04-05T06:53:53.000Z</time></trkpt>
<trkpt lat="42.224269" lon="23.579881"><ele>2354.2</ele><time>2026-04-05T06:53:54.000Z</time></trkpt>
<trkpt lat="42.224258" lon="23.579881"><ele>2354.2</ele><time>2026-04-05T06:53:55.000Z</time></trkpt>
<trkpt lat="42.224247" lon="23.579882"><ele>2354.2</ele><time>2026-04-05T06:53:56.000Z</time></trkpt>
<trkpt lat="42.224236" lon="23.579884"><ele>2354.2</ele><time>2026-04-05T06:53:57.000Z</time></trkpt>
<trkpt lat="42.224225" lon="23.579886"><ele>2354.2</ele><time>2026-04-05T06:53:58.000Z</time></trkpt>
<trkpt lat="42.224214" lon="23.579889"><ele>2353.6</ele><time>2026-04-05T06:53:59.000Z</time></trkpt>
<trkpt lat="42.224203" lon="23.579892"><ele>2353.6</ele><time>2026-04-05T06:54:00.000Z</time></trkpt>
<trkpt lat="42.224191" lon="23.579896"><ele>2353.6</ele><time>2026-04-05T06:54:01.000Z</time></trkpt>
<trkpt lat="42.22418" lon="23.579901"><ele>2353.6</ele><time>2026-04-05T06:54:02.000Z</time></trkpt>
<trkpt lat="42.224168" lon="23.579905"><ele>2353.6</ele><time>2026-04-05T06:54:03.000Z</time></trkpt>
<trkpt lat="42.224155" lon="23.579909"><ele>2353.3</ele><time>2026-04-05T06:54:04.000Z</time></trkpt>
<trkpt lat="42.224143" lon="23.579913"><ele>2353.3</ele><time>2026-04-05T06:54:05.000Z</time></trkpt>
<trkpt lat="42.224131" lon="23.579916"><ele>2353.3</ele><time>2026-04-05T06:54:06.000Z</time></trkpt>
<trkpt lat="42.224119" lon="23.579918"><ele>2353.3</ele><time>2026-04-05T06:54:07.000Z</time></trkpt>
<trkpt lat="42.224108" lon="23.57992"><ele>2353.3</ele><time>2026-04-05T06:54:08.000Z</time></trkpt>
<trkpt lat="42.224097" lon="23.579922"><ele>2352.6</ele><time>2026-04-05T06:54:09.000Z</time></trkpt>
<trkpt lat="42.224085" lon="23.579924"><ele>2352.6</ele><time>2026-04-05T06:54:10.000Z</time></trkpt>
<trkpt lat="42.224074" lon="23.579926"><ele>2352.6</ele><time>2026-04-05T06:54:11.000Z</time></trkpt>
<trkpt lat="42.224063" lon="23.579928"><ele>2352.6</ele><time>2026-04-05T06:54:12.000Z</time></trkpt>
<trkpt lat="42.224051" lon="23.57993"><ele>2352.6</ele><time>2026-04-05T06:54:13.000Z</time></trkpt>
<trkpt lat="42.22404" lon="23.579932"><ele>2352.1</ele><time>2026-04-05T06:54:14.000Z</time></trkpt>
<trkpt lat="42.22403" lon="23.579933"><ele>2352.1</ele><time>2026-04-05T06:54:15.000Z</time></trkpt>
<trkpt lat="42.224019" lon="23.579936"><ele>2352.1</ele><time>2026-04-05T06:54:16.000Z</time></trkpt>
<trkpt lat="42.224009" lon="23.579939"><ele>2352.1</ele><time>2026-04-05T06:54:17.000Z</time></trkpt>
<trkpt lat="42.223998" lon="23.579943"><ele>2352.1</ele><time>2026-04-05T06:54:18.000Z</time></trkpt>
<trkpt lat="42.223987" lon="23.579947"><ele>2351.9</ele><time>2026-04-05T06:54:19.000Z</time></trkpt>
<trkpt lat="42.223975" lon="23.579953"><ele>2351.9</ele><time>2026-04-05T06:54:20.000Z</time></trkpt>
<trkpt lat="42.223962" lon="23.579958"><ele>2351.9</ele><time>2026-04-05T06:54:21.000Z</time></trkpt>
<trkpt lat="42.22395" lon="23.579964"><ele>2351.9</ele><time>2026-04-05T06:54:22.000Z</time></trkpt>
<trkpt lat="42.223937" lon="23.579969"><ele>2351.9</ele><time>2026-04-05T06:54:23.000Z</time></trkpt>
<trkpt lat="42.223925" lon="23.579975"><ele>2351.4</ele><time>2026-04-05T06:54:24.000Z</time></trkpt>
<trkpt lat="42.223913" lon="23.579979"><ele>2351.4</ele><time>2026-04-05T06:54:25.000Z</time></trkpt>
<trkpt lat="42.223902" lon="23.579982"><ele>2351.4</ele><time>2026-04-05T06:54:26.000Z</time></trkpt>
<trkpt lat="42.22389" lon="23.579985"><ele>2351.4</ele><time>2026-04-05T06:54:27.000Z</time></trkpt>
<trkpt lat="42.223878" lon="23.579988"><ele>2351.4</ele><time>2026-04-05T06:54:28.000Z</time></trkpt>
<trkpt lat="42.223866" lon="23.579992"><ele>2350.8</ele><time>2026-04-05T06:54:29.000Z</time></trkpt>
<trkpt lat="42.223853" lon="23.579996"><ele>2350.8</ele><time>2026-04-05T06:54:30.000Z</time></trkpt>
<trkpt lat="42.223841" lon="23.58"><ele>2350.8</ele><time>2026-04-05T06:54:31.000Z</time></trkpt>
<trkpt lat="42.223829" lon="23.580004"><ele>2350.8</ele><time>2026-04-05T06:54:32.000Z</time></trkpt>
<trkpt lat="42.223817" lon="23.580009"><ele>2350.8</ele><time>2026-04-05T06:54:33.000Z</time></trkpt>
<trkpt lat="42.223807" lon="23.580012"><ele>2350.5</ele><time>2026-04-05T06:54:34.000Z</time></trkpt>
<trkpt lat="42.223796" lon="23.580016"><ele>2350.5</ele><time>2026-04-05T06:54:35.000Z</time></trkpt>
<trkpt lat="42.223786" lon="23.580019"><ele>2350.5</ele><time>2026-04-05T06:54:36.000Z</time></trkpt>
<trkpt lat="42.223776" lon="23.580023"><ele>2350.5</ele><time>2026-04-05T06:54:37.000Z</time></trkpt>
<trkpt lat="42.223764" lon="23.580026"><ele>2350.5</ele><time>2026-04-05T06:54:38.000Z</time></trkpt>
<trkpt lat="42.223753" lon="23.58003"><ele>2349.9</ele><time>2026-04-05T06:54:39.000Z</time></trkpt>
<trkpt lat="42.223741" lon="23.580034"><ele>2349.9</ele><time>2026-04-05T06:54:40.000Z</time></trkpt>
<trkpt lat="42.223728" lon="23.580038"><ele>2349.9</ele><time>2026-04-05T06:54:41.000Z</time></trkpt>
<trkpt lat="42.223716" lon="23.580042"><ele>2349.9</ele><time>2026-04-05T06:54:42.000Z</time></trkpt>
<trkpt lat="42.223704" lon="23.580046"><ele>2349.9</ele><time>2026-04-05T06:54:43.000Z</time></trkpt>
<trkpt lat="42.223691" lon="23.58005"><ele>2349.2</ele><time>2026-04-05T06:54:44.000Z</time></trkpt>
<trkpt lat="42.223679" lon="23.580053"><ele>2349.2</ele><time>2026-04-05T06:54:45.000Z</time></trkpt>
<trkpt lat="42.223667" lon="23.580056"><ele>2349.2</ele><time>2026-04-05T06:54:46.000Z</time></trkpt>
<trkpt lat="42.223656" lon="23.58006"><ele>2349.2</ele><time>2026-04-05T06:54:47.000Z</time></trkpt>
<trkpt lat="42.223644" lon="23.580064"><ele>2349.2</ele><time>2026-04-05T06:54:48.000Z</time></trkpt>
<trkpt lat="42.223633" lon="23.580069"><ele>2348.8</ele><time>2026-04-05T06:54:49.000Z</time></trkpt>
<trkpt lat="42.223621" lon="23.580073"><ele>2348.8</ele><time>2026-04-05T06:54:50.000Z</time></trkpt>
<trkpt lat="42.223609" lon="23.580078"><ele>2348.8</ele><time>2026-04-05T06:54:51.000Z</time></trkpt>
<trkpt lat="42.223597" lon="23.580083"><ele>2348.8</ele><time>2026-04-05T06:54:52.000Z</time></trkpt>
<trkpt lat="42.223585" lon="23.580087"><ele>2348.8</ele><time>2026-04-05T06:54:53.000Z</time></trkpt>
<trkpt lat="42.223573" lon="23.580091"><ele>2348</ele><time>2026-04-05T06:54:54.000Z</time></trkpt>
<trkpt lat="42.223561" lon="23.580094"><ele>2348</ele><time>2026-04-05T06:54:55.000Z</time></trkpt>
<trkpt lat="42.22355" lon="23.580097"><ele>2348</ele><time>2026-04-05T06:54:56.000Z</time></trkpt>
<trkpt lat="42.223538" lon="23.580099"><ele>2348</ele><time>2026-04-05T06:54:57.000Z</time></trkpt>
<trkpt lat="42.223526" lon="23.580101"><ele>2348</ele><time>2026-04-05T06:54:58.000Z</time></trkpt>
<trkpt lat="42.223514" lon="23.580101"><ele>2347.4</ele><time>2026-04-05T06:54:59.000Z</time></trkpt>
<trkpt lat="42.223503" lon="23.580103"><ele>2347.4</ele><time>2026-04-05T06:55:00.000Z</time></trkpt>
<trkpt lat="42.223493" lon="23.580104"><ele>2347.4</ele><time>2026-04-05T06:55:01.000Z</time></trkpt>
<trkpt lat="42.223483" lon="23.580105"><ele>2347.4</ele><time>2026-04-05T06:55:02.000Z</time></trkpt>
<trkpt lat="42.223473" lon="23.580107"><ele>2347.4</ele><time>2026-04-05T06:55:03.000Z</time></trkpt>
<trkpt lat="42.223463" lon="23.580109"><ele>2347.3</ele><time>2026-04-05T06:55:04.000Z</time></trkpt>
<trkpt lat="42.223453" lon="23.580112"><ele>2347.3</ele><time>2026-04-05T06:55:05.000Z</time></trkpt>
<trkpt lat="42.223441" lon="23.580114"><ele>2347.3</ele><time>2026-04-05T06:55:06.000Z</time></trkpt>
<trkpt lat="42.22343" lon="23.580115"><ele>2347.3</ele><time>2026-04-05T06:55:07.000Z</time></trkpt>
<trkpt lat="42.223418" lon="23.580117"><ele>2347.3</ele><time>2026-04-05T06:55:08.000Z</time></trkpt>
<trkpt lat="42.223406" lon="23.580118"><ele>2347.1</ele><time>2026-04-05T06:55:09.000Z</time></trkpt>
<trkpt lat="42.223394" lon="23.580119"><ele>2347.1</ele><time>2026-04-05T06:55:10.000Z</time></trkpt>
<trkpt lat="42.223381" lon="23.58012"><ele>2347.1</ele><time>2026-04-05T06:55:11.000Z</time></trkpt>
<trkpt lat="42.223369" lon="23.580121"><ele>2347.1</ele><time>2026-04-05T06:55:12.000Z</time></trkpt>
<trkpt lat="42.223357" lon="23.580122"><ele>2347.1</ele><time>2026-04-05T06:55:13.000Z</time></trkpt>
<trkpt lat="42.223344" lon="23.580122"><ele>2346.9</ele><time>2026-04-05T06:55:14.000Z</time></trkpt>
<trkpt lat="42.223332" lon="23.580122"><ele>2346.9</ele><time>2026-04-05T06:55:15.000Z</time></trkpt>
<trkpt lat="42.223321" lon="23.580122"><ele>2346.9</ele><time>2026-04-05T06:55:16.000Z</time></trkpt>
<trkpt lat="42.223309" lon="23.580122"><ele>2346.9</ele><time>2026-04-05T06:55:17.000Z</time></trkpt>
<trkpt lat="42.223297" lon="23.580122"><ele>2346.9</ele><time>2026-04-05T06:55:18.000Z</time></trkpt>
<trkpt lat="42.223286" lon="23.580124"><ele>2346.9</ele><time>2026-04-05T06:55:19.000Z</time></trkpt>
<trkpt lat="42.223274" lon="23.580125"><ele>2346.9</ele><time>2026-04-05T06:55:20.000Z</time></trkpt>
<trkpt lat="42.223262" lon="23.580126"><ele>2346.9</ele><time>2026-04-05T06:55:21.000Z</time></trkpt>
<trkpt lat="42.22325" lon="23.580127"><ele>2346.9</ele><time>2026-04-05T06:55:22.000Z</time></trkpt>
<trkpt lat="42.223237" lon="23.580127"><ele>2346.9</ele><time>2026-04-05T06:55:23.000Z</time></trkpt>
<trkpt lat="42.223224" lon="23.580126"><ele>2346.7</ele><time>2026-04-05T06:55:24.000Z</time></trkpt>
<trkpt lat="42.223211" lon="23.580125"><ele>2346.7</ele><time>2026-04-05T06:55:25.000Z</time></trkpt>
<trkpt lat="42.223198" lon="23.580124"><ele>2346.7</ele><time>2026-04-05T06:55:26.000Z</time></trkpt>
<trkpt lat="42.223187" lon="23.580123"><ele>2346.7</ele><time>2026-04-05T06:55:27.000Z</time></trkpt>
<trkpt lat="42.223175" lon="23.580123"><ele>2346.7</ele><time>2026-04-05T06:55:28.000Z</time></trkpt>
<trkpt lat="42.223165" lon="23.580122"><ele>2346.4</ele><time>2026-04-05T06:55:29.000Z</time></trkpt>
<trkpt lat="42.223155" lon="23.580121"><ele>2346.4</ele><time>2026-04-05T06:55:30.000Z</time></trkpt>
<trkpt lat="42.223144" lon="23.58012"><ele>2346.4</ele><time>2026-04-05T06:55:31.000Z</time></trkpt>
<trkpt lat="42.223133" lon="23.580119"><ele>2346.4</ele><time>2026-04-05T06:55:32.000Z</time></trkpt>
<trkpt lat="42.223122" lon="23.580117"><ele>2346.4</ele><time>2026-04-05T06:55:33.000Z</time></trkpt>
<trkpt lat="42.223111" lon="23.580117"><ele>2346.2</ele><time>2026-04-05T06:55:34.000Z</time></trkpt>
<trkpt lat="42.223099" lon="23.580117"><ele>2346.2</ele><time>2026-04-05T06:55:35.000Z</time></trkpt>
<trkpt lat="42.223087" lon="23.580118"><ele>2346.2</ele><time>2026-04-05T06:55:36.000Z</time></trkpt>
<trkpt lat="42.223076" lon="23.580118"><ele>2346.2</ele><time>2026-04-05T06:55:37.000Z</time></trkpt>
<trkpt lat="42.223064" lon="23.58012"><ele>2346.2</ele><time>2026-04-05T06:55:38.000Z</time></trkpt>
<trkpt lat="42.223053" lon="23.580121"><ele>2345.8</ele><time>2026-04-05T06:55:39.000Z</time></trkpt>
<trkpt lat="42.223041" lon="23.580122"><ele>2345.8</ele><time>2026-04-05T06:55:40.000Z</time></trkpt>
<trkpt lat="42.223029" lon="23.580122"><ele>2345.8</ele><time>2026-04-05T06:55:41.000Z</time></trkpt>
<trkpt lat="42.223017" lon="23.580123"><ele>2345.8</ele><time>2026-04-05T06:55:42.000Z</time></trkpt>
<trkpt lat="42.223005" lon="23.580123"><ele>2345.8</ele><time>2026-04-05T06:55:43.000Z</time></trkpt>
<trkpt lat="42.222993" lon="23.580124"><ele>2345.5</ele><time>2026-04-05T06:55:44.000Z</time></trkpt>
<trkpt lat="42.222981" lon="23.580123"><ele>2345.5</ele><time>2026-04-05T06:55:45.000Z</time></trkpt>
<trkpt lat="42.222969" lon="23.580122"><ele>2345.5</ele><time>2026-04-05T06:55:46.000Z</time></trkpt>
<trkpt lat="42.222958" lon="23.580121"><ele>2345.5</ele><time>2026-04-05T06:55:47.000Z</time></trkpt>
<trkpt lat="42.222946" lon="23.58012"><ele>2345.5</ele><time>2026-04-05T06:55:48.000Z</time></trkpt>
<trkpt lat="42.222935" lon="23.580119"><ele>2345.3</ele><time>2026-04-05T06:55:49.000Z</time></trkpt>
<trkpt lat="42.222923" lon="23.580119"><ele>2345.3</ele><time>2026-04-05T06:55:50.000Z</time></trkpt>
<trkpt lat="42.222912" lon="23.580119"><ele>2345.3</ele><time>2026-04-05T06:55:51.000Z</time></trkpt>
<trkpt lat="42.2229" lon="23.580119"><ele>2345.3</ele><time>2026-04-05T06:55:52.000Z</time></trkpt>
<trkpt lat="42.222889" lon="23.580118"><ele>2345.3</ele><time>2026-04-05T06:55:53.000Z</time></trkpt>
<trkpt lat="42.222878" lon="23.580118"><ele>2344.7</ele><time>2026-04-05T06:55:54.000Z</time></trkpt>
<trkpt lat="42.222867" lon="23.580119"><ele>2344.7</ele><time>2026-04-05T06:55:55.000Z</time></trkpt>
<trkpt lat="42.222856" lon="23.58012"><ele>2344.7</ele><time>2026-04-05T06:55:56.000Z</time></trkpt>
<trkpt lat="42.222845" lon="23.580122"><ele>2344.7</ele><time>2026-04-05T06:55:57.000Z</time></trkpt>
<trkpt lat="42.222834" lon="23.580123"><ele>2344.7</ele><time>2026-04-05T06:55:58.000Z</time></trkpt>
<trkpt lat="42.222822" lon="23.580123"><ele>2343.9</ele><time>2026-04-05T06:55:59.000Z</time></trkpt>
<trkpt lat="42.222809" lon="23.580125"><ele>2343.9</ele><time>2026-04-05T06:56:00.000Z</time></trkpt>
<trkpt lat="42.222796" lon="23.580126"><ele>2343.9</ele><time>2026-04-05T06:56:01.000Z</time></trkpt>
<trkpt lat="42.222783" lon="23.580127"><ele>2343.9</ele><time>2026-04-05T06:56:02.000Z</time></trkpt>
<trkpt lat="42.22277" lon="23.580127"><ele>2343.9</ele><time>2026-04-05T06:56:03.000Z</time></trkpt>
<trkpt lat="42.222758" lon="23.580127"><ele>2343.6</ele><time>2026-04-05T06:56:04.000Z</time></trkpt>
<trkpt lat="42.222746" lon="23.580127"><ele>2343.6</ele><time>2026-04-05T06:56:05.000Z</time></trkpt>
<trkpt lat="42.222735" lon="23.580127"><ele>2343.6</ele><time>2026-04-05T06:56:06.000Z</time></trkpt>
<trkpt lat="42.222725" lon="23.580126"><ele>2343.6</ele><time>2026-04-05T06:56:07.000Z</time></trkpt>
<trkpt lat="42.222716" lon="23.580124"><ele>2343.6</ele><time>2026-04-05T06:56:08.000Z</time></trkpt>
<trkpt lat="42.222708" lon="23.580122"><ele>2342.9</ele><time>2026-04-05T06:56:09.000Z</time></trkpt>
<trkpt lat="42.2227" lon="23.580119"><ele>2342.9</ele><time>2026-04-05T06:56:10.000Z</time></trkpt>
<trkpt lat="42.222692" lon="23.580115"><ele>2342.9</ele><time>2026-04-05T06:56:11.000Z</time></trkpt>
<trkpt lat="42.222684" lon="23.580112"><ele>2342.9</ele><time>2026-04-05T06:56:12.000Z</time></trkpt>
<trkpt lat="42.222675" lon="23.580109"><ele>2342.9</ele><time>2026-04-05T06:56:13.000Z</time></trkpt>
<trkpt lat="42.222666" lon="23.580106"><ele>2342.2</ele><time>2026-04-05T06:56:14.000Z</time></trkpt>
<trkpt lat="42.222656" lon="23.580103"><ele>2342.2</ele><time>2026-04-05T06:56:15.000Z</time></trkpt>
<trkpt lat="42.222646" lon="23.580101"><ele>2342.2</ele><time>2026-04-05T06:56:16.000Z</time></trkpt>
<trkpt lat="42.222635" lon="23.580099"><ele>2342.2</ele><time>2026-04-05T06:56:17.000Z</time></trkpt>
<trkpt lat="42.222625" lon="23.580098"><ele>2342.2</ele><time>2026-04-05T06:56:18.000Z</time></trkpt>
<trkpt lat="42.222614" lon="23.580097"><ele>2341.9</ele><time>2026-04-05T06:56:19.000Z</time></trkpt>
<trkpt lat="42.222602" lon="23.580097"><ele>2341.9</ele><time>2026-04-05T06:56:20.000Z</time></trkpt>
<trkpt lat="42.222591" lon="23.580097"><ele>2341.9</ele><time>2026-04-05T06:56:21.000Z</time></trkpt>
<trkpt lat="42.22258" lon="23.580097"><ele>2341.9</ele><time>2026-04-05T06:56:22.000Z</time></trkpt>
<trkpt lat="42.222569" lon="23.580097"><ele>2341.9</ele><time>2026-04-05T06:56:23.000Z</time></trkpt>
<trkpt lat="42.222559" lon="23.580097"><ele>2341.3</ele><time>2026-04-05T06:56:24.000Z</time></trkpt>
<trkpt lat="42.222549" lon="23.580097"><ele>2341.3</ele><time>2026-04-05T06:56:25.000Z</time></trkpt>
<trkpt lat="42.22254" lon="23.580097"><ele>2341.3</ele><time>2026-04-05T06:56:26.000Z</time></trkpt>
<trkpt lat="42.22253" lon="23.580096"><ele>2341.3</ele><time>2026-04-05T06:56:27.000Z</time></trkpt>
<trkpt lat="42.22252" lon="23.580095"><ele>2341.3</ele><time>2026-04-05T06:56:28.000Z</time></trkpt>
<trkpt lat="42.22251" lon="23.580095"><ele>2340.5</ele><time>2026-04-05T06:56:29.000Z</time></trkpt>
<trkpt lat="42.2225" lon="23.580094"><ele>2340.5</ele><time>2026-04-05T06:56:30.000Z</time></trkpt>
<trkpt lat="42.222489" lon="23.580095"><ele>2340.5</ele><time>2026-04-05T06:56:31.000Z</time></trkpt>
<trkpt lat="42.222478" lon="23.580096"><ele>2340.5</ele><time>2026-04-05T06:56:32.000Z</time></trkpt>
<trkpt lat="42.222468" lon="23.580097"><ele>2340.5</ele><time>2026-04-05T06:56:33.000Z</time></trkpt>
<trkpt lat="42.222457" lon="23.580098"><ele>2340</ele><time>2026-04-05T06:56:34.000Z</time></trkpt>
<trkpt lat="42.222446" lon="23.580099"><ele>2340</ele><time>2026-04-05T06:56:35.000Z</time></trkpt>
<trkpt lat="42.222436" lon="23.5801"><ele>2340</ele><time>2026-04-05T06:56:36.000Z</time></trkpt>
<trkpt lat="42.222425" lon="23.580101"><ele>2340</ele><time>2026-04-05T06:56:37.000Z</time></trkpt>
<trkpt lat="42.222416" lon="23.580103"><ele>2340</ele><time>2026-04-05T06:56:38.000Z</time></trkpt>
<trkpt lat="42.222407" lon="23.580104"><ele>2339</ele><time>2026-04-05T06:56:39.000Z</time></trkpt>
<trkpt lat="42.222398" lon="23.580106"><ele>2339</ele><time>2026-04-05T06:56:40.000Z</time></trkpt>
<trkpt lat="42.222389" lon="23.580107"><ele>2339</ele><time>2026-04-05T06:56:41.000Z</time></trkpt>
<trkpt lat="42.22238" lon="23.580108"><ele>2339</ele><time>2026-04-05T06:56:42.000Z</time></trkpt>
<trkpt lat="42.22237" lon="23.580109"><ele>2339</ele><time>2026-04-05T06:56:43.000Z</time></trkpt>
<trkpt lat="42.222361" lon="23.58011"><ele>2338</ele><time>2026-04-05T06:56:44.000Z</time></trkpt>
<trkpt lat="42.222352" lon="23.580112"><ele>2338</ele><time>2026-04-05T06:56:45.000Z</time></trkpt>
<trkpt lat="42.222343" lon="23.580114"><ele>2338</ele><time>2026-04-05T06:56:46.000Z</time></trkpt>
<trkpt lat="42.222334" lon="23.580117"><ele>2338</ele><time>2026-04-05T06:56:47.000Z</time></trkpt>
<trkpt lat="42.222324" lon="23.58012"><ele>2338</ele><time>2026-04-05T06:56:48.000Z</time></trkpt>
<trkpt lat="42.222315" lon="23.580122"><ele>2337.4</ele><time>2026-04-05T06:56:49.000Z</time></trkpt>
<trkpt lat="42.222306" lon="23.580124"><ele>2337.4</ele><time>2026-04-05T06:56:50.000Z</time></trkpt>
<trkpt lat="42.222297" lon="23.580125"><ele>2337.4</ele><time>2026-04-05T06:56:51.000Z</time></trkpt>
<trkpt lat="42.222287" lon="23.580126"><ele>2337.4</ele><time>2026-04-05T06:56:52.000Z</time></trkpt>
<trkpt lat="42.222278" lon="23.580126"><ele>2337.4</ele><time>2026-04-05T06:56:53.000Z</time></trkpt>
<trkpt lat="42.222269" lon="23.580126"><ele>2336.4</ele><time>2026-04-05T06:56:54.000Z</time></trkpt>
<trkpt lat="42.222259" lon="23.580126"><ele>2336.4</ele><time>2026-04-05T06:56:55.000Z</time></trkpt>
<trkpt lat="42.222249" lon="23.580127"><ele>2336.4</ele><time>2026-04-05T06:56:56.000Z</time></trkpt>
<trkpt lat="42.222239" lon="23.580128"><ele>2336.4</ele><time>2026-04-05T06:56:57.000Z</time></trkpt>
<trkpt lat="42.222229" lon="23.58013"><ele>2336.4</ele><time>2026-04-05T06:56:58.000Z</time></trkpt>
<trkpt lat="42.222218" lon="23.580133"><ele>2335.4</ele><time>2026-04-05T06:56:59.000Z</time></trkpt>
<trkpt lat="42.222208" lon="23.580136"><ele>2335.4</ele><time>2026-04-05T06:57:00.000Z</time></trkpt>
<trkpt lat="42.222199" lon="23.58014"><ele>2335.4</ele><time>2026-04-05T06:57:01.000Z</time></trkpt>
<trkpt lat="42.22219" lon="23.580142"><ele>2335.4</ele><time>2026-04-05T06:57:02.000Z</time></trkpt>
<trkpt lat="42.222181" lon="23.580145"><ele>2335.4</ele><time>2026-04-05T06:57:03.000Z</time></trkpt>
<trkpt lat="42.222172" lon="23.580147"><ele>2335</ele><time>2026-04-05T06:57:04.000Z</time></trkpt>
<trkpt lat="42.222162" lon="23.580145"><ele>2335</ele><time>2026-04-05T06:57:05.000Z</time></trkpt>
<trkpt lat="42.222152" lon="23.580143"><ele>2335</ele><time>2026-04-05T06:57:06.000Z</time></trkpt>
<trkpt lat="42.222142" lon="23.58014"><ele>2335</ele><time>2026-04-05T06:57:07.000Z</time></trkpt>
<trkpt lat="42.222132" lon="23.580138"><ele>2335</ele><time>2026-04-05T06:57:08.000Z</time></trkpt>
<trkpt lat="42.222122" lon="23.580137"><ele>2334</ele><time>2026-04-05T06:57:09.000Z</time></trkpt>
<trkpt lat="42.222112" lon="23.580139"><ele>2334</ele><time>2026-04-05T06:57:10.000Z</time></trkpt>
<trkpt lat="42.222103" lon="23.580142"><ele>2334</ele><time>2026-04-05T06:57:11.000Z</time></trkpt>
<trkpt lat="42.222094" lon="23.580145"><ele>2334</ele><time>2026-04-05T06:57:12.000Z</time></trkpt>
<trkpt lat="42.222086" lon="23.580149"><ele>2334</ele><time>2026-04-05T06:57:13.000Z</time></trkpt>
<trkpt lat="42.222078" lon="23.580152"><ele>2333.1</ele><time>2026-04-05T06:57:14.000Z</time></trkpt>
<trkpt lat="42.222071" lon="23.580156"><ele>2333.1</ele><time>2026-04-05T06:57:15.000Z</time></trkpt>
<trkpt lat="42.222066" lon="23.58016"><ele>2333.1</ele><time>2026-04-05T06:57:16.000Z</time></trkpt>
<trkpt lat="42.222063" lon="23.580163"><ele>2333.1</ele><time>2026-04-05T06:57:17.000Z</time></trkpt>
<trkpt lat="42.222062" lon="23.580166"><ele>2333.1</ele><time>2026-04-05T06:57:18.000Z</time></trkpt>
<trkpt lat="42.222062" lon="23.580168"><ele>2332.7</ele><time>2026-04-05T06:57:19.000Z</time></trkpt>
<trkpt lat="42.222064" lon="23.580169"><ele>2332.7</ele><time>2026-04-05T06:57:20.000Z</time></trkpt>
<trkpt lat="42.222065" lon="23.58017"><ele>2332.7</ele><time>2026-04-05T06:57:21.000Z</time></trkpt>
<trkpt lat="42.222065" lon="23.58017"><ele>2332.7</ele><time>2026-04-05T06:57:22.000Z</time></trkpt>
<trkpt lat="42.222066" lon="23.58017"><ele>2332.7</ele><time>2026-04-05T06:57:23.000Z</time></trkpt>
<trkpt lat="42.222066" lon="23.58017"><ele>2332.1</ele><time>2026-04-05T06:57:24.000Z</time></trkpt>
<trkpt lat="42.222066" lon="23.58017"><ele>2332.1</ele><time>2026-04-05T06:57:25.000Z</time></trkpt>
<trkpt lat="42.222066" lon="23.580169"><ele>2332.1</ele><time>2026-04-05T06:57:26.000Z</time></trkpt>
<trkpt lat="42.222066" lon="23.58017"><ele>2332.1</ele><time>2026-04-05T06:57:27.000Z</time></trkpt>
<trkpt lat="42.222067" lon="23.58017"><ele>2332.1</ele><time>2026-04-05T06:57:28.000Z</time></trkpt>
<trkpt lat="42.222067" lon="23.58017"><ele>2331.7</ele><time>2026-04-05T06:57:29.000Z</time></trkpt>
<trkpt lat="42.222065" lon="23.580171"><ele>2331.7</ele><time>2026-04-05T06:57:30.000Z</time></trkpt>
<trkpt lat="42.22206" lon="23.580174"><ele>2331.7</ele><time>2026-04-05T06:57:31.000Z</time></trkpt>
<trkpt lat="42.222051" lon="23.580176"><ele>2331.7</ele><time>2026-04-05T06:57:32.000Z</time></trkpt>
<trkpt lat="42.22204" lon="23.58018"><ele>2331.7</ele><time>2026-04-05T06:57:33.000Z</time></trkpt>
<trkpt lat="42.222026" lon="23.580183"><ele>2331.6</ele><time>2026-04-05T06:57:34.000Z</time></trkpt>
<trkpt lat="42.222011" lon="23.580187"><ele>2331.6</ele><time>2026-04-05T06:57:35.000Z</time></trkpt>
<trkpt lat="42.221997" lon="23.58019"><ele>2331.6</ele><time>2026-04-05T06:57:36.000Z</time></trkpt>
<trkpt lat="42.221984" lon="23.580192"><ele>2331.6</ele><time>2026-04-05T06:57:37.000Z</time></trkpt>
<trkpt lat="42.22197" lon="23.580195"><ele>2331.6</ele><time>2026-04-05T06:57:38.000Z</time></trkpt>
<trkpt lat="42.221957" lon="23.580199"><ele>2331.4</ele><time>2026-04-05T06:57:39.000Z</time></trkpt>
<trkpt lat="42.221944" lon="23.580202"><ele>2331.4</ele><time>2026-04-05T06:57:40.000Z</time></trkpt>
<trkpt lat="42.221932" lon="23.580205"><ele>2331.4</ele><time>2026-04-05T06:57:41.000Z</time></trkpt>
<trkpt lat="42.221919" lon="23.580208"><ele>2331.4</ele><time>2026-04-05T06:57:42.000Z</time></trkpt>
<trkpt lat="42.221905" lon="23.580209"><ele>2331.4</ele><time>2026-04-05T06:57:43.000Z</time></trkpt>
<trkpt lat="42.221892" lon="23.580211"><ele>2330.7</ele><time>2026-04-05T06:57:44.000Z</time></trkpt>
<trkpt lat="42.221878" lon="23.580213"><ele>2330.7</ele><time>2026-04-05T06:57:45.000Z</time></trkpt>
<trkpt lat="42.221864" lon="23.580215"><ele>2330.7</ele><time>2026-04-05T06:57:46.000Z</time></trkpt>
<trkpt lat="42.22185" lon="23.580217"><ele>2330.7</ele><time>2026-04-05T06:57:47.000Z</time></trkpt>
<trkpt lat="42.221836" lon="23.580218"><ele>2330.7</ele><time>2026-04-05T06:57:48.000Z</time></trkpt>
<trkpt lat="42.221822" lon="23.58022"><ele>2330.3</ele><time>2026-04-05T06:57:49.000Z</time></trkpt>
<trkpt lat="42.221808" lon="23.580222"><ele>2330.3</ele><time>2026-04-05T06:57:50.000Z</time></trkpt>
<trkpt lat="42.221794" lon="23.580225"><ele>2330.3</ele><time>2026-04-05T06:57:51.000Z</time></trkpt>
<trkpt lat="42.22178" lon="23.580227"><ele>2330.3</ele><time>2026-04-05T06:57:52.000Z</time></trkpt>
<trkpt lat="42.221765" lon="23.58023"><ele>2330.3</ele><time>2026-04-05T06:57:53.000Z</time></trkpt>
<trkpt lat="42.221751" lon="23.580233"><ele>2329.2</ele><time>2026-04-05T06:57:54.000Z</time></trkpt>
<trkpt lat="42.221737" lon="23.580235"><ele>2329.2</ele><time>2026-04-05T06:57:55.000Z</time></trkpt>
<trkpt lat="42.221724" lon="23.580237"><ele>2329.2</ele><time>2026-04-05T06:57:56.000Z</time></trkpt>
<trkpt lat="42.221712" lon="23.58024"><ele>2329.2</ele><time>2026-04-05T06:57:57.000Z</time></trkpt>
<trkpt lat="42.221701" lon="23.580244"><ele>2329.2</ele><time>2026-04-05T06:57:58.000Z</time></trkpt>
<trkpt lat="42.22169" lon="23.580248"><ele>2328.1</ele><time>2026-04-05T06:57:59.000Z</time></trkpt>
<trkpt lat="42.221678" lon="23.580253"><ele>2328.1</ele><time>2026-04-05T06:58:00.000Z</time></trkpt>
<trkpt lat="42.221667" lon="23.580259"><ele>2328.1</ele><time>2026-04-05T06:58:01.000Z</time></trkpt>
<trkpt lat="42.221655" lon="23.580264"><ele>2328.1</ele><time>2026-04-05T06:58:02.000Z</time></trkpt>
<trkpt lat="42.221644" lon="23.580269"><ele>2328.1</ele><time>2026-04-05T06:58:03.000Z</time></trkpt>
<trkpt lat="42.221632" lon="23.580273"><ele>2327.6</ele><time>2026-04-05T06:58:04.000Z</time></trkpt>
<trkpt lat="42.22162" lon="23.580276"><ele>2327.6</ele><time>2026-04-05T06:58:05.000Z</time></trkpt>
<trkpt lat="42.221609" lon="23.58028"><ele>2327.6</ele><time>2026-04-05T06:58:06.000Z</time></trkpt>
<trkpt lat="42.221598" lon="23.580283"><ele>2327.6</ele><time>2026-04-05T06:58:07.000Z</time></trkpt>
<trkpt lat="42.221587" lon="23.580287"><ele>2327.6</ele><time>2026-04-05T06:58:08.000Z</time></trkpt>
<trkpt lat="42.221575" lon="23.580292"><ele>2326.3</ele><time>2026-04-05T06:58:09.000Z</time></trkpt>
<trkpt lat="42.221564" lon="23.580296"><ele>2326.3</ele><time>2026-04-05T06:58:10.000Z</time></trkpt>
<trkpt lat="42.221553" lon="23.580301"><ele>2326.3</ele><time>2026-04-05T06:58:11.000Z</time></trkpt>
<trkpt lat="42.221541" lon="23.580307"><ele>2326.3</ele><time>2026-04-05T06:58:12.000Z</time></trkpt>
<trkpt lat="42.22153" lon="23.580312"><ele>2326.3</ele><time>2026-04-05T06:58:13.000Z</time></trkpt>
<trkpt lat="42.221518" lon="23.580316"><ele>2325.1</ele><time>2026-04-05T06:58:14.000Z</time></trkpt>
<trkpt lat="42.221507" lon="23.58032"><ele>2325.1</ele><time>2026-04-05T06:58:15.000Z</time></trkpt>
<trkpt lat="42.221496" lon="23.580324"><ele>2325.1</ele><time>2026-04-05T06:58:16.000Z</time></trkpt>
<trkpt lat="42.221486" lon="23.580327"><ele>2325.1</ele><time>2026-04-05T06:58:17.000Z</time></trkpt>
<trkpt lat="42.221475" lon="23.58033"><ele>2325.1</ele><time>2026-04-05T06:58:18.000Z</time></trkpt>
<trkpt lat="42.221464" lon="23.580333"><ele>2324.5</ele><time>2026-04-05T06:58:19.000Z</time></trkpt>
<trkpt lat="42.221453" lon="23.580335"><ele>2324.5</ele><time>2026-04-05T06:58:20.000Z</time></trkpt>
<trkpt lat="42.221442" lon="23.580337"><ele>2324.5</ele><time>2026-04-05T06:58:21.000Z</time></trkpt>
<trkpt lat="42.221431" lon="23.58034"><ele>2324.5</ele><time>2026-04-05T06:58:22.000Z</time></trkpt>
<trkpt lat="42.22142" lon="23.580343"><ele>2324.5</ele><time>2026-04-05T06:58:23.000Z</time></trkpt>
<trkpt lat="42.221409" lon="23.580346"><ele>2323.5</ele><time>2026-04-05T06:58:24.000Z</time></trkpt>
<trkpt lat="42.221398" lon="23.580351"><ele>2323.5</ele><time>2026-04-05T06:58:25.000Z</time></trkpt>
<trkpt lat="42.221388" lon="23.580356"><ele>2323.5</ele><time>2026-04-05T06:58:26.000Z</time></trkpt>
<trkpt lat="42.221376" lon="23.580361"><ele>2323.5</ele><time>2026-04-05T06:58:27.000Z</time></trkpt>
<trkpt lat="42.221364" lon="23.580366"><ele>2323.5</ele><time>2026-04-05T06:58:28.000Z</time></trkpt>
<trkpt lat="42.221351" lon="23.580371"><ele>2322.4</ele><time>2026-04-05T06:58:29.000Z</time></trkpt>
<trkpt lat="42.221339" lon="23.580376"><ele>2322.4</ele><time>2026-04-05T06:58:30.000Z</time></trkpt>
<trkpt lat="42.221327" lon="23.580382"><ele>2322.4</ele><time>2026-04-05T06:58:31.000Z</time></trkpt>
<trkpt lat="42.221315" lon="23.580388"><ele>2322.4</ele><time>2026-04-05T06:58:32.000Z</time></trkpt>
<trkpt lat="42.221304" lon="23.580395"><ele>2322.4</ele><time>2026-04-05T06:58:33.000Z</time></trkpt>
<trkpt lat="42.221293" lon="23.580402"><ele>2321.8</ele><time>2026-04-05T06:58:34.000Z</time></trkpt>
<trkpt lat="42.221281" lon="23.580409"><ele>2321.8</ele><time>2026-04-05T06:58:35.000Z</time></trkpt>
<trkpt lat="42.221269" lon="23.580416"><ele>2321.8</ele><time>2026-04-05T06:58:36.000Z</time></trkpt>
<trkpt lat="42.221258" lon="23.580422"><ele>2321.8</ele><time>2026-04-05T06:58:37.000Z</time></trkpt>
<trkpt lat="42.221247" lon="23.580427"><ele>2321.8</ele><time>2026-04-05T06:58:38.000Z</time></trkpt>
<trkpt lat="42.221236" lon="23.580433"><ele>2320.7</ele><time>2026-04-05T06:58:39.000Z</time></trkpt>
<trkpt lat="42.221226" lon="23.580438"><ele>2320.7</ele><time>2026-04-05T06:58:40.000Z</time></trkpt>
<trkpt lat="42.221216" lon="23.580443"><ele>2320.7</ele><time>2026-04-05T06:58:41.000Z</time></trkpt>
<trkpt lat="42.221204" lon="23.580448"><ele>2320.7</ele><time>2026-04-05T06:58:42.000Z</time></trkpt>
<trkpt lat="42.221193" lon="23.580453"><ele>2320.7</ele><time>2026-04-05T06:58:43.000Z</time></trkpt>
<trkpt lat="42.221182" lon="23.580457"><ele>2319.7</ele><time>2026-04-05T06:58:44.000Z</time></trkpt>
<trkpt lat="42.221171" lon="23.580461"><ele>2319.7</ele><time>2026-04-05T06:58:45.000Z</time></trkpt>
<trkpt lat="42.22116" lon="23.580465"><ele>2319.7</ele><time>2026-04-05T06:58:46.000Z</time></trkpt>
<trkpt lat="42.221149" lon="23.580469"><ele>2319.7</ele><time>2026-04-05T06:58:47.000Z</time></trkpt>
<trkpt lat="42.221138" lon="23.580474"><ele>2319.7</ele><time>2026-04-05T06:58:48.000Z</time></trkpt>
<trkpt lat="42.221127" lon="23.580478"><ele>2319.2</ele><time>2026-04-05T06:58:49.000Z</time></trkpt>
<trkpt lat="42.221116" lon="23.580484"><ele>2319.2</ele><time>2026-04-05T06:58:50.000Z</time></trkpt>
<trkpt lat="42.221106" lon="23.58049"><ele>2319.2</ele><time>2026-04-05T06:58:51.000Z</time></trkpt>
<trkpt lat="42.221095" lon="23.580497"><ele>2319.2</ele><time>2026-04-05T06:58:52.000Z</time></trkpt>
<trkpt lat="42.221084" lon="23.580503"><ele>2319.2</ele><time>2026-04-05T06:58:53.000Z</time></trkpt>
<trkpt lat="42.221073" lon="23.580508"><ele>2318.2</ele><time>2026-04-05T06:58:54.000Z</time></trkpt>
<trkpt lat="42.221062" lon="23.580514"><ele>2318.2</ele><time>2026-04-05T06:58:55.000Z</time></trkpt>
<trkpt lat="42.221051" lon="23.580519"><ele>2318.2</ele><time>2026-04-05T06:58:56.000Z</time></trkpt>
<trkpt lat="42.22104" lon="23.580524"><ele>2318.2</ele><time>2026-04-05T06:58:57.000Z</time></trkpt>
<trkpt lat="42.221028" lon="23.580529"><ele>2318.2</ele><time>2026-04-05T06:58:58.000Z</time></trkpt>
<trkpt lat="42.221017" lon="23.580535"><ele>2317.3</ele><time>2026-04-05T06:58:59.000Z</time></trkpt>
<trkpt lat="42.221005" lon="23.580542"><ele>2317.3</ele><time>2026-04-05T06:59:00.000Z</time></trkpt>
<trkpt lat="42.220994" lon="23.580549"><ele>2317.3</ele><time>2026-04-05T06:59:01.000Z</time></trkpt>
<trkpt lat="42.220983" lon="23.580555"><ele>2317.3</ele><time>2026-04-05T06:59:02.000Z</time></trkpt>
<trkpt lat="42.220972" lon="23.580563"><ele>2317.3</ele><time>2026-04-05T06:59:03.000Z</time></trkpt>
<trkpt lat="42.220961" lon="23.580571"><ele>2316.7</ele><time>2026-04-05T06:59:04.000Z</time></trkpt>
<trkpt lat="42.22095" lon="23.580578"><ele>2316.7</ele><time>2026-04-05T06:59:05.000Z</time></trkpt>
<trkpt lat="42.22094" lon="23.580584"><ele>2316.7</ele><time>2026-04-05T06:59:06.000Z</time></trkpt>
<trkpt lat="42.220929" lon="23.58059"><ele>2316.7</ele><time>2026-04-05T06:59:07.000Z</time></trkpt>
<trkpt lat="42.220918" lon="23.580596"><ele>2316.7</ele><time>2026-04-05T06:59:08.000Z</time></trkpt>
<trkpt lat="42.220908" lon="23.5806"><ele>2315.6</ele><time>2026-04-05T06:59:09.000Z</time></trkpt>
<trkpt lat="42.220897" lon="23.580604"><ele>2315.6</ele><time>2026-04-05T06:59:10.000Z</time></trkpt>
<trkpt lat="42.220886" lon="23.58061"><ele>2315.6</ele><time>2026-04-05T06:59:11.000Z</time></trkpt>
<trkpt lat="42.220875" lon="23.580616"><ele>2315.6</ele><time>2026-04-05T06:59:12.000Z</time></trkpt>
<trkpt lat="42.220865" lon="23.580622"><ele>2315.6</ele><time>2026-04-05T06:59:13.000Z</time></trkpt>
<trkpt lat="42.220854" lon="23.580629"><ele>2314.6</ele><time>2026-04-05T06:59:14.000Z</time></trkpt>
<trkpt lat="42.220844" lon="23.580636"><ele>2314.6</ele><time>2026-04-05T06:59:15.000Z</time></trkpt>
<trkpt lat="42.220834" lon="23.580642"><ele>2314.6</ele><time>2026-04-05T06:59:16.000Z</time></trkpt>
<trkpt lat="42.220824" lon="23.58065"><ele>2314.6</ele><time>2026-04-05T06:59:17.000Z</time></trkpt>
<trkpt lat="42.220814" lon="23.580658"><ele>2314.6</ele><time>2026-04-05T06:59:18.000Z</time></trkpt>
<trkpt lat="42.220805" lon="23.580667"><ele>2314.3</ele><time>2026-04-05T06:59:19.000Z</time></trkpt>
<trkpt lat="42.220796" lon="23.580676"><ele>2314.3</ele><time>2026-04-05T06:59:20.000Z</time></trkpt>
<trkpt lat="42.220787" lon="23.580686"><ele>2314.3</ele><time>2026-04-05T06:59:21.000Z</time></trkpt>
<trkpt lat="42.220779" lon="23.580695"><ele>2314.3</ele><time>2026-04-05T06:59:22.000Z</time></trkpt>
<trkpt lat="42.220771" lon="23.580704"><ele>2314.3</ele><time>2026-04-05T06:59:23.000Z</time></trkpt>
<trkpt lat="42.220763" lon="23.580712"><ele>2313.7</ele><time>2026-04-05T06:59:24.000Z</time></trkpt>
<trkpt lat="42.220756" lon="23.580722"><ele>2313.7</ele><time>2026-04-05T06:59:25.000Z</time></trkpt>
<trkpt lat="42.220749" lon="23.580733"><ele>2313.7</ele><time>2026-04-05T06:59:26.000Z</time></trkpt>
<trkpt lat="42.220743" lon="23.580744"><ele>2313.7</ele><time>2026-04-05T06:59:27.000Z</time></trkpt>
<trkpt lat="42.220737" lon="23.580756"><ele>2313.7</ele><time>2026-04-05T06:59:28.000Z</time></trkpt>
<trkpt lat="42.220732" lon="23.580769"><ele>2313.1</ele><time>2026-04-05T06:59:29.000Z</time></trkpt>
<trkpt lat="42.220729" lon="23.580781"><ele>2313.1</ele><time>2026-04-05T06:59:30.000Z</time></trkpt>
<trkpt lat="42.220726" lon="23.580793"><ele>2313.1</ele><time>2026-04-05T06:59:31.000Z</time></trkpt>
<trkpt lat="42.220724" lon="23.580805"><ele>2313.1</ele><time>2026-04-05T06:59:32.000Z</time></trkpt>
<trkpt lat="42.220721" lon="23.580818"><ele>2313.1</ele><time>2026-04-05T06:59:33.000Z</time></trkpt>
<trkpt lat="42.220719" lon="23.580831"><ele>2312.6</ele><time>2026-04-05T06:59:34.000Z</time></trkpt>
<trkpt lat="42.220716" lon="23.580844"><ele>2312.6</ele><time>2026-04-05T06:59:35.000Z</time></trkpt>
<trkpt lat="42.220714" lon="23.580858"><ele>2312.6</ele><time>2026-04-05T06:59:36.000Z</time></trkpt>
<trkpt lat="42.220713" lon="23.580871"><ele>2312.6</ele><time>2026-04-05T06:59:37.000Z</time></trkpt>
<trkpt lat="42.220713" lon="23.580883"><ele>2312.6</ele><time>2026-04-05T06:59:38.000Z</time></trkpt>
<trkpt lat="42.220713" lon="23.580893"><ele>2311.4</ele><time>2026-04-05T06:59:39.000Z</time></trkpt>
<trkpt lat="42.220713" lon="23.580904"><ele>2311.4</ele><time>2026-04-05T06:59:40.000Z</time></trkpt>
<trkpt lat="42.220712" lon="23.580915"><ele>2311.4</ele><time>2026-04-05T06:59:41.000Z</time></trkpt>
<trkpt lat="42.220713" lon="23.580926"><ele>2311.4</ele><time>2026-04-05T06:59:42.000Z</time></trkpt>
<trkpt lat="42.220712" lon="23.580939"><ele>2311.4</ele><time>2026-04-05T06:59:43.000Z</time></trkpt>
<trkpt lat="42.220711" lon="23.580952"><ele>2309.9</ele><time>2026-04-05T06:59:44.000Z</time></trkpt>
<trkpt lat="42.220709" lon="23.580965"><ele>2309.9</ele><time>2026-04-05T06:59:45.000Z</time></trkpt>
<trkpt lat="42.220708" lon="23.580977"><ele>2309.9</ele><time>2026-04-05T06:59:46.000Z</time></trkpt>
<trkpt lat="42.220706" lon="23.580988"><ele>2309.9</ele><time>2026-04-05T06:59:47.000Z</time></trkpt>
<trkpt lat="42.220705" lon="23.580999"><ele>2309.9</ele><time>2026-04-05T06:59:48.000Z</time></trkpt>
<trkpt lat="42.220704" lon="23.58101"><ele>2309.1</ele><time>2026-04-05T06:59:49.000Z</time></trkpt>
<trkpt lat="42.220704" lon="23.581022"><ele>2309.1</ele><time>2026-04-05T06:59:50.000Z</time></trkpt>
<trkpt lat="42.220704" lon="23.581034"><ele>2309.1</ele><time>2026-04-05T06:59:51.000Z</time></trkpt>
<trkpt lat="42.220704" lon="23.581047"><ele>2309.1</ele><time>2026-04-05T06:59:52.000Z</time></trkpt>
<trkpt lat="42.220703" lon="23.58106"><ele>2309.1</ele><time>2026-04-05T06:59:53.000Z</time></trkpt>
<trkpt lat="42.220701" lon="23.581074"><ele>2307.5</ele><time>2026-04-05T06:59:54.000Z</time></trkpt>
<trkpt lat="42.2207" lon="23.581086"><ele>2307.5</ele><time>2026-04-05T06:59:55.000Z</time></trkpt>
<trkpt lat="42.220699" lon="23.581098"><ele>2307.5</ele><time>2026-04-05T06:59:56.000Z</time></trkpt>
<trkpt lat="42.220699" lon="23.581109"><ele>2307.5</ele><time>2026-04-05T06:59:57.000Z</time></trkpt>
<trkpt lat="42.2207" lon="23.581119"><ele>2307.5</ele><time>2026-04-05T06:59:58.000Z</time></trkpt>
<trkpt lat="42.220702" lon="23.58113"><ele>2306</ele><time>2026-04-05T06:59:59.000Z</time></trkpt>
<trkpt lat="42.220703" lon="23.58114"><ele>2306</ele><time>2026-04-05T07:00:00.000Z</time></trkpt>
<trkpt lat="42.220705" lon="23.581151"><ele>2306</ele><time>2026-04-05T07:00:01.000Z</time></trkpt>
<trkpt lat="42.220706" lon="23.581162"><ele>2306</ele><time>2026-04-05T07:00:02.000Z</time></trkpt>
<trkpt lat="42.220708" lon="23.581173"><ele>2306</ele><time>2026-04-05T07:00:03.000Z</time></trkpt>
<trkpt lat="42.220708" lon="23.581184"><ele>2305.2</ele><time>2026-04-05T07:00:04.000Z</time></trkpt>
<trkpt lat="42.220708" lon="23.581195"><ele>2305.2</ele><time>2026-04-05T07:00:05.000Z</time></trkpt>
<trkpt lat="42.220708" lon="23.581205"><ele>2305.2</ele><time>2026-04-05T07:00:06.000Z</time></trkpt>
<trkpt lat="42.220708" lon="23.581216"><ele>2305.2</ele><time>2026-04-05T07:00:07.000Z</time></trkpt>
<trkpt lat="42.220708" lon="23.581227"><ele>2305.2</ele><time>2026-04-05T07:00:08.000Z</time></trkpt>
<trkpt lat="42.220707" lon="23.581236"><ele>2303.7</ele><time>2026-04-05T07:00:09.000Z</time></trkpt>
<trkpt lat="42.220706" lon="23.581241"><ele>2303.7</ele><time>2026-04-05T07:00:10.000Z</time></trkpt>
<trkpt lat="42.220705" lon="23.581246"><ele>2303.7</ele><time>2026-04-05T07:00:11.000Z</time></trkpt>
<trkpt lat="42.220703" lon="23.58125"><ele>2303.7</ele><time>2026-04-05T07:00:12.000Z</time></trkpt>
<trkpt lat="42.220701" lon="23.581252"><ele>2303.7</ele><time>2026-04-05T07:00:13.000Z</time></trkpt>
<trkpt lat="42.2207" lon="23.581256"><ele>2302.1</ele><time>2026-04-05T07:00:14.000Z</time></trkpt>
<trkpt lat="42.220698" lon="23.581262"><ele>2302.1</ele><time>2026-04-05T07:00:15.000Z</time></trkpt>
<trkpt lat="42.220698" lon="23.58127"><ele>2302.1</ele><time>2026-04-05T07:00:16.000Z</time></trkpt>
<trkpt lat="42.220698" lon="23.581279"><ele>2302.1</ele><time>2026-04-05T07:00:17.000Z</time></trkpt>
<trkpt lat="42.220698" lon="23.58129"><ele>2302.1</ele><time>2026-04-05T07:00:18.000Z</time></trkpt>
<trkpt lat="42.2207" lon="23.581303"><ele>2301.4</ele><time>2026-04-05T07:00:19.000Z</time></trkpt>
<trkpt lat="42.220701" lon="23.581316"><ele>2301.4</ele><time>2026-04-05T07:00:20.000Z</time></trkpt>
<trkpt lat="42.220702" lon="23.581331"><ele>2301.4</ele><time>2026-04-05T07:00:21.000Z</time></trkpt>
<trkpt lat="42.220702" lon="23.581347"><ele>2301.4</ele><time>2026-04-05T07:00:22.000Z</time></trkpt>
<trkpt lat="42.220701" lon="23.581362"><ele>2301.4</ele><time>2026-04-05T07:00:23.000Z</time></trkpt>
<trkpt lat="42.220701" lon="23.581378"><ele>2300.3</ele><time>2026-04-05T07:00:24.000Z</time></trkpt>
<trkpt lat="42.220701" lon="23.581392"><ele>2300.3</ele><time>2026-04-05T07:00:25.000Z</time></trkpt>
<trkpt lat="42.220701" lon="23.581406"><ele>2300.3</ele><time>2026-04-05T07:00:26.000Z</time></trkpt>
<trkpt lat="42.220702" lon="23.581419"><ele>2300.3</ele><time>2026-04-05T07:00:27.000Z</time></trkpt>
<trkpt lat="42.220702" lon="23.581431"><ele>2300.3</ele><time>2026-04-05T07:00:28.000Z</time></trkpt>
<trkpt lat="42.220702" lon="23.581443"><ele>2299.3</ele><time>2026-04-05T07:00:29.000Z</time></trkpt>
<trkpt lat="42.220703" lon="23.581455"><ele>2299.3</ele><time>2026-04-05T07:00:30.000Z</time></trkpt>
<trkpt lat="42.220705" lon="23.581466"><ele>2299.3</ele><time>2026-04-05T07:00:31.000Z</time></trkpt>
<trkpt lat="42.220707" lon="23.581477"><ele>2299.3</ele><time>2026-04-05T07:00:32.000Z</time></trkpt>
<trkpt lat="42.220709" lon="23.581489"><ele>2299.3</ele><time>2026-04-05T07:00:33.000Z</time></trkpt>
<trkpt lat="42.22071" lon="23.581501"><ele>2298.6</ele><time>2026-04-05T07:00:34.000Z</time></trkpt>
<trkpt lat="42.220712" lon="23.581513"><ele>2298.6</ele><time>2026-04-05T07:00:35.000Z</time></trkpt>
<trkpt lat="42.220713" lon="23.581526"><ele>2298.6</ele><time>2026-04-05T07:00:36.000Z</time></trkpt>
<trkpt lat="42.220714" lon="23.58154"><ele>2298.6</ele><time>2026-04-05T07:00:37.000Z</time></trkpt>
<trkpt lat="42.220715" lon="23.581554"><ele>2298.6</ele><time>2026-04-05T07:00:38.000Z</time></trkpt>
<trkpt lat="42.220716" lon="23.581568"><ele>2296.8</ele><time>2026-04-05T07:00:39.000Z</time></trkpt>
<trkpt lat="42.220717" lon="23.581583"><ele>2296.8</ele><time>2026-04-05T07:00:40.000Z</time></trkpt>
<trkpt lat="42.220716" lon="23.581596"><ele>2296.8</ele><time>2026-04-05T07:00:41.000Z</time></trkpt>
<trkpt lat="42.220716" lon="23.58161"><ele>2296.8</ele><time>2026-04-05T07:00:42.000Z</time></trkpt>
<trkpt lat="42.220715" lon="23.581625"><ele>2296.8</ele><time>2026-04-05T07:00:43.000Z</time></trkpt>
<trkpt lat="42.220715" lon="23.581639"><ele>2294.9</ele><time>2026-04-05T07:00:44.000Z</time></trkpt>
<trkpt lat="42.220715" lon="23.581654"><ele>2294.9</ele><time>2026-04-05T07:00:45.000Z</time></trkpt>
<trkpt lat="42.220716" lon="23.58167"><ele>2294.9</ele><time>2026-04-05T07:00:46.000Z</time></trkpt>
<trkpt lat="42.220718" lon="23.581685"><ele>2294.9</ele><time>2026-04-05T07:00:47.000Z</time></trkpt>
<trkpt lat="42.22072" lon="23.581701"><ele>2294.9</ele><time>2026-04-05T07:00:48.000Z</time></trkpt>
<trkpt lat="42.220723" lon="23.581716"><ele>2293.9</ele><time>2026-04-05T07:00:49.000Z</time></trkpt>
<trkpt lat="42.220725" lon="23.581732"><ele>2293.9</ele><time>2026-04-05T07:00:50.000Z</time></trkpt>
<trkpt lat="42.220726" lon="23.581747"><ele>2293.9</ele><time>2026-04-05T07:00:51.000Z</time></trkpt>
<trkpt lat="42.220727" lon="23.581763"><ele>2293.9</ele><time>2026-04-05T07:00:52.000Z</time></trkpt>
<trkpt lat="42.220728" lon="23.581778"><ele>2293.9</ele><time>2026-04-05T07:00:53.000Z</time></trkpt>
<trkpt lat="42.220728" lon="23.581793"><ele>2291.9</ele><time>2026-04-05T07:00:54.000Z</time></trkpt>
<trkpt lat="42.220728" lon="23.581808"><ele>2291.9</ele><time>2026-04-05T07:00:55.000Z</time></trkpt>
<trkpt lat="42.220728" lon="23.581822"><ele>2291.9</ele><time>2026-04-05T07:00:56.000Z</time></trkpt>
<trkpt lat="42.220727" lon="23.581837"><ele>2291.9</ele><time>2026-04-05T07:00:57.000Z</time></trkpt>
<trkpt lat="42.220726" lon="23.581852"><ele>2291.9</ele><time>2026-04-05T07:00:58.000Z</time></trkpt>
<trkpt lat="42.220725" lon="23.581867"><ele>2289.9</ele><time>2026-04-05T07:00:59.000Z</time></trkpt>
<trkpt lat="42.220723" lon="23.581882"><ele>2289.9</ele><time>2026-04-05T07:01:00.000Z</time></trkpt>
<trkpt lat="42.220722" lon="23.581898"><ele>2289.9</ele><time>2026-04-05T07:01:01.000Z</time></trkpt>
<trkpt lat="42.22072" lon="23.581915"><ele>2289.9</ele><time>2026-04-05T07:01:02.000Z</time></trkpt>
<trkpt lat="42.220719" lon="23.581931"><ele>2289.9</ele><time>2026-04-05T07:01:03.000Z</time></trkpt>
<trkpt lat="42.220718" lon="23.581948"><ele>2289</ele><time>2026-04-05T07:01:04.000Z</time></trkpt>
<trkpt lat="42.220718" lon="23.581965"><ele>2289</ele><time>2026-04-05T07:01:05.000Z</time></trkpt>
<trkpt lat="42.220717" lon="23.58198"><ele>2289</ele><time>2026-04-05T07:01:06.000Z</time></trkpt>
<trkpt lat="42.220715" lon="23.581995"><ele>2289</ele><time>2026-04-05T07:01:07.000Z</time></trkpt>
<trkpt lat="42.220713" lon="23.58201"><ele>2289</ele><time>2026-04-05T07:01:08.000Z</time></trkpt>
<trkpt lat="42.22071" lon="23.582025"><ele>2287.6</ele><time>2026-04-05T07:01:09.000Z</time></trkpt>
<trkpt lat="42.220707" lon="23.582041"><ele>2287.6</ele><time>2026-04-05T07:01:10.000Z</time></trkpt>
<trkpt lat="42.220704" lon="23.582058"><ele>2287.6</ele><time>2026-04-05T07:01:11.000Z</time></trkpt>
<trkpt lat="42.220702" lon="23.582075"><ele>2287.6</ele><time>2026-04-05T07:01:12.000Z</time></trkpt>
<trkpt lat="42.220699" lon="23.582092"><ele>2287.6</ele><time>2026-04-05T07:01:13.000Z</time></trkpt>
<trkpt lat="42.220696" lon="23.582107"><ele>2286.4</ele><time>2026-04-05T07:01:14.000Z</time></trkpt>
<trkpt lat="42.220694" lon="23.582122"><ele>2286.4</ele><time>2026-04-05T07:01:15.000Z</time></trkpt>
<trkpt lat="42.220692" lon="23.582137"><ele>2286.4</ele><time>2026-04-05T07:01:16.000Z</time></trkpt>
<trkpt lat="42.22069" lon="23.582152"><ele>2286.4</ele><time>2026-04-05T07:01:17.000Z</time></trkpt>
<trkpt lat="42.220689" lon="23.582166"><ele>2286.4</ele><time>2026-04-05T07:01:18.000Z</time></trkpt>
<trkpt lat="42.220688" lon="23.582181"><ele>2285.8</ele><time>2026-04-05T07:01:19.000Z</time></trkpt>
<trkpt lat="42.220688" lon="23.582195"><ele>2285.8</ele><time>2026-04-05T07:01:20.000Z</time></trkpt>
<trkpt lat="42.220687" lon="23.58221"><ele>2285.8</ele><time>2026-04-05T07:01:21.000Z</time></trkpt>
<trkpt lat="42.220687" lon="23.582225"><ele>2285.8</ele><time>2026-04-05T07:01:22.000Z</time></trkpt>
<trkpt lat="42.220688" lon="23.582238"><ele>2285.8</ele><time>2026-04-05T07:01:23.000Z</time></trkpt>
<trkpt lat="42.220688" lon="23.582251"><ele>2284.8</ele><time>2026-04-05T07:01:24.000Z</time></trkpt>
<trkpt lat="42.220688" lon="23.582262"><ele>2284.8</ele><time>2026-04-05T07:01:25.000Z</time></trkpt>
<trkpt lat="42.220688" lon="23.582273"><ele>2284.8</ele><time>2026-04-05T07:01:26.000Z</time></trkpt>
<trkpt lat="42.220689" lon="23.582284"><ele>2284.8</ele><time>2026-04-05T07:01:27.000Z</time></trkpt>
<trkpt lat="42.220689" lon="23.582297"><ele>2284.8</ele><time>2026-04-05T07:01:28.000Z</time></trkpt>
<trkpt lat="42.220691" lon="23.58231"><ele>2283.7</ele><time>2026-04-05T07:01:29.000Z</time></trkpt>
<trkpt lat="42.220693" lon="23.582324"><ele>2283.7</ele><time>2026-04-05T07:01:30.000Z</time></trkpt>
<trkpt lat="42.220694" lon="23.58234"><ele>2283.7</ele><time>2026-04-05T07:01:31.000Z</time></trkpt>
<trkpt lat="42.220696" lon="23.582355"><ele>2283.7</ele><time>2026-04-05T07:01:32.000Z</time></trkpt>
<trkpt lat="42.220697" lon="23.582371"><ele>2283.7</ele><time>2026-04-05T07:01:33.000Z</time></trkpt>
<trkpt lat="42.220697" lon="23.582387"><ele>2283.2</ele><time>2026-04-05T07:01:34.000Z</time></trkpt>
<trkpt lat="42.220696" lon="23.582402"><ele>2283.2</ele><time>2026-04-05T07:01:35.000Z</time></trkpt>
<trkpt lat="42.220695" lon="23.582417"><ele>2283.2</ele><time>2026-04-05T07:01:36.000Z</time></trkpt>
<trkpt lat="42.220695" lon="23.582432"><ele>2283.2</ele><time>2026-04-05T07:01:37.000Z</time></trkpt>
<trkpt lat="42.220694" lon="23.582446"><ele>2283.2</ele><time>2026-04-05T07:01:38.000Z</time></trkpt>
<trkpt lat="42.220694" lon="23.58246"><ele>2282.2</ele><time>2026-04-05T07:01:39.000Z</time></trkpt>
<trkpt lat="42.220693" lon="23.582475"><ele>2282.2</ele><time>2026-04-05T07:01:40.000Z</time></trkpt>
<trkpt lat="42.220694" lon="23.582489"><ele>2282.2</ele><time>2026-04-05T07:01:41.000Z</time></trkpt>
<trkpt lat="42.220694" lon="23.582503"><ele>2282.2</ele><time>2026-04-05T07:01:42.000Z</time></trkpt>
<trkpt lat="42.220694" lon="23.582517"><ele>2282.2</ele><time>2026-04-05T07:01:43.000Z</time></trkpt>
<trkpt lat="42.220694" lon="23.582533"><ele>2281</ele><time>2026-04-05T07:01:44.000Z</time></trkpt>
<trkpt lat="42.220695" lon="23.582549"><ele>2281</ele><time>2026-04-05T07:01:45.000Z</time></trkpt>
<trkpt lat="42.220694" lon="23.582565"><ele>2281</ele><time>2026-04-05T07:01:46.000Z</time></trkpt>
<trkpt lat="42.220694" lon="23.582581"><ele>2281</ele><time>2026-04-05T07:01:47.000Z</time></trkpt>
<trkpt lat="42.220695" lon="23.582596"><ele>2281</ele><time>2026-04-05T07:01:48.000Z</time></trkpt>
<trkpt lat="42.220696" lon="23.58261"><ele>2280.3</ele><time>2026-04-05T07:01:49.000Z</time></trkpt>
<trkpt lat="42.220697" lon="23.582624"><ele>2280.3</ele><time>2026-04-05T07:01:50.000Z</time></trkpt>
<trkpt lat="42.2207" lon="23.582639"><ele>2280.3</ele><time>2026-04-05T07:01:51.000Z</time></trkpt>
<trkpt lat="42.220702" lon="23.582653"><ele>2280.3</ele><time>2026-04-05T07:01:52.000Z</time></trkpt>
<trkpt lat="42.220705" lon="23.582668"><ele>2280.3</ele><time>2026-04-05T07:01:53.000Z</time></trkpt>
<trkpt lat="42.220707" lon="23.582685"><ele>2278.6</ele><time>2026-04-05T07:01:54.000Z</time></trkpt>
<trkpt lat="42.220708" lon="23.582701"><ele>2278.6</ele><time>2026-04-05T07:01:55.000Z</time></trkpt>
<trkpt lat="42.220709" lon="23.582716"><ele>2278.6</ele><time>2026-04-05T07:01:56.000Z</time></trkpt>
<trkpt lat="42.22071" lon="23.582731"><ele>2278.6</ele><time>2026-04-05T07:01:57.000Z</time></trkpt>
<trkpt lat="42.220712" lon="23.582747"><ele>2278.6</ele><time>2026-04-05T07:01:58.000Z</time></trkpt>
<trkpt lat="42.220713" lon="23.582762"><ele>2276.9</ele><time>2026-04-05T07:01:59.000Z</time></trkpt>
<trkpt lat="42.220715" lon="23.582778"><ele>2276.9</ele><time>2026-04-05T07:02:00.000Z</time></trkpt>
<trkpt lat="42.220717" lon="23.582796"><ele>2276.9</ele><time>2026-04-05T07:02:01.000Z</time></trkpt>
<trkpt lat="42.220718" lon="23.582814"><ele>2276.9</ele><time>2026-04-05T07:02:02.000Z</time></trkpt>
<trkpt lat="42.220718" lon="23.582833"><ele>2276.9</ele><time>2026-04-05T07:02:03.000Z</time></trkpt>
<trkpt lat="42.220719" lon="23.582852"><ele>2276</ele><time>2026-04-05T07:02:04.000Z</time></trkpt>
<trkpt lat="42.220719" lon="23.58287"><ele>2276</ele><time>2026-04-05T07:02:05.000Z</time></trkpt>
<trkpt lat="42.220718" lon="23.582888"><ele>2276</ele><time>2026-04-05T07:02:06.000Z</time></trkpt>
<trkpt lat="42.220719" lon="23.582906"><ele>2276</ele><time>2026-04-05T07:02:07.000Z</time></trkpt>
<trkpt lat="42.22072" lon="23.582923"><ele>2276</ele><time>2026-04-05T07:02:08.000Z</time></trkpt>
<trkpt lat="42.220721" lon="23.582941"><ele>2274.3</ele><time>2026-04-05T07:02:09.000Z</time></trkpt>
<trkpt lat="42.220723" lon="23.582959"><ele>2274.3</ele><time>2026-04-05T07:02:10.000Z</time></trkpt>
<trkpt lat="42.220726" lon="23.582977"><ele>2274.3</ele><time>2026-04-05T07:02:11.000Z</time></trkpt>
<trkpt lat="42.220729" lon="23.582996"><ele>2274.3</ele><time>2026-04-05T07:02:12.000Z</time></trkpt>
<trkpt lat="42.220731" lon="23.583015"><ele>2274.3</ele><time>2026-04-05T07:02:13.000Z</time></trkpt>
<trkpt lat="42.220732" lon="23.583033"><ele>2272.6</ele><time>2026-04-05T07:02:14.000Z</time></trkpt>
<trkpt lat="42.220734" lon="23.583052"><ele>2272.6</ele><time>2026-04-05T07:02:15.000Z</time></trkpt>
<trkpt lat="42.220735" lon="23.58307"><ele>2272.6</ele><time>2026-04-05T07:02:16.000Z</time></trkpt>
<trkpt lat="42.220735" lon="23.583088"><ele>2272.6</ele><time>2026-04-05T07:02:17.000Z</time></trkpt>
<trkpt lat="42.220736" lon="23.583106"><ele>2272.6</ele><time>2026-04-05T07:02:18.000Z</time></trkpt>
<trkpt lat="42.220737" lon="23.583124"><ele>2271.7</ele><time>2026-04-05T07:02:19.000Z</time></trkpt>
<trkpt lat="42.220738" lon="23.583142"><ele>2271.7</ele><time>2026-04-05T07:02:20.000Z</time></trkpt>
<trkpt lat="42.22074" lon="23.58316"><ele>2271.7</ele><time>2026-04-05T07:02:21.000Z</time></trkpt>
<trkpt lat="42.220743" lon="23.583178"><ele>2271.7</ele><time>2026-04-05T07:02:22.000Z</time></trkpt>
<trkpt lat="42.220747" lon="23.583195"><ele>2271.7</ele><time>2026-04-05T07:02:23.000Z</time></trkpt>
<trkpt lat="42.220751" lon="23.583211"><ele>2270</ele><time>2026-04-05T07:02:24.000Z</time></trkpt>
<trkpt lat="42.220754" lon="23.583227"><ele>2270</ele><time>2026-04-05T07:02:25.000Z</time></trkpt>
<trkpt lat="42.220757" lon="23.583243"><ele>2270</ele><time>2026-04-05T07:02:26.000Z</time></trkpt>
<trkpt lat="42.220758" lon="23.58326"><ele>2270</ele><time>2026-04-05T07:02:27.000Z</time></trkpt>
<trkpt lat="42.220758" lon="23.583276"><ele>2270</ele><time>2026-04-05T07:02:28.000Z</time></trkpt>
<trkpt lat="42.220758" lon="23.583292"><ele>2268.2</ele><time>2026-04-05T07:02:29.000Z</time></trkpt>
<trkpt lat="42.220757" lon="23.583307"><ele>2268.2</ele><time>2026-04-05T07:02:30.000Z</time></trkpt>
<trkpt lat="42.220755" lon="23.583323"><ele>2268.2</ele><time>2026-04-05T07:02:31.000Z</time></trkpt>
<trkpt lat="42.220753" lon="23.583338"><ele>2268.2</ele><time>2026-04-05T07:02:32.000Z</time></trkpt>
<trkpt lat="42.220751" lon="23.583354"><ele>2268.2</ele><time>2026-04-05T07:02:33.000Z</time></trkpt>
<trkpt lat="42.220747" lon="23.583372"><ele>2267.4</ele><time>2026-04-05T07:02:34.000Z</time></trkpt>
<trkpt lat="42.220743" lon="23.583389"><ele>2267.4</ele><time>2026-04-05T07:02:35.000Z</time></trkpt>
<trkpt lat="42.220738" lon="23.583407"><ele>2267.4</ele><time>2026-04-05T07:02:36.000Z</time></trkpt>
<trkpt lat="42.220734" lon="23.583424"><ele>2267.4</ele><time>2026-04-05T07:02:37.000Z</time></trkpt>
<trkpt lat="42.220729" lon="23.583441"><ele>2267.4</ele><time>2026-04-05T07:02:38.000Z</time></trkpt>
<trkpt lat="42.220725" lon="23.583459"><ele>2265.7</ele><time>2026-04-05T07:02:39.000Z</time></trkpt>
<trkpt lat="42.220721" lon="23.583477"><ele>2265.7</ele><time>2026-04-05T07:02:40.000Z</time></trkpt>
<trkpt lat="42.220716" lon="23.583495"><ele>2265.7</ele><time>2026-04-05T07:02:41.000Z</time></trkpt>
<trkpt lat="42.22071" lon="23.583512"><ele>2265.7</ele><time>2026-04-05T07:02:42.000Z</time></trkpt>
<trkpt lat="42.220703" lon="23.583529"><ele>2265.7</ele><time>2026-04-05T07:02:43.000Z</time></trkpt>
<trkpt lat="42.220696" lon="23.583544"><ele>2264.3</ele><time>2026-04-05T07:02:44.000Z</time></trkpt>
<trkpt lat="42.220688" lon="23.583559"><ele>2264.3</ele><time>2026-04-05T07:02:45.000Z</time></trkpt>
<trkpt lat="42.220681" lon="23.583574"><ele>2264.3</ele><time>2026-04-05T07:02:46.000Z</time></trkpt>
<trkpt lat="42.220674" lon="23.583588"><ele>2264.3</ele><time>2026-04-05T07:02:47.000Z</time></trkpt>
<trkpt lat="42.220666" lon="23.583603"><ele>2264.3</ele><time>2026-04-05T07:02:48.000Z</time></trkpt>
<trkpt lat="42.220659" lon="23.583617"><ele>2263.6</ele><time>2026-04-05T07:02:49.000Z</time></trkpt>
<trkpt lat="42.220651" lon="23.583632"><ele>2263.6</ele><time>2026-04-05T07:02:50.000Z</time></trkpt>
<trkpt lat="42.220643" lon="23.583646"><ele>2263.6</ele><time>2026-04-05T07:02:51.000Z</time></trkpt>
<trkpt lat="42.220636" lon="23.583659"><ele>2263.6</ele><time>2026-04-05T07:02:52.000Z</time></trkpt>
<trkpt lat="42.220628" lon="23.583672"><ele>2263.6</ele><time>2026-04-05T07:02:53.000Z</time></trkpt>
<trkpt lat="42.22062" lon="23.583684"><ele>2262.4</ele><time>2026-04-05T07:02:54.000Z</time></trkpt>
<trkpt lat="42.220612" lon="23.583696"><ele>2262.4</ele><time>2026-04-05T07:02:55.000Z</time></trkpt>
<trkpt lat="42.220604" lon="23.583708"><ele>2262.4</ele><time>2026-04-05T07:02:56.000Z</time></trkpt>
<trkpt lat="42.220596" lon="23.583718"><ele>2262.4</ele><time>2026-04-05T07:02:57.000Z</time></trkpt>
<trkpt lat="42.220588" lon="23.583729"><ele>2262.4</ele><time>2026-04-05T07:02:58.000Z</time></trkpt>
<trkpt lat="42.22058" lon="23.58374"><ele>2261.1</ele><time>2026-04-05T07:02:59.000Z</time></trkpt>
<trkpt lat="42.22057" lon="23.583751"><ele>2261.1</ele><time>2026-04-05T07:03:00.000Z</time></trkpt>
<trkpt lat="42.22056" lon="23.583761"><ele>2261.1</ele><time>2026-04-05T07:03:01.000Z</time></trkpt>
<trkpt lat="42.22055" lon="23.583771"><ele>2261.1</ele><time>2026-04-05T07:03:02.000Z</time></trkpt>
<trkpt lat="42.220539" lon="23.583781"><ele>2261.1</ele><time>2026-04-05T07:03:03.000Z</time></trkpt>
<trkpt lat="42.220529" lon="23.58379"><ele>2260.5</ele><time>2026-04-05T07:03:04.000Z</time></trkpt>
<trkpt lat="42.220519" lon="23.5838"><ele>2260.5</ele><time>2026-04-05T07:03:05.000Z</time></trkpt>
<trkpt lat="42.220509" lon="23.583808"><ele>2260.5</ele><time>2026-04-05T07:03:06.000Z</time></trkpt>
<trkpt lat="42.220499" lon="23.583817"><ele>2260.5</ele><time>2026-04-05T07:03:07.000Z</time></trkpt>
<trkpt lat="42.220489" lon="23.583824"><ele>2260.5</ele><time>2026-04-05T07:03:08.000Z</time></trkpt>
<trkpt lat="42.220478" lon="23.583832"><ele>2259.4</ele><time>2026-04-05T07:03:09.000Z</time></trkpt>
<trkpt lat="42.220466" lon="23.583839"><ele>2259.4</ele><time>2026-04-05T07:03:10.000Z</time></trkpt>
<trkpt lat="42.220454" lon="23.583846"><ele>2259.4</ele><time>2026-04-05T07:03:11.000Z</time></trkpt>
<trkpt lat="42.220442" lon="23.583853"><ele>2259.4</ele><time>2026-04-05T07:03:12.000Z</time></trkpt>
<trkpt lat="42.220432" lon="23.583858"><ele>2259.4</ele><time>2026-04-05T07:03:13.000Z</time></trkpt>
<trkpt lat="42.220422" lon="23.583863"><ele>2258.3</ele><time>2026-04-05T07:03:14.000Z</time></trkpt>
<trkpt lat="42.220413" lon="23.583867"><ele>2258.3</ele><time>2026-04-05T07:03:15.000Z</time></trkpt>
<trkpt lat="42.220404" lon="23.58387"><ele>2258.3</ele><time>2026-04-05T07:03:16.000Z</time></trkpt>
<trkpt lat="42.220395" lon="23.583874"><ele>2258.3</ele><time>2026-04-05T07:03:17.000Z</time></trkpt>
<trkpt lat="42.220384" lon="23.583879"><ele>2258.3</ele><time>2026-04-05T07:03:18.000Z</time></trkpt>
<trkpt lat="42.220373" lon="23.583885"><ele>2257.9</ele><time>2026-04-05T07:03:19.000Z</time></trkpt>
<trkpt lat="42.22036" lon="23.583892"><ele>2257.9</ele><time>2026-04-05T07:03:20.000Z</time></trkpt>
<trkpt lat="42.220347" lon="23.5839"><ele>2257.9</ele><time>2026-04-05T07:03:21.000Z</time></trkpt>
<trkpt lat="42.220333" lon="23.583907"><ele>2257.9</ele><time>2026-04-05T07:03:22.000Z</time></trkpt>
<trkpt lat="42.220319" lon="23.583913"><ele>2257.9</ele><time>2026-04-05T07:03:23.000Z</time></trkpt>
<trkpt lat="42.220304" lon="23.58392"><ele>2257.2</ele><time>2026-04-05T07:03:24.000Z</time></trkpt>
<trkpt lat="42.22029" lon="23.583926"><ele>2257.2</ele><time>2026-04-05T07:03:25.000Z</time></trkpt>
<trkpt lat="42.220277" lon="23.583932"><ele>2257.2</ele><time>2026-04-05T07:03:26.000Z</time></trkpt>
<trkpt lat="42.220265" lon="23.583938"><ele>2257.2</ele><time>2026-04-05T07:03:27.000Z</time></trkpt>
<trkpt lat="42.220253" lon="23.583945"><ele>2257.2</ele><time>2026-04-05T07:03:28.000Z</time></trkpt>
<trkpt lat="42.220242" lon="23.583953"><ele>2256.7</ele><time>2026-04-05T07:03:29.000Z</time></trkpt>
<trkpt lat="42.22023" lon="23.583962"><ele>2256.7</ele><time>2026-04-05T07:03:30.000Z</time></trkpt>
<trkpt lat="42.220219" lon="23.583972"><ele>2256.7</ele><time>2026-04-05T07:03:31.000Z</time></trkpt>
<trkpt lat="42.220208" lon="23.583984"><ele>2256.7</ele><time>2026-04-05T07:03:32.000Z</time></trkpt>
<trkpt lat="42.220197" lon="23.583995"><ele>2256.7</ele><time>2026-04-05T07:03:33.000Z</time></trkpt>
<trkpt lat="42.220187" lon="23.584007"><ele>2256.5</ele><time>2026-04-05T07:03:34.000Z</time></trkpt>
<trkpt lat="42.220177" lon="23.584018"><ele>2256.5</ele><time>2026-04-05T07:03:35.000Z</time></trkpt>
<trkpt lat="42.220168" lon="23.584029"><ele>2256.5</ele><time>2026-04-05T07:03:36.000Z</time></trkpt>
<trkpt lat="42.220158" lon="23.584038"><ele>2256.5</ele><time>2026-04-05T07:03:37.000Z</time></trkpt>
<trkpt lat="42.220149" lon="23.584048"><ele>2256.5</ele><time>2026-04-05T07:03:38.000Z</time></trkpt>
<trkpt lat="42.220138" lon="23.584058"><ele>2256</ele><time>2026-04-05T07:03:39.000Z</time></trkpt>
<trkpt lat="42.220127" lon="23.584068"><ele>2256</ele><time>2026-04-05T07:03:40.000Z</time></trkpt>
<trkpt lat="42.220116" lon="23.584078"><ele>2256</ele><time>2026-04-05T07:03:41.000Z</time></trkpt>
<trkpt lat="42.220105" lon="23.584088"><ele>2256</ele><time>2026-04-05T07:03:42.000Z</time></trkpt>
<trkpt lat="42.220093" lon="23.584098"><ele>2256</ele><time>2026-04-05T07:03:43.000Z</time></trkpt>
<trkpt lat="42.220082" lon="23.584109"><ele>2255.6</ele><time>2026-04-05T07:03:44.000Z</time></trkpt>
<trkpt lat="42.22007" lon="23.58412"><ele>2255.6</ele><time>2026-04-05T07:03:45.000Z</time></trkpt>
<trkpt lat="42.220059" lon="23.58413"><ele>2255.6</ele><time>2026-04-05T07:03:46.000Z</time></trkpt>
<trkpt lat="42.220048" lon="23.584141"><ele>2255.6</ele><time>2026-04-05T07:03:47.000Z</time></trkpt>
<trkpt lat="42.220036" lon="23.584152"><ele>2255.6</ele><time>2026-04-05T07:03:48.000Z</time></trkpt>
<trkpt lat="42.220024" lon="23.584162"><ele>2255.4</ele><time>2026-04-05T07:03:49.000Z</time></trkpt>
<trkpt lat="42.220013" lon="23.584172"><ele>2255.4</ele><time>2026-04-05T07:03:50.000Z</time></trkpt>
<trkpt lat="42.220003" lon="23.584182"><ele>2255.4</ele><time>2026-04-05T07:03:51.000Z</time></trkpt>
<trkpt lat="42.219992" lon="23.584192"><ele>2255.4</ele><time>2026-04-05T07:03:52.000Z</time></trkpt>
<trkpt lat="42.219982" lon="23.584202"><ele>2255.4</ele><time>2026-04-05T07:03:53.000Z</time></trkpt>
<trkpt lat="42.219971" lon="23.584211"><ele>2255</ele><time>2026-04-05T07:03:54.000Z</time></trkpt>
<trkpt lat="42.21996" lon="23.584222"><ele>2255</ele><time>2026-04-05T07:03:55.000Z</time></trkpt>
<trkpt lat="42.219949" lon="23.584231"><ele>2255</ele><time>2026-04-05T07:03:56.000Z</time></trkpt>
<trkpt lat="42.219938" lon="23.584239"><ele>2255</ele><time>2026-04-05T07:03:57.000Z</time></trkpt>
<trkpt lat="42.219927" lon="23.584247"><ele>2255</ele><time>2026-04-05T07:03:58.000Z</time></trkpt>
<trkpt lat="42.219917" lon="23.584253"><ele>2254.4</ele><time>2026-04-05T07:03:59.000Z</time></trkpt>
<trkpt lat="42.219907" lon="23.58426"><ele>2254.4</ele><time>2026-04-05T07:04:00.000Z</time></trkpt>
<trkpt lat="42.219897" lon="23.584268"><ele>2254.4</ele><time>2026-04-05T07:04:01.000Z</time></trkpt>
<trkpt lat="42.219887" lon="23.584276"><ele>2254.4</ele><time>2026-04-05T07:04:02.000Z</time></trkpt>
<trkpt lat="42.219878" lon="23.584284"><ele>2254.4</ele><time>2026-04-05T07:04:03.000Z</time></trkpt>
<trkpt lat="42.219868" lon="23.584293"><ele>2254</ele><time>2026-04-05T07:04:04.000Z</time></trkpt>
<trkpt lat="42.219858" lon="23.584301"><ele>2254</ele><time>2026-04-05T07:04:05.000Z</time></trkpt>
<trkpt lat="42.219848" lon="23.584309"><ele>2254</ele><time>2026-04-05T07:04:06.000Z</time></trkpt>
<trkpt lat="42.219836" lon="23.584317"><ele>2254</ele><time>2026-04-05T07:04:07.000Z</time></trkpt>
<trkpt lat="42.219825" lon="23.584325"><ele>2254</ele><time>2026-04-05T07:04:08.000Z</time></trkpt>
<trkpt lat="42.219813" lon="23.584333"><ele>2253.3</ele><time>2026-04-05T07:04:09.000Z</time></trkpt>
<trkpt lat="42.219801" lon="23.584341"><ele>2253.3</ele><time>2026-04-05T07:04:10.000Z</time></trkpt>
<trkpt lat="42.21979" lon="23.58435"><ele>2253.3</ele><time>2026-04-05T07:04:11.000Z</time></trkpt>
<trkpt lat="42.21978" lon="23.584359"><ele>2253.3</ele><time>2026-04-05T07:04:12.000Z</time></trkpt>
<trkpt lat="42.219769" lon="23.584369"><ele>2253.3</ele><time>2026-04-05T07:04:13.000Z</time></trkpt>
<trkpt lat="42.219759" lon="23.584379"><ele>2252.8</ele><time>2026-04-05T07:04:14.000Z</time></trkpt>
<trkpt lat="42.219749" lon="23.584389"><ele>2252.8</ele><time>2026-04-05T07:04:15.000Z</time></trkpt>
<trkpt lat="42.219739" lon="23.5844"><ele>2252.8</ele><time>2026-04-05T07:04:16.000Z</time></trkpt>
<trkpt lat="42.219729" lon="23.584411"><ele>2252.8</ele><time>2026-04-05T07:04:17.000Z</time></trkpt>
<trkpt lat="42.219719" lon="23.584422"><ele>2252.8</ele><time>2026-04-05T07:04:18.000Z</time></trkpt>
<trkpt lat="42.21971" lon="23.584434"><ele>2252.6</ele><time>2026-04-05T07:04:19.000Z</time></trkpt>
<trkpt lat="42.219702" lon="23.584446"><ele>2252.6</ele><time>2026-04-05T07:04:20.000Z</time></trkpt>
<trkpt lat="42.219694" lon="23.584458"><ele>2252.6</ele><time>2026-04-05T07:04:21.000Z</time></trkpt>
<trkpt lat="42.219686" lon="23.58447"><ele>2252.6</ele><time>2026-04-05T07:04:22.000Z</time></trkpt>
<trkpt lat="42.219678" lon="23.584482"><ele>2252.6</ele><time>2026-04-05T07:04:23.000Z</time></trkpt>
<trkpt lat="42.21967" lon="23.584496"><ele>2251.9</ele><time>2026-04-05T07:04:24.000Z</time></trkpt>
<trkpt lat="42.219662" lon="23.584509"><ele>2251.9</ele><time>2026-04-05T07:04:25.000Z</time></trkpt>
<trkpt lat="42.219654" lon="23.584522"><ele>2251.9</ele><time>2026-04-05T07:04:26.000Z</time></trkpt>
<trkpt lat="42.219646" lon="23.584536"><ele>2251.9</ele><time>2026-04-05T07:04:27.000Z</time></trkpt>
<trkpt lat="42.21964" lon="23.584549"><ele>2251.9</ele><time>2026-04-05T07:04:28.000Z</time></trkpt>
<trkpt lat="42.219634" lon="23.584562"><ele>2250.8</ele><time>2026-04-05T07:04:29.000Z</time></trkpt>
<trkpt lat="42.219628" lon="23.584575"><ele>2250.8</ele><time>2026-04-05T07:04:30.000Z</time></trkpt>
<trkpt lat="42.219622" lon="23.584588"><ele>2250.8</ele><time>2026-04-05T07:04:31.000Z</time></trkpt>
<trkpt lat="42.219616" lon="23.584601"><ele>2250.8</ele><time>2026-04-05T07:04:32.000Z</time></trkpt>
<trkpt lat="42.219609" lon="23.584613"><ele>2250.8</ele><time>2026-04-05T07:04:33.000Z</time></trkpt>
<trkpt lat="42.219602" lon="23.584627"><ele>2250</ele><time>2026-04-05T07:04:34.000Z</time></trkpt>
<trkpt lat="42.219595" lon="23.58464"><ele>2250</ele><time>2026-04-05T07:04:35.000Z</time></trkpt>
<trkpt lat="42.219587" lon="23.584655"><ele>2250</ele><time>2026-04-05T07:04:36.000Z</time></trkpt>
<trkpt lat="42.21958" lon="23.584669"><ele>2250</ele><time>2026-04-05T07:04:37.000Z</time></trkpt>
<trkpt lat="42.219572" lon="23.584683"><ele>2250</ele><time>2026-04-05T07:04:38.000Z</time></trkpt>
<trkpt lat="42.219563" lon="23.584695"><ele>2248.4</ele><time>2026-04-05T07:04:39.000Z</time></trkpt>
<trkpt lat="42.219554" lon="23.584706"><ele>2248.4</ele><time>2026-04-05T07:04:40.000Z</time></trkpt>
<trkpt lat="42.219545" lon="23.584717"><ele>2248.4</ele><time>2026-04-05T07:04:41.000Z</time></trkpt>
<trkpt lat="42.219535" lon="23.584726"><ele>2248.4</ele><time>2026-04-05T07:04:42.000Z</time></trkpt>
<trkpt lat="42.219525" lon="23.584736"><ele>2248.4</ele><time>2026-04-05T07:04:43.000Z</time></trkpt>
<trkpt lat="42.219514" lon="23.584745"><ele>2247.1</ele><time>2026-04-05T07:04:44.000Z</time></trkpt>
<trkpt lat="42.219502" lon="23.584753"><ele>2247.1</ele><time>2026-04-05T07:04:45.000Z</time></trkpt>
<trkpt lat="42.21949" lon="23.584759"><ele>2247.1</ele><time>2026-04-05T07:04:46.000Z</time></trkpt>
<trkpt lat="42.219478" lon="23.584765"><ele>2247.1</ele><time>2026-04-05T07:04:47.000Z</time></trkpt>
<trkpt lat="42.219467" lon="23.584769"><ele>2247.1</ele><time>2026-04-05T07:04:48.000Z</time></trkpt>
<trkpt lat="42.219455" lon="23.584773"><ele>2246.5</ele><time>2026-04-05T07:04:49.000Z</time></trkpt>
<trkpt lat="42.219444" lon="23.584777"><ele>2246.5</ele><time>2026-04-05T07:04:50.000Z</time></trkpt>
<trkpt lat="42.219433" lon="23.584782"><ele>2246.5</ele><time>2026-04-05T07:04:51.000Z</time></trkpt>
<trkpt lat="42.219422" lon="23.584788"><ele>2246.5</ele><time>2026-04-05T07:04:52.000Z</time></trkpt>
<trkpt lat="42.219411" lon="23.584793"><ele>2246.5</ele><time>2026-04-05T07:04:53.000Z</time></trkpt>
<trkpt lat="42.219399" lon="23.584799"><ele>2245.2</ele><time>2026-04-05T07:04:54.000Z</time></trkpt>
<trkpt lat="42.219387" lon="23.584804"><ele>2245.2</ele><time>2026-04-05T07:04:55.000Z</time></trkpt>
<trkpt lat="42.219374" lon="23.584807"><ele>2245.2</ele><time>2026-04-05T07:04:56.000Z</time></trkpt>
<trkpt lat="42.219361" lon="23.584809"><ele>2245.2</ele><time>2026-04-05T07:04:57.000Z</time></trkpt>
<trkpt lat="42.219349" lon="23.584812"><ele>2245.2</ele><time>2026-04-05T07:04:58.000Z</time></trkpt>
<trkpt lat="42.219336" lon="23.584814"><ele>2243.9</ele><time>2026-04-05T07:04:59.000Z</time></trkpt>
<trkpt lat="42.219323" lon="23.584816"><ele>2243.9</ele><time>2026-04-05T07:05:00.000Z</time></trkpt>
<trkpt lat="42.219311" lon="23.584819"><ele>2243.9</ele><time>2026-04-05T07:05:01.000Z</time></trkpt>
<trkpt lat="42.2193" lon="23.584821"><ele>2243.9</ele><time>2026-04-05T07:05:02.000Z</time></trkpt>
<trkpt lat="42.219289" lon="23.584822"><ele>2243.9</ele><time>2026-04-05T07:05:03.000Z</time></trkpt>
<trkpt lat="42.219278" lon="23.584823"><ele>2243.3</ele><time>2026-04-05T07:05:04.000Z</time></trkpt>
<trkpt lat="42.219267" lon="23.584823"><ele>2243.3</ele><time>2026-04-05T07:05:05.000Z</time></trkpt>
<trkpt lat="42.219255" lon="23.584824"><ele>2243.3</ele><time>2026-04-05T07:05:06.000Z</time></trkpt>
<trkpt lat="42.219244" lon="23.584826"><ele>2243.3</ele><time>2026-04-05T07:05:07.000Z</time></trkpt>
<trkpt lat="42.219232" lon="23.584827"><ele>2243.3</ele><time>2026-04-05T07:05:08.000Z</time></trkpt>
<trkpt lat="42.21922" lon="23.584829"><ele>2241.9</ele><time>2026-04-05T07:05:09.000Z</time></trkpt>
<trkpt lat="42.219207" lon="23.58483"><ele>2241.9</ele><time>2026-04-05T07:05:10.000Z</time></trkpt>
<trkpt lat="42.219196" lon="23.58483"><ele>2241.9</ele><time>2026-04-05T07:05:11.000Z</time></trkpt>
<trkpt lat="42.219183" lon="23.584829"><ele>2241.9</ele><time>2026-04-05T07:05:12.000Z</time></trkpt>
<trkpt lat="42.219171" lon="23.584828"><ele>2241.9</ele><time>2026-04-05T07:05:13.000Z</time></trkpt>
<trkpt lat="42.219158" lon="23.584826"><ele>2240.6</ele><time>2026-04-05T07:05:14.000Z</time></trkpt>
<trkpt lat="42.219145" lon="23.584826"><ele>2240.6</ele><time>2026-04-05T07:05:15.000Z</time></trkpt>
<trkpt lat="42.219134" lon="23.584824"><ele>2240.6</ele><time>2026-04-05T07:05:16.000Z</time></trkpt>
<trkpt lat="42.219122" lon="23.584822"><ele>2240.6</ele><time>2026-04-05T07:05:17.000Z</time></trkpt>
<trkpt lat="42.219111" lon="23.58482"><ele>2240.6</ele><time>2026-04-05T07:05:18.000Z</time></trkpt>
<trkpt lat="42.2191" lon="23.584817"><ele>2240</ele><time>2026-04-05T07:05:19.000Z</time></trkpt>
<trkpt lat="42.219088" lon="23.584815"><ele>2240</ele><time>2026-04-05T07:05:20.000Z</time></trkpt>
<trkpt lat="42.219076" lon="23.584813"><ele>2240</ele><time>2026-04-05T07:05:21.000Z</time></trkpt>
<trkpt lat="42.219064" lon="23.584811"><ele>2240</ele><time>2026-04-05T07:05:22.000Z</time></trkpt>
<trkpt lat="42.219052" lon="23.584808"><ele>2240</ele><time>2026-04-05T07:05:23.000Z</time></trkpt>
<trkpt lat="42.219041" lon="23.584807"><ele>2238.7</ele><time>2026-04-05T07:05:24.000Z</time></trkpt>
<trkpt lat="42.21903" lon="23.584805"><ele>2238.7</ele><time>2026-04-05T07:05:25.000Z</time></trkpt>
<trkpt lat="42.219019" lon="23.584805"><ele>2238.7</ele><time>2026-04-05T07:05:26.000Z</time></trkpt>
<trkpt lat="42.219008" lon="23.584805"><ele>2238.7</ele><time>2026-04-05T07:05:27.000Z</time></trkpt>
<trkpt lat="42.218997" lon="23.584804"><ele>2238.7</ele><time>2026-04-05T07:05:28.000Z</time></trkpt>
<trkpt lat="42.218986" lon="23.584802"><ele>2237.3</ele><time>2026-04-05T07:05:29.000Z</time></trkpt>
<trkpt lat="42.218975" lon="23.5848"><ele>2237.3</ele><time>2026-04-05T07:05:30.000Z</time></trkpt>
<trkpt lat="42.218964" lon="23.584796"><ele>2237.3</ele><time>2026-04-05T07:05:31.000Z</time></trkpt>
<trkpt lat="42.218953" lon="23.584792"><ele>2237.3</ele><time>2026-04-05T07:05:32.000Z</time></trkpt>
<trkpt lat="42.218943" lon="23.584786"><ele>2237.3</ele><time>2026-04-05T07:05:33.000Z</time></trkpt>
<trkpt lat="42.218932" lon="23.58478"><ele>2236.7</ele><time>2026-04-05T07:05:34.000Z</time></trkpt>
<trkpt lat="42.218922" lon="23.584773"><ele>2236.7</ele><time>2026-04-05T07:05:35.000Z</time></trkpt>
<trkpt lat="42.218912" lon="23.584765"><ele>2236.7</ele><time>2026-04-05T07:05:36.000Z</time></trkpt>
<trkpt lat="42.218902" lon="23.584759"><ele>2236.7</ele><time>2026-04-05T07:05:37.000Z</time></trkpt>
<trkpt lat="42.218892" lon="23.584754"><ele>2236.7</ele><time>2026-04-05T07:05:38.000Z</time></trkpt>
<trkpt lat="42.218882" lon="23.58475"><ele>2235.5</ele><time>2026-04-05T07:05:39.000Z</time></trkpt>
<trkpt lat="42.218871" lon="23.584744"><ele>2235.5</ele><time>2026-04-05T07:05:40.000Z</time></trkpt>
<trkpt lat="42.218861" lon="23.584739"><ele>2235.5</ele><time>2026-04-05T07:05:41.000Z</time></trkpt>
<trkpt lat="42.21885" lon="23.584734"><ele>2235.5</ele><time>2026-04-05T07:05:42.000Z</time></trkpt>
<trkpt lat="42.21884" lon="23.584727"><ele>2235.5</ele><time>2026-04-05T07:05:43.000Z</time></trkpt>
<trkpt lat="42.21883" lon="23.58472"><ele>2234.5</ele><time>2026-04-05T07:05:44.000Z</time></trkpt>
<trkpt lat="42.21882" lon="23.584713"><ele>2234.5</ele><time>2026-04-05T07:05:45.000Z</time></trkpt>
<trkpt lat="42.218811" lon="23.584705"><ele>2234.5</ele><time>2026-04-05T07:05:46.000Z</time></trkpt>
<trkpt lat="42.218801" lon="23.584696"><ele>2234.5</ele><time>2026-04-05T07:05:47.000Z</time></trkpt>
<trkpt lat="42.218792" lon="23.584687"><ele>2234.5</ele><time>2026-04-05T07:05:48.000Z</time></trkpt>
<trkpt lat="42.218784" lon="23.584678"><ele>2234.1</ele><time>2026-04-05T07:05:49.000Z</time></trkpt>
<trkpt lat="42.218776" lon="23.584668"><ele>2234.1</ele><time>2026-04-05T07:05:50.000Z</time></trkpt>
<trkpt lat="42.218768" lon="23.584659"><ele>2234.1</ele><time>2026-04-05T07:05:51.000Z</time></trkpt>
<trkpt lat="42.21876" lon="23.584651"><ele>2234.1</ele><time>2026-04-05T07:05:52.000Z</time></trkpt>
<trkpt lat="42.218752" lon="23.584641"><ele>2234.1</ele><time>2026-04-05T07:05:53.000Z</time></trkpt>
<trkpt lat="42.218743" lon="23.584633"><ele>2233.4</ele><time>2026-04-05T07:05:54.000Z</time></trkpt>
<trkpt lat="42.218733" lon="23.584627"><ele>2233.4</ele><time>2026-04-05T07:05:55.000Z</time></trkpt>
<trkpt lat="42.218723" lon="23.584621"><ele>2233.4</ele><time>2026-04-05T07:05:56.000Z</time></trkpt>
<trkpt lat="42.218713" lon="23.584616"><ele>2233.4</ele><time>2026-04-05T07:05:57.000Z</time></trkpt>
<trkpt lat="42.218703" lon="23.584612"><ele>2233.4</ele><time>2026-04-05T07:05:58.000Z</time></trkpt>
<trkpt lat="42.218692" lon="23.584607"><ele>2232.8</ele><time>2026-04-05T07:05:59.000Z</time></trkpt>
<trkpt lat="42.218682" lon="23.5846"><ele>2232.8</ele><time>2026-04-05T07:06:00.000Z</time></trkpt>
<trkpt lat="42.21867" lon="23.584592"><ele>2232.8</ele><time>2026-04-05T07:06:01.000Z</time></trkpt>
<trkpt lat="42.218658" lon="23.584584"><ele>2232.8</ele><time>2026-04-05T07:06:02.000Z</time></trkpt>
<trkpt lat="42.218646" lon="23.584576"><ele>2232.8</ele><time>2026-04-05T07:06:03.000Z</time></trkpt>
<trkpt lat="42.218633" lon="23.584568"><ele>2232.5</ele><time>2026-04-05T07:06:04.000Z</time></trkpt>
<trkpt lat="42.21862" lon="23.584562"><ele>2232.5</ele><time>2026-04-05T07:06:05.000Z</time></trkpt>
<trkpt lat="42.218608" lon="23.584555"><ele>2232.5</ele><time>2026-04-05T07:06:06.000Z</time></trkpt>
<trkpt lat="42.218596" lon="23.584549"><ele>2232.5</ele><time>2026-04-05T07:06:07.000Z</time></trkpt>
<trkpt lat="42.218584" lon="23.584543"><ele>2232.5</ele><time>2026-04-05T07:06:08.000Z</time></trkpt>
<trkpt lat="42.218572" lon="23.584538"><ele>2232</ele><time>2026-04-05T07:06:09.000Z</time></trkpt>
<trkpt lat="42.218561" lon="23.584534"><ele>2232</ele><time>2026-04-05T07:06:10.000Z</time></trkpt>
<trkpt lat="42.218549" lon="23.58453"><ele>2232</ele><time>2026-04-05T07:06:11.000Z</time></trkpt>
<trkpt lat="42.218538" lon="23.584528"><ele>2232</ele><time>2026-04-05T07:06:12.000Z</time></trkpt>
<trkpt lat="42.218527" lon="23.584526"><ele>2232</ele><time>2026-04-05T07:06:13.000Z</time></trkpt>
<trkpt lat="42.218515" lon="23.584525"><ele>2231.4</ele><time>2026-04-05T07:06:14.000Z</time></trkpt>
<trkpt lat="42.218502" lon="23.584524"><ele>2231.4</ele><time>2026-04-05T07:06:15.000Z</time></trkpt>
<trkpt lat="42.218489" lon="23.584524"><ele>2231.4</ele><time>2026-04-05T07:06:16.000Z</time></trkpt>
<trkpt lat="42.218476" lon="23.584522"><ele>2231.4</ele><time>2026-04-05T07:06:17.000Z</time></trkpt>
<trkpt lat="42.218464" lon="23.58452"><ele>2231.4</ele><time>2026-04-05T07:06:18.000Z</time></trkpt>
<trkpt lat="42.218453" lon="23.584518"><ele>2230.9</ele><time>2026-04-05T07:06:19.000Z</time></trkpt>
<trkpt lat="42.218442" lon="23.584518"><ele>2230.9</ele><time>2026-04-05T07:06:20.000Z</time></trkpt>
<trkpt lat="42.218431" lon="23.584517"><ele>2230.9</ele><time>2026-04-05T07:06:21.000Z</time></trkpt>
<trkpt lat="42.21842" lon="23.584516"><ele>2230.9</ele><time>2026-04-05T07:06:22.000Z</time></trkpt>
<trkpt lat="42.21841" lon="23.584514"><ele>2230.9</ele><time>2026-04-05T07:06:23.000Z</time></trkpt>
<trkpt lat="42.218399" lon="23.584512"><ele>2229.9</ele><time>2026-04-05T07:06:24.000Z</time></trkpt>
<trkpt lat="42.218389" lon="23.58451"><ele>2229.9</ele><time>2026-04-05T07:06:25.000Z</time></trkpt>
<trkpt lat="42.21838" lon="23.584506"><ele>2229.9</ele><time>2026-04-05T07:06:26.000Z</time></trkpt>
<trkpt lat="42.218372" lon="23.584504"><ele>2229.9</ele><time>2026-04-05T07:06:27.000Z</time></trkpt>
<trkpt lat="42.218363" lon="23.584502"><ele>2229.9</ele><time>2026-04-05T07:06:28.000Z</time></trkpt>
<trkpt lat="42.218356" lon="23.5845"><ele>2228.5</ele><time>2026-04-05T07:06:29.000Z</time></trkpt>
<trkpt lat="42.218347" lon="23.584499"><ele>2228.5</ele><time>2026-04-05T07:06:30.000Z</time></trkpt>
<trkpt lat="42.218339" lon="23.584497"><ele>2228.5</ele><time>2026-04-05T07:06:31.000Z</time></trkpt>
<trkpt lat="42.218329" lon="23.584495"><ele>2228.5</ele><time>2026-04-05T07:06:32.000Z</time></trkpt>
<trkpt lat="42.218319" lon="23.584494"><ele>2228.5</ele><time>2026-04-05T07:06:33.000Z</time></trkpt>
<trkpt lat="42.218309" lon="23.584492"><ele>2227.8</ele><time>2026-04-05T07:06:34.000Z</time></trkpt>
<trkpt lat="42.218299" lon="23.584491"><ele>2227.8</ele><time>2026-04-05T07:06:35.000Z</time></trkpt>
<trkpt lat="42.218287" lon="23.584491"><ele>2227.8</ele><time>2026-04-05T07:06:36.000Z</time></trkpt>
<trkpt lat="42.218276" lon="23.584491"><ele>2227.8</ele><time>2026-04-05T07:06:37.000Z</time></trkpt>
<trkpt lat="42.218265" lon="23.584491"><ele>2227.8</ele><time>2026-04-05T07:06:38.000Z</time></trkpt>
<trkpt lat="42.218254" lon="23.584491"><ele>2226.2</ele><time>2026-04-05T07:06:39.000Z</time></trkpt>
<trkpt lat="42.218243" lon="23.584493"><ele>2226.2</ele><time>2026-04-05T07:06:40.000Z</time></trkpt>
<trkpt lat="42.218232" lon="23.584494"><ele>2226.2</ele><time>2026-04-05T07:06:41.000Z</time></trkpt>
<trkpt lat="42.21822" lon="23.584497"><ele>2226.2</ele><time>2026-04-05T07:06:42.000Z</time></trkpt>
<trkpt lat="42.218209" lon="23.584501"><ele>2226.2</ele><time>2026-04-05T07:06:43.000Z</time></trkpt>
<trkpt lat="42.218197" lon="23.584504"><ele>2224.8</ele><time>2026-04-05T07:06:44.000Z</time></trkpt>
<trkpt lat="42.218186" lon="23.584506"><ele>2224.8</ele><time>2026-04-05T07:06:45.000Z</time></trkpt>
<trkpt lat="42.218175" lon="23.584508"><ele>2224.8</ele><time>2026-04-05T07:06:46.000Z</time></trkpt>
<trkpt lat="42.218164" lon="23.58451"><ele>2224.8</ele><time>2026-04-05T07:06:47.000Z</time></trkpt>
<trkpt lat="42.218154" lon="23.584512"><ele>2224.8</ele><time>2026-04-05T07:06:48.000Z</time></trkpt>
<trkpt lat="42.218144" lon="23.584514"><ele>2224.1</ele><time>2026-04-05T07:06:49.000Z</time></trkpt>
<trkpt lat="42.218134" lon="23.584517"><ele>2224.1</ele><time>2026-04-05T07:06:50.000Z</time></trkpt>
<trkpt lat="42.218125" lon="23.58452"><ele>2224.1</ele><time>2026-04-05T07:06:51.000Z</time></trkpt>
<trkpt lat="42.218116" lon="23.584522"><ele>2224.1</ele><time>2026-04-05T07:06:52.000Z</time></trkpt>
<trkpt lat="42.218107" lon="23.584524"><ele>2224.1</ele><time>2026-04-05T07:06:53.000Z</time></trkpt>
<trkpt lat="42.218098" lon="23.584527"><ele>2222.7</ele><time>2026-04-05T07:06:54.000Z</time></trkpt>
<trkpt lat="42.218088" lon="23.58453"><ele>2222.7</ele><time>2026-04-05T07:06:55.000Z</time></trkpt>
<trkpt lat="42.218077" lon="23.584533"><ele>2222.7</ele><time>2026-04-05T07:06:56.000Z</time></trkpt>
<trkpt lat="42.218065" lon="23.584536"><ele>2222.7</ele><time>2026-04-05T07:06:57.000Z</time></trkpt>
<trkpt lat="42.218053" lon="23.584539"><ele>2222.7</ele><time>2026-04-05T07:06:58.000Z</time></trkpt>
<trkpt lat="42.218041" lon="23.584542"><ele>2221.2</ele><time>2026-04-05T07:06:59.000Z</time></trkpt>
<trkpt lat="42.218029" lon="23.584544"><ele>2221.2</ele><time>2026-04-05T07:07:00.000Z</time></trkpt>
<trkpt lat="42.218017" lon="23.584546"><ele>2221.2</ele><time>2026-04-05T07:07:01.000Z</time></trkpt>
<trkpt lat="42.218006" lon="23.584549"><ele>2221.2</ele><time>2026-04-05T07:07:02.000Z</time></trkpt>
<trkpt lat="42.217994" lon="23.584552"><ele>2221.2</ele><time>2026-04-05T07:07:03.000Z</time></trkpt>
<trkpt lat="42.217982" lon="23.584556"><ele>2220.6</ele><time>2026-04-05T07:07:04.000Z</time></trkpt>
<trkpt lat="42.21797" lon="23.584559"><ele>2220.6</ele><time>2026-04-05T07:07:05.000Z</time></trkpt>
<trkpt lat="42.217958" lon="23.584563"><ele>2220.6</ele><time>2026-04-05T07:07:06.000Z</time></trkpt>
<trkpt lat="42.217946" lon="23.584566"><ele>2220.6</ele><time>2026-04-05T07:07:07.000Z</time></trkpt>
<trkpt lat="42.217935" lon="23.58457"><ele>2220.6</ele><time>2026-04-05T07:07:08.000Z</time></trkpt>
<trkpt lat="42.217923" lon="23.584573"><ele>2219.5</ele><time>2026-04-05T07:07:09.000Z</time></trkpt>
<trkpt lat="42.217911" lon="23.584578"><ele>2219.5</ele><time>2026-04-05T07:07:10.000Z</time></trkpt>
<trkpt lat="42.217899" lon="23.584582"><ele>2219.5</ele><time>2026-04-05T07:07:11.000Z</time></trkpt>
<trkpt lat="42.217887" lon="23.584587"><ele>2219.5</ele><time>2026-04-05T07:07:12.000Z</time></trkpt>
<trkpt lat="42.217875" lon="23.584593"><ele>2219.5</ele><time>2026-04-05T07:07:13.000Z</time></trkpt>
<trkpt lat="42.217862" lon="23.584599"><ele>2218.1</ele><time>2026-04-05T07:07:14.000Z</time></trkpt>
<trkpt lat="42.21785" lon="23.584605"><ele>2218.1</ele><time>2026-04-05T07:07:15.000Z</time></trkpt>
<trkpt lat="42.217837" lon="23.584609"><ele>2218.1</ele><time>2026-04-05T07:07:16.000Z</time></trkpt>
<trkpt lat="42.217825" lon="23.584613"><ele>2218.1</ele><time>2026-04-05T07:07:17.000Z</time></trkpt>
<trkpt lat="42.217814" lon="23.584617"><ele>2218.1</ele><time>2026-04-05T07:07:18.000Z</time></trkpt>
<trkpt lat="42.217804" lon="23.58462"><ele>2217.3</ele><time>2026-04-05T07:07:19.000Z</time></trkpt>
<trkpt lat="42.217794" lon="23.584623"><ele>2217.3</ele><time>2026-04-05T07:07:20.000Z</time></trkpt>
<trkpt lat="42.217784" lon="23.584628"><ele>2217.3</ele><time>2026-04-05T07:07:21.000Z</time></trkpt>
<trkpt lat="42.217773" lon="23.584632"><ele>2217.3</ele><time>2026-04-05T07:07:22.000Z</time></trkpt>
<trkpt lat="42.217762" lon="23.584636"><ele>2217.3</ele><time>2026-04-05T07:07:23.000Z</time></trkpt>
<trkpt lat="42.21775" lon="23.58464"><ele>2215.8</ele><time>2026-04-05T07:07:24.000Z</time></trkpt>
<trkpt lat="42.217738" lon="23.584644"><ele>2215.8</ele><time>2026-04-05T07:07:25.000Z</time></trkpt>
<trkpt lat="42.217725" lon="23.584647"><ele>2215.8</ele><time>2026-04-05T07:07:26.000Z</time></trkpt>
<trkpt lat="42.217713" lon="23.58465"><ele>2215.8</ele><time>2026-04-05T07:07:27.000Z</time></trkpt>
<trkpt lat="42.2177" lon="23.584653"><ele>2215.8</ele><time>2026-04-05T07:07:28.000Z</time></trkpt>
<trkpt lat="42.217688" lon="23.584656"><ele>2214.5</ele><time>2026-04-05T07:07:29.000Z</time></trkpt>
<trkpt lat="42.217676" lon="23.584659"><ele>2214.5</ele><time>2026-04-05T07:07:30.000Z</time></trkpt>
<trkpt lat="42.217664" lon="23.584661"><ele>2214.5</ele><time>2026-04-05T07:07:31.000Z</time></trkpt>
<trkpt lat="42.217654" lon="23.584663"><ele>2214.5</ele><time>2026-04-05T07:07:32.000Z</time></trkpt>
<trkpt lat="42.217643" lon="23.584666"><ele>2214.5</ele><time>2026-04-05T07:07:33.000Z</time></trkpt>
<trkpt lat="42.217632" lon="23.584668"><ele>2213.9</ele><time>2026-04-05T07:07:34.000Z</time></trkpt>
<trkpt lat="42.217621" lon="23.58467"><ele>2213.9</ele><time>2026-04-05T07:07:35.000Z</time></trkpt>
<trkpt lat="42.217609" lon="23.584673"><ele>2213.9</ele><time>2026-04-05T07:07:36.000Z</time></trkpt>
<trkpt lat="42.217598" lon="23.584676"><ele>2213.9</ele><time>2026-04-05T07:07:37.000Z</time></trkpt>
<trkpt lat="42.217586" lon="23.584679"><ele>2213.9</ele><time>2026-04-05T07:07:38.000Z</time></trkpt>
<trkpt lat="42.217573" lon="23.584682"><ele>2212.8</ele><time>2026-04-05T07:07:39.000Z</time></trkpt>
<trkpt lat="42.217561" lon="23.584685"><ele>2212.8</ele><time>2026-04-05T07:07:40.000Z</time></trkpt>
<trkpt lat="42.217549" lon="23.584689"><ele>2212.8</ele><time>2026-04-05T07:07:41.000Z</time></trkpt>
<trkpt lat="42.217537" lon="23.584694"><ele>2212.8</ele><time>2026-04-05T07:07:42.000Z</time></trkpt>
<trkpt lat="42.217526" lon="23.584699"><ele>2212.8</ele><time>2026-04-05T07:07:43.000Z</time></trkpt>
<trkpt lat="42.217515" lon="23.584705"><ele>2211.6</ele><time>2026-04-05T07:07:44.000Z</time></trkpt>
<trkpt lat="42.217504" lon="23.58471"><ele>2211.6</ele><time>2026-04-05T07:07:45.000Z</time></trkpt>
<trkpt lat="42.217492" lon="23.584716"><ele>2211.6</ele><time>2026-04-05T07:07:46.000Z</time></trkpt>
<trkpt lat="42.217481" lon="23.584722"><ele>2211.6</ele><time>2026-04-05T07:07:47.000Z</time></trkpt>
<trkpt lat="42.21747" lon="23.584727"><ele>2211.6</ele><time>2026-04-05T07:07:48.000Z</time></trkpt>
<trkpt lat="42.217458" lon="23.584731"><ele>2211.1</ele><time>2026-04-05T07:07:49.000Z</time></trkpt>
<trkpt lat="42.217448" lon="23.584736"><ele>2211.1</ele><time>2026-04-05T07:07:50.000Z</time></trkpt>
<trkpt lat="42.217438" lon="23.584739"><ele>2211.1</ele><time>2026-04-05T07:07:51.000Z</time></trkpt>
<trkpt lat="42.217428" lon="23.584742"><ele>2211.1</ele><time>2026-04-05T07:07:52.000Z</time></trkpt>
<trkpt lat="42.217417" lon="23.584745"><ele>2211.1</ele><time>2026-04-05T07:07:53.000Z</time></trkpt>
<trkpt lat="42.217405" lon="23.584748"><ele>2210.1</ele><time>2026-04-05T07:07:54.000Z</time></trkpt>
<trkpt lat="42.217392" lon="23.584751"><ele>2210.1</ele><time>2026-04-05T07:07:55.000Z</time></trkpt>
<trkpt lat="42.217378" lon="23.584755"><ele>2210.1</ele><time>2026-04-05T07:07:56.000Z</time></trkpt>
<trkpt lat="42.217363" lon="23.584758"><ele>2210.1</ele><time>2026-04-05T07:07:57.000Z</time></trkpt>
<trkpt lat="42.217348" lon="23.584762"><ele>2210.1</ele><time>2026-04-05T07:07:58.000Z</time></trkpt>
<trkpt lat="42.217334" lon="23.584766"><ele>2209.4</ele><time>2026-04-05T07:07:59.000Z</time></trkpt>
<trkpt lat="42.21732" lon="23.584769"><ele>2209.4</ele><time>2026-04-05T07:08:00.000Z</time></trkpt>
<trkpt lat="42.217307" lon="23.584774"><ele>2209.4</ele><time>2026-04-05T07:08:01.000Z</time></trkpt>
<trkpt lat="42.217294" lon="23.584779"><ele>2209.4</ele><time>2026-04-05T07:08:02.000Z</time></trkpt>
<trkpt lat="42.217282" lon="23.584784"><ele>2209.4</ele><time>2026-04-05T07:08:03.000Z</time></trkpt>
<trkpt lat="42.21727" lon="23.584788"><ele>2209.1</ele><time>2026-04-05T07:08:04.000Z</time></trkpt>
<trkpt lat="42.217259" lon="23.584792"><ele>2209.1</ele><time>2026-04-05T07:08:05.000Z</time></trkpt>
<trkpt lat="42.21725" lon="23.584796"><ele>2209.1</ele><time>2026-04-05T07:08:06.000Z</time></trkpt>
<trkpt lat="42.21724" lon="23.584799"><ele>2209.1</ele><time>2026-04-05T07:08:07.000Z</time></trkpt>
<trkpt lat="42.21723" lon="23.584803"><ele>2209.1</ele><time>2026-04-05T07:08:08.000Z</time></trkpt>
<trkpt lat="42.21722" lon="23.584808"><ele>2208.6</ele><time>2026-04-05T07:08:09.000Z</time></trkpt>
<trkpt lat="42.21721" lon="23.584811"><ele>2208.6</ele><time>2026-04-05T07:08:10.000Z</time></trkpt>
<trkpt lat="42.217201" lon="23.584815"><ele>2208.6</ele><time>2026-04-05T07:08:11.000Z</time></trkpt>
<trkpt lat="42.217192" lon="23.58482"><ele>2208.6</ele><time>2026-04-05T07:08:12.000Z</time></trkpt>
<trkpt lat="42.217183" lon="23.584823"><ele>2208.6</ele><time>2026-04-05T07:08:13.000Z</time></trkpt>
<trkpt lat="42.217175" lon="23.584827"><ele>2207.9</ele><time>2026-04-05T07:08:14.000Z</time></trkpt>
<trkpt lat="42.217165" lon="23.584831"><ele>2207.9</ele><time>2026-04-05T07:08:15.000Z</time></trkpt>
<trkpt lat="42.217155" lon="23.584835"><ele>2207.9</ele><time>2026-04-05T07:08:16.000Z</time></trkpt>
<trkpt lat="42.217144" lon="23.584839"><ele>2207.9</ele><time>2026-04-05T07:08:17.000Z</time></trkpt>
<trkpt lat="42.217132" lon="23.584844"><ele>2207.9</ele><time>2026-04-05T07:08:18.000Z</time></trkpt>
<trkpt lat="42.217119" lon="23.584849"><ele>2207.4</ele><time>2026-04-05T07:08:19.000Z</time></trkpt>
<trkpt lat="42.217106" lon="23.584855"><ele>2207.4</ele><time>2026-04-05T07:08:20.000Z</time></trkpt>
<trkpt lat="42.217094" lon="23.584861"><ele>2207.4</ele><time>2026-04-05T07:08:21.000Z</time></trkpt>
<trkpt lat="42.217082" lon="23.584868"><ele>2207.4</ele><time>2026-04-05T07:08:22.000Z</time></trkpt>
<trkpt lat="42.21707" lon="23.584875"><ele>2207.4</ele><time>2026-04-05T07:08:23.000Z</time></trkpt>
<trkpt lat="42.21706" lon="23.584882"><ele>2206.4</ele><time>2026-04-05T07:08:24.000Z</time></trkpt>
<trkpt lat="42.217049" lon="23.584891"><ele>2206.4</ele><time>2026-04-05T07:08:25.000Z</time></trkpt>
<trkpt lat="42.217039" lon="23.584899"><ele>2206.4</ele><time>2026-04-05T07:08:26.000Z</time></trkpt>
<trkpt lat="42.217028" lon="23.584907"><ele>2206.4</ele><time>2026-04-05T07:08:27.000Z</time></trkpt>
<trkpt lat="42.217017" lon="23.584914"><ele>2206.4</ele><time>2026-04-05T07:08:28.000Z</time></trkpt>
<trkpt lat="42.217006" lon="23.584922"><ele>2205.4</ele><time>2026-04-05T07:08:29.000Z</time></trkpt>
<trkpt lat="42.216994" lon="23.584928"><ele>2205.4</ele><time>2026-04-05T07:08:30.000Z</time></trkpt>
<trkpt lat="42.216983" lon="23.584935"><ele>2205.4</ele><time>2026-04-05T07:08:31.000Z</time></trkpt>
<trkpt lat="42.216972" lon="23.58494"><ele>2205.4</ele><time>2026-04-05T07:08:32.000Z</time></trkpt>
<trkpt lat="42.216961" lon="23.584946"><ele>2205.4</ele><time>2026-04-05T07:08:33.000Z</time></trkpt>
<trkpt lat="42.216951" lon="23.584951"><ele>2205</ele><time>2026-04-05T07:08:34.000Z</time></trkpt>
<trkpt lat="42.21694" lon="23.584957"><ele>2205</ele><time>2026-04-05T07:08:35.000Z</time></trkpt>
<trkpt lat="42.216929" lon="23.584964"><ele>2205</ele><time>2026-04-05T07:08:36.000Z</time></trkpt>
<trkpt lat="42.216917" lon="23.584971"><ele>2205</ele><time>2026-04-05T07:08:37.000Z</time></trkpt>
<trkpt lat="42.216906" lon="23.584978"><ele>2205</ele><time>2026-04-05T07:08:38.000Z</time></trkpt>
<trkpt lat="42.216894" lon="23.584986"><ele>2204.1</ele><time>2026-04-05T07:08:39.000Z</time></trkpt>
<trkpt lat="42.216883" lon="23.584994"><ele>2204.1</ele><time>2026-04-05T07:08:40.000Z</time></trkpt>
<trkpt lat="42.216872" lon="23.585003"><ele>2204.1</ele><time>2026-04-05T07:08:41.000Z</time></trkpt>
<trkpt lat="42.216861" lon="23.585011"><ele>2204.1</ele><time>2026-04-05T07:08:42.000Z</time></trkpt>
<trkpt lat="42.216852" lon="23.585021"><ele>2204.1</ele><time>2026-04-05T07:08:43.000Z</time></trkpt>
<trkpt lat="42.216842" lon="23.58503"><ele>2203.3</ele><time>2026-04-05T07:08:44.000Z</time></trkpt>
<trkpt lat="42.216832" lon="23.58504"><ele>2203.3</ele><time>2026-04-05T07:08:45.000Z</time></trkpt>
<trkpt lat="42.216823" lon="23.585049"><ele>2203.3</ele><time>2026-04-05T07:08:46.000Z</time></trkpt>
<trkpt lat="42.216815" lon="23.585056"><ele>2203.3</ele><time>2026-04-05T07:08:47.000Z</time></trkpt>
<trkpt lat="42.216809" lon="23.585064"><ele>2203.3</ele><time>2026-04-05T07:08:48.000Z</time></trkpt>
<trkpt lat="42.216803" lon="23.585074"><ele>2202.9</ele><time>2026-04-05T07:08:49.000Z</time></trkpt>
<trkpt lat="42.216798" lon="23.585086"><ele>2202.9</ele><time>2026-04-05T07:08:50.000Z</time></trkpt>
<trkpt lat="42.216794" lon="23.5851"><ele>2202.9</ele><time>2026-04-05T07:08:51.000Z</time></trkpt>
<trkpt lat="42.216788" lon="23.585117"><ele>2202.9</ele><time>2026-04-05T07:08:52.000Z</time></trkpt>
<trkpt lat="42.216781" lon="23.585135"><ele>2202.9</ele><time>2026-04-05T07:08:53.000Z</time></trkpt>
<trkpt lat="42.216774" lon="23.585151"><ele>2202.2</ele><time>2026-04-05T07:08:54.000Z</time></trkpt>
<trkpt lat="42.216767" lon="23.585166"><ele>2202.2</ele><time>2026-04-05T07:08:55.000Z</time></trkpt>
<trkpt lat="42.21676" lon="23.58518"><ele>2202.2</ele><time>2026-04-05T07:08:56.000Z</time></trkpt>
<trkpt lat="42.216752" lon="23.585194"><ele>2202.2</ele><time>2026-04-05T07:08:57.000Z</time></trkpt>
<trkpt lat="42.216745" lon="23.585205"><ele>2202.2</ele><time>2026-04-05T07:08:58.000Z</time></trkpt>
<trkpt lat="42.216738" lon="23.585216"><ele>2201.4</ele><time>2026-04-05T07:08:59.000Z</time></trkpt>
<trkpt lat="42.21673" lon="23.585226"><ele>2201.4</ele><time>2026-04-05T07:09:00.000Z</time></trkpt>
<trkpt lat="42.216722" lon="23.585235"><ele>2201.4</ele><time>2026-04-05T07:09:01.000Z</time></trkpt>
<trkpt lat="42.216714" lon="23.585244"><ele>2201.4</ele><time>2026-04-05T07:09:02.000Z</time></trkpt>
<trkpt lat="42.216705" lon="23.585252"><ele>2201.4</ele><time>2026-04-05T07:09:03.000Z</time></trkpt>
<trkpt lat="42.216696" lon="23.58526"><ele>2200.9</ele><time>2026-04-05T07:09:04.000Z</time></trkpt>
<trkpt lat="42.216687" lon="23.585267"><ele>2200.9</ele><time>2026-04-05T07:09:05.000Z</time></trkpt>
<trkpt lat="42.216678" lon="23.585275"><ele>2200.9</ele><time>2026-04-05T07:09:06.000Z</time></trkpt>
<trkpt lat="42.216669" lon="23.585284"><ele>2200.9</ele><time>2026-04-05T07:09:07.000Z</time></trkpt>
<trkpt lat="42.216659" lon="23.585295"><ele>2200.9</ele><time>2026-04-05T07:09:08.000Z</time></trkpt>
<trkpt lat="42.21665" lon="23.585307"><ele>2199.8</ele><time>2026-04-05T07:09:09.000Z</time></trkpt>
<trkpt lat="42.21664" lon="23.585319"><ele>2199.8</ele><time>2026-04-05T07:09:10.000Z</time></trkpt>
<trkpt lat="42.216631" lon="23.58533"><ele>2199.8</ele><time>2026-04-05T07:09:11.000Z</time></trkpt>
<trkpt lat="42.216622" lon="23.585341"><ele>2199.8</ele><time>2026-04-05T07:09:12.000Z</time></trkpt>
<trkpt lat="42.216612" lon="23.585349"><ele>2199.8</ele><time>2026-04-05T07:09:13.000Z</time></trkpt>
<trkpt lat="42.216603" lon="23.585356"><ele>2198.6</ele><time>2026-04-05T07:09:14.000Z</time></trkpt>
<trkpt lat="42.216594" lon="23.585363"><ele>2198.6</ele><time>2026-04-05T07:09:15.000Z</time></trkpt>
<trkpt lat="42.216585" lon="23.585367"><ele>2198.6</ele><time>2026-04-05T07:09:16.000Z</time></trkpt>
<trkpt lat="42.21658" lon="23.58537"><ele>2198.6</ele><time>2026-04-05T07:09:17.000Z</time></trkpt>
<trkpt lat="42.216575" lon="23.585373"><ele>2198.6</ele><time>2026-04-05T07:09:18.000Z</time></trkpt>
<trkpt lat="42.21657" lon="23.585377"><ele>2198.1</ele><time>2026-04-05T07:09:19.000Z</time></trkpt>
<trkpt lat="42.216566" lon="23.58538"><ele>2198.1</ele><time>2026-04-05T07:09:20.000Z</time></trkpt>
<trkpt lat="42.21656" lon="23.585386"><ele>2198.1</ele><time>2026-04-05T07:09:21.000Z</time></trkpt>
<trkpt lat="42.216552" lon="23.585394"><ele>2198.1</ele><time>2026-04-05T07:09:22.000Z</time></trkpt>
<trkpt lat="42.216543" lon="23.585404"><ele>2198.1</ele><time>2026-04-05T07:09:23.000Z</time></trkpt>
<trkpt lat="42.216534" lon="23.585414"><ele>2197.3</ele><time>2026-04-05T07:09:24.000Z</time></trkpt>
<trkpt lat="42.216524" lon="23.585424"><ele>2197.3</ele><time>2026-04-05T07:09:25.000Z</time></trkpt>
<trkpt lat="42.216514" lon="23.585434"><ele>2197.3</ele><time>2026-04-05T07:09:26.000Z</time></trkpt>
<trkpt lat="42.216505" lon="23.585443"><ele>2197.3</ele><time>2026-04-05T07:09:27.000Z</time></trkpt>
<trkpt lat="42.216495" lon="23.585451"><ele>2197.3</ele><time>2026-04-05T07:09:28.000Z</time></trkpt>
<trkpt lat="42.216486" lon="23.585458"><ele>2196.5</ele><time>2026-04-05T07:09:29.000Z</time></trkpt>
<trkpt lat="42.216476" lon="23.585465"><ele>2196.5</ele><time>2026-04-05T07:09:30.000Z</time></trkpt>
<trkpt lat="42.216467" lon="23.585472"><ele>2196.5</ele><time>2026-04-05T07:09:31.000Z</time></trkpt>
<trkpt lat="42.216457" lon="23.58548"><ele>2196.5</ele><time>2026-04-05T07:09:32.000Z</time></trkpt>
<trkpt lat="42.216447" lon="23.585488"><ele>2196.5</ele><time>2026-04-05T07:09:33.000Z</time></trkpt>
<trkpt lat="42.216436" lon="23.585496"><ele>2196.2</ele><time>2026-04-05T07:09:34.000Z</time></trkpt>
<trkpt lat="42.216426" lon="23.585504"><ele>2196.2</ele><time>2026-04-05T07:09:35.000Z</time></trkpt>
<trkpt lat="42.216416" lon="23.585512"><ele>2196.2</ele><time>2026-04-05T07:09:36.000Z</time></trkpt>
<trkpt lat="42.216405" lon="23.585521"><ele>2196.2</ele><time>2026-04-05T07:09:37.000Z</time></trkpt>
<trkpt lat="42.216395" lon="23.58553"><ele>2196.2</ele><time>2026-04-05T07:09:38.000Z</time></trkpt>
<trkpt lat="42.216383" lon="23.585538"><ele>2195.6</ele><time>2026-04-05T07:09:39.000Z</time></trkpt>
<trkpt lat="42.216371" lon="23.585545"><ele>2195.6</ele><time>2026-04-05T07:09:40.000Z</time></trkpt>
<trkpt lat="42.216359" lon="23.585553"><ele>2195.6</ele><time>2026-04-05T07:09:41.000Z</time></trkpt>
<trkpt lat="42.216347" lon="23.585561"><ele>2195.6</ele><time>2026-04-05T07:09:42.000Z</time></trkpt>
<trkpt lat="42.216335" lon="23.585569"><ele>2195.6</ele><time>2026-04-05T07:09:43.000Z</time></trkpt>
<trkpt lat="42.216324" lon="23.585577"><ele>2195</ele><time>2026-04-05T07:09:44.000Z</time></trkpt>
<trkpt lat="42.216314" lon="23.585586"><ele>2195</ele><time>2026-04-05T07:09:45.000Z</time></trkpt>
<trkpt lat="42.216304" lon="23.585595"><ele>2195</ele><time>2026-04-05T07:09:46.000Z</time></trkpt>
<trkpt lat="42.216294" lon="23.585604"><ele>2195</ele><time>2026-04-05T07:09:47.000Z</time></trkpt>
<trkpt lat="42.216284" lon="23.585612"><ele>2195</ele><time>2026-04-05T07:09:48.000Z</time></trkpt>
<trkpt lat="42.216273" lon="23.585618"><ele>2194.6</ele><time>2026-04-05T07:09:49.000Z</time></trkpt>
<trkpt lat="42.216263" lon="23.585625"><ele>2194.6</ele><time>2026-04-05T07:09:50.000Z</time></trkpt>
<trkpt lat="42.216252" lon="23.585633"><ele>2194.6</ele><time>2026-04-05T07:09:51.000Z</time></trkpt>
<trkpt lat="42.216241" lon="23.58564"><ele>2194.6</ele><time>2026-04-05T07:09:52.000Z</time></trkpt>
<trkpt lat="42.216231" lon="23.585649"><ele>2194.6</ele><time>2026-04-05T07:09:53.000Z</time></trkpt>
<trkpt lat="42.21622" lon="23.585657"><ele>2193.9</ele><time>2026-04-05T07:09:54.000Z</time></trkpt>
<trkpt lat="42.216209" lon="23.585665"><ele>2193.9</ele><time>2026-04-05T07:09:55.000Z</time></trkpt>
<trkpt lat="42.216199" lon="23.585672"><ele>2193.9</ele><time>2026-04-05T07:09:56.000Z</time></trkpt>
<trkpt lat="42.216188" lon="23.585679"><ele>2193.9</ele><time>2026-04-05T07:09:57.000Z</time></trkpt>
<trkpt lat="42.216178" lon="23.585686"><ele>2193.9</ele><time>2026-04-05T07:09:58.000Z</time></trkpt>
<trkpt lat="42.216167" lon="23.585694"><ele>2193.4</ele><time>2026-04-05T07:09:59.000Z</time></trkpt>
<trkpt lat="42.216156" lon="23.585702"><ele>2193.4</ele><time>2026-04-05T07:10:00.000Z</time></trkpt>
<trkpt lat="42.216145" lon="23.58571"><ele>2193.4</ele><time>2026-04-05T07:10:01.000Z</time></trkpt>
<trkpt lat="42.216134" lon="23.585719"><ele>2193.4</ele><time>2026-04-05T07:10:02.000Z</time></trkpt>
<trkpt lat="42.216124" lon="23.585727"><ele>2193.4</ele><time>2026-04-05T07:10:03.000Z</time></trkpt>
<trkpt lat="42.216114" lon="23.585736"><ele>2193.3</ele><time>2026-04-05T07:10:04.000Z</time></trkpt>
<trkpt lat="42.216104" lon="23.585745"><ele>2193.3</ele><time>2026-04-05T07:10:05.000Z</time></trkpt>
<trkpt lat="42.216093" lon="23.585754"><ele>2193.3</ele><time>2026-04-05T07:10:06.000Z</time></trkpt>
<trkpt lat="42.216082" lon="23.585761"><ele>2193.3</ele><time>2026-04-05T07:10:07.000Z</time></trkpt>
<trkpt lat="42.216071" lon="23.585768"><ele>2193.3</ele><time>2026-04-05T07:10:08.000Z</time></trkpt>
<trkpt lat="42.216061" lon="23.585774"><ele>2193.1</ele><time>2026-04-05T07:10:09.000Z</time></trkpt>
<trkpt lat="42.216051" lon="23.585779"><ele>2193.1</ele><time>2026-04-05T07:10:10.000Z</time></trkpt>
<trkpt lat="42.21604" lon="23.585783"><ele>2193.1</ele><time>2026-04-05T07:10:11.000Z</time></trkpt>
<trkpt lat="42.216029" lon="23.585787"><ele>2193.1</ele><time>2026-04-05T07:10:12.000Z</time></trkpt>
<trkpt lat="42.216018" lon="23.585791"><ele>2193.1</ele><time>2026-04-05T07:10:13.000Z</time></trkpt>
<trkpt lat="42.216006" lon="23.585794"><ele>2192.7</ele><time>2026-04-05T07:10:14.000Z</time></trkpt>
<trkpt lat="42.215995" lon="23.585798"><ele>2192.7</ele><time>2026-04-05T07:10:15.000Z</time></trkpt>
<trkpt lat="42.215984" lon="23.585801"><ele>2192.7</ele><time>2026-04-05T07:10:16.000Z</time></trkpt>
<trkpt lat="42.215972" lon="23.585806"><ele>2192.7</ele><time>2026-04-05T07:10:17.000Z</time></trkpt>
<trkpt lat="42.215961" lon="23.585812"><ele>2192.7</ele><time>2026-04-05T07:10:18.000Z</time></trkpt>
<trkpt lat="42.215949" lon="23.585818"><ele>2192.4</ele><time>2026-04-05T07:10:19.000Z</time></trkpt>
<trkpt lat="42.215938" lon="23.585824"><ele>2192.4</ele><time>2026-04-05T07:10:20.000Z</time></trkpt>
<trkpt lat="42.215926" lon="23.58583"><ele>2192.4</ele><time>2026-04-05T07:10:21.000Z</time></trkpt>
<trkpt lat="42.215914" lon="23.585837"><ele>2192.4</ele><time>2026-04-05T07:10:22.000Z</time></trkpt>
<trkpt lat="42.215902" lon="23.585842"><ele>2192.4</ele><time>2026-04-05T07:10:23.000Z</time></trkpt>
<trkpt lat="42.215891" lon="23.585847"><ele>2191.8</ele><time>2026-04-05T07:10:24.000Z</time></trkpt>
<trkpt lat="42.215879" lon="23.585851"><ele>2191.8</ele><time>2026-04-05T07:10:25.000Z</time></trkpt>
<trkpt lat="42.215867" lon="23.585855"><ele>2191.8</ele><time>2026-04-05T07:10:26.000Z</time></trkpt>
<trkpt lat="42.215855" lon="23.585858"><ele>2191.8</ele><time>2026-04-05T07:10:27.000Z</time></trkpt>
<trkpt lat="42.215843" lon="23.585861"><ele>2191.8</ele><time>2026-04-05T07:10:28.000Z</time></trkpt>
<trkpt lat="42.215831" lon="23.585864"><ele>2191.2</ele><time>2026-04-05T07:10:29.000Z</time></trkpt>
<trkpt lat="42.215819" lon="23.585868"><ele>2191.2</ele><time>2026-04-05T07:10:30.000Z</time></trkpt>
<trkpt lat="42.215807" lon="23.585872"><ele>2191.2</ele><time>2026-04-05T07:10:31.000Z</time></trkpt>
<trkpt lat="42.215796" lon="23.585877"><ele>2191.2</ele><time>2026-04-05T07:10:32.000Z</time></trkpt>
<trkpt lat="42.215784" lon="23.585882"><ele>2191.2</ele><time>2026-04-05T07:10:33.000Z</time></trkpt>
<trkpt lat="42.215773" lon="23.585888"><ele>2191</ele><time>2026-04-05T07:10:34.000Z</time></trkpt>
<trkpt lat="42.215762" lon="23.585895"><ele>2191</ele><time>2026-04-05T07:10:35.000Z</time></trkpt>
<trkpt lat="42.215751" lon="23.585902"><ele>2191</ele><time>2026-04-05T07:10:36.000Z</time></trkpt>
<trkpt lat="42.21574" lon="23.585909"><ele>2191</ele><time>2026-04-05T07:10:37.000Z</time></trkpt>
<trkpt lat="42.21573" lon="23.585916"><ele>2191</ele><time>2026-04-05T07:10:38.000Z</time></trkpt>
<trkpt lat="42.215721" lon="23.585922"><ele>2190.4</ele><time>2026-04-05T07:10:39.000Z</time></trkpt>
<trkpt lat="42.215712" lon="23.585928"><ele>2190.4</ele><time>2026-04-05T07:10:40.000Z</time></trkpt>
<trkpt lat="42.215702" lon="23.585933"><ele>2190.4</ele><time>2026-04-05T07:10:41.000Z</time></trkpt>
<trkpt lat="42.215692" lon="23.585938"><ele>2190.4</ele><time>2026-04-05T07:10:42.000Z</time></trkpt>
<trkpt lat="42.215681" lon="23.585944"><ele>2190.4</ele><time>2026-04-05T07:10:43.000Z</time></trkpt>
<trkpt lat="42.21567" lon="23.585949"><ele>2189.8</ele><time>2026-04-05T07:10:44.000Z</time></trkpt>
<trkpt lat="42.215659" lon="23.585954"><ele>2189.8</ele><time>2026-04-05T07:10:45.000Z</time></trkpt>
<trkpt lat="42.215647" lon="23.585959"><ele>2189.8</ele><time>2026-04-05T07:10:46.000Z</time></trkpt>
<trkpt lat="42.215637" lon="23.585964"><ele>2189.8</ele><time>2026-04-05T07:10:47.000Z</time></trkpt>
<trkpt lat="42.215626" lon="23.585969"><ele>2189.8</ele><time>2026-04-05T07:10:48.000Z</time></trkpt>
<trkpt lat="42.215615" lon="23.585975"><ele>2189.4</ele><time>2026-04-05T07:10:49.000Z</time></trkpt>
<trkpt lat="42.215605" lon="23.58598"><ele>2189.4</ele><time>2026-04-05T07:10:50.000Z</time></trkpt>
<trkpt lat="42.215595" lon="23.585987"><ele>2189.4</ele><time>2026-04-05T07:10:51.000Z</time></trkpt>
<trkpt lat="42.215584" lon="23.585994"><ele>2189.4</ele><time>2026-04-05T07:10:52.000Z</time></trkpt>
<trkpt lat="42.215573" lon="23.586"><ele>2189.4</ele><time>2026-04-05T07:10:53.000Z</time></trkpt>
<trkpt lat="42.215561" lon="23.586005"><ele>2188.7</ele><time>2026-04-05T07:10:54.000Z</time></trkpt>
<trkpt lat="42.215549" lon="23.586012"><ele>2188.7</ele><time>2026-04-05T07:10:55.000Z</time></trkpt>
<trkpt lat="42.215537" lon="23.586018"><ele>2188.7</ele><time>2026-04-05T07:10:56.000Z</time></trkpt>
<trkpt lat="42.215525" lon="23.586024"><ele>2188.7</ele><time>2026-04-05T07:10:57.000Z</time></trkpt>
<trkpt lat="42.215514" lon="23.58603"><ele>2188.7</ele><time>2026-04-05T07:10:58.000Z</time></trkpt>
<trkpt lat="42.215503" lon="23.586037"><ele>2188.2</ele><time>2026-04-05T07:10:59.000Z</time></trkpt>
<trkpt lat="42.215493" lon="23.586044"><ele>2188.2</ele><time>2026-04-05T07:11:00.000Z</time></trkpt>
<trkpt lat="42.215482" lon="23.586051"><ele>2188.2</ele><time>2026-04-05T07:11:01.000Z</time></trkpt>
<trkpt lat="42.215472" lon="23.586061"><ele>2188.2</ele><time>2026-04-05T07:11:02.000Z</time></trkpt>
<trkpt lat="42.215462" lon="23.58607"><ele>2188.2</ele><time>2026-04-05T07:11:03.000Z</time></trkpt>
<trkpt lat="42.215452" lon="23.58608"><ele>2188</ele><time>2026-04-05T07:11:04.000Z</time></trkpt>
<trkpt lat="42.215442" lon="23.58609"><ele>2188</ele><time>2026-04-05T07:11:05.000Z</time></trkpt>
<trkpt lat="42.215432" lon="23.586099"><ele>2188</ele><time>2026-04-05T07:11:06.000Z</time></trkpt>
<trkpt lat="42.215421" lon="23.586108"><ele>2188</ele><time>2026-04-05T07:11:07.000Z</time></trkpt>
<trkpt lat="42.215411" lon="23.586116"><ele>2188</ele><time>2026-04-05T07:11:08.000Z</time></trkpt>
<trkpt lat="42.2154" lon="23.586124"><ele>2187.5</ele><time>2026-04-05T07:11:09.000Z</time></trkpt>
<trkpt lat="42.215389" lon="23.58613"><ele>2187.5</ele><time>2026-04-05T07:11:10.000Z</time></trkpt>
<trkpt lat="42.215379" lon="23.586135"><ele>2187.5</ele><time>2026-04-05T07:11:11.000Z</time></trkpt>
<trkpt lat="42.215368" lon="23.586139"><ele>2187.5</ele><time>2026-04-05T07:11:12.000Z</time></trkpt>
<trkpt lat="42.215356" lon="23.586143"><ele>2187.5</ele><time>2026-04-05T07:11:13.000Z</time></trkpt>
<trkpt lat="42.215344" lon="23.586148"><ele>2186.9</ele><time>2026-04-05T07:11:14.000Z</time></trkpt>
<trkpt lat="42.215333" lon="23.586152"><ele>2186.9</ele><time>2026-04-05T07:11:15.000Z</time></trkpt>
<trkpt lat="42.215321" lon="23.586157"><ele>2186.9</ele><time>2026-04-05T07:11:16.000Z</time></trkpt>
<trkpt lat="42.21531" lon="23.58616"><ele>2186.9</ele><time>2026-04-05T07:11:17.000Z</time></trkpt>
<trkpt lat="42.215299" lon="23.586164"><ele>2186.9</ele><time>2026-04-05T07:11:18.000Z</time></trkpt>
<trkpt lat="42.215287" lon="23.586167"><ele>2186.4</ele><time>2026-04-05T07:11:19.000Z</time></trkpt>
<trkpt lat="42.215275" lon="23.586171"><ele>2186.4</ele><time>2026-04-05T07:11:20.000Z</time></trkpt>
<trkpt lat="42.215262" lon="23.586175"><ele>2186.4</ele><time>2026-04-05T07:11:21.000Z</time></trkpt>
<trkpt lat="42.215249" lon="23.586181"><ele>2186.4</ele><time>2026-04-05T07:11:22.000Z</time></trkpt>
<trkpt lat="42.215237" lon="23.586186"><ele>2186.4</ele><time>2026-04-05T07:11:23.000Z</time></trkpt>
<trkpt lat="42.215225" lon="23.586191"><ele>2185.6</ele><time>2026-04-05T07:11:24.000Z</time></trkpt>
<trkpt lat="42.215214" lon="23.586197"><ele>2185.6</ele><time>2026-04-05T07:11:25.000Z</time></trkpt>
<trkpt lat="42.215203" lon="23.586202"><ele>2185.6</ele><time>2026-04-05T07:11:26.000Z</time></trkpt>
<trkpt lat="42.215193" lon="23.586208"><ele>2185.6</ele><time>2026-04-05T07:11:27.000Z</time></trkpt>
<trkpt lat="42.215181" lon="23.586214"><ele>2185.6</ele><time>2026-04-05T07:11:28.000Z</time></trkpt>
<trkpt lat="42.21517" lon="23.586219"><ele>2184.7</ele><time>2026-04-05T07:11:29.000Z</time></trkpt>
<trkpt lat="42.215158" lon="23.586223"><ele>2184.7</ele><time>2026-04-05T07:11:30.000Z</time></trkpt>
<trkpt lat="42.215146" lon="23.586227"><ele>2184.7</ele><time>2026-04-05T07:11:31.000Z</time></trkpt>
<trkpt lat="42.215133" lon="23.586231"><ele>2184.7</ele><time>2026-04-05T07:11:32.000Z</time></trkpt>
<trkpt lat="42.215121" lon="23.586235"><ele>2184.7</ele><time>2026-04-05T07:11:33.000Z</time></trkpt>
<trkpt lat="42.215109" lon="23.586239"><ele>2184.2</ele><time>2026-04-05T07:11:34.000Z</time></trkpt>
<trkpt lat="42.215097" lon="23.586243"><ele>2184.2</ele><time>2026-04-05T07:11:35.000Z</time></trkpt>
<trkpt lat="42.215087" lon="23.586247"><ele>2184.2</ele><time>2026-04-05T07:11:36.000Z</time></trkpt>
<trkpt lat="42.215077" lon="23.586252"><ele>2184.2</ele><time>2026-04-05T07:11:37.000Z</time></trkpt>
<trkpt lat="42.215067" lon="23.586257"><ele>2184.2</ele><time>2026-04-05T07:11:38.000Z</time></trkpt>
<trkpt lat="42.215057" lon="23.586261"><ele>2183</ele><time>2026-04-05T07:11:39.000Z</time></trkpt>
<trkpt lat="42.215047" lon="23.586266"><ele>2183</ele><time>2026-04-05T07:11:40.000Z</time></trkpt>
<trkpt lat="42.215036" lon="23.58627"><ele>2183</ele><time>2026-04-05T07:11:41.000Z</time></trkpt>
<trkpt lat="42.215026" lon="23.586275"><ele>2183</ele><time>2026-04-05T07:11:42.000Z</time></trkpt>
<trkpt lat="42.215015" lon="23.58628"><ele>2183</ele><time>2026-04-05T07:11:43.000Z</time></trkpt>
<trkpt lat="42.215005" lon="23.586283"><ele>2181.6</ele><time>2026-04-05T07:11:44.000Z</time></trkpt>
<trkpt lat="42.214995" lon="23.586287"><ele>2181.6</ele><time>2026-04-05T07:11:45.000Z</time></trkpt>
<trkpt lat="42.214985" lon="23.586291"><ele>2181.6</ele><time>2026-04-05T07:11:46.000Z</time></trkpt>
<trkpt lat="42.214975" lon="23.586295"><ele>2181.6</ele><time>2026-04-05T07:11:47.000Z</time></trkpt>
<trkpt lat="42.214964" lon="23.586298"><ele>2181.6</ele><time>2026-04-05T07:11:48.000Z</time></trkpt>
<trkpt lat="42.214953" lon="23.586303"><ele>2180.9</ele><time>2026-04-05T07:11:49.000Z</time></trkpt>
<trkpt lat="42.21494" lon="23.586307"><ele>2180.9</ele><time>2026-04-05T07:11:50.000Z</time></trkpt>
<trkpt lat="42.214927" lon="23.586312"><ele>2180.9</ele><time>2026-04-05T07:11:51.000Z</time></trkpt>
<trkpt lat="42.214914" lon="23.586317"><ele>2180.9</ele><time>2026-04-05T07:11:52.000Z</time></trkpt>
<trkpt lat="42.214902" lon="23.586323"><ele>2180.9</ele><time>2026-04-05T07:11:53.000Z</time></trkpt>
<trkpt lat="42.21489" lon="23.586328"><ele>2179.5</ele><time>2026-04-05T07:11:54.000Z</time></trkpt>
<trkpt lat="42.21488" lon="23.586333"><ele>2179.5</ele><time>2026-04-05T07:11:55.000Z</time></trkpt>
<trkpt lat="42.214869" lon="23.586339"><ele>2179.5</ele><time>2026-04-05T07:11:56.000Z</time></trkpt>
<trkpt lat="42.214859" lon="23.586344"><ele>2179.5</ele><time>2026-04-05T07:11:57.000Z</time></trkpt>
<trkpt lat="42.214849" lon="23.586349"><ele>2179.5</ele><time>2026-04-05T07:11:58.000Z</time></trkpt>
<trkpt lat="42.214838" lon="23.586354"><ele>2178.3</ele><time>2026-04-05T07:11:59.000Z</time></trkpt>
<trkpt lat="42.214827" lon="23.586358"><ele>2178.3</ele><time>2026-04-05T07:12:00.000Z</time></trkpt>
<trkpt lat="42.214816" lon="23.58636"><ele>2178.3</ele><time>2026-04-05T07:12:01.000Z</time></trkpt>
<trkpt lat="42.214804" lon="23.586362"><ele>2178.3</ele><time>2026-04-05T07:12:02.000Z</time></trkpt>
<trkpt lat="42.214792" lon="23.586364"><ele>2178.3</ele><time>2026-04-05T07:12:03.000Z</time></trkpt>
<trkpt lat="42.21478" lon="23.586366"><ele>2177.8</ele><time>2026-04-05T07:12:04.000Z</time></trkpt>
<trkpt lat="42.214768" lon="23.586368"><ele>2177.8</ele><time>2026-04-05T07:12:05.000Z</time></trkpt>
<trkpt lat="42.214756" lon="23.586371"><ele>2177.8</ele><time>2026-04-05T07:12:06.000Z</time></trkpt>
<trkpt lat="42.214744" lon="23.586374"><ele>2177.8</ele><time>2026-04-05T07:12:07.000Z</time></trkpt>
<trkpt lat="42.214732" lon="23.586377"><ele>2177.8</ele><time>2026-04-05T07:12:08.000Z</time></trkpt>
<trkpt lat="42.214721" lon="23.586381"><ele>2176.7</ele><time>2026-04-05T07:12:09.000Z</time></trkpt>
<trkpt lat="42.214709" lon="23.586385"><ele>2176.7</ele><time>2026-04-05T07:12:10.000Z</time></trkpt>
<trkpt lat="42.214699" lon="23.586391"><ele>2176.7</ele><time>2026-04-05T07:12:11.000Z</time></trkpt>
<trkpt lat="42.214688" lon="23.586396"><ele>2176.7</ele><time>2026-04-05T07:12:12.000Z</time></trkpt>
<trkpt lat="42.214676" lon="23.586401"><ele>2176.7</ele><time>2026-04-05T07:12:13.000Z</time></trkpt>
<trkpt lat="42.214665" lon="23.586405"><ele>2175.6</ele><time>2026-04-05T07:12:14.000Z</time></trkpt>
<trkpt lat="42.214653" lon="23.58641"><ele>2175.6</ele><time>2026-04-05T07:12:15.000Z</time></trkpt>
<trkpt lat="42.214642" lon="23.586413"><ele>2175.6</ele><time>2026-04-05T07:12:16.000Z</time></trkpt>
<trkpt lat="42.214631" lon="23.586417"><ele>2175.6</ele><time>2026-04-05T07:12:17.000Z</time></trkpt>
<trkpt lat="42.21462" lon="23.586422"><ele>2175.6</ele><time>2026-04-05T07:12:18.000Z</time></trkpt>
<trkpt lat="42.21461" lon="23.586426"><ele>2175</ele><time>2026-04-05T07:12:19.000Z</time></trkpt>
<trkpt lat="42.214599" lon="23.586429"><ele>2175</ele><time>2026-04-05T07:12:20.000Z</time></trkpt>
<trkpt lat="42.214588" lon="23.586432"><ele>2175</ele><time>2026-04-05T07:12:21.000Z</time></trkpt>
<trkpt lat="42.214577" lon="23.586436"><ele>2175</ele><time>2026-04-05T07:12:22.000Z</time></trkpt>
<trkpt lat="42.214566" lon="23.586439"><ele>2175</ele><time>2026-04-05T07:12:23.000Z</time></trkpt>
<trkpt lat="42.214554" lon="23.586442"><ele>2173.9</ele><time>2026-04-05T07:12:24.000Z</time></trkpt>
<trkpt lat="42.214543" lon="23.586446"><ele>2173.9</ele><time>2026-04-05T07:12:25.000Z</time></trkpt>
<trkpt lat="42.214531" lon="23.58645"><ele>2173.9</ele><time>2026-04-05T07:12:26.000Z</time></trkpt>
<trkpt lat="42.214519" lon="23.586455"><ele>2173.9</ele><time>2026-04-05T07:12:27.000Z</time></trkpt>
<trkpt lat="42.214508" lon="23.58646"><ele>2173.9</ele><time>2026-04-05T07:12:28.000Z</time></trkpt>
<trkpt lat="42.214496" lon="23.586464"><ele>2172.9</ele><time>2026-04-05T07:12:29.000Z</time></trkpt>
<trkpt lat="42.214485" lon="23.58647"><ele>2172.9</ele><time>2026-04-05T07:12:30.000Z</time></trkpt>
<trkpt lat="42.214474" lon="23.586475"><ele>2172.9</ele><time>2026-04-05T07:12:31.000Z</time></trkpt>
<trkpt lat="42.214462" lon="23.58648"><ele>2172.9</ele><time>2026-04-05T07:12:32.000Z</time></trkpt>
<trkpt lat="42.214451" lon="23.586485"><ele>2172.9</ele><time>2026-04-05T07:12:33.000Z</time></trkpt>
<trkpt lat="42.21444" lon="23.586491"><ele>2172.3</ele><time>2026-04-05T07:12:34.000Z</time></trkpt>
<trkpt lat="42.214429" lon="23.586497"><ele>2172.3</ele><time>2026-04-05T07:12:35.000Z</time></trkpt>
<trkpt lat="42.214419" lon="23.586503"><ele>2172.3</ele><time>2026-04-05T07:12:36.000Z</time></trkpt>
<trkpt lat="42.214408" lon="23.586508"><ele>2172.3</ele><time>2026-04-05T07:12:37.000Z</time></trkpt>
<trkpt lat="42.214398" lon="23.586513"><ele>2172.3</ele><time>2026-04-05T07:12:38.000Z</time></trkpt>
<trkpt lat="42.214388" lon="23.586519"><ele>2171.3</ele><time>2026-04-05T07:12:39.000Z</time></trkpt>
<trkpt lat="42.214377" lon="23.586526"><ele>2171.3</ele><time>2026-04-05T07:12:40.000Z</time></trkpt>
<trkpt lat="42.214366" lon="23.586533"><ele>2171.3</ele><time>2026-04-05T07:12:41.000Z</time></trkpt>
<trkpt lat="42.214355" lon="23.586541"><ele>2171.3</ele><time>2026-04-05T07:12:42.000Z</time></trkpt>
<trkpt lat="42.214343" lon="23.586548"><ele>2171.3</ele><time>2026-04-05T07:12:43.000Z</time></trkpt>
<trkpt lat="42.214331" lon="23.586555"><ele>2170.1</ele><time>2026-04-05T07:12:44.000Z</time></trkpt>
<trkpt lat="42.214321" lon="23.586562"><ele>2170.1</ele><time>2026-04-05T07:12:45.000Z</time></trkpt>
<trkpt lat="42.214311" lon="23.586569"><ele>2170.1</ele><time>2026-04-05T07:12:46.000Z</time></trkpt>
<trkpt lat="42.214302" lon="23.586576"><ele>2170.1</ele><time>2026-04-05T07:12:47.000Z</time></trkpt>
<trkpt lat="42.214292" lon="23.586584"><ele>2170.1</ele><time>2026-04-05T07:12:48.000Z</time></trkpt>
<trkpt lat="42.214282" lon="23.586591"><ele>2169.5</ele><time>2026-04-05T07:12:49.000Z</time></trkpt>
<trkpt lat="42.214272" lon="23.586599"><ele>2169.5</ele><time>2026-04-05T07:12:50.000Z</time></trkpt>
<trkpt lat="42.214261" lon="23.586605"><ele>2169.5</ele><time>2026-04-05T07:12:51.000Z</time></trkpt>
<trkpt lat="42.214249" lon="23.586612"><ele>2169.5</ele><time>2026-04-05T07:12:52.000Z</time></trkpt>
<trkpt lat="42.214238" lon="23.586618"><ele>2169.5</ele><time>2026-04-05T07:12:53.000Z</time></trkpt>
<trkpt lat="42.214227" lon="23.586626"><ele>2168.2</ele><time>2026-04-05T07:12:54.000Z</time></trkpt>
<trkpt lat="42.214216" lon="23.586634"><ele>2168.2</ele><time>2026-04-05T07:12:55.000Z</time></trkpt>
<trkpt lat="42.214206" lon="23.586642"><ele>2168.2</ele><time>2026-04-05T07:12:56.000Z</time></trkpt>
<trkpt lat="42.214195" lon="23.58665"><ele>2168.2</ele><time>2026-04-05T07:12:57.000Z</time></trkpt>
<trkpt lat="42.214185" lon="23.586659"><ele>2168.2</ele><time>2026-04-05T07:12:58.000Z</time></trkpt>
<trkpt lat="42.214174" lon="23.586668"><ele>2167</ele><time>2026-04-05T07:12:59.000Z</time></trkpt>
<trkpt lat="42.214164" lon="23.586676"><ele>2167</ele><time>2026-04-05T07:13:00.000Z</time></trkpt>
<trkpt lat="42.214153" lon="23.586685"><ele>2167</ele><time>2026-04-05T07:13:01.000Z</time></trkpt>
<trkpt lat="42.214144" lon="23.586692"><ele>2167</ele><time>2026-04-05T07:13:02.000Z</time></trkpt>
<trkpt lat="42.214134" lon="23.586699"><ele>2167</ele><time>2026-04-05T07:13:03.000Z</time></trkpt>
<trkpt lat="42.214123" lon="23.586707"><ele>2166.3</ele><time>2026-04-05T07:13:04.000Z</time></trkpt>
<trkpt lat="42.214113" lon="23.586714"><ele>2166.3</ele><time>2026-04-05T07:13:05.000Z</time></trkpt>
<trkpt lat="42.214103" lon="23.586722"><ele>2166.3</ele><time>2026-04-05T07:13:06.000Z</time></trkpt>
<trkpt lat="42.214092" lon="23.586729"><ele>2166.3</ele><time>2026-04-05T07:13:07.000Z</time></trkpt>
<trkpt lat="42.214082" lon="23.586735"><ele>2166.3</ele><time>2026-04-05T07:13:08.000Z</time></trkpt>
<trkpt lat="42.214073" lon="23.586741"><ele>2165.2</ele><time>2026-04-05T07:13:09.000Z</time></trkpt>
<trkpt lat="42.214064" lon="23.586748"><ele>2165.2</ele><time>2026-04-05T07:13:10.000Z</time></trkpt>
<trkpt lat="42.214054" lon="23.586755"><ele>2165.2</ele><time>2026-04-05T07:13:11.000Z</time></trkpt>
<trkpt lat="42.214045" lon="23.586764"><ele>2165.2</ele><time>2026-04-05T07:13:12.000Z</time></trkpt>
<trkpt lat="42.214035" lon="23.586773"><ele>2165.2</ele><time>2026-04-05T07:13:13.000Z</time></trkpt>
<trkpt lat="42.214026" lon="23.586784"><ele>2164.4</ele><time>2026-04-05T07:13:14.000Z</time></trkpt>
<trkpt lat="42.214017" lon="23.586794"><ele>2164.4</ele><time>2026-04-05T07:13:15.000Z</time></trkpt>
<trkpt lat="42.214009" lon="23.586804"><ele>2164.4</ele><time>2026-04-05T07:13:16.000Z</time></trkpt>
<trkpt lat="42.214001" lon="23.586815"><ele>2164.4</ele><time>2026-04-05T07:13:17.000Z</time></trkpt>
<trkpt lat="42.213993" lon="23.586824"><ele>2164.4</ele><time>2026-04-05T07:13:18.000Z</time></trkpt>
<trkpt lat="42.213985" lon="23.586834"><ele>2164</ele><time>2026-04-05T07:13:19.000Z</time></trkpt>
<trkpt lat="42.213977" lon="23.586844"><ele>2164</ele><time>2026-04-05T07:13:20.000Z</time></trkpt>
<trkpt lat="42.213968" lon="23.586855"><ele>2164</ele><time>2026-04-05T07:13:21.000Z</time></trkpt>
<trkpt lat="42.21396" lon="23.586867"><ele>2164</ele><time>2026-04-05T07:13:22.000Z</time></trkpt>
<trkpt lat="42.213951" lon="23.58688"><ele>2164</ele><time>2026-04-05T07:13:23.000Z</time></trkpt>
<trkpt lat="42.213942" lon="23.586892"><ele>2163.4</ele><time>2026-04-05T07:13:24.000Z</time></trkpt>
<trkpt lat="42.213933" lon="23.586906"><ele>2163.4</ele><time>2026-04-05T07:13:25.000Z</time></trkpt>
<trkpt lat="42.213923" lon="23.586919"><ele>2163.4</ele><time>2026-04-05T07:13:26.000Z</time></trkpt>
<trkpt lat="42.213914" lon="23.586933"><ele>2163.4</ele><time>2026-04-05T07:13:27.000Z</time></trkpt>
<trkpt lat="42.213905" lon="23.586947"><ele>2163.4</ele><time>2026-04-05T07:13:28.000Z</time></trkpt>
<trkpt lat="42.213896" lon="23.586961"><ele>2162.7</ele><time>2026-04-05T07:13:29.000Z</time></trkpt>
<trkpt lat="42.213889" lon="23.586974"><ele>2162.7</ele><time>2026-04-05T07:13:30.000Z</time></trkpt>
<trkpt lat="42.213881" lon="23.586986"><ele>2162.7</ele><time>2026-04-05T07:13:31.000Z</time></trkpt>
<trkpt lat="42.213874" lon="23.586998"><ele>2162.7</ele><time>2026-04-05T07:13:32.000Z</time></trkpt>
<trkpt lat="42.213867" lon="23.58701"><ele>2162.7</ele><time>2026-04-05T07:13:33.000Z</time></trkpt>
<trkpt lat="42.213861" lon="23.587023"><ele>2162.3</ele><time>2026-04-05T07:13:34.000Z</time></trkpt>
<trkpt lat="42.213855" lon="23.587035"><ele>2162.3</ele><time>2026-04-05T07:13:35.000Z</time></trkpt>
<trkpt lat="42.213849" lon="23.587048"><ele>2162.3</ele><time>2026-04-05T07:13:36.000Z</time></trkpt>
<trkpt lat="42.213843" lon="23.587061"><ele>2162.3</ele><time>2026-04-05T07:13:37.000Z</time></trkpt>
<trkpt lat="42.213837" lon="23.587073"><ele>2162.3</ele><time>2026-04-05T07:13:38.000Z</time></trkpt>
<trkpt lat="42.21383" lon="23.587084"><ele>2161.7</ele><time>2026-04-05T07:13:39.000Z</time></trkpt>
<trkpt lat="42.213824" lon="23.587095"><ele>2161.7</ele><time>2026-04-05T07:13:40.000Z</time></trkpt>
<trkpt lat="42.213818" lon="23.587104"><ele>2161.7</ele><time>2026-04-05T07:13:41.000Z</time></trkpt>
<trkpt lat="42.213812" lon="23.587112"><ele>2161.7</ele><time>2026-04-05T07:13:42.000Z</time></trkpt>
<trkpt lat="42.213805" lon="23.587119"><ele>2161.7</ele><time>2026-04-05T07:13:43.000Z</time></trkpt>
<trkpt lat="42.213799" lon="23.587125"><ele>2161.3</ele><time>2026-04-05T07:13:44.000Z</time></trkpt>
<trkpt lat="42.213791" lon="23.58713"><ele>2161.3</ele><time>2026-04-05T07:13:45.000Z</time></trkpt>
<trkpt lat="42.213785" lon="23.587136"><ele>2161.3</ele><time>2026-04-05T07:13:46.000Z</time></trkpt>
<trkpt lat="42.213779" lon="23.587143"><ele>2161.3</ele><time>2026-04-05T07:13:47.000Z</time></trkpt>
<trkpt lat="42.213772" lon="23.587151"><ele>2161.3</ele><time>2026-04-05T07:13:48.000Z</time></trkpt>
<trkpt lat="42.213765" lon="23.58716"><ele>2161.4</ele><time>2026-04-05T07:13:49.000Z</time></trkpt>
<trkpt lat="42.213758" lon="23.587171"><ele>2161.4</ele><time>2026-04-05T07:13:50.000Z</time></trkpt>
<trkpt lat="42.213749" lon="23.587182"><ele>2161.4</ele><time>2026-04-05T07:13:51.000Z</time></trkpt>
<trkpt lat="42.21374" lon="23.587193"><ele>2161.4</ele><time>2026-04-05T07:13:52.000Z</time></trkpt>
<trkpt lat="42.213732" lon="23.587203"><ele>2161.4</ele><time>2026-04-05T07:13:53.000Z</time></trkpt>
<trkpt lat="42.213726" lon="23.587211"><ele>2161.7</ele><time>2026-04-05T07:13:54.000Z</time></trkpt>
<trkpt lat="42.213719" lon="23.587218"><ele>2161.7</ele><time>2026-04-05T07:13:55.000Z</time></trkpt>
<trkpt lat="42.213713" lon="23.587225"><ele>2161.7</ele><time>2026-04-05T07:13:56.000Z</time></trkpt>
<trkpt lat="42.213707" lon="23.587232"><ele>2161.7</ele><time>2026-04-05T07:13:57.000Z</time></trkpt>
<trkpt lat="42.213701" lon="23.58724"><ele>2161.7</ele><time>2026-04-05T07:13:58.000Z</time></trkpt>
<trkpt lat="42.213695" lon="23.587249"><ele>2162</ele><time>2026-04-05T07:13:59.000Z</time></trkpt>
<trkpt lat="42.213688" lon="23.587258"><ele>2162</ele><time>2026-04-05T07:14:00.000Z</time></trkpt>
<trkpt lat="42.213682" lon="23.587267"><ele>2162</ele><time>2026-04-05T07:14:01.000Z</time></trkpt>
<trkpt lat="42.213676" lon="23.587276"><ele>2162</ele><time>2026-04-05T07:14:02.000Z</time></trkpt>
<trkpt lat="42.213669" lon="23.587285"><ele>2162</ele><time>2026-04-05T07:14:03.000Z</time></trkpt>
<trkpt lat="42.213662" lon="23.587293"><ele>2162.2</ele><time>2026-04-05T07:14:04.000Z</time></trkpt>
<trkpt lat="42.213655" lon="23.587302"><ele>2162.2</ele><time>2026-04-05T07:14:05.000Z</time></trkpt>
<trkpt lat="42.213647" lon="23.58731"><ele>2162.2</ele><time>2026-04-05T07:14:06.000Z</time></trkpt>
<trkpt lat="42.213638" lon="23.587319"><ele>2162.2</ele><time>2026-04-05T07:14:07.000Z</time></trkpt>
<trkpt lat="42.21363" lon="23.587327"><ele>2162.2</ele><time>2026-04-05T07:14:08.000Z</time></trkpt>
<trkpt lat="42.213622" lon="23.587336"><ele>2162.5</ele><time>2026-04-05T07:14:09.000Z</time></trkpt>
<trkpt lat="42.213613" lon="23.587345"><ele>2162.5</ele><time>2026-04-05T07:14:10.000Z</time></trkpt>
<trkpt lat="42.213605" lon="23.587353"><ele>2162.5</ele><time>2026-04-05T07:14:11.000Z</time></trkpt>
<trkpt lat="42.213596" lon="23.58736"><ele>2162.5</ele><time>2026-04-05T07:14:12.000Z</time></trkpt>
<trkpt lat="42.213586" lon="23.587366"><ele>2162.5</ele><time>2026-04-05T07:14:13.000Z</time></trkpt>
<trkpt lat="42.213575" lon="23.587372"><ele>2163.1</ele><time>2026-04-05T07:14:14.000Z</time></trkpt>
<trkpt lat="42.213563" lon="23.587377"><ele>2163.1</ele><time>2026-04-05T07:14:15.000Z</time></trkpt>
<trkpt lat="42.21355" lon="23.587381"><ele>2163.1</ele><time>2026-04-05T07:14:16.000Z</time></trkpt>
<trkpt lat="42.213537" lon="23.587383"><ele>2163.1</ele><time>2026-04-05T07:14:17.000Z</time></trkpt>
<trkpt lat="42.213523" lon="23.587384"><ele>2163.1</ele><time>2026-04-05T07:14:18.000Z</time></trkpt>
<trkpt lat="42.21351" lon="23.587385"><ele>2163.4</ele><time>2026-04-05T07:14:19.000Z</time></trkpt>
<trkpt lat="42.213497" lon="23.587385"><ele>2163.4</ele><time>2026-04-05T07:14:20.000Z</time></trkpt>
<trkpt lat="42.213483" lon="23.587385"><ele>2163.4</ele><time>2026-04-05T07:14:21.000Z</time></trkpt>
<trkpt lat="42.21347" lon="23.587383"><ele>2163.4</ele><time>2026-04-05T07:14:22.000Z</time></trkpt>
<trkpt lat="42.213457" lon="23.587382"><ele>2163.4</ele><time>2026-04-05T07:14:23.000Z</time></trkpt>
<trkpt lat="42.213445" lon="23.587381"><ele>2163.7</ele><time>2026-04-05T07:14:24.000Z</time></trkpt>
<trkpt lat="42.213433" lon="23.58738"><ele>2163.7</ele><time>2026-04-05T07:14:25.000Z</time></trkpt>
<trkpt lat="42.213421" lon="23.58738"><ele>2163.7</ele><time>2026-04-05T07:14:26.000Z</time></trkpt>
<trkpt lat="42.213409" lon="23.58738"><ele>2163.7</ele><time>2026-04-05T07:14:27.000Z</time></trkpt>
<trkpt lat="42.213397" lon="23.587378"><ele>2163.7</ele><time>2026-04-05T07:14:28.000Z</time></trkpt>
<trkpt lat="42.213384" lon="23.587377"><ele>2163.8</ele><time>2026-04-05T07:14:29.000Z</time></trkpt>
<trkpt lat="42.213372" lon="23.587375"><ele>2163.8</ele><time>2026-04-05T07:14:30.000Z</time></trkpt>
<trkpt lat="42.213361" lon="23.587374"><ele>2163.8</ele><time>2026-04-05T07:14:31.000Z</time></trkpt>
<trkpt lat="42.21335" lon="23.587372"><ele>2163.8</ele><time>2026-04-05T07:14:32.000Z</time></trkpt>
<trkpt lat="42.21334" lon="23.587372"><ele>2163.8</ele><time>2026-04-05T07:14:33.000Z</time></trkpt>
<trkpt lat="42.21333" lon="23.587371"><ele>2164</ele><time>2026-04-05T07:14:34.000Z</time></trkpt>
<trkpt lat="42.21332" lon="23.58737"><ele>2164</ele><time>2026-04-05T07:14:35.000Z</time></trkpt>
<trkpt lat="42.213309" lon="23.58737"><ele>2164</ele><time>2026-04-05T07:14:36.000Z</time></trkpt>
<trkpt lat="42.213299" lon="23.587368"><ele>2164</ele><time>2026-04-05T07:14:37.000Z</time></trkpt>
<trkpt lat="42.213289" lon="23.587366"><ele>2164</ele><time>2026-04-05T07:14:38.000Z</time></trkpt>
<trkpt lat="42.213278" lon="23.587364"><ele>2164.4</ele><time>2026-04-05T07:14:39.000Z</time></trkpt>
<trkpt lat="42.213268" lon="23.587362"><ele>2164.4</ele><time>2026-04-05T07:14:40.000Z</time></trkpt>
<trkpt lat="42.213256" lon="23.58736"><ele>2164.4</ele><time>2026-04-05T07:14:41.000Z</time></trkpt>
<trkpt lat="42.213244" lon="23.587358"><ele>2164.4</ele><time>2026-04-05T07:14:42.000Z</time></trkpt>
<trkpt lat="42.213231" lon="23.587356"><ele>2164.4</ele><time>2026-04-05T07:14:43.000Z</time></trkpt>
<trkpt lat="42.213219" lon="23.587354"><ele>2164.9</ele><time>2026-04-05T07:14:44.000Z</time></trkpt>
<trkpt lat="42.213207" lon="23.587353"><ele>2164.9</ele><time>2026-04-05T07:14:45.000Z</time></trkpt>
<trkpt lat="42.213195" lon="23.587352"><ele>2164.9</ele><time>2026-04-05T07:14:46.000Z</time></trkpt>
<trkpt lat="42.213183" lon="23.58735"><ele>2164.9</ele><time>2026-04-05T07:14:47.000Z</time></trkpt>
<trkpt lat="42.213171" lon="23.587349"><ele>2164.9</ele><time>2026-04-05T07:14:48.000Z</time></trkpt>
<trkpt lat="42.213159" lon="23.587348"><ele>2165.1</ele><time>2026-04-05T07:14:49.000Z</time></trkpt>
<trkpt lat="42.213146" lon="23.587346"><ele>2165.1</ele><time>2026-04-05T07:14:50.000Z</time></trkpt>
<trkpt lat="42.213134" lon="23.587345"><ele>2165.1</ele><time>2026-04-05T07:14:51.000Z</time></trkpt>
<trkpt lat="42.213123" lon="23.587343"><ele>2165.1</ele><time>2026-04-05T07:14:52.000Z</time></trkpt>
<trkpt lat="42.213112" lon="23.587341"><ele>2165.1</ele><time>2026-04-05T07:14:53.000Z</time></trkpt>
<trkpt lat="42.213102" lon="23.587336"><ele>2165.5</ele><time>2026-04-05T07:14:54.000Z</time></trkpt>
<trkpt lat="42.213092" lon="23.587331"><ele>2165.5</ele><time>2026-04-05T07:14:55.000Z</time></trkpt>
<trkpt lat="42.213082" lon="23.587327"><ele>2165.5</ele><time>2026-04-05T07:14:56.000Z</time></trkpt>
<trkpt lat="42.213073" lon="23.587322"><ele>2165.5</ele><time>2026-04-05T07:14:57.000Z</time></trkpt>
<trkpt lat="42.213063" lon="23.587318"><ele>2165.5</ele><time>2026-04-05T07:14:58.000Z</time></trkpt>
<trkpt lat="42.213054" lon="23.587314"><ele>2165.9</ele><time>2026-04-05T07:14:59.000Z</time></trkpt>
<trkpt lat="42.213046" lon="23.58731"><ele>2165.9</ele><time>2026-04-05T07:15:00.000Z</time></trkpt>
<trkpt lat="42.213038" lon="23.587306"><ele>2165.9</ele><time>2026-04-05T07:15:01.000Z</time></trkpt>
<trkpt lat="42.21303" lon="23.587301"><ele>2165.9</ele><time>2026-04-05T07:15:02.000Z</time></trkpt>
<trkpt lat="42.213022" lon="23.587295"><ele>2165.9</ele><time>2026-04-05T07:15:03.000Z</time></trkpt>
<trkpt lat="42.213013" lon="23.58729"><ele>2166.2</ele><time>2026-04-05T07:15:04.000Z</time></trkpt>
<trkpt lat="42.213003" lon="23.587286"><ele>2166.2</ele><time>2026-04-05T07:15:05.000Z</time></trkpt>
<trkpt lat="42.212993" lon="23.587281"><ele>2166.2</ele><time>2026-04-05T07:15:06.000Z</time></trkpt>
<trkpt lat="42.212984" lon="23.587276"><ele>2166.2</ele><time>2026-04-05T07:15:07.000Z</time></trkpt>
<trkpt lat="42.212975" lon="23.587271"><ele>2166.2</ele><time>2026-04-05T07:15:08.000Z</time></trkpt>
<trkpt lat="42.212966" lon="23.587266"><ele>2166.7</ele><time>2026-04-05T07:15:09.000Z</time></trkpt>
<trkpt lat="42.212958" lon="23.587261"><ele>2166.7</ele><time>2026-04-05T07:15:10.000Z</time></trkpt>
<trkpt lat="42.21295" lon="23.587256"><ele>2166.7</ele><time>2026-04-05T07:15:11.000Z</time></trkpt>
<trkpt lat="42.212941" lon="23.587251"><ele>2166.7</ele><time>2026-04-05T07:15:12.000Z</time></trkpt>
<trkpt lat="42.212933" lon="23.587248"><ele>2166.7</ele><time>2026-04-05T07:15:13.000Z</time></trkpt>
<trkpt lat="42.212926" lon="23.587245"><ele>2167.5</ele><time>2026-04-05T07:15:14.000Z</time></trkpt>
<trkpt lat="42.212919" lon="23.587243"><ele>2167.5</ele><time>2026-04-05T07:15:15.000Z</time></trkpt>
<trkpt lat="42.21291" lon="23.58724"><ele>2167.5</ele><time>2026-04-05T07:15:16.000Z</time></trkpt>
<trkpt lat="42.212901" lon="23.587238"><ele>2167.5</ele><time>2026-04-05T07:15:17.000Z</time></trkpt>
<trkpt lat="42.212892" lon="23.587233"><ele>2167.5</ele><time>2026-04-05T07:15:18.000Z</time></trkpt>
<trkpt lat="42.212883" lon="23.587228"><ele>2167.9</ele><time>2026-04-05T07:15:19.000Z</time></trkpt>
<trkpt lat="42.212873" lon="23.587223"><ele>2167.9</ele><time>2026-04-05T07:15:20.000Z</time></trkpt>
<trkpt lat="42.212865" lon="23.587217"><ele>2167.9</ele><time>2026-04-05T07:15:21.000Z</time></trkpt>
<trkpt lat="42.212857" lon="23.587211"><ele>2167.9</ele><time>2026-04-05T07:15:22.000Z</time></trkpt>
<trkpt lat="42.212849" lon="23.587205"><ele>2167.9</ele><time>2026-04-05T07:15:23.000Z</time></trkpt>
<trkpt lat="42.212841" lon="23.587202"><ele>2168.8</ele><time>2026-04-05T07:15:24.000Z</time></trkpt>
<trkpt lat="42.212832" lon="23.587198"><ele>2168.8</ele><time>2026-04-05T07:15:25.000Z</time></trkpt>
<trkpt lat="42.212823" lon="23.587195"><ele>2168.8</ele><time>2026-04-05T07:15:26.000Z</time></trkpt>
<trkpt lat="42.212814" lon="23.587191"><ele>2168.8</ele><time>2026-04-05T07:15:27.000Z</time></trkpt>
<trkpt lat="42.212805" lon="23.587187"><ele>2168.8</ele><time>2026-04-05T07:15:28.000Z</time></trkpt>
<trkpt lat="42.212797" lon="23.587181"><ele>2169.6</ele><time>2026-04-05T07:15:29.000Z</time></trkpt>
<trkpt lat="42.212789" lon="23.587175"><ele>2169.6</ele><time>2026-04-05T07:15:30.000Z</time></trkpt>
<trkpt lat="42.212781" lon="23.587169"><ele>2169.6</ele><time>2026-04-05T07:15:31.000Z</time></trkpt>
<trkpt lat="42.212774" lon="23.587163"><ele>2169.6</ele><time>2026-04-05T07:15:32.000Z</time></trkpt>
<trkpt lat="42.212767" lon="23.587158"><ele>2169.6</ele><time>2026-04-05T07:15:33.000Z</time></trkpt>
<trkpt lat="42.212761" lon="23.587153"><ele>2170</ele><time>2026-04-05T07:15:34.000Z</time></trkpt>
<trkpt lat="42.212755" lon="23.587147"><ele>2170</ele><time>2026-04-05T07:15:35.000Z</time></trkpt>
<trkpt lat="42.212748" lon="23.587141"><ele>2170</ele><time>2026-04-05T07:15:36.000Z</time></trkpt>
<trkpt lat="42.212741" lon="23.587135"><ele>2170</ele><time>2026-04-05T07:15:37.000Z</time></trkpt>
<trkpt lat="42.212733" lon="23.587128"><ele>2170</ele><time>2026-04-05T07:15:38.000Z</time></trkpt>
<trkpt lat="42.212724" lon="23.587122"><ele>2171</ele><time>2026-04-05T07:15:39.000Z</time></trkpt>
<trkpt lat="42.212716" lon="23.587117"><ele>2171</ele><time>2026-04-05T07:15:40.000Z</time></trkpt>
<trkpt lat="42.212706" lon="23.587111"><ele>2171</ele><time>2026-04-05T07:15:41.000Z</time></trkpt>
<trkpt lat="42.212696" lon="23.587107"><ele>2171</ele><time>2026-04-05T07:15:42.000Z</time></trkpt>
<trkpt lat="42.212686" lon="23.587103"><ele>2171</ele><time>2026-04-05T07:15:43.000Z</time></trkpt>
<trkpt lat="42.212677" lon="23.587099"><ele>2172</ele><time>2026-04-05T07:15:44.000Z</time></trkpt>
<trkpt lat="42.212668" lon="23.587094"><ele>2172</ele><time>2026-04-05T07:15:45.000Z</time></trkpt>
<trkpt lat="42.21266" lon="23.58709"><ele>2172</ele><time>2026-04-05T07:15:46.000Z</time></trkpt>
<trkpt lat="42.212652" lon="23.587085"><ele>2172</ele><time>2026-04-05T07:15:47.000Z</time></trkpt>
<trkpt lat="42.212644" lon="23.58708"><ele>2172</ele><time>2026-04-05T07:15:48.000Z</time></trkpt>
<trkpt lat="42.212635" lon="23.587076"><ele>2172.5</ele><time>2026-04-05T07:15:49.000Z</time></trkpt>
<trkpt lat="42.212627" lon="23.587072"><ele>2172.5</ele><time>2026-04-05T07:15:50.000Z</time></trkpt>
<trkpt lat="42.212618" lon="23.587069"><ele>2172.5</ele><time>2026-04-05T07:15:51.000Z</time></trkpt>
<trkpt lat="42.21261" lon="23.587067"><ele>2172.5</ele><time>2026-04-05T07:15:52.000Z</time></trkpt>
<trkpt lat="42.212601" lon="23.587065"><ele>2172.5</ele><time>2026-04-05T07:15:53.000Z</time></trkpt>
<trkpt lat="42.212592" lon="23.587062"><ele>2173.4</ele><time>2026-04-05T07:15:54.000Z</time></trkpt>
<trkpt lat="42.212584" lon="23.587059"><ele>2173.4</ele><time>2026-04-05T07:15:55.000Z</time></trkpt>
<trkpt lat="42.212576" lon="23.587055"><ele>2173.4</ele><time>2026-04-05T07:15:56.000Z</time></trkpt>
<trkpt lat="42.212568" lon="23.587052"><ele>2173.4</ele><time>2026-04-05T07:15:57.000Z</time></trkpt>
<trkpt lat="42.212561" lon="23.587048"><ele>2173.4</ele><time>2026-04-05T07:15:58.000Z</time></trkpt>
<trkpt lat="42.212553" lon="23.587044"><ele>2174</ele><time>2026-04-05T07:15:59.000Z</time></trkpt>
<trkpt lat="42.212545" lon="23.58704"><ele>2174</ele><time>2026-04-05T07:16:00.000Z</time></trkpt>
<trkpt lat="42.212537" lon="23.587037"><ele>2174</ele><time>2026-04-05T07:16:01.000Z</time></trkpt>
<trkpt lat="42.212528" lon="23.587033"><ele>2174</ele><time>2026-04-05T07:16:02.000Z</time></trkpt>
<trkpt lat="42.212518" lon="23.587029"><ele>2174</ele><time>2026-04-05T07:16:03.000Z</time></trkpt>
<trkpt lat="42.212508" lon="23.587025"><ele>2174.2</ele><time>2026-04-05T07:16:04.000Z</time></trkpt>
<trkpt lat="42.212498" lon="23.587022"><ele>2174.2</ele><time>2026-04-05T07:16:05.000Z</time></trkpt>
<trkpt lat="42.212488" lon="23.587019"><ele>2174.2</ele><time>2026-04-05T07:16:06.000Z</time></trkpt>
<trkpt lat="42.212477" lon="23.587016"><ele>2174.2</ele><time>2026-04-05T07:16:07.000Z</time></trkpt>
<trkpt lat="42.212468" lon="23.587014"><ele>2174.2</ele><time>2026-04-05T07:16:08.000Z</time></trkpt>
<trkpt lat="42.21246" lon="23.587011"><ele>2174.6</ele><time>2026-04-05T07:16:09.000Z</time></trkpt>
<trkpt lat="42.212454" lon="23.58701"><ele>2174.6</ele><time>2026-04-05T07:16:10.000Z</time></trkpt>
<trkpt lat="42.212447" lon="23.58701"><ele>2174.6</ele><time>2026-04-05T07:16:11.000Z</time></trkpt>
<trkpt lat="42.21244" lon="23.587011"><ele>2174.6</ele><time>2026-04-05T07:16:12.000Z</time></trkpt>
<trkpt lat="42.212433" lon="23.587011"><ele>2174.6</ele><time>2026-04-05T07:16:13.000Z</time></trkpt>
<trkpt lat="42.212424" lon="23.587012"><ele>2175.3</ele><time>2026-04-05T07:16:14.000Z</time></trkpt>
<trkpt lat="42.212415" lon="23.587012"><ele>2175.3</ele><time>2026-04-05T07:16:15.000Z</time></trkpt>
<trkpt lat="42.212406" lon="23.587011"><ele>2175.3</ele><time>2026-04-05T07:16:16.000Z</time></trkpt>
<trkpt lat="42.212396" lon="23.587008"><ele>2175.3</ele><time>2026-04-05T07:16:17.000Z</time></trkpt>
<trkpt lat="42.212386" lon="23.587006"><ele>2175.3</ele><time>2026-04-05T07:16:18.000Z</time></trkpt>
<trkpt lat="42.212376" lon="23.587003"><ele>2175.6</ele><time>2026-04-05T07:16:19.000Z</time></trkpt>
<trkpt lat="42.212366" lon="23.587"><ele>2175.6</ele><time>2026-04-05T07:16:20.000Z</time></trkpt>
<trkpt lat="42.212357" lon="23.586998"><ele>2175.6</ele><time>2026-04-05T07:16:21.000Z</time></trkpt>
<trkpt lat="42.212347" lon="23.586996"><ele>2175.6</ele><time>2026-04-05T07:16:22.000Z</time></trkpt>
<trkpt lat="42.212337" lon="23.586995"><ele>2175.6</ele><time>2026-04-05T07:16:23.000Z</time></trkpt>
<trkpt lat="42.212328" lon="23.586994"><ele>2176.3</ele><time>2026-04-05T07:16:24.000Z</time></trkpt>
<trkpt lat="42.212319" lon="23.586993"><ele>2176.3</ele><time>2026-04-05T07:16:25.000Z</time></trkpt>
<trkpt lat="42.212309" lon="23.586992"><ele>2176.3</ele><time>2026-04-05T07:16:26.000Z</time></trkpt>
<trkpt lat="42.2123" lon="23.586992"><ele>2176.3</ele><time>2026-04-05T07:16:27.000Z</time></trkpt>
<trkpt lat="42.212291" lon="23.586992"><ele>2176.3</ele><time>2026-04-05T07:16:28.000Z</time></trkpt>
<trkpt lat="42.212282" lon="23.586993"><ele>2176.9</ele><time>2026-04-05T07:16:29.000Z</time></trkpt>
<trkpt lat="42.212273" lon="23.586994"><ele>2176.9</ele><time>2026-04-05T07:16:30.000Z</time></trkpt>
<trkpt lat="42.212264" lon="23.586995"><ele>2176.9</ele><time>2026-04-05T07:16:31.000Z</time></trkpt>
<trkpt lat="42.212256" lon="23.586996"><ele>2176.9</ele><time>2026-04-05T07:16:32.000Z</time></trkpt>
<trkpt lat="42.212248" lon="23.586995"><ele>2176.9</ele><time>2026-04-05T07:16:33.000Z</time></trkpt>
<trkpt lat="42.212239" lon="23.586995"><ele>2177.2</ele><time>2026-04-05T07:16:34.000Z</time></trkpt>
<trkpt lat="42.212231" lon="23.586995"><ele>2177.2</ele><time>2026-04-05T07:16:35.000Z</time></trkpt>
<trkpt lat="42.212222" lon="23.586994"><ele>2177.2</ele><time>2026-04-05T07:16:36.000Z</time></trkpt>
<trkpt lat="42.212214" lon="23.586994"><ele>2177.2</ele><time>2026-04-05T07:16:37.000Z</time></trkpt>
<trkpt lat="42.212204" lon="23.586994"><ele>2177.2</ele><time>2026-04-05T07:16:38.000Z</time></trkpt>
<trkpt lat="42.212196" lon="23.586994"><ele>2177.9</ele><time>2026-04-05T07:16:39.000Z</time></trkpt>
<trkpt lat="42.212188" lon="23.586996"><ele>2177.9</ele><time>2026-04-05T07:16:40.000Z</time></trkpt>
<trkpt lat="42.212182" lon="23.586998"><ele>2177.9</ele><time>2026-04-05T07:16:41.000Z</time></trkpt>
<trkpt lat="42.212175" lon="23.586999"><ele>2177.9</ele><time>2026-04-05T07:16:42.000Z</time></trkpt>
<trkpt lat="42.212168" lon="23.587"><ele>2177.9</ele><time>2026-04-05T07:16:43.000Z</time></trkpt>
<trkpt lat="42.212161" lon="23.587001"><ele>2178.8</ele><time>2026-04-05T07:16:44.000Z</time></trkpt>
<trkpt lat="42.212154" lon="23.587001"><ele>2178.8</ele><time>2026-04-05T07:16:45.000Z</time></trkpt>
<trkpt lat="42.212146" lon="23.587"><ele>2178.8</ele><time>2026-04-05T07:16:46.000Z</time></trkpt>
<trkpt lat="42.212139" lon="23.587001"><ele>2178.8</ele><time>2026-04-05T07:16:47.000Z</time></trkpt>
<trkpt lat="42.212133" lon="23.587002"><ele>2178.8</ele><time>2026-04-05T07:16:48.000Z</time></trkpt>
<trkpt lat="42.212125" lon="23.587002"><ele>2179.2</ele><time>2026-04-05T07:16:49.000Z</time></trkpt>
<trkpt lat="42.212117" lon="23.587003"><ele>2179.2</ele><time>2026-04-05T07:16:50.000Z</time></trkpt>
<trkpt lat="42.21211" lon="23.587003"><ele>2179.2</ele><time>2026-04-05T07:16:51.000Z</time></trkpt>
<trkpt lat="42.212103" lon="23.587003"><ele>2179.2</ele><time>2026-04-05T07:16:52.000Z</time></trkpt>
<trkpt lat="42.212095" lon="23.587002"><ele>2179.2</ele><time>2026-04-05T07:16:53.000Z</time></trkpt>
<trkpt lat="42.212087" lon="23.587002"><ele>2180</ele><time>2026-04-05T07:16:54.000Z</time></trkpt>
<trkpt lat="42.212079" lon="23.587001"><ele>2180</ele><time>2026-04-05T07:16:55.000Z</time></trkpt>
<trkpt lat="42.212071" lon="23.587001"><ele>2180</ele><time>2026-04-05T07:16:56.000Z</time></trkpt>
<trkpt lat="42.212063" lon="23.587"><ele>2180</ele><time>2026-04-05T07:16:57.000Z</time></trkpt>
<trkpt lat="42.212054" lon="23.587"><ele>2180</ele><time>2026-04-05T07:16:58.000Z</time></trkpt>
<trkpt lat="42.212046" lon="23.586999"><ele>2180.6</ele><time>2026-04-05T07:16:59.000Z</time></trkpt>
<trkpt lat="42.212037" lon="23.586998"><ele>2180.6</ele><time>2026-04-05T07:17:00.000Z</time></trkpt>
<trkpt lat="42.212029" lon="23.586998"><ele>2180.6</ele><time>2026-04-05T07:17:01.000Z</time></trkpt>
<trkpt lat="42.212021" lon="23.586999"><ele>2180.6</ele><time>2026-04-05T07:17:02.000Z</time></trkpt>
<trkpt lat="42.212014" lon="23.586999"><ele>2180.6</ele><time>2026-04-05T07:17:03.000Z</time></trkpt>
<trkpt lat="42.212007" lon="23.586999"><ele>2180.9</ele><time>2026-04-05T07:17:04.000Z</time></trkpt>
<trkpt lat="42.211999" lon="23.586999"><ele>2180.9</ele><time>2026-04-05T07:17:05.000Z</time></trkpt>
<trkpt lat="42.211991" lon="23.586999"><ele>2180.9</ele><time>2026-04-05T07:17:06.000Z</time></trkpt>
<trkpt lat="42.211983" lon="23.587"><ele>2180.9</ele><time>2026-04-05T07:17:07.000Z</time></trkpt>
<trkpt lat="42.211975" lon="23.587001"><ele>2180.9</ele><time>2026-04-05T07:17:08.000Z</time></trkpt>
<trkpt lat="42.211967" lon="23.587003"><ele>2181.8</ele><time>2026-04-05T07:17:09.000Z</time></trkpt>
<trkpt lat="42.211961" lon="23.587005"><ele>2181.8</ele><time>2026-04-05T07:17:10.000Z</time></trkpt>
<trkpt lat="42.211953" lon="23.587005"><ele>2181.8</ele><time>2026-04-05T07:17:11.000Z</time></trkpt>
<trkpt lat="42.211945" lon="23.587005"><ele>2181.8</ele><time>2026-04-05T07:17:12.000Z</time></trkpt>
<trkpt lat="42.211937" lon="23.587004"><ele>2181.8</ele><time>2026-04-05T07:17:13.000Z</time></trkpt>
<trkpt lat="42.211928" lon="23.587004"><ele>2182.6</ele><time>2026-04-05T07:17:14.000Z</time></trkpt>
<trkpt lat="42.21192" lon="23.587006"><ele>2182.6</ele><time>2026-04-05T07:17:15.000Z</time></trkpt>
<trkpt lat="42.211914" lon="23.587008"><ele>2182.6</ele><time>2026-04-05T07:17:16.000Z</time></trkpt>
<trkpt lat="42.211907" lon="23.58701"><ele>2182.6</ele><time>2026-04-05T07:17:17.000Z</time></trkpt>
<trkpt lat="42.2119" lon="23.587011"><ele>2182.6</ele><time>2026-04-05T07:17:18.000Z</time></trkpt>
<trkpt lat="42.211894" lon="23.587011"><ele>2182.9</ele><time>2026-04-05T07:17:19.000Z</time></trkpt>
<trkpt lat="42.211886" lon="23.58701"><ele>2182.9</ele><time>2026-04-05T07:17:20.000Z</time></trkpt>
<trkpt lat="42.211879" lon="23.587007"><ele>2182.9</ele><time>2026-04-05T07:17:21.000Z</time></trkpt>
<trkpt lat="42.211871" lon="23.587006"><ele>2182.9</ele><time>2026-04-05T07:17:22.000Z</time></trkpt>
<trkpt lat="42.211863" lon="23.587003"><ele>2182.9</ele><time>2026-04-05T07:17:23.000Z</time></trkpt>
<trkpt lat="42.211855" lon="23.587001"><ele>2183.6</ele><time>2026-04-05T07:17:24.000Z</time></trkpt>
<trkpt lat="42.211848" lon="23.586999"><ele>2183.6</ele><time>2026-04-05T07:17:25.000Z</time></trkpt>
<trkpt lat="42.211841" lon="23.586999"><ele>2183.6</ele><time>2026-04-05T07:17:26.000Z</time></trkpt>
<trkpt lat="42.211834" lon="23.586999"><ele>2183.6</ele><time>2026-04-05T07:17:27.000Z</time></trkpt>
<trkpt lat="42.211828" lon="23.587001"><ele>2183.6</ele><time>2026-04-05T07:17:28.000Z</time></trkpt>
<trkpt lat="42.211822" lon="23.587002"><ele>2184.3</ele><time>2026-04-05T07:17:29.000Z</time></trkpt>
<trkpt lat="42.211815" lon="23.587003"><ele>2184.3</ele><time>2026-04-05T07:17:30.000Z</time></trkpt>
<trkpt lat="42.211809" lon="23.587002"><ele>2184.3</ele><time>2026-04-05T07:17:31.000Z</time></trkpt>
<trkpt lat="42.211803" lon="23.587"><ele>2184.3</ele><time>2026-04-05T07:17:32.000Z</time></trkpt>
<trkpt lat="42.211797" lon="23.586997"><ele>2184.3</ele><time>2026-04-05T07:17:33.000Z</time></trkpt>
<trkpt lat="42.211791" lon="23.586995"><ele>2184.7</ele><time>2026-04-05T07:17:34.000Z</time></trkpt>
<trkpt lat="42.211785" lon="23.586992"><ele>2184.7</ele><time>2026-04-05T07:17:35.000Z</time></trkpt>
<trkpt lat="42.211778" lon="23.58699"><ele>2184.7</ele><time>2026-04-05T07:17:36.000Z</time></trkpt>
<trkpt lat="42.211771" lon="23.586989"><ele>2184.7</ele><time>2026-04-05T07:17:37.000Z</time></trkpt>
<trkpt lat="42.211763" lon="23.586988"><ele>2184.7</ele><time>2026-04-05T07:17:38.000Z</time></trkpt>
<trkpt lat="42.211755" lon="23.586989"><ele>2185.3</ele><time>2026-04-05T07:17:39.000Z</time></trkpt>
<trkpt lat="42.211749" lon="23.586988"><ele>2185.3</ele><time>2026-04-05T07:17:40.000Z</time></trkpt>
<trkpt lat="42.211745" lon="23.586988"><ele>2185.3</ele><time>2026-04-05T07:17:41.000Z</time></trkpt>
<trkpt lat="42.211742" lon="23.586988"><ele>2185.3</ele><time>2026-04-05T07:17:42.000Z</time></trkpt>
<trkpt lat="42.211739" lon="23.586987"><ele>2185.3</ele><time>2026-04-05T07:17:43.000Z</time></trkpt>
<trkpt lat="42.211735" lon="23.586987"><ele>2185.9</ele><time>2026-04-05T07:17:44.000Z</time></trkpt>
<trkpt lat="42.211729" lon="23.586988"><ele>2185.9</ele><time>2026-04-05T07:17:45.000Z</time></trkpt>
<trkpt lat="42.211722" lon="23.58699"><ele>2185.9</ele><time>2026-04-05T07:17:46.000Z</time></trkpt>
<trkpt lat="42.211713" lon="23.586991"><ele>2185.9</ele><time>2026-04-05T07:17:47.000Z</time></trkpt>
<trkpt lat="42.211704" lon="23.586994"><ele>2185.9</ele><time>2026-04-05T07:17:48.000Z</time></trkpt>
<trkpt lat="42.211696" lon="23.586996"><ele>2186.1</ele><time>2026-04-05T07:17:49.000Z</time></trkpt>
<trkpt lat="42.211687" lon="23.586998"><ele>2186.1</ele><time>2026-04-05T07:17:50.000Z</time></trkpt>
<trkpt lat="42.211677" lon="23.587"><ele>2186.1</ele><time>2026-04-05T07:17:51.000Z</time></trkpt>
<trkpt lat="42.211668" lon="23.587002"><ele>2186.1</ele><time>2026-04-05T07:17:52.000Z</time></trkpt>
<trkpt lat="42.21166" lon="23.587002"><ele>2186.1</ele><time>2026-04-05T07:17:53.000Z</time></trkpt>
<trkpt lat="42.211651" lon="23.587003"><ele>2186.5</ele><time>2026-04-05T07:17:54.000Z</time></trkpt>
<trkpt lat="42.211641" lon="23.587005"><ele>2186.5</ele><time>2026-04-05T07:17:55.000Z</time></trkpt>
<trkpt lat="42.211632" lon="23.587008"><ele>2186.5</ele><time>2026-04-05T07:17:56.000Z</time></trkpt>
<trkpt lat="42.211622" lon="23.587009"><ele>2186.5</ele><time>2026-04-05T07:17:57.000Z</time></trkpt>
<trkpt lat="42.211614" lon="23.587012"><ele>2186.5</ele><time>2026-04-05T07:17:58.000Z</time></trkpt>
<trkpt lat="42.211607" lon="23.587014"><ele>2186.9</ele><time>2026-04-05T07:17:59.000Z</time></trkpt>
<trkpt lat="42.211602" lon="23.587014"><ele>2186.9</ele><time>2026-04-05T07:18:00.000Z</time></trkpt>
<trkpt lat="42.211598" lon="23.587015"><ele>2186.9</ele><time>2026-04-05T07:18:01.000Z</time></trkpt>
<trkpt lat="42.211596" lon="23.587017"><ele>2186.9</ele><time>2026-04-05T07:18:02.000Z</time></trkpt>
<trkpt lat="42.211592" lon="23.58702"><ele>2186.9</ele><time>2026-04-05T07:18:03.000Z</time></trkpt>
<trkpt lat="42.211588" lon="23.587022"><ele>2187.2</ele><time>2026-04-05T07:18:04.000Z</time></trkpt>
<trkpt lat="42.211583" lon="23.587026"><ele>2187.2</ele><time>2026-04-05T07:18:05.000Z</time></trkpt>
<trkpt lat="42.211577" lon="23.587029"><ele>2187.2</ele><time>2026-04-05T07:18:06.000Z</time></trkpt>
<trkpt lat="42.211568" lon="23.587033"><ele>2187.2</ele><time>2026-04-05T07:18:07.000Z</time></trkpt>
<trkpt lat="42.211561" lon="23.587037"><ele>2187.2</ele><time>2026-04-05T07:18:08.000Z</time></trkpt>
<trkpt lat="42.211552" lon="23.58704"><ele>2187.6</ele><time>2026-04-05T07:18:09.000Z</time></trkpt>
<trkpt lat="42.211543" lon="23.587043"><ele>2187.6</ele><time>2026-04-05T07:18:10.000Z</time></trkpt>
<trkpt lat="42.211533" lon="23.587046"><ele>2187.6</ele><time>2026-04-05T07:18:11.000Z</time></trkpt>
<trkpt lat="42.211524" lon="23.58705"><ele>2187.6</ele><time>2026-04-05T07:18:12.000Z</time></trkpt>
<trkpt lat="42.211513" lon="23.587053"><ele>2187.6</ele><time>2026-04-05T07:18:13.000Z</time></trkpt>
<trkpt lat="42.211502" lon="23.587057"><ele>2187.9</ele><time>2026-04-05T07:18:14.000Z</time></trkpt>
<trkpt lat="42.211492" lon="23.587062"><ele>2187.9</ele><time>2026-04-05T07:18:15.000Z</time></trkpt>
<trkpt lat="42.211482" lon="23.587066"><ele>2187.9</ele><time>2026-04-05T07:18:16.000Z</time></trkpt>
<trkpt lat="42.211473" lon="23.58707"><ele>2187.9</ele><time>2026-04-05T07:18:17.000Z</time></trkpt>
<trkpt lat="42.211465" lon="23.587075"><ele>2187.9</ele><time>2026-04-05T07:18:18.000Z</time></trkpt>
<trkpt lat="42.211459" lon="23.587079"><ele>2187.9</ele><time>2026-04-05T07:18:19.000Z</time></trkpt>
<trkpt lat="42.211451" lon="23.587082"><ele>2187.9</ele><time>2026-04-05T07:18:20.000Z</time></trkpt>
<trkpt lat="42.211442" lon="23.587086"><ele>2187.9</ele><time>2026-04-05T07:18:21.000Z</time></trkpt>
<trkpt lat="42.211432" lon="23.587089"><ele>2187.9</ele><time>2026-04-05T07:18:22.000Z</time></trkpt>
<trkpt lat="42.211422" lon="23.587092"><ele>2187.9</ele><time>2026-04-05T07:18:23.000Z</time></trkpt>
<trkpt lat="42.211411" lon="23.587095"><ele>2188.2</ele><time>2026-04-05T07:18:24.000Z</time></trkpt>
<trkpt lat="42.2114" lon="23.587098"><ele>2188.2</ele><time>2026-04-05T07:18:25.000Z</time></trkpt>
<trkpt lat="42.21139" lon="23.587103"><ele>2188.2</ele><time>2026-04-05T07:18:26.000Z</time></trkpt>
<trkpt lat="42.21138" lon="23.587107"><ele>2188.2</ele><time>2026-04-05T07:18:27.000Z</time></trkpt>
<trkpt lat="42.21137" lon="23.587113"><ele>2188.2</ele><time>2026-04-05T07:18:28.000Z</time></trkpt>
<trkpt lat="42.211362" lon="23.587118"><ele>2188.5</ele><time>2026-04-05T07:18:29.000Z</time></trkpt>
<trkpt lat="42.211354" lon="23.587123"><ele>2188.5</ele><time>2026-04-05T07:18:30.000Z</time></trkpt>
<trkpt lat="42.211346" lon="23.587128"><ele>2188.5</ele><time>2026-04-05T07:18:31.000Z</time></trkpt>
<trkpt lat="42.211336" lon="23.587133"><ele>2188.5</ele><time>2026-04-05T07:18:32.000Z</time></trkpt>
<trkpt lat="42.211329" lon="23.587136"><ele>2188.5</ele><time>2026-04-05T07:18:33.000Z</time></trkpt>
<trkpt lat="42.21132" lon="23.58714"><ele>2188.7</ele><time>2026-04-05T07:18:34.000Z</time></trkpt>
<trkpt lat="42.211311" lon="23.587143"><ele>2188.7</ele><time>2026-04-05T07:18:35.000Z</time></trkpt>
<trkpt lat="42.211303" lon="23.587144"><ele>2188.7</ele><time>2026-04-05T07:18:36.000Z</time></trkpt>
<trkpt lat="42.211299" lon="23.587144"><ele>2188.7</ele><time>2026-04-05T07:18:37.000Z</time></trkpt>
<trkpt lat="42.211295" lon="23.587145"><ele>2188.7</ele><time>2026-04-05T07:18:38.000Z</time></trkpt>
<trkpt lat="42.211293" lon="23.587145"><ele>2189.2</ele><time>2026-04-05T07:18:39.000Z</time></trkpt>
<trkpt lat="42.211292" lon="23.587145"><ele>2189.2</ele><time>2026-04-05T07:18:40.000Z</time></trkpt>
<trkpt lat="42.211293" lon="23.587147"><ele>2189.2</ele><time>2026-04-05T07:18:41.000Z</time></trkpt>
<trkpt lat="42.211292" lon="23.587147"><ele>2189.2</ele><time>2026-04-05T07:18:42.000Z</time></trkpt>
<trkpt lat="42.211291" lon="23.587147"><ele>2189.2</ele><time>2026-04-05T07:18:43.000Z</time></trkpt>
<trkpt lat="42.211291" lon="23.587147"><ele>2189.9</ele><time>2026-04-05T07:18:44.000Z</time></trkpt>
<trkpt lat="42.211291" lon="23.587148"><ele>2189.9</ele><time>2026-04-05T07:18:45.000Z</time></trkpt>
<trkpt lat="42.21129" lon="23.587149"><ele>2189.9</ele><time>2026-04-05T07:18:46.000Z</time></trkpt>
<trkpt lat="42.211289" lon="23.587152"><ele>2189.9</ele><time>2026-04-05T07:18:47.000Z</time></trkpt>
<trkpt lat="42.211286" lon="23.587156"><ele>2189.9</ele><time>2026-04-05T07:18:48.000Z</time></trkpt>
<trkpt lat="42.211284" lon="23.587159"><ele>2190.2</ele><time>2026-04-05T07:18:49.000Z</time></trkpt>
<trkpt lat="42.21128" lon="23.587163"><ele>2190.2</ele><time>2026-04-05T07:18:50.000Z</time></trkpt>
<trkpt lat="42.211275" lon="23.587165"><ele>2190.2</ele><time>2026-04-05T07:18:51.000Z</time></trkpt>
<trkpt lat="42.211269" lon="23.587167"><ele>2190.2</ele><time>2026-04-05T07:18:52.000Z</time></trkpt>
<trkpt lat="42.211263" lon="23.587168"><ele>2190.2</ele><time>2026-04-05T07:18:53.000Z</time></trkpt>
<trkpt lat="42.211259" lon="23.587168"><ele>2190.8</ele><time>2026-04-05T07:18:54.000Z</time></trkpt>
<trkpt lat="42.211255" lon="23.587168"><ele>2190.8</ele><time>2026-04-05T07:18:55.000Z</time></trkpt>
<trkpt lat="42.211252" lon="23.587167"><ele>2190.8</ele><time>2026-04-05T07:18:56.000Z</time></trkpt>
<trkpt lat="42.21125" lon="23.587166"><ele>2190.8</ele><time>2026-04-05T07:18:57.000Z</time></trkpt>
<trkpt lat="42.211249" lon="23.587166"><ele>2190.8</ele><time>2026-04-05T07:18:58.000Z</time></trkpt>
<trkpt lat="42.211247" lon="23.587166"><ele>2191</ele><time>2026-04-05T07:18:59.000Z</time></trkpt>
<trkpt lat="42.211247" lon="23.587166"><ele>2191</ele><time>2026-04-05T07:19:00.000Z</time></trkpt>
<trkpt lat="42.211246" lon="23.587167"><ele>2191</ele><time>2026-04-05T07:19:01.000Z</time></trkpt>
<trkpt lat="42.211246" lon="23.587167"><ele>2191</ele><time>2026-04-05T07:19:02.000Z</time></trkpt>
<trkpt lat="42.211246" lon="23.587167"><ele>2191</ele><time>2026-04-05T07:19:03.000Z</time></trkpt>
<trkpt lat="42.211246" lon="23.587166"><ele>2191</ele><time>2026-04-05T07:19:04.000Z</time></trkpt>
<trkpt lat="42.211247" lon="23.587165"><ele>2191</ele><time>2026-04-05T07:19:05.000Z</time></trkpt>
<trkpt lat="42.211247" lon="23.587165"><ele>2191</ele><time>2026-04-05T07:19:06.000Z</time></trkpt>
<trkpt lat="42.211247" lon="23.587165"><ele>2191</ele><time>2026-04-05T07:19:07.000Z</time></trkpt>
<trkpt lat="42.211246" lon="23.587165"><ele>2191</ele><time>2026-04-05T07:19:08.000Z</time></trkpt>
<trkpt lat="42.211245" lon="23.587165"><ele>2191</ele><time>2026-04-05T07:19:09.000Z</time></trkpt>
<trkpt lat="42.211242" lon="23.587166"><ele>2191</ele><time>2026-04-05T07:19:10.000Z</time></trkpt>
<trkpt lat="42.211239" lon="23.587168"><ele>2191</ele><time>2026-04-05T07:19:11.000Z</time></trkpt>
<trkpt lat="42.211232" lon="23.587169"><ele>2191</ele><time>2026-04-05T07:19:12.000Z</time></trkpt>
<trkpt lat="42.211224" lon="23.587169"><ele>2191</ele><time>2026-04-05T07:19:13.000Z</time></trkpt>
<trkpt lat="42.211216" lon="23.58717"><ele>2191</ele><time>2026-04-05T07:19:14.000Z</time></trkpt>
<trkpt lat="42.211207" lon="23.587169"><ele>2191</ele><time>2026-04-05T07:19:15.000Z</time></trkpt>
<trkpt lat="42.211199" lon="23.587168"><ele>2191</ele><time>2026-04-05T07:19:16.000Z</time></trkpt>
<trkpt lat="42.211192" lon="23.587168"><ele>2191</ele><time>2026-04-05T07:19:17.000Z</time></trkpt>
<trkpt lat="42.211185" lon="23.587167"><ele>2191</ele><time>2026-04-05T07:19:18.000Z</time></trkpt>
<trkpt lat="42.21118" lon="23.587167"><ele>2190.9</ele><time>2026-04-05T07:19:19.000Z</time></trkpt>
<trkpt lat="42.211176" lon="23.587167"><ele>2190.9</ele><time>2026-04-05T07:19:20.000Z</time></trkpt>
<trkpt lat="42.211174" lon="23.587167"><ele>2190.9</ele><time>2026-04-05T07:19:21.000Z</time></trkpt>
<trkpt lat="42.211171" lon="23.587167"><ele>2190.9</ele><time>2026-04-05T07:19:22.000Z</time></trkpt>
<trkpt lat="42.211169" lon="23.587168"><ele>2190.9</ele><time>2026-04-05T07:19:23.000Z</time></trkpt>
<trkpt lat="42.211168" lon="23.587169"><ele>2191</ele><time>2026-04-05T07:19:24.000Z</time></trkpt>
<trkpt lat="42.211168" lon="23.587169"><ele>2191</ele><time>2026-04-05T07:19:25.000Z</time></trkpt>
<trkpt lat="42.211169" lon="23.587169"><ele>2191</ele><time>2026-04-05T07:19:26.000Z</time></trkpt>
<trkpt lat="42.211171" lon="23.58717"><ele>2191</ele><time>2026-04-05T07:19:27.000Z</time></trkpt>
<trkpt lat="42.211172" lon="23.587169"><ele>2191</ele><time>2026-04-05T07:19:28.000Z</time></trkpt>
<trkpt lat="42.211173" lon="23.587169"><ele>2191.4</ele><time>2026-04-05T07:19:29.000Z</time></trkpt>
<trkpt lat="42.211174" lon="23.587168"><ele>2191.4</ele><time>2026-04-05T07:19:30.000Z</time></trkpt>
<trkpt lat="42.211175" lon="23.587168"><ele>2191.4</ele><time>2026-04-05T07:19:31.000Z</time></trkpt>
<trkpt lat="42.211175" lon="23.587168"><ele>2191.4</ele><time>2026-04-05T07:19:32.000Z</time></trkpt>
<trkpt lat="42.211175" lon="23.587168"><ele>2191.4</ele><time>2026-04-05T07:19:33.000Z</time></trkpt>
<trkpt lat="42.211175" lon="23.587168"><ele>2191.6</ele><time>2026-04-05T07:19:34.000Z</time></trkpt>
<trkpt lat="42.211175" lon="23.587168"><ele>2191.6</ele><time>2026-04-05T07:19:35.000Z</time></trkpt>
<trkpt lat="42.211175" lon="23.587168"><ele>2191.6</ele><time>2026-04-05T07:19:36.000Z</time></trkpt>
<trkpt lat="42.211175" lon="23.587169"><ele>2191.6</ele><time>2026-04-05T07:19:37.000Z</time></trkpt>
<trkpt lat="42.211176" lon="23.587169"><ele>2191.6</ele><time>2026-04-05T07:19:38.000Z</time></trkpt>
<trkpt lat="42.211176" lon="23.587169"><ele>2191.9</ele><time>2026-04-05T07:19:39.000Z</time></trkpt>
<trkpt lat="42.211176" lon="23.58717"><ele>2191.9</ele><time>2026-04-05T07:19:40.000Z</time></trkpt>
<trkpt lat="42.211177" lon="23.58717"><ele>2191.9</ele><time>2026-04-05T07:19:41.000Z</time></trkpt>
<trkpt lat="42.211179" lon="23.587169"><ele>2191.9</ele><time>2026-04-05T07:19:42.000Z</time></trkpt>
<trkpt lat="42.21118" lon="23.587169"><ele>2191.9</ele><time>2026-04-05T07:19:43.000Z</time></trkpt>
<trkpt lat="42.211181" lon="23.587169"><ele>2191.8</ele><time>2026-04-05T07:19:44.000Z</time></trkpt>
<trkpt lat="42.211182" lon="23.587168"><ele>2191.8</ele><time>2026-04-05T07:19:45.000Z</time></trkpt>
<trkpt lat="42.211183" lon="23.587168"><ele>2191.8</ele><time>2026-04-05T07:19:46.000Z</time></trkpt>
<trkpt lat="42.211183" lon="23.587169"><ele>2191.8</ele><time>2026-04-05T07:19:47.000Z</time></trkpt>
<trkpt lat="42.211184" lon="23.587169"><ele>2191.8</ele><time>2026-04-05T07:19:48.000Z</time></trkpt>
<trkpt lat="42.211184" lon="23.587169"><ele>2191.8</ele><time>2026-04-05T07:19:49.000Z</time></trkpt>
<trkpt lat="42.211184" lon="23.58717"><ele>2191.8</ele><time>2026-04-05T07:19:50.000Z</time></trkpt>
<trkpt lat="42.211185" lon="23.58717"><ele>2191.8</ele><time>2026-04-05T07:19:51.000Z</time></trkpt>
<trkpt lat="42.211185" lon="23.58717"><ele>2191.8</ele><time>2026-04-05T07:19:52.000Z</time></trkpt>
<trkpt lat="42.211185" lon="23.587171"><ele>2191.8</ele><time>2026-04-05T07:19:53.000Z</time></trkpt>
<trkpt lat="42.211186" lon="23.587171"><ele>2191.5</ele><time>2026-04-05T07:19:54.000Z</time></trkpt>
<trkpt lat="42.211186" lon="23.587171"><ele>2191.5</ele><time>2026-04-05T07:19:55.000Z</time></trkpt>
<trkpt lat="42.211186" lon="23.587171"><ele>2191.5</ele><time>2026-04-05T07:19:56.000Z</time></trkpt>
<trkpt lat="42.211186" lon="23.587171"><ele>2191.5</ele><time>2026-04-05T07:19:57.000Z</time></trkpt>
<trkpt lat="42.211186" lon="23.587171"><ele>2191.5</ele><time>2026-04-05T07:19:58.000Z</time></trkpt>
<trkpt lat="42.211186" lon="23.587171"><ele>2191.4</ele><time>2026-04-05T07:19:59.000Z</time></trkpt>
<trkpt lat="42.211186" lon="23.587171"><ele>2191.4</ele><time>2026-04-05T07:20:00.000Z</time></trkpt>
<trkpt lat="42.211185" lon="23.587171"><ele>2191.4</ele><time>2026-04-05T07:20:01.000Z</time></trkpt>
<trkpt lat="42.211185" lon="23.587171"><ele>2191.4</ele><time>2026-04-05T07:20:02.000Z</time></trkpt>
<trkpt lat="42.211185" lon="23.587171"><ele>2191.4</ele><time>2026-04-05T07:20:03.000Z</time></trkpt>
<trkpt lat="42.211185" lon="23.587171"><ele>2191.3</ele><time>2026-04-05T07:20:04.000Z</time></trkpt>
<trkpt lat="42.211185" lon="23.587172"><ele>2191.3</ele><time>2026-04-05T07:20:05.000Z</time></trkpt>
<trkpt lat="42.211185" lon="23.587172"><ele>2191.3</ele><time>2026-04-05T07:20:06.000Z</time></trkpt>
<trkpt lat="42.211185" lon="23.587172"><ele>2191.3</ele><time>2026-04-05T07:20:07.000Z</time></trkpt>
<trkpt lat="42.211185" lon="23.587172"><ele>2191.3</ele><time>2026-04-05T07:20:08.000Z</time></trkpt>
<trkpt lat="42.211185" lon="23.587172"><ele>2191.4</ele><time>2026-04-05T07:20:09.000Z</time></trkpt>
<trkpt lat="42.211185" lon="23.587172"><ele>2191.4</ele><time>2026-04-05T07:20:10.000Z</time></trkpt>
<trkpt lat="42.211185" lon="23.587172"><ele>2191.4</ele><time>2026-04-05T07:20:11.000Z</time></trkpt>
<trkpt lat="42.211185" lon="23.587172"><ele>2191.4</ele><time>2026-04-05T07:20:12.000Z</time></trkpt>
<trkpt lat="42.211185" lon="23.587173"><ele>2191.4</ele><time>2026-04-05T07:20:13.000Z</time></trkpt>
<trkpt lat="42.211185" lon="23.587173"><ele>2191.6</ele><time>2026-04-05T07:20:14.000Z</time></trkpt>
<trkpt lat="42.211185" lon="23.587173"><ele>2191.6</ele><time>2026-04-05T07:20:15.000Z</time></trkpt>
<trkpt lat="42.211185" lon="23.587174"><ele>2191.6</ele><time>2026-04-05T07:20:16.000Z</time></trkpt>
<trkpt lat="42.211185" lon="23.587174"><ele>2191.6</ele><time>2026-04-05T07:20:17.000Z</time></trkpt>
<trkpt lat="42.211185" lon="23.587174"><ele>2191.6</ele><time>2026-04-05T07:20:18.000Z</time></trkpt>
<trkpt lat="42.211185" lon="23.587174"><ele>2191.7</ele><time>2026-04-05T07:20:19.000Z</time></trkpt>
<trkpt lat="42.211185" lon="23.587174"><ele>2191.7</ele><time>2026-04-05T07:20:20.000Z</time></trkpt>
<trkpt lat="42.211185" lon="23.587174"><ele>2191.7</ele><time>2026-04-05T07:20:21.000Z</time></trkpt>
<trkpt lat="42.211185" lon="23.587174"><ele>2191.7</ele><time>2026-04-05T07:20:22.000Z</time></trkpt>
<trkpt lat="42.211185" lon="23.587174"><ele>2191.7</ele><time>2026-04-05T07:20:23.000Z</time></trkpt>
<trkpt lat="42.211185" lon="23.587175"><ele>2191.7</ele><time>2026-04-05T07:20:24.000Z</time></trkpt>
<trkpt lat="42.211185" lon="23.587175"><ele>2191.7</ele><time>2026-04-05T07:20:25.000Z</time></trkpt>
<trkpt lat="42.211184" lon="23.587175"><ele>2191.7</ele><time>2026-04-05T07:20:26.000Z</time></trkpt>
<trkpt lat="42.211184" lon="23.587176"><ele>2191.7</ele><time>2026-04-05T07:20:27.000Z</time></trkpt>
<trkpt lat="42.211183" lon="23.587178"><ele>2191.7</ele><time>2026-04-05T07:20:28.000Z</time></trkpt>
<trkpt lat="42.211182" lon="23.587179"><ele>2191.7</ele><time>2026-04-05T07:20:29.000Z</time></trkpt>
<trkpt lat="42.211182" lon="23.58718"><ele>2191.7</ele><time>2026-04-05T07:20:30.000Z</time></trkpt>
<trkpt lat="42.211182" lon="23.58718"><ele>2191.7</ele><time>2026-04-05T07:20:31.000Z</time></trkpt>
<trkpt lat="42.211183" lon="23.587179"><ele>2191.7</ele><time>2026-04-05T07:20:32.000Z</time></trkpt>
<trkpt lat="42.211183" lon="23.587177"><ele>2191.7</ele><time>2026-04-05T07:20:33.000Z</time></trkpt>
<trkpt lat="42.211183" lon="23.587175"><ele>2191.7</ele><time>2026-04-05T07:20:34.000Z</time></trkpt>
<trkpt lat="42.211183" lon="23.587174"><ele>2191.7</ele><time>2026-04-05T07:20:35.000Z</time></trkpt>
<trkpt lat="42.211182" lon="23.587173"><ele>2191.7</ele><time>2026-04-05T07:20:36.000Z</time></trkpt>
<trkpt lat="42.211182" lon="23.587173"><ele>2191.7</ele><time>2026-04-05T07:20:37.000Z</time></trkpt>
<trkpt lat="42.211181" lon="23.587173"><ele>2191.7</ele><time>2026-04-05T07:20:38.000Z</time></trkpt>
<trkpt lat="42.211181" lon="23.587173"><ele>2191.7</ele><time>2026-04-05T07:20:39.000Z</time></trkpt>
<trkpt lat="42.21118" lon="23.587172"><ele>2191.7</ele><time>2026-04-05T07:20:40.000Z</time></trkpt>
<trkpt lat="42.211179" lon="23.587171"><ele>2191.7</ele><time>2026-04-05T07:20:41.000Z</time></trkpt>
<trkpt lat="42.211179" lon="23.58717"><ele>2191.7</ele><time>2026-04-05T07:20:42.000Z</time></trkpt>
<trkpt lat="42.211178" lon="23.587169"><ele>2191.7</ele><time>2026-04-05T07:20:43.000Z</time></trkpt>
<trkpt lat="42.211177" lon="23.587168"><ele>2191.5</ele><time>2026-04-05T07:20:44.000Z</time></trkpt>
<trkpt lat="42.211176" lon="23.587167"><ele>2191.5</ele><time>2026-04-05T07:20:45.000Z</time></trkpt>
<trkpt lat="42.211176" lon="23.587167"><ele>2191.5</ele><time>2026-04-05T07:20:46.000Z</time></trkpt>
<trkpt lat="42.211175" lon="23.587166"><ele>2191.5</ele><time>2026-04-05T07:20:47.000Z</time></trkpt>
<trkpt lat="42.211175" lon="23.587165"><ele>2191.5</ele><time>2026-04-05T07:20:48.000Z</time></trkpt>
<trkpt lat="42.211174" lon="23.587165"><ele>2191.4</ele><time>2026-04-05T07:20:49.000Z</time></trkpt>
<trkpt lat="42.211174" lon="23.587164"><ele>2191.4</ele><time>2026-04-05T07:20:50.000Z</time></trkpt>
<trkpt lat="42.211173" lon="23.587163"><ele>2191.4</ele><time>2026-04-05T07:20:51.000Z</time></trkpt>
<trkpt lat="42.211173" lon="23.587162"><ele>2191.4</ele><time>2026-04-05T07:20:52.000Z</time></trkpt>
<trkpt lat="42.211172" lon="23.587163"><ele>2191.4</ele><time>2026-04-05T07:20:53.000Z</time></trkpt>
<trkpt lat="42.211172" lon="23.587163"><ele>2191.4</ele><time>2026-04-05T07:20:54.000Z</time></trkpt>
<trkpt lat="42.211172" lon="23.587163"><ele>2191.4</ele><time>2026-04-05T07:20:55.000Z</time></trkpt>
<trkpt lat="42.211172" lon="23.587164"><ele>2191.4</ele><time>2026-04-05T07:20:56.000Z</time></trkpt>
<trkpt lat="42.211172" lon="23.587165"><ele>2191.4</ele><time>2026-04-05T07:20:57.000Z</time></trkpt>
<trkpt lat="42.211172" lon="23.587166"><ele>2191.4</ele><time>2026-04-05T07:20:58.000Z</time></trkpt>
<trkpt lat="42.211173" lon="23.587166"><ele>2191.6</ele><time>2026-04-05T07:20:59.000Z</time></trkpt>
<trkpt lat="42.211173" lon="23.587167"><ele>2191.6</ele><time>2026-04-05T07:21:00.000Z</time></trkpt>
<trkpt lat="42.211173" lon="23.587167"><ele>2191.6</ele><time>2026-04-05T07:21:01.000Z</time></trkpt>
<trkpt lat="42.211173" lon="23.587167"><ele>2191.6</ele><time>2026-04-05T07:21:02.000Z</time></trkpt>
<trkpt lat="42.211173" lon="23.587167"><ele>2191.6</ele><time>2026-04-05T07:21:03.000Z</time></trkpt>
<trkpt lat="42.211173" lon="23.587167"><ele>2191.6</ele><time>2026-04-05T07:21:04.000Z</time></trkpt>
<trkpt lat="42.211173" lon="23.587167"><ele>2191.6</ele><time>2026-04-05T07:21:05.000Z</time></trkpt>
<trkpt lat="42.211173" lon="23.587167"><ele>2191.6</ele><time>2026-04-05T07:21:06.000Z</time></trkpt>
<trkpt lat="42.211173" lon="23.587167"><ele>2191.6</ele><time>2026-04-05T07:21:07.000Z</time></trkpt>
<trkpt lat="42.211173" lon="23.587166"><ele>2191.6</ele><time>2026-04-05T07:21:08.000Z</time></trkpt>
<trkpt lat="42.211173" lon="23.587166"><ele>2191.7</ele><time>2026-04-05T07:21:09.000Z</time></trkpt>
<trkpt lat="42.211173" lon="23.587165"><ele>2191.7</ele><time>2026-04-05T07:21:10.000Z</time></trkpt>
<trkpt lat="42.211173" lon="23.587165"><ele>2191.7</ele><time>2026-04-05T07:21:11.000Z</time></trkpt>
<trkpt lat="42.211171" lon="23.587164"><ele>2191.7</ele><time>2026-04-05T07:21:12.000Z</time></trkpt>
<trkpt lat="42.21117" lon="23.587166"><ele>2191.7</ele><time>2026-04-05T07:21:13.000Z</time></trkpt>
<trkpt lat="42.211169" lon="23.587166"><ele>2191.7</ele><time>2026-04-05T07:21:14.000Z</time></trkpt>
<trkpt lat="42.211167" lon="23.587167"><ele>2191.7</ele><time>2026-04-05T07:21:15.000Z</time></trkpt>
<trkpt lat="42.211165" lon="23.587168"><ele>2191.7</ele><time>2026-04-05T07:21:16.000Z</time></trkpt>
<trkpt lat="42.211164" lon="23.587169"><ele>2191.7</ele><time>2026-04-05T07:21:17.000Z</time></trkpt>
<trkpt lat="42.211163" lon="23.587169"><ele>2191.7</ele><time>2026-04-05T07:21:18.000Z</time></trkpt>
<trkpt lat="42.211163" lon="23.58717"><ele>2191.7</ele><time>2026-04-05T07:21:19.000Z</time></trkpt>
<trkpt lat="42.211163" lon="23.587171"><ele>2191.7</ele><time>2026-04-05T07:21:20.000Z</time></trkpt>
<trkpt lat="42.211164" lon="23.587171"><ele>2191.7</ele><time>2026-04-05T07:21:21.000Z</time></trkpt>
<trkpt lat="42.211165" lon="23.587171"><ele>2191.7</ele><time>2026-04-05T07:21:22.000Z</time></trkpt>
<trkpt lat="42.211166" lon="23.587172"><ele>2191.7</ele><time>2026-04-05T07:21:23.000Z</time></trkpt>
<trkpt lat="42.211166" lon="23.587172"><ele>2191.8</ele><time>2026-04-05T07:21:24.000Z</time></trkpt>
<trkpt lat="42.211166" lon="23.587172"><ele>2191.8</ele><time>2026-04-05T07:21:25.000Z</time></trkpt>
<trkpt lat="42.211166" lon="23.587172"><ele>2191.8</ele><time>2026-04-05T07:21:26.000Z</time></trkpt>
<trkpt lat="42.211167" lon="23.587172"><ele>2191.8</ele><time>2026-04-05T07:21:27.000Z</time></trkpt>
<trkpt lat="42.211168" lon="23.587173"><ele>2191.8</ele><time>2026-04-05T07:21:28.000Z</time></trkpt>
<trkpt lat="42.211169" lon="23.587174"><ele>2191.9</ele><time>2026-04-05T07:21:29.000Z</time></trkpt>
<trkpt lat="42.21117" lon="23.587175"><ele>2191.9</ele><time>2026-04-05T07:21:30.000Z</time></trkpt>
<trkpt lat="42.211171" lon="23.587176"><ele>2191.9</ele><time>2026-04-05T07:21:31.000Z</time></trkpt>
<trkpt lat="42.211171" lon="23.587177"><ele>2191.9</ele><time>2026-04-05T07:21:32.000Z</time></trkpt>
<trkpt lat="42.21117" lon="23.587177"><ele>2191.9</ele><time>2026-04-05T07:21:33.000Z</time></trkpt>
<trkpt lat="42.211169" lon="23.587177"><ele>2191.9</ele><time>2026-04-05T07:21:34.000Z</time></trkpt>
<trkpt lat="42.211168" lon="23.587178"><ele>2191.9</ele><time>2026-04-05T07:21:35.000Z</time></trkpt>
<trkpt lat="42.211168" lon="23.587179"><ele>2191.9</ele><time>2026-04-05T07:21:36.000Z</time></trkpt>
<trkpt lat="42.211168" lon="23.587179"><ele>2191.9</ele><time>2026-04-05T07:21:37.000Z</time></trkpt>
<trkpt lat="42.211168" lon="23.587179"><ele>2191.9</ele><time>2026-04-05T07:21:38.000Z</time></trkpt>
<trkpt lat="42.211168" lon="23.587179"><ele>2191.9</ele><time>2026-04-05T07:21:39.000Z</time></trkpt>
<trkpt lat="42.211168" lon="23.58718"><ele>2191.9</ele><time>2026-04-05T07:21:40.000Z</time></trkpt>
<trkpt lat="42.211169" lon="23.58718"><ele>2191.9</ele><time>2026-04-05T07:21:41.000Z</time></trkpt>
<trkpt lat="42.21117" lon="23.587181"><ele>2191.9</ele><time>2026-04-05T07:21:42.000Z</time></trkpt>
<trkpt lat="42.21117" lon="23.58718"><ele>2191.9</ele><time>2026-04-05T07:21:43.000Z</time></trkpt>
<trkpt lat="42.211171" lon="23.58718"><ele>2191.8</ele><time>2026-04-05T07:21:44.000Z</time></trkpt>
<trkpt lat="42.211172" lon="23.587179"><ele>2191.8</ele><time>2026-04-05T07:21:45.000Z</time></trkpt>
<trkpt lat="42.211172" lon="23.587177"><ele>2191.8</ele><time>2026-04-05T07:21:46.000Z</time></trkpt>
<trkpt lat="42.211172" lon="23.587174"><ele>2191.8</ele><time>2026-04-05T07:21:47.000Z</time></trkpt>
<trkpt lat="42.211172" lon="23.587173"><ele>2191.8</ele><time>2026-04-05T07:21:48.000Z</time></trkpt>
<trkpt lat="42.211172" lon="23.587172"><ele>2191.8</ele><time>2026-04-05T07:21:49.000Z</time></trkpt>
<trkpt lat="42.211172" lon="23.587171"><ele>2191.8</ele><time>2026-04-05T07:21:50.000Z</time></trkpt>
<trkpt lat="42.211172" lon="23.587171"><ele>2191.8</ele><time>2026-04-05T07:21:51.000Z</time></trkpt>
<trkpt lat="42.211173" lon="23.587171"><ele>2191.8</ele><time>2026-04-05T07:21:52.000Z</time></trkpt>
<trkpt lat="42.211172" lon="23.587171"><ele>2191.8</ele><time>2026-04-05T07:21:53.000Z</time></trkpt>
<trkpt lat="42.211172" lon="23.587171"><ele>2191.9</ele><time>2026-04-05T07:21:54.000Z</time></trkpt>
<trkpt lat="42.211171" lon="23.587171"><ele>2191.9</ele><time>2026-04-05T07:21:55.000Z</time></trkpt>
<trkpt lat="42.211171" lon="23.587171"><ele>2191.9</ele><time>2026-04-05T07:21:56.000Z</time></trkpt>
<trkpt lat="42.21117" lon="23.587171"><ele>2191.9</ele><time>2026-04-05T07:21:57.000Z</time></trkpt>
<trkpt lat="42.21117" lon="23.58717"><ele>2191.9</ele><time>2026-04-05T07:21:58.000Z</time></trkpt>
<trkpt lat="42.21117" lon="23.58717"><ele>2191.9</ele><time>2026-04-05T07:21:59.000Z</time></trkpt>
<trkpt lat="42.21117" lon="23.58717"><ele>2191.9</ele><time>2026-04-05T07:22:00.000Z</time></trkpt>
<trkpt lat="42.21117" lon="23.58717"><ele>2191.9</ele><time>2026-04-05T07:22:01.000Z</time></trkpt>
<trkpt lat="42.21117" lon="23.58717"><ele>2191.9</ele><time>2026-04-05T07:22:02.000Z</time></trkpt>
<trkpt lat="42.21117" lon="23.58717"><ele>2191.9</ele><time>2026-04-05T07:22:03.000Z</time></trkpt>
<trkpt lat="42.21117" lon="23.58717"><ele>2191.9</ele><time>2026-04-05T07:22:04.000Z</time></trkpt>
<trkpt lat="42.21117" lon="23.587171"><ele>2191.9</ele><time>2026-04-05T07:22:05.000Z</time></trkpt>
<trkpt lat="42.21117" lon="23.587171"><ele>2191.9</ele><time>2026-04-05T07:22:06.000Z</time></trkpt>
<trkpt lat="42.21117" lon="23.58717"><ele>2191.9</ele><time>2026-04-05T07:22:07.000Z</time></trkpt>
<trkpt lat="42.211169" lon="23.58717"><ele>2191.9</ele><time>2026-04-05T07:22:08.000Z</time></trkpt>
<trkpt lat="42.21117" lon="23.58717"><ele>2191.9</ele><time>2026-04-05T07:22:09.000Z</time></trkpt>
<trkpt lat="42.21117" lon="23.587172"><ele>2191.9</ele><time>2026-04-05T07:22:10.000Z</time></trkpt>
<trkpt lat="42.21117" lon="23.587174"><ele>2191.9</ele><time>2026-04-05T07:22:11.000Z</time></trkpt>
<trkpt lat="42.21117" lon="23.587176"><ele>2191.9</ele><time>2026-04-05T07:22:12.000Z</time></trkpt>
<trkpt lat="42.21117" lon="23.587177"><ele>2191.9</ele><time>2026-04-05T07:22:13.000Z</time></trkpt>
<trkpt lat="42.21117" lon="23.587176"><ele>2191.9</ele><time>2026-04-05T07:22:14.000Z</time></trkpt>
<trkpt lat="42.211169" lon="23.587175"><ele>2191.9</ele><time>2026-04-05T07:22:15.000Z</time></trkpt>
<trkpt lat="42.211168" lon="23.587173"><ele>2191.9</ele><time>2026-04-05T07:22:16.000Z</time></trkpt>
<trkpt lat="42.211167" lon="23.587172"><ele>2191.9</ele><time>2026-04-05T07:22:17.000Z</time></trkpt>
<trkpt lat="42.211165" lon="23.587171"><ele>2191.9</ele><time>2026-04-05T07:22:18.000Z</time></trkpt>
<trkpt lat="42.211164" lon="23.58717"><ele>2191.9</ele><time>2026-04-05T07:22:19.000Z</time></trkpt>
<trkpt lat="42.211163" lon="23.587169"><ele>2191.9</ele><time>2026-04-05T07:22:20.000Z</time></trkpt>
<trkpt lat="42.211163" lon="23.587169"><ele>2191.9</ele><time>2026-04-05T07:22:21.000Z</time></trkpt>
<trkpt lat="42.211163" lon="23.587169"><ele>2191.9</ele><time>2026-04-05T07:22:22.000Z</time></trkpt>
<trkpt lat="42.211164" lon="23.587168"><ele>2191.9</ele><time>2026-04-05T07:22:23.000Z</time></trkpt>
<trkpt lat="42.211165" lon="23.587168"><ele>2191.7</ele><time>2026-04-05T07:22:24.000Z</time></trkpt>
<trkpt lat="42.211166" lon="23.587167"><ele>2191.7</ele><time>2026-04-05T07:22:25.000Z</time></trkpt>
<trkpt lat="42.211167" lon="23.587166"><ele>2191.7</ele><time>2026-04-05T07:22:26.000Z</time></trkpt>
<trkpt lat="42.211168" lon="23.587166"><ele>2191.7</ele><time>2026-04-05T07:22:27.000Z</time></trkpt>
<trkpt lat="42.211168" lon="23.587166"><ele>2191.7</ele><time>2026-04-05T07:22:28.000Z</time></trkpt>
<trkpt lat="42.211169" lon="23.587167"><ele>2191.7</ele><time>2026-04-05T07:22:29.000Z</time></trkpt>
<trkpt lat="42.211169" lon="23.587167"><ele>2191.7</ele><time>2026-04-05T07:22:30.000Z</time></trkpt>
<trkpt lat="42.211168" lon="23.587166"><ele>2191.7</ele><time>2026-04-05T07:22:31.000Z</time></trkpt>
<trkpt lat="42.211166" lon="23.587164"><ele>2191.7</ele><time>2026-04-05T07:22:32.000Z</time></trkpt>
<trkpt lat="42.211163" lon="23.58716"><ele>2191.7</ele><time>2026-04-05T07:22:33.000Z</time></trkpt>
<trkpt lat="42.211159" lon="23.587155"><ele>2191.7</ele><time>2026-04-05T07:22:34.000Z</time></trkpt>
<trkpt lat="42.211153" lon="23.587149"><ele>2191.7</ele><time>2026-04-05T07:22:35.000Z</time></trkpt>
<trkpt lat="42.211146" lon="23.587144"><ele>2191.7</ele><time>2026-04-05T07:22:36.000Z</time></trkpt>
<trkpt lat="42.211139" lon="23.587139"><ele>2191.7</ele><time>2026-04-05T07:22:37.000Z</time></trkpt>
<trkpt lat="42.21113" lon="23.587135"><ele>2191.7</ele><time>2026-04-05T07:22:38.000Z</time></trkpt>
<trkpt lat="42.211121" lon="23.587131"><ele>2191.9</ele><time>2026-04-05T07:22:39.000Z</time></trkpt>
<trkpt lat="42.211112" lon="23.587128"><ele>2191.9</ele><time>2026-04-05T07:22:40.000Z</time></trkpt>
<trkpt lat="42.211102" lon="23.587125"><ele>2191.9</ele><time>2026-04-05T07:22:41.000Z</time></trkpt>
<trkpt lat="42.211093" lon="23.587122"><ele>2191.9</ele><time>2026-04-05T07:22:42.000Z</time></trkpt>
<trkpt lat="42.211084" lon="23.587119"><ele>2191.9</ele><time>2026-04-05T07:22:43.000Z</time></trkpt>
<trkpt lat="42.211076" lon="23.587115"><ele>2192.3</ele><time>2026-04-05T07:22:44.000Z</time></trkpt>
<trkpt lat="42.211066" lon="23.587111"><ele>2192.3</ele><time>2026-04-05T07:22:45.000Z</time></trkpt>
<trkpt lat="42.211056" lon="23.587107"><ele>2192.3</ele><time>2026-04-05T07:22:46.000Z</time></trkpt>
<trkpt lat="42.211045" lon="23.587103"><ele>2192.3</ele><time>2026-04-05T07:22:47.000Z</time></trkpt>
<trkpt lat="42.211035" lon="23.587099"><ele>2192.3</ele><time>2026-04-05T07:22:48.000Z</time></trkpt>
<trkpt lat="42.211023" lon="23.587096"><ele>2192.5</ele><time>2026-04-05T07:22:49.000Z</time></trkpt>
<trkpt lat="42.211013" lon="23.587093"><ele>2192.5</ele><time>2026-04-05T07:22:50.000Z</time></trkpt>
<trkpt lat="42.211002" lon="23.587091"><ele>2192.5</ele><time>2026-04-05T07:22:51.000Z</time></trkpt>
<trkpt lat="42.210991" lon="23.587087"><ele>2192.5</ele><time>2026-04-05T07:22:52.000Z</time></trkpt>
<trkpt lat="42.21098" lon="23.587085"><ele>2192.5</ele><time>2026-04-05T07:22:53.000Z</time></trkpt>
<trkpt lat="42.21097" lon="23.587084"><ele>2193.1</ele><time>2026-04-05T07:22:54.000Z</time></trkpt>
<trkpt lat="42.210959" lon="23.587082"><ele>2193.1</ele><time>2026-04-05T07:22:55.000Z</time></trkpt>
<trkpt lat="42.210949" lon="23.58708"><ele>2193.1</ele><time>2026-04-05T07:22:56.000Z</time></trkpt>
<trkpt lat="42.210939" lon="23.587078"><ele>2193.1</ele><time>2026-04-05T07:22:57.000Z</time></trkpt>
<trkpt lat="42.210929" lon="23.587076"><ele>2193.1</ele><time>2026-04-05T07:22:58.000Z</time></trkpt>
<trkpt lat="42.210919" lon="23.587074"><ele>2193.9</ele><time>2026-04-05T07:22:59.000Z</time></trkpt>
<trkpt lat="42.210909" lon="23.587071"><ele>2193.9</ele><time>2026-04-05T07:23:00.000Z</time></trkpt>
<trkpt lat="42.2109" lon="23.587071"><ele>2193.9</ele><time>2026-04-05T07:23:01.000Z</time></trkpt>
<trkpt lat="42.210891" lon="23.587073"><ele>2193.9</ele><time>2026-04-05T07:23:02.000Z</time></trkpt>
<trkpt lat="42.210883" lon="23.587075"><ele>2193.9</ele><time>2026-04-05T07:23:03.000Z</time></trkpt>
<trkpt lat="42.210875" lon="23.587077"><ele>2194.3</ele><time>2026-04-05T07:23:04.000Z</time></trkpt>
<trkpt lat="42.210868" lon="23.587079"><ele>2194.3</ele><time>2026-04-05T07:23:05.000Z</time></trkpt>
<trkpt lat="42.210862" lon="23.587079"><ele>2194.3</ele><time>2026-04-05T07:23:06.000Z</time></trkpt>
<trkpt lat="42.210855" lon="23.587077"><ele>2194.3</ele><time>2026-04-05T07:23:07.000Z</time></trkpt>
<trkpt lat="42.210847" lon="23.587076"><ele>2194.3</ele><time>2026-04-05T07:23:08.000Z</time></trkpt>
<trkpt lat="42.210839" lon="23.587074"><ele>2195.2</ele><time>2026-04-05T07:23:09.000Z</time></trkpt>
<trkpt lat="42.210831" lon="23.587074"><ele>2195.2</ele><time>2026-04-05T07:23:10.000Z</time></trkpt>
<trkpt lat="42.210823" lon="23.587072"><ele>2195.2</ele><time>2026-04-05T07:23:11.000Z</time></trkpt>
<trkpt lat="42.210814" lon="23.587071"><ele>2195.2</ele><time>2026-04-05T07:23:12.000Z</time></trkpt>
<trkpt lat="42.210805" lon="23.587071"><ele>2195.2</ele><time>2026-04-05T07:23:13.000Z</time></trkpt>
<trkpt lat="42.210796" lon="23.587071"><ele>2195.9</ele><time>2026-04-05T07:23:14.000Z</time></trkpt>
<trkpt lat="42.210786" lon="23.58707"><ele>2195.9</ele><time>2026-04-05T07:23:15.000Z</time></trkpt>
<trkpt lat="42.210776" lon="23.58707"><ele>2195.9</ele><time>2026-04-05T07:23:16.000Z</time></trkpt>
<trkpt lat="42.210765" lon="23.587069"><ele>2195.9</ele><time>2026-04-05T07:23:17.000Z</time></trkpt>
<trkpt lat="42.210754" lon="23.587068"><ele>2195.9</ele><time>2026-04-05T07:23:18.000Z</time></trkpt>
<trkpt lat="42.210744" lon="23.587068"><ele>2196.3</ele><time>2026-04-05T07:23:19.000Z</time></trkpt>
<trkpt lat="42.210733" lon="23.587069"><ele>2196.3</ele><time>2026-04-05T07:23:20.000Z</time></trkpt>
<trkpt lat="42.210722" lon="23.587071"><ele>2196.3</ele><time>2026-04-05T07:23:21.000Z</time></trkpt>
<trkpt lat="42.210712" lon="23.587073"><ele>2196.3</ele><time>2026-04-05T07:23:22.000Z</time></trkpt>
<trkpt lat="42.210702" lon="23.587074"><ele>2196.3</ele><time>2026-04-05T07:23:23.000Z</time></trkpt>
<trkpt lat="42.210692" lon="23.587075"><ele>2196.9</ele><time>2026-04-05T07:23:24.000Z</time></trkpt>
<trkpt lat="42.210682" lon="23.587075"><ele>2196.9</ele><time>2026-04-05T07:23:25.000Z</time></trkpt>
<trkpt lat="42.210673" lon="23.587074"><ele>2196.9</ele><time>2026-04-05T07:23:26.000Z</time></trkpt>
<trkpt lat="42.210663" lon="23.587072"><ele>2196.9</ele><time>2026-04-05T07:23:27.000Z</time></trkpt>
<trkpt lat="42.210653" lon="23.587071"><ele>2196.9</ele><time>2026-04-05T07:23:28.000Z</time></trkpt>
<trkpt lat="42.210644" lon="23.58707"><ele>2197.6</ele><time>2026-04-05T07:23:29.000Z</time></trkpt>
<trkpt lat="42.210634" lon="23.587069"><ele>2197.6</ele><time>2026-04-05T07:23:30.000Z</time></trkpt>
<trkpt lat="42.210624" lon="23.58707"><ele>2197.6</ele><time>2026-04-05T07:23:31.000Z</time></trkpt>
<trkpt lat="42.210616" lon="23.587071"><ele>2197.6</ele><time>2026-04-05T07:23:32.000Z</time></trkpt>
<trkpt lat="42.210608" lon="23.587071"><ele>2197.6</ele><time>2026-04-05T07:23:33.000Z</time></trkpt>
<trkpt lat="42.210599" lon="23.58707"><ele>2197.9</ele><time>2026-04-05T07:23:34.000Z</time></trkpt>
<trkpt lat="42.210591" lon="23.58707"><ele>2197.9</ele><time>2026-04-05T07:23:35.000Z</time></trkpt>
<trkpt lat="42.210582" lon="23.58707"><ele>2197.9</ele><time>2026-04-05T07:23:36.000Z</time></trkpt>
<trkpt lat="42.210573" lon="23.587071"><ele>2197.9</ele><time>2026-04-05T07:23:37.000Z</time></trkpt>
<trkpt lat="42.210563" lon="23.587071"><ele>2197.9</ele><time>2026-04-05T07:23:38.000Z</time></trkpt>
<trkpt lat="42.210553" lon="23.587071"><ele>2198.7</ele><time>2026-04-05T07:23:39.000Z</time></trkpt>
<trkpt lat="42.210544" lon="23.587071"><ele>2198.7</ele><time>2026-04-05T07:23:40.000Z</time></trkpt>
<trkpt lat="42.210536" lon="23.587073"><ele>2198.7</ele><time>2026-04-05T07:23:41.000Z</time></trkpt>
<trkpt lat="42.210527" lon="23.587073"><ele>2198.7</ele><time>2026-04-05T07:23:42.000Z</time></trkpt>
<trkpt lat="42.210519" lon="23.587074"><ele>2198.7</ele><time>2026-04-05T07:23:43.000Z</time></trkpt>
<trkpt lat="42.210512" lon="23.587075"><ele>2199.5</ele><time>2026-04-05T07:23:44.000Z</time></trkpt>
<trkpt lat="42.210504" lon="23.587076"><ele>2199.5</ele><time>2026-04-05T07:23:45.000Z</time></trkpt>
<trkpt lat="42.210495" lon="23.587076"><ele>2199.5</ele><time>2026-04-05T07:23:46.000Z</time></trkpt>
<trkpt lat="42.210487" lon="23.587077"><ele>2199.5</ele><time>2026-04-05T07:23:47.000Z</time></trkpt>
<trkpt lat="42.210478" lon="23.587077"><ele>2199.5</ele><time>2026-04-05T07:23:48.000Z</time></trkpt>
<trkpt lat="42.210468" lon="23.587078"><ele>2199.8</ele><time>2026-04-05T07:23:49.000Z</time></trkpt>
<trkpt lat="42.210459" lon="23.587079"><ele>2199.8</ele><time>2026-04-05T07:23:50.000Z</time></trkpt>
<trkpt lat="42.210449" lon="23.58708"><ele>2199.8</ele><time>2026-04-05T07:23:51.000Z</time></trkpt>
<trkpt lat="42.21044" lon="23.587083"><ele>2199.8</ele><time>2026-04-05T07:23:52.000Z</time></trkpt>
<trkpt lat="42.210432" lon="23.587087"><ele>2199.8</ele><time>2026-04-05T07:23:53.000Z</time></trkpt>
<trkpt lat="42.210423" lon="23.587089"><ele>2200.3</ele><time>2026-04-05T07:23:54.000Z</time></trkpt>
<trkpt lat="42.210413" lon="23.587093"><ele>2200.3</ele><time>2026-04-05T07:23:55.000Z</time></trkpt>
<trkpt lat="42.210404" lon="23.587095"><ele>2200.3</ele><time>2026-04-05T07:23:56.000Z</time></trkpt>
<trkpt lat="42.210395" lon="23.587095"><ele>2200.3</ele><time>2026-04-05T07:23:57.000Z</time></trkpt>
<trkpt lat="42.210386" lon="23.587093"><ele>2200.3</ele><time>2026-04-05T07:23:58.000Z</time></trkpt>
<trkpt lat="42.210378" lon="23.58709"><ele>2201.1</ele><time>2026-04-05T07:23:59.000Z</time></trkpt>
<trkpt lat="42.21037" lon="23.587087"><ele>2201.1</ele><time>2026-04-05T07:24:00.000Z</time></trkpt>
<trkpt lat="42.210364" lon="23.587084"><ele>2201.1</ele><time>2026-04-05T07:24:01.000Z</time></trkpt>
<trkpt lat="42.210356" lon="23.587083"><ele>2201.1</ele><time>2026-04-05T07:24:02.000Z</time></trkpt>
<trkpt lat="42.210349" lon="23.587081"><ele>2201.1</ele><time>2026-04-05T07:24:03.000Z</time></trkpt>
<trkpt lat="42.210342" lon="23.587081"><ele>2201.5</ele><time>2026-04-05T07:24:04.000Z</time></trkpt>
<trkpt lat="42.210334" lon="23.58708"><ele>2201.5</ele><time>2026-04-05T07:24:05.000Z</time></trkpt>
<trkpt lat="42.210325" lon="23.58708"><ele>2201.5</ele><time>2026-04-05T07:24:06.000Z</time></trkpt>
<trkpt lat="42.210316" lon="23.587081"><ele>2201.5</ele><time>2026-04-05T07:24:07.000Z</time></trkpt>
<trkpt lat="42.210308" lon="23.587082"><ele>2201.5</ele><time>2026-04-05T07:24:08.000Z</time></trkpt>
<trkpt lat="42.210299" lon="23.587082"><ele>2202.4</ele><time>2026-04-05T07:24:09.000Z</time></trkpt>
<trkpt lat="42.21029" lon="23.587082"><ele>2202.4</ele><time>2026-04-05T07:24:10.000Z</time></trkpt>
<trkpt lat="42.210282" lon="23.587082"><ele>2202.4</ele><time>2026-04-05T07:24:11.000Z</time></trkpt>
<trkpt lat="42.210274" lon="23.587081"><ele>2202.4</ele><time>2026-04-05T07:24:12.000Z</time></trkpt>
<trkpt lat="42.210266" lon="23.58708"><ele>2202.4</ele><time>2026-04-05T07:24:13.000Z</time></trkpt>
<trkpt lat="42.210259" lon="23.587079"><ele>2203.4</ele><time>2026-04-05T07:24:14.000Z</time></trkpt>
<trkpt lat="42.210252" lon="23.587077"><ele>2203.4</ele><time>2026-04-05T07:24:15.000Z</time></trkpt>
<trkpt lat="42.210247" lon="23.587075"><ele>2203.4</ele><time>2026-04-05T07:24:16.000Z</time></trkpt>
<trkpt lat="42.210241" lon="23.587072"><ele>2203.4</ele><time>2026-04-05T07:24:17.000Z</time></trkpt>
<trkpt lat="42.210235" lon="23.58707"><ele>2203.4</ele><time>2026-04-05T07:24:18.000Z</time></trkpt>
<trkpt lat="42.210229" lon="23.587069"><ele>2203.9</ele><time>2026-04-05T07:24:19.000Z</time></trkpt>
<trkpt lat="42.210223" lon="23.58707"><ele>2203.9</ele><time>2026-04-05T07:24:20.000Z</time></trkpt>
<trkpt lat="42.210216" lon="23.587071"><ele>2203.9</ele><time>2026-04-05T07:24:21.000Z</time></trkpt>
<trkpt lat="42.210208" lon="23.587073"><ele>2203.9</ele><time>2026-04-05T07:24:22.000Z</time></trkpt>
<trkpt lat="42.210203" lon="23.587075"><ele>2203.9</ele><time>2026-04-05T07:24:23.000Z</time></trkpt>
<trkpt lat="42.210197" lon="23.587078"><ele>2204.8</ele><time>2026-04-05T07:24:24.000Z</time></trkpt>
<trkpt lat="42.210191" lon="23.587081"><ele>2204.8</ele><time>2026-04-05T07:24:25.000Z</time></trkpt>
<trkpt lat="42.210186" lon="23.587084"><ele>2204.8</ele><time>2026-04-05T07:24:26.000Z</time></trkpt>
<trkpt lat="42.210181" lon="23.587088"><ele>2204.8</ele><time>2026-04-05T07:24:27.000Z</time></trkpt>
<trkpt lat="42.210173" lon="23.587091"><ele>2204.8</ele><time>2026-04-05T07:24:28.000Z</time></trkpt>
<trkpt lat="42.210164" lon="23.587092"><ele>2205.7</ele><time>2026-04-05T07:24:29.000Z</time></trkpt>
<trkpt lat="42.210155" lon="23.587093"><ele>2205.7</ele><time>2026-04-05T07:24:30.000Z</time></trkpt>
<trkpt lat="42.210145" lon="23.587093"><ele>2205.7</ele><time>2026-04-05T07:24:31.000Z</time></trkpt>
<trkpt lat="42.210135" lon="23.587093"><ele>2205.7</ele><time>2026-04-05T07:24:32.000Z</time></trkpt>
<trkpt lat="42.210126" lon="23.587093"><ele>2205.7</ele><time>2026-04-05T07:24:33.000Z</time></trkpt>
<trkpt lat="42.210118" lon="23.587094"><ele>2206.2</ele><time>2026-04-05T07:24:34.000Z</time></trkpt>
<trkpt lat="42.210109" lon="23.587095"><ele>2206.2</ele><time>2026-04-05T07:24:35.000Z</time></trkpt>
<trkpt lat="42.210099" lon="23.587096"><ele>2206.2</ele><time>2026-04-05T07:24:36.000Z</time></trkpt>
<trkpt lat="42.21009" lon="23.587097"><ele>2206.2</ele><time>2026-04-05T07:24:37.000Z</time></trkpt>
<trkpt lat="42.210082" lon="23.587098"><ele>2206.2</ele><time>2026-04-05T07:24:38.000Z</time></trkpt>
<trkpt lat="42.210073" lon="23.587097"><ele>2206.8</ele><time>2026-04-05T07:24:39.000Z</time></trkpt>
<trkpt lat="42.210064" lon="23.587097"><ele>2206.8</ele><time>2026-04-05T07:24:40.000Z</time></trkpt>
<trkpt lat="42.210056" lon="23.587097"><ele>2206.8</ele><time>2026-04-05T07:24:41.000Z</time></trkpt>
<trkpt lat="42.210048" lon="23.587096"><ele>2206.8</ele><time>2026-04-05T07:24:42.000Z</time></trkpt>
<trkpt lat="42.210039" lon="23.587095"><ele>2206.8</ele><time>2026-04-05T07:24:43.000Z</time></trkpt>
<trkpt lat="42.210031" lon="23.587095"><ele>2207.3</ele><time>2026-04-05T07:24:44.000Z</time></trkpt>
<trkpt lat="42.210023" lon="23.587094"><ele>2207.3</ele><time>2026-04-05T07:24:45.000Z</time></trkpt>
<trkpt lat="42.210015" lon="23.587093"><ele>2207.3</ele><time>2026-04-05T07:24:46.000Z</time></trkpt>
<trkpt lat="42.210006" lon="23.587093"><ele>2207.3</ele><time>2026-04-05T07:24:47.000Z</time></trkpt>
<trkpt lat="42.209998" lon="23.587092"><ele>2207.3</ele><time>2026-04-05T07:24:48.000Z</time></trkpt>
<trkpt lat="42.209992" lon="23.587092"><ele>2207.5</ele><time>2026-04-05T07:24:49.000Z</time></trkpt>
<trkpt lat="42.209986" lon="23.587092"><ele>2207.5</ele><time>2026-04-05T07:24:50.000Z</time></trkpt>
<trkpt lat="42.209982" lon="23.587093"><ele>2207.5</ele><time>2026-04-05T07:24:51.000Z</time></trkpt>
<trkpt lat="42.209979" lon="23.587095"><ele>2207.5</ele><time>2026-04-05T07:24:52.000Z</time></trkpt>
<trkpt lat="42.209975" lon="23.587098"><ele>2207.5</ele><time>2026-04-05T07:24:53.000Z</time></trkpt>
<trkpt lat="42.20997" lon="23.587101"><ele>2208.2</ele><time>2026-04-05T07:24:54.000Z</time></trkpt>
<trkpt lat="42.209965" lon="23.587103"><ele>2208.2</ele><time>2026-04-05T07:24:55.000Z</time></trkpt>
<trkpt lat="42.209957" lon="23.587103"><ele>2208.2</ele><time>2026-04-05T07:24:56.000Z</time></trkpt>
<trkpt lat="42.209949" lon="23.587104"><ele>2208.2</ele><time>2026-04-05T07:24:57.000Z</time></trkpt>
<trkpt lat="42.209941" lon="23.587106"><ele>2208.2</ele><time>2026-04-05T07:24:58.000Z</time></trkpt>
<trkpt lat="42.209933" lon="23.587108"><ele>2209.1</ele><time>2026-04-05T07:24:59.000Z</time></trkpt>
<trkpt lat="42.209925" lon="23.587109"><ele>2209.1</ele><time>2026-04-05T07:25:00.000Z</time></trkpt>
<trkpt lat="42.209917" lon="23.587111"><ele>2209.1</ele><time>2026-04-05T07:25:01.000Z</time></trkpt>
<trkpt lat="42.209909" lon="23.587112"><ele>2209.1</ele><time>2026-04-05T07:25:02.000Z</time></trkpt>
<trkpt lat="42.209902" lon="23.587111"><ele>2209.1</ele><time>2026-04-05T07:25:03.000Z</time></trkpt>
<trkpt lat="42.209893" lon="23.58711"><ele>2209.5</ele><time>2026-04-05T07:25:04.000Z</time></trkpt>
<trkpt lat="42.209886" lon="23.587109"><ele>2209.5</ele><time>2026-04-05T07:25:05.000Z</time></trkpt>
<trkpt lat="42.20988" lon="23.587108"><ele>2209.5</ele><time>2026-04-05T07:25:06.000Z</time></trkpt>
<trkpt lat="42.209872" lon="23.587108"><ele>2209.5</ele><time>2026-04-05T07:25:07.000Z</time></trkpt>
<trkpt lat="42.209864" lon="23.587107"><ele>2209.5</ele><time>2026-04-05T07:25:08.000Z</time></trkpt>
<trkpt lat="42.209857" lon="23.587108"><ele>2210.3</ele><time>2026-04-05T07:25:09.000Z</time></trkpt>
<trkpt lat="42.20985" lon="23.587108"><ele>2210.3</ele><time>2026-04-05T07:25:10.000Z</time></trkpt>
<trkpt lat="42.209842" lon="23.587109"><ele>2210.3</ele><time>2026-04-05T07:25:11.000Z</time></trkpt>
<trkpt lat="42.209836" lon="23.587109"><ele>2210.3</ele><time>2026-04-05T07:25:12.000Z</time></trkpt>
<trkpt lat="42.209829" lon="23.587109"><ele>2210.3</ele><time>2026-04-05T07:25:13.000Z</time></trkpt>
<trkpt lat="42.209822" lon="23.587108"><ele>2211</ele><time>2026-04-05T07:25:14.000Z</time></trkpt>
<trkpt lat="42.209814" lon="23.587108"><ele>2211</ele><time>2026-04-05T07:25:15.000Z</time></trkpt>
<trkpt lat="42.209806" lon="23.587109"><ele>2211</ele><time>2026-04-05T07:25:16.000Z</time></trkpt>
<trkpt lat="42.209797" lon="23.58711"><ele>2211</ele><time>2026-04-05T07:25:17.000Z</time></trkpt>
<trkpt lat="42.209788" lon="23.587113"><ele>2211</ele><time>2026-04-05T07:25:18.000Z</time></trkpt>
<trkpt lat="42.20978" lon="23.587116"><ele>2211.3</ele><time>2026-04-05T07:25:19.000Z</time></trkpt>
<trkpt lat="42.209772" lon="23.587119"><ele>2211.3</ele><time>2026-04-05T07:25:20.000Z</time></trkpt>
<trkpt lat="42.209763" lon="23.587123"><ele>2211.3</ele><time>2026-04-05T07:25:21.000Z</time></trkpt>
<trkpt lat="42.209756" lon="23.587127"><ele>2211.3</ele><time>2026-04-05T07:25:22.000Z</time></trkpt>
<trkpt lat="42.209749" lon="23.58713"><ele>2211.3</ele><time>2026-04-05T07:25:23.000Z</time></trkpt>
<trkpt lat="42.209742" lon="23.587132"><ele>2211.9</ele><time>2026-04-05T07:25:24.000Z</time></trkpt>
<trkpt lat="42.209736" lon="23.587134"><ele>2211.9</ele><time>2026-04-05T07:25:25.000Z</time></trkpt>
<trkpt lat="42.209729" lon="23.587136"><ele>2211.9</ele><time>2026-04-05T07:25:26.000Z</time></trkpt>
<trkpt lat="42.209721" lon="23.587136"><ele>2211.9</ele><time>2026-04-05T07:25:27.000Z</time></trkpt>
<trkpt lat="42.209714" lon="23.587136"><ele>2211.9</ele><time>2026-04-05T07:25:28.000Z</time></trkpt>
<trkpt lat="42.209706" lon="23.587136"><ele>2212.4</ele><time>2026-04-05T07:25:29.000Z</time></trkpt>
<trkpt lat="42.209697" lon="23.587135"><ele>2212.4</ele><time>2026-04-05T07:25:30.000Z</time></trkpt>
<trkpt lat="42.209687" lon="23.587135"><ele>2212.4</ele><time>2026-04-05T07:25:31.000Z</time></trkpt>
<trkpt lat="42.209679" lon="23.587136"><ele>2212.4</ele><time>2026-04-05T07:25:32.000Z</time></trkpt>
<trkpt lat="42.20967" lon="23.587137"><ele>2212.4</ele><time>2026-04-05T07:25:33.000Z</time></trkpt>
<trkpt lat="42.209661" lon="23.587138"><ele>2212.7</ele><time>2026-04-05T07:25:34.000Z</time></trkpt>
<trkpt lat="42.209653" lon="23.587141"><ele>2212.7</ele><time>2026-04-05T07:25:35.000Z</time></trkpt>
<trkpt lat="42.209645" lon="23.587143"><ele>2212.7</ele><time>2026-04-05T07:25:36.000Z</time></trkpt>
<trkpt lat="42.209636" lon="23.587145"><ele>2212.7</ele><time>2026-04-05T07:25:37.000Z</time></trkpt>
<trkpt lat="42.209629" lon="23.587149"><ele>2212.7</ele><time>2026-04-05T07:25:38.000Z</time></trkpt>
<trkpt lat="42.209621" lon="23.587152"><ele>2213.3</ele><time>2026-04-05T07:25:39.000Z</time></trkpt>
<trkpt lat="42.209613" lon="23.587154"><ele>2213.3</ele><time>2026-04-05T07:25:40.000Z</time></trkpt>
<trkpt lat="42.209604" lon="23.587156"><ele>2213.3</ele><time>2026-04-05T07:25:41.000Z</time></trkpt>
<trkpt lat="42.209597" lon="23.587156"><ele>2213.3</ele><time>2026-04-05T07:25:42.000Z</time></trkpt>
<trkpt lat="42.20959" lon="23.587155"><ele>2213.3</ele><time>2026-04-05T07:25:43.000Z</time></trkpt>
<trkpt lat="42.209582" lon="23.587153"><ele>2214.1</ele><time>2026-04-05T07:25:44.000Z</time></trkpt>
<trkpt lat="42.209575" lon="23.587152"><ele>2214.1</ele><time>2026-04-05T07:25:45.000Z</time></trkpt>
<trkpt lat="42.209569" lon="23.587151"><ele>2214.1</ele><time>2026-04-05T07:25:46.000Z</time></trkpt>
<trkpt lat="42.209561" lon="23.587149"><ele>2214.1</ele><time>2026-04-05T07:25:47.000Z</time></trkpt>
<trkpt lat="42.209554" lon="23.587149"><ele>2214.1</ele><time>2026-04-05T07:25:48.000Z</time></trkpt>
<trkpt lat="42.209547" lon="23.587149"><ele>2214.5</ele><time>2026-04-05T07:25:49.000Z</time></trkpt>
<trkpt lat="42.209539" lon="23.58715"><ele>2214.5</ele><time>2026-04-05T07:25:50.000Z</time></trkpt>
<trkpt lat="42.209531" lon="23.587152"><ele>2214.5</ele><time>2026-04-05T07:25:51.000Z</time></trkpt>
<trkpt lat="42.209524" lon="23.587155"><ele>2214.5</ele><time>2026-04-05T07:25:52.000Z</time></trkpt>
<trkpt lat="42.209517" lon="23.587159"><ele>2214.5</ele><time>2026-04-05T07:25:53.000Z</time></trkpt>
<trkpt lat="42.20951" lon="23.587164"><ele>2215.5</ele><time>2026-04-05T07:25:54.000Z</time></trkpt>
<trkpt lat="42.209504" lon="23.587169"><ele>2215.5</ele><time>2026-04-05T07:25:55.000Z</time></trkpt>
<trkpt lat="42.209499" lon="23.587175"><ele>2215.5</ele><time>2026-04-05T07:25:56.000Z</time></trkpt>
<trkpt lat="42.209493" lon="23.587181"><ele>2215.5</ele><time>2026-04-05T07:25:57.000Z</time></trkpt>
<trkpt lat="42.209487" lon="23.587188"><ele>2215.5</ele><time>2026-04-05T07:25:58.000Z</time></trkpt>
<trkpt lat="42.209482" lon="23.587194"><ele>2216.3</ele><time>2026-04-05T07:25:59.000Z</time></trkpt>
<trkpt lat="42.209476" lon="23.587199"><ele>2216.3</ele><time>2026-04-05T07:26:00.000Z</time></trkpt>
<trkpt lat="42.209469" lon="23.587203"><ele>2216.3</ele><time>2026-04-05T07:26:01.000Z</time></trkpt>
<trkpt lat="42.209463" lon="23.587205"><ele>2216.3</ele><time>2026-04-05T07:26:02.000Z</time></trkpt>
<trkpt lat="42.209456" lon="23.587208"><ele>2216.3</ele><time>2026-04-05T07:26:03.000Z</time></trkpt>
<trkpt lat="42.209451" lon="23.587209"><ele>2216.6</ele><time>2026-04-05T07:26:04.000Z</time></trkpt>
<trkpt lat="42.209446" lon="23.587209"><ele>2216.6</ele><time>2026-04-05T07:26:05.000Z</time></trkpt>
<trkpt lat="42.20944" lon="23.587211"><ele>2216.6</ele><time>2026-04-05T07:26:06.000Z</time></trkpt>
<trkpt lat="42.209436" lon="23.587211"><ele>2216.6</ele><time>2026-04-05T07:26:07.000Z</time></trkpt>
<trkpt lat="42.209433" lon="23.587211"><ele>2216.6</ele><time>2026-04-05T07:26:08.000Z</time></trkpt>
<trkpt lat="42.209431" lon="23.587211"><ele>2217.2</ele><time>2026-04-05T07:26:09.000Z</time></trkpt>
<trkpt lat="42.209428" lon="23.587211"><ele>2217.2</ele><time>2026-04-05T07:26:10.000Z</time></trkpt>
<trkpt lat="42.209426" lon="23.587211"><ele>2217.2</ele><time>2026-04-05T07:26:11.000Z</time></trkpt>
<trkpt lat="42.209424" lon="23.587212"><ele>2217.2</ele><time>2026-04-05T07:26:12.000Z</time></trkpt>
<trkpt lat="42.209421" lon="23.587213"><ele>2217.2</ele><time>2026-04-05T07:26:13.000Z</time></trkpt>
<trkpt lat="42.209417" lon="23.587214"><ele>2217.7</ele><time>2026-04-05T07:26:14.000Z</time></trkpt>
<trkpt lat="42.209415" lon="23.587215"><ele>2217.7</ele><time>2026-04-05T07:26:15.000Z</time></trkpt>
<trkpt lat="42.209412" lon="23.587216"><ele>2217.7</ele><time>2026-04-05T07:26:16.000Z</time></trkpt>
<trkpt lat="42.209409" lon="23.587216"><ele>2217.7</ele><time>2026-04-05T07:26:17.000Z</time></trkpt>
<trkpt lat="42.209407" lon="23.587217"><ele>2217.7</ele><time>2026-04-05T07:26:18.000Z</time></trkpt>
<trkpt lat="42.209404" lon="23.587218"><ele>2217.9</ele><time>2026-04-05T07:26:19.000Z</time></trkpt>
<trkpt lat="42.209402" lon="23.587219"><ele>2217.9</ele><time>2026-04-05T07:26:20.000Z</time></trkpt>
<trkpt lat="42.209401" lon="23.587219"><ele>2217.9</ele><time>2026-04-05T07:26:21.000Z</time></trkpt>
<trkpt lat="42.209399" lon="23.58722"><ele>2217.9</ele><time>2026-04-05T07:26:22.000Z</time></trkpt>
<trkpt lat="42.209397" lon="23.58722"><ele>2217.9</ele><time>2026-04-05T07:26:23.000Z</time></trkpt>
<trkpt lat="42.209394" lon="23.58722"><ele>2218.4</ele><time>2026-04-05T07:26:24.000Z</time></trkpt>
<trkpt lat="42.209391" lon="23.587219"><ele>2218.4</ele><time>2026-04-05T07:26:25.000Z</time></trkpt>
<trkpt lat="42.209389" lon="23.587218"><ele>2218.4</ele><time>2026-04-05T07:26:26.000Z</time></trkpt>
<trkpt lat="42.209386" lon="23.587217"><ele>2218.4</ele><time>2026-04-05T07:26:27.000Z</time></trkpt>
<trkpt lat="42.209383" lon="23.587215"><ele>2218.4</ele><time>2026-04-05T07:26:28.000Z</time></trkpt>
<trkpt lat="42.209381" lon="23.587213"><ele>2218.9</ele><time>2026-04-05T07:26:29.000Z</time></trkpt>
<trkpt lat="42.209378" lon="23.58721"><ele>2218.9</ele><time>2026-04-05T07:26:30.000Z</time></trkpt>
<trkpt lat="42.209374" lon="23.587208"><ele>2218.9</ele><time>2026-04-05T07:26:31.000Z</time></trkpt>
<trkpt lat="42.209369" lon="23.587206"><ele>2218.9</ele><time>2026-04-05T07:26:32.000Z</time></trkpt>
<trkpt lat="42.209365" lon="23.587204"><ele>2218.9</ele><time>2026-04-05T07:26:33.000Z</time></trkpt>
<trkpt lat="42.209361" lon="23.587204"><ele>2219.2</ele><time>2026-04-05T07:26:34.000Z</time></trkpt>
<trkpt lat="42.209358" lon="23.587205"><ele>2219.2</ele><time>2026-04-05T07:26:35.000Z</time></trkpt>
<trkpt lat="42.209356" lon="23.587205"><ele>2219.2</ele><time>2026-04-05T07:26:36.000Z</time></trkpt>
<trkpt lat="42.209353" lon="23.587205"><ele>2219.2</ele><time>2026-04-05T07:26:37.000Z</time></trkpt>
<trkpt lat="42.20935" lon="23.587205"><ele>2219.2</ele><time>2026-04-05T07:26:38.000Z</time></trkpt>
<trkpt lat="42.209347" lon="23.587205"><ele>2219.7</ele><time>2026-04-05T07:26:39.000Z</time></trkpt>
<trkpt lat="42.209343" lon="23.587202"><ele>2219.7</ele><time>2026-04-05T07:26:40.000Z</time></trkpt>
<trkpt lat="42.20934" lon="23.587198"><ele>2219.7</ele><time>2026-04-05T07:26:41.000Z</time></trkpt>
<trkpt lat="42.209338" lon="23.587194"><ele>2219.7</ele><time>2026-04-05T07:26:42.000Z</time></trkpt>
<trkpt lat="42.209335" lon="23.587189"><ele>2219.7</ele><time>2026-04-05T07:26:43.000Z</time></trkpt>
<trkpt lat="42.209332" lon="23.587185"><ele>2220.3</ele><time>2026-04-05T07:26:44.000Z</time></trkpt>
<trkpt lat="42.20933" lon="23.587182"><ele>2220.3</ele><time>2026-04-05T07:26:45.000Z</time></trkpt>
<trkpt lat="42.209327" lon="23.587182"><ele>2220.3</ele><time>2026-04-05T07:26:46.000Z</time></trkpt>
<trkpt lat="42.209325" lon="23.587181"><ele>2220.3</ele><time>2026-04-05T07:26:47.000Z</time></trkpt>
<trkpt lat="42.209323" lon="23.587181"><ele>2220.3</ele><time>2026-04-05T07:26:48.000Z</time></trkpt>
<trkpt lat="42.209322" lon="23.58718"><ele>2220.6</ele><time>2026-04-05T07:26:49.000Z</time></trkpt>
<trkpt lat="42.209321" lon="23.587179"><ele>2220.6</ele><time>2026-04-05T07:26:50.000Z</time></trkpt>
<trkpt lat="42.20932" lon="23.587178"><ele>2220.6</ele><time>2026-04-05T07:26:51.000Z</time></trkpt>
<trkpt lat="42.209318" lon="23.587177"><ele>2220.6</ele><time>2026-04-05T07:26:52.000Z</time></trkpt>
<trkpt lat="42.209317" lon="23.587177"><ele>2220.6</ele><time>2026-04-05T07:26:53.000Z</time></trkpt>
<trkpt lat="42.209317" lon="23.587178"><ele>2221.1</ele><time>2026-04-05T07:26:54.000Z</time></trkpt>
<trkpt lat="42.209316" lon="23.587178"><ele>2221.1</ele><time>2026-04-05T07:26:55.000Z</time></trkpt>
<trkpt lat="42.209315" lon="23.587178"><ele>2221.1</ele><time>2026-04-05T07:26:56.000Z</time></trkpt>
<trkpt lat="42.209316" lon="23.587178"><ele>2221.1</ele><time>2026-04-05T07:26:57.000Z</time></trkpt>
<trkpt lat="42.209316" lon="23.587178"><ele>2221.1</ele><time>2026-04-05T07:26:58.000Z</time></trkpt>
<trkpt lat="42.209316" lon="23.587178"><ele>2221.5</ele><time>2026-04-05T07:26:59.000Z</time></trkpt>
<trkpt lat="42.209316" lon="23.587178"><ele>2221.5</ele><time>2026-04-05T07:27:00.000Z</time></trkpt>
<trkpt lat="42.209316" lon="23.587178"><ele>2221.5</ele><time>2026-04-05T07:27:01.000Z</time></trkpt>
<trkpt lat="42.209316" lon="23.587178"><ele>2221.5</ele><time>2026-04-05T07:27:02.000Z</time></trkpt>
<trkpt lat="42.209316" lon="23.587178"><ele>2221.5</ele><time>2026-04-05T07:27:03.000Z</time></trkpt>
<trkpt lat="42.209316" lon="23.587179"><ele>2221.7</ele><time>2026-04-05T07:27:04.000Z</time></trkpt>
<trkpt lat="42.209314" lon="23.58718"><ele>2221.7</ele><time>2026-04-05T07:27:05.000Z</time></trkpt>
<trkpt lat="42.209312" lon="23.587181"><ele>2221.7</ele><time>2026-04-05T07:27:06.000Z</time></trkpt>
<trkpt lat="42.209309" lon="23.587182"><ele>2221.7</ele><time>2026-04-05T07:27:07.000Z</time></trkpt>
<trkpt lat="42.209305" lon="23.587182"><ele>2221.7</ele><time>2026-04-05T07:27:08.000Z</time></trkpt>
<trkpt lat="42.2093" lon="23.587181"><ele>2221.7</ele><time>2026-04-05T07:27:09.000Z</time></trkpt>
<trkpt lat="42.209296" lon="23.58718"><ele>2221.7</ele><time>2026-04-05T07:27:10.000Z</time></trkpt>
<trkpt lat="42.20929" lon="23.587179"><ele>2221.7</ele><time>2026-04-05T07:27:11.000Z</time></trkpt>
<trkpt lat="42.209283" lon="23.587178"><ele>2221.7</ele><time>2026-04-05T07:27:12.000Z</time></trkpt>
<trkpt lat="42.209277" lon="23.587178"><ele>2221.7</ele><time>2026-04-05T07:27:13.000Z</time></trkpt>
<trkpt lat="42.209269" lon="23.587179"><ele>2221.7</ele><time>2026-04-05T07:27:14.000Z</time></trkpt>
<trkpt lat="42.209261" lon="23.58718"><ele>2221.7</ele><time>2026-04-05T07:27:15.000Z</time></trkpt>
<trkpt lat="42.209255" lon="23.587181"><ele>2221.7</ele><time>2026-04-05T07:27:16.000Z</time></trkpt>
<trkpt lat="42.209247" lon="23.587183"><ele>2221.7</ele><time>2026-04-05T07:27:17.000Z</time></trkpt>
<trkpt lat="42.20924" lon="23.587184"><ele>2221.7</ele><time>2026-04-05T07:27:18.000Z</time></trkpt>
<trkpt lat="42.209233" lon="23.587185"><ele>2221.7</ele><time>2026-04-05T07:27:19.000Z</time></trkpt>
<trkpt lat="42.209226" lon="23.587186"><ele>2221.7</ele><time>2026-04-05T07:27:20.000Z</time></trkpt>
<trkpt lat="42.209218" lon="23.587188"><ele>2221.7</ele><time>2026-04-05T07:27:21.000Z</time></trkpt>
<trkpt lat="42.209212" lon="23.587189"><ele>2221.7</ele><time>2026-04-05T07:27:22.000Z</time></trkpt>
<trkpt lat="42.209205" lon="23.58719"><ele>2221.7</ele><time>2026-04-05T07:27:23.000Z</time></trkpt>
<trkpt lat="42.209199" lon="23.587191"><ele>2222.1</ele><time>2026-04-05T07:27:24.000Z</time></trkpt>
<trkpt lat="42.209193" lon="23.58719"><ele>2222.1</ele><time>2026-04-05T07:27:25.000Z</time></trkpt>
<trkpt lat="42.209187" lon="23.58719"><ele>2222.1</ele><time>2026-04-05T07:27:26.000Z</time></trkpt>
<trkpt lat="42.20918" lon="23.587189"><ele>2222.1</ele><time>2026-04-05T07:27:27.000Z</time></trkpt>
<trkpt lat="42.209173" lon="23.587188"><ele>2222.1</ele><time>2026-04-05T07:27:28.000Z</time></trkpt>
<trkpt lat="42.209167" lon="23.587187"><ele>2222.8</ele><time>2026-04-05T07:27:29.000Z</time></trkpt>
<trkpt lat="42.209161" lon="23.587186"><ele>2222.8</ele><time>2026-04-05T07:27:30.000Z</time></trkpt>
<trkpt lat="42.209155" lon="23.587185"><ele>2222.8</ele><time>2026-04-05T07:27:31.000Z</time></trkpt>
<trkpt lat="42.20915" lon="23.587184"><ele>2222.8</ele><time>2026-04-05T07:27:32.000Z</time></trkpt>
<trkpt lat="42.209144" lon="23.587183"><ele>2222.8</ele><time>2026-04-05T07:27:33.000Z</time></trkpt>
<trkpt lat="42.209137" lon="23.587181"><ele>2223.3</ele><time>2026-04-05T07:27:34.000Z</time></trkpt>
<trkpt lat="42.20913" lon="23.587178"><ele>2223.3</ele><time>2026-04-05T07:27:35.000Z</time></trkpt>
<trkpt lat="42.209123" lon="23.587176"><ele>2223.3</ele><time>2026-04-05T07:27:36.000Z</time></trkpt>
<trkpt lat="42.209116" lon="23.587175"><ele>2223.3</ele><time>2026-04-05T07:27:37.000Z</time></trkpt>
<trkpt lat="42.209109" lon="23.587172"><ele>2223.3</ele><time>2026-04-05T07:27:38.000Z</time></trkpt>
<trkpt lat="42.209103" lon="23.58717"><ele>2224.2</ele><time>2026-04-05T07:27:39.000Z</time></trkpt>
<trkpt lat="42.209095" lon="23.587168"><ele>2224.2</ele><time>2026-04-05T07:27:40.000Z</time></trkpt>
<trkpt lat="42.209087" lon="23.587166"><ele>2224.2</ele><time>2026-04-05T07:27:41.000Z</time></trkpt>
<trkpt lat="42.209079" lon="23.587165"><ele>2224.2</ele><time>2026-04-05T07:27:42.000Z</time></trkpt>
<trkpt lat="42.20907" lon="23.587164"><ele>2224.2</ele><time>2026-04-05T07:27:43.000Z</time></trkpt>
<trkpt lat="42.209061" lon="23.587163"><ele>2225.1</ele><time>2026-04-05T07:27:44.000Z</time></trkpt>
<trkpt lat="42.209053" lon="23.587163"><ele>2225.1</ele><time>2026-04-05T07:27:45.000Z</time></trkpt>
<trkpt lat="42.209046" lon="23.587164"><ele>2225.1</ele><time>2026-04-05T07:27:46.000Z</time></trkpt>
<trkpt lat="42.209038" lon="23.587162"><ele>2225.1</ele><time>2026-04-05T07:27:47.000Z</time></trkpt>
<trkpt lat="42.209032" lon="23.587161"><ele>2225.1</ele><time>2026-04-05T07:27:48.000Z</time></trkpt>
<trkpt lat="42.209026" lon="23.58716"><ele>2225.5</ele><time>2026-04-05T07:27:49.000Z</time></trkpt>
<trkpt lat="42.20902" lon="23.587159"><ele>2225.5</ele><time>2026-04-05T07:27:50.000Z</time></trkpt>
<trkpt lat="42.209013" lon="23.587159"><ele>2225.5</ele><time>2026-04-05T07:27:51.000Z</time></trkpt>
<trkpt lat="42.209005" lon="23.587158"><ele>2225.5</ele><time>2026-04-05T07:27:52.000Z</time></trkpt>
<trkpt lat="42.208997" lon="23.587157"><ele>2225.5</ele><time>2026-04-05T07:27:53.000Z</time></trkpt>
<trkpt lat="42.208989" lon="23.587154"><ele>2226.3</ele><time>2026-04-05T07:27:54.000Z</time></trkpt>
<trkpt lat="42.20898" lon="23.587151"><ele>2226.3</ele><time>2026-04-05T07:27:55.000Z</time></trkpt>
<trkpt lat="42.208972" lon="23.587147"><ele>2226.3</ele><time>2026-04-05T07:27:56.000Z</time></trkpt>
<trkpt lat="42.208964" lon="23.587144"><ele>2226.3</ele><time>2026-04-05T07:27:57.000Z</time></trkpt>
<trkpt lat="42.208957" lon="23.587141"><ele>2226.3</ele><time>2026-04-05T07:27:58.000Z</time></trkpt>
<trkpt lat="42.208949" lon="23.587138"><ele>2227.1</ele><time>2026-04-05T07:27:59.000Z</time></trkpt>
<trkpt lat="42.208941" lon="23.587136"><ele>2227.1</ele><time>2026-04-05T07:28:00.000Z</time></trkpt>
<trkpt lat="42.208934" lon="23.587135"><ele>2227.1</ele><time>2026-04-05T07:28:01.000Z</time></trkpt>
<trkpt lat="42.208928" lon="23.587134"><ele>2227.1</ele><time>2026-04-05T07:28:02.000Z</time></trkpt>
<trkpt lat="42.208919" lon="23.587133"><ele>2227.1</ele><time>2026-04-05T07:28:03.000Z</time></trkpt>
<trkpt lat="42.208912" lon="23.587132"><ele>2227.4</ele><time>2026-04-05T07:28:04.000Z</time></trkpt>
<trkpt lat="42.208904" lon="23.587132"><ele>2227.4</ele><time>2026-04-05T07:28:05.000Z</time></trkpt>
<trkpt lat="42.208895" lon="23.587133"><ele>2227.4</ele><time>2026-04-05T07:28:06.000Z</time></trkpt>
<trkpt lat="42.208886" lon="23.587133"><ele>2227.4</ele><time>2026-04-05T07:28:07.000Z</time></trkpt>
<trkpt lat="42.208877" lon="23.587133"><ele>2227.4</ele><time>2026-04-05T07:28:08.000Z</time></trkpt>
<trkpt lat="42.208868" lon="23.587134"><ele>2228</ele><time>2026-04-05T07:28:09.000Z</time></trkpt>
<trkpt lat="42.208859" lon="23.587135"><ele>2228</ele><time>2026-04-05T07:28:10.000Z</time></trkpt>
<trkpt lat="42.208851" lon="23.587136"><ele>2228</ele><time>2026-04-05T07:28:11.000Z</time></trkpt>
<trkpt lat="42.208843" lon="23.587137"><ele>2228</ele><time>2026-04-05T07:28:12.000Z</time></trkpt>
<trkpt lat="42.208834" lon="23.587138"><ele>2228</ele><time>2026-04-05T07:28:13.000Z</time></trkpt>
<trkpt lat="42.208826" lon="23.587138"><ele>2228.4</ele><time>2026-04-05T07:28:14.000Z</time></trkpt>
<trkpt lat="42.208818" lon="23.587139"><ele>2228.4</ele><time>2026-04-05T07:28:15.000Z</time></trkpt>
<trkpt lat="42.208809" lon="23.587141"><ele>2228.4</ele><time>2026-04-05T07:28:16.000Z</time></trkpt>
<trkpt lat="42.208801" lon="23.587145"><ele>2228.4</ele><time>2026-04-05T07:28:17.000Z</time></trkpt>
<trkpt lat="42.208792" lon="23.587148"><ele>2228.4</ele><time>2026-04-05T07:28:18.000Z</time></trkpt>
<trkpt lat="42.208783" lon="23.587152"><ele>2228.6</ele><time>2026-04-05T07:28:19.000Z</time></trkpt>
<trkpt lat="42.208775" lon="23.587156"><ele>2228.6</ele><time>2026-04-05T07:28:20.000Z</time></trkpt>
<trkpt lat="42.208767" lon="23.58716"><ele>2228.6</ele><time>2026-04-05T07:28:21.000Z</time></trkpt>
<trkpt lat="42.208759" lon="23.587165"><ele>2228.6</ele><time>2026-04-05T07:28:22.000Z</time></trkpt>
<trkpt lat="42.208751" lon="23.587169"><ele>2228.6</ele><time>2026-04-05T07:28:23.000Z</time></trkpt>
<trkpt lat="42.208744" lon="23.587172"><ele>2229.1</ele><time>2026-04-05T07:28:24.000Z</time></trkpt>
<trkpt lat="42.208736" lon="23.587176"><ele>2229.1</ele><time>2026-04-05T07:28:25.000Z</time></trkpt>
<trkpt lat="42.208728" lon="23.58718"><ele>2229.1</ele><time>2026-04-05T07:28:26.000Z</time></trkpt>
<trkpt lat="42.20872" lon="23.587183"><ele>2229.1</ele><time>2026-04-05T07:28:27.000Z</time></trkpt>
<trkpt lat="42.208712" lon="23.587188"><ele>2229.1</ele><time>2026-04-05T07:28:28.000Z</time></trkpt>
<trkpt lat="42.208704" lon="23.587195"><ele>2229.7</ele><time>2026-04-05T07:28:29.000Z</time></trkpt>
<trkpt lat="42.208696" lon="23.587201"><ele>2229.7</ele><time>2026-04-05T07:28:30.000Z</time></trkpt>
<trkpt lat="42.20869" lon="23.587207"><ele>2229.7</ele><time>2026-04-05T07:28:31.000Z</time></trkpt>
<trkpt lat="42.208682" lon="23.587213"><ele>2229.7</ele><time>2026-04-05T07:28:32.000Z</time></trkpt>
<trkpt lat="42.208675" lon="23.587218"><ele>2229.7</ele><time>2026-04-05T07:28:33.000Z</time></trkpt>
<trkpt lat="42.208669" lon="23.587224"><ele>2230.1</ele><time>2026-04-05T07:28:34.000Z</time></trkpt>
<trkpt lat="42.208662" lon="23.587229"><ele>2230.1</ele><time>2026-04-05T07:28:35.000Z</time></trkpt>
<trkpt lat="42.208655" lon="23.587234"><ele>2230.1</ele><time>2026-04-05T07:28:36.000Z</time></trkpt>
<trkpt lat="42.208649" lon="23.587239"><ele>2230.1</ele><time>2026-04-05T07:28:37.000Z</time></trkpt>
<trkpt lat="42.208644" lon="23.587244"><ele>2230.1</ele><time>2026-04-05T07:28:38.000Z</time></trkpt>
<trkpt lat="42.208638" lon="23.587248"><ele>2230.9</ele><time>2026-04-05T07:28:39.000Z</time></trkpt>
<trkpt lat="42.208632" lon="23.587253"><ele>2230.9</ele><time>2026-04-05T07:28:40.000Z</time></trkpt>
<trkpt lat="42.208626" lon="23.587257"><ele>2230.9</ele><time>2026-04-05T07:28:41.000Z</time></trkpt>
<trkpt lat="42.20862" lon="23.587261"><ele>2230.9</ele><time>2026-04-05T07:28:42.000Z</time></trkpt>
<trkpt lat="42.208612" lon="23.587265"><ele>2230.9</ele><time>2026-04-05T07:28:43.000Z</time></trkpt>
<trkpt lat="42.208604" lon="23.587269"><ele>2231.8</ele><time>2026-04-05T07:28:44.000Z</time></trkpt>
<trkpt lat="42.208597" lon="23.587273"><ele>2231.8</ele><time>2026-04-05T07:28:45.000Z</time></trkpt>
<trkpt lat="42.208588" lon="23.587278"><ele>2231.8</ele><time>2026-04-05T07:28:46.000Z</time></trkpt>
<trkpt lat="42.20858" lon="23.587282"><ele>2231.8</ele><time>2026-04-05T07:28:47.000Z</time></trkpt>
<trkpt lat="42.208572" lon="23.587286"><ele>2231.8</ele><time>2026-04-05T07:28:48.000Z</time></trkpt>
<trkpt lat="42.208564" lon="23.587291"><ele>2232.2</ele><time>2026-04-05T07:28:49.000Z</time></trkpt>
<trkpt lat="42.208557" lon="23.587295"><ele>2232.2</ele><time>2026-04-05T07:28:50.000Z</time></trkpt>
<trkpt lat="42.20855" lon="23.587299"><ele>2232.2</ele><time>2026-04-05T07:28:51.000Z</time></trkpt>
<trkpt lat="42.208542" lon="23.587304"><ele>2232.2</ele><time>2026-04-05T07:28:52.000Z</time></trkpt>
<trkpt lat="42.208533" lon="23.587308"><ele>2232.2</ele><time>2026-04-05T07:28:53.000Z</time></trkpt>
<trkpt lat="42.208526" lon="23.587312"><ele>2232.9</ele><time>2026-04-05T07:28:54.000Z</time></trkpt>
<trkpt lat="42.208518" lon="23.587318"><ele>2232.9</ele><time>2026-04-05T07:28:55.000Z</time></trkpt>
<trkpt lat="42.20851" lon="23.587324"><ele>2232.9</ele><time>2026-04-05T07:28:56.000Z</time></trkpt>
<trkpt lat="42.208503" lon="23.587329"><ele>2232.9</ele><time>2026-04-05T07:28:57.000Z</time></trkpt>
<trkpt lat="42.208495" lon="23.587335"><ele>2232.9</ele><time>2026-04-05T07:28:58.000Z</time></trkpt>
<trkpt lat="42.208488" lon="23.587341"><ele>2233.6</ele><time>2026-04-05T07:28:59.000Z</time></trkpt>
<trkpt lat="42.208481" lon="23.587347"><ele>2233.6</ele><time>2026-04-05T07:29:00.000Z</time></trkpt>
<trkpt lat="42.208474" lon="23.587352"><ele>2233.6</ele><time>2026-04-05T07:29:01.000Z</time></trkpt>
<trkpt lat="42.208465" lon="23.587358"><ele>2233.6</ele><time>2026-04-05T07:29:02.000Z</time></trkpt>
<trkpt lat="42.208457" lon="23.587364"><ele>2233.6</ele><time>2026-04-05T07:29:03.000Z</time></trkpt>
<trkpt lat="42.20845" lon="23.587368"><ele>2233.9</ele><time>2026-04-05T07:29:04.000Z</time></trkpt>
<trkpt lat="42.208442" lon="23.587371"><ele>2233.9</ele><time>2026-04-05T07:29:05.000Z</time></trkpt>
<trkpt lat="42.208435" lon="23.587374"><ele>2233.9</ele><time>2026-04-05T07:29:06.000Z</time></trkpt>
<trkpt lat="42.208429" lon="23.587377"><ele>2233.9</ele><time>2026-04-05T07:29:07.000Z</time></trkpt>
<trkpt lat="42.208424" lon="23.58738"><ele>2233.9</ele><time>2026-04-05T07:29:08.000Z</time></trkpt>
<trkpt lat="42.208418" lon="23.587383"><ele>2234.7</ele><time>2026-04-05T07:29:09.000Z</time></trkpt>
<trkpt lat="42.208412" lon="23.587387"><ele>2234.7</ele><time>2026-04-05T07:29:10.000Z</time></trkpt>
<trkpt lat="42.208406" lon="23.58739"><ele>2234.7</ele><time>2026-04-05T07:29:11.000Z</time></trkpt>
<trkpt lat="42.208398" lon="23.587394"><ele>2234.7</ele><time>2026-04-05T07:29:12.000Z</time></trkpt>
<trkpt lat="42.208389" lon="23.587398"><ele>2234.7</ele><time>2026-04-05T07:29:13.000Z</time></trkpt>
<trkpt lat="42.208381" lon="23.587401"><ele>2235.3</ele><time>2026-04-05T07:29:14.000Z</time></trkpt>
<trkpt lat="42.208371" lon="23.587403"><ele>2235.3</ele><time>2026-04-05T07:29:15.000Z</time></trkpt>
<trkpt lat="42.208361" lon="23.587406"><ele>2235.3</ele><time>2026-04-05T07:29:16.000Z</time></trkpt>
<trkpt lat="42.208353" lon="23.587408"><ele>2235.3</ele><time>2026-04-05T07:29:17.000Z</time></trkpt>
<trkpt lat="42.208345" lon="23.587411"><ele>2235.3</ele><time>2026-04-05T07:29:18.000Z</time></trkpt>
<trkpt lat="42.208338" lon="23.587415"><ele>2235.6</ele><time>2026-04-05T07:29:19.000Z</time></trkpt>
<trkpt lat="42.208333" lon="23.58742"><ele>2235.6</ele><time>2026-04-05T07:29:20.000Z</time></trkpt>
<trkpt lat="42.20833" lon="23.587427"><ele>2235.6</ele><time>2026-04-05T07:29:21.000Z</time></trkpt>
<trkpt lat="42.208329" lon="23.587435"><ele>2235.6</ele><time>2026-04-05T07:29:22.000Z</time></trkpt>
<trkpt lat="42.208329" lon="23.587444"><ele>2235.6</ele><time>2026-04-05T07:29:23.000Z</time></trkpt>
<trkpt lat="42.20833" lon="23.587453"><ele>2236.3</ele><time>2026-04-05T07:29:24.000Z</time></trkpt>
<trkpt lat="42.208332" lon="23.587463"><ele>2236.3</ele><time>2026-04-05T07:29:25.000Z</time></trkpt>
<trkpt lat="42.208334" lon="23.587474"><ele>2236.3</ele><time>2026-04-05T07:29:26.000Z</time></trkpt>
<trkpt lat="42.208335" lon="23.587486"><ele>2236.3</ele><time>2026-04-05T07:29:27.000Z</time></trkpt>
<trkpt lat="42.208336" lon="23.587497"><ele>2236.3</ele><time>2026-04-05T07:29:28.000Z</time></trkpt>
<trkpt lat="42.208336" lon="23.587509"><ele>2237</ele><time>2026-04-05T07:29:29.000Z</time></trkpt>
<trkpt lat="42.208336" lon="23.587521"><ele>2237</ele><time>2026-04-05T07:29:30.000Z</time></trkpt>
<trkpt lat="42.208336" lon="23.587531"><ele>2237</ele><time>2026-04-05T07:29:31.000Z</time></trkpt>
<trkpt lat="42.208336" lon="23.587539"><ele>2237</ele><time>2026-04-05T07:29:32.000Z</time></trkpt>
<trkpt lat="42.208337" lon="23.587546"><ele>2237</ele><time>2026-04-05T07:29:33.000Z</time></trkpt>
<trkpt lat="42.208337" lon="23.58755"><ele>2237.4</ele><time>2026-04-05T07:29:34.000Z</time></trkpt>
<trkpt lat="42.208337" lon="23.587553"><ele>2237.4</ele><time>2026-04-05T07:29:35.000Z</time></trkpt>
<trkpt lat="42.208336" lon="23.587554"><ele>2237.4</ele><time>2026-04-05T07:29:36.000Z</time></trkpt>
<trkpt lat="42.208336" lon="23.587554"><ele>2237.4</ele><time>2026-04-05T07:29:37.000Z</time></trkpt>
<trkpt lat="42.208336" lon="23.587555"><ele>2237.4</ele><time>2026-04-05T07:29:38.000Z</time></trkpt>
<trkpt lat="42.208335" lon="23.587554"><ele>2238</ele><time>2026-04-05T07:29:39.000Z</time></trkpt>
<trkpt lat="42.208335" lon="23.587554"><ele>2238</ele><time>2026-04-05T07:29:40.000Z</time></trkpt>
<trkpt lat="42.208336" lon="23.587555"><ele>2238</ele><time>2026-04-05T07:29:41.000Z</time></trkpt>
<trkpt lat="42.208336" lon="23.587556"><ele>2238</ele><time>2026-04-05T07:29:42.000Z</time></trkpt>
<trkpt lat="42.208337" lon="23.587557"><ele>2238</ele><time>2026-04-05T07:29:43.000Z</time></trkpt>
<trkpt lat="42.208337" lon="23.587558"><ele>2238.4</ele><time>2026-04-05T07:29:44.000Z</time></trkpt>
<trkpt lat="42.208336" lon="23.587559"><ele>2238.4</ele><time>2026-04-05T07:29:45.000Z</time></trkpt>
<trkpt lat="42.208335" lon="23.587558"><ele>2238.4</ele><time>2026-04-05T07:29:46.000Z</time></trkpt>
<trkpt lat="42.208334" lon="23.587558"><ele>2238.4</ele><time>2026-04-05T07:29:47.000Z</time></trkpt>
<trkpt lat="42.208333" lon="23.587558"><ele>2238.4</ele><time>2026-04-05T07:29:48.000Z</time></trkpt>
<trkpt lat="42.208332" lon="23.587558"><ele>2238.5</ele><time>2026-04-05T07:29:49.000Z</time></trkpt>
<trkpt lat="42.208332" lon="23.587559"><ele>2238.5</ele><time>2026-04-05T07:29:50.000Z</time></trkpt>
<trkpt lat="42.208332" lon="23.58756"><ele>2238.5</ele><time>2026-04-05T07:29:51.000Z</time></trkpt>
<trkpt lat="42.208331" lon="23.58756"><ele>2238.5</ele><time>2026-04-05T07:29:52.000Z</time></trkpt>
<trkpt lat="42.208331" lon="23.587561"><ele>2238.5</ele><time>2026-04-05T07:29:53.000Z</time></trkpt>
<trkpt lat="42.208331" lon="23.587562"><ele>2238.7</ele><time>2026-04-05T07:29:54.000Z</time></trkpt>
<trkpt lat="42.208331" lon="23.587562"><ele>2238.7</ele><time>2026-04-05T07:29:55.000Z</time></trkpt>
<trkpt lat="42.208331" lon="23.587562"><ele>2238.7</ele><time>2026-04-05T07:29:56.000Z</time></trkpt>
<trkpt lat="42.208331" lon="23.587562"><ele>2238.7</ele><time>2026-04-05T07:29:57.000Z</time></trkpt>
<trkpt lat="42.208331" lon="23.587562"><ele>2238.7</ele><time>2026-04-05T07:29:58.000Z</time></trkpt>
<trkpt lat="42.208331" lon="23.587562"><ele>2238.7</ele><time>2026-04-05T07:29:59.000Z</time></trkpt>
<trkpt lat="42.208331" lon="23.587562"><ele>2238.7</ele><time>2026-04-05T07:30:00.000Z</time></trkpt>
<trkpt lat="42.208331" lon="23.587562"><ele>2238.7</ele><time>2026-04-05T07:30:01.000Z</time></trkpt>
<trkpt lat="42.208331" lon="23.587562"><ele>2238.7</ele><time>2026-04-05T07:30:02.000Z</time></trkpt>
<trkpt lat="42.208331" lon="23.587562"><ele>2238.7</ele><time>2026-04-05T07:30:03.000Z</time></trkpt>
<trkpt lat="42.208331" lon="23.587562"><ele>2238.7</ele><time>2026-04-05T07:30:04.000Z</time></trkpt>
<trkpt lat="42.208331" lon="23.587562"><ele>2238.7</ele><time>2026-04-05T07:30:05.000Z</time></trkpt>
<trkpt lat="42.208331" lon="23.587562"><ele>2238.7</ele><time>2026-04-05T07:30:06.000Z</time></trkpt>
<trkpt lat="42.208331" lon="23.587562"><ele>2238.7</ele><time>2026-04-05T07:30:07.000Z</time></trkpt>
<trkpt lat="42.208331" lon="23.587562"><ele>2238.7</ele><time>2026-04-05T07:30:08.000Z</time></trkpt>
<trkpt lat="42.208331" lon="23.587562"><ele>2238.7</ele><time>2026-04-05T07:30:09.000Z</time></trkpt>
<trkpt lat="42.208331" lon="23.587562"><ele>2238.7</ele><time>2026-04-05T07:30:10.000Z</time></trkpt>
<trkpt lat="42.208331" lon="23.587562"><ele>2238.7</ele><time>2026-04-05T07:30:11.000Z</time></trkpt>
<trkpt lat="42.208331" lon="23.587562"><ele>2238.7</ele><time>2026-04-05T07:30:12.000Z</time></trkpt>
<trkpt lat="42.208331" lon="23.587562"><ele>2238.7</ele><time>2026-04-05T07:30:13.000Z</time></trkpt>
<trkpt lat="42.208331" lon="23.587562"><ele>2238.7</ele><time>2026-04-05T07:30:14.000Z</time></trkpt>
<trkpt lat="42.208332" lon="23.587562"><ele>2238.7</ele><time>2026-04-05T07:30:15.000Z</time></trkpt>
<trkpt lat="42.208332" lon="23.587562"><ele>2238.7</ele><time>2026-04-05T07:30:16.000Z</time></trkpt>
<trkpt lat="42.208332" lon="23.587562"><ele>2238.7</ele><time>2026-04-05T07:30:17.000Z</time></trkpt>
<trkpt lat="42.208332" lon="23.587563"><ele>2238.7</ele><time>2026-04-05T07:30:18.000Z</time></trkpt>
<trkpt lat="42.208332" lon="23.587563"><ele>2238.7</ele><time>2026-04-05T07:30:19.000Z</time></trkpt>
<trkpt lat="42.208332" lon="23.587564"><ele>2238.7</ele><time>2026-04-05T07:30:20.000Z</time></trkpt>
<trkpt lat="42.208332" lon="23.587564"><ele>2238.7</ele><time>2026-04-05T07:30:21.000Z</time></trkpt>
<trkpt lat="42.208332" lon="23.587564"><ele>2238.7</ele><time>2026-04-05T07:30:22.000Z</time></trkpt>
<trkpt lat="42.208332" lon="23.587564"><ele>2238.7</ele><time>2026-04-05T07:30:23.000Z</time></trkpt>
<trkpt lat="42.208332" lon="23.587564"><ele>2238.8</ele><time>2026-04-05T07:30:24.000Z</time></trkpt>
<trkpt lat="42.208332" lon="23.587564"><ele>2238.8</ele><time>2026-04-05T07:30:25.000Z</time></trkpt>
<trkpt lat="42.208332" lon="23.587565"><ele>2238.8</ele><time>2026-04-05T07:30:26.000Z</time></trkpt>
<trkpt lat="42.208332" lon="23.587565"><ele>2238.8</ele><time>2026-04-05T07:30:27.000Z</time></trkpt>
<trkpt lat="42.208332" lon="23.587565"><ele>2238.8</ele><time>2026-04-05T07:30:28.000Z</time></trkpt>
<trkpt lat="42.208332" lon="23.587565"><ele>2239</ele><time>2026-04-05T07:30:29.000Z</time></trkpt>
<trkpt lat="42.208332" lon="23.587565"><ele>2239</ele><time>2026-04-05T07:30:30.000Z</time></trkpt>
<trkpt lat="42.208332" lon="23.587565"><ele>2239</ele><time>2026-04-05T07:30:31.000Z</time></trkpt>
<trkpt lat="42.208332" lon="23.587565"><ele>2239</ele><time>2026-04-05T07:30:32.000Z</time></trkpt>
<trkpt lat="42.208332" lon="23.587565"><ele>2239</ele><time>2026-04-05T07:30:33.000Z</time></trkpt>
<trkpt lat="42.208332" lon="23.587565"><ele>2239.1</ele><time>2026-04-05T07:30:34.000Z</time></trkpt>
<trkpt lat="42.208332" lon="23.587565"><ele>2239.1</ele><time>2026-04-05T07:30:35.000Z</time></trkpt>
<trkpt lat="42.208332" lon="23.587565"><ele>2239.1</ele><time>2026-04-05T07:30:36.000Z</time></trkpt>
<trkpt lat="42.208332" lon="23.587565"><ele>2239.1</ele><time>2026-04-05T07:30:37.000Z</time></trkpt>
<trkpt lat="42.208332" lon="23.587565"><ele>2239.1</ele><time>2026-04-05T07:30:38.000Z</time></trkpt>
<trkpt lat="42.208332" lon="23.587565"><ele>2239.2</ele><time>2026-04-05T07:30:39.000Z</time></trkpt>
<trkpt lat="42.208332" lon="23.587565"><ele>2239.2</ele><time>2026-04-05T07:30:40.000Z</time></trkpt>
<trkpt lat="42.208332" lon="23.587565"><ele>2239.2</ele><time>2026-04-05T07:30:41.000Z</time></trkpt>
<trkpt lat="42.208332" lon="23.587565"><ele>2239.2</ele><time>2026-04-05T07:30:42.000Z</time></trkpt>
<trkpt lat="42.208332" lon="23.587565"><ele>2239.2</ele><time>2026-04-05T07:30:43.000Z</time></trkpt>
<trkpt lat="42.208332" lon="23.587565"><ele>2239.2</ele><time>2026-04-05T07:30:44.000Z</time></trkpt>
<trkpt lat="42.208331" lon="23.587565"><ele>2239.2</ele><time>2026-04-05T07:30:45.000Z</time></trkpt>
<trkpt lat="42.208332" lon="23.587565"><ele>2239.2</ele><time>2026-04-05T07:30:46.000Z</time></trkpt>
<trkpt lat="42.208332" lon="23.587565"><ele>2239.2</ele><time>2026-04-05T07:30:47.000Z</time></trkpt>
<trkpt lat="42.208333" lon="23.587566"><ele>2239.2</ele><time>2026-04-05T07:30:48.000Z</time></trkpt>
<trkpt lat="42.208333" lon="23.587565"><ele>2239.2</ele><time>2026-04-05T07:30:49.000Z</time></trkpt>
<trkpt lat="42.208335" lon="23.587566"><ele>2239.2</ele><time>2026-04-05T07:30:50.000Z</time></trkpt>
<trkpt lat="42.208336" lon="23.587566"><ele>2239.2</ele><time>2026-04-05T07:30:51.000Z</time></trkpt>
<trkpt lat="42.208337" lon="23.587567"><ele>2239.2</ele><time>2026-04-05T07:30:52.000Z</time></trkpt>
<trkpt lat="42.208338" lon="23.587568"><ele>2239.2</ele><time>2026-04-05T07:30:53.000Z</time></trkpt>
<trkpt lat="42.208339" lon="23.587568"><ele>2239.1</ele><time>2026-04-05T07:30:54.000Z</time></trkpt>
<trkpt lat="42.208339" lon="23.587569"><ele>2239.1</ele><time>2026-04-05T07:30:55.000Z</time></trkpt>
<trkpt lat="42.208339" lon="23.587569"><ele>2239.1</ele><time>2026-04-05T07:30:56.000Z</time></trkpt>
<trkpt lat="42.208339" lon="23.587569"><ele>2239.1</ele><time>2026-04-05T07:30:57.000Z</time></trkpt>
<trkpt lat="42.208339" lon="23.587569"><ele>2239.1</ele><time>2026-04-05T07:30:58.000Z</time></trkpt>
<trkpt lat="42.208339" lon="23.587569"><ele>2239</ele><time>2026-04-05T07:30:59.000Z</time></trkpt>
<trkpt lat="42.208339" lon="23.58757"><ele>2239</ele><time>2026-04-05T07:31:00.000Z</time></trkpt>
<trkpt lat="42.208338" lon="23.587571"><ele>2239</ele><time>2026-04-05T07:31:01.000Z</time></trkpt>
<trkpt lat="42.208336" lon="23.587572"><ele>2239</ele><time>2026-04-05T07:31:02.000Z</time></trkpt>
<trkpt lat="42.208332" lon="23.587572"><ele>2239</ele><time>2026-04-05T07:31:03.000Z</time></trkpt>
<trkpt lat="42.208326" lon="23.58757"><ele>2239</ele><time>2026-04-05T07:31:04.000Z</time></trkpt>
<trkpt lat="42.208319" lon="23.587565"><ele>2239</ele><time>2026-04-05T07:31:05.000Z</time></trkpt>
<trkpt lat="42.208313" lon="23.587558"><ele>2239</ele><time>2026-04-05T07:31:06.000Z</time></trkpt>
<trkpt lat="42.208307" lon="23.587547"><ele>2239</ele><time>2026-04-05T07:31:07.000Z</time></trkpt>
<trkpt lat="42.208302" lon="23.587536"><ele>2239</ele><time>2026-04-05T07:31:08.000Z</time></trkpt>
<trkpt lat="42.208297" lon="23.587525"><ele>2238.9</ele><time>2026-04-05T07:31:09.000Z</time></trkpt>
<trkpt lat="42.208292" lon="23.587514"><ele>2238.9</ele><time>2026-04-05T07:31:10.000Z</time></trkpt>
<trkpt lat="42.208287" lon="23.587503"><ele>2238.9</ele><time>2026-04-05T07:31:11.000Z</time></trkpt>
<trkpt lat="42.20828" lon="23.587493"><ele>2238.9</ele><time>2026-04-05T07:31:12.000Z</time></trkpt>
<trkpt lat="42.208274" lon="23.587484"><ele>2238.9</ele><time>2026-04-05T07:31:13.000Z</time></trkpt>
<trkpt lat="42.208266" lon="23.587476"><ele>2239.1</ele><time>2026-04-05T07:31:14.000Z</time></trkpt>
<trkpt lat="42.208259" lon="23.587469"><ele>2239.1</ele><time>2026-04-05T07:31:15.000Z</time></trkpt>
<trkpt lat="42.208251" lon="23.587465"><ele>2239.1</ele><time>2026-04-05T07:31:16.000Z</time></trkpt>
<trkpt lat="42.208243" lon="23.587461"><ele>2239.1</ele><time>2026-04-05T07:31:17.000Z</time></trkpt>
<trkpt lat="42.208234" lon="23.587459"><ele>2239.1</ele><time>2026-04-05T07:31:18.000Z</time></trkpt>
<trkpt lat="42.208224" lon="23.587457"><ele>2239.3</ele><time>2026-04-05T07:31:19.000Z</time></trkpt>
<trkpt lat="42.208215" lon="23.587455"><ele>2239.3</ele><time>2026-04-05T07:31:20.000Z</time></trkpt>
<trkpt lat="42.208204" lon="23.587453"><ele>2239.3</ele><time>2026-04-05T07:31:21.000Z</time></trkpt>
<trkpt lat="42.208194" lon="23.587452"><ele>2239.3</ele><time>2026-04-05T07:31:22.000Z</time></trkpt>
<trkpt lat="42.208184" lon="23.58745"><ele>2239.3</ele><time>2026-04-05T07:31:23.000Z</time></trkpt>
<trkpt lat="42.208176" lon="23.587448"><ele>2239.6</ele><time>2026-04-05T07:31:24.000Z</time></trkpt>
<trkpt lat="42.208167" lon="23.587447"><ele>2239.6</ele><time>2026-04-05T07:31:25.000Z</time></trkpt>
<trkpt lat="42.20816" lon="23.587447"><ele>2239.6</ele><time>2026-04-05T07:31:26.000Z</time></trkpt>
<trkpt lat="42.208153" lon="23.587449"><ele>2239.6</ele><time>2026-04-05T07:31:27.000Z</time></trkpt>
<trkpt lat="42.208146" lon="23.58745"><ele>2239.6</ele><time>2026-04-05T07:31:28.000Z</time></trkpt>
<trkpt lat="42.208139" lon="23.587452"><ele>2240.1</ele><time>2026-04-05T07:31:29.000Z</time></trkpt>
<trkpt lat="42.208132" lon="23.587455"><ele>2240.1</ele><time>2026-04-05T07:31:30.000Z</time></trkpt>
<trkpt lat="42.208125" lon="23.587456"><ele>2240.1</ele><time>2026-04-05T07:31:31.000Z</time></trkpt>
<trkpt lat="42.20812" lon="23.58746"><ele>2240.1</ele><time>2026-04-05T07:31:32.000Z</time></trkpt>
<trkpt lat="42.208114" lon="23.587465"><ele>2240.1</ele><time>2026-04-05T07:31:33.000Z</time></trkpt>
<trkpt lat="42.208109" lon="23.587471"><ele>2240.4</ele><time>2026-04-05T07:31:34.000Z</time></trkpt>
<trkpt lat="42.208103" lon="23.587476"><ele>2240.4</ele><time>2026-04-05T07:31:35.000Z</time></trkpt>
<trkpt lat="42.208096" lon="23.587483"><ele>2240.4</ele><time>2026-04-05T07:31:36.000Z</time></trkpt>
<trkpt lat="42.208088" lon="23.587488"><ele>2240.4</ele><time>2026-04-05T07:31:37.000Z</time></trkpt>
<trkpt lat="42.208081" lon="23.587492"><ele>2240.4</ele><time>2026-04-05T07:31:38.000Z</time></trkpt>
<trkpt lat="42.208074" lon="23.587496"><ele>2241.3</ele><time>2026-04-05T07:31:39.000Z</time></trkpt>
<trkpt lat="42.208068" lon="23.587499"><ele>2241.3</ele><time>2026-04-05T07:31:40.000Z</time></trkpt>
<trkpt lat="42.208064" lon="23.587502"><ele>2241.3</ele><time>2026-04-05T07:31:41.000Z</time></trkpt>
<trkpt lat="42.20806" lon="23.587507"><ele>2241.3</ele><time>2026-04-05T07:31:42.000Z</time></trkpt>
<trkpt lat="42.208059" lon="23.587509"><ele>2241.3</ele><time>2026-04-05T07:31:43.000Z</time></trkpt>
<trkpt lat="42.208059" lon="23.587511"><ele>2242.2</ele><time>2026-04-05T07:31:44.000Z</time></trkpt>
<trkpt lat="42.208059" lon="23.587514"><ele>2242.2</ele><time>2026-04-05T07:31:45.000Z</time></trkpt>
<trkpt lat="42.20806" lon="23.587516"><ele>2242.2</ele><time>2026-04-05T07:31:46.000Z</time></trkpt>
<trkpt lat="42.20806" lon="23.587516"><ele>2242.2</ele><time>2026-04-05T07:31:47.000Z</time></trkpt>
<trkpt lat="42.20806" lon="23.587517"><ele>2242.2</ele><time>2026-04-05T07:31:48.000Z</time></trkpt>
<trkpt lat="42.20806" lon="23.587518"><ele>2242.7</ele><time>2026-04-05T07:31:49.000Z</time></trkpt>
<trkpt lat="42.208061" lon="23.587519"><ele>2242.7</ele><time>2026-04-05T07:31:50.000Z</time></trkpt>
<trkpt lat="42.208061" lon="23.58752"><ele>2242.7</ele><time>2026-04-05T07:31:51.000Z</time></trkpt>
<trkpt lat="42.208061" lon="23.587521"><ele>2242.7</ele><time>2026-04-05T07:31:52.000Z</time></trkpt>
<trkpt lat="42.208061" lon="23.587521"><ele>2242.7</ele><time>2026-04-05T07:31:53.000Z</time></trkpt>
<trkpt lat="42.208061" lon="23.587521"><ele>2243.3</ele><time>2026-04-05T07:31:54.000Z</time></trkpt>
<trkpt lat="42.208061" lon="23.587521"><ele>2243.3</ele><time>2026-04-05T07:31:55.000Z</time></trkpt>
<trkpt lat="42.208061" lon="23.587521"><ele>2243.3</ele><time>2026-04-05T07:31:56.000Z</time></trkpt>
<trkpt lat="42.208061" lon="23.587521"><ele>2243.3</ele><time>2026-04-05T07:31:57.000Z</time></trkpt>
<trkpt lat="42.208061" lon="23.587521"><ele>2243.3</ele><time>2026-04-05T07:31:58.000Z</time></trkpt>
<trkpt lat="42.208062" lon="23.587521"><ele>2243.6</ele><time>2026-04-05T07:31:59.000Z</time></trkpt>
<trkpt lat="42.208061" lon="23.58752"><ele>2243.6</ele><time>2026-04-05T07:32:00.000Z</time></trkpt>
<trkpt lat="42.208062" lon="23.58752"><ele>2243.6</ele><time>2026-04-05T07:32:01.000Z</time></trkpt>
<trkpt lat="42.208062" lon="23.58752"><ele>2243.6</ele><time>2026-04-05T07:32:02.000Z</time></trkpt>
<trkpt lat="42.208062" lon="23.58752"><ele>2243.6</ele><time>2026-04-05T07:32:03.000Z</time></trkpt>
<trkpt lat="42.208062" lon="23.587521"><ele>2243.6</ele><time>2026-04-05T07:32:04.000Z</time></trkpt>
<trkpt lat="42.208062" lon="23.587521"><ele>2243.6</ele><time>2026-04-05T07:32:05.000Z</time></trkpt>
<trkpt lat="42.208062" lon="23.587521"><ele>2243.6</ele><time>2026-04-05T07:32:06.000Z</time></trkpt>
<trkpt lat="42.208062" lon="23.587521"><ele>2243.6</ele><time>2026-04-05T07:32:07.000Z</time></trkpt>
<trkpt lat="42.208062" lon="23.587521"><ele>2243.6</ele><time>2026-04-05T07:32:08.000Z</time></trkpt>
<trkpt lat="42.208063" lon="23.587522"><ele>2243.3</ele><time>2026-04-05T07:32:09.000Z</time></trkpt>
<trkpt lat="42.208063" lon="23.587522"><ele>2243.3</ele><time>2026-04-05T07:32:10.000Z</time></trkpt>
<trkpt lat="42.208063" lon="23.587523"><ele>2243.3</ele><time>2026-04-05T07:32:11.000Z</time></trkpt>
<trkpt lat="42.208063" lon="23.587523"><ele>2243.3</ele><time>2026-04-05T07:32:12.000Z</time></trkpt>
<trkpt lat="42.208063" lon="23.587524"><ele>2243.3</ele><time>2026-04-05T07:32:13.000Z</time></trkpt>
<trkpt lat="42.208063" lon="23.587524"><ele>2242.9</ele><time>2026-04-05T07:32:14.000Z</time></trkpt>
<trkpt lat="42.208062" lon="23.587524"><ele>2242.9</ele><time>2026-04-05T07:32:15.000Z</time></trkpt>
<trkpt lat="42.208062" lon="23.587524"><ele>2242.9</ele><time>2026-04-05T07:32:16.000Z</time></trkpt>
<trkpt lat="42.208062" lon="23.587524"><ele>2242.9</ele><time>2026-04-05T07:32:17.000Z</time></trkpt>
<trkpt lat="42.208062" lon="23.587524"><ele>2242.9</ele><time>2026-04-05T07:32:18.000Z</time></trkpt>
<trkpt lat="42.208061" lon="23.587523"><ele>2242.8</ele><time>2026-04-05T07:32:19.000Z</time></trkpt>
<trkpt lat="42.208061" lon="23.587522"><ele>2242.8</ele><time>2026-04-05T07:32:20.000Z</time></trkpt>
<trkpt lat="42.208061" lon="23.587521"><ele>2242.8</ele><time>2026-04-05T07:32:21.000Z</time></trkpt>
<trkpt lat="42.208061" lon="23.58752"><ele>2242.8</ele><time>2026-04-05T07:32:22.000Z</time></trkpt>
<trkpt lat="42.20806" lon="23.587519"><ele>2242.8</ele><time>2026-04-05T07:32:23.000Z</time></trkpt>
<trkpt lat="42.20806" lon="23.58752"><ele>2242.8</ele><time>2026-04-05T07:32:24.000Z</time></trkpt>
<trkpt lat="42.20806" lon="23.587521"><ele>2242.8</ele><time>2026-04-05T07:32:25.000Z</time></trkpt>
<trkpt lat="42.20806" lon="23.587522"><ele>2242.8</ele><time>2026-04-05T07:32:26.000Z</time></trkpt>
<trkpt lat="42.208061" lon="23.587523"><ele>2242.8</ele><time>2026-04-05T07:32:27.000Z</time></trkpt>
<trkpt lat="42.208061" lon="23.587523"><ele>2242.8</ele><time>2026-04-05T07:32:28.000Z</time></trkpt>
<trkpt lat="42.208061" lon="23.587522"><ele>2242.8</ele><time>2026-04-05T07:32:29.000Z</time></trkpt>
<trkpt lat="42.208062" lon="23.58752"><ele>2242.8</ele><time>2026-04-05T07:32:30.000Z</time></trkpt>
<trkpt lat="42.208063" lon="23.587518"><ele>2242.8</ele><time>2026-04-05T07:32:31.000Z</time></trkpt>
<trkpt lat="42.208062" lon="23.587518"><ele>2242.8</ele><time>2026-04-05T07:32:32.000Z</time></trkpt>
<trkpt lat="42.208062" lon="23.587517"><ele>2242.8</ele><time>2026-04-05T07:32:33.000Z</time></trkpt>
<trkpt lat="42.20806" lon="23.587518"><ele>2242.7</ele><time>2026-04-05T07:32:34.000Z</time></trkpt>
<trkpt lat="42.208058" lon="23.58752"><ele>2242.7</ele><time>2026-04-05T07:32:35.000Z</time></trkpt>
<trkpt lat="42.208056" lon="23.587522"><ele>2242.7</ele><time>2026-04-05T07:32:36.000Z</time></trkpt>
<trkpt lat="42.208055" lon="23.587523"><ele>2242.7</ele><time>2026-04-05T07:32:37.000Z</time></trkpt>
<trkpt lat="42.208054" lon="23.587525"><ele>2242.7</ele><time>2026-04-05T07:32:38.000Z</time></trkpt>
<trkpt lat="42.208054" lon="23.587525"><ele>2242.5</ele><time>2026-04-05T07:32:39.000Z</time></trkpt>
<trkpt lat="42.208055" lon="23.587525"><ele>2242.5</ele><time>2026-04-05T07:32:40.000Z</time></trkpt>
<trkpt lat="42.208055" lon="23.587525"><ele>2242.5</ele><time>2026-04-05T07:32:41.000Z</time></trkpt>
<trkpt lat="42.208055" lon="23.587526"><ele>2242.5</ele><time>2026-04-05T07:32:42.000Z</time></trkpt>
<trkpt lat="42.208055" lon="23.587527"><ele>2242.5</ele><time>2026-04-05T07:32:43.000Z</time></trkpt>
<trkpt lat="42.208055" lon="23.587529"><ele>2242.3</ele><time>2026-04-05T07:32:44.000Z</time></trkpt>
<trkpt lat="42.208054" lon="23.587531"><ele>2242.3</ele><time>2026-04-05T07:32:45.000Z</time></trkpt>
<trkpt lat="42.208054" lon="23.587531"><ele>2242.3</ele><time>2026-04-05T07:32:46.000Z</time></trkpt>
<trkpt lat="42.208054" lon="23.587531"><ele>2242.3</ele><time>2026-04-05T07:32:47.000Z</time></trkpt>
<trkpt lat="42.208054" lon="23.587531"><ele>2242.3</ele><time>2026-04-05T07:32:48.000Z</time></trkpt>
<trkpt lat="42.208054" lon="23.587531"><ele>2242.3</ele><time>2026-04-05T07:32:49.000Z</time></trkpt>
<trkpt lat="42.208054" lon="23.587532"><ele>2242.3</ele><time>2026-04-05T07:32:50.000Z</time></trkpt>
<trkpt lat="42.208054" lon="23.587533"><ele>2242.3</ele><time>2026-04-05T07:32:51.000Z</time></trkpt>
<trkpt lat="42.208055" lon="23.587534"><ele>2242.3</ele><time>2026-04-05T07:32:52.000Z</time></trkpt>
<trkpt lat="42.208055" lon="23.587535"><ele>2242.3</ele><time>2026-04-05T07:32:53.000Z</time></trkpt>
<trkpt lat="42.208055" lon="23.587536"><ele>2242.4</ele><time>2026-04-05T07:32:54.000Z</time></trkpt>
<trkpt lat="42.208055" lon="23.587536"><ele>2242.4</ele><time>2026-04-05T07:32:55.000Z</time></trkpt>
<trkpt lat="42.208055" lon="23.587536"><ele>2242.4</ele><time>2026-04-05T07:32:56.000Z</time></trkpt>
<trkpt lat="42.208055" lon="23.587536"><ele>2242.4</ele><time>2026-04-05T07:32:57.000Z</time></trkpt>
<trkpt lat="42.208055" lon="23.587535"><ele>2242.4</ele><time>2026-04-05T07:32:58.000Z</time></trkpt>
<trkpt lat="42.208055" lon="23.587535"><ele>2242.6</ele><time>2026-04-05T07:32:59.000Z</time></trkpt>
<trkpt lat="42.208055" lon="23.587534"><ele>2242.6</ele><time>2026-04-05T07:33:00.000Z</time></trkpt>
<trkpt lat="42.208055" lon="23.587534"><ele>2242.6</ele><time>2026-04-05T07:33:01.000Z</time></trkpt>
<trkpt lat="42.208054" lon="23.587534"><ele>2242.6</ele><time>2026-04-05T07:33:02.000Z</time></trkpt>
<trkpt lat="42.208054" lon="23.587534"><ele>2242.6</ele><time>2026-04-05T07:33:03.000Z</time></trkpt>
<trkpt lat="42.208055" lon="23.587534"><ele>2242.6</ele><time>2026-04-05T07:33:04.000Z</time></trkpt>
<trkpt lat="42.208055" lon="23.587533"><ele>2242.6</ele><time>2026-04-05T07:33:05.000Z</time></trkpt>
<trkpt lat="42.208055" lon="23.587533"><ele>2242.6</ele><time>2026-04-05T07:33:06.000Z</time></trkpt>
<trkpt lat="42.208054" lon="23.587532"><ele>2242.6</ele><time>2026-04-05T07:33:07.000Z</time></trkpt>
<trkpt lat="42.208054" lon="23.587532"><ele>2242.6</ele><time>2026-04-05T07:33:08.000Z</time></trkpt>
<trkpt lat="42.208054" lon="23.587532"><ele>2242.7</ele><time>2026-04-05T07:33:09.000Z</time></trkpt>
<trkpt lat="42.208054" lon="23.587532"><ele>2242.7</ele><time>2026-04-05T07:33:10.000Z</time></trkpt>
<trkpt lat="42.208054" lon="23.587532"><ele>2242.7</ele><time>2026-04-05T07:33:11.000Z</time></trkpt>
<trkpt lat="42.208054" lon="23.587532"><ele>2242.7</ele><time>2026-04-05T07:33:12.000Z</time></trkpt>
<trkpt lat="42.208053" lon="23.587532"><ele>2242.7</ele><time>2026-04-05T07:33:13.000Z</time></trkpt>
<trkpt lat="42.208052" lon="23.587532"><ele>2242.6</ele><time>2026-04-05T07:33:14.000Z</time></trkpt>
<trkpt lat="42.208052" lon="23.587532"><ele>2242.6</ele><time>2026-04-05T07:33:15.000Z</time></trkpt>
<trkpt lat="42.208051" lon="23.587532"><ele>2242.6</ele><time>2026-04-05T07:33:16.000Z</time></trkpt>
<trkpt lat="42.208051" lon="23.587532"><ele>2242.6</ele><time>2026-04-05T07:33:17.000Z</time></trkpt>
<trkpt lat="42.208051" lon="23.587532"><ele>2242.6</ele><time>2026-04-05T07:33:18.000Z</time></trkpt>
<trkpt lat="42.208051" lon="23.587531"><ele>2242.6</ele><time>2026-04-05T07:33:19.000Z</time></trkpt>
<trkpt lat="42.208052" lon="23.587532"><ele>2242.6</ele><time>2026-04-05T07:33:20.000Z</time></trkpt>
<trkpt lat="42.208053" lon="23.587532"><ele>2242.6</ele><time>2026-04-05T07:33:21.000Z</time></trkpt>
<trkpt lat="42.208054" lon="23.587532"><ele>2242.6</ele><time>2026-04-05T07:33:22.000Z</time></trkpt>
<trkpt lat="42.208054" lon="23.587533"><ele>2242.6</ele><time>2026-04-05T07:33:23.000Z</time></trkpt>
<trkpt lat="42.208054" lon="23.587532"><ele>2242.3</ele><time>2026-04-05T07:33:24.000Z</time></trkpt>
<trkpt lat="42.208054" lon="23.587531"><ele>2242.3</ele><time>2026-04-05T07:33:25.000Z</time></trkpt>
<trkpt lat="42.208054" lon="23.587529"><ele>2242.3</ele><time>2026-04-05T07:33:26.000Z</time></trkpt>
<trkpt lat="42.208054" lon="23.587529"><ele>2242.3</ele><time>2026-04-05T07:33:27.000Z</time></trkpt>
<trkpt lat="42.208054" lon="23.587528"><ele>2242.3</ele><time>2026-04-05T07:33:28.000Z</time></trkpt>
<trkpt lat="42.208054" lon="23.587528"><ele>2242.1</ele><time>2026-04-05T07:33:29.000Z</time></trkpt>
<trkpt lat="42.208054" lon="23.587528"><ele>2242.1</ele><time>2026-04-05T07:33:30.000Z</time></trkpt>
<trkpt lat="42.208054" lon="23.587529"><ele>2242.1</ele><time>2026-04-05T07:33:31.000Z</time></trkpt>
<trkpt lat="42.208054" lon="23.587528"><ele>2242.1</ele><time>2026-04-05T07:33:32.000Z</time></trkpt>
<trkpt lat="42.208053" lon="23.587528"><ele>2242.1</ele><time>2026-04-05T07:33:33.000Z</time></trkpt>
<trkpt lat="42.208053" lon="23.587528"><ele>2242.1</ele><time>2026-04-05T07:33:34.000Z</time></trkpt>
<trkpt lat="42.208053" lon="23.587529"><ele>2242.1</ele><time>2026-04-05T07:33:35.000Z</time></trkpt>
<trkpt lat="42.208052" lon="23.587531"><ele>2242.1</ele><time>2026-04-05T07:33:36.000Z</time></trkpt>
<trkpt lat="42.208052" lon="23.587533"><ele>2242.1</ele><time>2026-04-05T07:33:37.000Z</time></trkpt>
<trkpt lat="42.208051" lon="23.587534"><ele>2242.1</ele><time>2026-04-05T07:33:38.000Z</time></trkpt>
<trkpt lat="42.20805" lon="23.587536"><ele>2242.2</ele><time>2026-04-05T07:33:39.000Z</time></trkpt>
<trkpt lat="42.208049" lon="23.587538"><ele>2242.2</ele><time>2026-04-05T07:33:40.000Z</time></trkpt>
<trkpt lat="42.208049" lon="23.587539"><ele>2242.2</ele><time>2026-04-05T07:33:41.000Z</time></trkpt>
<trkpt lat="42.208048" lon="23.58754"><ele>2242.2</ele><time>2026-04-05T07:33:42.000Z</time></trkpt>
<trkpt lat="42.208048" lon="23.587541"><ele>2242.2</ele><time>2026-04-05T07:33:43.000Z</time></trkpt>
<trkpt lat="42.208047" lon="23.587543"><ele>2242.2</ele><time>2026-04-05T07:33:44.000Z</time></trkpt>
<trkpt lat="42.208047" lon="23.587543"><ele>2242.2</ele><time>2026-04-05T07:33:45.000Z</time></trkpt>
<trkpt lat="42.208048" lon="23.587543"><ele>2242.2</ele><time>2026-04-05T07:33:46.000Z</time></trkpt>
<trkpt lat="42.208049" lon="23.587543"><ele>2242.2</ele><time>2026-04-05T07:33:47.000Z</time></trkpt>
<trkpt lat="42.208049" lon="23.587543"><ele>2242.2</ele><time>2026-04-05T07:33:48.000Z</time></trkpt>
<trkpt lat="42.20805" lon="23.587542"><ele>2242.2</ele><time>2026-04-05T07:33:49.000Z</time></trkpt>
<trkpt lat="42.20805" lon="23.587541"><ele>2242.2</ele><time>2026-04-05T07:33:50.000Z</time></trkpt>
<trkpt lat="42.20805" lon="23.587541"><ele>2242.2</ele><time>2026-04-05T07:33:51.000Z</time></trkpt>
<trkpt lat="42.20805" lon="23.58754"><ele>2242.2</ele><time>2026-04-05T07:33:52.000Z</time></trkpt>
<trkpt lat="42.208051" lon="23.587538"><ele>2242.2</ele><time>2026-04-05T07:33:53.000Z</time></trkpt>
<trkpt lat="42.208052" lon="23.587537"><ele>2242.2</ele><time>2026-04-05T07:33:54.000Z</time></trkpt>
<trkpt lat="42.208052" lon="23.587535"><ele>2242.2</ele><time>2026-04-05T07:33:55.000Z</time></trkpt>
<trkpt lat="42.208053" lon="23.587534"><ele>2242.2</ele><time>2026-04-05T07:33:56.000Z</time></trkpt>
<trkpt lat="42.208053" lon="23.587533"><ele>2242.2</ele><time>2026-04-05T07:33:57.000Z</time></trkpt>
<trkpt lat="42.208054" lon="23.587531"><ele>2242.2</ele><time>2026-04-05T07:33:58.000Z</time></trkpt>
<trkpt lat="42.208054" lon="23.587531"><ele>2242.1</ele><time>2026-04-05T07:33:59.000Z</time></trkpt>
<trkpt lat="42.208055" lon="23.58753"><ele>2242.1</ele><time>2026-04-05T07:34:00.000Z</time></trkpt>
<trkpt lat="42.208056" lon="23.587529"><ele>2242.1</ele><time>2026-04-05T07:34:01.000Z</time></trkpt>
<trkpt lat="42.208058" lon="23.587529"><ele>2242.1</ele><time>2026-04-05T07:34:02.000Z</time></trkpt>
<trkpt lat="42.20806" lon="23.587529"><ele>2242.1</ele><time>2026-04-05T07:34:03.000Z</time></trkpt>
<trkpt lat="42.208062" lon="23.587529"><ele>2242</ele><time>2026-04-05T07:34:04.000Z</time></trkpt>
<trkpt lat="42.208063" lon="23.587529"><ele>2242</ele><time>2026-04-05T07:34:05.000Z</time></trkpt>
<trkpt lat="42.208063" lon="23.587529"><ele>2242</ele><time>2026-04-05T07:34:06.000Z</time></trkpt>
<trkpt lat="42.208063" lon="23.58753"><ele>2242</ele><time>2026-04-05T07:34:07.000Z</time></trkpt>
<trkpt lat="42.208062" lon="23.587531"><ele>2242</ele><time>2026-04-05T07:34:08.000Z</time></trkpt>
<trkpt lat="42.208061" lon="23.587532"><ele>2242.1</ele><time>2026-04-05T07:34:09.000Z</time></trkpt>
<trkpt lat="42.208061" lon="23.587532"><ele>2242.1</ele><time>2026-04-05T07:34:10.000Z</time></trkpt>
<trkpt lat="42.208061" lon="23.587532"><ele>2242.1</ele><time>2026-04-05T07:34:11.000Z</time></trkpt>
<trkpt lat="42.208061" lon="23.587531"><ele>2242.1</ele><time>2026-04-05T07:34:12.000Z</time></trkpt>
<trkpt lat="42.208063" lon="23.587529"><ele>2242.1</ele><time>2026-04-05T07:34:13.000Z</time></trkpt>
<trkpt lat="42.208064" lon="23.587527"><ele>2242.6</ele><time>2026-04-05T07:34:14.000Z</time></trkpt>
<trkpt lat="42.208064" lon="23.587526"><ele>2242.6</ele><time>2026-04-05T07:34:15.000Z</time></trkpt>
<trkpt lat="42.208064" lon="23.587526"><ele>2242.6</ele><time>2026-04-05T07:34:16.000Z</time></trkpt>
<trkpt lat="42.208064" lon="23.587524"><ele>2242.6</ele><time>2026-04-05T07:34:17.000Z</time></trkpt>
<trkpt lat="42.208065" lon="23.587523"><ele>2242.6</ele><time>2026-04-05T07:34:18.000Z</time></trkpt>
<trkpt lat="42.208064" lon="23.587523"><ele>2242.8</ele><time>2026-04-05T07:34:19.000Z</time></trkpt>
<trkpt lat="42.208065" lon="23.587522"><ele>2242.8</ele><time>2026-04-05T07:34:20.000Z</time></trkpt>
<trkpt lat="42.208066" lon="23.587521"><ele>2242.8</ele><time>2026-04-05T07:34:21.000Z</time></trkpt>
<trkpt lat="42.208065" lon="23.587522"><ele>2242.8</ele><time>2026-04-05T07:34:22.000Z</time></trkpt>
<trkpt lat="42.208065" lon="23.587522"><ele>2242.8</ele><time>2026-04-05T07:34:23.000Z</time></trkpt>
<trkpt lat="42.208065" lon="23.587521"><ele>2243</ele><time>2026-04-05T07:34:24.000Z</time></trkpt>
<trkpt lat="42.208066" lon="23.58752"><ele>2243</ele><time>2026-04-05T07:34:25.000Z</time></trkpt>
<trkpt lat="42.208066" lon="23.587519"><ele>2243</ele><time>2026-04-05T07:34:26.000Z</time></trkpt>
<trkpt lat="42.208066" lon="23.587518"><ele>2243</ele><time>2026-04-05T07:34:27.000Z</time></trkpt>
<trkpt lat="42.208066" lon="23.587517"><ele>2243</ele><time>2026-04-05T07:34:28.000Z</time></trkpt>
<trkpt lat="42.208067" lon="23.587517"><ele>2242.9</ele><time>2026-04-05T07:34:29.000Z</time></trkpt>
<trkpt lat="42.208067" lon="23.587517"><ele>2242.9</ele><time>2026-04-05T07:34:30.000Z</time></trkpt>
<trkpt lat="42.208067" lon="23.587517"><ele>2242.9</ele><time>2026-04-05T07:34:31.000Z</time></trkpt>
<trkpt lat="42.208067" lon="23.587517"><ele>2242.9</ele><time>2026-04-05T07:34:32.000Z</time></trkpt>
<trkpt lat="42.208066" lon="23.587517"><ele>2242.9</ele><time>2026-04-05T07:34:33.000Z</time></trkpt>
<trkpt lat="42.208066" lon="23.587517"><ele>2242.8</ele><time>2026-04-05T07:34:34.000Z</time></trkpt>
<trkpt lat="42.208065" lon="23.587518"><ele>2242.8</ele><time>2026-04-05T07:34:35.000Z</time></trkpt>
<trkpt lat="42.208064" lon="23.587518"><ele>2242.8</ele><time>2026-04-05T07:34:36.000Z</time></trkpt>
<trkpt lat="42.208063" lon="23.587518"><ele>2242.8</ele><time>2026-04-05T07:34:37.000Z</time></trkpt>
<trkpt lat="42.208062" lon="23.587519"><ele>2242.8</ele><time>2026-04-05T07:34:38.000Z</time></trkpt>
<trkpt lat="42.208061" lon="23.587519"><ele>2242.7</ele><time>2026-04-05T07:34:39.000Z</time></trkpt>
<trkpt lat="42.208061" lon="23.587519"><ele>2242.7</ele><time>2026-04-05T07:34:40.000Z</time></trkpt>
<trkpt lat="42.208061" lon="23.58752"><ele>2242.7</ele><time>2026-04-05T07:34:41.000Z</time></trkpt>
<trkpt lat="42.208061" lon="23.587519"><ele>2242.7</ele><time>2026-04-05T07:34:42.000Z</time></trkpt>
<trkpt lat="42.208062" lon="23.587518"><ele>2242.7</ele><time>2026-04-05T07:34:43.000Z</time></trkpt>
<trkpt lat="42.208063" lon="23.587517"><ele>2242.7</ele><time>2026-04-05T07:34:44.000Z</time></trkpt>
<trkpt lat="42.208063" lon="23.587516"><ele>2242.7</ele><time>2026-04-05T07:34:45.000Z</time></trkpt>
<trkpt lat="42.208064" lon="23.587514"><ele>2242.7</ele><time>2026-04-05T07:34:46.000Z</time></trkpt>
<trkpt lat="42.208066" lon="23.587514"><ele>2242.7</ele><time>2026-04-05T07:34:47.000Z</time></trkpt>
<trkpt lat="42.208066" lon="23.587514"><ele>2242.7</ele><time>2026-04-05T07:34:48.000Z</time></trkpt>
<trkpt lat="42.208067" lon="23.587514"><ele>2242.7</ele><time>2026-04-05T07:34:49.000Z</time></trkpt>
<trkpt lat="42.208068" lon="23.587514"><ele>2242.7</ele><time>2026-04-05T07:34:50.000Z</time></trkpt>
<trkpt lat="42.208069" lon="23.587514"><ele>2242.7</ele><time>2026-04-05T07:34:51.000Z</time></trkpt>
<trkpt lat="42.208069" lon="23.587514"><ele>2242.7</ele><time>2026-04-05T07:34:52.000Z</time></trkpt>
<trkpt lat="42.20807" lon="23.587515"><ele>2242.7</ele><time>2026-04-05T07:34:53.000Z</time></trkpt>
<trkpt lat="42.208069" lon="23.587515"><ele>2242.8</ele><time>2026-04-05T07:34:54.000Z</time></trkpt>
<trkpt lat="42.208066" lon="23.587516"><ele>2242.8</ele><time>2026-04-05T07:34:55.000Z</time></trkpt>
<trkpt lat="42.208061" lon="23.587518"><ele>2242.8</ele><time>2026-04-05T07:34:56.000Z</time></trkpt>
<trkpt lat="42.208054" lon="23.587519"><ele>2242.8</ele><time>2026-04-05T07:34:57.000Z</time></trkpt>
<trkpt lat="42.208047" lon="23.587522"><ele>2242.8</ele><time>2026-04-05T07:34:58.000Z</time></trkpt>
<trkpt lat="42.208038" lon="23.587525"><ele>2243</ele><time>2026-04-05T07:34:59.000Z</time></trkpt>
<trkpt lat="42.20803" lon="23.587528"><ele>2243</ele><time>2026-04-05T07:35:00.000Z</time></trkpt>
<trkpt lat="42.208022" lon="23.587531"><ele>2243</ele><time>2026-04-05T07:35:01.000Z</time></trkpt>
<trkpt lat="42.208014" lon="23.587534"><ele>2243</ele><time>2026-04-05T07:35:02.000Z</time></trkpt>
<trkpt lat="42.208006" lon="23.587538"><ele>2243</ele><time>2026-04-05T07:35:03.000Z</time></trkpt>
<trkpt lat="42.207998" lon="23.587542"><ele>2243.1</ele><time>2026-04-05T07:35:04.000Z</time></trkpt>
<trkpt lat="42.20799" lon="23.587548"><ele>2243.1</ele><time>2026-04-05T07:35:05.000Z</time></trkpt>
<trkpt lat="42.207983" lon="23.587555"><ele>2243.1</ele><time>2026-04-05T07:35:06.000Z</time></trkpt>
<trkpt lat="42.207974" lon="23.587562"><ele>2243.1</ele><time>2026-04-05T07:35:07.000Z</time></trkpt>
<trkpt lat="42.207966" lon="23.58757"><ele>2243.1</ele><time>2026-04-05T07:35:08.000Z</time></trkpt>
<trkpt lat="42.207958" lon="23.587576"><ele>2243.5</ele><time>2026-04-05T07:35:09.000Z</time></trkpt>
<trkpt lat="42.20795" lon="23.587582"><ele>2243.5</ele><time>2026-04-05T07:35:10.000Z</time></trkpt>
<trkpt lat="42.207941" lon="23.587588"><ele>2243.5</ele><time>2026-04-05T07:35:11.000Z</time></trkpt>
<trkpt lat="42.207933" lon="23.587593"><ele>2243.5</ele><time>2026-04-05T07:35:12.000Z</time></trkpt>
<trkpt lat="42.207926" lon="23.587598"><ele>2243.5</ele><time>2026-04-05T07:35:13.000Z</time></trkpt>
<trkpt lat="42.207918" lon="23.587602"><ele>2244</ele><time>2026-04-05T07:35:14.000Z</time></trkpt>
<trkpt lat="42.207911" lon="23.587606"><ele>2244</ele><time>2026-04-05T07:35:15.000Z</time></trkpt>
<trkpt lat="42.207905" lon="23.58761"><ele>2244</ele><time>2026-04-05T07:35:16.000Z</time></trkpt>
<trkpt lat="42.207898" lon="23.587615"><ele>2244</ele><time>2026-04-05T07:35:17.000Z</time></trkpt>
<trkpt lat="42.207892" lon="23.58762"><ele>2244</ele><time>2026-04-05T07:35:18.000Z</time></trkpt>
<trkpt lat="42.207887" lon="23.587624"><ele>2244.4</ele><time>2026-04-05T07:35:19.000Z</time></trkpt>
<trkpt lat="42.207881" lon="23.587628"><ele>2244.4</ele><time>2026-04-05T07:35:20.000Z</time></trkpt>
<trkpt lat="42.207875" lon="23.58763"><ele>2244.4</ele><time>2026-04-05T07:35:21.000Z</time></trkpt>
<trkpt lat="42.207868" lon="23.587631"><ele>2244.4</ele><time>2026-04-05T07:35:22.000Z</time></trkpt>
<trkpt lat="42.207861" lon="23.587632"><ele>2244.4</ele><time>2026-04-05T07:35:23.000Z</time></trkpt>
<trkpt lat="42.207854" lon="23.587631"><ele>2245.4</ele><time>2026-04-05T07:35:24.000Z</time></trkpt>
<trkpt lat="42.207847" lon="23.587629"><ele>2245.4</ele><time>2026-04-05T07:35:25.000Z</time></trkpt>
<trkpt lat="42.207841" lon="23.587628"><ele>2245.4</ele><time>2026-04-05T07:35:26.000Z</time></trkpt>
<trkpt lat="42.207836" lon="23.587627"><ele>2245.4</ele><time>2026-04-05T07:35:27.000Z</time></trkpt>
<trkpt lat="42.207833" lon="23.587626"><ele>2245.4</ele><time>2026-04-05T07:35:28.000Z</time></trkpt>
<trkpt lat="42.207831" lon="23.587626"><ele>2246.5</ele><time>2026-04-05T07:35:29.000Z</time></trkpt>
<trkpt lat="42.207829" lon="23.587627"><ele>2246.5</ele><time>2026-04-05T07:35:30.000Z</time></trkpt>
<trkpt lat="42.207827" lon="23.587628"><ele>2246.5</ele><time>2026-04-05T07:35:31.000Z</time></trkpt>
<trkpt lat="42.207825" lon="23.587628"><ele>2246.5</ele><time>2026-04-05T07:35:32.000Z</time></trkpt>
<trkpt lat="42.207824" lon="23.587628"><ele>2246.5</ele><time>2026-04-05T07:35:33.000Z</time></trkpt>
<trkpt lat="42.207822" lon="23.587627"><ele>2246.9</ele><time>2026-04-05T07:35:34.000Z</time></trkpt>
<trkpt lat="42.207822" lon="23.587626"><ele>2246.9</ele><time>2026-04-05T07:35:35.000Z</time></trkpt>
<trkpt lat="42.207821" lon="23.587626"><ele>2246.9</ele><time>2026-04-05T07:35:36.000Z</time></trkpt>
<trkpt lat="42.207821" lon="23.587626"><ele>2246.9</ele><time>2026-04-05T07:35:37.000Z</time></trkpt>
<trkpt lat="42.20782" lon="23.587627"><ele>2246.9</ele><time>2026-04-05T07:35:38.000Z</time></trkpt>
<trkpt lat="42.207819" lon="23.587629"><ele>2247.6</ele><time>2026-04-05T07:35:39.000Z</time></trkpt>
<trkpt lat="42.207816" lon="23.587631"><ele>2247.6</ele><time>2026-04-05T07:35:40.000Z</time></trkpt>
<trkpt lat="42.207812" lon="23.587632"><ele>2247.6</ele><time>2026-04-05T07:35:41.000Z</time></trkpt>
<trkpt lat="42.207807" lon="23.587633"><ele>2247.6</ele><time>2026-04-05T07:35:42.000Z</time></trkpt>
<trkpt lat="42.207801" lon="23.587634"><ele>2247.6</ele><time>2026-04-05T07:35:43.000Z</time></trkpt>
<trkpt lat="42.207796" lon="23.587635"><ele>2247.9</ele><time>2026-04-05T07:35:44.000Z</time></trkpt>
<trkpt lat="42.207791" lon="23.587636"><ele>2247.9</ele><time>2026-04-05T07:35:45.000Z</time></trkpt>
<trkpt lat="42.207785" lon="23.587638"><ele>2247.9</ele><time>2026-04-05T07:35:46.000Z</time></trkpt>
<trkpt lat="42.20778" lon="23.58764"><ele>2247.9</ele><time>2026-04-05T07:35:47.000Z</time></trkpt>
<trkpt lat="42.207774" lon="23.587641"><ele>2247.9</ele><time>2026-04-05T07:35:48.000Z</time></trkpt>
<trkpt lat="42.207767" lon="23.587643"><ele>2248</ele><time>2026-04-05T07:35:49.000Z</time></trkpt>
<trkpt lat="42.207761" lon="23.587645"><ele>2248</ele><time>2026-04-05T07:35:50.000Z</time></trkpt>
<trkpt lat="42.207755" lon="23.587648"><ele>2248</ele><time>2026-04-05T07:35:51.000Z</time></trkpt>
<trkpt lat="42.207748" lon="23.587652"><ele>2248</ele><time>2026-04-05T07:35:52.000Z</time></trkpt>
<trkpt lat="42.207741" lon="23.587656"><ele>2248</ele><time>2026-04-05T07:35:53.000Z</time></trkpt>
<trkpt lat="42.207734" lon="23.58766"><ele>2248.3</ele><time>2026-04-05T07:35:54.000Z</time></trkpt>
<trkpt lat="42.207726" lon="23.587663"><ele>2248.3</ele><time>2026-04-05T07:35:55.000Z</time></trkpt>
<trkpt lat="42.207717" lon="23.587667"><ele>2248.3</ele><time>2026-04-05T07:35:56.000Z</time></trkpt>
<trkpt lat="42.207708" lon="23.587672"><ele>2248.3</ele><time>2026-04-05T07:35:57.000Z</time></trkpt>
<trkpt lat="42.207698" lon="23.587677"><ele>2248.3</ele><time>2026-04-05T07:35:58.000Z</time></trkpt>
<trkpt lat="42.207688" lon="23.587682"><ele>2248.8</ele><time>2026-04-05T07:35:59.000Z</time></trkpt>
<trkpt lat="42.207678" lon="23.587687"><ele>2248.8</ele><time>2026-04-05T07:36:00.000Z</time></trkpt>
<trkpt lat="42.207669" lon="23.587691"><ele>2248.8</ele><time>2026-04-05T07:36:01.000Z</time></trkpt>
<trkpt lat="42.207661" lon="23.587694"><ele>2248.8</ele><time>2026-04-05T07:36:02.000Z</time></trkpt>
<trkpt lat="42.207654" lon="23.587697"><ele>2248.8</ele><time>2026-04-05T07:36:03.000Z</time></trkpt>
<trkpt lat="42.207646" lon="23.587699"><ele>2249.2</ele><time>2026-04-05T07:36:04.000Z</time></trkpt>
<trkpt lat="42.20764" lon="23.587701"><ele>2249.2</ele><time>2026-04-05T07:36:05.000Z</time></trkpt>
<trkpt lat="42.207634" lon="23.587703"><ele>2249.2</ele><time>2026-04-05T07:36:06.000Z</time></trkpt>
<trkpt lat="42.207627" lon="23.587706"><ele>2249.2</ele><time>2026-04-05T07:36:07.000Z</time></trkpt>
<trkpt lat="42.20762" lon="23.58771"><ele>2249.2</ele><time>2026-04-05T07:36:08.000Z</time></trkpt>
<trkpt lat="42.207614" lon="23.587715"><ele>2249.9</ele><time>2026-04-05T07:36:09.000Z</time></trkpt>
<trkpt lat="42.207607" lon="23.58772"><ele>2249.9</ele><time>2026-04-05T07:36:10.000Z</time></trkpt>
<trkpt lat="42.2076" lon="23.587725"><ele>2249.9</ele><time>2026-04-05T07:36:11.000Z</time></trkpt>
<trkpt lat="42.207593" lon="23.587729"><ele>2249.9</ele><time>2026-04-05T07:36:12.000Z</time></trkpt>
<trkpt lat="42.207587" lon="23.587733"><ele>2249.9</ele><time>2026-04-05T07:36:13.000Z</time></trkpt>
<trkpt lat="42.207582" lon="23.587738"><ele>2250.5</ele><time>2026-04-05T07:36:14.000Z</time></trkpt>
<trkpt lat="42.207575" lon="23.587743"><ele>2250.5</ele><time>2026-04-05T07:36:15.000Z</time></trkpt>
<trkpt lat="42.207569" lon="23.587748"><ele>2250.5</ele><time>2026-04-05T07:36:16.000Z</time></trkpt>
<trkpt lat="42.207563" lon="23.587755"><ele>2250.5</ele><time>2026-04-05T07:36:17.000Z</time></trkpt>
<trkpt lat="42.207557" lon="23.587761"><ele>2250.5</ele><time>2026-04-05T07:36:18.000Z</time></trkpt>
<trkpt lat="42.20755" lon="23.587767"><ele>2250.8</ele><time>2026-04-05T07:36:19.000Z</time></trkpt>
<trkpt lat="42.207544" lon="23.587773"><ele>2250.8</ele><time>2026-04-05T07:36:20.000Z</time></trkpt>
<trkpt lat="42.207537" lon="23.587778"><ele>2250.8</ele><time>2026-04-05T07:36:21.000Z</time></trkpt>
<trkpt lat="42.207531" lon="23.587783"><ele>2250.8</ele><time>2026-04-05T07:36:22.000Z</time></trkpt>
<trkpt lat="42.207524" lon="23.587789"><ele>2250.8</ele><time>2026-04-05T07:36:23.000Z</time></trkpt>
<trkpt lat="42.207517" lon="23.587794"><ele>2251.5</ele><time>2026-04-05T07:36:24.000Z</time></trkpt>
<trkpt lat="42.207511" lon="23.587799"><ele>2251.5</ele><time>2026-04-05T07:36:25.000Z</time></trkpt>
<trkpt lat="42.207505" lon="23.587804"><ele>2251.5</ele><time>2026-04-05T07:36:26.000Z</time></trkpt>
<trkpt lat="42.207499" lon="23.587808"><ele>2251.5</ele><time>2026-04-05T07:36:27.000Z</time></trkpt>
<trkpt lat="42.207493" lon="23.587812"><ele>2251.5</ele><time>2026-04-05T07:36:28.000Z</time></trkpt>
<trkpt lat="42.207488" lon="23.587815"><ele>2252.4</ele><time>2026-04-05T07:36:29.000Z</time></trkpt>
<trkpt lat="42.207484" lon="23.587818"><ele>2252.4</ele><time>2026-04-05T07:36:30.000Z</time></trkpt>
<trkpt lat="42.20748" lon="23.587822"><ele>2252.4</ele><time>2026-04-05T07:36:31.000Z</time></trkpt>
<trkpt lat="42.207477" lon="23.587826"><ele>2252.4</ele><time>2026-04-05T07:36:32.000Z</time></trkpt>
<trkpt lat="42.207472" lon="23.587832"><ele>2252.4</ele><time>2026-04-05T07:36:33.000Z</time></trkpt>
<trkpt lat="42.207467" lon="23.587837"><ele>2252.9</ele><time>2026-04-05T07:36:34.000Z</time></trkpt>
<trkpt lat="42.207461" lon="23.587843"><ele>2252.9</ele><time>2026-04-05T07:36:35.000Z</time></trkpt>
<trkpt lat="42.207453" lon="23.587848"><ele>2252.9</ele><time>2026-04-05T07:36:36.000Z</time></trkpt>
<trkpt lat="42.207444" lon="23.587854"><ele>2252.9</ele><time>2026-04-05T07:36:37.000Z</time></trkpt>
<trkpt lat="42.207437" lon="23.587858"><ele>2252.9</ele><time>2026-04-05T07:36:38.000Z</time></trkpt>
<trkpt lat="42.207429" lon="23.587863"><ele>2253.8</ele><time>2026-04-05T07:36:39.000Z</time></trkpt>
<trkpt lat="42.20742" lon="23.587868"><ele>2253.8</ele><time>2026-04-05T07:36:40.000Z</time></trkpt>
<trkpt lat="42.207413" lon="23.587872"><ele>2253.8</ele><time>2026-04-05T07:36:41.000Z</time></trkpt>
<trkpt lat="42.207406" lon="23.587876"><ele>2253.8</ele><time>2026-04-05T07:36:42.000Z</time></trkpt>
<trkpt lat="42.207397" lon="23.587881"><ele>2253.8</ele><time>2026-04-05T07:36:43.000Z</time></trkpt>
<trkpt lat="42.20739" lon="23.587886"><ele>2254.6</ele><time>2026-04-05T07:36:44.000Z</time></trkpt>
<trkpt lat="42.207383" lon="23.58789"><ele>2254.6</ele><time>2026-04-05T07:36:45.000Z</time></trkpt>
<trkpt lat="42.207376" lon="23.587896"><ele>2254.6</ele><time>2026-04-05T07:36:46.000Z</time></trkpt>
<trkpt lat="42.207369" lon="23.587903"><ele>2254.6</ele><time>2026-04-05T07:36:47.000Z</time></trkpt>
<trkpt lat="42.207363" lon="23.587909"><ele>2254.6</ele><time>2026-04-05T07:36:48.000Z</time></trkpt>
<trkpt lat="42.207357" lon="23.587916"><ele>2254.9</ele><time>2026-04-05T07:36:49.000Z</time></trkpt>
<trkpt lat="42.207352" lon="23.587923"><ele>2254.9</ele><time>2026-04-05T07:36:50.000Z</time></trkpt>
<trkpt lat="42.207346" lon="23.58793"><ele>2254.9</ele><time>2026-04-05T07:36:51.000Z</time></trkpt>
<trkpt lat="42.207341" lon="23.587936"><ele>2254.9</ele><time>2026-04-05T07:36:52.000Z</time></trkpt>
<trkpt lat="42.207335" lon="23.587942"><ele>2254.9</ele><time>2026-04-05T07:36:53.000Z</time></trkpt>
<trkpt lat="42.207328" lon="23.587949"><ele>2255.6</ele><time>2026-04-05T07:36:54.000Z</time></trkpt>
<trkpt lat="42.207322" lon="23.587955"><ele>2255.6</ele><time>2026-04-05T07:36:55.000Z</time></trkpt>
<trkpt lat="42.207315" lon="23.58796"><ele>2255.6</ele><time>2026-04-05T07:36:56.000Z</time></trkpt>
<trkpt lat="42.207308" lon="23.587965"><ele>2255.6</ele><time>2026-04-05T07:36:57.000Z</time></trkpt>
<trkpt lat="42.2073" lon="23.587969"><ele>2255.6</ele><time>2026-04-05T07:36:58.000Z</time></trkpt>
<trkpt lat="42.207293" lon="23.587973"><ele>2256.4</ele><time>2026-04-05T07:36:59.000Z</time></trkpt>
<trkpt lat="42.207286" lon="23.587976"><ele>2256.4</ele><time>2026-04-05T07:37:00.000Z</time></trkpt>
<trkpt lat="42.207279" lon="23.58798"><ele>2256.4</ele><time>2026-04-05T07:37:01.000Z</time></trkpt>
<trkpt lat="42.207273" lon="23.587986"><ele>2256.4</ele><time>2026-04-05T07:37:02.000Z</time></trkpt>
<trkpt lat="42.207268" lon="23.587992"><ele>2256.4</ele><time>2026-04-05T07:37:03.000Z</time></trkpt>
<trkpt lat="42.207264" lon="23.587998"><ele>2256.8</ele><time>2026-04-05T07:37:04.000Z</time></trkpt>
<trkpt lat="42.207258" lon="23.588005"><ele>2256.8</ele><time>2026-04-05T07:37:05.000Z</time></trkpt>
<trkpt lat="42.207253" lon="23.588011"><ele>2256.8</ele><time>2026-04-05T07:37:06.000Z</time></trkpt>
<trkpt lat="42.207246" lon="23.588017"><ele>2256.8</ele><time>2026-04-05T07:37:07.000Z</time></trkpt>
<trkpt lat="42.207238" lon="23.588022"><ele>2256.8</ele><time>2026-04-05T07:37:08.000Z</time></trkpt>
<trkpt lat="42.20723" lon="23.588028"><ele>2257.6</ele><time>2026-04-05T07:37:09.000Z</time></trkpt>
<trkpt lat="42.207222" lon="23.588034"><ele>2257.6</ele><time>2026-04-05T07:37:10.000Z</time></trkpt>
<trkpt lat="42.207212" lon="23.58804"><ele>2257.6</ele><time>2026-04-05T07:37:11.000Z</time></trkpt>
<trkpt lat="42.207202" lon="23.588045"><ele>2257.6</ele><time>2026-04-05T07:37:12.000Z</time></trkpt>
<trkpt lat="42.207193" lon="23.58805"><ele>2257.6</ele><time>2026-04-05T07:37:13.000Z</time></trkpt>
<trkpt lat="42.207183" lon="23.588055"><ele>2258.4</ele><time>2026-04-05T07:37:14.000Z</time></trkpt>
<trkpt lat="42.207172" lon="23.588058"><ele>2258.4</ele><time>2026-04-05T07:37:15.000Z</time></trkpt>
<trkpt lat="42.207162" lon="23.58806"><ele>2258.4</ele><time>2026-04-05T07:37:16.000Z</time></trkpt>
<trkpt lat="42.207153" lon="23.588063"><ele>2258.4</ele><time>2026-04-05T07:37:17.000Z</time></trkpt>
<trkpt lat="42.207145" lon="23.588065"><ele>2258.4</ele><time>2026-04-05T07:37:18.000Z</time></trkpt>
<trkpt lat="42.207136" lon="23.588068"><ele>2258.9</ele><time>2026-04-05T07:37:19.000Z</time></trkpt>
<trkpt lat="42.207127" lon="23.58807"><ele>2258.9</ele><time>2026-04-05T07:37:20.000Z</time></trkpt>
<trkpt lat="42.207119" lon="23.588074"><ele>2258.9</ele><time>2026-04-05T07:37:21.000Z</time></trkpt>
<trkpt lat="42.20711" lon="23.588077"><ele>2258.9</ele><time>2026-04-05T07:37:22.000Z</time></trkpt>
<trkpt lat="42.207099" lon="23.588081"><ele>2258.9</ele><time>2026-04-05T07:37:23.000Z</time></trkpt>
<trkpt lat="42.207088" lon="23.588084"><ele>2259.7</ele><time>2026-04-05T07:37:24.000Z</time></trkpt>
<trkpt lat="42.207077" lon="23.588087"><ele>2259.7</ele><time>2026-04-05T07:37:25.000Z</time></trkpt>
<trkpt lat="42.207066" lon="23.58809"><ele>2259.7</ele><time>2026-04-05T07:37:26.000Z</time></trkpt>
<trkpt lat="42.207056" lon="23.588093"><ele>2259.7</ele><time>2026-04-05T07:37:27.000Z</time></trkpt>
<trkpt lat="42.207047" lon="23.588097"><ele>2259.7</ele><time>2026-04-05T07:37:28.000Z</time></trkpt>
<trkpt lat="42.207038" lon="23.588101"><ele>2260.6</ele><time>2026-04-05T07:37:29.000Z</time></trkpt>
<trkpt lat="42.20703" lon="23.588104"><ele>2260.6</ele><time>2026-04-05T07:37:30.000Z</time></trkpt>
<trkpt lat="42.207022" lon="23.588106"><ele>2260.6</ele><time>2026-04-05T07:37:31.000Z</time></trkpt>
<trkpt lat="42.207012" lon="23.588109"><ele>2260.6</ele><time>2026-04-05T07:37:32.000Z</time></trkpt>
<trkpt lat="42.207002" lon="23.588112"><ele>2260.6</ele><time>2026-04-05T07:37:33.000Z</time></trkpt>
<trkpt lat="42.206993" lon="23.588113"><ele>2261</ele><time>2026-04-05T07:37:34.000Z</time></trkpt>
<trkpt lat="42.206983" lon="23.588115"><ele>2261</ele><time>2026-04-05T07:37:35.000Z</time></trkpt>
<trkpt lat="42.206973" lon="23.588116"><ele>2261</ele><time>2026-04-05T07:37:36.000Z</time></trkpt>
<trkpt lat="42.206963" lon="23.588118"><ele>2261</ele><time>2026-04-05T07:37:37.000Z</time></trkpt>
<trkpt lat="42.206953" lon="23.588119"><ele>2261</ele><time>2026-04-05T07:37:38.000Z</time></trkpt>
<trkpt lat="42.206943" lon="23.588121"><ele>2261.7</ele><time>2026-04-05T07:37:39.000Z</time></trkpt>
<trkpt lat="42.206933" lon="23.588122"><ele>2261.7</ele><time>2026-04-05T07:37:40.000Z</time></trkpt>
<trkpt lat="42.206922" lon="23.588124"><ele>2261.7</ele><time>2026-04-05T07:37:41.000Z</time></trkpt>
<trkpt lat="42.206912" lon="23.588126"><ele>2261.7</ele><time>2026-04-05T07:37:42.000Z</time></trkpt>
<trkpt lat="42.206902" lon="23.588127"><ele>2261.7</ele><time>2026-04-05T07:37:43.000Z</time></trkpt>
<trkpt lat="42.206892" lon="23.588128"><ele>2262.3</ele><time>2026-04-05T07:37:44.000Z</time></trkpt>
<trkpt lat="42.206883" lon="23.588128"><ele>2262.3</ele><time>2026-04-05T07:37:45.000Z</time></trkpt>
<trkpt lat="42.206873" lon="23.588128"><ele>2262.3</ele><time>2026-04-05T07:37:46.000Z</time></trkpt>
<trkpt lat="42.206865" lon="23.588125"><ele>2262.3</ele><time>2026-04-05T07:37:47.000Z</time></trkpt>
<trkpt lat="42.206858" lon="23.588122"><ele>2262.3</ele><time>2026-04-05T07:37:48.000Z</time></trkpt>
<trkpt lat="42.20685" lon="23.588119"><ele>2262.5</ele><time>2026-04-05T07:37:49.000Z</time></trkpt>
<trkpt lat="42.206841" lon="23.588117"><ele>2262.5</ele><time>2026-04-05T07:37:50.000Z</time></trkpt>
<trkpt lat="42.206833" lon="23.588114"><ele>2262.5</ele><time>2026-04-05T07:37:51.000Z</time></trkpt>
<trkpt lat="42.206825" lon="23.588112"><ele>2262.5</ele><time>2026-04-05T07:37:52.000Z</time></trkpt>
<trkpt lat="42.206816" lon="23.588111"><ele>2262.5</ele><time>2026-04-05T07:37:53.000Z</time></trkpt>
<trkpt lat="42.206806" lon="23.588109"><ele>2263</ele><time>2026-04-05T07:37:54.000Z</time></trkpt>
<trkpt lat="42.206798" lon="23.588108"><ele>2263</ele><time>2026-04-05T07:37:55.000Z</time></trkpt>
<trkpt lat="42.20679" lon="23.588106"><ele>2263</ele><time>2026-04-05T07:37:56.000Z</time></trkpt>
<trkpt lat="42.206783" lon="23.588104"><ele>2263</ele><time>2026-04-05T07:37:57.000Z</time></trkpt>
<trkpt lat="42.206776" lon="23.588103"><ele>2263</ele><time>2026-04-05T07:37:58.000Z</time></trkpt>
<trkpt lat="42.20677" lon="23.588102"><ele>2263.5</ele><time>2026-04-05T07:37:59.000Z</time></trkpt>
<trkpt lat="42.206764" lon="23.588101"><ele>2263.5</ele><time>2026-04-05T07:38:00.000Z</time></trkpt>
<trkpt lat="42.206756" lon="23.588101"><ele>2263.5</ele><time>2026-04-05T07:38:01.000Z</time></trkpt>
<trkpt lat="42.20675" lon="23.588102"><ele>2263.5</ele><time>2026-04-05T07:38:02.000Z</time></trkpt>
<trkpt lat="42.206742" lon="23.588102"><ele>2263.5</ele><time>2026-04-05T07:38:03.000Z</time></trkpt>
<trkpt lat="42.206734" lon="23.588103"><ele>2263.7</ele><time>2026-04-05T07:38:04.000Z</time></trkpt>
<trkpt lat="42.206726" lon="23.588105"><ele>2263.7</ele><time>2026-04-05T07:38:05.000Z</time></trkpt>
<trkpt lat="42.206718" lon="23.588106"><ele>2263.7</ele><time>2026-04-05T07:38:06.000Z</time></trkpt>
<trkpt lat="42.206709" lon="23.588106"><ele>2263.7</ele><time>2026-04-05T07:38:07.000Z</time></trkpt>
<trkpt lat="42.206703" lon="23.588107"><ele>2263.7</ele><time>2026-04-05T07:38:08.000Z</time></trkpt>
<trkpt lat="42.206696" lon="23.588108"><ele>2264.1</ele><time>2026-04-05T07:38:09.000Z</time></trkpt>
<trkpt lat="42.206689" lon="23.588108"><ele>2264.1</ele><time>2026-04-05T07:38:10.000Z</time></trkpt>
<trkpt lat="42.206682" lon="23.588107"><ele>2264.1</ele><time>2026-04-05T07:38:11.000Z</time></trkpt>
<trkpt lat="42.206675" lon="23.588106"><ele>2264.1</ele><time>2026-04-05T07:38:12.000Z</time></trkpt>
<trkpt lat="42.206667" lon="23.588105"><ele>2264.1</ele><time>2026-04-05T07:38:13.000Z</time></trkpt>
<trkpt lat="42.206659" lon="23.588104"><ele>2264.8</ele><time>2026-04-05T07:38:14.000Z</time></trkpt>
<trkpt lat="42.206652" lon="23.588103"><ele>2264.8</ele><time>2026-04-05T07:38:15.000Z</time></trkpt>
<trkpt lat="42.206645" lon="23.588103"><ele>2264.8</ele><time>2026-04-05T07:38:16.000Z</time></trkpt>
<trkpt lat="42.206636" lon="23.588101"><ele>2264.8</ele><time>2026-04-05T07:38:17.000Z</time></trkpt>
<trkpt lat="42.206627" lon="23.5881"><ele>2264.8</ele><time>2026-04-05T07:38:18.000Z</time></trkpt>
<trkpt lat="42.206618" lon="23.588099"><ele>2265.2</ele><time>2026-04-05T07:38:19.000Z</time></trkpt>
<trkpt lat="42.206609" lon="23.588097"><ele>2265.2</ele><time>2026-04-05T07:38:20.000Z</time></trkpt>
<trkpt lat="42.2066" lon="23.588098"><ele>2265.2</ele><time>2026-04-05T07:38:21.000Z</time></trkpt>
<trkpt lat="42.206592" lon="23.588098"><ele>2265.2</ele><time>2026-04-05T07:38:22.000Z</time></trkpt>
<trkpt lat="42.206585" lon="23.588099"><ele>2265.2</ele><time>2026-04-05T07:38:23.000Z</time></trkpt>
<trkpt lat="42.206578" lon="23.5881"><ele>2266</ele><time>2026-04-05T07:38:24.000Z</time></trkpt>
<trkpt lat="42.206571" lon="23.588101"><ele>2266</ele><time>2026-04-05T07:38:25.000Z</time></trkpt>
<trkpt lat="42.206564" lon="23.588101"><ele>2266</ele><time>2026-04-05T07:38:26.000Z</time></trkpt>
<trkpt lat="42.206556" lon="23.588103"><ele>2266</ele><time>2026-04-05T07:38:27.000Z</time></trkpt>
<trkpt lat="42.206549" lon="23.588103"><ele>2266</ele><time>2026-04-05T07:38:28.000Z</time></trkpt>
<trkpt lat="42.206542" lon="23.588104"><ele>2266.6</ele><time>2026-04-05T07:38:29.000Z</time></trkpt>
<trkpt lat="42.206536" lon="23.588105"><ele>2266.6</ele><time>2026-04-05T07:38:30.000Z</time></trkpt>
<trkpt lat="42.206531" lon="23.588106"><ele>2266.6</ele><time>2026-04-05T07:38:31.000Z</time></trkpt>
<trkpt lat="42.206525" lon="23.588108"><ele>2266.6</ele><time>2026-04-05T07:38:32.000Z</time></trkpt>
<trkpt lat="42.206519" lon="23.58811"><ele>2266.6</ele><time>2026-04-05T07:38:33.000Z</time></trkpt>
<trkpt lat="42.206514" lon="23.588111"><ele>2266.8</ele><time>2026-04-05T07:38:34.000Z</time></trkpt>
<trkpt lat="42.206508" lon="23.588111"><ele>2266.8</ele><time>2026-04-05T07:38:35.000Z</time></trkpt>
<trkpt lat="42.206502" lon="23.588112"><ele>2266.8</ele><time>2026-04-05T07:38:36.000Z</time></trkpt>
<trkpt lat="42.206497" lon="23.588113"><ele>2266.8</ele><time>2026-04-05T07:38:37.000Z</time></trkpt>
<trkpt lat="42.206493" lon="23.588114"><ele>2266.8</ele><time>2026-04-05T07:38:38.000Z</time></trkpt>
<trkpt lat="42.206488" lon="23.588117"><ele>2267</ele><time>2026-04-05T07:38:39.000Z</time></trkpt>
<trkpt lat="42.206482" lon="23.588121"><ele>2267</ele><time>2026-04-05T07:38:40.000Z</time></trkpt>
<trkpt lat="42.206477" lon="23.588124"><ele>2267</ele><time>2026-04-05T07:38:41.000Z</time></trkpt>
<trkpt lat="42.206471" lon="23.588127"><ele>2267</ele><time>2026-04-05T07:38:42.000Z</time></trkpt>
<trkpt lat="42.206465" lon="23.588129"><ele>2267</ele><time>2026-04-05T07:38:43.000Z</time></trkpt>
<trkpt lat="42.206459" lon="23.588131"><ele>2267.1</ele><time>2026-04-05T07:38:44.000Z</time></trkpt>
<trkpt lat="42.206453" lon="23.588133"><ele>2267.1</ele><time>2026-04-05T07:38:45.000Z</time></trkpt>
<trkpt lat="42.206446" lon="23.588134"><ele>2267.1</ele><time>2026-04-05T07:38:46.000Z</time></trkpt>
<trkpt lat="42.20644" lon="23.588136"><ele>2267.1</ele><time>2026-04-05T07:38:47.000Z</time></trkpt>
<trkpt lat="42.206433" lon="23.588138"><ele>2267.1</ele><time>2026-04-05T07:38:48.000Z</time></trkpt>
<trkpt lat="42.206426" lon="23.58814"><ele>2267.3</ele><time>2026-04-05T07:38:49.000Z</time></trkpt>
<trkpt lat="42.20642" lon="23.588141"><ele>2267.3</ele><time>2026-04-05T07:38:50.000Z</time></trkpt>
<trkpt lat="42.206414" lon="23.588141"><ele>2267.3</ele><time>2026-04-05T07:38:51.000Z</time></trkpt>
<trkpt lat="42.206409" lon="23.588141"><ele>2267.3</ele><time>2026-04-05T07:38:52.000Z</time></trkpt>
<trkpt lat="42.206405" lon="23.588141"><ele>2267.3</ele><time>2026-04-05T07:38:53.000Z</time></trkpt>
<trkpt lat="42.2064" lon="23.588141"><ele>2267.8</ele><time>2026-04-05T07:38:54.000Z</time></trkpt>
<trkpt lat="42.206395" lon="23.588141"><ele>2267.8</ele><time>2026-04-05T07:38:55.000Z</time></trkpt>
<trkpt lat="42.206391" lon="23.588141"><ele>2267.8</ele><time>2026-04-05T07:38:56.000Z</time></trkpt>
<trkpt lat="42.206385" lon="23.588143"><ele>2267.8</ele><time>2026-04-05T07:38:57.000Z</time></trkpt>
<trkpt lat="42.206379" lon="23.588144"><ele>2267.8</ele><time>2026-04-05T07:38:58.000Z</time></trkpt>
<trkpt lat="42.206373" lon="23.588147"><ele>2268.4</ele><time>2026-04-05T07:38:59.000Z</time></trkpt>
<trkpt lat="42.206367" lon="23.58815"><ele>2268.4</ele><time>2026-04-05T07:39:00.000Z</time></trkpt>
<trkpt lat="42.206361" lon="23.588153"><ele>2268.4</ele><time>2026-04-05T07:39:01.000Z</time></trkpt>
<trkpt lat="42.206355" lon="23.588155"><ele>2268.4</ele><time>2026-04-05T07:39:02.000Z</time></trkpt>
<trkpt lat="42.20635" lon="23.588157"><ele>2268.4</ele><time>2026-04-05T07:39:03.000Z</time></trkpt>
<trkpt lat="42.206344" lon="23.588159"><ele>2268.7</ele><time>2026-04-05T07:39:04.000Z</time></trkpt>
<trkpt lat="42.206338" lon="23.58816"><ele>2268.7</ele><time>2026-04-05T07:39:05.000Z</time></trkpt>
<trkpt lat="42.206332" lon="23.588162"><ele>2268.7</ele><time>2026-04-05T07:39:06.000Z</time></trkpt>
<trkpt lat="42.206325" lon="23.588164"><ele>2268.7</ele><time>2026-04-05T07:39:07.000Z</time></trkpt>
<trkpt lat="42.206318" lon="23.588168"><ele>2268.7</ele><time>2026-04-05T07:39:08.000Z</time></trkpt>
<trkpt lat="42.206312" lon="23.588171"><ele>2269.3</ele><time>2026-04-05T07:39:09.000Z</time></trkpt>
<trkpt lat="42.206306" lon="23.588174"><ele>2269.3</ele><time>2026-04-05T07:39:10.000Z</time></trkpt>
<trkpt lat="42.206299" lon="23.588177"><ele>2269.3</ele><time>2026-04-05T07:39:11.000Z</time></trkpt>
<trkpt lat="42.206292" lon="23.58818"><ele>2269.3</ele><time>2026-04-05T07:39:12.000Z</time></trkpt>
<trkpt lat="42.206286" lon="23.588183"><ele>2269.3</ele><time>2026-04-05T07:39:13.000Z</time></trkpt>
<trkpt lat="42.206278" lon="23.588187"><ele>2269.8</ele><time>2026-04-05T07:39:14.000Z</time></trkpt>
<trkpt lat="42.206272" lon="23.588189"><ele>2269.8</ele><time>2026-04-05T07:39:15.000Z</time></trkpt>
<trkpt lat="42.206264" lon="23.588192"><ele>2269.8</ele><time>2026-04-05T07:39:16.000Z</time></trkpt>
<trkpt lat="42.206257" lon="23.588194"><ele>2269.8</ele><time>2026-04-05T07:39:17.000Z</time></trkpt>
<trkpt lat="42.206251" lon="23.588196"><ele>2269.8</ele><time>2026-04-05T07:39:18.000Z</time></trkpt>
<trkpt lat="42.206245" lon="23.588198"><ele>2270.1</ele><time>2026-04-05T07:39:19.000Z</time></trkpt>
<trkpt lat="42.206239" lon="23.588199"><ele>2270.1</ele><time>2026-04-05T07:39:20.000Z</time></trkpt>
<trkpt lat="42.206233" lon="23.588201"><ele>2270.1</ele><time>2026-04-05T07:39:21.000Z</time></trkpt>
<trkpt lat="42.206228" lon="23.588202"><ele>2270.1</ele><time>2026-04-05T07:39:22.000Z</time></trkpt>
<trkpt lat="42.206222" lon="23.588203"><ele>2270.1</ele><time>2026-04-05T07:39:23.000Z</time></trkpt>
<trkpt lat="42.206217" lon="23.588205"><ele>2270.7</ele><time>2026-04-05T07:39:24.000Z</time></trkpt>
<trkpt lat="42.206213" lon="23.588208"><ele>2270.7</ele><time>2026-04-05T07:39:25.000Z</time></trkpt>
<trkpt lat="42.206208" lon="23.58821"><ele>2270.7</ele><time>2026-04-05T07:39:26.000Z</time></trkpt>
<trkpt lat="42.206203" lon="23.588213"><ele>2270.7</ele><time>2026-04-05T07:39:27.000Z</time></trkpt>
<trkpt lat="42.206199" lon="23.588216"><ele>2270.7</ele><time>2026-04-05T07:39:28.000Z</time></trkpt>
<trkpt lat="42.206196" lon="23.588218"><ele>2271.4</ele><time>2026-04-05T07:39:29.000Z</time></trkpt>
<trkpt lat="42.206192" lon="23.588223"><ele>2271.4</ele><time>2026-04-05T07:39:30.000Z</time></trkpt>
<trkpt lat="42.206187" lon="23.588228"><ele>2271.4</ele><time>2026-04-05T07:39:31.000Z</time></trkpt>
<trkpt lat="42.206182" lon="23.588234"><ele>2271.4</ele><time>2026-04-05T07:39:32.000Z</time></trkpt>
<trkpt lat="42.206176" lon="23.588239"><ele>2271.4</ele><time>2026-04-05T07:39:33.000Z</time></trkpt>
<trkpt lat="42.206167" lon="23.588243"><ele>2271.7</ele><time>2026-04-05T07:39:34.000Z</time></trkpt>
<trkpt lat="42.206158" lon="23.588245"><ele>2271.7</ele><time>2026-04-05T07:39:35.000Z</time></trkpt>
<trkpt lat="42.20615" lon="23.588246"><ele>2271.7</ele><time>2026-04-05T07:39:36.000Z</time></trkpt>
<trkpt lat="42.206141" lon="23.588246"><ele>2271.7</ele><time>2026-04-05T07:39:37.000Z</time></trkpt>
<trkpt lat="42.206132" lon="23.588247"><ele>2271.7</ele><time>2026-04-05T07:39:38.000Z</time></trkpt>
<trkpt lat="42.206124" lon="23.588248"><ele>2272.3</ele><time>2026-04-05T07:39:39.000Z</time></trkpt>
<trkpt lat="42.206115" lon="23.58825"><ele>2272.3</ele><time>2026-04-05T07:39:40.000Z</time></trkpt>
<trkpt lat="42.206106" lon="23.588252"><ele>2272.3</ele><time>2026-04-05T07:39:41.000Z</time></trkpt>
<trkpt lat="42.206099" lon="23.588255"><ele>2272.3</ele><time>2026-04-05T07:39:42.000Z</time></trkpt>
<trkpt lat="42.206091" lon="23.588258"><ele>2272.3</ele><time>2026-04-05T07:39:43.000Z</time></trkpt>
<trkpt lat="42.206082" lon="23.58826"><ele>2272.7</ele><time>2026-04-05T07:39:44.000Z</time></trkpt>
<trkpt lat="42.206074" lon="23.588263"><ele>2272.7</ele><time>2026-04-05T07:39:45.000Z</time></trkpt>
<trkpt lat="42.206066" lon="23.588265"><ele>2272.7</ele><time>2026-04-05T07:39:46.000Z</time></trkpt>
<trkpt lat="42.206057" lon="23.588266"><ele>2272.7</ele><time>2026-04-05T07:39:47.000Z</time></trkpt>
<trkpt lat="42.206048" lon="23.588269"><ele>2272.7</ele><time>2026-04-05T07:39:48.000Z</time></trkpt>
<trkpt lat="42.20604" lon="23.588272"><ele>2272.9</ele><time>2026-04-05T07:39:49.000Z</time></trkpt>
<trkpt lat="42.206031" lon="23.588274"><ele>2272.9</ele><time>2026-04-05T07:39:50.000Z</time></trkpt>
<trkpt lat="42.206022" lon="23.588275"><ele>2272.9</ele><time>2026-04-05T07:39:51.000Z</time></trkpt>
<trkpt lat="42.206014" lon="23.588277"><ele>2272.9</ele><time>2026-04-05T07:39:52.000Z</time></trkpt>
<trkpt lat="42.206006" lon="23.588278"><ele>2272.9</ele><time>2026-04-05T07:39:53.000Z</time></trkpt>
<trkpt lat="42.205997" lon="23.58828"><ele>2273.5</ele><time>2026-04-05T07:39:54.000Z</time></trkpt>
<trkpt lat="42.205988" lon="23.588282"><ele>2273.5</ele><time>2026-04-05T07:39:55.000Z</time></trkpt>
<trkpt lat="42.20598" lon="23.588285"><ele>2273.5</ele><time>2026-04-05T07:39:56.000Z</time></trkpt>
<trkpt lat="42.205969" lon="23.588288"><ele>2273.5</ele><time>2026-04-05T07:39:57.000Z</time></trkpt>
<trkpt lat="42.205959" lon="23.588291"><ele>2273.5</ele><time>2026-04-05T07:39:58.000Z</time></trkpt>
<trkpt lat="42.205949" lon="23.588293"><ele>2274.1</ele><time>2026-04-05T07:39:59.000Z</time></trkpt>
<trkpt lat="42.20594" lon="23.588294"><ele>2274.1</ele><time>2026-04-05T07:40:00.000Z</time></trkpt>
<trkpt lat="42.205929" lon="23.588296"><ele>2274.1</ele><time>2026-04-05T07:40:01.000Z</time></trkpt>
<trkpt lat="42.205921" lon="23.588296"><ele>2274.1</ele><time>2026-04-05T07:40:02.000Z</time></trkpt>
<trkpt lat="42.205913" lon="23.588297"><ele>2274.1</ele><time>2026-04-05T07:40:03.000Z</time></trkpt>
<trkpt lat="42.205904" lon="23.588298"><ele>2274.3</ele><time>2026-04-05T07:40:04.000Z</time></trkpt>
<trkpt lat="42.205897" lon="23.5883"><ele>2274.3</ele><time>2026-04-05T07:40:05.000Z</time></trkpt>
<trkpt lat="42.20589" lon="23.588303"><ele>2274.3</ele><time>2026-04-05T07:40:06.000Z</time></trkpt>
<trkpt lat="42.205881" lon="23.588306"><ele>2274.3</ele><time>2026-04-05T07:40:07.000Z</time></trkpt>
<trkpt lat="42.205874" lon="23.588308"><ele>2274.3</ele><time>2026-04-05T07:40:08.000Z</time></trkpt>
<trkpt lat="42.205867" lon="23.58831"><ele>2274.7</ele><time>2026-04-05T07:40:09.000Z</time></trkpt>
<trkpt lat="42.205858" lon="23.58831"><ele>2274.7</ele><time>2026-04-05T07:40:10.000Z</time></trkpt>
<trkpt lat="42.20585" lon="23.58831"><ele>2274.7</ele><time>2026-04-05T07:40:11.000Z</time></trkpt>
<trkpt lat="42.205842" lon="23.588311"><ele>2274.7</ele><time>2026-04-05T07:40:12.000Z</time></trkpt>
<trkpt lat="42.205833" lon="23.588314"><ele>2274.7</ele><time>2026-04-05T07:40:13.000Z</time></trkpt>
<trkpt lat="42.205823" lon="23.588316"><ele>2275</ele><time>2026-04-05T07:40:14.000Z</time></trkpt>
<trkpt lat="42.205813" lon="23.58832"><ele>2275</ele><time>2026-04-05T07:40:15.000Z</time></trkpt>
<trkpt lat="42.205803" lon="23.588324"><ele>2275</ele><time>2026-04-05T07:40:16.000Z</time></trkpt>
<trkpt lat="42.205794" lon="23.588327"><ele>2275</ele><time>2026-04-05T07:40:17.000Z</time></trkpt>
<trkpt lat="42.205783" lon="23.588331"><ele>2275</ele><time>2026-04-05T07:40:18.000Z</time></trkpt>
<trkpt lat="42.205773" lon="23.588336"><ele>2275.3</ele><time>2026-04-05T07:40:19.000Z</time></trkpt>
<trkpt lat="42.205763" lon="23.58834"><ele>2275.3</ele><time>2026-04-05T07:40:20.000Z</time></trkpt>
<trkpt lat="42.205754" lon="23.588344"><ele>2275.3</ele><time>2026-04-05T07:40:21.000Z</time></trkpt>
<trkpt lat="42.205744" lon="23.58835"><ele>2275.3</ele><time>2026-04-05T07:40:22.000Z</time></trkpt>
<trkpt lat="42.205734" lon="23.588356"><ele>2275.3</ele><time>2026-04-05T07:40:23.000Z</time></trkpt>
<trkpt lat="42.205724" lon="23.588361"><ele>2275.9</ele><time>2026-04-05T07:40:24.000Z</time></trkpt>
<trkpt lat="42.205714" lon="23.588366"><ele>2275.9</ele><time>2026-04-05T07:40:25.000Z</time></trkpt>
<trkpt lat="42.205704" lon="23.588373"><ele>2275.9</ele><time>2026-04-05T07:40:26.000Z</time></trkpt>
<trkpt lat="42.205694" lon="23.588378"><ele>2275.9</ele><time>2026-04-05T07:40:27.000Z</time></trkpt>
<trkpt lat="42.205684" lon="23.588385"><ele>2275.9</ele><time>2026-04-05T07:40:28.000Z</time></trkpt>
<trkpt lat="42.205675" lon="23.588394"><ele>2276.2</ele><time>2026-04-05T07:40:29.000Z</time></trkpt>
<trkpt lat="42.205666" lon="23.588403"><ele>2276.2</ele><time>2026-04-05T07:40:30.000Z</time></trkpt>
<trkpt lat="42.205656" lon="23.588412"><ele>2276.2</ele><time>2026-04-05T07:40:31.000Z</time></trkpt>
<trkpt lat="42.205645" lon="23.588419"><ele>2276.2</ele><time>2026-04-05T07:40:32.000Z</time></trkpt>
<trkpt lat="42.205635" lon="23.588426"><ele>2276.2</ele><time>2026-04-05T07:40:33.000Z</time></trkpt>
<trkpt lat="42.205626" lon="23.588433"><ele>2276.2</ele><time>2026-04-05T07:40:34.000Z</time></trkpt>
<trkpt lat="42.205617" lon="23.588441"><ele>2276.2</ele><time>2026-04-05T07:40:35.000Z</time></trkpt>
<trkpt lat="42.20561" lon="23.588448"><ele>2276.2</ele><time>2026-04-05T07:40:36.000Z</time></trkpt>
<trkpt lat="42.205605" lon="23.588453"><ele>2276.2</ele><time>2026-04-05T07:40:37.000Z</time></trkpt>
<trkpt lat="42.2056" lon="23.588459"><ele>2276.2</ele><time>2026-04-05T07:40:38.000Z</time></trkpt>
<trkpt lat="42.205594" lon="23.588464"><ele>2276</ele><time>2026-04-05T07:40:39.000Z</time></trkpt>
<trkpt lat="42.205588" lon="23.588468"><ele>2276</ele><time>2026-04-05T07:40:40.000Z</time></trkpt>
<trkpt lat="42.205581" lon="23.588472"><ele>2276</ele><time>2026-04-05T07:40:41.000Z</time></trkpt>
<trkpt lat="42.20557" lon="23.58848"><ele>2276</ele><time>2026-04-05T07:40:42.000Z</time></trkpt>
<trkpt lat="42.205559" lon="23.588486"><ele>2276</ele><time>2026-04-05T07:40:43.000Z</time></trkpt>
<trkpt lat="42.205548" lon="23.588493"><ele>2275.5</ele><time>2026-04-05T07:40:44.000Z</time></trkpt>
<trkpt lat="42.205536" lon="23.5885"><ele>2275.5</ele><time>2026-04-05T07:40:45.000Z</time></trkpt>
<trkpt lat="42.205524" lon="23.588508"><ele>2275.5</ele><time>2026-04-05T07:40:46.000Z</time></trkpt>
<trkpt lat="42.205513" lon="23.588516"><ele>2275.5</ele><time>2026-04-05T07:40:47.000Z</time></trkpt>
<trkpt lat="42.205502" lon="23.588523"><ele>2275.5</ele><time>2026-04-05T07:40:48.000Z</time></trkpt>
<trkpt lat="42.205491" lon="23.58853"><ele>2275.4</ele><time>2026-04-05T07:40:49.000Z</time></trkpt>
<trkpt lat="42.205482" lon="23.588537"><ele>2275.4</ele><time>2026-04-05T07:40:50.000Z</time></trkpt>
<trkpt lat="42.205474" lon="23.588544"><ele>2275.4</ele><time>2026-04-05T07:40:51.000Z</time></trkpt>
<trkpt lat="42.205466" lon="23.588551"><ele>2275.4</ele><time>2026-04-05T07:40:52.000Z</time></trkpt>
<trkpt lat="42.205458" lon="23.588558"><ele>2275.4</ele><time>2026-04-05T07:40:53.000Z</time></trkpt>
<trkpt lat="42.205451" lon="23.588564"><ele>2275.4</ele><time>2026-04-05T07:40:54.000Z</time></trkpt>
<trkpt lat="42.205446" lon="23.588568"><ele>2275.4</ele><time>2026-04-05T07:40:55.000Z</time></trkpt>
<trkpt lat="42.205442" lon="23.588571"><ele>2275.4</ele><time>2026-04-05T07:40:56.000Z</time></trkpt>
<trkpt lat="42.205439" lon="23.588572"><ele>2275.4</ele><time>2026-04-05T07:40:57.000Z</time></trkpt>
<trkpt lat="42.205438" lon="23.588573"><ele>2275.4</ele><time>2026-04-05T07:40:58.000Z</time></trkpt>
<trkpt lat="42.205438" lon="23.588573"><ele>2275.5</ele><time>2026-04-05T07:40:59.000Z</time></trkpt>
<trkpt lat="42.205439" lon="23.588573"><ele>2275.5</ele><time>2026-04-05T07:41:00.000Z</time></trkpt>
<trkpt lat="42.205439" lon="23.588573"><ele>2275.5</ele><time>2026-04-05T07:41:01.000Z</time></trkpt>
<trkpt lat="42.205439" lon="23.588574"><ele>2275.5</ele><time>2026-04-05T07:41:02.000Z</time></trkpt>
<trkpt lat="42.205438" lon="23.588574"><ele>2275.5</ele><time>2026-04-05T07:41:03.000Z</time></trkpt>
<trkpt lat="42.205435" lon="23.588575"><ele>2275.6</ele><time>2026-04-05T07:41:04.000Z</time></trkpt>
<trkpt lat="42.20543" lon="23.588577"><ele>2275.6</ele><time>2026-04-05T07:41:05.000Z</time></trkpt>
<trkpt lat="42.205422" lon="23.588581"><ele>2275.6</ele><time>2026-04-05T07:41:06.000Z</time></trkpt>
<trkpt lat="42.205412" lon="23.588586"><ele>2275.6</ele><time>2026-04-05T07:41:07.000Z</time></trkpt>
<trkpt lat="42.205403" lon="23.588591"><ele>2275.6</ele><time>2026-04-05T07:41:08.000Z</time></trkpt>
<trkpt lat="42.205395" lon="23.588596"><ele>2275.8</ele><time>2026-04-05T07:41:09.000Z</time></trkpt>
<trkpt lat="42.205387" lon="23.588601"><ele>2275.8</ele><time>2026-04-05T07:41:10.000Z</time></trkpt>
<trkpt lat="42.20538" lon="23.588605"><ele>2275.8</ele><time>2026-04-05T07:41:11.000Z</time></trkpt>
<trkpt lat="42.205374" lon="23.588609"><ele>2275.8</ele><time>2026-04-05T07:41:12.000Z</time></trkpt>
<trkpt lat="42.205367" lon="23.588613"><ele>2275.8</ele><time>2026-04-05T07:41:13.000Z</time></trkpt>
<trkpt lat="42.205359" lon="23.588617"><ele>2276</ele><time>2026-04-05T07:41:14.000Z</time></trkpt>
<trkpt lat="42.20535" lon="23.588621"><ele>2276</ele><time>2026-04-05T07:41:15.000Z</time></trkpt>
<trkpt lat="42.205342" lon="23.588627"><ele>2276</ele><time>2026-04-05T07:41:16.000Z</time></trkpt>
<trkpt lat="42.205335" lon="23.588631"><ele>2276</ele><time>2026-04-05T07:41:17.000Z</time></trkpt>
<trkpt lat="42.205327" lon="23.588636"><ele>2276</ele><time>2026-04-05T07:41:18.000Z</time></trkpt>
<trkpt lat="42.205319" lon="23.588642"><ele>2276</ele><time>2026-04-05T07:41:19.000Z</time></trkpt>
<trkpt lat="42.205311" lon="23.588648"><ele>2276</ele><time>2026-04-05T07:41:20.000Z</time></trkpt>
<trkpt lat="42.205303" lon="23.588653"><ele>2276</ele><time>2026-04-05T07:41:21.000Z</time></trkpt>
<trkpt lat="42.205294" lon="23.588661"><ele>2276</ele><time>2026-04-05T07:41:22.000Z</time></trkpt>
<trkpt lat="42.205285" lon="23.588667"><ele>2276</ele><time>2026-04-05T07:41:23.000Z</time></trkpt>
<trkpt lat="42.205277" lon="23.588674"><ele>2276.1</ele><time>2026-04-05T07:41:24.000Z</time></trkpt>
<trkpt lat="42.205268" lon="23.58868"><ele>2276.1</ele><time>2026-04-05T07:41:25.000Z</time></trkpt>
<trkpt lat="42.205258" lon="23.588686"><ele>2276.1</ele><time>2026-04-05T07:41:26.000Z</time></trkpt>
<trkpt lat="42.205249" lon="23.588691"><ele>2276.1</ele><time>2026-04-05T07:41:27.000Z</time></trkpt>
<trkpt lat="42.205241" lon="23.588697"><ele>2276.1</ele><time>2026-04-05T07:41:28.000Z</time></trkpt>
<trkpt lat="42.205233" lon="23.588703"><ele>2276.4</ele><time>2026-04-05T07:41:29.000Z</time></trkpt>
<trkpt lat="42.205226" lon="23.588708"><ele>2276.4</ele><time>2026-04-05T07:41:30.000Z</time></trkpt>
<trkpt lat="42.205218" lon="23.588713"><ele>2276.4</ele><time>2026-04-05T07:41:31.000Z</time></trkpt>
<trkpt lat="42.205211" lon="23.588718"><ele>2276.4</ele><time>2026-04-05T07:41:32.000Z</time></trkpt>
<trkpt lat="42.205203" lon="23.588724"><ele>2276.4</ele><time>2026-04-05T07:41:33.000Z</time></trkpt>
<trkpt lat="42.205196" lon="23.58873"><ele>2276.6</ele><time>2026-04-05T07:41:34.000Z</time></trkpt>
<trkpt lat="42.205188" lon="23.588736"><ele>2276.6</ele><time>2026-04-05T07:41:35.000Z</time></trkpt>
<trkpt lat="42.20518" lon="23.588742"><ele>2276.6</ele><time>2026-04-05T07:41:36.000Z</time></trkpt>
<trkpt lat="42.205172" lon="23.588748"><ele>2276.6</ele><time>2026-04-05T07:41:37.000Z</time></trkpt>
<trkpt lat="42.205164" lon="23.588753"><ele>2276.6</ele><time>2026-04-05T07:41:38.000Z</time></trkpt>
<trkpt lat="42.205156" lon="23.588758"><ele>2276.8</ele><time>2026-04-05T07:41:39.000Z</time></trkpt>
<trkpt lat="42.205147" lon="23.588763"><ele>2276.8</ele><time>2026-04-05T07:41:40.000Z</time></trkpt>
<trkpt lat="42.205139" lon="23.588768"><ele>2276.8</ele><time>2026-04-05T07:41:41.000Z</time></trkpt>
<trkpt lat="42.205131" lon="23.588774"><ele>2276.8</ele><time>2026-04-05T07:41:42.000Z</time></trkpt>
<trkpt lat="42.205124" lon="23.58878"><ele>2276.8</ele><time>2026-04-05T07:41:43.000Z</time></trkpt>
<trkpt lat="42.205116" lon="23.588787"><ele>2276.8</ele><time>2026-04-05T07:41:44.000Z</time></trkpt>
<trkpt lat="42.205108" lon="23.588794"><ele>2276.8</ele><time>2026-04-05T07:41:45.000Z</time></trkpt>
<trkpt lat="42.2051" lon="23.588801"><ele>2276.8</ele><time>2026-04-05T07:41:46.000Z</time></trkpt>
<trkpt lat="42.205092" lon="23.588809"><ele>2276.8</ele><time>2026-04-05T07:41:47.000Z</time></trkpt>
<trkpt lat="42.205084" lon="23.588816"><ele>2276.8</ele><time>2026-04-05T07:41:48.000Z</time></trkpt>
<trkpt lat="42.205076" lon="23.588823"><ele>2276.8</ele><time>2026-04-05T07:41:49.000Z</time></trkpt>
<trkpt lat="42.205068" lon="23.588829"><ele>2276.8</ele><time>2026-04-05T07:41:50.000Z</time></trkpt>
<trkpt lat="42.205059" lon="23.588837"><ele>2276.8</ele><time>2026-04-05T07:41:51.000Z</time></trkpt>
<trkpt lat="42.205049" lon="23.588843"><ele>2276.8</ele><time>2026-04-05T07:41:52.000Z</time></trkpt>
<trkpt lat="42.205039" lon="23.58885"><ele>2276.8</ele><time>2026-04-05T07:41:53.000Z</time></trkpt>
<trkpt lat="42.205029" lon="23.588857"><ele>2276.8</ele><time>2026-04-05T07:41:54.000Z</time></trkpt>
<trkpt lat="42.205019" lon="23.588864"><ele>2276.8</ele><time>2026-04-05T07:41:55.000Z</time></trkpt>
<trkpt lat="42.205009" lon="23.588872"><ele>2276.8</ele><time>2026-04-05T07:41:56.000Z</time></trkpt>
<trkpt lat="42.205" lon="23.588879"><ele>2276.8</ele><time>2026-04-05T07:41:57.000Z</time></trkpt>
<trkpt lat="42.204992" lon="23.588887"><ele>2276.8</ele><time>2026-04-05T07:41:58.000Z</time></trkpt>
<trkpt lat="42.204983" lon="23.588895"><ele>2276.9</ele><time>2026-04-05T07:41:59.000Z</time></trkpt>
<trkpt lat="42.204974" lon="23.588901"><ele>2276.9</ele><time>2026-04-05T07:42:00.000Z</time></trkpt>
<trkpt lat="42.204966" lon="23.588907"><ele>2276.9</ele><time>2026-04-05T07:42:01.000Z</time></trkpt>
<trkpt lat="42.204957" lon="23.588913"><ele>2276.9</ele><time>2026-04-05T07:42:02.000Z</time></trkpt>
<trkpt lat="42.204947" lon="23.588919"><ele>2276.9</ele><time>2026-04-05T07:42:03.000Z</time></trkpt>
<trkpt lat="42.204937" lon="23.588926"><ele>2277</ele><time>2026-04-05T07:42:04.000Z</time></trkpt>
<trkpt lat="42.204928" lon="23.588933"><ele>2277</ele><time>2026-04-05T07:42:05.000Z</time></trkpt>
<trkpt lat="42.204919" lon="23.588941"><ele>2277</ele><time>2026-04-05T07:42:06.000Z</time></trkpt>
<trkpt lat="42.20491" lon="23.588949"><ele>2277</ele><time>2026-04-05T07:42:07.000Z</time></trkpt>
<trkpt lat="42.204901" lon="23.588957"><ele>2277</ele><time>2026-04-05T07:42:08.000Z</time></trkpt>
<trkpt lat="42.204893" lon="23.588966"><ele>2277.3</ele><time>2026-04-05T07:42:09.000Z</time></trkpt>
<trkpt lat="42.204884" lon="23.588975"><ele>2277.3</ele><time>2026-04-05T07:42:10.000Z</time></trkpt>
<trkpt lat="42.204874" lon="23.588983"><ele>2277.3</ele><time>2026-04-05T07:42:11.000Z</time></trkpt>
<trkpt lat="42.204865" lon="23.588992"><ele>2277.3</ele><time>2026-04-05T07:42:12.000Z</time></trkpt>
<trkpt lat="42.204855" lon="23.589"><ele>2277.3</ele><time>2026-04-05T07:42:13.000Z</time></trkpt>
<trkpt lat="42.204845" lon="23.589007"><ele>2277.7</ele><time>2026-04-05T07:42:14.000Z</time></trkpt>
<trkpt lat="42.204835" lon="23.589017"><ele>2277.7</ele><time>2026-04-05T07:42:15.000Z</time></trkpt>
<trkpt lat="42.204824" lon="23.589026"><ele>2277.7</ele><time>2026-04-05T07:42:16.000Z</time></trkpt>
<trkpt lat="42.204814" lon="23.589036"><ele>2277.7</ele><time>2026-04-05T07:42:17.000Z</time></trkpt>
<trkpt lat="42.204805" lon="23.589046"><ele>2277.7</ele><time>2026-04-05T07:42:18.000Z</time></trkpt>
<trkpt lat="42.204796" lon="23.589056"><ele>2277.9</ele><time>2026-04-05T07:42:19.000Z</time></trkpt>
<trkpt lat="42.204787" lon="23.589066"><ele>2277.9</ele><time>2026-04-05T07:42:20.000Z</time></trkpt>
<trkpt lat="42.204777" lon="23.589075"><ele>2277.9</ele><time>2026-04-05T07:42:21.000Z</time></trkpt>
<trkpt lat="42.204768" lon="23.589084"><ele>2277.9</ele><time>2026-04-05T07:42:22.000Z</time></trkpt>
<trkpt lat="42.20476" lon="23.589092"><ele>2277.9</ele><time>2026-04-05T07:42:23.000Z</time></trkpt>
<trkpt lat="42.204752" lon="23.589099"><ele>2278.3</ele><time>2026-04-05T07:42:24.000Z</time></trkpt>
<trkpt lat="42.204744" lon="23.589107"><ele>2278.3</ele><time>2026-04-05T07:42:25.000Z</time></trkpt>
<trkpt lat="42.204736" lon="23.589114"><ele>2278.3</ele><time>2026-04-05T07:42:26.000Z</time></trkpt>
<trkpt lat="42.204727" lon="23.589123"><ele>2278.3</ele><time>2026-04-05T07:42:27.000Z</time></trkpt>
<trkpt lat="42.204718" lon="23.58913"><ele>2278.3</ele><time>2026-04-05T07:42:28.000Z</time></trkpt>
<trkpt lat="42.204709" lon="23.589139"><ele>2278.4</ele><time>2026-04-05T07:42:29.000Z</time></trkpt>
<trkpt lat="42.204701" lon="23.589148"><ele>2278.4</ele><time>2026-04-05T07:42:30.000Z</time></trkpt>
<trkpt lat="42.204692" lon="23.589157"><ele>2278.4</ele><time>2026-04-05T07:42:31.000Z</time></trkpt>
<trkpt lat="42.204684" lon="23.589165"><ele>2278.4</ele><time>2026-04-05T07:42:32.000Z</time></trkpt>
<trkpt lat="42.204676" lon="23.589174"><ele>2278.4</ele><time>2026-04-05T07:42:33.000Z</time></trkpt>
<trkpt lat="42.204668" lon="23.589181"><ele>2278.4</ele><time>2026-04-05T07:42:34.000Z</time></trkpt>
<trkpt lat="42.20466" lon="23.589188"><ele>2278.4</ele><time>2026-04-05T07:42:35.000Z</time></trkpt>
<trkpt lat="42.204651" lon="23.589197"><ele>2278.4</ele><time>2026-04-05T07:42:36.000Z</time></trkpt>
<trkpt lat="42.204644" lon="23.589204"><ele>2278.4</ele><time>2026-04-05T07:42:37.000Z</time></trkpt>
<trkpt lat="42.204636" lon="23.589211"><ele>2278.4</ele><time>2026-04-05T07:42:38.000Z</time></trkpt>
<trkpt lat="42.204629" lon="23.589218"><ele>2278.4</ele><time>2026-04-05T07:42:39.000Z</time></trkpt>
<trkpt lat="42.204622" lon="23.589225"><ele>2278.4</ele><time>2026-04-05T07:42:40.000Z</time></trkpt>
<trkpt lat="42.204614" lon="23.589232"><ele>2278.4</ele><time>2026-04-05T07:42:41.000Z</time></trkpt>
<trkpt lat="42.204607" lon="23.589239"><ele>2278.4</ele><time>2026-04-05T07:42:42.000Z</time></trkpt>
<trkpt lat="42.204599" lon="23.589247"><ele>2278.4</ele><time>2026-04-05T07:42:43.000Z</time></trkpt>
<trkpt lat="42.204591" lon="23.589254"><ele>2278.7</ele><time>2026-04-05T07:42:44.000Z</time></trkpt>
<trkpt lat="42.204583" lon="23.589262"><ele>2278.7</ele><time>2026-04-05T07:42:45.000Z</time></trkpt>
<trkpt lat="42.204575" lon="23.58927"><ele>2278.7</ele><time>2026-04-05T07:42:46.000Z</time></trkpt>
<trkpt lat="42.204568" lon="23.589279"><ele>2278.7</ele><time>2026-04-05T07:42:47.000Z</time></trkpt>
<trkpt lat="42.20456" lon="23.589287"><ele>2278.7</ele><time>2026-04-05T07:42:48.000Z</time></trkpt>
<trkpt lat="42.204552" lon="23.589297"><ele>2279</ele><time>2026-04-05T07:42:49.000Z</time></trkpt>
<trkpt lat="42.204545" lon="23.589307"><ele>2279</ele><time>2026-04-05T07:42:50.000Z</time></trkpt>
<trkpt lat="42.204537" lon="23.589316"><ele>2279</ele><time>2026-04-05T07:42:51.000Z</time></trkpt>
<trkpt lat="42.204529" lon="23.589325"><ele>2279</ele><time>2026-04-05T07:42:52.000Z</time></trkpt>
<trkpt lat="42.204521" lon="23.589334"><ele>2279</ele><time>2026-04-05T07:42:53.000Z</time></trkpt>
<trkpt lat="42.204512" lon="23.589343"><ele>2279.6</ele><time>2026-04-05T07:42:54.000Z</time></trkpt>
<trkpt lat="42.204502" lon="23.589353"><ele>2279.6</ele><time>2026-04-05T07:42:55.000Z</time></trkpt>
<trkpt lat="42.204493" lon="23.589363"><ele>2279.6</ele><time>2026-04-05T07:42:56.000Z</time></trkpt>
<trkpt lat="42.204483" lon="23.589373"><ele>2279.6</ele><time>2026-04-05T07:42:57.000Z</time></trkpt>
<trkpt lat="42.204474" lon="23.589383"><ele>2279.6</ele><time>2026-04-05T07:42:58.000Z</time></trkpt>
<trkpt lat="42.204465" lon="23.58939"><ele>2280.2</ele><time>2026-04-05T07:42:59.000Z</time></trkpt>
<trkpt lat="42.204458" lon="23.589397"><ele>2280.2</ele><time>2026-04-05T07:43:00.000Z</time></trkpt>
<trkpt lat="42.20445" lon="23.589403"><ele>2280.2</ele><time>2026-04-05T07:43:01.000Z</time></trkpt>
<trkpt lat="42.204443" lon="23.589409"><ele>2280.2</ele><time>2026-04-05T07:43:02.000Z</time></trkpt>
<trkpt lat="42.204437" lon="23.589415"><ele>2280.2</ele><time>2026-04-05T07:43:03.000Z</time></trkpt>
<trkpt lat="42.20443" lon="23.589422"><ele>2280.5</ele><time>2026-04-05T07:43:04.000Z</time></trkpt>
<trkpt lat="42.204424" lon="23.589429"><ele>2280.5</ele><time>2026-04-05T07:43:05.000Z</time></trkpt>
<trkpt lat="42.204416" lon="23.589436"><ele>2280.5</ele><time>2026-04-05T07:43:06.000Z</time></trkpt>
<trkpt lat="42.204409" lon="23.589444"><ele>2280.5</ele><time>2026-04-05T07:43:07.000Z</time></trkpt>
<trkpt lat="42.204402" lon="23.589451"><ele>2280.5</ele><time>2026-04-05T07:43:08.000Z</time></trkpt>
<trkpt lat="42.204395" lon="23.589458"><ele>2280.8</ele><time>2026-04-05T07:43:09.000Z</time></trkpt>
<trkpt lat="42.204387" lon="23.589464"><ele>2280.8</ele><time>2026-04-05T07:43:10.000Z</time></trkpt>
<trkpt lat="42.20438" lon="23.589469"><ele>2280.8</ele><time>2026-04-05T07:43:11.000Z</time></trkpt>
<trkpt lat="42.204373" lon="23.589474"><ele>2280.8</ele><time>2026-04-05T07:43:12.000Z</time></trkpt>
<trkpt lat="42.204366" lon="23.589478"><ele>2280.8</ele><time>2026-04-05T07:43:13.000Z</time></trkpt>
<trkpt lat="42.20436" lon="23.589483"><ele>2280.8</ele><time>2026-04-05T07:43:14.000Z</time></trkpt>
<trkpt lat="42.204353" lon="23.589488"><ele>2280.8</ele><time>2026-04-05T07:43:15.000Z</time></trkpt>
<trkpt lat="42.204348" lon="23.589493"><ele>2280.8</ele><time>2026-04-05T07:43:16.000Z</time></trkpt>
<trkpt lat="42.204342" lon="23.589499"><ele>2280.8</ele><time>2026-04-05T07:43:17.000Z</time></trkpt>
<trkpt lat="42.204337" lon="23.589506"><ele>2280.8</ele><time>2026-04-05T07:43:18.000Z</time></trkpt>
<trkpt lat="42.204331" lon="23.589512"><ele>2280.8</ele><time>2026-04-05T07:43:19.000Z</time></trkpt>
<trkpt lat="42.204325" lon="23.589521"><ele>2280.8</ele><time>2026-04-05T07:43:20.000Z</time></trkpt>
<trkpt lat="42.204319" lon="23.589529"><ele>2280.8</ele><time>2026-04-05T07:43:21.000Z</time></trkpt>
<trkpt lat="42.204314" lon="23.589538"><ele>2280.8</ele><time>2026-04-05T07:43:22.000Z</time></trkpt>
<trkpt lat="42.204307" lon="23.589548"><ele>2280.8</ele><time>2026-04-05T07:43:23.000Z</time></trkpt>
<trkpt lat="42.204301" lon="23.589557"><ele>2280.9</ele><time>2026-04-05T07:43:24.000Z</time></trkpt>
<trkpt lat="42.204294" lon="23.589566"><ele>2280.9</ele><time>2026-04-05T07:43:25.000Z</time></trkpt>
<trkpt lat="42.204288" lon="23.589575"><ele>2280.9</ele><time>2026-04-05T07:43:26.000Z</time></trkpt>
<trkpt lat="42.204281" lon="23.589584"><ele>2280.9</ele><time>2026-04-05T07:43:27.000Z</time></trkpt>
<trkpt lat="42.204274" lon="23.589592"><ele>2280.9</ele><time>2026-04-05T07:43:28.000Z</time></trkpt>
<trkpt lat="42.204268" lon="23.5896"><ele>2281.2</ele><time>2026-04-05T07:43:29.000Z</time></trkpt>
<trkpt lat="42.204262" lon="23.589608"><ele>2281.2</ele><time>2026-04-05T07:43:30.000Z</time></trkpt>
<trkpt lat="42.204254" lon="23.589616"><ele>2281.2</ele><time>2026-04-05T07:43:31.000Z</time></trkpt>
<trkpt lat="42.204246" lon="23.589623"><ele>2281.2</ele><time>2026-04-05T07:43:32.000Z</time></trkpt>
<trkpt lat="42.204239" lon="23.58963"><ele>2281.2</ele><time>2026-04-05T07:43:33.000Z</time></trkpt>
<trkpt lat="42.204232" lon="23.589637"><ele>2281.4</ele><time>2026-04-05T07:43:34.000Z</time></trkpt>
<trkpt lat="42.204225" lon="23.589644"><ele>2281.4</ele><time>2026-04-05T07:43:35.000Z</time></trkpt>
<trkpt lat="42.204219" lon="23.589651"><ele>2281.4</ele><time>2026-04-05T07:43:36.000Z</time></trkpt>
<trkpt lat="42.204213" lon="23.589658"><ele>2281.4</ele><time>2026-04-05T07:43:37.000Z</time></trkpt>
<trkpt lat="42.204206" lon="23.589666"><ele>2281.4</ele><time>2026-04-05T07:43:38.000Z</time></trkpt>
<trkpt lat="42.204199" lon="23.589674"><ele>2281.8</ele><time>2026-04-05T07:43:39.000Z</time></trkpt>
<trkpt lat="42.204192" lon="23.589683"><ele>2281.8</ele><time>2026-04-05T07:43:40.000Z</time></trkpt>
<trkpt lat="42.204185" lon="23.589692"><ele>2281.8</ele><time>2026-04-05T07:43:41.000Z</time></trkpt>
<trkpt lat="42.204178" lon="23.589701"><ele>2281.8</ele><time>2026-04-05T07:43:42.000Z</time></trkpt>
<trkpt lat="42.204171" lon="23.589711"><ele>2281.8</ele><time>2026-04-05T07:43:43.000Z</time></trkpt>
<trkpt lat="42.204164" lon="23.58972"><ele>2282.2</ele><time>2026-04-05T07:43:44.000Z</time></trkpt>
<trkpt lat="42.204157" lon="23.589728"><ele>2282.2</ele><time>2026-04-05T07:43:45.000Z</time></trkpt>
<trkpt lat="42.20415" lon="23.589737"><ele>2282.2</ele><time>2026-04-05T07:43:46.000Z</time></trkpt>
<trkpt lat="42.204143" lon="23.589746"><ele>2282.2</ele><time>2026-04-05T07:43:47.000Z</time></trkpt>
<trkpt lat="42.204137" lon="23.589756"><ele>2282.2</ele><time>2026-04-05T07:43:48.000Z</time></trkpt>
<trkpt lat="42.204131" lon="23.589765"><ele>2282.4</ele><time>2026-04-05T07:43:49.000Z</time></trkpt>
<trkpt lat="42.204124" lon="23.589773"><ele>2282.4</ele><time>2026-04-05T07:43:50.000Z</time></trkpt>
<trkpt lat="42.204117" lon="23.589782"><ele>2282.4</ele><time>2026-04-05T07:43:51.000Z</time></trkpt>
<trkpt lat="42.204109" lon="23.589789"><ele>2282.4</ele><time>2026-04-05T07:43:52.000Z</time></trkpt>
<trkpt lat="42.204102" lon="23.589796"><ele>2282.4</ele><time>2026-04-05T07:43:53.000Z</time></trkpt>
<trkpt lat="42.204094" lon="23.589804"><ele>2282.6</ele><time>2026-04-05T07:43:54.000Z</time></trkpt>
<trkpt lat="42.204086" lon="23.589812"><ele>2282.6</ele><time>2026-04-05T07:43:55.000Z</time></trkpt>
<trkpt lat="42.204079" lon="23.589818"><ele>2282.6</ele><time>2026-04-05T07:43:56.000Z</time></trkpt>
<trkpt lat="42.204073" lon="23.589822"><ele>2282.6</ele><time>2026-04-05T07:43:57.000Z</time></trkpt>
<trkpt lat="42.204068" lon="23.589824"><ele>2282.6</ele><time>2026-04-05T07:43:58.000Z</time></trkpt>
<trkpt lat="42.204065" lon="23.589825"><ele>2282.7</ele><time>2026-04-05T07:43:59.000Z</time></trkpt>
<trkpt lat="42.204064" lon="23.589825"><ele>2282.7</ele><time>2026-04-05T07:44:00.000Z</time></trkpt>
<trkpt lat="42.204064" lon="23.589825"><ele>2282.7</ele><time>2026-04-05T07:44:01.000Z</time></trkpt>
<trkpt lat="42.204065" lon="23.589826"><ele>2282.7</ele><time>2026-04-05T07:44:02.000Z</time></trkpt>
<trkpt lat="42.204066" lon="23.589828"><ele>2282.7</ele><time>2026-04-05T07:44:03.000Z</time></trkpt>
<trkpt lat="42.204067" lon="23.58983"><ele>2282.7</ele><time>2026-04-05T07:44:04.000Z</time></trkpt>
<trkpt lat="42.204069" lon="23.58983"><ele>2282.7</ele><time>2026-04-05T07:44:05.000Z</time></trkpt>
<trkpt lat="42.204069" lon="23.589831"><ele>2282.7</ele><time>2026-04-05T07:44:06.000Z</time></trkpt>
<trkpt lat="42.20407" lon="23.589831"><ele>2282.7</ele><time>2026-04-05T07:44:07.000Z</time></trkpt>
<trkpt lat="42.20407" lon="23.589831"><ele>2282.7</ele><time>2026-04-05T07:44:08.000Z</time></trkpt>
<trkpt lat="42.20407" lon="23.589832"><ele>2282.9</ele><time>2026-04-05T07:44:09.000Z</time></trkpt>
<trkpt lat="42.20407" lon="23.589833"><ele>2282.9</ele><time>2026-04-05T07:44:10.000Z</time></trkpt>
<trkpt lat="42.204071" lon="23.589832"><ele>2282.9</ele><time>2026-04-05T07:44:11.000Z</time></trkpt>
<trkpt lat="42.204069" lon="23.589834"><ele>2282.9</ele><time>2026-04-05T07:44:12.000Z</time></trkpt>
<trkpt lat="42.204067" lon="23.589835"><ele>2282.9</ele><time>2026-04-05T07:44:13.000Z</time></trkpt>
<trkpt lat="42.204064" lon="23.589838"><ele>2283.1</ele><time>2026-04-05T07:44:14.000Z</time></trkpt>
<trkpt lat="42.204059" lon="23.589841"><ele>2283.1</ele><time>2026-04-05T07:44:15.000Z</time></trkpt>
<trkpt lat="42.204055" lon="23.589845"><ele>2283.1</ele><time>2026-04-05T07:44:16.000Z</time></trkpt>
<trkpt lat="42.20405" lon="23.589848"><ele>2283.1</ele><time>2026-04-05T07:44:17.000Z</time></trkpt>
<trkpt lat="42.204045" lon="23.58985"><ele>2283.1</ele><time>2026-04-05T07:44:18.000Z</time></trkpt>
<trkpt lat="42.20404" lon="23.589853"><ele>2283.3</ele><time>2026-04-05T07:44:19.000Z</time></trkpt>
<trkpt lat="42.204034" lon="23.589857"><ele>2283.3</ele><time>2026-04-05T07:44:20.000Z</time></trkpt>
<trkpt lat="42.204028" lon="23.589863"><ele>2283.3</ele><time>2026-04-05T07:44:21.000Z</time></trkpt>
<trkpt lat="42.204021" lon="23.589869"><ele>2283.3</ele><time>2026-04-05T07:44:22.000Z</time></trkpt>
<trkpt lat="42.204013" lon="23.589876"><ele>2283.3</ele><time>2026-04-05T07:44:23.000Z</time></trkpt>
<trkpt lat="42.204006" lon="23.589882"><ele>2283.3</ele><time>2026-04-05T07:44:24.000Z</time></trkpt>
<trkpt lat="42.204" lon="23.589887"><ele>2283.3</ele><time>2026-04-05T07:44:25.000Z</time></trkpt>
<trkpt lat="42.203995" lon="23.58989"><ele>2283.3</ele><time>2026-04-05T07:44:26.000Z</time></trkpt>
<trkpt lat="42.203992" lon="23.589893"><ele>2283.3</ele><time>2026-04-05T07:44:27.000Z</time></trkpt>
<trkpt lat="42.20399" lon="23.589895"><ele>2283.3</ele><time>2026-04-05T07:44:28.000Z</time></trkpt>
<trkpt lat="42.203989" lon="23.589896"><ele>2283.3</ele><time>2026-04-05T07:44:29.000Z</time></trkpt>
<trkpt lat="42.203989" lon="23.589896"><ele>2283.3</ele><time>2026-04-05T07:44:30.000Z</time></trkpt>
<trkpt lat="42.203988" lon="23.589897"><ele>2283.3</ele><time>2026-04-05T07:44:31.000Z</time></trkpt>
<trkpt lat="42.203988" lon="23.589898"><ele>2283.3</ele><time>2026-04-05T07:44:32.000Z</time></trkpt>
<trkpt lat="42.203988" lon="23.589898"><ele>2283.3</ele><time>2026-04-05T07:44:33.000Z</time></trkpt>
<trkpt lat="42.203988" lon="23.589899"><ele>2283.3</ele><time>2026-04-05T07:44:34.000Z</time></trkpt>
<trkpt lat="42.203988" lon="23.589899"><ele>2283.3</ele><time>2026-04-05T07:44:35.000Z</time></trkpt>
<trkpt lat="42.203988" lon="23.5899"><ele>2283.3</ele><time>2026-04-05T07:44:36.000Z</time></trkpt>
<trkpt lat="42.203987" lon="23.5899"><ele>2283.3</ele><time>2026-04-05T07:44:37.000Z</time></trkpt>
<trkpt lat="42.203987" lon="23.589901"><ele>2283.3</ele><time>2026-04-05T07:44:38.000Z</time></trkpt>
<trkpt lat="42.203987" lon="23.5899"><ele>2283.4</ele><time>2026-04-05T07:44:39.000Z</time></trkpt>
<trkpt lat="42.203987" lon="23.5899"><ele>2283.4</ele><time>2026-04-05T07:44:40.000Z</time></trkpt>
<trkpt lat="42.203987" lon="23.589899"><ele>2283.4</ele><time>2026-04-05T07:44:41.000Z</time></trkpt>
<trkpt lat="42.203987" lon="23.589898"><ele>2283.4</ele><time>2026-04-05T07:44:42.000Z</time></trkpt>
<trkpt lat="42.203987" lon="23.589898"><ele>2283.4</ele><time>2026-04-05T07:44:43.000Z</time></trkpt>
<trkpt lat="42.203987" lon="23.589898"><ele>2283.6</ele><time>2026-04-05T07:44:44.000Z</time></trkpt>
<trkpt lat="42.203987" lon="23.589898"><ele>2283.6</ele><time>2026-04-05T07:44:45.000Z</time></trkpt>
<trkpt lat="42.203986" lon="23.589899"><ele>2283.6</ele><time>2026-04-05T07:44:46.000Z</time></trkpt>
<trkpt lat="42.203984" lon="23.589901"><ele>2283.6</ele><time>2026-04-05T07:44:47.000Z</time></trkpt>
<trkpt lat="42.203981" lon="23.589905"><ele>2283.6</ele><time>2026-04-05T07:44:48.000Z</time></trkpt>
<trkpt lat="42.203977" lon="23.58991"><ele>2283.7</ele><time>2026-04-05T07:44:49.000Z</time></trkpt>
<trkpt lat="42.203971" lon="23.589917"><ele>2283.7</ele><time>2026-04-05T07:44:50.000Z</time></trkpt>
<trkpt lat="42.203964" lon="23.589924"><ele>2283.7</ele><time>2026-04-05T07:44:51.000Z</time></trkpt>
<trkpt lat="42.203956" lon="23.58993"><ele>2283.7</ele><time>2026-04-05T07:44:52.000Z</time></trkpt>
<trkpt lat="42.203948" lon="23.589937"><ele>2283.7</ele><time>2026-04-05T07:44:53.000Z</time></trkpt>
<trkpt lat="42.203939" lon="23.589943"><ele>2283.8</ele><time>2026-04-05T07:44:54.000Z</time></trkpt>
<trkpt lat="42.20393" lon="23.589951"><ele>2283.8</ele><time>2026-04-05T07:44:55.000Z</time></trkpt>
<trkpt lat="42.203921" lon="23.589959"><ele>2283.8</ele><time>2026-04-05T07:44:56.000Z</time></trkpt>
<trkpt lat="42.203912" lon="23.589966"><ele>2283.8</ele><time>2026-04-05T07:44:57.000Z</time></trkpt>
<trkpt lat="42.203903" lon="23.589972"><ele>2283.8</ele><time>2026-04-05T07:44:58.000Z</time></trkpt>
<trkpt lat="42.203894" lon="23.589978"><ele>2283.9</ele><time>2026-04-05T07:44:59.000Z</time></trkpt>
<trkpt lat="42.203886" lon="23.589983"><ele>2283.9</ele><time>2026-04-05T07:45:00.000Z</time></trkpt>
<trkpt lat="42.203878" lon="23.589988"><ele>2283.9</ele><time>2026-04-05T07:45:01.000Z</time></trkpt>
<trkpt lat="42.203869" lon="23.589993"><ele>2283.9</ele><time>2026-04-05T07:45:02.000Z</time></trkpt>
<trkpt lat="42.203862" lon="23.589998"><ele>2283.9</ele><time>2026-04-05T07:45:03.000Z</time></trkpt>
<trkpt lat="42.203854" lon="23.590003"><ele>2284</ele><time>2026-04-05T07:45:04.000Z</time></trkpt>
<trkpt lat="42.203846" lon="23.590009"><ele>2284</ele><time>2026-04-05T07:45:05.000Z</time></trkpt>
<trkpt lat="42.203837" lon="23.590015"><ele>2284</ele><time>2026-04-05T07:45:06.000Z</time></trkpt>
<trkpt lat="42.203828" lon="23.590022"><ele>2284</ele><time>2026-04-05T07:45:07.000Z</time></trkpt>
<trkpt lat="42.203819" lon="23.590027"><ele>2284</ele><time>2026-04-05T07:45:08.000Z</time></trkpt>
<trkpt lat="42.20381" lon="23.590033"><ele>2284.2</ele><time>2026-04-05T07:45:09.000Z</time></trkpt>
<trkpt lat="42.203802" lon="23.590037"><ele>2284.2</ele><time>2026-04-05T07:45:10.000Z</time></trkpt>
<trkpt lat="42.203794" lon="23.590042"><ele>2284.2</ele><time>2026-04-05T07:45:11.000Z</time></trkpt>
<trkpt lat="42.203786" lon="23.590047"><ele>2284.2</ele><time>2026-04-05T07:45:12.000Z</time></trkpt>
<trkpt lat="42.203779" lon="23.590053"><ele>2284.2</ele><time>2026-04-05T07:45:13.000Z</time></trkpt>
<trkpt lat="42.203772" lon="23.59006"><ele>2284.4</ele><time>2026-04-05T07:45:14.000Z</time></trkpt>
<trkpt lat="42.203765" lon="23.590067"><ele>2284.4</ele><time>2026-04-05T07:45:15.000Z</time></trkpt>
<trkpt lat="42.203757" lon="23.590074"><ele>2284.4</ele><time>2026-04-05T07:45:16.000Z</time></trkpt>
<trkpt lat="42.20375" lon="23.590081"><ele>2284.4</ele><time>2026-04-05T07:45:17.000Z</time></trkpt>
<trkpt lat="42.203744" lon="23.590088"><ele>2284.4</ele><time>2026-04-05T07:45:18.000Z</time></trkpt>
<trkpt lat="42.203738" lon="23.590094"><ele>2284.5</ele><time>2026-04-05T07:45:19.000Z</time></trkpt>
<trkpt lat="42.203732" lon="23.5901"><ele>2284.5</ele><time>2026-04-05T07:45:20.000Z</time></trkpt>
<trkpt lat="42.203725" lon="23.590107"><ele>2284.5</ele><time>2026-04-05T07:45:21.000Z</time></trkpt>
<trkpt lat="42.203718" lon="23.590113"><ele>2284.5</ele><time>2026-04-05T07:45:22.000Z</time></trkpt>
<trkpt lat="42.203711" lon="23.59012"><ele>2284.5</ele><time>2026-04-05T07:45:23.000Z</time></trkpt>
<trkpt lat="42.203704" lon="23.590127"><ele>2285</ele><time>2026-04-05T07:45:24.000Z</time></trkpt>
<trkpt lat="42.203697" lon="23.590134"><ele>2285</ele><time>2026-04-05T07:45:25.000Z</time></trkpt>
<trkpt lat="42.203691" lon="23.590142"><ele>2285</ele><time>2026-04-05T07:45:26.000Z</time></trkpt>
<trkpt lat="42.203684" lon="23.59015"><ele>2285</ele><time>2026-04-05T07:45:27.000Z</time></trkpt>
<trkpt lat="42.203678" lon="23.590157"><ele>2285</ele><time>2026-04-05T07:45:28.000Z</time></trkpt>
<trkpt lat="42.203671" lon="23.590165"><ele>2285.6</ele><time>2026-04-05T07:45:29.000Z</time></trkpt>
<trkpt lat="42.203665" lon="23.590171"><ele>2285.6</ele><time>2026-04-05T07:45:30.000Z</time></trkpt>
<trkpt lat="42.203659" lon="23.590177"><ele>2285.6</ele><time>2026-04-05T07:45:31.000Z</time></trkpt>
<trkpt lat="42.203652" lon="23.590183"><ele>2285.6</ele><time>2026-04-05T07:45:32.000Z</time></trkpt>
<trkpt lat="42.203646" lon="23.59019"><ele>2285.6</ele><time>2026-04-05T07:45:33.000Z</time></trkpt>
<trkpt lat="42.203639" lon="23.590197"><ele>2285.9</ele><time>2026-04-05T07:45:34.000Z</time></trkpt>
<trkpt lat="42.203632" lon="23.590206"><ele>2285.9</ele><time>2026-04-05T07:45:35.000Z</time></trkpt>
<trkpt lat="42.203626" lon="23.590215"><ele>2285.9</ele><time>2026-04-05T07:45:36.000Z</time></trkpt>
<trkpt lat="42.20362" lon="23.590224"><ele>2285.9</ele><time>2026-04-05T07:45:37.000Z</time></trkpt>
<trkpt lat="42.203614" lon="23.590232"><ele>2285.9</ele><time>2026-04-05T07:45:38.000Z</time></trkpt>
<trkpt lat="42.203607" lon="23.59024"><ele>2286.6</ele><time>2026-04-05T07:45:39.000Z</time></trkpt>
<trkpt lat="42.203601" lon="23.590247"><ele>2286.6</ele><time>2026-04-05T07:45:40.000Z</time></trkpt>
<trkpt lat="42.203595" lon="23.590255"><ele>2286.6</ele><time>2026-04-05T07:45:41.000Z</time></trkpt>
<trkpt lat="42.203588" lon="23.590264"><ele>2286.6</ele><time>2026-04-05T07:45:42.000Z</time></trkpt>
<trkpt lat="42.203581" lon="23.590273"><ele>2286.6</ele><time>2026-04-05T07:45:43.000Z</time></trkpt>
<trkpt lat="42.203575" lon="23.590282"><ele>2287.3</ele><time>2026-04-05T07:45:44.000Z</time></trkpt>
<trkpt lat="42.203568" lon="23.590291"><ele>2287.3</ele><time>2026-04-05T07:45:45.000Z</time></trkpt>
<trkpt lat="42.203561" lon="23.590302"><ele>2287.3</ele><time>2026-04-05T07:45:46.000Z</time></trkpt>
<trkpt lat="42.203555" lon="23.590311"><ele>2287.3</ele><time>2026-04-05T07:45:47.000Z</time></trkpt>
<trkpt lat="42.20355" lon="23.59032"><ele>2287.3</ele><time>2026-04-05T07:45:48.000Z</time></trkpt>
<trkpt lat="42.203544" lon="23.590329"><ele>2287.6</ele><time>2026-04-05T07:45:49.000Z</time></trkpt>
<trkpt lat="42.203538" lon="23.590339"><ele>2287.6</ele><time>2026-04-05T07:45:50.000Z</time></trkpt>
<trkpt lat="42.203532" lon="23.590347"><ele>2287.6</ele><time>2026-04-05T07:45:51.000Z</time></trkpt>
<trkpt lat="42.203527" lon="23.590355"><ele>2287.6</ele><time>2026-04-05T07:45:52.000Z</time></trkpt>
<trkpt lat="42.203521" lon="23.590363"><ele>2287.6</ele><time>2026-04-05T07:45:53.000Z</time></trkpt>
<trkpt lat="42.203515" lon="23.59037"><ele>2288.3</ele><time>2026-04-05T07:45:54.000Z</time></trkpt>
<trkpt lat="42.20351" lon="23.590377"><ele>2288.3</ele><time>2026-04-05T07:45:55.000Z</time></trkpt>
<trkpt lat="42.203505" lon="23.590384"><ele>2288.3</ele><time>2026-04-05T07:45:56.000Z</time></trkpt>
<trkpt lat="42.203499" lon="23.590392"><ele>2288.3</ele><time>2026-04-05T07:45:57.000Z</time></trkpt>
<trkpt lat="42.203494" lon="23.590399"><ele>2288.3</ele><time>2026-04-05T07:45:58.000Z</time></trkpt>
<trkpt lat="42.203488" lon="23.590407"><ele>2289</ele><time>2026-04-05T07:45:59.000Z</time></trkpt>
<trkpt lat="42.203481" lon="23.590415"><ele>2289</ele><time>2026-04-05T07:46:00.000Z</time></trkpt>
<trkpt lat="42.203475" lon="23.590425"><ele>2289</ele><time>2026-04-05T07:46:01.000Z</time></trkpt>
<trkpt lat="42.203469" lon="23.590433"><ele>2289</ele><time>2026-04-05T07:46:02.000Z</time></trkpt>
<trkpt lat="42.203463" lon="23.590441"><ele>2289</ele><time>2026-04-05T07:46:03.000Z</time></trkpt>
<trkpt lat="42.203457" lon="23.590449"><ele>2289.3</ele><time>2026-04-05T07:46:04.000Z</time></trkpt>
<trkpt lat="42.203452" lon="23.590456"><ele>2289.3</ele><time>2026-04-05T07:46:05.000Z</time></trkpt>
<trkpt lat="42.203447" lon="23.590463"><ele>2289.3</ele><time>2026-04-05T07:46:06.000Z</time></trkpt>
<trkpt lat="42.203441" lon="23.59047"><ele>2289.3</ele><time>2026-04-05T07:46:07.000Z</time></trkpt>
<trkpt lat="42.203434" lon="23.590477"><ele>2289.3</ele><time>2026-04-05T07:46:08.000Z</time></trkpt>
<trkpt lat="42.203427" lon="23.590485"><ele>2289.8</ele><time>2026-04-05T07:46:09.000Z</time></trkpt>
<trkpt lat="42.20342" lon="23.590493"><ele>2289.8</ele><time>2026-04-05T07:46:10.000Z</time></trkpt>
<trkpt lat="42.203413" lon="23.590501"><ele>2289.8</ele><time>2026-04-05T07:46:11.000Z</time></trkpt>
<trkpt lat="42.203407" lon="23.590508"><ele>2289.8</ele><time>2026-04-05T07:46:12.000Z</time></trkpt>
<trkpt lat="42.203401" lon="23.590515"><ele>2289.8</ele><time>2026-04-05T07:46:13.000Z</time></trkpt>
<trkpt lat="42.203395" lon="23.59052"><ele>2290.3</ele><time>2026-04-05T07:46:14.000Z</time></trkpt>
<trkpt lat="42.203389" lon="23.590526"><ele>2290.3</ele><time>2026-04-05T07:46:15.000Z</time></trkpt>
<trkpt lat="42.203384" lon="23.59053"><ele>2290.3</ele><time>2026-04-05T07:46:16.000Z</time></trkpt>
<trkpt lat="42.203379" lon="23.590533"><ele>2290.3</ele><time>2026-04-05T07:46:17.000Z</time></trkpt>
<trkpt lat="42.203375" lon="23.590535"><ele>2290.3</ele><time>2026-04-05T07:46:18.000Z</time></trkpt>
<trkpt lat="42.203371" lon="23.590537"><ele>2290.5</ele><time>2026-04-05T07:46:19.000Z</time></trkpt>
<trkpt lat="42.203369" lon="23.590536"><ele>2290.5</ele><time>2026-04-05T07:46:20.000Z</time></trkpt>
<trkpt lat="42.203365" lon="23.590537"><ele>2290.5</ele><time>2026-04-05T07:46:21.000Z</time></trkpt>
<trkpt lat="42.203361" lon="23.590538"><ele>2290.5</ele><time>2026-04-05T07:46:22.000Z</time></trkpt>
<trkpt lat="42.203357" lon="23.590539"><ele>2290.5</ele><time>2026-04-05T07:46:23.000Z</time></trkpt>
<trkpt lat="42.203351" lon="23.59054"><ele>2290.9</ele><time>2026-04-05T07:46:24.000Z</time></trkpt>
<trkpt lat="42.203345" lon="23.590542"><ele>2290.9</ele><time>2026-04-05T07:46:25.000Z</time></trkpt>
<trkpt lat="42.20334" lon="23.590544"><ele>2290.9</ele><time>2026-04-05T07:46:26.000Z</time></trkpt>
<trkpt lat="42.203333" lon="23.590546"><ele>2290.9</ele><time>2026-04-05T07:46:27.000Z</time></trkpt>
<trkpt lat="42.203328" lon="23.590548"><ele>2290.9</ele><time>2026-04-05T07:46:28.000Z</time></trkpt>
<trkpt lat="42.203322" lon="23.590549"><ele>2291</ele><time>2026-04-05T07:46:29.000Z</time></trkpt>
<trkpt lat="42.203317" lon="23.590551"><ele>2291</ele><time>2026-04-05T07:46:30.000Z</time></trkpt>
<trkpt lat="42.203311" lon="23.590553"><ele>2291</ele><time>2026-04-05T07:46:31.000Z</time></trkpt>
<trkpt lat="42.203307" lon="23.590556"><ele>2291</ele><time>2026-04-05T07:46:32.000Z</time></trkpt>
<trkpt lat="42.203301" lon="23.590558"><ele>2291</ele><time>2026-04-05T07:46:33.000Z</time></trkpt>
<trkpt lat="42.203294" lon="23.59056"><ele>2291.1</ele><time>2026-04-05T07:46:34.000Z</time></trkpt>
<trkpt lat="42.203288" lon="23.590561"><ele>2291.1</ele><time>2026-04-05T07:46:35.000Z</time></trkpt>
<trkpt lat="42.20328" lon="23.590562"><ele>2291.1</ele><time>2026-04-05T07:46:36.000Z</time></trkpt>
<trkpt lat="42.203274" lon="23.590561"><ele>2291.1</ele><time>2026-04-05T07:46:37.000Z</time></trkpt>
<trkpt lat="42.203268" lon="23.590561"><ele>2291.1</ele><time>2026-04-05T07:46:38.000Z</time></trkpt>
<trkpt lat="42.203262" lon="23.590561"><ele>2291.5</ele><time>2026-04-05T07:46:39.000Z</time></trkpt>
<trkpt lat="42.203257" lon="23.590561"><ele>2291.5</ele><time>2026-04-05T07:46:40.000Z</time></trkpt>
<trkpt lat="42.203251" lon="23.590561"><ele>2291.5</ele><time>2026-04-05T07:46:41.000Z</time></trkpt>
<trkpt lat="42.203244" lon="23.590561"><ele>2291.5</ele><time>2026-04-05T07:46:42.000Z</time></trkpt>
<trkpt lat="42.203238" lon="23.590562"><ele>2291.5</ele><time>2026-04-05T07:46:43.000Z</time></trkpt>
<trkpt lat="42.203232" lon="23.590564"><ele>2292.2</ele><time>2026-04-05T07:46:44.000Z</time></trkpt>
<trkpt lat="42.203227" lon="23.590565"><ele>2292.2</ele><time>2026-04-05T07:46:45.000Z</time></trkpt>
<trkpt lat="42.203223" lon="23.590565"><ele>2292.2</ele><time>2026-04-05T07:46:46.000Z</time></trkpt>
<trkpt lat="42.203221" lon="23.590565"><ele>2292.2</ele><time>2026-04-05T07:46:47.000Z</time></trkpt>
<trkpt lat="42.203219" lon="23.590565"><ele>2292.2</ele><time>2026-04-05T07:46:48.000Z</time></trkpt>
<trkpt lat="42.203219" lon="23.590564"><ele>2292.6</ele><time>2026-04-05T07:46:49.000Z</time></trkpt>
<trkpt lat="42.203219" lon="23.590565"><ele>2292.6</ele><time>2026-04-05T07:46:50.000Z</time></trkpt>
<trkpt lat="42.203218" lon="23.590565"><ele>2292.6</ele><time>2026-04-05T07:46:51.000Z</time></trkpt>
<trkpt lat="42.203218" lon="23.590566"><ele>2292.6</ele><time>2026-04-05T07:46:52.000Z</time></trkpt>
<trkpt lat="42.203217" lon="23.590568"><ele>2292.6</ele><time>2026-04-05T07:46:53.000Z</time></trkpt>
<trkpt lat="42.203217" lon="23.590568"><ele>2293.4</ele><time>2026-04-05T07:46:54.000Z</time></trkpt>
<trkpt lat="42.203216" lon="23.590568"><ele>2293.4</ele><time>2026-04-05T07:46:55.000Z</time></trkpt>
<trkpt lat="42.203215" lon="23.590568"><ele>2293.4</ele><time>2026-04-05T07:46:56.000Z</time></trkpt>
<trkpt lat="42.203212" lon="23.590569"><ele>2293.4</ele><time>2026-04-05T07:46:57.000Z</time></trkpt>
<trkpt lat="42.203208" lon="23.59057"><ele>2293.4</ele><time>2026-04-05T07:46:58.000Z</time></trkpt>
<trkpt lat="42.203203" lon="23.59057"><ele>2294</ele><time>2026-04-05T07:46:59.000Z</time></trkpt>
<trkpt lat="42.203198" lon="23.590569"><ele>2294</ele><time>2026-04-05T07:47:00.000Z</time></trkpt>
<trkpt lat="42.203195" lon="23.590569"><ele>2294</ele><time>2026-04-05T07:47:01.000Z</time></trkpt>
<trkpt lat="42.203194" lon="23.590569"><ele>2294</ele><time>2026-04-05T07:47:02.000Z</time></trkpt>
<trkpt lat="42.203194" lon="23.590569"><ele>2294</ele><time>2026-04-05T07:47:03.000Z</time></trkpt>
<trkpt lat="42.203194" lon="23.59057"><ele>2294.2</ele><time>2026-04-05T07:47:04.000Z</time></trkpt>
<trkpt lat="42.203194" lon="23.590572"><ele>2294.2</ele><time>2026-04-05T07:47:05.000Z</time></trkpt>
<trkpt lat="42.203194" lon="23.590574"><ele>2294.2</ele><time>2026-04-05T07:47:06.000Z</time></trkpt>
<trkpt lat="42.203195" lon="23.590575"><ele>2294.2</ele><time>2026-04-05T07:47:07.000Z</time></trkpt>
<trkpt lat="42.203195" lon="23.590575"><ele>2294.2</ele><time>2026-04-05T07:47:08.000Z</time></trkpt>
<trkpt lat="42.203196" lon="23.590577"><ele>2294.5</ele><time>2026-04-05T07:47:09.000Z</time></trkpt>
<trkpt lat="42.203195" lon="23.59058"><ele>2294.5</ele><time>2026-04-05T07:47:10.000Z</time></trkpt>
<trkpt lat="42.203193" lon="23.590584"><ele>2294.5</ele><time>2026-04-05T07:47:11.000Z</time></trkpt>
<trkpt lat="42.203191" lon="23.590586"><ele>2294.5</ele><time>2026-04-05T07:47:12.000Z</time></trkpt>
<trkpt lat="42.203188" lon="23.590589"><ele>2294.5</ele><time>2026-04-05T07:47:13.000Z</time></trkpt>
<trkpt lat="42.203184" lon="23.590591"><ele>2295</ele><time>2026-04-05T07:47:14.000Z</time></trkpt>
<trkpt lat="42.20318" lon="23.590592"><ele>2295</ele><time>2026-04-05T07:47:15.000Z</time></trkpt>
<trkpt lat="42.203175" lon="23.590591"><ele>2295</ele><time>2026-04-05T07:47:16.000Z</time></trkpt>
<trkpt lat="42.203169" lon="23.590591"><ele>2295</ele><time>2026-04-05T07:47:17.000Z</time></trkpt>
<trkpt lat="42.20316" lon="23.590591"><ele>2295</ele><time>2026-04-05T07:47:18.000Z</time></trkpt>
<trkpt lat="42.203151" lon="23.590591"><ele>2295.2</ele><time>2026-04-05T07:47:19.000Z</time></trkpt>
<trkpt lat="42.203143" lon="23.590592"><ele>2295.2</ele><time>2026-04-05T07:47:20.000Z</time></trkpt>
<trkpt lat="42.203133" lon="23.590593"><ele>2295.2</ele><time>2026-04-05T07:47:21.000Z</time></trkpt>
<trkpt lat="42.203124" lon="23.590596"><ele>2295.2</ele><time>2026-04-05T07:47:22.000Z</time></trkpt>
<trkpt lat="42.203116" lon="23.590598"><ele>2295.2</ele><time>2026-04-05T07:47:23.000Z</time></trkpt>
<trkpt lat="42.203107" lon="23.5906"><ele>2295.5</ele><time>2026-04-05T07:47:24.000Z</time></trkpt>
<trkpt lat="42.203098" lon="23.590601"><ele>2295.5</ele><time>2026-04-05T07:47:25.000Z</time></trkpt>
<trkpt lat="42.20309" lon="23.590602"><ele>2295.5</ele><time>2026-04-05T07:47:26.000Z</time></trkpt>
<trkpt lat="42.203082" lon="23.590604"><ele>2295.5</ele><time>2026-04-05T07:47:27.000Z</time></trkpt>
<trkpt lat="42.203074" lon="23.590606"><ele>2295.5</ele><time>2026-04-05T07:47:28.000Z</time></trkpt>
<trkpt lat="42.203066" lon="23.590607"><ele>2295.8</ele><time>2026-04-05T07:47:29.000Z</time></trkpt>
<trkpt lat="42.203058" lon="23.59061"><ele>2295.8</ele><time>2026-04-05T07:47:30.000Z</time></trkpt>
<trkpt lat="42.203049" lon="23.590612"><ele>2295.8</ele><time>2026-04-05T07:47:31.000Z</time></trkpt>
<trkpt lat="42.203041" lon="23.590614"><ele>2295.8</ele><time>2026-04-05T07:47:32.000Z</time></trkpt>
<trkpt lat="42.203034" lon="23.590615"><ele>2295.8</ele><time>2026-04-05T07:47:33.000Z</time></trkpt>
<trkpt lat="42.203025" lon="23.590616"><ele>2296.1</ele><time>2026-04-05T07:47:34.000Z</time></trkpt>
<trkpt lat="42.203018" lon="23.590617"><ele>2296.1</ele><time>2026-04-05T07:47:35.000Z</time></trkpt>
<trkpt lat="42.20301" lon="23.590618"><ele>2296.1</ele><time>2026-04-05T07:47:36.000Z</time></trkpt>
<trkpt lat="42.203003" lon="23.590619"><ele>2296.1</ele><time>2026-04-05T07:47:37.000Z</time></trkpt>
<trkpt lat="42.202996" lon="23.59062"><ele>2296.1</ele><time>2026-04-05T07:47:38.000Z</time></trkpt>
<trkpt lat="42.202989" lon="23.590622"><ele>2297</ele><time>2026-04-05T07:47:39.000Z</time></trkpt>
<trkpt lat="42.202981" lon="23.590624"><ele>2297</ele><time>2026-04-05T07:47:40.000Z</time></trkpt>
<trkpt lat="42.202972" lon="23.590627"><ele>2297</ele><time>2026-04-05T07:47:41.000Z</time></trkpt>
<trkpt lat="42.202964" lon="23.59063"><ele>2297</ele><time>2026-04-05T07:47:42.000Z</time></trkpt>
<trkpt lat="42.202954" lon="23.590634"><ele>2297</ele><time>2026-04-05T07:47:43.000Z</time></trkpt>
<trkpt lat="42.202945" lon="23.590638"><ele>2297.9</ele><time>2026-04-05T07:47:44.000Z</time></trkpt>
<trkpt lat="42.202935" lon="23.590642"><ele>2297.9</ele><time>2026-04-05T07:47:45.000Z</time></trkpt>
<trkpt lat="42.202924" lon="23.590646"><ele>2297.9</ele><time>2026-04-05T07:47:46.000Z</time></trkpt>
<trkpt lat="42.202914" lon="23.59065"><ele>2297.9</ele><time>2026-04-05T07:47:47.000Z</time></trkpt>
<trkpt lat="42.202903" lon="23.590653"><ele>2297.9</ele><time>2026-04-05T07:47:48.000Z</time></trkpt>
<trkpt lat="42.202893" lon="23.590656"><ele>2298.2</ele><time>2026-04-05T07:47:49.000Z</time></trkpt>
<trkpt lat="42.202883" lon="23.590658"><ele>2298.2</ele><time>2026-04-05T07:47:50.000Z</time></trkpt>
<trkpt lat="42.202873" lon="23.590661"><ele>2298.2</ele><time>2026-04-05T07:47:51.000Z</time></trkpt>
<trkpt lat="42.202864" lon="23.590664"><ele>2298.2</ele><time>2026-04-05T07:47:52.000Z</time></trkpt>
<trkpt lat="42.202856" lon="23.590666"><ele>2298.2</ele><time>2026-04-05T07:47:53.000Z</time></trkpt>
<trkpt lat="42.202848" lon="23.590669"><ele>2298.6</ele><time>2026-04-05T07:47:54.000Z</time></trkpt>
<trkpt lat="42.202842" lon="23.590671"><ele>2298.6</ele><time>2026-04-05T07:47:55.000Z</time></trkpt>
<trkpt lat="42.202835" lon="23.590672"><ele>2298.6</ele><time>2026-04-05T07:47:56.000Z</time></trkpt>
<trkpt lat="42.202829" lon="23.590673"><ele>2298.6</ele><time>2026-04-05T07:47:57.000Z</time></trkpt>
<trkpt lat="42.202822" lon="23.590676"><ele>2298.6</ele><time>2026-04-05T07:47:58.000Z</time></trkpt>
<trkpt lat="42.202816" lon="23.590679"><ele>2299.1</ele><time>2026-04-05T07:47:59.000Z</time></trkpt>
<trkpt lat="42.202809" lon="23.590682"><ele>2299.1</ele><time>2026-04-05T07:48:00.000Z</time></trkpt>
<trkpt lat="42.202805" lon="23.590683"><ele>2299.1</ele><time>2026-04-05T07:48:01.000Z</time></trkpt>
<trkpt lat="42.202802" lon="23.590684"><ele>2299.1</ele><time>2026-04-05T07:48:02.000Z</time></trkpt>
<trkpt lat="42.202802" lon="23.590682"><ele>2299.1</ele><time>2026-04-05T07:48:03.000Z</time></trkpt>
<trkpt lat="42.202802" lon="23.590681"><ele>2299.4</ele><time>2026-04-05T07:48:04.000Z</time></trkpt>
<trkpt lat="42.202802" lon="23.590681"><ele>2299.4</ele><time>2026-04-05T07:48:05.000Z</time></trkpt>
<trkpt lat="42.202802" lon="23.590681"><ele>2299.4</ele><time>2026-04-05T07:48:06.000Z</time></trkpt>
<trkpt lat="42.202801" lon="23.590681"><ele>2299.4</ele><time>2026-04-05T07:48:07.000Z</time></trkpt>
<trkpt lat="42.202801" lon="23.590682"><ele>2299.4</ele><time>2026-04-05T07:48:08.000Z</time></trkpt>
<trkpt lat="42.202801" lon="23.590683"><ele>2299.9</ele><time>2026-04-05T07:48:09.000Z</time></trkpt>
<trkpt lat="42.202799" lon="23.590684"><ele>2299.9</ele><time>2026-04-05T07:48:10.000Z</time></trkpt>
<trkpt lat="42.202797" lon="23.590686"><ele>2299.9</ele><time>2026-04-05T07:48:11.000Z</time></trkpt>
<trkpt lat="42.202793" lon="23.590688"><ele>2299.9</ele><time>2026-04-05T07:48:12.000Z</time></trkpt>
<trkpt lat="42.202789" lon="23.59069"><ele>2299.9</ele><time>2026-04-05T07:48:13.000Z</time></trkpt>
<trkpt lat="42.202783" lon="23.590692"><ele>2300.3</ele><time>2026-04-05T07:48:14.000Z</time></trkpt>
<trkpt lat="42.202777" lon="23.590694"><ele>2300.3</ele><time>2026-04-05T07:48:15.000Z</time></trkpt>
<trkpt lat="42.202771" lon="23.590695"><ele>2300.3</ele><time>2026-04-05T07:48:16.000Z</time></trkpt>
<trkpt lat="42.202765" lon="23.590697"><ele>2300.3</ele><time>2026-04-05T07:48:17.000Z</time></trkpt>
<trkpt lat="42.202759" lon="23.590699"><ele>2300.3</ele><time>2026-04-05T07:48:18.000Z</time></trkpt>
<trkpt lat="42.202752" lon="23.590701"><ele>2300.4</ele><time>2026-04-05T07:48:19.000Z</time></trkpt>
<trkpt lat="42.202748" lon="23.590703"><ele>2300.4</ele><time>2026-04-05T07:48:20.000Z</time></trkpt>
<trkpt lat="42.202742" lon="23.590705"><ele>2300.4</ele><time>2026-04-05T07:48:21.000Z</time></trkpt>
<trkpt lat="42.202736" lon="23.590708"><ele>2300.4</ele><time>2026-04-05T07:48:22.000Z</time></trkpt>
<trkpt lat="42.20273" lon="23.59071"><ele>2300.4</ele><time>2026-04-05T07:48:23.000Z</time></trkpt>
<trkpt lat="42.202725" lon="23.590712"><ele>2300.5</ele><time>2026-04-05T07:48:24.000Z</time></trkpt>
<trkpt lat="42.202718" lon="23.590714"><ele>2300.5</ele><time>2026-04-05T07:48:25.000Z</time></trkpt>
<trkpt lat="42.202713" lon="23.590716"><ele>2300.5</ele><time>2026-04-05T07:48:26.000Z</time></trkpt>
<trkpt lat="42.202708" lon="23.590717"><ele>2300.5</ele><time>2026-04-05T07:48:27.000Z</time></trkpt>
<trkpt lat="42.202703" lon="23.590719"><ele>2300.5</ele><time>2026-04-05T07:48:28.000Z</time></trkpt>
<trkpt lat="42.202699" lon="23.590721"><ele>2300.8</ele><time>2026-04-05T07:48:29.000Z</time></trkpt>
<trkpt lat="42.202693" lon="23.590722"><ele>2300.8</ele><time>2026-04-05T07:48:30.000Z</time></trkpt>
<trkpt lat="42.202688" lon="23.590724"><ele>2300.8</ele><time>2026-04-05T07:48:31.000Z</time></trkpt>
<trkpt lat="42.202682" lon="23.590726"><ele>2300.8</ele><time>2026-04-05T07:48:32.000Z</time></trkpt>
<trkpt lat="42.202675" lon="23.590729"><ele>2300.8</ele><time>2026-04-05T07:48:33.000Z</time></trkpt>
<trkpt lat="42.202668" lon="23.590733"><ele>2301</ele><time>2026-04-05T07:48:34.000Z</time></trkpt>
<trkpt lat="42.202661" lon="23.590737"><ele>2301</ele><time>2026-04-05T07:48:35.000Z</time></trkpt>
<trkpt lat="42.202653" lon="23.590743"><ele>2301</ele><time>2026-04-05T07:48:36.000Z</time></trkpt>
<trkpt lat="42.202646" lon="23.59075"><ele>2301</ele><time>2026-04-05T07:48:37.000Z</time></trkpt>
<trkpt lat="42.202638" lon="23.590755"><ele>2301</ele><time>2026-04-05T07:48:38.000Z</time></trkpt>
<trkpt lat="42.20263" lon="23.590759"><ele>2301.5</ele><time>2026-04-05T07:48:39.000Z</time></trkpt>
<trkpt lat="42.202624" lon="23.590761"><ele>2301.5</ele><time>2026-04-05T07:48:40.000Z</time></trkpt>
<trkpt lat="42.202617" lon="23.590762"><ele>2301.5</ele><time>2026-04-05T07:48:41.000Z</time></trkpt>
<trkpt lat="42.202609" lon="23.590762"><ele>2301.5</ele><time>2026-04-05T07:48:42.000Z</time></trkpt>
<trkpt lat="42.202603" lon="23.590763"><ele>2301.5</ele><time>2026-04-05T07:48:43.000Z</time></trkpt>
<trkpt lat="42.202595" lon="23.590766"><ele>2301.9</ele><time>2026-04-05T07:48:44.000Z</time></trkpt>
<trkpt lat="42.202587" lon="23.590769"><ele>2301.9</ele><time>2026-04-05T07:48:45.000Z</time></trkpt>
<trkpt lat="42.20258" lon="23.590772"><ele>2301.9</ele><time>2026-04-05T07:48:46.000Z</time></trkpt>
<trkpt lat="42.202572" lon="23.590775"><ele>2301.9</ele><time>2026-04-05T07:48:47.000Z</time></trkpt>
<trkpt lat="42.202565" lon="23.590778"><ele>2301.9</ele><time>2026-04-05T07:48:48.000Z</time></trkpt>
<trkpt lat="42.202558" lon="23.590781"><ele>2302.2</ele><time>2026-04-05T07:48:49.000Z</time></trkpt>
<trkpt lat="42.202552" lon="23.590783"><ele>2302.2</ele><time>2026-04-05T07:48:50.000Z</time></trkpt>
<trkpt lat="42.202546" lon="23.590785"><ele>2302.2</ele><time>2026-04-05T07:48:51.000Z</time></trkpt>
<trkpt lat="42.202539" lon="23.590787"><ele>2302.2</ele><time>2026-04-05T07:48:52.000Z</time></trkpt>
<trkpt lat="42.202533" lon="23.590788"><ele>2302.2</ele><time>2026-04-05T07:48:53.000Z</time></trkpt>
<trkpt lat="42.202527" lon="23.590789"><ele>2302.6</ele><time>2026-04-05T07:48:54.000Z</time></trkpt>
<trkpt lat="42.20252" lon="23.590791"><ele>2302.6</ele><time>2026-04-05T07:48:55.000Z</time></trkpt>
<trkpt lat="42.202513" lon="23.590793"><ele>2302.6</ele><time>2026-04-05T07:48:56.000Z</time></trkpt>
<trkpt lat="42.202506" lon="23.590797"><ele>2302.6</ele><time>2026-04-05T07:48:57.000Z</time></trkpt>
<trkpt lat="42.2025" lon="23.5908"><ele>2302.6</ele><time>2026-04-05T07:48:58.000Z</time></trkpt>
<trkpt lat="42.202493" lon="23.590803"><ele>2303.3</ele><time>2026-04-05T07:48:59.000Z</time></trkpt>
<trkpt lat="42.202486" lon="23.590806"><ele>2303.3</ele><time>2026-04-05T07:49:00.000Z</time></trkpt>
<trkpt lat="42.20248" lon="23.590808"><ele>2303.3</ele><time>2026-04-05T07:49:01.000Z</time></trkpt>
<trkpt lat="42.202473" lon="23.59081"><ele>2303.3</ele><time>2026-04-05T07:49:02.000Z</time></trkpt>
<trkpt lat="42.202466" lon="23.590812"><ele>2303.3</ele><time>2026-04-05T07:49:03.000Z</time></trkpt>
<trkpt lat="42.20246" lon="23.590814"><ele>2303.6</ele><time>2026-04-05T07:49:04.000Z</time></trkpt>
<trkpt lat="42.202454" lon="23.590816"><ele>2303.6</ele><time>2026-04-05T07:49:05.000Z</time></trkpt>
<trkpt lat="42.202448" lon="23.590819"><ele>2303.6</ele><time>2026-04-05T07:49:06.000Z</time></trkpt>
<trkpt lat="42.202442" lon="23.590822"><ele>2303.6</ele><time>2026-04-05T07:49:07.000Z</time></trkpt>
<trkpt lat="42.202437" lon="23.590824"><ele>2303.6</ele><time>2026-04-05T07:49:08.000Z</time></trkpt>
<trkpt lat="42.20243" lon="23.590827"><ele>2304.5</ele><time>2026-04-05T07:49:09.000Z</time></trkpt>
<trkpt lat="42.202423" lon="23.590828"><ele>2304.5</ele><time>2026-04-05T07:49:10.000Z</time></trkpt>
<trkpt lat="42.202417" lon="23.590829"><ele>2304.5</ele><time>2026-04-05T07:49:11.000Z</time></trkpt>
<trkpt lat="42.202409" lon="23.590831"><ele>2304.5</ele><time>2026-04-05T07:49:12.000Z</time></trkpt>
<trkpt lat="42.202401" lon="23.590832"><ele>2304.5</ele><time>2026-04-05T07:49:13.000Z</time></trkpt>
<trkpt lat="42.202394" lon="23.590833"><ele>2305.3</ele><time>2026-04-05T07:49:14.000Z</time></trkpt>
<trkpt lat="42.202387" lon="23.590836"><ele>2305.3</ele><time>2026-04-05T07:49:15.000Z</time></trkpt>
<trkpt lat="42.202379" lon="23.590839"><ele>2305.3</ele><time>2026-04-05T07:49:16.000Z</time></trkpt>
<trkpt lat="42.202371" lon="23.590841"><ele>2305.3</ele><time>2026-04-05T07:49:17.000Z</time></trkpt>
<trkpt lat="42.202364" lon="23.590845"><ele>2305.3</ele><time>2026-04-05T07:49:18.000Z</time></trkpt>
<trkpt lat="42.202356" lon="23.590848"><ele>2305.6</ele><time>2026-04-05T07:49:19.000Z</time></trkpt>
<trkpt lat="42.202348" lon="23.590851"><ele>2305.6</ele><time>2026-04-05T07:49:20.000Z</time></trkpt>
<trkpt lat="42.20234" lon="23.590855"><ele>2305.6</ele><time>2026-04-05T07:49:21.000Z</time></trkpt>
<trkpt lat="42.202332" lon="23.590859"><ele>2305.6</ele><time>2026-04-05T07:49:22.000Z</time></trkpt>
<trkpt lat="42.202324" lon="23.590862"><ele>2305.6</ele><time>2026-04-05T07:49:23.000Z</time></trkpt>
<trkpt lat="42.202316" lon="23.590866"><ele>2306.1</ele><time>2026-04-05T07:49:24.000Z</time></trkpt>
<trkpt lat="42.202309" lon="23.590869"><ele>2306.1</ele><time>2026-04-05T07:49:25.000Z</time></trkpt>
<trkpt lat="42.202301" lon="23.590871"><ele>2306.1</ele><time>2026-04-05T07:49:26.000Z</time></trkpt>
<trkpt lat="42.202294" lon="23.590873"><ele>2306.1</ele><time>2026-04-05T07:49:27.000Z</time></trkpt>
<trkpt lat="42.202288" lon="23.590874"><ele>2306.1</ele><time>2026-04-05T07:49:28.000Z</time></trkpt>
<trkpt lat="42.202282" lon="23.590876"><ele>2306.8</ele><time>2026-04-05T07:49:29.000Z</time></trkpt>
<trkpt lat="42.202276" lon="23.590877"><ele>2306.8</ele><time>2026-04-05T07:49:30.000Z</time></trkpt>
<trkpt lat="42.202271" lon="23.59088"><ele>2306.8</ele><time>2026-04-05T07:49:31.000Z</time></trkpt>
<trkpt lat="42.202265" lon="23.590883"><ele>2306.8</ele><time>2026-04-05T07:49:32.000Z</time></trkpt>
<trkpt lat="42.202259" lon="23.590886"><ele>2306.8</ele><time>2026-04-05T07:49:33.000Z</time></trkpt>
<trkpt lat="42.202253" lon="23.590891"><ele>2307.2</ele><time>2026-04-05T07:49:34.000Z</time></trkpt>
<trkpt lat="42.202246" lon="23.590895"><ele>2307.2</ele><time>2026-04-05T07:49:35.000Z</time></trkpt>
<trkpt lat="42.20224" lon="23.590899"><ele>2307.2</ele><time>2026-04-05T07:49:36.000Z</time></trkpt>
<trkpt lat="42.202234" lon="23.590903"><ele>2307.2</ele><time>2026-04-05T07:49:37.000Z</time></trkpt>
<trkpt lat="42.202227" lon="23.590907"><ele>2307.2</ele><time>2026-04-05T07:49:38.000Z</time></trkpt>
<trkpt lat="42.20222" lon="23.590911"><ele>2308.1</ele><time>2026-04-05T07:49:39.000Z</time></trkpt>
<trkpt lat="42.202213" lon="23.590915"><ele>2308.1</ele><time>2026-04-05T07:49:40.000Z</time></trkpt>
<trkpt lat="42.202208" lon="23.590919"><ele>2308.1</ele><time>2026-04-05T07:49:41.000Z</time></trkpt>
<trkpt lat="42.2022" lon="23.590925"><ele>2308.1</ele><time>2026-04-05T07:49:42.000Z</time></trkpt>
<trkpt lat="42.202194" lon="23.590929"><ele>2308.1</ele><time>2026-04-05T07:49:43.000Z</time></trkpt>
<trkpt lat="42.202187" lon="23.590932"><ele>2308.9</ele><time>2026-04-05T07:49:44.000Z</time></trkpt>
<trkpt lat="42.20218" lon="23.590934"><ele>2308.9</ele><time>2026-04-05T07:49:45.000Z</time></trkpt>
<trkpt lat="42.202172" lon="23.590935"><ele>2308.9</ele><time>2026-04-05T07:49:46.000Z</time></trkpt>
<trkpt lat="42.202165" lon="23.590937"><ele>2308.9</ele><time>2026-04-05T07:49:47.000Z</time></trkpt>
<trkpt lat="42.202158" lon="23.590939"><ele>2308.9</ele><time>2026-04-05T07:49:48.000Z</time></trkpt>
<trkpt lat="42.20215" lon="23.590942"><ele>2309.2</ele><time>2026-04-05T07:49:49.000Z</time></trkpt>
<trkpt lat="42.202142" lon="23.590944"><ele>2309.2</ele><time>2026-04-05T07:49:50.000Z</time></trkpt>
<trkpt lat="42.202135" lon="23.590946"><ele>2309.2</ele><time>2026-04-05T07:49:51.000Z</time></trkpt>
<trkpt lat="42.202128" lon="23.590947"><ele>2309.2</ele><time>2026-04-05T07:49:52.000Z</time></trkpt>
<trkpt lat="42.20212" lon="23.590947"><ele>2309.2</ele><time>2026-04-05T07:49:53.000Z</time></trkpt>
<trkpt lat="42.202113" lon="23.590948"><ele>2309.9</ele><time>2026-04-05T07:49:54.000Z</time></trkpt>
<trkpt lat="42.202106" lon="23.59095"><ele>2309.9</ele><time>2026-04-05T07:49:55.000Z</time></trkpt>
<trkpt lat="42.202097" lon="23.590952"><ele>2309.9</ele><time>2026-04-05T07:49:56.000Z</time></trkpt>
<trkpt lat="42.202088" lon="23.590954"><ele>2309.9</ele><time>2026-04-05T07:49:57.000Z</time></trkpt>
<trkpt lat="42.202079" lon="23.590956"><ele>2309.9</ele><time>2026-04-05T07:49:58.000Z</time></trkpt>
<trkpt lat="42.202072" lon="23.590958"><ele>2310.4</ele><time>2026-04-05T07:49:59.000Z</time></trkpt>
<trkpt lat="42.202066" lon="23.590958"><ele>2310.4</ele><time>2026-04-05T07:50:00.000Z</time></trkpt>
<trkpt lat="42.202062" lon="23.590958"><ele>2310.4</ele><time>2026-04-05T07:50:01.000Z</time></trkpt>
<trkpt lat="42.202061" lon="23.590957"><ele>2310.4</ele><time>2026-04-05T07:50:02.000Z</time></trkpt>
<trkpt lat="42.20206" lon="23.590956"><ele>2310.4</ele><time>2026-04-05T07:50:03.000Z</time></trkpt>
<trkpt lat="42.202058" lon="23.590955"><ele>2310.8</ele><time>2026-04-05T07:50:04.000Z</time></trkpt>
<trkpt lat="42.202056" lon="23.590954"><ele>2310.8</ele><time>2026-04-05T07:50:05.000Z</time></trkpt>
<trkpt lat="42.202052" lon="23.590954"><ele>2310.8</ele><time>2026-04-05T07:50:06.000Z</time></trkpt>
<trkpt lat="42.202047" lon="23.590954"><ele>2310.8</ele><time>2026-04-05T07:50:07.000Z</time></trkpt>
<trkpt lat="42.202042" lon="23.590956"><ele>2310.8</ele><time>2026-04-05T07:50:08.000Z</time></trkpt>
<trkpt lat="42.202036" lon="23.590957"><ele>2311.5</ele><time>2026-04-05T07:50:09.000Z</time></trkpt>
<trkpt lat="42.20203" lon="23.59096"><ele>2311.5</ele><time>2026-04-05T07:50:10.000Z</time></trkpt>
<trkpt lat="42.202025" lon="23.590962"><ele>2311.5</ele><time>2026-04-05T07:50:11.000Z</time></trkpt>
<trkpt lat="42.202017" lon="23.590964"><ele>2311.5</ele><time>2026-04-05T07:50:12.000Z</time></trkpt>
<trkpt lat="42.20201" lon="23.590965"><ele>2311.5</ele><time>2026-04-05T07:50:13.000Z</time></trkpt>
<trkpt lat="42.202004" lon="23.590965"><ele>2312.2</ele><time>2026-04-05T07:50:14.000Z</time></trkpt>
<trkpt lat="42.201996" lon="23.590966"><ele>2312.2</ele><time>2026-04-05T07:50:15.000Z</time></trkpt>
<trkpt lat="42.20199" lon="23.590968"><ele>2312.2</ele><time>2026-04-05T07:50:16.000Z</time></trkpt>
<trkpt lat="42.201984" lon="23.59097"><ele>2312.2</ele><time>2026-04-05T07:50:17.000Z</time></trkpt>
<trkpt lat="42.201978" lon="23.590972"><ele>2312.2</ele><time>2026-04-05T07:50:18.000Z</time></trkpt>
<trkpt lat="42.201972" lon="23.590974"><ele>2312.4</ele><time>2026-04-05T07:50:19.000Z</time></trkpt>
<trkpt lat="42.201967" lon="23.590974"><ele>2312.4</ele><time>2026-04-05T07:50:20.000Z</time></trkpt>
<trkpt lat="42.201963" lon="23.590975"><ele>2312.4</ele><time>2026-04-05T07:50:21.000Z</time></trkpt>
<trkpt lat="42.201958" lon="23.590976"><ele>2312.4</ele><time>2026-04-05T07:50:22.000Z</time></trkpt>
<trkpt lat="42.201953" lon="23.590976"><ele>2312.4</ele><time>2026-04-05T07:50:23.000Z</time></trkpt>
<trkpt lat="42.201948" lon="23.590977"><ele>2312.9</ele><time>2026-04-05T07:50:24.000Z</time></trkpt>
<trkpt lat="42.201942" lon="23.590977"><ele>2312.9</ele><time>2026-04-05T07:50:25.000Z</time></trkpt>
<trkpt lat="42.201936" lon="23.590977"><ele>2312.9</ele><time>2026-04-05T07:50:26.000Z</time></trkpt>
<trkpt lat="42.201928" lon="23.590976"><ele>2312.9</ele><time>2026-04-05T07:50:27.000Z</time></trkpt>
<trkpt lat="42.20192" lon="23.590976"><ele>2312.9</ele><time>2026-04-05T07:50:28.000Z</time></trkpt>
<trkpt lat="42.201913" lon="23.590976"><ele>2313.4</ele><time>2026-04-05T07:50:29.000Z</time></trkpt>
<trkpt lat="42.201905" lon="23.590976"><ele>2313.4</ele><time>2026-04-05T07:50:30.000Z</time></trkpt>
<trkpt lat="42.201898" lon="23.590977"><ele>2313.4</ele><time>2026-04-05T07:50:31.000Z</time></trkpt>
<trkpt lat="42.201891" lon="23.590979"><ele>2313.4</ele><time>2026-04-05T07:50:32.000Z</time></trkpt>
<trkpt lat="42.201885" lon="23.59098"><ele>2313.4</ele><time>2026-04-05T07:50:33.000Z</time></trkpt>
<trkpt lat="42.201879" lon="23.590981"><ele>2313.7</ele><time>2026-04-05T07:50:34.000Z</time></trkpt>
<trkpt lat="42.201872" lon="23.590982"><ele>2313.7</ele><time>2026-04-05T07:50:35.000Z</time></trkpt>
<trkpt lat="42.201867" lon="23.590983"><ele>2313.7</ele><time>2026-04-05T07:50:36.000Z</time></trkpt>
<trkpt lat="42.201861" lon="23.590983"><ele>2313.7</ele><time>2026-04-05T07:50:37.000Z</time></trkpt>
<trkpt lat="42.201854" lon="23.590984"><ele>2313.7</ele><time>2026-04-05T07:50:38.000Z</time></trkpt>
<trkpt lat="42.201847" lon="23.590984"><ele>2314.2</ele><time>2026-04-05T07:50:39.000Z</time></trkpt>
<trkpt lat="42.20184" lon="23.590984"><ele>2314.2</ele><time>2026-04-05T07:50:40.000Z</time></trkpt>
<trkpt lat="42.201833" lon="23.590982"><ele>2314.2</ele><time>2026-04-05T07:50:41.000Z</time></trkpt>
<trkpt lat="42.201827" lon="23.590978"><ele>2314.2</ele><time>2026-04-05T07:50:42.000Z</time></trkpt>
<trkpt lat="42.201821" lon="23.590975"><ele>2314.2</ele><time>2026-04-05T07:50:43.000Z</time></trkpt>
<trkpt lat="42.201815" lon="23.590972"><ele>2314.8</ele><time>2026-04-05T07:50:44.000Z</time></trkpt>
<trkpt lat="42.201809" lon="23.590968"><ele>2314.8</ele><time>2026-04-05T07:50:45.000Z</time></trkpt>
<trkpt lat="42.201802" lon="23.590966"><ele>2314.8</ele><time>2026-04-05T07:50:46.000Z</time></trkpt>
<trkpt lat="42.201796" lon="23.590964"><ele>2314.8</ele><time>2026-04-05T07:50:47.000Z</time></trkpt>
<trkpt lat="42.201789" lon="23.590962"><ele>2314.8</ele><time>2026-04-05T07:50:48.000Z</time></trkpt>
<trkpt lat="42.201782" lon="23.590959"><ele>2315.1</ele><time>2026-04-05T07:50:49.000Z</time></trkpt>
<trkpt lat="42.201776" lon="23.590957"><ele>2315.1</ele><time>2026-04-05T07:50:50.000Z</time></trkpt>
<trkpt lat="42.20177" lon="23.590954"><ele>2315.1</ele><time>2026-04-05T07:50:51.000Z</time></trkpt>
<trkpt lat="42.201763" lon="23.59095"><ele>2315.1</ele><time>2026-04-05T07:50:52.000Z</time></trkpt>
<trkpt lat="42.201757" lon="23.590945"><ele>2315.1</ele><time>2026-04-05T07:50:53.000Z</time></trkpt>
<trkpt lat="42.201752" lon="23.590941"><ele>2315.7</ele><time>2026-04-05T07:50:54.000Z</time></trkpt>
<trkpt lat="42.201746" lon="23.590938"><ele>2315.7</ele><time>2026-04-05T07:50:55.000Z</time></trkpt>
<trkpt lat="42.20174" lon="23.590937"><ele>2315.7</ele><time>2026-04-05T07:50:56.000Z</time></trkpt>
<trkpt lat="42.201734" lon="23.590935"><ele>2315.7</ele><time>2026-04-05T07:50:57.000Z</time></trkpt>
<trkpt lat="42.201729" lon="23.590934"><ele>2315.7</ele><time>2026-04-05T07:50:58.000Z</time></trkpt>
<trkpt lat="42.201723" lon="23.590931"><ele>2316.3</ele><time>2026-04-05T07:50:59.000Z</time></trkpt>
<trkpt lat="42.201718" lon="23.590929"><ele>2316.3</ele><time>2026-04-05T07:51:00.000Z</time></trkpt>
<trkpt lat="42.201712" lon="23.590925"><ele>2316.3</ele><time>2026-04-05T07:51:01.000Z</time></trkpt>
<trkpt lat="42.201706" lon="23.590922"><ele>2316.3</ele><time>2026-04-05T07:51:02.000Z</time></trkpt>
<trkpt lat="42.201701" lon="23.590919"><ele>2316.3</ele><time>2026-04-05T07:51:03.000Z</time></trkpt>
<trkpt lat="42.201695" lon="23.590917"><ele>2316.6</ele><time>2026-04-05T07:51:04.000Z</time></trkpt>
<trkpt lat="42.20169" lon="23.590914"><ele>2316.6</ele><time>2026-04-05T07:51:05.000Z</time></trkpt>
<trkpt lat="42.201685" lon="23.590911"><ele>2316.6</ele><time>2026-04-05T07:51:06.000Z</time></trkpt>
<trkpt lat="42.201679" lon="23.590909"><ele>2316.6</ele><time>2026-04-05T07:51:07.000Z</time></trkpt>
<trkpt lat="42.201674" lon="23.590907"><ele>2316.6</ele><time>2026-04-05T07:51:08.000Z</time></trkpt>
<trkpt lat="42.201669" lon="23.590906"><ele>2317.4</ele><time>2026-04-05T07:51:09.000Z</time></trkpt>
<trkpt lat="42.201663" lon="23.590904"><ele>2317.4</ele><time>2026-04-05T07:51:10.000Z</time></trkpt>
<trkpt lat="42.201658" lon="23.590902"><ele>2317.4</ele><time>2026-04-05T07:51:11.000Z</time></trkpt>
<trkpt lat="42.201654" lon="23.5909"><ele>2317.4</ele><time>2026-04-05T07:51:12.000Z</time></trkpt>
<trkpt lat="42.201649" lon="23.590898"><ele>2317.4</ele><time>2026-04-05T07:51:13.000Z</time></trkpt>
<trkpt lat="42.201644" lon="23.590895"><ele>2318.1</ele><time>2026-04-05T07:51:14.000Z</time></trkpt>
<trkpt lat="42.20164" lon="23.590891"><ele>2318.1</ele><time>2026-04-05T07:51:15.000Z</time></trkpt>
<trkpt lat="42.201636" lon="23.590886"><ele>2318.1</ele><time>2026-04-05T07:51:16.000Z</time></trkpt>
<trkpt lat="42.201632" lon="23.590882"><ele>2318.1</ele><time>2026-04-05T07:51:17.000Z</time></trkpt>
<trkpt lat="42.201628" lon="23.590876"><ele>2318.1</ele><time>2026-04-05T07:51:18.000Z</time></trkpt>
<trkpt lat="42.201623" lon="23.590871"><ele>2318.4</ele><time>2026-04-05T07:51:19.000Z</time></trkpt>
<trkpt lat="42.201619" lon="23.590866"><ele>2318.4</ele><time>2026-04-05T07:51:20.000Z</time></trkpt>
<trkpt lat="42.201614" lon="23.590862"><ele>2318.4</ele><time>2026-04-05T07:51:21.000Z</time></trkpt>
<trkpt lat="42.201609" lon="23.590858"><ele>2318.4</ele><time>2026-04-05T07:51:22.000Z</time></trkpt>
<trkpt lat="42.201605" lon="23.590855"><ele>2318.4</ele><time>2026-04-05T07:51:23.000Z</time></trkpt>
<trkpt lat="42.2016" lon="23.590852"><ele>2319.1</ele><time>2026-04-05T07:51:24.000Z</time></trkpt>
<trkpt lat="42.201596" lon="23.590849"><ele>2319.1</ele><time>2026-04-05T07:51:25.000Z</time></trkpt>
<trkpt lat="42.201591" lon="23.590847"><ele>2319.1</ele><time>2026-04-05T07:51:26.000Z</time></trkpt>
<trkpt lat="42.201587" lon="23.590846"><ele>2319.1</ele><time>2026-04-05T07:51:27.000Z</time></trkpt>
<trkpt lat="42.201582" lon="23.590845"><ele>2319.1</ele><time>2026-04-05T07:51:28.000Z</time></trkpt>
<trkpt lat="42.201578" lon="23.590843"><ele>2319.7</ele><time>2026-04-05T07:51:29.000Z</time></trkpt>
<trkpt lat="42.201573" lon="23.590839"><ele>2319.7</ele><time>2026-04-05T07:51:30.000Z</time></trkpt>
<trkpt lat="42.201569" lon="23.590834"><ele>2319.7</ele><time>2026-04-05T07:51:31.000Z</time></trkpt>
<trkpt lat="42.201564" lon="23.590826"><ele>2319.7</ele><time>2026-04-05T07:51:32.000Z</time></trkpt>
<trkpt lat="42.201559" lon="23.590818"><ele>2319.7</ele><time>2026-04-05T07:51:33.000Z</time></trkpt>
<trkpt lat="42.201556" lon="23.590812"><ele>2320.1</ele><time>2026-04-05T07:51:34.000Z</time></trkpt>
<trkpt lat="42.201552" lon="23.590808"><ele>2320.1</ele><time>2026-04-05T07:51:35.000Z</time></trkpt>
<trkpt lat="42.201547" lon="23.590806"><ele>2320.1</ele><time>2026-04-05T07:51:36.000Z</time></trkpt>
<trkpt lat="42.201543" lon="23.590804"><ele>2320.1</ele><time>2026-04-05T07:51:37.000Z</time></trkpt>
<trkpt lat="42.201538" lon="23.590802"><ele>2320.1</ele><time>2026-04-05T07:51:38.000Z</time></trkpt>
<trkpt lat="42.201533" lon="23.590799"><ele>2320.8</ele><time>2026-04-05T07:51:39.000Z</time></trkpt>
<trkpt lat="42.201529" lon="23.590796"><ele>2320.8</ele><time>2026-04-05T07:51:40.000Z</time></trkpt>
<trkpt lat="42.201526" lon="23.590793"><ele>2320.8</ele><time>2026-04-05T07:51:41.000Z</time></trkpt>
<trkpt lat="42.201523" lon="23.590791"><ele>2320.8</ele><time>2026-04-05T07:51:42.000Z</time></trkpt>
<trkpt lat="42.201522" lon="23.59079"><ele>2320.8</ele><time>2026-04-05T07:51:43.000Z</time></trkpt>
<trkpt lat="42.201521" lon="23.59079"><ele>2321.4</ele><time>2026-04-05T07:51:44.000Z</time></trkpt>
<trkpt lat="42.20152" lon="23.59079"><ele>2321.4</ele><time>2026-04-05T07:51:45.000Z</time></trkpt>
<trkpt lat="42.201519" lon="23.590791"><ele>2321.4</ele><time>2026-04-05T07:51:46.000Z</time></trkpt>
<trkpt lat="42.201518" lon="23.590791"><ele>2321.4</ele><time>2026-04-05T07:51:47.000Z</time></trkpt>
<trkpt lat="42.201518" lon="23.590792"><ele>2321.4</ele><time>2026-04-05T07:51:48.000Z</time></trkpt>
<trkpt lat="42.201517" lon="23.590793"><ele>2321.8</ele><time>2026-04-05T07:51:49.000Z</time></trkpt>
<trkpt lat="42.201517" lon="23.590793"><ele>2321.8</ele><time>2026-04-05T07:51:50.000Z</time></trkpt>
<trkpt lat="42.201517" lon="23.590793"><ele>2321.8</ele><time>2026-04-05T07:51:51.000Z</time></trkpt>
<trkpt lat="42.201517" lon="23.590793"><ele>2321.8</ele><time>2026-04-05T07:51:52.000Z</time></trkpt>
<trkpt lat="42.201516" lon="23.590793"><ele>2321.8</ele><time>2026-04-05T07:51:53.000Z</time></trkpt>
<trkpt lat="42.201513" lon="23.590792"><ele>2322.4</ele><time>2026-04-05T07:51:54.000Z</time></trkpt>
<trkpt lat="42.20151" lon="23.590791"><ele>2322.4</ele><time>2026-04-05T07:51:55.000Z</time></trkpt>
<trkpt lat="42.201506" lon="23.590789"><ele>2322.4</ele><time>2026-04-05T07:51:56.000Z</time></trkpt>
<trkpt lat="42.201501" lon="23.590787"><ele>2322.4</ele><time>2026-04-05T07:51:57.000Z</time></trkpt>
<trkpt lat="42.201496" lon="23.590786"><ele>2322.4</ele><time>2026-04-05T07:51:58.000Z</time></trkpt>
<trkpt lat="42.201491" lon="23.590784"><ele>2322.8</ele><time>2026-04-05T07:51:59.000Z</time></trkpt>
<trkpt lat="42.201486" lon="23.590782"><ele>2322.8</ele><time>2026-04-05T07:52:00.000Z</time></trkpt>
<trkpt lat="42.20148" lon="23.590781"><ele>2322.8</ele><time>2026-04-05T07:52:01.000Z</time></trkpt>
<trkpt lat="42.201475" lon="23.59078"><ele>2322.8</ele><time>2026-04-05T07:52:02.000Z</time></trkpt>
<trkpt lat="42.20147" lon="23.590778"><ele>2322.8</ele><time>2026-04-05T07:52:03.000Z</time></trkpt>
<trkpt lat="42.201466" lon="23.590776"><ele>2322.9</ele><time>2026-04-05T07:52:04.000Z</time></trkpt>
<trkpt lat="42.201462" lon="23.590775"><ele>2322.9</ele><time>2026-04-05T07:52:05.000Z</time></trkpt>
<trkpt lat="42.201458" lon="23.590772"><ele>2322.9</ele><time>2026-04-05T07:52:06.000Z</time></trkpt>
<trkpt lat="42.201455" lon="23.590769"><ele>2322.9</ele><time>2026-04-05T07:52:07.000Z</time></trkpt>
<trkpt lat="42.201454" lon="23.590767"><ele>2322.9</ele><time>2026-04-05T07:52:08.000Z</time></trkpt>
<trkpt lat="42.201453" lon="23.590765"><ele>2323.4</ele><time>2026-04-05T07:52:09.000Z</time></trkpt>
<trkpt lat="42.201453" lon="23.590764"><ele>2323.4</ele><time>2026-04-05T07:52:10.000Z</time></trkpt>
<trkpt lat="42.201453" lon="23.590764"><ele>2323.4</ele><time>2026-04-05T07:52:11.000Z</time></trkpt>
<trkpt lat="42.201453" lon="23.590765"><ele>2323.4</ele><time>2026-04-05T07:52:12.000Z</time></trkpt>
<trkpt lat="42.201453" lon="23.590765"><ele>2323.4</ele><time>2026-04-05T07:52:13.000Z</time></trkpt>
<trkpt lat="42.201452" lon="23.590765"><ele>2324.1</ele><time>2026-04-05T07:52:14.000Z</time></trkpt>
<trkpt lat="42.201452" lon="23.590766"><ele>2324.1</ele><time>2026-04-05T07:52:15.000Z</time></trkpt>
<trkpt lat="42.201452" lon="23.590766"><ele>2324.1</ele><time>2026-04-05T07:52:16.000Z</time></trkpt>
<trkpt lat="42.201452" lon="23.590767"><ele>2324.1</ele><time>2026-04-05T07:52:17.000Z</time></trkpt>
<trkpt lat="42.201452" lon="23.590768"><ele>2324.1</ele><time>2026-04-05T07:52:18.000Z</time></trkpt>
<trkpt lat="42.201452" lon="23.590769"><ele>2324.4</ele><time>2026-04-05T07:52:19.000Z</time></trkpt>
<trkpt lat="42.201451" lon="23.59077"><ele>2324.4</ele><time>2026-04-05T07:52:20.000Z</time></trkpt>
<trkpt lat="42.201451" lon="23.590771"><ele>2324.4</ele><time>2026-04-05T07:52:21.000Z</time></trkpt>
<trkpt lat="42.201451" lon="23.590772"><ele>2324.4</ele><time>2026-04-05T07:52:22.000Z</time></trkpt>
<trkpt lat="42.201451" lon="23.590772"><ele>2324.4</ele><time>2026-04-05T07:52:23.000Z</time></trkpt>
<trkpt lat="42.20145" lon="23.590774"><ele>2324.7</ele><time>2026-04-05T07:52:24.000Z</time></trkpt>
<trkpt lat="42.201449" lon="23.590775"><ele>2324.7</ele><time>2026-04-05T07:52:25.000Z</time></trkpt>
<trkpt lat="42.201448" lon="23.590777"><ele>2324.7</ele><time>2026-04-05T07:52:26.000Z</time></trkpt>
<trkpt lat="42.201447" lon="23.590779"><ele>2324.7</ele><time>2026-04-05T07:52:27.000Z</time></trkpt>
<trkpt lat="42.201447" lon="23.590781"><ele>2324.7</ele><time>2026-04-05T07:52:28.000Z</time></trkpt>
<trkpt lat="42.201446" lon="23.590782"><ele>2324.8</ele><time>2026-04-05T07:52:29.000Z</time></trkpt>
<trkpt lat="42.201446" lon="23.590783"><ele>2324.8</ele><time>2026-04-05T07:52:30.000Z</time></trkpt>
<trkpt lat="42.201445" lon="23.590784"><ele>2324.8</ele><time>2026-04-05T07:52:31.000Z</time></trkpt>
<trkpt lat="42.201445" lon="23.590784"><ele>2324.8</ele><time>2026-04-05T07:52:32.000Z</time></trkpt>
<trkpt lat="42.201445" lon="23.590785"><ele>2324.8</ele><time>2026-04-05T07:52:33.000Z</time></trkpt>
<trkpt lat="42.201444" lon="23.590785"><ele>2324.8</ele><time>2026-04-05T07:52:34.000Z</time></trkpt>
<trkpt lat="42.201444" lon="23.590785"><ele>2324.8</ele><time>2026-04-05T07:52:35.000Z</time></trkpt>
<trkpt lat="42.201443" lon="23.590786"><ele>2324.8</ele><time>2026-04-05T07:52:36.000Z</time></trkpt>
<trkpt lat="42.201442" lon="23.590786"><ele>2324.8</ele><time>2026-04-05T07:52:37.000Z</time></trkpt>
<trkpt lat="42.201441" lon="23.590787"><ele>2324.8</ele><time>2026-04-05T07:52:38.000Z</time></trkpt>
<trkpt lat="42.201441" lon="23.590787"><ele>2324.8</ele><time>2026-04-05T07:52:39.000Z</time></trkpt>
<trkpt lat="42.20144" lon="23.590787"><ele>2324.8</ele><time>2026-04-05T07:52:40.000Z</time></trkpt>
<trkpt lat="42.20144" lon="23.590786"><ele>2324.8</ele><time>2026-04-05T07:52:41.000Z</time></trkpt>
<trkpt lat="42.20144" lon="23.590785"><ele>2324.8</ele><time>2026-04-05T07:52:42.000Z</time></trkpt>
<trkpt lat="42.20144" lon="23.590784"><ele>2324.8</ele><time>2026-04-05T07:52:43.000Z</time></trkpt>
<trkpt lat="42.20144" lon="23.590783"><ele>2324.7</ele><time>2026-04-05T07:52:44.000Z</time></trkpt>
<trkpt lat="42.201439" lon="23.590782"><ele>2324.7</ele><time>2026-04-05T07:52:45.000Z</time></trkpt>
<trkpt lat="42.201439" lon="23.590781"><ele>2324.7</ele><time>2026-04-05T07:52:46.000Z</time></trkpt>
<trkpt lat="42.201438" lon="23.590781"><ele>2324.7</ele><time>2026-04-05T07:52:47.000Z</time></trkpt>
<trkpt lat="42.201438" lon="23.590781"><ele>2324.7</ele><time>2026-04-05T07:52:48.000Z</time></trkpt>
<trkpt lat="42.201438" lon="23.590781"><ele>2324.7</ele><time>2026-04-05T07:52:49.000Z</time></trkpt>
<trkpt lat="42.201438" lon="23.590781"><ele>2324.7</ele><time>2026-04-05T07:52:50.000Z</time></trkpt>
<trkpt lat="42.201438" lon="23.590781"><ele>2324.7</ele><time>2026-04-05T07:52:51.000Z</time></trkpt>
<trkpt lat="42.201439" lon="23.59078"><ele>2324.7</ele><time>2026-04-05T07:52:52.000Z</time></trkpt>
<trkpt lat="42.201439" lon="23.59078"><ele>2324.7</ele><time>2026-04-05T07:52:53.000Z</time></trkpt>
<trkpt lat="42.20144" lon="23.59078"><ele>2324.7</ele><time>2026-04-05T07:52:54.000Z</time></trkpt>
<trkpt lat="42.201441" lon="23.590779"><ele>2324.7</ele><time>2026-04-05T07:52:55.000Z</time></trkpt>
<trkpt lat="42.201441" lon="23.590779"><ele>2324.7</ele><time>2026-04-05T07:52:56.000Z</time></trkpt>
<trkpt lat="42.201442" lon="23.590779"><ele>2324.7</ele><time>2026-04-05T07:52:57.000Z</time></trkpt>
<trkpt lat="42.201442" lon="23.590779"><ele>2324.7</ele><time>2026-04-05T07:52:58.000Z</time></trkpt>
<trkpt lat="42.201442" lon="23.590779"><ele>2324.9</ele><time>2026-04-05T07:52:59.000Z</time></trkpt>
<trkpt lat="42.201443" lon="23.590779"><ele>2324.9</ele><time>2026-04-05T07:53:00.000Z</time></trkpt>
<trkpt lat="42.201443" lon="23.590779"><ele>2324.9</ele><time>2026-04-05T07:53:01.000Z</time></trkpt>
<trkpt lat="42.201443" lon="23.590779"><ele>2324.9</ele><time>2026-04-05T07:53:02.000Z</time></trkpt>
<trkpt lat="42.201443" lon="23.590779"><ele>2324.9</ele><time>2026-04-05T07:53:03.000Z</time></trkpt>
<trkpt lat="42.201443" lon="23.590779"><ele>2324.9</ele><time>2026-04-05T07:53:04.000Z</time></trkpt>
<trkpt lat="42.201443" lon="23.590779"><ele>2324.9</ele><time>2026-04-05T07:53:05.000Z</time></trkpt>
<trkpt lat="42.201442" lon="23.590779"><ele>2324.9</ele><time>2026-04-05T07:53:06.000Z</time></trkpt>
<trkpt lat="42.201442" lon="23.590779"><ele>2324.9</ele><time>2026-04-05T07:53:07.000Z</time></trkpt>
<trkpt lat="42.201441" lon="23.590778"><ele>2324.9</ele><time>2026-04-05T07:53:08.000Z</time></trkpt>
<trkpt lat="42.201441" lon="23.590778"><ele>2324.8</ele><time>2026-04-05T07:53:09.000Z</time></trkpt>
<trkpt lat="42.201441" lon="23.590779"><ele>2324.8</ele><time>2026-04-05T07:53:10.000Z</time></trkpt>
<trkpt lat="42.201441" lon="23.59078"><ele>2324.8</ele><time>2026-04-05T07:53:11.000Z</time></trkpt>
<trkpt lat="42.20144" lon="23.590781"><ele>2324.8</ele><time>2026-04-05T07:53:12.000Z</time></trkpt>
<trkpt lat="42.20144" lon="23.590782"><ele>2324.8</ele><time>2026-04-05T07:53:13.000Z</time></trkpt>
<trkpt lat="42.201439" lon="23.590782"><ele>2324.6</ele><time>2026-04-05T07:53:14.000Z</time></trkpt>
<trkpt lat="42.201439" lon="23.590782"><ele>2324.6</ele><time>2026-04-05T07:53:15.000Z</time></trkpt>
<trkpt lat="42.201438" lon="23.590783"><ele>2324.6</ele><time>2026-04-05T07:53:16.000Z</time></trkpt>
<trkpt lat="42.201438" lon="23.590783"><ele>2324.6</ele><time>2026-04-05T07:53:17.000Z</time></trkpt>
<trkpt lat="42.201438" lon="23.590783"><ele>2324.6</ele><time>2026-04-05T07:53:18.000Z</time></trkpt>
<trkpt lat="42.201438" lon="23.590783"><ele>2324.6</ele><time>2026-04-05T07:53:19.000Z</time></trkpt>
<trkpt lat="42.201438" lon="23.590783"><ele>2324.6</ele><time>2026-04-05T07:53:20.000Z</time></trkpt>
<trkpt lat="42.201438" lon="23.590783"><ele>2324.6</ele><time>2026-04-05T07:53:21.000Z</time></trkpt>
<trkpt lat="42.201438" lon="23.590783"><ele>2324.6</ele><time>2026-04-05T07:53:22.000Z</time></trkpt>
<trkpt lat="42.201438" lon="23.590783"><ele>2324.6</ele><time>2026-04-05T07:53:23.000Z</time></trkpt>
<trkpt lat="42.201438" lon="23.590783"><ele>2324.7</ele><time>2026-04-05T07:53:24.000Z</time></trkpt>
<trkpt lat="42.201438" lon="23.590783"><ele>2324.7</ele><time>2026-04-05T07:53:25.000Z</time></trkpt>
<trkpt lat="42.201437" lon="23.590784"><ele>2324.7</ele><time>2026-04-05T07:53:26.000Z</time></trkpt>
<trkpt lat="42.201436" lon="23.590784"><ele>2324.7</ele><time>2026-04-05T07:53:27.000Z</time></trkpt>
<trkpt lat="42.201435" lon="23.590785"><ele>2324.7</ele><time>2026-04-05T07:53:28.000Z</time></trkpt>
<trkpt lat="42.201434" lon="23.590785"><ele>2324.8</ele><time>2026-04-05T07:53:29.000Z</time></trkpt>
<trkpt lat="42.201434" lon="23.590786"><ele>2324.8</ele><time>2026-04-05T07:53:30.000Z</time></trkpt>
<trkpt lat="42.201434" lon="23.590786"><ele>2324.8</ele><time>2026-04-05T07:53:31.000Z</time></trkpt>
<trkpt lat="42.201435" lon="23.590787"><ele>2324.8</ele><time>2026-04-05T07:53:32.000Z</time></trkpt>
<trkpt lat="42.201435" lon="23.590787"><ele>2324.8</ele><time>2026-04-05T07:53:33.000Z</time></trkpt>
<trkpt lat="42.201435" lon="23.590788"><ele>2324.9</ele><time>2026-04-05T07:53:34.000Z</time></trkpt>
<trkpt lat="42.201435" lon="23.590789"><ele>2324.9</ele><time>2026-04-05T07:53:35.000Z</time></trkpt>
<trkpt lat="42.201435" lon="23.590789"><ele>2324.9</ele><time>2026-04-05T07:53:36.000Z</time></trkpt>
<trkpt lat="42.201435" lon="23.590789"><ele>2324.9</ele><time>2026-04-05T07:53:37.000Z</time></trkpt>
<trkpt lat="42.201435" lon="23.590789"><ele>2324.9</ele><time>2026-04-05T07:53:38.000Z</time></trkpt>
<trkpt lat="42.201435" lon="23.590788"><ele>2324.9</ele><time>2026-04-05T07:53:39.000Z</time></trkpt>
<trkpt lat="42.201435" lon="23.590787"><ele>2324.9</ele><time>2026-04-05T07:53:40.000Z</time></trkpt>
<trkpt lat="42.201435" lon="23.590787"><ele>2324.9</ele><time>2026-04-05T07:53:41.000Z</time></trkpt>
<trkpt lat="42.201436" lon="23.590787"><ele>2324.9</ele><time>2026-04-05T07:53:42.000Z</time></trkpt>
<trkpt lat="42.201436" lon="23.590786"><ele>2324.9</ele><time>2026-04-05T07:53:43.000Z</time></trkpt>
<trkpt lat="42.201436" lon="23.590786"><ele>2324.7</ele><time>2026-04-05T07:53:44.000Z</time></trkpt>
<trkpt lat="42.201436" lon="23.590787"><ele>2324.7</ele><time>2026-04-05T07:53:45.000Z</time></trkpt>
<trkpt lat="42.201436" lon="23.590787"><ele>2324.7</ele><time>2026-04-05T07:53:46.000Z</time></trkpt>
<trkpt lat="42.201436" lon="23.590787"><ele>2324.7</ele><time>2026-04-05T07:53:47.000Z</time></trkpt>
<trkpt lat="42.201436" lon="23.590788"><ele>2324.7</ele><time>2026-04-05T07:53:48.000Z</time></trkpt>
<trkpt lat="42.201436" lon="23.590788"><ele>2324.5</ele><time>2026-04-05T07:53:49.000Z</time></trkpt>
<trkpt lat="42.201436" lon="23.590788"><ele>2324.5</ele><time>2026-04-05T07:53:50.000Z</time></trkpt>
<trkpt lat="42.201437" lon="23.590788"><ele>2324.5</ele><time>2026-04-05T07:53:51.000Z</time></trkpt>
<trkpt lat="42.201437" lon="23.590788"><ele>2324.5</ele><time>2026-04-05T07:53:52.000Z</time></trkpt>
<trkpt lat="42.201437" lon="23.590788"><ele>2324.5</ele><time>2026-04-05T07:53:53.000Z</time></trkpt>
<trkpt lat="42.201437" lon="23.590788"><ele>2324.1</ele><time>2026-04-05T07:53:54.000Z</time></trkpt>
<trkpt lat="42.201437" lon="23.590788"><ele>2324.1</ele><time>2026-04-05T07:53:55.000Z</time></trkpt>
<trkpt lat="42.201437" lon="23.590788"><ele>2324.1</ele><time>2026-04-05T07:53:56.000Z</time></trkpt>
<trkpt lat="42.201437" lon="23.590788"><ele>2324.1</ele><time>2026-04-05T07:53:57.000Z</time></trkpt>
<trkpt lat="42.201437" lon="23.590788"><ele>2324.1</ele><time>2026-04-05T07:53:58.000Z</time></trkpt>
<trkpt lat="42.201438" lon="23.590787"><ele>2324</ele><time>2026-04-05T07:53:59.000Z</time></trkpt>
<trkpt lat="42.201438" lon="23.590787"><ele>2324</ele><time>2026-04-05T07:54:00.000Z</time></trkpt>
<trkpt lat="42.201439" lon="23.590786"><ele>2324</ele><time>2026-04-05T07:54:01.000Z</time></trkpt>
<trkpt lat="42.201439" lon="23.590785"><ele>2324</ele><time>2026-04-05T07:54:02.000Z</time></trkpt>
<trkpt lat="42.201439" lon="23.590784"><ele>2324</ele><time>2026-04-05T07:54:03.000Z</time></trkpt>
<trkpt lat="42.201439" lon="23.590784"><ele>2324.1</ele><time>2026-04-05T07:54:04.000Z</time></trkpt>
<trkpt lat="42.201439" lon="23.590783"><ele>2324.1</ele><time>2026-04-05T07:54:05.000Z</time></trkpt>
<trkpt lat="42.201438" lon="23.590783"><ele>2324.1</ele><time>2026-04-05T07:54:06.000Z</time></trkpt>
<trkpt lat="42.201438" lon="23.590783"><ele>2324.1</ele><time>2026-04-05T07:54:07.000Z</time></trkpt>
<trkpt lat="42.201437" lon="23.590783"><ele>2324.1</ele><time>2026-04-05T07:54:08.000Z</time></trkpt>
<trkpt lat="42.201437" lon="23.590783"><ele>2324.3</ele><time>2026-04-05T07:54:09.000Z</time></trkpt>
<trkpt lat="42.201436" lon="23.590783"><ele>2324.3</ele><time>2026-04-05T07:54:10.000Z</time></trkpt>
<trkpt lat="42.201434" lon="23.590783"><ele>2324.3</ele><time>2026-04-05T07:54:11.000Z</time></trkpt>
<trkpt lat="42.201432" lon="23.590784"><ele>2324.3</ele><time>2026-04-05T07:54:12.000Z</time></trkpt>
<trkpt lat="42.20143" lon="23.590784"><ele>2324.3</ele><time>2026-04-05T07:54:13.000Z</time></trkpt>
<trkpt lat="42.201428" lon="23.590784"><ele>2324.3</ele><time>2026-04-05T07:54:14.000Z</time></trkpt>
<trkpt lat="42.201427" lon="23.590784"><ele>2324.3</ele><time>2026-04-05T07:54:15.000Z</time></trkpt>
<trkpt lat="42.201426" lon="23.590784"><ele>2324.3</ele><time>2026-04-05T07:54:16.000Z</time></trkpt>
<trkpt lat="42.201424" lon="23.590783"><ele>2324.3</ele><time>2026-04-05T07:54:17.000Z</time></trkpt>
<trkpt lat="42.201421" lon="23.590783"><ele>2324.3</ele><time>2026-04-05T07:54:18.000Z</time></trkpt>
<trkpt lat="42.201418" lon="23.590783"><ele>2324.3</ele><time>2026-04-05T07:54:19.000Z</time></trkpt>
<trkpt lat="42.201415" lon="23.590783"><ele>2324.3</ele><time>2026-04-05T07:54:20.000Z</time></trkpt>
<trkpt lat="42.201413" lon="23.590784"><ele>2324.3</ele><time>2026-04-05T07:54:21.000Z</time></trkpt>
<trkpt lat="42.201412" lon="23.590785"><ele>2324.3</ele><time>2026-04-05T07:54:22.000Z</time></trkpt>
<trkpt lat="42.201412" lon="23.590785"><ele>2324.3</ele><time>2026-04-05T07:54:23.000Z</time></trkpt>
<trkpt lat="42.201412" lon="23.590786"><ele>2324.3</ele><time>2026-04-05T07:54:24.000Z</time></trkpt>
<trkpt lat="42.201412" lon="23.590787"><ele>2324.3</ele><time>2026-04-05T07:54:25.000Z</time></trkpt>
<trkpt lat="42.201412" lon="23.590787"><ele>2324.3</ele><time>2026-04-05T07:54:26.000Z</time></trkpt>
<trkpt lat="42.201412" lon="23.590787"><ele>2324.3</ele><time>2026-04-05T07:54:27.000Z</time></trkpt>
<trkpt lat="42.201412" lon="23.590787"><ele>2324.3</ele><time>2026-04-05T07:54:28.000Z</time></trkpt>
<trkpt lat="42.201412" lon="23.590786"><ele>2324.5</ele><time>2026-04-05T07:54:29.000Z</time></trkpt>
<trkpt lat="42.201412" lon="23.590786"><ele>2324.5</ele><time>2026-04-05T07:54:30.000Z</time></trkpt>
<trkpt lat="42.201412" lon="23.590786"><ele>2324.5</ele><time>2026-04-05T07:54:31.000Z</time></trkpt>
<trkpt lat="42.201412" lon="23.590786"><ele>2324.5</ele><time>2026-04-05T07:54:32.000Z</time></trkpt>
<trkpt lat="42.201412" lon="23.590786"><ele>2324.5</ele><time>2026-04-05T07:54:33.000Z</time></trkpt>
<trkpt lat="42.201412" lon="23.590786"><ele>2324.6</ele><time>2026-04-05T07:54:34.000Z</time></trkpt>
<trkpt lat="42.201412" lon="23.590786"><ele>2324.6</ele><time>2026-04-05T07:54:35.000Z</time></trkpt>
<trkpt lat="42.201412" lon="23.590786"><ele>2324.6</ele><time>2026-04-05T07:54:36.000Z</time></trkpt>
<trkpt lat="42.201412" lon="23.590786"><ele>2324.6</ele><time>2026-04-05T07:54:37.000Z</time></trkpt>
<trkpt lat="42.201412" lon="23.590786"><ele>2324.6</ele><time>2026-04-05T07:54:38.000Z</time></trkpt>
<trkpt lat="42.201412" lon="23.590786"><ele>2324.8</ele><time>2026-04-05T07:54:39.000Z</time></trkpt>
<trkpt lat="42.201412" lon="23.590786"><ele>2324.8</ele><time>2026-04-05T07:54:40.000Z</time></trkpt>
<trkpt lat="42.201412" lon="23.590786"><ele>2324.8</ele><time>2026-04-05T07:54:41.000Z</time></trkpt>
<trkpt lat="42.201412" lon="23.590786"><ele>2324.8</ele><time>2026-04-05T07:54:42.000Z</time></trkpt>
<trkpt lat="42.201412" lon="23.590786"><ele>2324.8</ele><time>2026-04-05T07:54:43.000Z</time></trkpt>
<trkpt lat="42.201412" lon="23.590786"><ele>2324.8</ele><time>2026-04-05T07:54:44.000Z</time></trkpt>
<trkpt lat="42.201411" lon="23.590788"><ele>2324.8</ele><time>2026-04-05T07:54:45.000Z</time></trkpt>
<trkpt lat="42.20141" lon="23.590789"><ele>2324.8</ele><time>2026-04-05T07:54:46.000Z</time></trkpt>
<trkpt lat="42.20141" lon="23.590791"><ele>2324.8</ele><time>2026-04-05T07:54:47.000Z</time></trkpt>
<trkpt lat="42.201409" lon="23.590792"><ele>2324.8</ele><time>2026-04-05T07:54:48.000Z</time></trkpt>
<trkpt lat="42.201408" lon="23.590793"><ele>2324.8</ele><time>2026-04-05T07:54:49.000Z</time></trkpt>
<trkpt lat="42.201408" lon="23.590793"><ele>2324.8</ele><time>2026-04-05T07:54:50.000Z</time></trkpt>
<trkpt lat="42.201407" lon="23.590793"><ele>2324.8</ele><time>2026-04-05T07:54:51.000Z</time></trkpt>
<trkpt lat="42.201404" lon="23.590792"><ele>2324.8</ele><time>2026-04-05T07:54:52.000Z</time></trkpt>
<trkpt lat="42.201401" lon="23.59079"><ele>2324.8</ele><time>2026-04-05T07:54:53.000Z</time></trkpt>
<trkpt lat="42.201396" lon="23.590788"><ele>2324.7</ele><time>2026-04-05T07:54:54.000Z</time></trkpt>
<trkpt lat="42.201393" lon="23.590784"><ele>2324.7</ele><time>2026-04-05T07:54:55.000Z</time></trkpt>
<trkpt lat="42.20139" lon="23.590781"><ele>2324.7</ele><time>2026-04-05T07:54:56.000Z</time></trkpt>
<trkpt lat="42.201389" lon="23.590778"><ele>2324.7</ele><time>2026-04-05T07:54:57.000Z</time></trkpt>
<trkpt lat="42.201389" lon="23.590777"><ele>2324.7</ele><time>2026-04-05T07:54:58.000Z</time></trkpt>
<trkpt lat="42.201389" lon="23.590776"><ele>2324.6</ele><time>2026-04-05T07:54:59.000Z</time></trkpt>
<trkpt lat="42.201388" lon="23.590776"><ele>2324.6</ele><time>2026-04-05T07:55:00.000Z</time></trkpt>
<trkpt lat="42.201387" lon="23.590777"><ele>2324.6</ele><time>2026-04-05T07:55:01.000Z</time></trkpt>
<trkpt lat="42.201385" lon="23.590776"><ele>2324.6</ele><time>2026-04-05T07:55:02.000Z</time></trkpt>
<trkpt lat="42.201381" lon="23.590775"><ele>2324.6</ele><time>2026-04-05T07:55:03.000Z</time></trkpt>
<trkpt lat="42.201376" lon="23.590773"><ele>2324.7</ele><time>2026-04-05T07:55:04.000Z</time></trkpt>
<trkpt lat="42.201369" lon="23.59077"><ele>2324.7</ele><time>2026-04-05T07:55:05.000Z</time></trkpt>
<trkpt lat="42.201362" lon="23.590767"><ele>2324.7</ele><time>2026-04-05T07:55:06.000Z</time></trkpt>
<trkpt lat="42.201354" lon="23.590764"><ele>2324.7</ele><time>2026-04-05T07:55:07.000Z</time></trkpt>
<trkpt lat="42.201346" lon="23.59076"><ele>2324.7</ele><time>2026-04-05T07:55:08.000Z</time></trkpt>
<trkpt lat="42.201338" lon="23.590756"><ele>2324.9</ele><time>2026-04-05T07:55:09.000Z</time></trkpt>
<trkpt lat="42.201331" lon="23.590751"><ele>2324.9</ele><time>2026-04-05T07:55:10.000Z</time></trkpt>
<trkpt lat="42.201325" lon="23.590744"><ele>2324.9</ele><time>2026-04-05T07:55:11.000Z</time></trkpt>
<trkpt lat="42.201319" lon="23.590737"><ele>2324.9</ele><time>2026-04-05T07:55:12.000Z</time></trkpt>
<trkpt lat="42.201313" lon="23.590731"><ele>2324.9</ele><time>2026-04-05T07:55:13.000Z</time></trkpt>
<trkpt lat="42.201307" lon="23.590724"><ele>2325.5</ele><time>2026-04-05T07:55:14.000Z</time></trkpt>
<trkpt lat="42.2013" lon="23.590717"><ele>2325.5</ele><time>2026-04-05T07:55:15.000Z</time></trkpt>
<trkpt lat="42.201292" lon="23.590712"><ele>2325.5</ele><time>2026-04-05T07:55:16.000Z</time></trkpt>
<trkpt lat="42.201284" lon="23.590706"><ele>2325.5</ele><time>2026-04-05T07:55:17.000Z</time></trkpt>
<trkpt lat="42.201275" lon="23.590701"><ele>2325.5</ele><time>2026-04-05T07:55:18.000Z</time></trkpt>
<trkpt lat="42.201267" lon="23.590696"><ele>2325.9</ele><time>2026-04-05T07:55:19.000Z</time></trkpt>
<trkpt lat="42.201259" lon="23.59069"><ele>2325.9</ele><time>2026-04-05T07:55:20.000Z</time></trkpt>
<trkpt lat="42.201252" lon="23.590686"><ele>2325.9</ele><time>2026-04-05T07:55:21.000Z</time></trkpt>
<trkpt lat="42.201245" lon="23.590682"><ele>2325.9</ele><time>2026-04-05T07:55:22.000Z</time></trkpt>
<trkpt lat="42.201238" lon="23.590678"><ele>2325.9</ele><time>2026-04-05T07:55:23.000Z</time></trkpt>
<trkpt lat="42.201231" lon="23.590675"><ele>2326.9</ele><time>2026-04-05T07:55:24.000Z</time></trkpt>
<trkpt lat="42.201224" lon="23.590672"><ele>2326.9</ele><time>2026-04-05T07:55:25.000Z</time></trkpt>
<trkpt lat="42.201217" lon="23.590669"><ele>2326.9</ele><time>2026-04-05T07:55:26.000Z</time></trkpt>
<trkpt lat="42.201209" lon="23.590666"><ele>2326.9</ele><time>2026-04-05T07:55:27.000Z</time></trkpt>
<trkpt lat="42.201201" lon="23.590662"><ele>2326.9</ele><time>2026-04-05T07:55:28.000Z</time></trkpt>
<trkpt lat="42.201194" lon="23.59066"><ele>2328.2</ele><time>2026-04-05T07:55:29.000Z</time></trkpt>
<trkpt lat="42.201187" lon="23.590656"><ele>2328.2</ele><time>2026-04-05T07:55:30.000Z</time></trkpt>
<trkpt lat="42.20118" lon="23.590652"><ele>2328.2</ele><time>2026-04-05T07:55:31.000Z</time></trkpt>
<trkpt lat="42.201173" lon="23.590649"><ele>2328.2</ele><time>2026-04-05T07:55:32.000Z</time></trkpt>
<trkpt lat="42.201167" lon="23.590644"><ele>2328.2</ele><time>2026-04-05T07:55:33.000Z</time></trkpt>
<trkpt lat="42.20116" lon="23.59064"><ele>2328.8</ele><time>2026-04-05T07:55:34.000Z</time></trkpt>
<trkpt lat="42.201154" lon="23.590636"><ele>2328.8</ele><time>2026-04-05T07:55:35.000Z</time></trkpt>
<trkpt lat="42.201147" lon="23.590632"><ele>2328.8</ele><time>2026-04-05T07:55:36.000Z</time></trkpt>
<trkpt lat="42.20114" lon="23.590628"><ele>2328.8</ele><time>2026-04-05T07:55:37.000Z</time></trkpt>
<trkpt lat="42.201134" lon="23.590625"><ele>2328.8</ele><time>2026-04-05T07:55:38.000Z</time></trkpt>
<trkpt lat="42.201128" lon="23.590621"><ele>2329.8</ele><time>2026-04-05T07:55:39.000Z</time></trkpt>
<trkpt lat="42.201121" lon="23.590618"><ele>2329.8</ele><time>2026-04-05T07:55:40.000Z</time></trkpt>
<trkpt lat="42.201116" lon="23.590617"><ele>2329.8</ele><time>2026-04-05T07:55:41.000Z</time></trkpt>
<trkpt lat="42.20111" lon="23.590617"><ele>2329.8</ele><time>2026-04-05T07:55:42.000Z</time></trkpt>
<trkpt lat="42.201104" lon="23.590615"><ele>2329.8</ele><time>2026-04-05T07:55:43.000Z</time></trkpt>
<trkpt lat="42.201099" lon="23.590614"><ele>2330.6</ele><time>2026-04-05T07:55:44.000Z</time></trkpt>
<trkpt lat="42.201095" lon="23.590611"><ele>2330.6</ele><time>2026-04-05T07:55:45.000Z</time></trkpt>
<trkpt lat="42.201089" lon="23.590608"><ele>2330.6</ele><time>2026-04-05T07:55:46.000Z</time></trkpt>
<trkpt lat="42.201084" lon="23.590605"><ele>2330.6</ele><time>2026-04-05T07:55:47.000Z</time></trkpt>
<trkpt lat="42.201078" lon="23.590603"><ele>2330.6</ele><time>2026-04-05T07:55:48.000Z</time></trkpt>
<trkpt lat="42.201072" lon="23.5906"><ele>2330.9</ele><time>2026-04-05T07:55:49.000Z</time></trkpt>
<trkpt lat="42.201067" lon="23.590599"><ele>2330.9</ele><time>2026-04-05T07:55:50.000Z</time></trkpt>
<trkpt lat="42.201061" lon="23.590597"><ele>2330.9</ele><time>2026-04-05T07:55:51.000Z</time></trkpt>
<trkpt lat="42.201055" lon="23.590593"><ele>2330.9</ele><time>2026-04-05T07:55:52.000Z</time></trkpt>
<trkpt lat="42.201051" lon="23.590591"><ele>2330.9</ele><time>2026-04-05T07:55:53.000Z</time></trkpt>
<trkpt lat="42.201046" lon="23.590588"><ele>2331.6</ele><time>2026-04-05T07:55:54.000Z</time></trkpt>
<trkpt lat="42.201041" lon="23.590584"><ele>2331.6</ele><time>2026-04-05T07:55:55.000Z</time></trkpt>
<trkpt lat="42.201035" lon="23.590582"><ele>2331.6</ele><time>2026-04-05T07:55:56.000Z</time></trkpt>
<trkpt lat="42.20103" lon="23.590579"><ele>2331.6</ele><time>2026-04-05T07:55:57.000Z</time></trkpt>
<trkpt lat="42.201024" lon="23.590577"><ele>2331.6</ele><time>2026-04-05T07:55:58.000Z</time></trkpt>
<trkpt lat="42.201019" lon="23.590573"><ele>2332.4</ele><time>2026-04-05T07:55:59.000Z</time></trkpt>
<trkpt lat="42.201014" lon="23.590571"><ele>2332.4</ele><time>2026-04-05T07:56:00.000Z</time></trkpt>
<trkpt lat="42.20101" lon="23.590566"><ele>2332.4</ele><time>2026-04-05T07:56:01.000Z</time></trkpt>
<trkpt lat="42.201005" lon="23.590562"><ele>2332.4</ele><time>2026-04-05T07:56:02.000Z</time></trkpt>
<trkpt lat="42.201001" lon="23.590557"><ele>2332.4</ele><time>2026-04-05T07:56:03.000Z</time></trkpt>
<trkpt lat="42.200996" lon="23.590553"><ele>2332.9</ele><time>2026-04-05T07:56:04.000Z</time></trkpt>
<trkpt lat="42.20099" lon="23.59055"><ele>2332.9</ele><time>2026-04-05T07:56:05.000Z</time></trkpt>
<trkpt lat="42.200986" lon="23.590547"><ele>2332.9</ele><time>2026-04-05T07:56:06.000Z</time></trkpt>
<trkpt lat="42.200981" lon="23.590543"><ele>2332.9</ele><time>2026-04-05T07:56:07.000Z</time></trkpt>
<trkpt lat="42.200976" lon="23.590539"><ele>2332.9</ele><time>2026-04-05T07:56:08.000Z</time></trkpt>
<trkpt lat="42.200971" lon="23.590536"><ele>2333.9</ele><time>2026-04-05T07:56:09.000Z</time></trkpt>
<trkpt lat="42.200967" lon="23.59053"><ele>2333.9</ele><time>2026-04-05T07:56:10.000Z</time></trkpt>
<trkpt lat="42.200961" lon="23.590525"><ele>2333.9</ele><time>2026-04-05T07:56:11.000Z</time></trkpt>
<trkpt lat="42.200957" lon="23.590521"><ele>2333.9</ele><time>2026-04-05T07:56:12.000Z</time></trkpt>
<trkpt lat="42.200951" lon="23.590517"><ele>2333.9</ele><time>2026-04-05T07:56:13.000Z</time></trkpt>
<trkpt lat="42.200946" lon="23.590512"><ele>2334.8</ele><time>2026-04-05T07:56:14.000Z</time></trkpt>
<trkpt lat="42.200941" lon="23.590507"><ele>2334.8</ele><time>2026-04-05T07:56:15.000Z</time></trkpt>
<trkpt lat="42.200936" lon="23.590502"><ele>2334.8</ele><time>2026-04-05T07:56:16.000Z</time></trkpt>
<trkpt lat="42.20093" lon="23.590498"><ele>2334.8</ele><time>2026-04-05T07:56:17.000Z</time></trkpt>
<trkpt lat="42.200925" lon="23.590495"><ele>2334.8</ele><time>2026-04-05T07:56:18.000Z</time></trkpt>
<trkpt lat="42.200919" lon="23.590491"><ele>2335.3</ele><time>2026-04-05T07:56:19.000Z</time></trkpt>
<trkpt lat="42.200912" lon="23.59049"><ele>2335.3</ele><time>2026-04-05T07:56:20.000Z</time></trkpt>
<trkpt lat="42.200905" lon="23.590488"><ele>2335.3</ele><time>2026-04-05T07:56:21.000Z</time></trkpt>
<trkpt lat="42.200899" lon="23.590485"><ele>2335.3</ele><time>2026-04-05T07:56:22.000Z</time></trkpt>
<trkpt lat="42.200892" lon="23.590479"><ele>2335.3</ele><time>2026-04-05T07:56:23.000Z</time></trkpt>
<trkpt lat="42.200886" lon="23.590475"><ele>2336.2</ele><time>2026-04-05T07:56:24.000Z</time></trkpt>
<trkpt lat="42.20088" lon="23.590469"><ele>2336.2</ele><time>2026-04-05T07:56:25.000Z</time></trkpt>
<trkpt lat="42.200874" lon="23.590466"><ele>2336.2</ele><time>2026-04-05T07:56:26.000Z</time></trkpt>
<trkpt lat="42.200868" lon="23.590464"><ele>2336.2</ele><time>2026-04-05T07:56:27.000Z</time></trkpt>
<trkpt lat="42.200861" lon="23.590461"><ele>2336.2</ele><time>2026-04-05T07:56:28.000Z</time></trkpt>
<trkpt lat="42.200855" lon="23.590458"><ele>2337.2</ele><time>2026-04-05T07:56:29.000Z</time></trkpt>
<trkpt lat="42.200851" lon="23.590456"><ele>2337.2</ele><time>2026-04-05T07:56:30.000Z</time></trkpt>
<trkpt lat="42.200847" lon="23.590452"><ele>2337.2</ele><time>2026-04-05T07:56:31.000Z</time></trkpt>
<trkpt lat="42.200844" lon="23.590448"><ele>2337.2</ele><time>2026-04-05T07:56:32.000Z</time></trkpt>
<trkpt lat="42.200843" lon="23.590445"><ele>2337.2</ele><time>2026-04-05T07:56:33.000Z</time></trkpt>
<trkpt lat="42.200841" lon="23.590443"><ele>2337.7</ele><time>2026-04-05T07:56:34.000Z</time></trkpt>
<trkpt lat="42.200838" lon="23.59044"><ele>2337.7</ele><time>2026-04-05T07:56:35.000Z</time></trkpt>
<trkpt lat="42.200835" lon="23.590439"><ele>2337.7</ele><time>2026-04-05T07:56:36.000Z</time></trkpt>
<trkpt lat="42.200831" lon="23.590438"><ele>2337.7</ele><time>2026-04-05T07:56:37.000Z</time></trkpt>
<trkpt lat="42.200827" lon="23.590437"><ele>2337.7</ele><time>2026-04-05T07:56:38.000Z</time></trkpt>
<trkpt lat="42.200821" lon="23.590436"><ele>2338.8</ele><time>2026-04-05T07:56:39.000Z</time></trkpt>
<trkpt lat="42.200815" lon="23.590436"><ele>2338.8</ele><time>2026-04-05T07:56:40.000Z</time></trkpt>
<trkpt lat="42.200807" lon="23.590434"><ele>2338.8</ele><time>2026-04-05T07:56:41.000Z</time></trkpt>
<trkpt lat="42.2008" lon="23.590432"><ele>2338.8</ele><time>2026-04-05T07:56:42.000Z</time></trkpt>
<trkpt lat="42.200793" lon="23.59043"><ele>2338.8</ele><time>2026-04-05T07:56:43.000Z</time></trkpt>
<trkpt lat="42.200787" lon="23.590427"><ele>2339.7</ele><time>2026-04-05T07:56:44.000Z</time></trkpt>
<trkpt lat="42.200781" lon="23.590422"><ele>2339.7</ele><time>2026-04-05T07:56:45.000Z</time></trkpt>
<trkpt lat="42.200776" lon="23.590419"><ele>2339.7</ele><time>2026-04-05T07:56:46.000Z</time></trkpt>
<trkpt lat="42.20077" lon="23.590415"><ele>2339.7</ele><time>2026-04-05T07:56:47.000Z</time></trkpt>
<trkpt lat="42.200764" lon="23.590411"><ele>2339.7</ele><time>2026-04-05T07:56:48.000Z</time></trkpt>
<trkpt lat="42.200759" lon="23.590408"><ele>2340.1</ele><time>2026-04-05T07:56:49.000Z</time></trkpt>
<trkpt lat="42.200754" lon="23.590408"><ele>2340.1</ele><time>2026-04-05T07:56:50.000Z</time></trkpt>
<trkpt lat="42.200749" lon="23.590406"><ele>2340.1</ele><time>2026-04-05T07:56:51.000Z</time></trkpt>
<trkpt lat="42.200743" lon="23.590404"><ele>2340.1</ele><time>2026-04-05T07:56:52.000Z</time></trkpt>
<trkpt lat="42.200738" lon="23.590402"><ele>2340.1</ele><time>2026-04-05T07:56:53.000Z</time></trkpt>
<trkpt lat="42.200732" lon="23.590399"><ele>2340.9</ele><time>2026-04-05T07:56:54.000Z</time></trkpt>
<trkpt lat="42.200726" lon="23.590396"><ele>2340.9</ele><time>2026-04-05T07:56:55.000Z</time></trkpt>
<trkpt lat="42.20072" lon="23.590392"><ele>2340.9</ele><time>2026-04-05T07:56:56.000Z</time></trkpt>
<trkpt lat="42.200715" lon="23.590388"><ele>2340.9</ele><time>2026-04-05T07:56:57.000Z</time></trkpt>
<trkpt lat="42.200709" lon="23.590383"><ele>2340.9</ele><time>2026-04-05T07:56:58.000Z</time></trkpt>
<trkpt lat="42.200703" lon="23.590379"><ele>2341.6</ele><time>2026-04-05T07:56:59.000Z</time></trkpt>
<trkpt lat="42.200697" lon="23.590375"><ele>2341.6</ele><time>2026-04-05T07:57:00.000Z</time></trkpt>
<trkpt lat="42.20069" lon="23.590371"><ele>2341.6</ele><time>2026-04-05T07:57:01.000Z</time></trkpt>
<trkpt lat="42.200683" lon="23.590367"><ele>2341.6</ele><time>2026-04-05T07:57:02.000Z</time></trkpt>
<trkpt lat="42.200678" lon="23.590363"><ele>2341.6</ele><time>2026-04-05T07:57:03.000Z</time></trkpt>
<trkpt lat="42.200672" lon="23.59036"><ele>2341.9</ele><time>2026-04-05T07:57:04.000Z</time></trkpt>
<trkpt lat="42.200666" lon="23.590356"><ele>2341.9</ele><time>2026-04-05T07:57:05.000Z</time></trkpt>
<trkpt lat="42.20066" lon="23.590353"><ele>2341.9</ele><time>2026-04-05T07:57:06.000Z</time></trkpt>
<trkpt lat="42.200655" lon="23.590349"><ele>2341.9</ele><time>2026-04-05T07:57:07.000Z</time></trkpt>
<trkpt lat="42.20065" lon="23.590346"><ele>2341.9</ele><time>2026-04-05T07:57:08.000Z</time></trkpt>
<trkpt lat="42.200644" lon="23.590343"><ele>2342.7</ele><time>2026-04-05T07:57:09.000Z</time></trkpt>
<trkpt lat="42.200639" lon="23.590339"><ele>2342.7</ele><time>2026-04-05T07:57:10.000Z</time></trkpt>
<trkpt lat="42.200633" lon="23.590334"><ele>2342.7</ele><time>2026-04-05T07:57:11.000Z</time></trkpt>
<trkpt lat="42.200628" lon="23.59033"><ele>2342.7</ele><time>2026-04-05T07:57:12.000Z</time></trkpt>
<trkpt lat="42.200622" lon="23.590326"><ele>2342.7</ele><time>2026-04-05T07:57:13.000Z</time></trkpt>
<trkpt lat="42.200616" lon="23.590322"><ele>2343.5</ele><time>2026-04-05T07:57:14.000Z</time></trkpt>
<trkpt lat="42.200611" lon="23.590319"><ele>2343.5</ele><time>2026-04-05T07:57:15.000Z</time></trkpt>
<trkpt lat="42.200605" lon="23.590318"><ele>2343.5</ele><time>2026-04-05T07:57:16.000Z</time></trkpt>
<trkpt lat="42.200599" lon="23.590316"><ele>2343.5</ele><time>2026-04-05T07:57:17.000Z</time></trkpt>
<trkpt lat="42.200593" lon="23.590315"><ele>2343.5</ele><time>2026-04-05T07:57:18.000Z</time></trkpt>
<trkpt lat="42.200588" lon="23.590314"><ele>2343.9</ele><time>2026-04-05T07:57:19.000Z</time></trkpt>
<trkpt lat="42.200583" lon="23.590312"><ele>2343.9</ele><time>2026-04-05T07:57:20.000Z</time></trkpt>
<trkpt lat="42.200578" lon="23.590309"><ele>2343.9</ele><time>2026-04-05T07:57:21.000Z</time></trkpt>
<trkpt lat="42.200575" lon="23.590306"><ele>2343.9</ele><time>2026-04-05T07:57:22.000Z</time></trkpt>
<trkpt lat="42.20057" lon="23.590302"><ele>2343.9</ele><time>2026-04-05T07:57:23.000Z</time></trkpt>
<trkpt lat="42.200564" lon="23.590298"><ele>2344.8</ele><time>2026-04-05T07:57:24.000Z</time></trkpt>
<trkpt lat="42.200558" lon="23.590295"><ele>2344.8</ele><time>2026-04-05T07:57:25.000Z</time></trkpt>
<trkpt lat="42.200552" lon="23.590293"><ele>2344.8</ele><time>2026-04-05T07:57:26.000Z</time></trkpt>
<trkpt lat="42.200545" lon="23.590291"><ele>2344.8</ele><time>2026-04-05T07:57:27.000Z</time></trkpt>
<trkpt lat="42.20054" lon="23.590288"><ele>2344.8</ele><time>2026-04-05T07:57:28.000Z</time></trkpt>
<trkpt lat="42.200536" lon="23.590284"><ele>2345.7</ele><time>2026-04-05T07:57:29.000Z</time></trkpt>
<trkpt lat="42.200531" lon="23.590281"><ele>2345.7</ele><time>2026-04-05T07:57:30.000Z</time></trkpt>
<trkpt lat="42.200527" lon="23.590277"><ele>2345.7</ele><time>2026-04-05T07:57:31.000Z</time></trkpt>
<trkpt lat="42.200522" lon="23.590274"><ele>2345.7</ele><time>2026-04-05T07:57:32.000Z</time></trkpt>
<trkpt lat="42.200516" lon="23.59027"><ele>2345.7</ele><time>2026-04-05T07:57:33.000Z</time></trkpt>
<trkpt lat="42.200508" lon="23.590266"><ele>2346.2</ele><time>2026-04-05T07:57:34.000Z</time></trkpt>
<trkpt lat="42.200502" lon="23.590262"><ele>2346.2</ele><time>2026-04-05T07:57:35.000Z</time></trkpt>
<trkpt lat="42.200495" lon="23.590259"><ele>2346.2</ele><time>2026-04-05T07:57:36.000Z</time></trkpt>
<trkpt lat="42.200488" lon="23.590254"><ele>2346.2</ele><time>2026-04-05T07:57:37.000Z</time></trkpt>
<trkpt lat="42.200482" lon="23.59025"><ele>2346.2</ele><time>2026-04-05T07:57:38.000Z</time></trkpt>
<trkpt lat="42.200477" lon="23.590246"><ele>2347.2</ele><time>2026-04-05T07:57:39.000Z</time></trkpt>
<trkpt lat="42.200471" lon="23.590242"><ele>2347.2</ele><time>2026-04-05T07:57:40.000Z</time></trkpt>
<trkpt lat="42.200465" lon="23.590237"><ele>2347.2</ele><time>2026-04-05T07:57:41.000Z</time></trkpt>
<trkpt lat="42.200461" lon="23.590233"><ele>2347.2</ele><time>2026-04-05T07:57:42.000Z</time></trkpt>
<trkpt lat="42.200456" lon="23.590229"><ele>2347.2</ele><time>2026-04-05T07:57:43.000Z</time></trkpt>
<trkpt lat="42.200449" lon="23.590225"><ele>2348.2</ele><time>2026-04-05T07:57:44.000Z</time></trkpt>
<trkpt lat="42.200444" lon="23.590222"><ele>2348.2</ele><time>2026-04-05T07:57:45.000Z</time></trkpt>
<trkpt lat="42.200439" lon="23.590219"><ele>2348.2</ele><time>2026-04-05T07:57:46.000Z</time></trkpt>
<trkpt lat="42.200434" lon="23.590215"><ele>2348.2</ele><time>2026-04-05T07:57:47.000Z</time></trkpt>
<trkpt lat="42.20043" lon="23.590211"><ele>2348.2</ele><time>2026-04-05T07:57:48.000Z</time></trkpt>
<trkpt lat="42.200425" lon="23.590206"><ele>2348.7</ele><time>2026-04-05T07:57:49.000Z</time></trkpt>
<trkpt lat="42.200421" lon="23.590201"><ele>2348.7</ele><time>2026-04-05T07:57:50.000Z</time></trkpt>
<trkpt lat="42.200416" lon="23.590196"><ele>2348.7</ele><time>2026-04-05T07:57:51.000Z</time></trkpt>
<trkpt lat="42.20041" lon="23.590192"><ele>2348.7</ele><time>2026-04-05T07:57:52.000Z</time></trkpt>
<trkpt lat="42.200403" lon="23.590189"><ele>2348.7</ele><time>2026-04-05T07:57:53.000Z</time></trkpt>
<trkpt lat="42.200398" lon="23.590186"><ele>2349.5</ele><time>2026-04-05T07:57:54.000Z</time></trkpt>
<trkpt lat="42.200391" lon="23.590183"><ele>2349.5</ele><time>2026-04-05T07:57:55.000Z</time></trkpt>
<trkpt lat="42.200385" lon="23.590179"><ele>2349.5</ele><time>2026-04-05T07:57:56.000Z</time></trkpt>
<trkpt lat="42.20038" lon="23.590176"><ele>2349.5</ele><time>2026-04-05T07:57:57.000Z</time></trkpt>
<trkpt lat="42.200373" lon="23.590173"><ele>2349.5</ele><time>2026-04-05T07:57:58.000Z</time></trkpt>
<trkpt lat="42.200367" lon="23.590168"><ele>2349.9</ele><time>2026-04-05T07:57:59.000Z</time></trkpt>
<trkpt lat="42.200361" lon="23.590165"><ele>2349.9</ele><time>2026-04-05T07:58:00.000Z</time></trkpt>
<trkpt lat="42.200354" lon="23.590162"><ele>2349.9</ele><time>2026-04-05T07:58:01.000Z</time></trkpt>
<trkpt lat="42.200348" lon="23.590157"><ele>2349.9</ele><time>2026-04-05T07:58:02.000Z</time></trkpt>
<trkpt lat="42.200343" lon="23.590153"><ele>2349.9</ele><time>2026-04-05T07:58:03.000Z</time></trkpt>
<trkpt lat="42.200338" lon="23.590149"><ele>2350.1</ele><time>2026-04-05T07:58:04.000Z</time></trkpt>
<trkpt lat="42.200333" lon="23.590145"><ele>2350.1</ele><time>2026-04-05T07:58:05.000Z</time></trkpt>
<trkpt lat="42.200329" lon="23.590141"><ele>2350.1</ele><time>2026-04-05T07:58:06.000Z</time></trkpt>
<trkpt lat="42.200324" lon="23.590138"><ele>2350.1</ele><time>2026-04-05T07:58:07.000Z</time></trkpt>
<trkpt lat="42.20032" lon="23.590135"><ele>2350.1</ele><time>2026-04-05T07:58:08.000Z</time></trkpt>
<trkpt lat="42.200315" lon="23.590133"><ele>2350.6</ele><time>2026-04-05T07:58:09.000Z</time></trkpt>
<trkpt lat="42.200309" lon="23.590132"><ele>2350.6</ele><time>2026-04-05T07:58:10.000Z</time></trkpt>
<trkpt lat="42.200302" lon="23.590128"><ele>2350.6</ele><time>2026-04-05T07:58:11.000Z</time></trkpt>
<trkpt lat="42.200297" lon="23.590125"><ele>2350.6</ele><time>2026-04-05T07:58:12.000Z</time></trkpt>
<trkpt lat="42.200291" lon="23.590121"><ele>2350.6</ele><time>2026-04-05T07:58:13.000Z</time></trkpt>
<trkpt lat="42.200285" lon="23.590116"><ele>2351.4</ele><time>2026-04-05T07:58:14.000Z</time></trkpt>
<trkpt lat="42.200279" lon="23.590111"><ele>2351.4</ele><time>2026-04-05T07:58:15.000Z</time></trkpt>
<trkpt lat="42.200274" lon="23.590106"><ele>2351.4</ele><time>2026-04-05T07:58:16.000Z</time></trkpt>
<trkpt lat="42.200269" lon="23.590101"><ele>2351.4</ele><time>2026-04-05T07:58:17.000Z</time></trkpt>
<trkpt lat="42.200264" lon="23.590096"><ele>2351.4</ele><time>2026-04-05T07:58:18.000Z</time></trkpt>
<trkpt lat="42.20026" lon="23.590093"><ele>2351.8</ele><time>2026-04-05T07:58:19.000Z</time></trkpt>
<trkpt lat="42.200257" lon="23.590089"><ele>2351.8</ele><time>2026-04-05T07:58:20.000Z</time></trkpt>
<trkpt lat="42.200253" lon="23.590087"><ele>2351.8</ele><time>2026-04-05T07:58:21.000Z</time></trkpt>
<trkpt lat="42.200249" lon="23.590085"><ele>2351.8</ele><time>2026-04-05T07:58:22.000Z</time></trkpt>
<trkpt lat="42.200244" lon="23.590082"><ele>2351.8</ele><time>2026-04-05T07:58:23.000Z</time></trkpt>
<trkpt lat="42.20024" lon="23.59008"><ele>2352.5</ele><time>2026-04-05T07:58:24.000Z</time></trkpt>
<trkpt lat="42.200235" lon="23.590077"><ele>2352.5</ele><time>2026-04-05T07:58:25.000Z</time></trkpt>
<trkpt lat="42.200229" lon="23.590073"><ele>2352.5</ele><time>2026-04-05T07:58:26.000Z</time></trkpt>
<trkpt lat="42.200223" lon="23.590069"><ele>2352.5</ele><time>2026-04-05T07:58:27.000Z</time></trkpt>
<trkpt lat="42.200218" lon="23.590066"><ele>2352.5</ele><time>2026-04-05T07:58:28.000Z</time></trkpt>
<trkpt lat="42.200212" lon="23.590062"><ele>2353</ele><time>2026-04-05T07:58:29.000Z</time></trkpt>
<trkpt lat="42.200205" lon="23.590056"><ele>2353</ele><time>2026-04-05T07:58:30.000Z</time></trkpt>
<trkpt lat="42.200199" lon="23.590052"><ele>2353</ele><time>2026-04-05T07:58:31.000Z</time></trkpt>
<trkpt lat="42.200193" lon="23.590046"><ele>2353</ele><time>2026-04-05T07:58:32.000Z</time></trkpt>
<trkpt lat="42.200187" lon="23.590041"><ele>2353</ele><time>2026-04-05T07:58:33.000Z</time></trkpt>
<trkpt lat="42.20018" lon="23.590037"><ele>2353.3</ele><time>2026-04-05T07:58:34.000Z</time></trkpt>
<trkpt lat="42.200173" lon="23.590034"><ele>2353.3</ele><time>2026-04-05T07:58:35.000Z</time></trkpt>
<trkpt lat="42.200166" lon="23.590031"><ele>2353.3</ele><time>2026-04-05T07:58:36.000Z</time></trkpt>
<trkpt lat="42.200158" lon="23.590029"><ele>2353.3</ele><time>2026-04-05T07:58:37.000Z</time></trkpt>
<trkpt lat="42.20015" lon="23.590027"><ele>2353.3</ele><time>2026-04-05T07:58:38.000Z</time></trkpt>
<trkpt lat="42.200141" lon="23.590024"><ele>2354</ele><time>2026-04-05T07:58:39.000Z</time></trkpt>
<trkpt lat="42.200134" lon="23.59002"><ele>2354</ele><time>2026-04-05T07:58:40.000Z</time></trkpt>
<trkpt lat="42.200127" lon="23.590018"><ele>2354</ele><time>2026-04-05T07:58:41.000Z</time></trkpt>
<trkpt lat="42.200119" lon="23.590014"><ele>2354</ele><time>2026-04-05T07:58:42.000Z</time></trkpt>
<trkpt lat="42.200111" lon="23.59001"><ele>2354</ele><time>2026-04-05T07:58:43.000Z</time></trkpt>
<trkpt lat="42.200103" lon="23.590008"><ele>2354.8</ele><time>2026-04-05T07:58:44.000Z</time></trkpt>
<trkpt lat="42.200097" lon="23.590005"><ele>2354.8</ele><time>2026-04-05T07:58:45.000Z</time></trkpt>
<trkpt lat="42.200089" lon="23.590002"><ele>2354.8</ele><time>2026-04-05T07:58:46.000Z</time></trkpt>
<trkpt lat="42.200082" lon="23.589999"><ele>2354.8</ele><time>2026-04-05T07:58:47.000Z</time></trkpt>
<trkpt lat="42.200075" lon="23.589996"><ele>2354.8</ele><time>2026-04-05T07:58:48.000Z</time></trkpt>
<trkpt lat="42.200069" lon="23.589993"><ele>2355.1</ele><time>2026-04-05T07:58:49.000Z</time></trkpt>
<trkpt lat="42.200061" lon="23.589989"><ele>2355.1</ele><time>2026-04-05T07:58:50.000Z</time></trkpt>
<trkpt lat="42.200055" lon="23.589986"><ele>2355.1</ele><time>2026-04-05T07:58:51.000Z</time></trkpt>
<trkpt lat="42.200048" lon="23.589982"><ele>2355.1</ele><time>2026-04-05T07:58:52.000Z</time></trkpt>
<trkpt lat="42.200041" lon="23.589978"><ele>2355.1</ele><time>2026-04-05T07:58:53.000Z</time></trkpt>
<trkpt lat="42.200034" lon="23.589975"><ele>2355.8</ele><time>2026-04-05T07:58:54.000Z</time></trkpt>
<trkpt lat="42.200026" lon="23.589972"><ele>2355.8</ele><time>2026-04-05T07:58:55.000Z</time></trkpt>
<trkpt lat="42.200019" lon="23.589968"><ele>2355.8</ele><time>2026-04-05T07:58:56.000Z</time></trkpt>
<trkpt lat="42.200012" lon="23.589964"><ele>2355.8</ele><time>2026-04-05T07:58:57.000Z</time></trkpt>
<trkpt lat="42.200006" lon="23.589961"><ele>2355.8</ele><time>2026-04-05T07:58:58.000Z</time></trkpt>
<trkpt lat="42.2" lon="23.589958"><ele>2356.6</ele><time>2026-04-05T07:58:59.000Z</time></trkpt>
<trkpt lat="42.199995" lon="23.589955"><ele>2356.6</ele><time>2026-04-05T07:59:00.000Z</time></trkpt>
<trkpt lat="42.199988" lon="23.58995"><ele>2356.6</ele><time>2026-04-05T07:59:01.000Z</time></trkpt>
<trkpt lat="42.19998" lon="23.589946"><ele>2356.6</ele><time>2026-04-05T07:59:02.000Z</time></trkpt>
<trkpt lat="42.199973" lon="23.589941"><ele>2356.6</ele><time>2026-04-05T07:59:03.000Z</time></trkpt>
<trkpt lat="42.199965" lon="23.589936"><ele>2357</ele><time>2026-04-05T07:59:04.000Z</time></trkpt>
<trkpt lat="42.199957" lon="23.589932"><ele>2357</ele><time>2026-04-05T07:59:05.000Z</time></trkpt>
<trkpt lat="42.19995" lon="23.589928"><ele>2357</ele><time>2026-04-05T07:59:06.000Z</time></trkpt>
<trkpt lat="42.199943" lon="23.589924"><ele>2357</ele><time>2026-04-05T07:59:07.000Z</time></trkpt>
<trkpt lat="42.199937" lon="23.589919"><ele>2357</ele><time>2026-04-05T07:59:08.000Z</time></trkpt>
<trkpt lat="42.19993" lon="23.589913"><ele>2357.7</ele><time>2026-04-05T07:59:09.000Z</time></trkpt>
<trkpt lat="42.199925" lon="23.589909"><ele>2357.7</ele><time>2026-04-05T07:59:10.000Z</time></trkpt>
<trkpt lat="42.19992" lon="23.589904"><ele>2357.7</ele><time>2026-04-05T07:59:11.000Z</time></trkpt>
<trkpt lat="42.199917" lon="23.589901"><ele>2357.7</ele><time>2026-04-05T07:59:12.000Z</time></trkpt>
<trkpt lat="42.199915" lon="23.589899"><ele>2357.7</ele><time>2026-04-05T07:59:13.000Z</time></trkpt>
<trkpt lat="42.199914" lon="23.589897"><ele>2358.5</ele><time>2026-04-05T07:59:14.000Z</time></trkpt>
<trkpt lat="42.199915" lon="23.589895"><ele>2358.5</ele><time>2026-04-05T07:59:15.000Z</time></trkpt>
<trkpt lat="42.199917" lon="23.589894"><ele>2358.5</ele><time>2026-04-05T07:59:16.000Z</time></trkpt>
<trkpt lat="42.199918" lon="23.589892"><ele>2358.5</ele><time>2026-04-05T07:59:17.000Z</time></trkpt>
<trkpt lat="42.19992" lon="23.589891"><ele>2358.5</ele><time>2026-04-05T07:59:18.000Z</time></trkpt>
<trkpt lat="42.19992" lon="23.589891"><ele>2358.8</ele><time>2026-04-05T07:59:19.000Z</time></trkpt>
<trkpt lat="42.19992" lon="23.589891"><ele>2358.8</ele><time>2026-04-05T07:59:20.000Z</time></trkpt>
<trkpt lat="42.19992" lon="23.589891"><ele>2358.8</ele><time>2026-04-05T07:59:21.000Z</time></trkpt>
<trkpt lat="42.19992" lon="23.589891"><ele>2358.8</ele><time>2026-04-05T07:59:22.000Z</time></trkpt>
<trkpt lat="42.19992" lon="23.589891"><ele>2358.8</ele><time>2026-04-05T07:59:23.000Z</time></trkpt>
<trkpt lat="42.19992" lon="23.589891"><ele>2359.4</ele><time>2026-04-05T07:59:24.000Z</time></trkpt>
<trkpt lat="42.19992" lon="23.589891"><ele>2359.4</ele><time>2026-04-05T07:59:25.000Z</time></trkpt>
<trkpt lat="42.19992" lon="23.589891"><ele>2359.4</ele><time>2026-04-05T07:59:26.000Z</time></trkpt>
<trkpt lat="42.19992" lon="23.58989"><ele>2359.4</ele><time>2026-04-05T07:59:27.000Z</time></trkpt>
<trkpt lat="42.19992" lon="23.58989"><ele>2359.4</ele><time>2026-04-05T07:59:28.000Z</time></trkpt>
<trkpt lat="42.19992" lon="23.589889"><ele>2359.6</ele><time>2026-04-05T07:59:29.000Z</time></trkpt>
<trkpt lat="42.19992" lon="23.589888"><ele>2359.6</ele><time>2026-04-05T07:59:30.000Z</time></trkpt>
<trkpt lat="42.19992" lon="23.589887"><ele>2359.6</ele><time>2026-04-05T07:59:31.000Z</time></trkpt>
<trkpt lat="42.19992" lon="23.589887"><ele>2359.6</ele><time>2026-04-05T07:59:32.000Z</time></trkpt>
<trkpt lat="42.19992" lon="23.589887"><ele>2359.6</ele><time>2026-04-05T07:59:33.000Z</time></trkpt>
<trkpt lat="42.19992" lon="23.589888"><ele>2359.6</ele><time>2026-04-05T07:59:34.000Z</time></trkpt>
<trkpt lat="42.199919" lon="23.589889"><ele>2359.6</ele><time>2026-04-05T07:59:35.000Z</time></trkpt>
<trkpt lat="42.19992" lon="23.589889"><ele>2359.6</ele><time>2026-04-05T07:59:36.000Z</time></trkpt>
<trkpt lat="42.19992" lon="23.58989"><ele>2359.6</ele><time>2026-04-05T07:59:37.000Z</time></trkpt>
<trkpt lat="42.19992" lon="23.58989"><ele>2359.6</ele><time>2026-04-05T07:59:38.000Z</time></trkpt>
<trkpt lat="42.199919" lon="23.589889"><ele>2359.5</ele><time>2026-04-05T07:59:39.000Z</time></trkpt>
<trkpt lat="42.199916" lon="23.589888"><ele>2359.5</ele><time>2026-04-05T07:59:40.000Z</time></trkpt>
<trkpt lat="42.199912" lon="23.589886"><ele>2359.5</ele><time>2026-04-05T07:59:41.000Z</time></trkpt>
<trkpt lat="42.199907" lon="23.589884"><ele>2359.5</ele><time>2026-04-05T07:59:42.000Z</time></trkpt>
<trkpt lat="42.1999" lon="23.589881"><ele>2359.5</ele><time>2026-04-05T07:59:43.000Z</time></trkpt>
<trkpt lat="42.199893" lon="23.589878"><ele>2359.6</ele><time>2026-04-05T07:59:44.000Z</time></trkpt>
<trkpt lat="42.199885" lon="23.589875"><ele>2359.6</ele><time>2026-04-05T07:59:45.000Z</time></trkpt>
<trkpt lat="42.199878" lon="23.589871"><ele>2359.6</ele><time>2026-04-05T07:59:46.000Z</time></trkpt>
<trkpt lat="42.199871" lon="23.589866"><ele>2359.6</ele><time>2026-04-05T07:59:47.000Z</time></trkpt>
<trkpt lat="42.199864" lon="23.589861"><ele>2359.6</ele><time>2026-04-05T07:59:48.000Z</time></trkpt>
<trkpt lat="42.199856" lon="23.589856"><ele>2359.7</ele><time>2026-04-05T07:59:49.000Z</time></trkpt>
<trkpt lat="42.199849" lon="23.589851"><ele>2359.7</ele><time>2026-04-05T07:59:50.000Z</time></trkpt>
<trkpt lat="42.199841" lon="23.589846"><ele>2359.7</ele><time>2026-04-05T07:59:51.000Z</time></trkpt>
<trkpt lat="42.199834" lon="23.58984"><ele>2359.7</ele><time>2026-04-05T07:59:52.000Z</time></trkpt>
<trkpt lat="42.199828" lon="23.589835"><ele>2359.7</ele><time>2026-04-05T07:59:53.000Z</time></trkpt>
<trkpt lat="42.199821" lon="23.589829"><ele>2360.1</ele><time>2026-04-05T07:59:54.000Z</time></trkpt>
<trkpt lat="42.199815" lon="23.589824"><ele>2360.1</ele><time>2026-04-05T07:59:55.000Z</time></trkpt>
<trkpt lat="42.199808" lon="23.58982"><ele>2360.1</ele><time>2026-04-05T07:59:56.000Z</time></trkpt>
<trkpt lat="42.199802" lon="23.589816"><ele>2360.1</ele><time>2026-04-05T07:59:57.000Z</time></trkpt>
<trkpt lat="42.199794" lon="23.589812"><ele>2360.1</ele><time>2026-04-05T07:59:58.000Z</time></trkpt>
<trkpt lat="42.199786" lon="23.589808"><ele>2360.8</ele><time>2026-04-05T07:59:59.000Z</time></trkpt>
<trkpt lat="42.199779" lon="23.589803"><ele>2360.8</ele><time>2026-04-05T08:00:00.000Z</time></trkpt>
<trkpt lat="42.199771" lon="23.589797"><ele>2360.8</ele><time>2026-04-05T08:00:01.000Z</time></trkpt>
<trkpt lat="42.199764" lon="23.589791"><ele>2360.8</ele><time>2026-04-05T08:00:02.000Z</time></trkpt>
<trkpt lat="42.199757" lon="23.589785"><ele>2360.8</ele><time>2026-04-05T08:00:03.000Z</time></trkpt>
<trkpt lat="42.19975" lon="23.589779"><ele>2361.2</ele><time>2026-04-05T08:00:04.000Z</time></trkpt>
<trkpt lat="42.199742" lon="23.589774"><ele>2361.2</ele><time>2026-04-05T08:00:05.000Z</time></trkpt>
<trkpt lat="42.199734" lon="23.589768"><ele>2361.2</ele><time>2026-04-05T08:00:06.000Z</time></trkpt>
<trkpt lat="42.199726" lon="23.589763"><ele>2361.2</ele><time>2026-04-05T08:00:07.000Z</time></trkpt>
<trkpt lat="42.199718" lon="23.589758"><ele>2361.2</ele><time>2026-04-05T08:00:08.000Z</time></trkpt>
<trkpt lat="42.199709" lon="23.589753"><ele>2361.8</ele><time>2026-04-05T08:00:09.000Z</time></trkpt>
<trkpt lat="42.1997" lon="23.589749"><ele>2361.8</ele><time>2026-04-05T08:00:10.000Z</time></trkpt>
<trkpt lat="42.199691" lon="23.589745"><ele>2361.8</ele><time>2026-04-05T08:00:11.000Z</time></trkpt>
<trkpt lat="42.199683" lon="23.58974"><ele>2361.8</ele><time>2026-04-05T08:00:12.000Z</time></trkpt>
<trkpt lat="42.199674" lon="23.589734"><ele>2361.8</ele><time>2026-04-05T08:00:13.000Z</time></trkpt>
<trkpt lat="42.199665" lon="23.589728"><ele>2362.2</ele><time>2026-04-05T08:00:14.000Z</time></trkpt>
<trkpt lat="42.199657" lon="23.589721"><ele>2362.2</ele><time>2026-04-05T08:00:15.000Z</time></trkpt>
<trkpt lat="42.199649" lon="23.589714"><ele>2362.2</ele><time>2026-04-05T08:00:16.000Z</time></trkpt>
<trkpt lat="42.199641" lon="23.589707"><ele>2362.2</ele><time>2026-04-05T08:00:17.000Z</time></trkpt>
<trkpt lat="42.199633" lon="23.589701"><ele>2362.2</ele><time>2026-04-05T08:00:18.000Z</time></trkpt>
<trkpt lat="42.199627" lon="23.589695"><ele>2362.3</ele><time>2026-04-05T08:00:19.000Z</time></trkpt>
<trkpt lat="42.199622" lon="23.589688"><ele>2362.3</ele><time>2026-04-05T08:00:20.000Z</time></trkpt>
<trkpt lat="42.199617" lon="23.589683"><ele>2362.3</ele><time>2026-04-05T08:00:21.000Z</time></trkpt>
<trkpt lat="42.199612" lon="23.589677"><ele>2362.3</ele><time>2026-04-05T08:00:22.000Z</time></trkpt>
<trkpt lat="42.199607" lon="23.589671"><ele>2362.3</ele><time>2026-04-05T08:00:23.000Z</time></trkpt>
<trkpt lat="42.199601" lon="23.589666"><ele>2362.5</ele><time>2026-04-05T08:00:24.000Z</time></trkpt>
<trkpt lat="42.199595" lon="23.589661"><ele>2362.5</ele><time>2026-04-05T08:00:25.000Z</time></trkpt>
<trkpt lat="42.19959" lon="23.589657"><ele>2362.5</ele><time>2026-04-05T08:00:26.000Z</time></trkpt>
<trkpt lat="42.199584" lon="23.589652"><ele>2362.5</ele><time>2026-04-05T08:00:27.000Z</time></trkpt>
<trkpt lat="42.199578" lon="23.589646"><ele>2362.5</ele><time>2026-04-05T08:00:28.000Z</time></trkpt>
<trkpt lat="42.199572" lon="23.58964"><ele>2362.9</ele><time>2026-04-05T08:00:29.000Z</time></trkpt>
<trkpt lat="42.199567" lon="23.589634"><ele>2362.9</ele><time>2026-04-05T08:00:30.000Z</time></trkpt>
<trkpt lat="42.199563" lon="23.589628"><ele>2362.9</ele><time>2026-04-05T08:00:31.000Z</time></trkpt>
<trkpt lat="42.199557" lon="23.589621"><ele>2362.9</ele><time>2026-04-05T08:00:32.000Z</time></trkpt>
<trkpt lat="42.199552" lon="23.589614"><ele>2362.9</ele><time>2026-04-05T08:00:33.000Z</time></trkpt>
<trkpt lat="42.199546" lon="23.589609"><ele>2363.2</ele><time>2026-04-05T08:00:34.000Z</time></trkpt>
<trkpt lat="42.19954" lon="23.589603"><ele>2363.2</ele><time>2026-04-05T08:00:35.000Z</time></trkpt>
<trkpt lat="42.199534" lon="23.589597"><ele>2363.2</ele><time>2026-04-05T08:00:36.000Z</time></trkpt>
<trkpt lat="42.19953" lon="23.58959"><ele>2363.2</ele><time>2026-04-05T08:00:37.000Z</time></trkpt>
<trkpt lat="42.199524" lon="23.589583"><ele>2363.2</ele><time>2026-04-05T08:00:38.000Z</time></trkpt>
<trkpt lat="42.19952" lon="23.589576"><ele>2363.8</ele><time>2026-04-05T08:00:39.000Z</time></trkpt>
<trkpt lat="42.199515" lon="23.58957"><ele>2363.8</ele><time>2026-04-05T08:00:40.000Z</time></trkpt>
<trkpt lat="42.199511" lon="23.589562"><ele>2363.8</ele><time>2026-04-05T08:00:41.000Z</time></trkpt>
<trkpt lat="42.199506" lon="23.589555"><ele>2363.8</ele><time>2026-04-05T08:00:42.000Z</time></trkpt>
<trkpt lat="42.199502" lon="23.589547"><ele>2363.8</ele><time>2026-04-05T08:00:43.000Z</time></trkpt>
<trkpt lat="42.199498" lon="23.589539"><ele>2364.4</ele><time>2026-04-05T08:00:44.000Z</time></trkpt>
<trkpt lat="42.199493" lon="23.589532"><ele>2364.4</ele><time>2026-04-05T08:00:45.000Z</time></trkpt>
<trkpt lat="42.199488" lon="23.589526"><ele>2364.4</ele><time>2026-04-05T08:00:46.000Z</time></trkpt>
<trkpt lat="42.199482" lon="23.589521"><ele>2364.4</ele><time>2026-04-05T08:00:47.000Z</time></trkpt>
<trkpt lat="42.199476" lon="23.589518"><ele>2364.4</ele><time>2026-04-05T08:00:48.000Z</time></trkpt>
<trkpt lat="42.199471" lon="23.589514"><ele>2364.7</ele><time>2026-04-05T08:00:49.000Z</time></trkpt>
<trkpt lat="42.199465" lon="23.589509"><ele>2364.7</ele><time>2026-04-05T08:00:50.000Z</time></trkpt>
<trkpt lat="42.19946" lon="23.589503"><ele>2364.7</ele><time>2026-04-05T08:00:51.000Z</time></trkpt>
<trkpt lat="42.199455" lon="23.589497"><ele>2364.7</ele><time>2026-04-05T08:00:52.000Z</time></trkpt>
<trkpt lat="42.19945" lon="23.58949"><ele>2364.7</ele><time>2026-04-05T08:00:53.000Z</time></trkpt>
<trkpt lat="42.199445" lon="23.589483"><ele>2365.6</ele><time>2026-04-05T08:00:54.000Z</time></trkpt>
<trkpt lat="42.19944" lon="23.589475"><ele>2365.6</ele><time>2026-04-05T08:00:55.000Z</time></trkpt>
<trkpt lat="42.199434" lon="23.589469"><ele>2365.6</ele><time>2026-04-05T08:00:56.000Z</time></trkpt>
<trkpt lat="42.199429" lon="23.589461"><ele>2365.6</ele><time>2026-04-05T08:00:57.000Z</time></trkpt>
<trkpt lat="42.199425" lon="23.589453"><ele>2365.6</ele><time>2026-04-05T08:00:58.000Z</time></trkpt>
<trkpt lat="42.19942" lon="23.589446"><ele>2366.6</ele><time>2026-04-05T08:00:59.000Z</time></trkpt>
<trkpt lat="42.199416" lon="23.589439"><ele>2366.6</ele><time>2026-04-05T08:01:00.000Z</time></trkpt>
<trkpt lat="42.199412" lon="23.589432"><ele>2366.6</ele><time>2026-04-05T08:01:01.000Z</time></trkpt>
<trkpt lat="42.199408" lon="23.589425"><ele>2366.6</ele><time>2026-04-05T08:01:02.000Z</time></trkpt>
<trkpt lat="42.199403" lon="23.589418"><ele>2366.6</ele><time>2026-04-05T08:01:03.000Z</time></trkpt>
<trkpt lat="42.199399" lon="23.589411"><ele>2367.1</ele><time>2026-04-05T08:01:04.000Z</time></trkpt>
<trkpt lat="42.199394" lon="23.589404"><ele>2367.1</ele><time>2026-04-05T08:01:05.000Z</time></trkpt>
<trkpt lat="42.199389" lon="23.589397"><ele>2367.1</ele><time>2026-04-05T08:01:06.000Z</time></trkpt>
<trkpt lat="42.199385" lon="23.589389"><ele>2367.1</ele><time>2026-04-05T08:01:07.000Z</time></trkpt>
<trkpt lat="42.19938" lon="23.589383"><ele>2367.1</ele><time>2026-04-05T08:01:08.000Z</time></trkpt>
<trkpt lat="42.199376" lon="23.589376"><ele>2368</ele><time>2026-04-05T08:01:09.000Z</time></trkpt>
<trkpt lat="42.199373" lon="23.589367"><ele>2368</ele><time>2026-04-05T08:01:10.000Z</time></trkpt>
<trkpt lat="42.19937" lon="23.589361"><ele>2368</ele><time>2026-04-05T08:01:11.000Z</time></trkpt>
<trkpt lat="42.199366" lon="23.589354"><ele>2368</ele><time>2026-04-05T08:01:12.000Z</time></trkpt>
<trkpt lat="42.199363" lon="23.589346"><ele>2368</ele><time>2026-04-05T08:01:13.000Z</time></trkpt>
<trkpt lat="42.199358" lon="23.589339"><ele>2368.9</ele><time>2026-04-05T08:01:14.000Z</time></trkpt>
<trkpt lat="42.199354" lon="23.589334"><ele>2368.9</ele><time>2026-04-05T08:01:15.000Z</time></trkpt>
<trkpt lat="42.19935" lon="23.589328"><ele>2368.9</ele><time>2026-04-05T08:01:16.000Z</time></trkpt>
<trkpt lat="42.199346" lon="23.589321"><ele>2368.9</ele><time>2026-04-05T08:01:17.000Z</time></trkpt>
<trkpt lat="42.199342" lon="23.589315"><ele>2368.9</ele><time>2026-04-05T08:01:18.000Z</time></trkpt>
<trkpt lat="42.199339" lon="23.589309"><ele>2369.4</ele><time>2026-04-05T08:01:19.000Z</time></trkpt>
<trkpt lat="42.199334" lon="23.589302"><ele>2369.4</ele><time>2026-04-05T08:01:20.000Z</time></trkpt>
<trkpt lat="42.19933" lon="23.589295"><ele>2369.4</ele><time>2026-04-05T08:01:21.000Z</time></trkpt>
<trkpt lat="42.199326" lon="23.589289"><ele>2369.4</ele><time>2026-04-05T08:01:22.000Z</time></trkpt>
<trkpt lat="42.199322" lon="23.589284"><ele>2369.4</ele><time>2026-04-05T08:01:23.000Z</time></trkpt>
<trkpt lat="42.199318" lon="23.589278"><ele>2370.5</ele><time>2026-04-05T08:01:24.000Z</time></trkpt>
<trkpt lat="42.199314" lon="23.589273"><ele>2370.5</ele><time>2026-04-05T08:01:25.000Z</time></trkpt>
<trkpt lat="42.19931" lon="23.589267"><ele>2370.5</ele><time>2026-04-05T08:01:26.000Z</time></trkpt>
<trkpt lat="42.199307" lon="23.589263"><ele>2370.5</ele><time>2026-04-05T08:01:27.000Z</time></trkpt>
<trkpt lat="42.199303" lon="23.589258"><ele>2370.5</ele><time>2026-04-05T08:01:28.000Z</time></trkpt>
<trkpt lat="42.199301" lon="23.589252"><ele>2371.6</ele><time>2026-04-05T08:01:29.000Z</time></trkpt>
<trkpt lat="42.199298" lon="23.589247"><ele>2371.6</ele><time>2026-04-05T08:01:30.000Z</time></trkpt>
<trkpt lat="42.199296" lon="23.589241"><ele>2371.6</ele><time>2026-04-05T08:01:31.000Z</time></trkpt>
<trkpt lat="42.199293" lon="23.589235"><ele>2371.6</ele><time>2026-04-05T08:01:32.000Z</time></trkpt>
<trkpt lat="42.199291" lon="23.589228"><ele>2371.6</ele><time>2026-04-05T08:01:33.000Z</time></trkpt>
<trkpt lat="42.199288" lon="23.589221"><ele>2372.1</ele><time>2026-04-05T08:01:34.000Z</time></trkpt>
<trkpt lat="42.199285" lon="23.589215"><ele>2372.1</ele><time>2026-04-05T08:01:35.000Z</time></trkpt>
<trkpt lat="42.199283" lon="23.589208"><ele>2372.1</ele><time>2026-04-05T08:01:36.000Z</time></trkpt>
<trkpt lat="42.19928" lon="23.5892"><ele>2372.1</ele><time>2026-04-05T08:01:37.000Z</time></trkpt>
<trkpt lat="42.199277" lon="23.589191"><ele>2372.1</ele><time>2026-04-05T08:01:38.000Z</time></trkpt>
<trkpt lat="42.199274" lon="23.589182"><ele>2373.2</ele><time>2026-04-05T08:01:39.000Z</time></trkpt>
<trkpt lat="42.199271" lon="23.589172"><ele>2373.2</ele><time>2026-04-05T08:01:40.000Z</time></trkpt>
<trkpt lat="42.199268" lon="23.589163"><ele>2373.2</ele><time>2026-04-05T08:01:41.000Z</time></trkpt>
<trkpt lat="42.199266" lon="23.589154"><ele>2373.2</ele><time>2026-04-05T08:01:42.000Z</time></trkpt>
<trkpt lat="42.199264" lon="23.589147"><ele>2373.2</ele><time>2026-04-05T08:01:43.000Z</time></trkpt>
<trkpt lat="42.199261" lon="23.589139"><ele>2374.4</ele><time>2026-04-05T08:01:44.000Z</time></trkpt>
<trkpt lat="42.199259" lon="23.589133"><ele>2374.4</ele><time>2026-04-05T08:01:45.000Z</time></trkpt>
<trkpt lat="42.199256" lon="23.589126"><ele>2374.4</ele><time>2026-04-05T08:01:46.000Z</time></trkpt>
<trkpt lat="42.199253" lon="23.589121"><ele>2374.4</ele><time>2026-04-05T08:01:47.000Z</time></trkpt>
<trkpt lat="42.199251" lon="23.589114"><ele>2374.4</ele><time>2026-04-05T08:01:48.000Z</time></trkpt>
<trkpt lat="42.199249" lon="23.589109"><ele>2375</ele><time>2026-04-05T08:01:49.000Z</time></trkpt>
<trkpt lat="42.199246" lon="23.589104"><ele>2375</ele><time>2026-04-05T08:01:50.000Z</time></trkpt>
<trkpt lat="42.199244" lon="23.589098"><ele>2375</ele><time>2026-04-05T08:01:51.000Z</time></trkpt>
<trkpt lat="42.199241" lon="23.589093"><ele>2375</ele><time>2026-04-05T08:01:52.000Z</time></trkpt>
<trkpt lat="42.199238" lon="23.589088"><ele>2375</ele><time>2026-04-05T08:01:53.000Z</time></trkpt>
<trkpt lat="42.199234" lon="23.589081"><ele>2376.2</ele><time>2026-04-05T08:01:54.000Z</time></trkpt>
<trkpt lat="42.199231" lon="23.589074"><ele>2376.2</ele><time>2026-04-05T08:01:55.000Z</time></trkpt>
<trkpt lat="42.199227" lon="23.589069"><ele>2376.2</ele><time>2026-04-05T08:01:56.000Z</time></trkpt>
<trkpt lat="42.199222" lon="23.589063"><ele>2376.2</ele><time>2026-04-05T08:01:57.000Z</time></trkpt>
<trkpt lat="42.199218" lon="23.589057"><ele>2376.2</ele><time>2026-04-05T08:01:58.000Z</time></trkpt>
<trkpt lat="42.199214" lon="23.589051"><ele>2377.2</ele><time>2026-04-05T08:01:59.000Z</time></trkpt>
<trkpt lat="42.199211" lon="23.589045"><ele>2377.2</ele><time>2026-04-05T08:02:00.000Z</time></trkpt>
<trkpt lat="42.199208" lon="23.589038"><ele>2377.2</ele><time>2026-04-05T08:02:01.000Z</time></trkpt>
<trkpt lat="42.199205" lon="23.589032"><ele>2377.2</ele><time>2026-04-05T08:02:02.000Z</time></trkpt>
<trkpt lat="42.199201" lon="23.589026"><ele>2377.2</ele><time>2026-04-05T08:02:03.000Z</time></trkpt>
<trkpt lat="42.199198" lon="23.589021"><ele>2377.6</ele><time>2026-04-05T08:02:04.000Z</time></trkpt>
<trkpt lat="42.199195" lon="23.589016"><ele>2377.6</ele><time>2026-04-05T08:02:05.000Z</time></trkpt>
<trkpt lat="42.199191" lon="23.589011"><ele>2377.6</ele><time>2026-04-05T08:02:06.000Z</time></trkpt>
<trkpt lat="42.199189" lon="23.589006"><ele>2377.6</ele><time>2026-04-05T08:02:07.000Z</time></trkpt>
<trkpt lat="42.199187" lon="23.589001"><ele>2377.6</ele><time>2026-04-05T08:02:08.000Z</time></trkpt>
<trkpt lat="42.199185" lon="23.588995"><ele>2378.4</ele><time>2026-04-05T08:02:09.000Z</time></trkpt>
<trkpt lat="42.199183" lon="23.58899"><ele>2378.4</ele><time>2026-04-05T08:02:10.000Z</time></trkpt>
<trkpt lat="42.199181" lon="23.588985"><ele>2378.4</ele><time>2026-04-05T08:02:11.000Z</time></trkpt>
<trkpt lat="42.199179" lon="23.58898"><ele>2378.4</ele><time>2026-04-05T08:02:12.000Z</time></trkpt>
<trkpt lat="42.199175" lon="23.588974"><ele>2378.4</ele><time>2026-04-05T08:02:13.000Z</time></trkpt>
<trkpt lat="42.199172" lon="23.588969"><ele>2379.2</ele><time>2026-04-05T08:02:14.000Z</time></trkpt>
<trkpt lat="42.199167" lon="23.588962"><ele>2379.2</ele><time>2026-04-05T08:02:15.000Z</time></trkpt>
<trkpt lat="42.199163" lon="23.588957"><ele>2379.2</ele><time>2026-04-05T08:02:16.000Z</time></trkpt>
<trkpt lat="42.199159" lon="23.588952"><ele>2379.2</ele><time>2026-04-05T08:02:17.000Z</time></trkpt>
<trkpt lat="42.199157" lon="23.588947"><ele>2379.2</ele><time>2026-04-05T08:02:18.000Z</time></trkpt>
<trkpt lat="42.199155" lon="23.588943"><ele>2379.6</ele><time>2026-04-05T08:02:19.000Z</time></trkpt>
<trkpt lat="42.199154" lon="23.588942"><ele>2379.6</ele><time>2026-04-05T08:02:20.000Z</time></trkpt>
<trkpt lat="42.199154" lon="23.58894"><ele>2379.6</ele><time>2026-04-05T08:02:21.000Z</time></trkpt>
<trkpt lat="42.199154" lon="23.58894"><ele>2379.6</ele><time>2026-04-05T08:02:22.000Z</time></trkpt>
<trkpt lat="42.199154" lon="23.588941"><ele>2379.6</ele><time>2026-04-05T08:02:23.000Z</time></trkpt>
<trkpt lat="42.199154" lon="23.588941"><ele>2380.5</ele><time>2026-04-05T08:02:24.000Z</time></trkpt>
<trkpt lat="42.199154" lon="23.588941"><ele>2380.5</ele><time>2026-04-05T08:02:25.000Z</time></trkpt>
<trkpt lat="42.199154" lon="23.588941"><ele>2380.5</ele><time>2026-04-05T08:02:26.000Z</time></trkpt>
<trkpt lat="42.199154" lon="23.588941"><ele>2380.5</ele><time>2026-04-05T08:02:27.000Z</time></trkpt>
<trkpt lat="42.199154" lon="23.588941"><ele>2380.5</ele><time>2026-04-05T08:02:28.000Z</time></trkpt>
<trkpt lat="42.199154" lon="23.588941"><ele>2381.2</ele><time>2026-04-05T08:02:29.000Z</time></trkpt>
<trkpt lat="42.199152" lon="23.588939"><ele>2381.2</ele><time>2026-04-05T08:02:30.000Z</time></trkpt>
<trkpt lat="42.19915" lon="23.588936"><ele>2381.2</ele><time>2026-04-05T08:02:31.000Z</time></trkpt>
<trkpt lat="42.199146" lon="23.588932"><ele>2381.2</ele><time>2026-04-05T08:02:32.000Z</time></trkpt>
<trkpt lat="42.199141" lon="23.588924"><ele>2381.2</ele><time>2026-04-05T08:02:33.000Z</time></trkpt>
<trkpt lat="42.199135" lon="23.588917"><ele>2381.4</ele><time>2026-04-05T08:02:34.000Z</time></trkpt>
<trkpt lat="42.19913" lon="23.58891"><ele>2381.4</ele><time>2026-04-05T08:02:35.000Z</time></trkpt>
<trkpt lat="42.199124" lon="23.588902"><ele>2381.4</ele><time>2026-04-05T08:02:36.000Z</time></trkpt>
<trkpt lat="42.199119" lon="23.588896"><ele>2381.4</ele><time>2026-04-05T08:02:37.000Z</time></trkpt>
<trkpt lat="42.199116" lon="23.588892"><ele>2381.4</ele><time>2026-04-05T08:02:38.000Z</time></trkpt>
<trkpt lat="42.199113" lon="23.588889"><ele>2381.6</ele><time>2026-04-05T08:02:39.000Z</time></trkpt>
<trkpt lat="42.199112" lon="23.588886"><ele>2381.6</ele><time>2026-04-05T08:02:40.000Z</time></trkpt>
<trkpt lat="42.199111" lon="23.588883"><ele>2381.6</ele><time>2026-04-05T08:02:41.000Z</time></trkpt>
<trkpt lat="42.19911" lon="23.588879"><ele>2381.6</ele><time>2026-04-05T08:02:42.000Z</time></trkpt>
<trkpt lat="42.199107" lon="23.588874"><ele>2381.6</ele><time>2026-04-05T08:02:43.000Z</time></trkpt>
<trkpt lat="42.199103" lon="23.588867"><ele>2382.1</ele><time>2026-04-05T08:02:44.000Z</time></trkpt>
<trkpt lat="42.1991" lon="23.58886"><ele>2382.1</ele><time>2026-04-05T08:02:45.000Z</time></trkpt>
<trkpt lat="42.199097" lon="23.588853"><ele>2382.1</ele><time>2026-04-05T08:02:46.000Z</time></trkpt>
<trkpt lat="42.199094" lon="23.588846"><ele>2382.1</ele><time>2026-04-05T08:02:47.000Z</time></trkpt>
<trkpt lat="42.19909" lon="23.588837"><ele>2382.1</ele><time>2026-04-05T08:02:48.000Z</time></trkpt>
<trkpt lat="42.199088" lon="23.588829"><ele>2382.4</ele><time>2026-04-05T08:02:49.000Z</time></trkpt>
<trkpt lat="42.199084" lon="23.58882"><ele>2382.4</ele><time>2026-04-05T08:02:50.000Z</time></trkpt>
<trkpt lat="42.19908" lon="23.58881"><ele>2382.4</ele><time>2026-04-05T08:02:51.000Z</time></trkpt>
<trkpt lat="42.199075" lon="23.588801"><ele>2382.4</ele><time>2026-04-05T08:02:52.000Z</time></trkpt>
<trkpt lat="42.199072" lon="23.588793"><ele>2382.4</ele><time>2026-04-05T08:02:53.000Z</time></trkpt>
<trkpt lat="42.199069" lon="23.588783"><ele>2383.1</ele><time>2026-04-05T08:02:54.000Z</time></trkpt>
<trkpt lat="42.199065" lon="23.588775"><ele>2383.1</ele><time>2026-04-05T08:02:55.000Z</time></trkpt>
<trkpt lat="42.199062" lon="23.588768"><ele>2383.1</ele><time>2026-04-05T08:02:56.000Z</time></trkpt>
<trkpt lat="42.19906" lon="23.588761"><ele>2383.1</ele><time>2026-04-05T08:02:57.000Z</time></trkpt>
<trkpt lat="42.199057" lon="23.588755"><ele>2383.1</ele><time>2026-04-05T08:02:58.000Z</time></trkpt>
<trkpt lat="42.199054" lon="23.58875"><ele>2383.8</ele><time>2026-04-05T08:02:59.000Z</time></trkpt>
<trkpt lat="42.199051" lon="23.588745"><ele>2383.8</ele><time>2026-04-05T08:03:00.000Z</time></trkpt>
<trkpt lat="42.199048" lon="23.588741"><ele>2383.8</ele><time>2026-04-05T08:03:01.000Z</time></trkpt>
<trkpt lat="42.199044" lon="23.588737"><ele>2383.8</ele><time>2026-04-05T08:03:02.000Z</time></trkpt>
<trkpt lat="42.19904" lon="23.588732"><ele>2383.8</ele><time>2026-04-05T08:03:03.000Z</time></trkpt>
<trkpt lat="42.199037" lon="23.588726"><ele>2384.2</ele><time>2026-04-05T08:03:04.000Z</time></trkpt>
<trkpt lat="42.199033" lon="23.588719"><ele>2384.2</ele><time>2026-04-05T08:03:05.000Z</time></trkpt>
<trkpt lat="42.199029" lon="23.588712"><ele>2384.2</ele><time>2026-04-05T08:03:06.000Z</time></trkpt>
<trkpt lat="42.199025" lon="23.588706"><ele>2384.2</ele><time>2026-04-05T08:03:07.000Z</time></trkpt>
<trkpt lat="42.199021" lon="23.588699"><ele>2384.2</ele><time>2026-04-05T08:03:08.000Z</time></trkpt>
<trkpt lat="42.199017" lon="23.588693"><ele>2385</ele><time>2026-04-05T08:03:09.000Z</time></trkpt>
<trkpt lat="42.199013" lon="23.588687"><ele>2385</ele><time>2026-04-05T08:03:10.000Z</time></trkpt>
<trkpt lat="42.199009" lon="23.588681"><ele>2385</ele><time>2026-04-05T08:03:11.000Z</time></trkpt>
<trkpt lat="42.199005" lon="23.588672"><ele>2385</ele><time>2026-04-05T08:03:12.000Z</time></trkpt>
<trkpt lat="42.199002" lon="23.588664"><ele>2385</ele><time>2026-04-05T08:03:13.000Z</time></trkpt>
<trkpt lat="42.198999" lon="23.588657"><ele>2385.7</ele><time>2026-04-05T08:03:14.000Z</time></trkpt>
<trkpt lat="42.198995" lon="23.588649"><ele>2385.7</ele><time>2026-04-05T08:03:15.000Z</time></trkpt>
<trkpt lat="42.19899" lon="23.588642"><ele>2385.7</ele><time>2026-04-05T08:03:16.000Z</time></trkpt>
<trkpt lat="42.198986" lon="23.588636"><ele>2385.7</ele><time>2026-04-05T08:03:17.000Z</time></trkpt>
<trkpt lat="42.19898" lon="23.58863"><ele>2385.7</ele><time>2026-04-05T08:03:18.000Z</time></trkpt>
<trkpt lat="42.198974" lon="23.588623"><ele>2386</ele><time>2026-04-05T08:03:19.000Z</time></trkpt>
<trkpt lat="42.19897" lon="23.588617"><ele>2386</ele><time>2026-04-05T08:03:20.000Z</time></trkpt>
<trkpt lat="42.198967" lon="23.58861"><ele>2386</ele><time>2026-04-05T08:03:21.000Z</time></trkpt>
<trkpt lat="42.198964" lon="23.588603"><ele>2386</ele><time>2026-04-05T08:03:22.000Z</time></trkpt>
<trkpt lat="42.198962" lon="23.588594"><ele>2386</ele><time>2026-04-05T08:03:23.000Z</time></trkpt>
<trkpt lat="42.198961" lon="23.588587"><ele>2386.6</ele><time>2026-04-05T08:03:24.000Z</time></trkpt>
<trkpt lat="42.198958" lon="23.588578"><ele>2386.6</ele><time>2026-04-05T08:03:25.000Z</time></trkpt>
<trkpt lat="42.198955" lon="23.58857"><ele>2386.6</ele><time>2026-04-05T08:03:26.000Z</time></trkpt>
<trkpt lat="42.19895" lon="23.588563"><ele>2386.6</ele><time>2026-04-05T08:03:27.000Z</time></trkpt>
<trkpt lat="42.198945" lon="23.588555"><ele>2386.6</ele><time>2026-04-05T08:03:28.000Z</time></trkpt>
<trkpt lat="42.19894" lon="23.588547"><ele>2387</ele><time>2026-04-05T08:03:29.000Z</time></trkpt>
<trkpt lat="42.198935" lon="23.588539"><ele>2387</ele><time>2026-04-05T08:03:30.000Z</time></trkpt>
<trkpt lat="42.19893" lon="23.588531"><ele>2387</ele><time>2026-04-05T08:03:31.000Z</time></trkpt>
<trkpt lat="42.198926" lon="23.588523"><ele>2387</ele><time>2026-04-05T08:03:32.000Z</time></trkpt>
<trkpt lat="42.198921" lon="23.588514"><ele>2387</ele><time>2026-04-05T08:03:33.000Z</time></trkpt>
<trkpt lat="42.198916" lon="23.588507"><ele>2387.2</ele><time>2026-04-05T08:03:34.000Z</time></trkpt>
<trkpt lat="42.19891" lon="23.5885"><ele>2387.2</ele><time>2026-04-05T08:03:35.000Z</time></trkpt>
<trkpt lat="42.198905" lon="23.588493"><ele>2387.2</ele><time>2026-04-05T08:03:36.000Z</time></trkpt>
<trkpt lat="42.198898" lon="23.588488"><ele>2387.2</ele><time>2026-04-05T08:03:37.000Z</time></trkpt>
<trkpt lat="42.198892" lon="23.588482"><ele>2387.2</ele><time>2026-04-05T08:03:38.000Z</time></trkpt>
<trkpt lat="42.198885" lon="23.588475"><ele>2387.6</ele><time>2026-04-05T08:03:39.000Z</time></trkpt>
<trkpt lat="42.198879" lon="23.588469"><ele>2387.6</ele><time>2026-04-05T08:03:40.000Z</time></trkpt>
<trkpt lat="42.198871" lon="23.588463"><ele>2387.6</ele><time>2026-04-05T08:03:41.000Z</time></trkpt>
<trkpt lat="42.198864" lon="23.588456"><ele>2387.6</ele><time>2026-04-05T08:03:42.000Z</time></trkpt>
<trkpt lat="42.198857" lon="23.588451"><ele>2387.6</ele><time>2026-04-05T08:03:43.000Z</time></trkpt>
<trkpt lat="42.19885" lon="23.588446"><ele>2388.2</ele><time>2026-04-05T08:03:44.000Z</time></trkpt>
<trkpt lat="42.198844" lon="23.588441"><ele>2388.2</ele><time>2026-04-05T08:03:45.000Z</time></trkpt>
<trkpt lat="42.198838" lon="23.588434"><ele>2388.2</ele><time>2026-04-05T08:03:46.000Z</time></trkpt>
<trkpt lat="42.198833" lon="23.588428"><ele>2388.2</ele><time>2026-04-05T08:03:47.000Z</time></trkpt>
<trkpt lat="42.198829" lon="23.588421"><ele>2388.2</ele><time>2026-04-05T08:03:48.000Z</time></trkpt>
<trkpt lat="42.198824" lon="23.588414"><ele>2388.5</ele><time>2026-04-05T08:03:49.000Z</time></trkpt>
<trkpt lat="42.198818" lon="23.588408"><ele>2388.5</ele><time>2026-04-05T08:03:50.000Z</time></trkpt>
<trkpt lat="42.198813" lon="23.588402"><ele>2388.5</ele><time>2026-04-05T08:03:51.000Z</time></trkpt>
<trkpt lat="42.198806" lon="23.588397"><ele>2388.5</ele><time>2026-04-05T08:03:52.000Z</time></trkpt>
<trkpt lat="42.1988" lon="23.588392"><ele>2388.5</ele><time>2026-04-05T08:03:53.000Z</time></trkpt>
<trkpt lat="42.198794" lon="23.588387"><ele>2389.3</ele><time>2026-04-05T08:03:54.000Z</time></trkpt>
<trkpt lat="42.198788" lon="23.588381"><ele>2389.3</ele><time>2026-04-05T08:03:55.000Z</time></trkpt>
<trkpt lat="42.198783" lon="23.588375"><ele>2389.3</ele><time>2026-04-05T08:03:56.000Z</time></trkpt>
<trkpt lat="42.198778" lon="23.588369"><ele>2389.3</ele><time>2026-04-05T08:03:57.000Z</time></trkpt>
<trkpt lat="42.198773" lon="23.588363"><ele>2389.3</ele><time>2026-04-05T08:03:58.000Z</time></trkpt>
<trkpt lat="42.198768" lon="23.588358"><ele>2390.2</ele><time>2026-04-05T08:03:59.000Z</time></trkpt>
<trkpt lat="42.198761" lon="23.588351"><ele>2390.2</ele><time>2026-04-05T08:04:00.000Z</time></trkpt>
<trkpt lat="42.198755" lon="23.588345"><ele>2390.2</ele><time>2026-04-05T08:04:01.000Z</time></trkpt>
<trkpt lat="42.198748" lon="23.588338"><ele>2390.2</ele><time>2026-04-05T08:04:02.000Z</time></trkpt>
<trkpt lat="42.198743" lon="23.58833"><ele>2390.2</ele><time>2026-04-05T08:04:03.000Z</time></trkpt>
<trkpt lat="42.198737" lon="23.588321"><ele>2390.6</ele><time>2026-04-05T08:04:04.000Z</time></trkpt>
<trkpt lat="42.198732" lon="23.588313"><ele>2390.6</ele><time>2026-04-05T08:04:05.000Z</time></trkpt>
<trkpt lat="42.198728" lon="23.588306"><ele>2390.6</ele><time>2026-04-05T08:04:06.000Z</time></trkpt>
<trkpt lat="42.198724" lon="23.5883"><ele>2390.6</ele><time>2026-04-05T08:04:07.000Z</time></trkpt>
<trkpt lat="42.198718" lon="23.588293"><ele>2390.6</ele><time>2026-04-05T08:04:08.000Z</time></trkpt>
<trkpt lat="42.198712" lon="23.588287"><ele>2391.4</ele><time>2026-04-05T08:04:09.000Z</time></trkpt>
<trkpt lat="42.198706" lon="23.588281"><ele>2391.4</ele><time>2026-04-05T08:04:10.000Z</time></trkpt>
<trkpt lat="42.1987" lon="23.588274"><ele>2391.4</ele><time>2026-04-05T08:04:11.000Z</time></trkpt>
<trkpt lat="42.198693" lon="23.588269"><ele>2391.4</ele><time>2026-04-05T08:04:12.000Z</time></trkpt>
<trkpt lat="42.198687" lon="23.588263"><ele>2391.4</ele><time>2026-04-05T08:04:13.000Z</time></trkpt>
<trkpt lat="42.19868" lon="23.588258"><ele>2392.1</ele><time>2026-04-05T08:04:14.000Z</time></trkpt>
<trkpt lat="42.198672" lon="23.588253"><ele>2392.1</ele><time>2026-04-05T08:04:15.000Z</time></trkpt>
<trkpt lat="42.198664" lon="23.588247"><ele>2392.1</ele><time>2026-04-05T08:04:16.000Z</time></trkpt>
<trkpt lat="42.198658" lon="23.588242"><ele>2392.1</ele><time>2026-04-05T08:04:17.000Z</time></trkpt>
<trkpt lat="42.198651" lon="23.588236"><ele>2392.1</ele><time>2026-04-05T08:04:18.000Z</time></trkpt>
<trkpt lat="42.198645" lon="23.58823"><ele>2392.4</ele><time>2026-04-05T08:04:19.000Z</time></trkpt>
<trkpt lat="42.198639" lon="23.588222"><ele>2392.4</ele><time>2026-04-05T08:04:20.000Z</time></trkpt>
<trkpt lat="42.198635" lon="23.588215"><ele>2392.4</ele><time>2026-04-05T08:04:21.000Z</time></trkpt>
<trkpt lat="42.198631" lon="23.588208"><ele>2392.4</ele><time>2026-04-05T08:04:22.000Z</time></trkpt>
<trkpt lat="42.198627" lon="23.588201"><ele>2392.4</ele><time>2026-04-05T08:04:23.000Z</time></trkpt>
<trkpt lat="42.198622" lon="23.588194"><ele>2393.1</ele><time>2026-04-05T08:04:24.000Z</time></trkpt>
<trkpt lat="42.198619" lon="23.588189"><ele>2393.1</ele><time>2026-04-05T08:04:25.000Z</time></trkpt>
<trkpt lat="42.198615" lon="23.588183"><ele>2393.1</ele><time>2026-04-05T08:04:26.000Z</time></trkpt>
<trkpt lat="42.19861" lon="23.588176"><ele>2393.1</ele><time>2026-04-05T08:04:27.000Z</time></trkpt>
<trkpt lat="42.198606" lon="23.588171"><ele>2393.1</ele><time>2026-04-05T08:04:28.000Z</time></trkpt>
<trkpt lat="42.198601" lon="23.588166"><ele>2393.7</ele><time>2026-04-05T08:04:29.000Z</time></trkpt>
<trkpt lat="42.198595" lon="23.58816"><ele>2393.7</ele><time>2026-04-05T08:04:30.000Z</time></trkpt>
<trkpt lat="42.19859" lon="23.588156"><ele>2393.7</ele><time>2026-04-05T08:04:31.000Z</time></trkpt>
<trkpt lat="42.198584" lon="23.588151"><ele>2393.7</ele><time>2026-04-05T08:04:32.000Z</time></trkpt>
<trkpt lat="42.198579" lon="23.588144"><ele>2393.7</ele><time>2026-04-05T08:04:33.000Z</time></trkpt>
<trkpt lat="42.198575" lon="23.588138"><ele>2394.1</ele><time>2026-04-05T08:04:34.000Z</time></trkpt>
<trkpt lat="42.198571" lon="23.588131"><ele>2394.1</ele><time>2026-04-05T08:04:35.000Z</time></trkpt>
<trkpt lat="42.198567" lon="23.588124"><ele>2394.1</ele><time>2026-04-05T08:04:36.000Z</time></trkpt>
<trkpt lat="42.198564" lon="23.588116"><ele>2394.1</ele><time>2026-04-05T08:04:37.000Z</time></trkpt>
<trkpt lat="42.19856" lon="23.588109"><ele>2394.1</ele><time>2026-04-05T08:04:38.000Z</time></trkpt>
<trkpt lat="42.198557" lon="23.588102"><ele>2394.8</ele><time>2026-04-05T08:04:39.000Z</time></trkpt>
<trkpt lat="42.198552" lon="23.588095"><ele>2394.8</ele><time>2026-04-05T08:04:40.000Z</time></trkpt>
<trkpt lat="42.198548" lon="23.588089"><ele>2394.8</ele><time>2026-04-05T08:04:41.000Z</time></trkpt>
<trkpt lat="42.198544" lon="23.588084"><ele>2394.8</ele><time>2026-04-05T08:04:42.000Z</time></trkpt>
<trkpt lat="42.198539" lon="23.588079"><ele>2394.8</ele><time>2026-04-05T08:04:43.000Z</time></trkpt>
<trkpt lat="42.198533" lon="23.588073"><ele>2395.4</ele><time>2026-04-05T08:04:44.000Z</time></trkpt>
<trkpt lat="42.198528" lon="23.588068"><ele>2395.4</ele><time>2026-04-05T08:04:45.000Z</time></trkpt>
<trkpt lat="42.198524" lon="23.588062"><ele>2395.4</ele><time>2026-04-05T08:04:46.000Z</time></trkpt>
<trkpt lat="42.198519" lon="23.588055"><ele>2395.4</ele><time>2026-04-05T08:04:47.000Z</time></trkpt>
<trkpt lat="42.198514" lon="23.588048"><ele>2395.4</ele><time>2026-04-05T08:04:48.000Z</time></trkpt>
<trkpt lat="42.19851" lon="23.588041"><ele>2395.8</ele><time>2026-04-05T08:04:49.000Z</time></trkpt>
<trkpt lat="42.198507" lon="23.588036"><ele>2395.8</ele><time>2026-04-05T08:04:50.000Z</time></trkpt>
<trkpt lat="42.198504" lon="23.588031"><ele>2395.8</ele><time>2026-04-05T08:04:51.000Z</time></trkpt>
<trkpt lat="42.198503" lon="23.588029"><ele>2395.8</ele><time>2026-04-05T08:04:52.000Z</time></trkpt>
<trkpt lat="42.198503" lon="23.588027"><ele>2395.8</ele><time>2026-04-05T08:04:53.000Z</time></trkpt>
<trkpt lat="42.198503" lon="23.588025"><ele>2396.6</ele><time>2026-04-05T08:04:54.000Z</time></trkpt>
<trkpt lat="42.198503" lon="23.588024"><ele>2396.6</ele><time>2026-04-05T08:04:55.000Z</time></trkpt>
<trkpt lat="42.198502" lon="23.588023"><ele>2396.6</ele><time>2026-04-05T08:04:56.000Z</time></trkpt>
<trkpt lat="42.198502" lon="23.588022"><ele>2396.6</ele><time>2026-04-05T08:04:57.000Z</time></trkpt>
<trkpt lat="42.198502" lon="23.588021"><ele>2396.6</ele><time>2026-04-05T08:04:58.000Z</time></trkpt>
<trkpt lat="42.198502" lon="23.588021"><ele>2397.5</ele><time>2026-04-05T08:04:59.000Z</time></trkpt>
<trkpt lat="42.198502" lon="23.58802"><ele>2397.5</ele><time>2026-04-05T08:05:00.000Z</time></trkpt>
<trkpt lat="42.198502" lon="23.588021"><ele>2397.5</ele><time>2026-04-05T08:05:01.000Z</time></trkpt>
<trkpt lat="42.198501" lon="23.588022"><ele>2397.5</ele><time>2026-04-05T08:05:02.000Z</time></trkpt>
<trkpt lat="42.198501" lon="23.588022"><ele>2397.5</ele><time>2026-04-05T08:05:03.000Z</time></trkpt>
<trkpt lat="42.1985" lon="23.588023"><ele>2397.8</ele><time>2026-04-05T08:05:04.000Z</time></trkpt>
<trkpt lat="42.1985" lon="23.588024"><ele>2397.8</ele><time>2026-04-05T08:05:05.000Z</time></trkpt>
<trkpt lat="42.1985" lon="23.588024"><ele>2397.8</ele><time>2026-04-05T08:05:06.000Z</time></trkpt>
<trkpt lat="42.1985" lon="23.588023"><ele>2397.8</ele><time>2026-04-05T08:05:07.000Z</time></trkpt>
<trkpt lat="42.1985" lon="23.588021"><ele>2397.8</ele><time>2026-04-05T08:05:08.000Z</time></trkpt>
<trkpt lat="42.1985" lon="23.58802"><ele>2398.1</ele><time>2026-04-05T08:05:09.000Z</time></trkpt>
<trkpt lat="42.1985" lon="23.588018"><ele>2398.1</ele><time>2026-04-05T08:05:10.000Z</time></trkpt>
<trkpt lat="42.1985" lon="23.588018"><ele>2398.1</ele><time>2026-04-05T08:05:11.000Z</time></trkpt>
<trkpt lat="42.1985" lon="23.588017"><ele>2398.1</ele><time>2026-04-05T08:05:12.000Z</time></trkpt>
<trkpt lat="42.1985" lon="23.588018"><ele>2398.1</ele><time>2026-04-05T08:05:13.000Z</time></trkpt>
<trkpt lat="42.1985" lon="23.588019"><ele>2398.1</ele><time>2026-04-05T08:05:14.000Z</time></trkpt>
<trkpt lat="42.198501" lon="23.58802"><ele>2398.1</ele><time>2026-04-05T08:05:15.000Z</time></trkpt>
<trkpt lat="42.198501" lon="23.588019"><ele>2398.1</ele><time>2026-04-05T08:05:16.000Z</time></trkpt>
<trkpt lat="42.198501" lon="23.588018"><ele>2398.1</ele><time>2026-04-05T08:05:17.000Z</time></trkpt>
<trkpt lat="42.198501" lon="23.588018"><ele>2398.1</ele><time>2026-04-05T08:05:18.000Z</time></trkpt>
<trkpt lat="42.198501" lon="23.588018"><ele>2398.2</ele><time>2026-04-05T08:05:19.000Z</time></trkpt>
<trkpt lat="42.1985" lon="23.588018"><ele>2398.2</ele><time>2026-04-05T08:05:20.000Z</time></trkpt>
<trkpt lat="42.198499" lon="23.588019"><ele>2398.2</ele><time>2026-04-05T08:05:21.000Z</time></trkpt>
<trkpt lat="42.198498" lon="23.588019"><ele>2398.2</ele><time>2026-04-05T08:05:22.000Z</time></trkpt>
<trkpt lat="42.198498" lon="23.588019"><ele>2398.2</ele><time>2026-04-05T08:05:23.000Z</time></trkpt>
<trkpt lat="42.198497" lon="23.588019"><ele>2398.4</ele><time>2026-04-05T08:05:24.000Z</time></trkpt>
<trkpt lat="42.198497" lon="23.588019"><ele>2398.4</ele><time>2026-04-05T08:05:25.000Z</time></trkpt>
<trkpt lat="42.198497" lon="23.588019"><ele>2398.4</ele><time>2026-04-05T08:05:26.000Z</time></trkpt>
<trkpt lat="42.198497" lon="23.588021"><ele>2398.4</ele><time>2026-04-05T08:05:27.000Z</time></trkpt>
<trkpt lat="42.198497" lon="23.588023"><ele>2398.4</ele><time>2026-04-05T08:05:28.000Z</time></trkpt>
<trkpt lat="42.198496" lon="23.588025"><ele>2398.7</ele><time>2026-04-05T08:05:29.000Z</time></trkpt>
<trkpt lat="42.198495" lon="23.588026"><ele>2398.7</ele><time>2026-04-05T08:05:30.000Z</time></trkpt>
<trkpt lat="42.198494" lon="23.588029"><ele>2398.7</ele><time>2026-04-05T08:05:31.000Z</time></trkpt>
<trkpt lat="42.198492" lon="23.58803"><ele>2398.7</ele><time>2026-04-05T08:05:32.000Z</time></trkpt>
<trkpt lat="42.198491" lon="23.588031"><ele>2398.7</ele><time>2026-04-05T08:05:33.000Z</time></trkpt>
<trkpt lat="42.198489" lon="23.588033"><ele>2398.8</ele><time>2026-04-05T08:05:34.000Z</time></trkpt>
<trkpt lat="42.198487" lon="23.588035"><ele>2398.8</ele><time>2026-04-05T08:05:35.000Z</time></trkpt>
<trkpt lat="42.198484" lon="23.588036"><ele>2398.8</ele><time>2026-04-05T08:05:36.000Z</time></trkpt>
<trkpt lat="42.198482" lon="23.588037"><ele>2398.8</ele><time>2026-04-05T08:05:37.000Z</time></trkpt>
<trkpt lat="42.198479" lon="23.588037"><ele>2398.8</ele><time>2026-04-05T08:05:38.000Z</time></trkpt>
<trkpt lat="42.198476" lon="23.588037"><ele>2398.8</ele><time>2026-04-05T08:05:39.000Z</time></trkpt>
<trkpt lat="42.198475" lon="23.588037"><ele>2398.8</ele><time>2026-04-05T08:05:40.000Z</time></trkpt>
<trkpt lat="42.198474" lon="23.588037"><ele>2398.8</ele><time>2026-04-05T08:05:41.000Z</time></trkpt>
<trkpt lat="42.198474" lon="23.588037"><ele>2398.8</ele><time>2026-04-05T08:05:42.000Z</time></trkpt>
<trkpt lat="42.198475" lon="23.588037"><ele>2398.8</ele><time>2026-04-05T08:05:43.000Z</time></trkpt>
<trkpt lat="42.198475" lon="23.588036"><ele>2398.7</ele><time>2026-04-05T08:05:44.000Z</time></trkpt>
<trkpt lat="42.198476" lon="23.588035"><ele>2398.7</ele><time>2026-04-05T08:05:45.000Z</time></trkpt>
<trkpt lat="42.198476" lon="23.588035"><ele>2398.7</ele><time>2026-04-05T08:05:46.000Z</time></trkpt>
<trkpt lat="42.198477" lon="23.588034"><ele>2398.7</ele><time>2026-04-05T08:05:47.000Z</time></trkpt>
<trkpt lat="42.198477" lon="23.588036"><ele>2398.7</ele><time>2026-04-05T08:05:48.000Z</time></trkpt>
<trkpt lat="42.198476" lon="23.588038"><ele>2398.7</ele><time>2026-04-05T08:05:49.000Z</time></trkpt>
<trkpt lat="42.198476" lon="23.588039"><ele>2398.7</ele><time>2026-04-05T08:05:50.000Z</time></trkpt>
<trkpt lat="42.198476" lon="23.588042"><ele>2398.7</ele><time>2026-04-05T08:05:51.000Z</time></trkpt>
<trkpt lat="42.198476" lon="23.588045"><ele>2398.7</ele><time>2026-04-05T08:05:52.000Z</time></trkpt>
<trkpt lat="42.198477" lon="23.588047"><ele>2398.7</ele><time>2026-04-05T08:05:53.000Z</time></trkpt>
<trkpt lat="42.198478" lon="23.588049"><ele>2398.7</ele><time>2026-04-05T08:05:54.000Z</time></trkpt>
<trkpt lat="42.198478" lon="23.588051"><ele>2398.7</ele><time>2026-04-05T08:05:55.000Z</time></trkpt>
<trkpt lat="42.198478" lon="23.588051"><ele>2398.7</ele><time>2026-04-05T08:05:56.000Z</time></trkpt>
<trkpt lat="42.198478" lon="23.588051"><ele>2398.7</ele><time>2026-04-05T08:05:57.000Z</time></trkpt>
<trkpt lat="42.198478" lon="23.588051"><ele>2398.7</ele><time>2026-04-05T08:05:58.000Z</time></trkpt>
<trkpt lat="42.198478" lon="23.588051"><ele>2399</ele><time>2026-04-05T08:05:59.000Z</time></trkpt>
<trkpt lat="42.198478" lon="23.588049"><ele>2399</ele><time>2026-04-05T08:06:00.000Z</time></trkpt>
<trkpt lat="42.198477" lon="23.588046"><ele>2399</ele><time>2026-04-05T08:06:01.000Z</time></trkpt>
<trkpt lat="42.198475" lon="23.588041"><ele>2399</ele><time>2026-04-05T08:06:02.000Z</time></trkpt>
<trkpt lat="42.198472" lon="23.588035"><ele>2399</ele><time>2026-04-05T08:06:03.000Z</time></trkpt>
<trkpt lat="42.198468" lon="23.588028"><ele>2399.1</ele><time>2026-04-05T08:06:04.000Z</time></trkpt>
<trkpt lat="42.198464" lon="23.58802"><ele>2399.1</ele><time>2026-04-05T08:06:05.000Z</time></trkpt>
<trkpt lat="42.19846" lon="23.588014"><ele>2399.1</ele><time>2026-04-05T08:06:06.000Z</time></trkpt>
<trkpt lat="42.198456" lon="23.588007"><ele>2399.1</ele><time>2026-04-05T08:06:07.000Z</time></trkpt>
<trkpt lat="42.198453" lon="23.588"><ele>2399.1</ele><time>2026-04-05T08:06:08.000Z</time></trkpt>
<trkpt lat="42.19845" lon="23.587993"><ele>2399.2</ele><time>2026-04-05T08:06:09.000Z</time></trkpt>
<trkpt lat="42.198447" lon="23.587986"><ele>2399.2</ele><time>2026-04-05T08:06:10.000Z</time></trkpt>
<trkpt lat="42.198443" lon="23.587979"><ele>2399.2</ele><time>2026-04-05T08:06:11.000Z</time></trkpt>
<trkpt lat="42.19844" lon="23.587972"><ele>2399.2</ele><time>2026-04-05T08:06:12.000Z</time></trkpt>
<trkpt lat="42.198437" lon="23.587966"><ele>2399.2</ele><time>2026-04-05T08:06:13.000Z</time></trkpt>
<trkpt lat="42.198433" lon="23.587961"><ele>2399.4</ele><time>2026-04-05T08:06:14.000Z</time></trkpt>
<trkpt lat="42.198429" lon="23.587957"><ele>2399.4</ele><time>2026-04-05T08:06:15.000Z</time></trkpt>
<trkpt lat="42.198425" lon="23.587953"><ele>2399.4</ele><time>2026-04-05T08:06:16.000Z</time></trkpt>
<trkpt lat="42.19842" lon="23.587948"><ele>2399.4</ele><time>2026-04-05T08:06:17.000Z</time></trkpt>
<trkpt lat="42.198415" lon="23.587944"><ele>2399.4</ele><time>2026-04-05T08:06:18.000Z</time></trkpt>
<trkpt lat="42.19841" lon="23.587939"><ele>2399.6</ele><time>2026-04-05T08:06:19.000Z</time></trkpt>
<trkpt lat="42.198406" lon="23.587933"><ele>2399.6</ele><time>2026-04-05T08:06:20.000Z</time></trkpt>
<trkpt lat="42.198401" lon="23.587928"><ele>2399.6</ele><time>2026-04-05T08:06:21.000Z</time></trkpt>
<trkpt lat="42.198397" lon="23.587922"><ele>2399.6</ele><time>2026-04-05T08:06:22.000Z</time></trkpt>
<trkpt lat="42.198392" lon="23.587916"><ele>2399.6</ele><time>2026-04-05T08:06:23.000Z</time></trkpt>
<trkpt lat="42.198388" lon="23.587909"><ele>2400.4</ele><time>2026-04-05T08:06:24.000Z</time></trkpt>
<trkpt lat="42.198383" lon="23.587903"><ele>2400.4</ele><time>2026-04-05T08:06:25.000Z</time></trkpt>
<trkpt lat="42.198379" lon="23.587897"><ele>2400.4</ele><time>2026-04-05T08:06:26.000Z</time></trkpt>
<trkpt lat="42.198374" lon="23.587892"><ele>2400.4</ele><time>2026-04-05T08:06:27.000Z</time></trkpt>
<trkpt lat="42.198369" lon="23.587888"><ele>2400.4</ele><time>2026-04-05T08:06:28.000Z</time></trkpt>
<trkpt lat="42.198365" lon="23.587883"><ele>2401.3</ele><time>2026-04-05T08:06:29.000Z</time></trkpt>
<trkpt lat="42.19836" lon="23.58788"><ele>2401.3</ele><time>2026-04-05T08:06:30.000Z</time></trkpt>
<trkpt lat="42.198356" lon="23.587874"><ele>2401.3</ele><time>2026-04-05T08:06:31.000Z</time></trkpt>
<trkpt lat="42.198352" lon="23.587868"><ele>2401.3</ele><time>2026-04-05T08:06:32.000Z</time></trkpt>
<trkpt lat="42.198348" lon="23.587863"><ele>2401.3</ele><time>2026-04-05T08:06:33.000Z</time></trkpt>
<trkpt lat="42.198344" lon="23.587858"><ele>2401.8</ele><time>2026-04-05T08:06:34.000Z</time></trkpt>
<trkpt lat="42.19834" lon="23.587853"><ele>2401.8</ele><time>2026-04-05T08:06:35.000Z</time></trkpt>
<trkpt lat="42.198336" lon="23.587848"><ele>2401.8</ele><time>2026-04-05T08:06:36.000Z</time></trkpt>
<trkpt lat="42.198332" lon="23.587844"><ele>2401.8</ele><time>2026-04-05T08:06:37.000Z</time></trkpt>
<trkpt lat="42.198329" lon="23.587841"><ele>2401.8</ele><time>2026-04-05T08:06:38.000Z</time></trkpt>
<trkpt lat="42.198327" lon="23.587838"><ele>2402.7</ele><time>2026-04-05T08:06:39.000Z</time></trkpt>
<trkpt lat="42.198325" lon="23.587836"><ele>2402.7</ele><time>2026-04-05T08:06:40.000Z</time></trkpt>
<trkpt lat="42.198322" lon="23.587834"><ele>2402.7</ele><time>2026-04-05T08:06:41.000Z</time></trkpt>
<trkpt lat="42.198319" lon="23.587833"><ele>2402.7</ele><time>2026-04-05T08:06:42.000Z</time></trkpt>
<trkpt lat="42.198317" lon="23.587832"><ele>2402.7</ele><time>2026-04-05T08:06:43.000Z</time></trkpt>
<trkpt lat="42.198314" lon="23.58783"><ele>2403.5</ele><time>2026-04-05T08:06:44.000Z</time></trkpt>
<trkpt lat="42.198312" lon="23.587829"><ele>2403.5</ele><time>2026-04-05T08:06:45.000Z</time></trkpt>
<trkpt lat="42.198309" lon="23.587829"><ele>2403.5</ele><time>2026-04-05T08:06:46.000Z</time></trkpt>
<trkpt lat="42.198306" lon="23.587828"><ele>2403.5</ele><time>2026-04-05T08:06:47.000Z</time></trkpt>
<trkpt lat="42.198301" lon="23.587825"><ele>2403.5</ele><time>2026-04-05T08:06:48.000Z</time></trkpt>
<trkpt lat="42.198295" lon="23.587821"><ele>2403.9</ele><time>2026-04-05T08:06:49.000Z</time></trkpt>
<trkpt lat="42.19829" lon="23.587815"><ele>2403.9</ele><time>2026-04-05T08:06:50.000Z</time></trkpt>
<trkpt lat="42.198285" lon="23.587808"><ele>2403.9</ele><time>2026-04-05T08:06:51.000Z</time></trkpt>
<trkpt lat="42.198281" lon="23.587801"><ele>2403.9</ele><time>2026-04-05T08:06:52.000Z</time></trkpt>
<trkpt lat="42.198277" lon="23.587794"><ele>2403.9</ele><time>2026-04-05T08:06:53.000Z</time></trkpt>
<trkpt lat="42.198274" lon="23.587787"><ele>2404.5</ele><time>2026-04-05T08:06:54.000Z</time></trkpt>
<trkpt lat="42.19827" lon="23.587781"><ele>2404.5</ele><time>2026-04-05T08:06:55.000Z</time></trkpt>
<trkpt lat="42.198266" lon="23.587774"><ele>2404.5</ele><time>2026-04-05T08:06:56.000Z</time></trkpt>
<trkpt lat="42.198263" lon="23.587768"><ele>2404.5</ele><time>2026-04-05T08:06:57.000Z</time></trkpt>
<trkpt lat="42.198259" lon="23.587763"><ele>2404.5</ele><time>2026-04-05T08:06:58.000Z</time></trkpt>
<trkpt lat="42.198254" lon="23.587758"><ele>2405</ele><time>2026-04-05T08:06:59.000Z</time></trkpt>
<trkpt lat="42.19825" lon="23.587753"><ele>2405</ele><time>2026-04-05T08:07:00.000Z</time></trkpt>
<trkpt lat="42.198245" lon="23.587749"><ele>2405</ele><time>2026-04-05T08:07:01.000Z</time></trkpt>
<trkpt lat="42.198239" lon="23.587745"><ele>2405</ele><time>2026-04-05T08:07:02.000Z</time></trkpt>
<trkpt lat="42.198234" lon="23.58774"><ele>2405</ele><time>2026-04-05T08:07:03.000Z</time></trkpt>
<trkpt lat="42.198229" lon="23.587734"><ele>2405.3</ele><time>2026-04-05T08:07:04.000Z</time></trkpt>
<trkpt lat="42.198223" lon="23.587729"><ele>2405.3</ele><time>2026-04-05T08:07:05.000Z</time></trkpt>
<trkpt lat="42.19822" lon="23.587723"><ele>2405.3</ele><time>2026-04-05T08:07:06.000Z</time></trkpt>
<trkpt lat="42.198217" lon="23.587718"><ele>2405.3</ele><time>2026-04-05T08:07:07.000Z</time></trkpt>
<trkpt lat="42.198214" lon="23.587714"><ele>2405.3</ele><time>2026-04-05T08:07:08.000Z</time></trkpt>
<trkpt lat="42.198211" lon="23.587709"><ele>2406.3</ele><time>2026-04-05T08:07:09.000Z</time></trkpt>
<trkpt lat="42.198209" lon="23.587704"><ele>2406.3</ele><time>2026-04-05T08:07:10.000Z</time></trkpt>
<trkpt lat="42.198205" lon="23.587699"><ele>2406.3</ele><time>2026-04-05T08:07:11.000Z</time></trkpt>
<trkpt lat="42.1982" lon="23.587694"><ele>2406.3</ele><time>2026-04-05T08:07:12.000Z</time></trkpt>
<trkpt lat="42.198195" lon="23.587688"><ele>2406.3</ele><time>2026-04-05T08:07:13.000Z</time></trkpt>
<trkpt lat="42.19819" lon="23.587684"><ele>2407.4</ele><time>2026-04-05T08:07:14.000Z</time></trkpt>
<trkpt lat="42.198184" lon="23.58768"><ele>2407.4</ele><time>2026-04-05T08:07:15.000Z</time></trkpt>
<trkpt lat="42.198178" lon="23.587676"><ele>2407.4</ele><time>2026-04-05T08:07:16.000Z</time></trkpt>
<trkpt lat="42.198172" lon="23.587671"><ele>2407.4</ele><time>2026-04-05T08:07:17.000Z</time></trkpt>
<trkpt lat="42.198166" lon="23.587666"><ele>2407.4</ele><time>2026-04-05T08:07:18.000Z</time></trkpt>
<trkpt lat="42.198159" lon="23.58766"><ele>2407.8</ele><time>2026-04-05T08:07:19.000Z</time></trkpt>
<trkpt lat="42.198153" lon="23.587654"><ele>2407.8</ele><time>2026-04-05T08:07:20.000Z</time></trkpt>
<trkpt lat="42.198146" lon="23.587649"><ele>2407.8</ele><time>2026-04-05T08:07:21.000Z</time></trkpt>
<trkpt lat="42.19814" lon="23.587644"><ele>2407.8</ele><time>2026-04-05T08:07:22.000Z</time></trkpt>
<trkpt lat="42.198134" lon="23.587639"><ele>2407.8</ele><time>2026-04-05T08:07:23.000Z</time></trkpt>
<trkpt lat="42.198128" lon="23.587634"><ele>2408.7</ele><time>2026-04-05T08:07:24.000Z</time></trkpt>
<trkpt lat="42.198122" lon="23.587629"><ele>2408.7</ele><time>2026-04-05T08:07:25.000Z</time></trkpt>
<trkpt lat="42.198116" lon="23.587623"><ele>2408.7</ele><time>2026-04-05T08:07:26.000Z</time></trkpt>
<trkpt lat="42.19811" lon="23.587617"><ele>2408.7</ele><time>2026-04-05T08:07:27.000Z</time></trkpt>
<trkpt lat="42.198105" lon="23.587612"><ele>2408.7</ele><time>2026-04-05T08:07:28.000Z</time></trkpt>
<trkpt lat="42.198099" lon="23.587607"><ele>2409.5</ele><time>2026-04-05T08:07:29.000Z</time></trkpt>
<trkpt lat="42.198093" lon="23.587601"><ele>2409.5</ele><time>2026-04-05T08:07:30.000Z</time></trkpt>
<trkpt lat="42.198089" lon="23.587596"><ele>2409.5</ele><time>2026-04-05T08:07:31.000Z</time></trkpt>
<trkpt lat="42.198085" lon="23.587591"><ele>2409.5</ele><time>2026-04-05T08:07:32.000Z</time></trkpt>
<trkpt lat="42.198083" lon="23.587589"><ele>2409.5</ele><time>2026-04-05T08:07:33.000Z</time></trkpt>
<trkpt lat="42.198082" lon="23.587588"><ele>2409.9</ele><time>2026-04-05T08:07:34.000Z</time></trkpt>
<trkpt lat="42.198081" lon="23.587588"><ele>2409.9</ele><time>2026-04-05T08:07:35.000Z</time></trkpt>
<trkpt lat="42.198081" lon="23.587588"><ele>2409.9</ele><time>2026-04-05T08:07:36.000Z</time></trkpt>
<trkpt lat="42.19808" lon="23.587586"><ele>2409.9</ele><time>2026-04-05T08:07:37.000Z</time></trkpt>
<trkpt lat="42.198079" lon="23.587581"><ele>2409.9</ele><time>2026-04-05T08:07:38.000Z</time></trkpt>
<trkpt lat="42.198077" lon="23.587574"><ele>2410.5</ele><time>2026-04-05T08:07:39.000Z</time></trkpt>
<trkpt lat="42.198076" lon="23.587568"><ele>2410.5</ele><time>2026-04-05T08:07:40.000Z</time></trkpt>
<trkpt lat="42.198075" lon="23.587563"><ele>2410.5</ele><time>2026-04-05T08:07:41.000Z</time></trkpt>
<trkpt lat="42.198074" lon="23.587559"><ele>2410.5</ele><time>2026-04-05T08:07:42.000Z</time></trkpt>
<trkpt lat="42.198073" lon="23.587557"><ele>2410.5</ele><time>2026-04-05T08:07:43.000Z</time></trkpt>
<trkpt lat="42.198072" lon="23.587557"><ele>2411</ele><time>2026-04-05T08:07:44.000Z</time></trkpt>
<trkpt lat="42.198072" lon="23.587557"><ele>2411</ele><time>2026-04-05T08:07:45.000Z</time></trkpt>
<trkpt lat="42.198071" lon="23.587557"><ele>2411</ele><time>2026-04-05T08:07:46.000Z</time></trkpt>
<trkpt lat="42.198071" lon="23.587557"><ele>2411</ele><time>2026-04-05T08:07:47.000Z</time></trkpt>
<trkpt lat="42.198071" lon="23.587557"><ele>2411</ele><time>2026-04-05T08:07:48.000Z</time></trkpt>
<trkpt lat="42.198071" lon="23.587557"><ele>2411.3</ele><time>2026-04-05T08:07:49.000Z</time></trkpt>
<trkpt lat="42.198071" lon="23.587557"><ele>2411.3</ele><time>2026-04-05T08:07:50.000Z</time></trkpt>
<trkpt lat="42.198071" lon="23.587557"><ele>2411.3</ele><time>2026-04-05T08:07:51.000Z</time></trkpt>
<trkpt lat="42.198071" lon="23.587558"><ele>2411.3</ele><time>2026-04-05T08:07:52.000Z</time></trkpt>
<trkpt lat="42.19807" lon="23.587558"><ele>2411.3</ele><time>2026-04-05T08:07:53.000Z</time></trkpt>
<trkpt lat="42.198071" lon="23.587558"><ele>2411.5</ele><time>2026-04-05T08:07:54.000Z</time></trkpt>
<trkpt lat="42.198071" lon="23.587558"><ele>2411.5</ele><time>2026-04-05T08:07:55.000Z</time></trkpt>
<trkpt lat="42.198071" lon="23.587559"><ele>2411.5</ele><time>2026-04-05T08:07:56.000Z</time></trkpt>
<trkpt lat="42.198071" lon="23.587559"><ele>2411.5</ele><time>2026-04-05T08:07:57.000Z</time></trkpt>
<trkpt lat="42.19807" lon="23.587559"><ele>2411.5</ele><time>2026-04-05T08:07:58.000Z</time></trkpt>
<trkpt lat="42.19807" lon="23.587559"><ele>2411.6</ele><time>2026-04-05T08:07:59.000Z</time></trkpt>
<trkpt lat="42.19807" lon="23.587559"><ele>2411.6</ele><time>2026-04-05T08:08:00.000Z</time></trkpt>
<trkpt lat="42.19807" lon="23.58756"><ele>2411.6</ele><time>2026-04-05T08:08:01.000Z</time></trkpt>
<trkpt lat="42.19807" lon="23.58756"><ele>2411.6</ele><time>2026-04-05T08:08:02.000Z</time></trkpt>
<trkpt lat="42.198071" lon="23.58756"><ele>2411.6</ele><time>2026-04-05T08:08:03.000Z</time></trkpt>
<trkpt lat="42.198071" lon="23.58756"><ele>2411.6</ele><time>2026-04-05T08:08:04.000Z</time></trkpt>
<trkpt lat="42.198071" lon="23.58756"><ele>2411.6</ele><time>2026-04-05T08:08:05.000Z</time></trkpt>
<trkpt lat="42.198071" lon="23.58756"><ele>2411.6</ele><time>2026-04-05T08:08:06.000Z</time></trkpt>
<trkpt lat="42.198071" lon="23.58756"><ele>2411.6</ele><time>2026-04-05T08:08:07.000Z</time></trkpt>
<trkpt lat="42.198072" lon="23.58756"><ele>2411.6</ele><time>2026-04-05T08:08:08.000Z</time></trkpt>
<trkpt lat="42.198073" lon="23.58756"><ele>2411.6</ele><time>2026-04-05T08:08:09.000Z</time></trkpt>
<trkpt lat="42.198074" lon="23.58756"><ele>2411.6</ele><time>2026-04-05T08:08:10.000Z</time></trkpt>
<trkpt lat="42.198075" lon="23.58756"><ele>2411.6</ele><time>2026-04-05T08:08:11.000Z</time></trkpt>
<trkpt lat="42.198076" lon="23.587561"><ele>2411.6</ele><time>2026-04-05T08:08:12.000Z</time></trkpt>
<trkpt lat="42.198077" lon="23.587561"><ele>2411.6</ele><time>2026-04-05T08:08:13.000Z</time></trkpt>
<trkpt lat="42.198078" lon="23.587561"><ele>2411.6</ele><time>2026-04-05T08:08:14.000Z</time></trkpt>
<trkpt lat="42.198078" lon="23.587561"><ele>2411.6</ele><time>2026-04-05T08:08:15.000Z</time></trkpt>
<trkpt lat="42.198078" lon="23.587561"><ele>2411.6</ele><time>2026-04-05T08:08:16.000Z</time></trkpt>
<trkpt lat="42.198078" lon="23.587561"><ele>2411.6</ele><time>2026-04-05T08:08:17.000Z</time></trkpt>
<trkpt lat="42.198078" lon="23.587561"><ele>2411.6</ele><time>2026-04-05T08:08:18.000Z</time></trkpt>
<trkpt lat="42.198077" lon="23.587561"><ele>2411.6</ele><time>2026-04-05T08:08:19.000Z</time></trkpt>
<trkpt lat="42.198077" lon="23.587561"><ele>2411.6</ele><time>2026-04-05T08:08:20.000Z</time></trkpt>
<trkpt lat="42.198077" lon="23.587561"><ele>2411.6</ele><time>2026-04-05T08:08:21.000Z</time></trkpt>
<trkpt lat="42.198078" lon="23.587561"><ele>2411.6</ele><time>2026-04-05T08:08:22.000Z</time></trkpt>
<trkpt lat="42.198079" lon="23.587559"><ele>2411.6</ele><time>2026-04-05T08:08:23.000Z</time></trkpt>
<trkpt lat="42.198082" lon="23.587557"><ele>2411.9</ele><time>2026-04-05T08:08:24.000Z</time></trkpt>
<trkpt lat="42.198084" lon="23.587555"><ele>2411.9</ele><time>2026-04-05T08:08:25.000Z</time></trkpt>
<trkpt lat="42.198088" lon="23.587551"><ele>2411.9</ele><time>2026-04-05T08:08:26.000Z</time></trkpt>
<trkpt lat="42.19809" lon="23.587549"><ele>2411.9</ele><time>2026-04-05T08:08:27.000Z</time></trkpt>
<trkpt lat="42.198092" lon="23.587546"><ele>2411.9</ele><time>2026-04-05T08:08:28.000Z</time></trkpt>
<trkpt lat="42.198094" lon="23.587544"><ele>2411.9</ele><time>2026-04-05T08:08:29.000Z</time></trkpt>
<trkpt lat="42.198095" lon="23.587542"><ele>2411.9</ele><time>2026-04-05T08:08:30.000Z</time></trkpt>
<trkpt lat="42.198096" lon="23.587541"><ele>2411.9</ele><time>2026-04-05T08:08:31.000Z</time></trkpt>
<trkpt lat="42.198097" lon="23.58754"><ele>2411.9</ele><time>2026-04-05T08:08:32.000Z</time></trkpt>
<trkpt lat="42.198098" lon="23.587539"><ele>2411.9</ele><time>2026-04-05T08:08:33.000Z</time></trkpt>
<trkpt lat="42.198098" lon="23.587539"><ele>2411.8</ele><time>2026-04-05T08:08:34.000Z</time></trkpt>
<trkpt lat="42.198098" lon="23.587539"><ele>2411.8</ele><time>2026-04-05T08:08:35.000Z</time></trkpt>
<trkpt lat="42.198098" lon="23.587539"><ele>2411.8</ele><time>2026-04-05T08:08:36.000Z</time></trkpt>
<trkpt lat="42.1981" lon="23.587539"><ele>2411.8</ele><time>2026-04-05T08:08:37.000Z</time></trkpt>
<trkpt lat="42.198105" lon="23.587537"><ele>2411.8</ele><time>2026-04-05T08:08:38.000Z</time></trkpt>
<trkpt lat="42.198111" lon="23.587534"><ele>2411.7</ele><time>2026-04-05T08:08:39.000Z</time></trkpt>
<trkpt lat="42.198117" lon="23.587531"><ele>2411.7</ele><time>2026-04-05T08:08:40.000Z</time></trkpt>
<trkpt lat="42.198122" lon="23.587527"><ele>2411.7</ele><time>2026-04-05T08:08:41.000Z</time></trkpt>
<trkpt lat="42.198122" lon="23.587522"><ele>2411.7</ele><time>2026-04-05T08:08:42.000Z</time></trkpt>
<trkpt lat="42.198119" lon="23.587515"><ele>2411.7</ele><time>2026-04-05T08:08:43.000Z</time></trkpt>
<trkpt lat="42.198114" lon="23.587506"><ele>2411.7</ele><time>2026-04-05T08:08:44.000Z</time></trkpt>
<trkpt lat="42.198108" lon="23.587495"><ele>2411.7</ele><time>2026-04-05T08:08:45.000Z</time></trkpt>
<trkpt lat="42.198102" lon="23.587483"><ele>2411.7</ele><time>2026-04-05T08:08:46.000Z</time></trkpt>
<trkpt lat="42.198096" lon="23.587473"><ele>2411.7</ele><time>2026-04-05T08:08:47.000Z</time></trkpt>
<trkpt lat="42.19809" lon="23.587467"><ele>2411.7</ele><time>2026-04-05T08:08:48.000Z</time></trkpt>
<trkpt lat="42.198086" lon="23.587465"><ele>2411.6</ele><time>2026-04-05T08:08:49.000Z</time></trkpt>
<trkpt lat="42.198082" lon="23.587465"><ele>2411.6</ele><time>2026-04-05T08:08:50.000Z</time></trkpt>
<trkpt lat="42.198079" lon="23.587467"><ele>2411.6</ele><time>2026-04-05T08:08:51.000Z</time></trkpt>
<trkpt lat="42.198076" lon="23.587469"><ele>2411.6</ele><time>2026-04-05T08:08:52.000Z</time></trkpt>
<trkpt lat="42.198075" lon="23.58747"><ele>2411.6</ele><time>2026-04-05T08:08:53.000Z</time></trkpt>
<trkpt lat="42.198074" lon="23.587471"><ele>2411.3</ele><time>2026-04-05T08:08:54.000Z</time></trkpt>
<trkpt lat="42.198072" lon="23.587471"><ele>2411.3</ele><time>2026-04-05T08:08:55.000Z</time></trkpt>
<trkpt lat="42.198072" lon="23.58747"><ele>2411.3</ele><time>2026-04-05T08:08:56.000Z</time></trkpt>
<trkpt lat="42.198071" lon="23.587469"><ele>2411.3</ele><time>2026-04-05T08:08:57.000Z</time></trkpt>
<trkpt lat="42.198071" lon="23.587468"><ele>2411.3</ele><time>2026-04-05T08:08:58.000Z</time></trkpt>
<trkpt lat="42.198071" lon="23.587466"><ele>2411.1</ele><time>2026-04-05T08:08:59.000Z</time></trkpt>
<trkpt lat="42.198072" lon="23.587464"><ele>2411.1</ele><time>2026-04-05T08:09:00.000Z</time></trkpt>
<trkpt lat="42.198073" lon="23.587464"><ele>2411.1</ele><time>2026-04-05T08:09:01.000Z</time></trkpt>
<trkpt lat="42.198074" lon="23.587464"><ele>2411.1</ele><time>2026-04-05T08:09:02.000Z</time></trkpt>
<trkpt lat="42.198076" lon="23.587464"><ele>2411.1</ele><time>2026-04-05T08:09:03.000Z</time></trkpt>
<trkpt lat="42.198078" lon="23.587463"><ele>2411.1</ele><time>2026-04-05T08:09:04.000Z</time></trkpt>
<trkpt lat="42.19808" lon="23.587463"><ele>2411.1</ele><time>2026-04-05T08:09:05.000Z</time></trkpt>
<trkpt lat="42.198081" lon="23.587462"><ele>2411.1</ele><time>2026-04-05T08:09:06.000Z</time></trkpt>
<trkpt lat="42.198083" lon="23.587461"><ele>2411.1</ele><time>2026-04-05T08:09:07.000Z</time></trkpt>
<trkpt lat="42.198085" lon="23.587459"><ele>2411.1</ele><time>2026-04-05T08:09:08.000Z</time></trkpt>
<trkpt lat="42.198087" lon="23.58746"><ele>2411.1</ele><time>2026-04-05T08:09:09.000Z</time></trkpt>
<trkpt lat="42.198087" lon="23.58746"><ele>2411.1</ele><time>2026-04-05T08:09:10.000Z</time></trkpt>
<trkpt lat="42.198088" lon="23.587461"><ele>2411.1</ele><time>2026-04-05T08:09:11.000Z</time></trkpt>
<trkpt lat="42.198089" lon="23.587462"><ele>2411.1</ele><time>2026-04-05T08:09:12.000Z</time></trkpt>
<trkpt lat="42.198089" lon="23.587464"><ele>2411.1</ele><time>2026-04-05T08:09:13.000Z</time></trkpt>
<trkpt lat="42.19809" lon="23.587466"><ele>2411.1</ele><time>2026-04-05T08:09:14.000Z</time></trkpt>
<trkpt lat="42.198091" lon="23.587466"><ele>2411.1</ele><time>2026-04-05T08:09:15.000Z</time></trkpt>
<trkpt lat="42.198093" lon="23.587466"><ele>2411.1</ele><time>2026-04-05T08:09:16.000Z</time></trkpt>
<trkpt lat="42.198094" lon="23.587464"><ele>2411.1</ele><time>2026-04-05T08:09:17.000Z</time></trkpt>
<trkpt lat="42.198096" lon="23.587462"><ele>2411.1</ele><time>2026-04-05T08:09:18.000Z</time></trkpt>
<trkpt lat="42.198098" lon="23.587459"><ele>2411.2</ele><time>2026-04-05T08:09:19.000Z</time></trkpt>
<trkpt lat="42.1981" lon="23.587459"><ele>2411.2</ele><time>2026-04-05T08:09:20.000Z</time></trkpt>
<trkpt lat="42.198101" lon="23.587458"><ele>2411.2</ele><time>2026-04-05T08:09:21.000Z</time></trkpt>
<trkpt lat="42.1981" lon="23.587459"><ele>2411.2</ele><time>2026-04-05T08:09:22.000Z</time></trkpt>
<trkpt lat="42.198099" lon="23.587459"><ele>2411.2</ele><time>2026-04-05T08:09:23.000Z</time></trkpt>
<trkpt lat="42.198098" lon="23.587458"><ele>2411.2</ele><time>2026-04-05T08:09:24.000Z</time></trkpt>
<trkpt lat="42.198098" lon="23.587455"><ele>2411.2</ele><time>2026-04-05T08:09:25.000Z</time></trkpt>
<trkpt lat="42.198098" lon="23.587452"><ele>2411.2</ele><time>2026-04-05T08:09:26.000Z</time></trkpt>
<trkpt lat="42.198099" lon="23.58745"><ele>2411.2</ele><time>2026-04-05T08:09:27.000Z</time></trkpt>
<trkpt lat="42.1981" lon="23.587447"><ele>2411.2</ele><time>2026-04-05T08:09:28.000Z</time></trkpt>
<trkpt lat="42.1981" lon="23.587443"><ele>2411.2</ele><time>2026-04-05T08:09:29.000Z</time></trkpt>
<trkpt lat="42.198102" lon="23.58744"><ele>2411.2</ele><time>2026-04-05T08:09:30.000Z</time></trkpt>
<trkpt lat="42.198104" lon="23.587436"><ele>2411.2</ele><time>2026-04-05T08:09:31.000Z</time></trkpt>
<trkpt lat="42.198106" lon="23.587434"><ele>2411.2</ele><time>2026-04-05T08:09:32.000Z</time></trkpt>
<trkpt lat="42.198107" lon="23.58743"><ele>2411.2</ele><time>2026-04-05T08:09:33.000Z</time></trkpt>
<trkpt lat="42.198109" lon="23.587428"><ele>2411.1</ele><time>2026-04-05T08:09:34.000Z</time></trkpt>
<trkpt lat="42.19811" lon="23.587427"><ele>2411.1</ele><time>2026-04-05T08:09:35.000Z</time></trkpt>
<trkpt lat="42.198109" lon="23.587427"><ele>2411.1</ele><time>2026-04-05T08:09:36.000Z</time></trkpt>
<trkpt lat="42.198109" lon="23.587427"><ele>2411.1</ele><time>2026-04-05T08:09:37.000Z</time></trkpt>
<trkpt lat="42.198108" lon="23.587426"><ele>2411.1</ele><time>2026-04-05T08:09:38.000Z</time></trkpt>
<trkpt lat="42.198107" lon="23.587425"><ele>2411.1</ele><time>2026-04-05T08:09:39.000Z</time></trkpt>
<trkpt lat="42.198107" lon="23.587424"><ele>2411.1</ele><time>2026-04-05T08:09:40.000Z</time></trkpt>
<trkpt lat="42.198108" lon="23.587422"><ele>2411.1</ele><time>2026-04-05T08:09:41.000Z</time></trkpt>
<trkpt lat="42.198108" lon="23.587421"><ele>2411.1</ele><time>2026-04-05T08:09:42.000Z</time></trkpt>
<trkpt lat="42.198109" lon="23.58742"><ele>2411.1</ele><time>2026-04-05T08:09:43.000Z</time></trkpt>
<trkpt lat="42.19811" lon="23.58742"><ele>2411.2</ele><time>2026-04-05T08:09:44.000Z</time></trkpt>
<trkpt lat="42.198111" lon="23.58742"><ele>2411.2</ele><time>2026-04-05T08:09:45.000Z</time></trkpt>
<trkpt lat="42.198111" lon="23.58742"><ele>2411.2</ele><time>2026-04-05T08:09:46.000Z</time></trkpt>
<trkpt lat="42.198112" lon="23.587419"><ele>2411.2</ele><time>2026-04-05T08:09:47.000Z</time></trkpt>
<trkpt lat="42.198112" lon="23.587419"><ele>2411.2</ele><time>2026-04-05T08:09:48.000Z</time></trkpt>
<trkpt lat="42.198112" lon="23.587418"><ele>2411.4</ele><time>2026-04-05T08:09:49.000Z</time></trkpt>
<trkpt lat="42.198113" lon="23.587419"><ele>2411.4</ele><time>2026-04-05T08:09:50.000Z</time></trkpt>
<trkpt lat="42.198113" lon="23.587421"><ele>2411.4</ele><time>2026-04-05T08:09:51.000Z</time></trkpt>
<trkpt lat="42.198113" lon="23.587426"><ele>2411.4</ele><time>2026-04-05T08:09:52.000Z</time></trkpt>
<trkpt lat="42.198112" lon="23.587432"><ele>2411.4</ele><time>2026-04-05T08:09:53.000Z</time></trkpt>
<trkpt lat="42.198111" lon="23.587438"><ele>2411.5</ele><time>2026-04-05T08:09:54.000Z</time></trkpt>
<trkpt lat="42.198111" lon="23.587441"><ele>2411.5</ele><time>2026-04-05T08:09:55.000Z</time></trkpt>
<trkpt lat="42.19811" lon="23.587442"><ele>2411.5</ele><time>2026-04-05T08:09:56.000Z</time></trkpt>
<trkpt lat="42.198109" lon="23.587439"><ele>2411.5</ele><time>2026-04-05T08:09:57.000Z</time></trkpt>
<trkpt lat="42.198109" lon="23.587436"><ele>2411.5</ele><time>2026-04-05T08:09:58.000Z</time></trkpt>
<trkpt lat="42.198108" lon="23.587434"><ele>2411.3</ele><time>2026-04-05T08:09:59.000Z</time></trkpt>
<trkpt lat="42.198107" lon="23.587434"><ele>2411.3</ele><time>2026-04-05T08:10:00.000Z</time></trkpt>
<trkpt lat="42.198105" lon="23.587435"><ele>2411.3</ele><time>2026-04-05T08:10:01.000Z</time></trkpt>
<trkpt lat="42.198102" lon="23.587437"><ele>2411.3</ele><time>2026-04-05T08:10:02.000Z</time></trkpt>
<trkpt lat="42.198101" lon="23.587439"><ele>2411.3</ele><time>2026-04-05T08:10:03.000Z</time></trkpt>
<trkpt lat="42.198099" lon="23.587439"><ele>2411.2</ele><time>2026-04-05T08:10:04.000Z</time></trkpt>
<trkpt lat="42.198098" lon="23.587438"><ele>2411.2</ele><time>2026-04-05T08:10:05.000Z</time></trkpt>
<trkpt lat="42.198098" lon="23.587437"><ele>2411.2</ele><time>2026-04-05T08:10:06.000Z</time></trkpt>
<trkpt lat="42.198098" lon="23.587436"><ele>2411.2</ele><time>2026-04-05T08:10:07.000Z</time></trkpt>
<trkpt lat="42.198097" lon="23.587436"><ele>2411.2</ele><time>2026-04-05T08:10:08.000Z</time></trkpt>
<trkpt lat="42.198095" lon="23.587437"><ele>2411.2</ele><time>2026-04-05T08:10:09.000Z</time></trkpt>
<trkpt lat="42.198093" lon="23.587439"><ele>2411.2</ele><time>2026-04-05T08:10:10.000Z</time></trkpt>
<trkpt lat="42.198091" lon="23.587441"><ele>2411.2</ele><time>2026-04-05T08:10:11.000Z</time></trkpt>
<trkpt lat="42.19809" lon="23.587444"><ele>2411.2</ele><time>2026-04-05T08:10:12.000Z</time></trkpt>
<trkpt lat="42.19809" lon="23.587447"><ele>2411.2</ele><time>2026-04-05T08:10:13.000Z</time></trkpt>
<trkpt lat="42.198091" lon="23.587449"><ele>2411.3</ele><time>2026-04-05T08:10:14.000Z</time></trkpt>
<trkpt lat="42.198092" lon="23.587451"><ele>2411.3</ele><time>2026-04-05T08:10:15.000Z</time></trkpt>
<trkpt lat="42.198092" lon="23.587451"><ele>2411.3</ele><time>2026-04-05T08:10:16.000Z</time></trkpt>
<trkpt lat="42.198091" lon="23.587452"><ele>2411.3</ele><time>2026-04-05T08:10:17.000Z</time></trkpt>
<trkpt lat="42.19809" lon="23.587452"><ele>2411.3</ele><time>2026-04-05T08:10:18.000Z</time></trkpt>
<trkpt lat="42.19809" lon="23.587452"><ele>2411.3</ele><time>2026-04-05T08:10:19.000Z</time></trkpt>
<trkpt lat="42.198091" lon="23.58745"><ele>2411.3</ele><time>2026-04-05T08:10:20.000Z</time></trkpt>
<trkpt lat="42.198092" lon="23.587449"><ele>2411.3</ele><time>2026-04-05T08:10:21.000Z</time></trkpt>
<trkpt lat="42.198093" lon="23.587448"><ele>2411.3</ele><time>2026-04-05T08:10:22.000Z</time></trkpt>
<trkpt lat="42.198096" lon="23.587448"><ele>2411.3</ele><time>2026-04-05T08:10:23.000Z</time></trkpt>
<trkpt lat="42.198098" lon="23.587447"><ele>2411.3</ele><time>2026-04-05T08:10:24.000Z</time></trkpt>
<trkpt lat="42.1981" lon="23.587446"><ele>2411.3</ele><time>2026-04-05T08:10:25.000Z</time></trkpt>
<trkpt lat="42.198102" lon="23.587446"><ele>2411.3</ele><time>2026-04-05T08:10:26.000Z</time></trkpt>
<trkpt lat="42.198104" lon="23.587445"><ele>2411.3</ele><time>2026-04-05T08:10:27.000Z</time></trkpt>
<trkpt lat="42.198106" lon="23.587445"><ele>2411.3</ele><time>2026-04-05T08:10:28.000Z</time></trkpt>
<trkpt lat="42.198107" lon="23.587444"><ele>2411.4</ele><time>2026-04-05T08:10:29.000Z</time></trkpt>
<trkpt lat="42.198108" lon="23.587443"><ele>2411.4</ele><time>2026-04-05T08:10:30.000Z</time></trkpt>
<trkpt lat="42.198107" lon="23.587441"><ele>2411.4</ele><time>2026-04-05T08:10:31.000Z</time></trkpt>
<trkpt lat="42.198106" lon="23.587439"><ele>2411.4</ele><time>2026-04-05T08:10:32.000Z</time></trkpt>
<trkpt lat="42.198105" lon="23.587437"><ele>2411.4</ele><time>2026-04-05T08:10:33.000Z</time></trkpt>
<trkpt lat="42.198105" lon="23.587437"><ele>2411.5</ele><time>2026-04-05T08:10:34.000Z</time></trkpt>
<trkpt lat="42.198104" lon="23.587438"><ele>2411.5</ele><time>2026-04-05T08:10:35.000Z</time></trkpt>
<trkpt lat="42.198103" lon="23.587438"><ele>2411.5</ele><time>2026-04-05T08:10:36.000Z</time></trkpt>
<trkpt lat="42.198105" lon="23.587439"><ele>2411.5</ele><time>2026-04-05T08:10:37.000Z</time></trkpt>
<trkpt lat="42.198107" lon="23.58744"><ele>2411.5</ele><time>2026-04-05T08:10:38.000Z</time></trkpt>
<trkpt lat="42.19811" lon="23.58744"><ele>2411.5</ele><time>2026-04-05T08:10:39.000Z</time></trkpt>
<trkpt lat="42.198113" lon="23.587438"><ele>2411.5</ele><time>2026-04-05T08:10:40.000Z</time></trkpt>
<trkpt lat="42.198115" lon="23.587437"><ele>2411.5</ele><time>2026-04-05T08:10:41.000Z</time></trkpt>
<trkpt lat="42.198116" lon="23.587437"><ele>2411.5</ele><time>2026-04-05T08:10:42.000Z</time></trkpt>
<trkpt lat="42.198115" lon="23.587437"><ele>2411.5</ele><time>2026-04-05T08:10:43.000Z</time></trkpt>
<trkpt lat="42.198115" lon="23.587436"><ele>2411.4</ele><time>2026-04-05T08:10:44.000Z</time></trkpt>
<trkpt lat="42.198115" lon="23.587436"><ele>2411.4</ele><time>2026-04-05T08:10:45.000Z</time></trkpt>
<trkpt lat="42.198115" lon="23.587436"><ele>2411.4</ele><time>2026-04-05T08:10:46.000Z</time></trkpt>
<trkpt lat="42.198116" lon="23.587435"><ele>2411.4</ele><time>2026-04-05T08:10:47.000Z</time></trkpt>
<trkpt lat="42.198116" lon="23.587434"><ele>2411.4</ele><time>2026-04-05T08:10:48.000Z</time></trkpt>
<trkpt lat="42.198116" lon="23.587434"><ele>2411.3</ele><time>2026-04-05T08:10:49.000Z</time></trkpt>
<trkpt lat="42.198116" lon="23.587434"><ele>2411.3</ele><time>2026-04-05T08:10:50.000Z</time></trkpt>
<trkpt lat="42.198116" lon="23.587434"><ele>2411.3</ele><time>2026-04-05T08:10:51.000Z</time></trkpt>
<trkpt lat="42.198116" lon="23.587435"><ele>2411.3</ele><time>2026-04-05T08:10:52.000Z</time></trkpt>
<trkpt lat="42.198116" lon="23.587435"><ele>2411.3</ele><time>2026-04-05T08:10:53.000Z</time></trkpt>
<trkpt lat="42.198116" lon="23.587436"><ele>2411.2</ele><time>2026-04-05T08:10:54.000Z</time></trkpt>
<trkpt lat="42.198117" lon="23.587436"><ele>2411.2</ele><time>2026-04-05T08:10:55.000Z</time></trkpt>
<trkpt lat="42.198118" lon="23.587437"><ele>2411.2</ele><time>2026-04-05T08:10:56.000Z</time></trkpt>
<trkpt lat="42.198118" lon="23.587437"><ele>2411.2</ele><time>2026-04-05T08:10:57.000Z</time></trkpt>
<trkpt lat="42.198118" lon="23.587438"><ele>2411.2</ele><time>2026-04-05T08:10:58.000Z</time></trkpt>
<trkpt lat="42.198117" lon="23.587439"><ele>2411.2</ele><time>2026-04-05T08:10:59.000Z</time></trkpt>
<trkpt lat="42.198117" lon="23.58744"><ele>2411.2</ele><time>2026-04-05T08:11:00.000Z</time></trkpt>
<trkpt lat="42.198116" lon="23.587441"><ele>2411.2</ele><time>2026-04-05T08:11:01.000Z</time></trkpt>
<trkpt lat="42.198115" lon="23.587441"><ele>2411.2</ele><time>2026-04-05T08:11:02.000Z</time></trkpt>
<trkpt lat="42.198114" lon="23.587442"><ele>2411.2</ele><time>2026-04-05T08:11:03.000Z</time></trkpt>
<trkpt lat="42.198114" lon="23.587441"><ele>2411.2</ele><time>2026-04-05T08:11:04.000Z</time></trkpt>
<trkpt lat="42.198113" lon="23.587441"><ele>2411.2</ele><time>2026-04-05T08:11:05.000Z</time></trkpt>
<trkpt lat="42.198113" lon="23.58744"><ele>2411.2</ele><time>2026-04-05T08:11:06.000Z</time></trkpt>
<trkpt lat="42.198112" lon="23.58744"><ele>2411.2</ele><time>2026-04-05T08:11:07.000Z</time></trkpt>
<trkpt lat="42.198112" lon="23.587439"><ele>2411.2</ele><time>2026-04-05T08:11:08.000Z</time></trkpt>
<trkpt lat="42.198112" lon="23.587438"><ele>2411.1</ele><time>2026-04-05T08:11:09.000Z</time></trkpt>
<trkpt lat="42.198111" lon="23.587437"><ele>2411.1</ele><time>2026-04-05T08:11:10.000Z</time></trkpt>
<trkpt lat="42.198111" lon="23.587437"><ele>2411.1</ele><time>2026-04-05T08:11:11.000Z</time></trkpt>
<trkpt lat="42.19811" lon="23.587436"><ele>2411.1</ele><time>2026-04-05T08:11:12.000Z</time></trkpt>
<trkpt lat="42.19811" lon="23.587436"><ele>2411.1</ele><time>2026-04-05T08:11:13.000Z</time></trkpt>
<trkpt lat="42.19811" lon="23.587436"><ele>2411</ele><time>2026-04-05T08:11:14.000Z</time></trkpt>
<trkpt lat="42.19811" lon="23.587436"><ele>2411</ele><time>2026-04-05T08:11:15.000Z</time></trkpt>
<trkpt lat="42.19811" lon="23.587436"><ele>2411</ele><time>2026-04-05T08:11:16.000Z</time></trkpt>
<trkpt lat="42.19811" lon="23.587436"><ele>2411</ele><time>2026-04-05T08:11:17.000Z</time></trkpt>
<trkpt lat="42.198111" lon="23.587437"><ele>2411</ele><time>2026-04-05T08:11:18.000Z</time></trkpt>
<trkpt lat="42.198111" lon="23.587437"><ele>2410.9</ele><time>2026-04-05T08:11:19.000Z</time></trkpt>
<trkpt lat="42.198111" lon="23.587437"><ele>2410.9</ele><time>2026-04-05T08:11:20.000Z</time></trkpt>
<trkpt lat="42.198111" lon="23.587438"><ele>2410.9</ele><time>2026-04-05T08:11:21.000Z</time></trkpt>
<trkpt lat="42.198111" lon="23.587438"><ele>2410.9</ele><time>2026-04-05T08:11:22.000Z</time></trkpt>
<trkpt lat="42.198111" lon="23.587437"><ele>2410.9</ele><time>2026-04-05T08:11:23.000Z</time></trkpt>
<trkpt lat="42.198112" lon="23.587437"><ele>2410.9</ele><time>2026-04-05T08:11:24.000Z</time></trkpt>
<trkpt lat="42.198112" lon="23.587437"><ele>2410.9</ele><time>2026-04-05T08:11:25.000Z</time></trkpt>
<trkpt lat="42.198112" lon="23.587436"><ele>2410.9</ele><time>2026-04-05T08:11:26.000Z</time></trkpt>
<trkpt lat="42.198113" lon="23.587435"><ele>2410.9</ele><time>2026-04-05T08:11:27.000Z</time></trkpt>
<trkpt lat="42.198113" lon="23.587435"><ele>2410.9</ele><time>2026-04-05T08:11:28.000Z</time></trkpt>
<trkpt lat="42.198113" lon="23.587434"><ele>2410.9</ele><time>2026-04-05T08:11:29.000Z</time></trkpt>
<trkpt lat="42.198114" lon="23.587434"><ele>2410.9</ele><time>2026-04-05T08:11:30.000Z</time></trkpt>
<trkpt lat="42.198114" lon="23.587434"><ele>2410.9</ele><time>2026-04-05T08:11:31.000Z</time></trkpt>
<trkpt lat="42.198113" lon="23.587435"><ele>2410.9</ele><time>2026-04-05T08:11:32.000Z</time></trkpt>
<trkpt lat="42.198112" lon="23.587435"><ele>2410.9</ele><time>2026-04-05T08:11:33.000Z</time></trkpt>
<trkpt lat="42.198111" lon="23.587436"><ele>2410.9</ele><time>2026-04-05T08:11:34.000Z</time></trkpt>
<trkpt lat="42.198109" lon="23.587438"><ele>2410.9</ele><time>2026-04-05T08:11:35.000Z</time></trkpt>
<trkpt lat="42.198107" lon="23.587439"><ele>2410.9</ele><time>2026-04-05T08:11:36.000Z</time></trkpt>
<trkpt lat="42.198107" lon="23.58744"><ele>2410.9</ele><time>2026-04-05T08:11:37.000Z</time></trkpt>
<trkpt lat="42.198106" lon="23.587441"><ele>2410.9</ele><time>2026-04-05T08:11:38.000Z</time></trkpt>
<trkpt lat="42.198106" lon="23.587441"><ele>2410.9</ele><time>2026-04-05T08:11:39.000Z</time></trkpt>
<trkpt lat="42.198106" lon="23.587441"><ele>2410.9</ele><time>2026-04-05T08:11:40.000Z</time></trkpt>
<trkpt lat="42.198107" lon="23.58744"><ele>2410.9</ele><time>2026-04-05T08:11:41.000Z</time></trkpt>
<trkpt lat="42.198107" lon="23.58744"><ele>2410.9</ele><time>2026-04-05T08:11:42.000Z</time></trkpt>
<trkpt lat="42.198107" lon="23.58744"><ele>2410.9</ele><time>2026-04-05T08:11:43.000Z</time></trkpt>
<trkpt lat="42.198107" lon="23.58744"><ele>2410.9</ele><time>2026-04-05T08:11:44.000Z</time></trkpt>
<trkpt lat="42.198107" lon="23.58744"><ele>2410.9</ele><time>2026-04-05T08:11:45.000Z</time></trkpt>
<trkpt lat="42.198107" lon="23.58744"><ele>2410.9</ele><time>2026-04-05T08:11:46.000Z</time></trkpt>
<trkpt lat="42.198107" lon="23.58744"><ele>2410.9</ele><time>2026-04-05T08:11:47.000Z</time></trkpt>
<trkpt lat="42.198107" lon="23.58744"><ele>2410.9</ele><time>2026-04-05T08:11:48.000Z</time></trkpt>
<trkpt lat="42.198107" lon="23.58744"><ele>2410.9</ele><time>2026-04-05T08:11:49.000Z</time></trkpt>
<trkpt lat="42.198107" lon="23.58744"><ele>2410.9</ele><time>2026-04-05T08:11:50.000Z</time></trkpt>
<trkpt lat="42.198107" lon="23.58744"><ele>2410.9</ele><time>2026-04-05T08:11:51.000Z</time></trkpt>
<trkpt lat="42.198108" lon="23.587439"><ele>2410.9</ele><time>2026-04-05T08:11:52.000Z</time></trkpt>
<trkpt lat="42.198108" lon="23.587439"><ele>2410.9</ele><time>2026-04-05T08:11:53.000Z</time></trkpt>
<trkpt lat="42.198108" lon="23.587439"><ele>2411</ele><time>2026-04-05T08:11:54.000Z</time></trkpt>
<trkpt lat="42.198108" lon="23.587439"><ele>2411</ele><time>2026-04-05T08:11:55.000Z</time></trkpt>
<trkpt lat="42.198108" lon="23.587439"><ele>2411</ele><time>2026-04-05T08:11:56.000Z</time></trkpt>
<trkpt lat="42.198108" lon="23.587439"><ele>2411</ele><time>2026-04-05T08:11:57.000Z</time></trkpt>
<trkpt lat="42.198108" lon="23.587439"><ele>2411</ele><time>2026-04-05T08:11:58.000Z</time></trkpt>
<trkpt lat="42.198108" lon="23.587439"><ele>2411.2</ele><time>2026-04-05T08:11:59.000Z</time></trkpt>
<trkpt lat="42.198108" lon="23.587438"><ele>2411.2</ele><time>2026-04-05T08:12:00.000Z</time></trkpt>
<trkpt lat="42.198109" lon="23.587438"><ele>2411.2</ele><time>2026-04-05T08:12:01.000Z</time></trkpt>
<trkpt lat="42.198109" lon="23.587437"><ele>2411.2</ele><time>2026-04-05T08:12:02.000Z</time></trkpt>
<trkpt lat="42.198109" lon="23.587437"><ele>2411.2</ele><time>2026-04-05T08:12:03.000Z</time></trkpt>
<trkpt lat="42.198109" lon="23.587437"><ele>2411.2</ele><time>2026-04-05T08:12:04.000Z</time></trkpt>
<trkpt lat="42.198109" lon="23.587437"><ele>2411.2</ele><time>2026-04-05T08:12:05.000Z</time></trkpt>
<trkpt lat="42.198109" lon="23.587437"><ele>2411.2</ele><time>2026-04-05T08:12:06.000Z</time></trkpt>
<trkpt lat="42.198109" lon="23.587437"><ele>2411.2</ele><time>2026-04-05T08:12:07.000Z</time></trkpt>
<trkpt lat="42.198109" lon="23.587437"><ele>2411.2</ele><time>2026-04-05T08:12:08.000Z</time></trkpt>
<trkpt lat="42.198109" lon="23.587437"><ele>2411.3</ele><time>2026-04-05T08:12:09.000Z</time></trkpt>
<trkpt lat="42.198109" lon="23.587437"><ele>2411.3</ele><time>2026-04-05T08:12:10.000Z</time></trkpt>
<trkpt lat="42.198109" lon="23.587437"><ele>2411.3</ele><time>2026-04-05T08:12:11.000Z</time></trkpt>
<trkpt lat="42.198109" lon="23.587437"><ele>2411.3</ele><time>2026-04-05T08:12:12.000Z</time></trkpt>
<trkpt lat="42.198109" lon="23.587437"><ele>2411.3</ele><time>2026-04-05T08:12:13.000Z</time></trkpt>
<trkpt lat="42.198109" lon="23.587437"><ele>2411.3</ele><time>2026-04-05T08:12:14.000Z</time></trkpt>
<trkpt lat="42.198109" lon="23.587437"><ele>2411.3</ele><time>2026-04-05T08:12:15.000Z</time></trkpt>
<trkpt lat="42.19811" lon="23.587436"><ele>2411.3</ele><time>2026-04-05T08:12:16.000Z</time></trkpt>
<trkpt lat="42.19811" lon="23.587436"><ele>2411.3</ele><time>2026-04-05T08:12:17.000Z</time></trkpt>
<trkpt lat="42.198111" lon="23.587436"><ele>2411.3</ele><time>2026-04-05T08:12:18.000Z</time></trkpt>
<trkpt lat="42.198111" lon="23.587436"><ele>2411.3</ele><time>2026-04-05T08:12:19.000Z</time></trkpt>
<trkpt lat="42.198112" lon="23.587435"><ele>2411.3</ele><time>2026-04-05T08:12:20.000Z</time></trkpt>
<trkpt lat="42.198112" lon="23.587434"><ele>2411.3</ele><time>2026-04-05T08:12:21.000Z</time></trkpt>
<trkpt lat="42.198113" lon="23.587434"><ele>2411.3</ele><time>2026-04-05T08:12:22.000Z</time></trkpt>
<trkpt lat="42.198113" lon="23.587433"><ele>2411.3</ele><time>2026-04-05T08:12:23.000Z</time></trkpt>
<trkpt lat="42.198114" lon="23.587432"><ele>2411.3</ele><time>2026-04-05T08:12:24.000Z</time></trkpt>
<trkpt lat="42.198114" lon="23.587432"><ele>2411.3</ele><time>2026-04-05T08:12:25.000Z</time></trkpt>
<trkpt lat="42.198114" lon="23.587432"><ele>2411.3</ele><time>2026-04-05T08:12:26.000Z</time></trkpt>
<trkpt lat="42.198115" lon="23.587432"><ele>2411.3</ele><time>2026-04-05T08:12:27.000Z</time></trkpt>
<trkpt lat="42.198115" lon="23.587432"><ele>2411.3</ele><time>2026-04-05T08:12:28.000Z</time></trkpt>
<trkpt lat="42.198114" lon="23.587432"><ele>2411.2</ele><time>2026-04-05T08:12:29.000Z</time></trkpt>
<trkpt lat="42.198114" lon="23.587432"><ele>2411.2</ele><time>2026-04-05T08:12:30.000Z</time></trkpt>
<trkpt lat="42.198113" lon="23.587432"><ele>2411.2</ele><time>2026-04-05T08:12:31.000Z</time></trkpt>
<trkpt lat="42.198113" lon="23.587433"><ele>2411.2</ele><time>2026-04-05T08:12:32.000Z</time></trkpt>
<trkpt lat="42.198112" lon="23.587433"><ele>2411.2</ele><time>2026-04-05T08:12:33.000Z</time></trkpt>
<trkpt lat="42.198111" lon="23.587433"><ele>2411.1</ele><time>2026-04-05T08:12:34.000Z</time></trkpt>
<trkpt lat="42.19811" lon="23.587433"><ele>2411.1</ele><time>2026-04-05T08:12:35.000Z</time></trkpt>
<trkpt lat="42.19811" lon="23.587432"><ele>2411.1</ele><time>2026-04-05T08:12:36.000Z</time></trkpt>
<trkpt lat="42.198109" lon="23.587432"><ele>2411.1</ele><time>2026-04-05T08:12:37.000Z</time></trkpt>
<trkpt lat="42.198108" lon="23.587433"><ele>2411.1</ele><time>2026-04-05T08:12:38.000Z</time></trkpt>
<trkpt lat="42.198108" lon="23.587434"><ele>2411.1</ele><time>2026-04-05T08:12:39.000Z</time></trkpt>
<trkpt lat="42.198108" lon="23.587435"><ele>2411.1</ele><time>2026-04-05T08:12:40.000Z</time></trkpt>
<trkpt lat="42.198109" lon="23.587437"><ele>2411.1</ele><time>2026-04-05T08:12:41.000Z</time></trkpt>
<trkpt lat="42.198109" lon="23.587439"><ele>2411.1</ele><time>2026-04-05T08:12:42.000Z</time></trkpt>
<trkpt lat="42.198109" lon="23.58744"><ele>2411.1</ele><time>2026-04-05T08:12:43.000Z</time></trkpt>
<trkpt lat="42.198108" lon="23.587441"><ele>2411.1</ele><time>2026-04-05T08:12:44.000Z</time></trkpt>
<trkpt lat="42.198108" lon="23.587441"><ele>2411.1</ele><time>2026-04-05T08:12:45.000Z</time></trkpt>
<trkpt lat="42.198108" lon="23.587441"><ele>2411.1</ele><time>2026-04-05T08:12:46.000Z</time></trkpt>
<trkpt lat="42.198108" lon="23.587442"><ele>2411.1</ele><time>2026-04-05T08:12:47.000Z</time></trkpt>
<trkpt lat="42.198108" lon="23.587442"><ele>2411.1</ele><time>2026-04-05T08:12:48.000Z</time></trkpt>
<trkpt lat="42.198107" lon="23.587442"><ele>2411.1</ele><time>2026-04-05T08:12:49.000Z</time></trkpt>
<trkpt lat="42.198107" lon="23.587442"><ele>2411.1</ele><time>2026-04-05T08:12:50.000Z</time></trkpt>
<trkpt lat="42.198107" lon="23.587442"><ele>2411.1</ele><time>2026-04-05T08:12:51.000Z</time></trkpt>
<trkpt lat="42.198107" lon="23.587443"><ele>2411.1</ele><time>2026-04-05T08:12:52.000Z</time></trkpt>
<trkpt lat="42.198107" lon="23.587444"><ele>2411.1</ele><time>2026-04-05T08:12:53.000Z</time></trkpt>
<trkpt lat="42.198107" lon="23.587445"><ele>2410.9</ele><time>2026-04-05T08:12:54.000Z</time></trkpt>
<trkpt lat="42.198108" lon="23.587446"><ele>2410.9</ele><time>2026-04-05T08:12:55.000Z</time></trkpt>
<trkpt lat="42.198109" lon="23.587447"><ele>2410.9</ele><time>2026-04-05T08:12:56.000Z</time></trkpt>
<trkpt lat="42.19811" lon="23.587448"><ele>2410.9</ele><time>2026-04-05T08:12:57.000Z</time></trkpt>
<trkpt lat="42.198111" lon="23.587448"><ele>2410.9</ele><time>2026-04-05T08:12:58.000Z</time></trkpt>
<trkpt lat="42.198112" lon="23.587448"><ele>2410.9</ele><time>2026-04-05T08:12:59.000Z</time></trkpt>
<trkpt lat="42.198112" lon="23.587448"><ele>2410.9</ele><time>2026-04-05T08:13:00.000Z</time></trkpt>
<trkpt lat="42.198111" lon="23.587448"><ele>2410.9</ele><time>2026-04-05T08:13:01.000Z</time></trkpt>
<trkpt lat="42.198111" lon="23.587448"><ele>2410.9</ele><time>2026-04-05T08:13:02.000Z</time></trkpt>
<trkpt lat="42.198111" lon="23.587448"><ele>2410.9</ele><time>2026-04-05T08:13:03.000Z</time></trkpt>
<trkpt lat="42.19811" lon="23.587448"><ele>2411</ele><time>2026-04-05T08:13:04.000Z</time></trkpt>
<trkpt lat="42.198109" lon="23.587448"><ele>2411</ele><time>2026-04-05T08:13:05.000Z</time></trkpt>
<trkpt lat="42.198108" lon="23.587447"><ele>2411</ele><time>2026-04-05T08:13:06.000Z</time></trkpt>
<trkpt lat="42.198108" lon="23.587447"><ele>2411</ele><time>2026-04-05T08:13:07.000Z</time></trkpt>
<trkpt lat="42.198107" lon="23.587447"><ele>2411</ele><time>2026-04-05T08:13:08.000Z</time></trkpt>
<trkpt lat="42.198107" lon="23.587446"><ele>2411</ele><time>2026-04-05T08:13:09.000Z</time></trkpt>
<trkpt lat="42.198107" lon="23.587446"><ele>2411</ele><time>2026-04-05T08:13:10.000Z</time></trkpt>
<trkpt lat="42.198108" lon="23.587445"><ele>2411</ele><time>2026-04-05T08:13:11.000Z</time></trkpt>
<trkpt lat="42.198108" lon="23.587445"><ele>2411</ele><time>2026-04-05T08:13:12.000Z</time></trkpt>
<trkpt lat="42.198108" lon="23.587445"><ele>2411</ele><time>2026-04-05T08:13:13.000Z</time></trkpt>
<trkpt lat="42.198108" lon="23.587445"><ele>2410.9</ele><time>2026-04-05T08:13:14.000Z</time></trkpt>
<trkpt lat="42.198108" lon="23.587445"><ele>2410.9</ele><time>2026-04-05T08:13:15.000Z</time></trkpt>
<trkpt lat="42.198109" lon="23.587445"><ele>2410.9</ele><time>2026-04-05T08:13:16.000Z</time></trkpt>
<trkpt lat="42.198109" lon="23.587444"><ele>2410.9</ele><time>2026-04-05T08:13:17.000Z</time></trkpt>
<trkpt lat="42.198109" lon="23.587444"><ele>2410.9</ele><time>2026-04-05T08:13:18.000Z</time></trkpt>
<trkpt lat="42.198109" lon="23.587444"><ele>2410.8</ele><time>2026-04-05T08:13:19.000Z</time></trkpt>
<trkpt lat="42.198109" lon="23.587444"><ele>2410.8</ele><time>2026-04-05T08:13:20.000Z</time></trkpt>
<trkpt lat="42.198109" lon="23.587443"><ele>2410.8</ele><time>2026-04-05T08:13:21.000Z</time></trkpt>
<trkpt lat="42.198109" lon="23.587442"><ele>2410.8</ele><time>2026-04-05T08:13:22.000Z</time></trkpt>
<trkpt lat="42.198109" lon="23.587441"><ele>2410.8</ele><time>2026-04-05T08:13:23.000Z</time></trkpt>
<trkpt lat="42.198109" lon="23.587439"><ele>2410.7</ele><time>2026-04-05T08:13:24.000Z</time></trkpt>
<trkpt lat="42.198109" lon="23.587438"><ele>2410.7</ele><time>2026-04-05T08:13:25.000Z</time></trkpt>
<trkpt lat="42.198108" lon="23.587438"><ele>2410.7</ele><time>2026-04-05T08:13:26.000Z</time></trkpt>
<trkpt lat="42.198108" lon="23.587438"><ele>2410.7</ele><time>2026-04-05T08:13:27.000Z</time></trkpt>
<trkpt lat="42.198107" lon="23.587438"><ele>2410.7</ele><time>2026-04-05T08:13:28.000Z</time></trkpt>
<trkpt lat="42.198107" lon="23.587438"><ele>2410.8</ele><time>2026-04-05T08:13:29.000Z</time></trkpt>
<trkpt lat="42.198106" lon="23.587439"><ele>2410.8</ele><time>2026-04-05T08:13:30.000Z</time></trkpt>
<trkpt lat="42.198106" lon="23.587438"><ele>2410.8</ele><time>2026-04-05T08:13:31.000Z</time></trkpt>
<trkpt lat="42.198106" lon="23.587439"><ele>2410.8</ele><time>2026-04-05T08:13:32.000Z</time></trkpt>
<trkpt lat="42.198106" lon="23.58744"><ele>2410.8</ele><time>2026-04-05T08:13:33.000Z</time></trkpt>
<trkpt lat="42.198106" lon="23.58744"><ele>2410.8</ele><time>2026-04-05T08:13:34.000Z</time></trkpt>
<trkpt lat="42.198106" lon="23.587441"><ele>2410.8</ele><time>2026-04-05T08:13:35.000Z</time></trkpt>
<trkpt lat="42.198106" lon="23.587442"><ele>2410.8</ele><time>2026-04-05T08:13:36.000Z</time></trkpt>
<trkpt lat="42.198105" lon="23.587442"><ele>2410.8</ele><time>2026-04-05T08:13:37.000Z</time></trkpt>
<trkpt lat="42.198104" lon="23.587443"><ele>2410.8</ele><time>2026-04-05T08:13:38.000Z</time></trkpt>
<trkpt lat="42.198103" lon="23.587444"><ele>2410.9</ele><time>2026-04-05T08:13:39.000Z</time></trkpt>
<trkpt lat="42.198103" lon="23.587445"><ele>2410.9</ele><time>2026-04-05T08:13:40.000Z</time></trkpt>
<trkpt lat="42.198103" lon="23.587445"><ele>2410.9</ele><time>2026-04-05T08:13:41.000Z</time></trkpt>
<trkpt lat="42.198102" lon="23.587445"><ele>2410.9</ele><time>2026-04-05T08:13:42.000Z</time></trkpt>
<trkpt lat="42.198102" lon="23.587445"><ele>2410.9</ele><time>2026-04-05T08:13:43.000Z</time></trkpt>
<trkpt lat="42.198102" lon="23.587445"><ele>2410.9</ele><time>2026-04-05T08:13:44.000Z</time></trkpt>
<trkpt lat="42.198102" lon="23.587444"><ele>2410.9</ele><time>2026-04-05T08:13:45.000Z</time></trkpt>
<trkpt lat="42.198102" lon="23.587442"><ele>2410.9</ele><time>2026-04-05T08:13:46.000Z</time></trkpt>
<trkpt lat="42.198103" lon="23.587441"><ele>2410.9</ele><time>2026-04-05T08:13:47.000Z</time></trkpt>
<trkpt lat="42.198104" lon="23.587439"><ele>2410.9</ele><time>2026-04-05T08:13:48.000Z</time></trkpt>
<trkpt lat="42.198104" lon="23.587439"><ele>2410.9</ele><time>2026-04-05T08:13:49.000Z</time></trkpt>
<trkpt lat="42.198105" lon="23.587439"><ele>2410.9</ele><time>2026-04-05T08:13:50.000Z</time></trkpt>
<trkpt lat="42.198105" lon="23.58744"><ele>2410.9</ele><time>2026-04-05T08:13:51.000Z</time></trkpt>
<trkpt lat="42.198104" lon="23.58744"><ele>2410.9</ele><time>2026-04-05T08:13:52.000Z</time></trkpt>
<trkpt lat="42.198104" lon="23.58744"><ele>2410.9</ele><time>2026-04-05T08:13:53.000Z</time></trkpt>
<trkpt lat="42.198103" lon="23.587439"><ele>2410.7</ele><time>2026-04-05T08:13:54.000Z</time></trkpt>
<trkpt lat="42.198103" lon="23.587439"><ele>2410.7</ele><time>2026-04-05T08:13:55.000Z</time></trkpt>
<trkpt lat="42.198103" lon="23.587439"><ele>2410.7</ele><time>2026-04-05T08:13:56.000Z</time></trkpt>
<trkpt lat="42.198102" lon="23.587439"><ele>2410.7</ele><time>2026-04-05T08:13:57.000Z</time></trkpt>
<trkpt lat="42.198102" lon="23.587439"><ele>2410.7</ele><time>2026-04-05T08:13:58.000Z</time></trkpt>
<trkpt lat="42.198102" lon="23.58744"><ele>2410.5</ele><time>2026-04-05T08:13:59.000Z</time></trkpt>
<trkpt lat="42.198101" lon="23.58744"><ele>2410.5</ele><time>2026-04-05T08:14:00.000Z</time></trkpt>
<trkpt lat="42.198101" lon="23.58744"><ele>2410.5</ele><time>2026-04-05T08:14:01.000Z</time></trkpt>
<trkpt lat="42.198101" lon="23.58744"><ele>2410.5</ele><time>2026-04-05T08:14:02.000Z</time></trkpt>
<trkpt lat="42.198101" lon="23.58744"><ele>2410.5</ele><time>2026-04-05T08:14:03.000Z</time></trkpt>
<trkpt lat="42.198101" lon="23.58744"><ele>2410.4</ele><time>2026-04-05T08:14:04.000Z</time></trkpt>
<trkpt lat="42.1981" lon="23.58744"><ele>2410.4</ele><time>2026-04-05T08:14:05.000Z</time></trkpt>
<trkpt lat="42.198099" lon="23.58744"><ele>2410.4</ele><time>2026-04-05T08:14:06.000Z</time></trkpt>
<trkpt lat="42.198099" lon="23.58744"><ele>2410.4</ele><time>2026-04-05T08:14:07.000Z</time></trkpt>
<trkpt lat="42.198099" lon="23.587438"><ele>2410.4</ele><time>2026-04-05T08:14:08.000Z</time></trkpt>
<trkpt lat="42.1981" lon="23.587437"><ele>2410.4</ele><time>2026-04-05T08:14:09.000Z</time></trkpt>
<trkpt lat="42.198102" lon="23.587435"><ele>2410.4</ele><time>2026-04-05T08:14:10.000Z</time></trkpt>
<trkpt lat="42.198104" lon="23.587432"><ele>2410.4</ele><time>2026-04-05T08:14:11.000Z</time></trkpt>
<trkpt lat="42.198105" lon="23.587429"><ele>2410.4</ele><time>2026-04-05T08:14:12.000Z</time></trkpt>
<trkpt lat="42.198106" lon="23.587427"><ele>2410.4</ele><time>2026-04-05T08:14:13.000Z</time></trkpt>
<trkpt lat="42.198106" lon="23.587426"><ele>2410.5</ele><time>2026-04-05T08:14:14.000Z</time></trkpt>
<trkpt lat="42.198106" lon="23.587426"><ele>2410.5</ele><time>2026-04-05T08:14:15.000Z</time></trkpt>
<trkpt lat="42.198105" lon="23.587428"><ele>2410.5</ele><time>2026-04-05T08:14:16.000Z</time></trkpt>
<trkpt lat="42.198105" lon="23.58743"><ele>2410.5</ele><time>2026-04-05T08:14:17.000Z</time></trkpt>
<trkpt lat="42.198104" lon="23.587432"><ele>2410.5</ele><time>2026-04-05T08:14:18.000Z</time></trkpt>
<trkpt lat="42.198103" lon="23.587433"><ele>2410.5</ele><time>2026-04-05T08:14:19.000Z</time></trkpt>
<trkpt lat="42.198103" lon="23.587434"><ele>2410.5</ele><time>2026-04-05T08:14:20.000Z</time></trkpt>
<trkpt lat="42.198104" lon="23.587433"><ele>2410.5</ele><time>2026-04-05T08:14:21.000Z</time></trkpt>
<trkpt lat="42.198105" lon="23.587432"><ele>2410.5</ele><time>2026-04-05T08:14:22.000Z</time></trkpt>
<trkpt lat="42.198107" lon="23.587431"><ele>2410.5</ele><time>2026-04-05T08:14:23.000Z</time></trkpt>
<trkpt lat="42.198109" lon="23.58743"><ele>2410.4</ele><time>2026-04-05T08:14:24.000Z</time></trkpt>
<trkpt lat="42.198111" lon="23.587429"><ele>2410.4</ele><time>2026-04-05T08:14:25.000Z</time></trkpt>
<trkpt lat="42.198112" lon="23.587429"><ele>2410.4</ele><time>2026-04-05T08:14:26.000Z</time></trkpt>
<trkpt lat="42.198113" lon="23.587428"><ele>2410.4</ele><time>2026-04-05T08:14:27.000Z</time></trkpt>
<trkpt lat="42.198113" lon="23.587427"><ele>2410.4</ele><time>2026-04-05T08:14:28.000Z</time></trkpt>
<trkpt lat="42.198115" lon="23.587426"><ele>2410.4</ele><time>2026-04-05T08:14:29.000Z</time></trkpt>
<trkpt lat="42.198115" lon="23.587425"><ele>2410.4</ele><time>2026-04-05T08:14:30.000Z</time></trkpt>
<trkpt lat="42.198116" lon="23.587423"><ele>2410.4</ele><time>2026-04-05T08:14:31.000Z</time></trkpt>
<trkpt lat="42.198117" lon="23.587422"><ele>2410.4</ele><time>2026-04-05T08:14:32.000Z</time></trkpt>
<trkpt lat="42.198118" lon="23.587422"><ele>2410.4</ele><time>2026-04-05T08:14:33.000Z</time></trkpt>
<trkpt lat="42.198118" lon="23.587422"><ele>2410.5</ele><time>2026-04-05T08:14:34.000Z</time></trkpt>
<trkpt lat="42.198119" lon="23.587423"><ele>2410.5</ele><time>2026-04-05T08:14:35.000Z</time></trkpt>
<trkpt lat="42.198119" lon="23.587425"><ele>2410.5</ele><time>2026-04-05T08:14:36.000Z</time></trkpt>
<trkpt lat="42.198119" lon="23.587427"><ele>2410.5</ele><time>2026-04-05T08:14:37.000Z</time></trkpt>
<trkpt lat="42.198119" lon="23.587428"><ele>2410.5</ele><time>2026-04-05T08:14:38.000Z</time></trkpt>
<trkpt lat="42.19812" lon="23.587429"><ele>2410.6</ele><time>2026-04-05T08:14:39.000Z</time></trkpt>
<trkpt lat="42.19812" lon="23.587429"><ele>2410.6</ele><time>2026-04-05T08:14:40.000Z</time></trkpt>
<trkpt lat="42.19812" lon="23.587429"><ele>2410.6</ele><time>2026-04-05T08:14:41.000Z</time></trkpt>
<trkpt lat="42.19812" lon="23.587429"><ele>2410.6</ele><time>2026-04-05T08:14:42.000Z</time></trkpt>
<trkpt lat="42.19812" lon="23.587429"><ele>2410.6</ele><time>2026-04-05T08:14:43.000Z</time></trkpt>
<trkpt lat="42.19812" lon="23.587429"><ele>2410.6</ele><time>2026-04-05T08:14:44.000Z</time></trkpt>
<trkpt lat="42.19812" lon="23.587429"><ele>2410.6</ele><time>2026-04-05T08:14:45.000Z</time></trkpt>
<trkpt lat="42.198119" lon="23.58743"><ele>2410.6</ele><time>2026-04-05T08:14:46.000Z</time></trkpt>
<trkpt lat="42.198119" lon="23.58743"><ele>2410.6</ele><time>2026-04-05T08:14:47.000Z</time></trkpt>
<trkpt lat="42.198118" lon="23.58743"><ele>2410.6</ele><time>2026-04-05T08:14:48.000Z</time></trkpt>
<trkpt lat="42.198117" lon="23.58743"><ele>2410.5</ele><time>2026-04-05T08:14:49.000Z</time></trkpt>
<trkpt lat="42.198117" lon="23.58743"><ele>2410.5</ele><time>2026-04-05T08:14:50.000Z</time></trkpt>
<trkpt lat="42.198117" lon="23.58743"><ele>2410.5</ele><time>2026-04-05T08:14:51.000Z</time></trkpt>
<trkpt lat="42.198117" lon="23.58743"><ele>2410.5</ele><time>2026-04-05T08:14:52.000Z</time></trkpt>
<trkpt lat="42.198117" lon="23.58743"><ele>2410.5</ele><time>2026-04-05T08:14:53.000Z</time></trkpt>
<trkpt lat="42.198117" lon="23.587429"><ele>2410.3</ele><time>2026-04-05T08:14:54.000Z</time></trkpt>
<trkpt lat="42.198115" lon="23.58743"><ele>2410.3</ele><time>2026-04-05T08:14:55.000Z</time></trkpt>
<trkpt lat="42.198114" lon="23.587432"><ele>2410.3</ele><time>2026-04-05T08:14:56.000Z</time></trkpt>
<trkpt lat="42.198112" lon="23.587434"><ele>2410.3</ele><time>2026-04-05T08:14:57.000Z</time></trkpt>
<trkpt lat="42.19811" lon="23.587437"><ele>2410.3</ele><time>2026-04-05T08:14:58.000Z</time></trkpt>
<trkpt lat="42.198107" lon="23.587441"><ele>2410.1</ele><time>2026-04-05T08:14:59.000Z</time></trkpt>
<trkpt lat="42.198104" lon="23.587443"><ele>2410.1</ele><time>2026-04-05T08:15:00.000Z</time></trkpt>
<trkpt lat="42.198102" lon="23.587445"><ele>2410.1</ele><time>2026-04-05T08:15:01.000Z</time></trkpt>
<trkpt lat="42.1981" lon="23.587445"><ele>2410.1</ele><time>2026-04-05T08:15:02.000Z</time></trkpt>
<trkpt lat="42.198098" lon="23.587445"><ele>2410.1</ele><time>2026-04-05T08:15:03.000Z</time></trkpt>
<trkpt lat="42.198098" lon="23.587442"><ele>2410.1</ele><time>2026-04-05T08:15:04.000Z</time></trkpt>
<trkpt lat="42.198097" lon="23.58744"><ele>2410.1</ele><time>2026-04-05T08:15:05.000Z</time></trkpt>
<trkpt lat="42.198097" lon="23.587439"><ele>2410.1</ele><time>2026-04-05T08:15:06.000Z</time></trkpt>
<trkpt lat="42.198097" lon="23.587439"><ele>2410.1</ele><time>2026-04-05T08:15:07.000Z</time></trkpt>
<trkpt lat="42.198096" lon="23.587441"><ele>2410.1</ele><time>2026-04-05T08:15:08.000Z</time></trkpt>
<trkpt lat="42.198095" lon="23.587442"><ele>2410.2</ele><time>2026-04-05T08:15:09.000Z</time></trkpt>
<trkpt lat="42.198096" lon="23.587445"><ele>2410.2</ele><time>2026-04-05T08:15:10.000Z</time></trkpt>
<trkpt lat="42.198095" lon="23.587446"><ele>2410.2</ele><time>2026-04-05T08:15:11.000Z</time></trkpt>
<trkpt lat="42.198096" lon="23.587447"><ele>2410.2</ele><time>2026-04-05T08:15:12.000Z</time></trkpt>
<trkpt lat="42.198097" lon="23.587448"><ele>2410.2</ele><time>2026-04-05T08:15:13.000Z</time></trkpt>
<trkpt lat="42.198098" lon="23.587448"><ele>2410.5</ele><time>2026-04-05T08:15:14.000Z</time></trkpt>
<trkpt lat="42.198099" lon="23.587449"><ele>2410.5</ele><time>2026-04-05T08:15:15.000Z</time></trkpt>
<trkpt lat="42.1981" lon="23.587449"><ele>2410.5</ele><time>2026-04-05T08:15:16.000Z</time></trkpt>
<trkpt lat="42.198101" lon="23.587449"><ele>2410.5</ele><time>2026-04-05T08:15:17.000Z</time></trkpt>
<trkpt lat="42.198101" lon="23.587449"><ele>2410.5</ele><time>2026-04-05T08:15:18.000Z</time></trkpt>
<trkpt lat="42.198102" lon="23.58745"><ele>2410.7</ele><time>2026-04-05T08:15:19.000Z</time></trkpt>
<trkpt lat="42.198102" lon="23.58745"><ele>2410.7</ele><time>2026-04-05T08:15:20.000Z</time></trkpt>
<trkpt lat="42.198102" lon="23.58745"><ele>2410.7</ele><time>2026-04-05T08:15:21.000Z</time></trkpt>
<trkpt lat="42.198103" lon="23.58745"><ele>2410.7</ele><time>2026-04-05T08:15:22.000Z</time></trkpt>
<trkpt lat="42.198103" lon="23.587451"><ele>2410.7</ele><time>2026-04-05T08:15:23.000Z</time></trkpt>
<trkpt lat="42.198104" lon="23.587451"><ele>2410.9</ele><time>2026-04-05T08:15:24.000Z</time></trkpt>
<trkpt lat="42.198104" lon="23.587452"><ele>2410.9</ele><time>2026-04-05T08:15:25.000Z</time></trkpt>
<trkpt lat="42.198105" lon="23.587452"><ele>2410.9</ele><time>2026-04-05T08:15:26.000Z</time></trkpt>
<trkpt lat="42.198105" lon="23.587452"><ele>2410.9</ele><time>2026-04-05T08:15:27.000Z</time></trkpt>
<trkpt lat="42.198104" lon="23.587451"><ele>2410.9</ele><time>2026-04-05T08:15:28.000Z</time></trkpt>
<trkpt lat="42.198104" lon="23.587451"><ele>2411</ele><time>2026-04-05T08:15:29.000Z</time></trkpt>
<trkpt lat="42.198104" lon="23.58745"><ele>2411</ele><time>2026-04-05T08:15:30.000Z</time></trkpt>
<trkpt lat="42.198104" lon="23.58745"><ele>2411</ele><time>2026-04-05T08:15:31.000Z</time></trkpt>
<trkpt lat="42.198104" lon="23.58745"><ele>2411</ele><time>2026-04-05T08:15:32.000Z</time></trkpt>
<trkpt lat="42.198104" lon="23.58745"><ele>2411</ele><time>2026-04-05T08:15:33.000Z</time></trkpt>
<trkpt lat="42.198103" lon="23.587449"><ele>2410.9</ele><time>2026-04-05T08:15:34.000Z</time></trkpt>
<trkpt lat="42.198103" lon="23.587449"><ele>2410.9</ele><time>2026-04-05T08:15:35.000Z</time></trkpt>
<trkpt lat="42.198102" lon="23.587448"><ele>2410.9</ele><time>2026-04-05T08:15:36.000Z</time></trkpt>
<trkpt lat="42.198102" lon="23.587448"><ele>2410.9</ele><time>2026-04-05T08:15:37.000Z</time></trkpt>
<trkpt lat="42.198102" lon="23.587448"><ele>2410.9</ele><time>2026-04-05T08:15:38.000Z</time></trkpt>
<trkpt lat="42.198102" lon="23.587448"><ele>2410.6</ele><time>2026-04-05T08:15:39.000Z</time></trkpt>
<trkpt lat="42.198101" lon="23.587449"><ele>2410.6</ele><time>2026-04-05T08:15:40.000Z</time></trkpt>
<trkpt lat="42.198101" lon="23.587449"><ele>2410.6</ele><time>2026-04-05T08:15:41.000Z</time></trkpt>
<trkpt lat="42.198101" lon="23.587448"><ele>2410.6</ele><time>2026-04-05T08:15:42.000Z</time></trkpt>
<trkpt lat="42.198101" lon="23.587447"><ele>2410.6</ele><time>2026-04-05T08:15:43.000Z</time></trkpt>
<trkpt lat="42.198102" lon="23.587445"><ele>2410.6</ele><time>2026-04-05T08:15:44.000Z</time></trkpt>
<trkpt lat="42.198103" lon="23.587444"><ele>2410.6</ele><time>2026-04-05T08:15:45.000Z</time></trkpt>
<trkpt lat="42.198104" lon="23.587442"><ele>2410.6</ele><time>2026-04-05T08:15:46.000Z</time></trkpt>
<trkpt lat="42.198104" lon="23.587441"><ele>2410.6</ele><time>2026-04-05T08:15:47.000Z</time></trkpt>
<trkpt lat="42.198105" lon="23.587441"><ele>2410.6</ele><time>2026-04-05T08:15:48.000Z</time></trkpt>
<trkpt lat="42.198105" lon="23.587441"><ele>2410.8</ele><time>2026-04-05T08:15:49.000Z</time></trkpt>
<trkpt lat="42.198104" lon="23.587442"><ele>2410.8</ele><time>2026-04-05T08:15:50.000Z</time></trkpt>
<trkpt lat="42.198104" lon="23.587442"><ele>2410.8</ele><time>2026-04-05T08:15:51.000Z</time></trkpt>
<trkpt lat="42.198104" lon="23.587442"><ele>2410.8</ele><time>2026-04-05T08:15:52.000Z</time></trkpt>
<trkpt lat="42.198103" lon="23.587443"><ele>2410.8</ele><time>2026-04-05T08:15:53.000Z</time></trkpt>
<trkpt lat="42.198103" lon="23.587443"><ele>2410.9</ele><time>2026-04-05T08:15:54.000Z</time></trkpt>
<trkpt lat="42.198104" lon="23.587442"><ele>2410.9</ele><time>2026-04-05T08:15:55.000Z</time></trkpt>
<trkpt lat="42.198105" lon="23.587442"><ele>2410.9</ele><time>2026-04-05T08:15:56.000Z</time></trkpt>
<trkpt lat="42.198106" lon="23.587441"><ele>2410.9</ele><time>2026-04-05T08:15:57.000Z</time></trkpt>
<trkpt lat="42.198108" lon="23.58744"><ele>2410.9</ele><time>2026-04-05T08:15:58.000Z</time></trkpt>
<trkpt lat="42.198109" lon="23.58744"><ele>2411.1</ele><time>2026-04-05T08:15:59.000Z</time></trkpt>
<trkpt lat="42.19811" lon="23.58744"><ele>2411.1</ele><time>2026-04-05T08:16:00.000Z</time></trkpt>
<trkpt lat="42.19811" lon="23.58744"><ele>2411.1</ele><time>2026-04-05T08:16:01.000Z</time></trkpt>
<trkpt lat="42.198111" lon="23.587441"><ele>2411.1</ele><time>2026-04-05T08:16:02.000Z</time></trkpt>
<trkpt lat="42.198111" lon="23.587441"><ele>2411.1</ele><time>2026-04-05T08:16:03.000Z</time></trkpt>
<trkpt lat="42.198112" lon="23.587442"><ele>2411.2</ele><time>2026-04-05T08:16:04.000Z</time></trkpt>
<trkpt lat="42.198111" lon="23.587443"><ele>2411.2</ele><time>2026-04-05T08:16:05.000Z</time></trkpt>
<trkpt lat="42.198111" lon="23.587443"><ele>2411.2</ele><time>2026-04-05T08:16:06.000Z</time></trkpt>
<trkpt lat="42.198111" lon="23.587444"><ele>2411.2</ele><time>2026-04-05T08:16:07.000Z</time></trkpt>
<trkpt lat="42.198111" lon="23.587443"><ele>2411.2</ele><time>2026-04-05T08:16:08.000Z</time></trkpt>
<trkpt lat="42.19811" lon="23.587443"><ele>2411.6</ele><time>2026-04-05T08:16:09.000Z</time></trkpt>
<trkpt lat="42.19811" lon="23.587443"><ele>2411.6</ele><time>2026-04-05T08:16:10.000Z</time></trkpt>
<trkpt lat="42.19811" lon="23.587443"><ele>2411.6</ele><time>2026-04-05T08:16:11.000Z</time></trkpt>
<trkpt lat="42.19811" lon="23.587443"><ele>2411.6</ele><time>2026-04-05T08:16:12.000Z</time></trkpt>
<trkpt lat="42.19811" lon="23.587443"><ele>2411.6</ele><time>2026-04-05T08:16:13.000Z</time></trkpt>
<trkpt lat="42.198109" lon="23.587443"><ele>2411.7</ele><time>2026-04-05T08:16:14.000Z</time></trkpt>
<trkpt lat="42.198109" lon="23.587444"><ele>2411.7</ele><time>2026-04-05T08:16:15.000Z</time></trkpt>
<trkpt lat="42.198109" lon="23.587444"><ele>2411.7</ele><time>2026-04-05T08:16:16.000Z</time></trkpt>
<trkpt lat="42.198109" lon="23.587443"><ele>2411.7</ele><time>2026-04-05T08:16:17.000Z</time></trkpt>
<trkpt lat="42.198109" lon="23.587443"><ele>2411.7</ele><time>2026-04-05T08:16:18.000Z</time></trkpt>
<trkpt lat="42.19811" lon="23.587443"><ele>2411.6</ele><time>2026-04-05T08:16:19.000Z</time></trkpt>
<trkpt lat="42.19811" lon="23.587443"><ele>2411.6</ele><time>2026-04-05T08:16:20.000Z</time></trkpt>
<trkpt lat="42.198109" lon="23.587443"><ele>2411.6</ele><time>2026-04-05T08:16:21.000Z</time></trkpt>
<trkpt lat="42.198109" lon="23.587445"><ele>2411.6</ele><time>2026-04-05T08:16:22.000Z</time></trkpt>
<trkpt lat="42.198108" lon="23.587447"><ele>2411.6</ele><time>2026-04-05T08:16:23.000Z</time></trkpt>
<trkpt lat="42.198107" lon="23.587449"><ele>2411.3</ele><time>2026-04-05T08:16:24.000Z</time></trkpt>
<trkpt lat="42.198107" lon="23.587451"><ele>2411.3</ele><time>2026-04-05T08:16:25.000Z</time></trkpt>
<trkpt lat="42.198107" lon="23.587453"><ele>2411.3</ele><time>2026-04-05T08:16:26.000Z</time></trkpt>
<trkpt lat="42.198107" lon="23.587453"><ele>2411.3</ele><time>2026-04-05T08:16:27.000Z</time></trkpt>
<trkpt lat="42.198107" lon="23.587453"><ele>2411.3</ele><time>2026-04-05T08:16:28.000Z</time></trkpt>
<trkpt lat="42.198107" lon="23.587454"><ele>2411.2</ele><time>2026-04-05T08:16:29.000Z</time></trkpt>
<trkpt lat="42.198107" lon="23.587455"><ele>2411.2</ele><time>2026-04-05T08:16:30.000Z</time></trkpt>
<trkpt lat="42.198107" lon="23.587455"><ele>2411.2</ele><time>2026-04-05T08:16:31.000Z</time></trkpt>
<trkpt lat="42.198108" lon="23.587455"><ele>2411.2</ele><time>2026-04-05T08:16:32.000Z</time></trkpt>
<trkpt lat="42.198108" lon="23.587456"><ele>2411.2</ele><time>2026-04-05T08:16:33.000Z</time></trkpt>
<trkpt lat="42.198108" lon="23.587455"><ele>2411.2</ele><time>2026-04-05T08:16:34.000Z</time></trkpt>
<trkpt lat="42.198109" lon="23.587455"><ele>2411.2</ele><time>2026-04-05T08:16:35.000Z</time></trkpt>
<trkpt lat="42.198109" lon="23.587455"><ele>2411.2</ele><time>2026-04-05T08:16:36.000Z</time></trkpt>
<trkpt lat="42.19811" lon="23.587454"><ele>2411.2</ele><time>2026-04-05T08:16:37.000Z</time></trkpt>
<trkpt lat="42.19811" lon="23.587454"><ele>2411.2</ele><time>2026-04-05T08:16:38.000Z</time></trkpt>
<trkpt lat="42.198111" lon="23.587454"><ele>2411</ele><time>2026-04-05T08:16:39.000Z</time></trkpt>
<trkpt lat="42.198111" lon="23.587454"><ele>2411</ele><time>2026-04-05T08:16:40.000Z</time></trkpt>
<trkpt lat="42.198111" lon="23.587453"><ele>2411</ele><time>2026-04-05T08:16:41.000Z</time></trkpt>
<trkpt lat="42.198111" lon="23.587453"><ele>2411</ele><time>2026-04-05T08:16:42.000Z</time></trkpt>
<trkpt lat="42.198111" lon="23.587453"><ele>2411</ele><time>2026-04-05T08:16:43.000Z</time></trkpt>
<trkpt lat="42.198111" lon="23.587453"><ele>2411</ele><time>2026-04-05T08:16:44.000Z</time></trkpt>
<trkpt lat="42.198111" lon="23.587452"><ele>2411</ele><time>2026-04-05T08:16:45.000Z</time></trkpt>
<trkpt lat="42.198111" lon="23.587452"><ele>2411</ele><time>2026-04-05T08:16:46.000Z</time></trkpt>
<trkpt lat="42.198111" lon="23.587452"><ele>2411</ele><time>2026-04-05T08:16:47.000Z</time></trkpt>
<trkpt lat="42.198111" lon="23.587452"><ele>2411</ele><time>2026-04-05T08:16:48.000Z</time></trkpt>
<trkpt lat="42.198111" lon="23.587451"><ele>2411</ele><time>2026-04-05T08:16:49.000Z</time></trkpt>
<trkpt lat="42.198111" lon="23.587451"><ele>2411</ele><time>2026-04-05T08:16:50.000Z</time></trkpt>
<trkpt lat="42.198111" lon="23.58745"><ele>2411</ele><time>2026-04-05T08:16:51.000Z</time></trkpt>
<trkpt lat="42.198111" lon="23.587449"><ele>2411</ele><time>2026-04-05T08:16:52.000Z</time></trkpt>
<trkpt lat="42.19811" lon="23.587449"><ele>2411</ele><time>2026-04-05T08:16:53.000Z</time></trkpt>
<trkpt lat="42.19811" lon="23.587449"><ele>2411</ele><time>2026-04-05T08:16:54.000Z</time></trkpt>
<trkpt lat="42.19811" lon="23.587449"><ele>2411</ele><time>2026-04-05T08:16:55.000Z</time></trkpt>
<trkpt lat="42.19811" lon="23.587449"><ele>2411</ele><time>2026-04-05T08:16:56.000Z</time></trkpt>
<trkpt lat="42.19811" lon="23.587449"><ele>2411</ele><time>2026-04-05T08:16:57.000Z</time></trkpt>
<trkpt lat="42.19811" lon="23.587449"><ele>2411</ele><time>2026-04-05T08:16:58.000Z</time></trkpt>
<trkpt lat="42.19811" lon="23.587449"><ele>2411.1</ele><time>2026-04-05T08:16:59.000Z</time></trkpt>
<trkpt lat="42.19811" lon="23.587449"><ele>2411.1</ele><time>2026-04-05T08:17:00.000Z</time></trkpt>
<trkpt lat="42.19811" lon="23.587449"><ele>2411.1</ele><time>2026-04-05T08:17:01.000Z</time></trkpt>
<trkpt lat="42.19811" lon="23.587449"><ele>2411.1</ele><time>2026-04-05T08:17:02.000Z</time></trkpt>
<trkpt lat="42.19811" lon="23.587449"><ele>2411.1</ele><time>2026-04-05T08:17:03.000Z</time></trkpt>
<trkpt lat="42.198111" lon="23.58745"><ele>2411.1</ele><time>2026-04-05T08:17:04.000Z</time></trkpt>
<trkpt lat="42.198111" lon="23.58745"><ele>2411.1</ele><time>2026-04-05T08:17:05.000Z</time></trkpt>
<trkpt lat="42.198111" lon="23.587451"><ele>2411.1</ele><time>2026-04-05T08:17:06.000Z</time></trkpt>
<trkpt lat="42.198111" lon="23.587451"><ele>2411.1</ele><time>2026-04-05T08:17:07.000Z</time></trkpt>
<trkpt lat="42.198111" lon="23.587452"><ele>2411.1</ele><time>2026-04-05T08:17:08.000Z</time></trkpt>
<trkpt lat="42.198111" lon="23.587452"><ele>2411.2</ele><time>2026-04-05T08:17:09.000Z</time></trkpt>
<trkpt lat="42.198111" lon="23.587452"><ele>2411.2</ele><time>2026-04-05T08:17:10.000Z</time></trkpt>
<trkpt lat="42.19811" lon="23.587452"><ele>2411.2</ele><time>2026-04-05T08:17:11.000Z</time></trkpt>
<trkpt lat="42.198109" lon="23.587452"><ele>2411.2</ele><time>2026-04-05T08:17:12.000Z</time></trkpt>
<trkpt lat="42.198109" lon="23.587452"><ele>2411.2</ele><time>2026-04-05T08:17:13.000Z</time></trkpt>
<trkpt lat="42.198108" lon="23.587453"><ele>2411.2</ele><time>2026-04-05T08:17:14.000Z</time></trkpt>
<trkpt lat="42.198107" lon="23.587453"><ele>2411.2</ele><time>2026-04-05T08:17:15.000Z</time></trkpt>
<trkpt lat="42.198106" lon="23.587453"><ele>2411.2</ele><time>2026-04-05T08:17:16.000Z</time></trkpt>
<trkpt lat="42.198106" lon="23.587452"><ele>2411.2</ele><time>2026-04-05T08:17:17.000Z</time></trkpt>
<trkpt lat="42.198106" lon="23.587452"><ele>2411.2</ele><time>2026-04-05T08:17:18.000Z</time></trkpt>
<trkpt lat="42.198105" lon="23.587451"><ele>2411.2</ele><time>2026-04-05T08:17:19.000Z</time></trkpt>
<trkpt lat="42.198106" lon="23.58745"><ele>2411.2</ele><time>2026-04-05T08:17:20.000Z</time></trkpt>
<trkpt lat="42.198106" lon="23.58745"><ele>2411.2</ele><time>2026-04-05T08:17:21.000Z</time></trkpt>
<trkpt lat="42.198106" lon="23.58745"><ele>2411.2</ele><time>2026-04-05T08:17:22.000Z</time></trkpt>
<trkpt lat="42.198106" lon="23.58745"><ele>2411.2</ele><time>2026-04-05T08:17:23.000Z</time></trkpt>
<trkpt lat="42.198106" lon="23.58745"><ele>2411.1</ele><time>2026-04-05T08:17:24.000Z</time></trkpt>
<trkpt lat="42.198106" lon="23.58745"><ele>2411.1</ele><time>2026-04-05T08:17:25.000Z</time></trkpt>
<trkpt lat="42.198106" lon="23.58745"><ele>2411.1</ele><time>2026-04-05T08:17:26.000Z</time></trkpt>
<trkpt lat="42.198106" lon="23.58745"><ele>2411.1</ele><time>2026-04-05T08:17:27.000Z</time></trkpt>
<trkpt lat="42.198106" lon="23.58745"><ele>2411.1</ele><time>2026-04-05T08:17:28.000Z</time></trkpt>
<trkpt lat="42.198106" lon="23.587449"><ele>2411</ele><time>2026-04-05T08:17:29.000Z</time></trkpt>
<trkpt lat="42.198106" lon="23.587449"><ele>2411</ele><time>2026-04-05T08:17:30.000Z</time></trkpt>
<trkpt lat="42.198106" lon="23.587449"><ele>2411</ele><time>2026-04-05T08:17:31.000Z</time></trkpt>
<trkpt lat="42.198106" lon="23.587449"><ele>2411</ele><time>2026-04-05T08:17:32.000Z</time></trkpt>
<trkpt lat="42.198106" lon="23.587449"><ele>2411</ele><time>2026-04-05T08:17:33.000Z</time></trkpt>
<trkpt lat="42.198106" lon="23.587449"><ele>2410.9</ele><time>2026-04-05T08:17:34.000Z</time></trkpt>
<trkpt lat="42.198106" lon="23.587449"><ele>2410.9</ele><time>2026-04-05T08:17:35.000Z</time></trkpt>
<trkpt lat="42.198106" lon="23.587449"><ele>2410.9</ele><time>2026-04-05T08:17:36.000Z</time></trkpt>
<trkpt lat="42.198107" lon="23.587449"><ele>2410.9</ele><time>2026-04-05T08:17:37.000Z</time></trkpt>
<trkpt lat="42.198107" lon="23.587448"><ele>2410.9</ele><time>2026-04-05T08:17:38.000Z</time></trkpt>
<trkpt lat="42.198108" lon="23.587447"><ele>2410.8</ele><time>2026-04-05T08:17:39.000Z</time></trkpt>
<trkpt lat="42.198109" lon="23.587446"><ele>2410.8</ele><time>2026-04-05T08:17:40.000Z</time></trkpt>
<trkpt lat="42.19811" lon="23.587444"><ele>2410.8</ele><time>2026-04-05T08:17:41.000Z</time></trkpt>
<trkpt lat="42.19811" lon="23.58744"><ele>2410.8</ele><time>2026-04-05T08:17:42.000Z</time></trkpt>
<trkpt lat="42.19811" lon="23.587437"><ele>2410.8</ele><time>2026-04-05T08:17:43.000Z</time></trkpt>
<trkpt lat="42.198111" lon="23.587434"><ele>2410.7</ele><time>2026-04-05T08:17:44.000Z</time></trkpt>
<trkpt lat="42.198111" lon="23.587432"><ele>2410.7</ele><time>2026-04-05T08:17:45.000Z</time></trkpt>
<trkpt lat="42.198111" lon="23.587431"><ele>2410.7</ele><time>2026-04-05T08:17:46.000Z</time></trkpt>
<trkpt lat="42.198111" lon="23.587432"><ele>2410.7</ele><time>2026-04-05T08:17:47.000Z</time></trkpt>
<trkpt lat="42.198111" lon="23.587432"><ele>2410.7</ele><time>2026-04-05T08:17:48.000Z</time></trkpt>
<trkpt lat="42.198111" lon="23.587433"><ele>2410.7</ele><time>2026-04-05T08:17:49.000Z</time></trkpt>
<trkpt lat="42.19811" lon="23.587434"><ele>2410.7</ele><time>2026-04-05T08:17:50.000Z</time></trkpt>
<trkpt lat="42.198109" lon="23.587435"><ele>2410.7</ele><time>2026-04-05T08:17:51.000Z</time></trkpt>
<trkpt lat="42.198109" lon="23.587436"><ele>2410.7</ele><time>2026-04-05T08:17:52.000Z</time></trkpt>
<trkpt lat="42.198108" lon="23.587438"><ele>2410.7</ele><time>2026-04-05T08:17:53.000Z</time></trkpt>
<trkpt lat="42.198108" lon="23.587439"><ele>2410.9</ele><time>2026-04-05T08:17:54.000Z</time></trkpt>
<trkpt lat="42.198108" lon="23.58744"><ele>2410.9</ele><time>2026-04-05T08:17:55.000Z</time></trkpt>
<trkpt lat="42.198108" lon="23.58744"><ele>2410.9</ele><time>2026-04-05T08:17:56.000Z</time></trkpt>
<trkpt lat="42.198108" lon="23.587441"><ele>2410.9</ele><time>2026-04-05T08:17:57.000Z</time></trkpt>
<trkpt lat="42.198108" lon="23.587441"><ele>2410.9</ele><time>2026-04-05T08:17:58.000Z</time></trkpt>
<trkpt lat="42.198108" lon="23.587441"><ele>2411</ele><time>2026-04-05T08:17:59.000Z</time></trkpt>
<trkpt lat="42.198108" lon="23.58744"><ele>2411</ele><time>2026-04-05T08:18:00.000Z</time></trkpt>
<trkpt lat="42.198109" lon="23.58744"><ele>2411</ele><time>2026-04-05T08:18:01.000Z</time></trkpt>
<trkpt lat="42.198109" lon="23.58744"><ele>2411</ele><time>2026-04-05T08:18:02.000Z</time></trkpt>
<trkpt lat="42.198109" lon="23.58744"><ele>2411</ele><time>2026-04-05T08:18:03.000Z</time></trkpt>
<trkpt lat="42.198109" lon="23.58744"><ele>2411</ele><time>2026-04-05T08:18:04.000Z</time></trkpt>
<trkpt lat="42.198109" lon="23.58744"><ele>2411</ele><time>2026-04-05T08:18:05.000Z</time></trkpt>
<trkpt lat="42.198109" lon="23.58744"><ele>2411</ele><time>2026-04-05T08:18:06.000Z</time></trkpt>
<trkpt lat="42.198109" lon="23.58744"><ele>2411</ele><time>2026-04-05T08:18:07.000Z</time></trkpt>
<trkpt lat="42.198109" lon="23.58744"><ele>2411</ele><time>2026-04-05T08:18:08.000Z</time></trkpt>
<trkpt lat="42.19811" lon="23.587439"><ele>2411</ele><time>2026-04-05T08:18:09.000Z</time></trkpt>
<trkpt lat="42.19811" lon="23.587439"><ele>2411</ele><time>2026-04-05T08:18:10.000Z</time></trkpt>
<trkpt lat="42.198111" lon="23.587438"><ele>2411</ele><time>2026-04-05T08:18:11.000Z</time></trkpt>
<trkpt lat="42.198112" lon="23.587438"><ele>2411</ele><time>2026-04-05T08:18:12.000Z</time></trkpt>
<trkpt lat="42.198112" lon="23.587438"><ele>2411</ele><time>2026-04-05T08:18:13.000Z</time></trkpt>
<trkpt lat="42.198111" lon="23.587439"><ele>2411.2</ele><time>2026-04-05T08:18:14.000Z</time></trkpt>
<trkpt lat="42.19811" lon="23.58744"><ele>2411.2</ele><time>2026-04-05T08:18:15.000Z</time></trkpt>
<trkpt lat="42.198109" lon="23.587442"><ele>2411.2</ele><time>2026-04-05T08:18:16.000Z</time></trkpt>
<trkpt lat="42.198108" lon="23.587444"><ele>2411.2</ele><time>2026-04-05T08:18:17.000Z</time></trkpt>
<trkpt lat="42.198106" lon="23.587445"><ele>2411.2</ele><time>2026-04-05T08:18:18.000Z</time></trkpt>
<trkpt lat="42.198105" lon="23.587447"><ele>2411.2</ele><time>2026-04-05T08:18:19.000Z</time></trkpt>
<trkpt lat="42.198105" lon="23.587448"><ele>2411.2</ele><time>2026-04-05T08:18:20.000Z</time></trkpt>
<trkpt lat="42.198104" lon="23.587448"><ele>2411.2</ele><time>2026-04-05T08:18:21.000Z</time></trkpt>
<trkpt lat="42.198105" lon="23.587448"><ele>2411.2</ele><time>2026-04-05T08:18:22.000Z</time></trkpt>
<trkpt lat="42.198106" lon="23.587446"><ele>2411.2</ele><time>2026-04-05T08:18:23.000Z</time></trkpt>
<trkpt lat="42.198107" lon="23.587445"><ele>2411.1</ele><time>2026-04-05T08:18:24.000Z</time></trkpt>
<trkpt lat="42.198108" lon="23.587444"><ele>2411.1</ele><time>2026-04-05T08:18:25.000Z</time></trkpt>
<trkpt lat="42.198109" lon="23.587443"><ele>2411.1</ele><time>2026-04-05T08:18:26.000Z</time></trkpt>
<trkpt lat="42.198108" lon="23.587443"><ele>2411.1</ele><time>2026-04-05T08:18:27.000Z</time></trkpt>
<trkpt lat="42.198108" lon="23.587442"><ele>2411.1</ele><time>2026-04-05T08:18:28.000Z</time></trkpt>
<trkpt lat="42.198107" lon="23.587442"><ele>2410.8</ele><time>2026-04-05T08:18:29.000Z</time></trkpt>
<trkpt lat="42.198107" lon="23.587442"><ele>2410.8</ele><time>2026-04-05T08:18:30.000Z</time></trkpt>
<trkpt lat="42.198106" lon="23.587442"><ele>2410.8</ele><time>2026-04-05T08:18:31.000Z</time></trkpt>
<trkpt lat="42.198107" lon="23.587442"><ele>2410.8</ele><time>2026-04-05T08:18:32.000Z</time></trkpt>
<trkpt lat="42.198107" lon="23.587442"><ele>2410.8</ele><time>2026-04-05T08:18:33.000Z</time></trkpt>
<trkpt lat="42.198107" lon="23.587442"><ele>2410.7</ele><time>2026-04-05T08:18:34.000Z</time></trkpt>
<trkpt lat="42.198107" lon="23.587442"><ele>2410.7</ele><time>2026-04-05T08:18:35.000Z</time></trkpt>
<trkpt lat="42.198108" lon="23.587441"><ele>2410.7</ele><time>2026-04-05T08:18:36.000Z</time></trkpt>
<trkpt lat="42.198108" lon="23.587441"><ele>2410.7</ele><time>2026-04-05T08:18:37.000Z</time></trkpt>
<trkpt lat="42.198108" lon="23.587441"><ele>2410.7</ele><time>2026-04-05T08:18:38.000Z</time></trkpt>
<trkpt lat="42.198108" lon="23.587441"><ele>2410.7</ele><time>2026-04-05T08:18:39.000Z</time></trkpt>
<trkpt lat="42.198108" lon="23.58744"><ele>2410.7</ele><time>2026-04-05T08:18:40.000Z</time></trkpt>
<trkpt lat="42.198108" lon="23.58744"><ele>2410.7</ele><time>2026-04-05T08:18:41.000Z</time></trkpt>
<trkpt lat="42.198109" lon="23.58744"><ele>2410.7</ele><time>2026-04-05T08:18:42.000Z</time></trkpt>
<trkpt lat="42.198109" lon="23.58744"><ele>2410.7</ele><time>2026-04-05T08:18:43.000Z</time></trkpt>
<trkpt lat="42.198109" lon="23.58744"><ele>2410.8</ele><time>2026-04-05T08:18:44.000Z</time></trkpt>
<trkpt lat="42.198109" lon="23.58744"><ele>2410.8</ele><time>2026-04-05T08:18:45.000Z</time></trkpt>
<trkpt lat="42.198109" lon="23.58744"><ele>2410.8</ele><time>2026-04-05T08:18:46.000Z</time></trkpt>
<trkpt lat="42.198109" lon="23.58744"><ele>2410.8</ele><time>2026-04-05T08:18:47.000Z</time></trkpt>
<trkpt lat="42.198109" lon="23.58744"><ele>2410.8</ele><time>2026-04-05T08:18:48.000Z</time></trkpt>
<trkpt lat="42.198109" lon="23.58744"><ele>2410.9</ele><time>2026-04-05T08:18:49.000Z</time></trkpt>
<trkpt lat="42.198109" lon="23.58744"><ele>2410.9</ele><time>2026-04-05T08:18:50.000Z</time></trkpt>
<trkpt lat="42.198109" lon="23.58744"><ele>2410.9</ele><time>2026-04-05T08:18:51.000Z</time></trkpt>
<trkpt lat="42.198109" lon="23.58744"><ele>2410.9</ele><time>2026-04-05T08:18:52.000Z</time></trkpt>
<trkpt lat="42.198109" lon="23.587439"><ele>2410.9</ele><time>2026-04-05T08:18:53.000Z</time></trkpt>
<trkpt lat="42.198109" lon="23.587439"><ele>2411</ele><time>2026-04-05T08:18:54.000Z</time></trkpt>
<trkpt lat="42.198109" lon="23.587439"><ele>2411</ele><time>2026-04-05T08:18:55.000Z</time></trkpt>
<trkpt lat="42.198109" lon="23.587438"><ele>2411</ele><time>2026-04-05T08:18:56.000Z</time></trkpt>
<trkpt lat="42.198108" lon="23.587438"><ele>2411</ele><time>2026-04-05T08:18:57.000Z</time></trkpt>
<trkpt lat="42.198108" lon="23.587438"><ele>2411</ele><time>2026-04-05T08:18:58.000Z</time></trkpt>
<trkpt lat="42.198109" lon="23.587438"><ele>2410.9</ele><time>2026-04-05T08:18:59.000Z</time></trkpt>
<trkpt lat="42.198109" lon="23.587438"><ele>2410.9</ele><time>2026-04-05T08:19:00.000Z</time></trkpt>
<trkpt lat="42.198108" lon="23.587437"><ele>2410.9</ele><time>2026-04-05T08:19:01.000Z</time></trkpt>
<trkpt lat="42.198108" lon="23.587437"><ele>2410.9</ele><time>2026-04-05T08:19:02.000Z</time></trkpt>
<trkpt lat="42.198108" lon="23.587437"><ele>2410.9</ele><time>2026-04-05T08:19:03.000Z</time></trkpt>
<trkpt lat="42.198108" lon="23.587437"><ele>2410.9</ele><time>2026-04-05T08:19:04.000Z</time></trkpt>
<trkpt lat="42.198108" lon="23.587437"><ele>2410.9</ele><time>2026-04-05T08:19:05.000Z</time></trkpt>
<trkpt lat="42.198108" lon="23.587437"><ele>2410.9</ele><time>2026-04-05T08:19:06.000Z</time></trkpt>
<trkpt lat="42.198108" lon="23.587436"><ele>2410.9</ele><time>2026-04-05T08:19:07.000Z</time></trkpt>
<trkpt lat="42.198108" lon="23.587436"><ele>2410.9</ele><time>2026-04-05T08:19:08.000Z</time></trkpt>
<trkpt lat="42.198108" lon="23.587436"><ele>2410.8</ele><time>2026-04-05T08:19:09.000Z</time></trkpt>
<trkpt lat="42.198108" lon="23.587436"><ele>2410.8</ele><time>2026-04-05T08:19:10.000Z</time></trkpt>
<trkpt lat="42.198108" lon="23.587437"><ele>2410.8</ele><time>2026-04-05T08:19:11.000Z</time></trkpt>
<trkpt lat="42.198109" lon="23.587436"><ele>2410.8</ele><time>2026-04-05T08:19:12.000Z</time></trkpt>
<trkpt lat="42.198109" lon="23.587436"><ele>2410.8</ele><time>2026-04-05T08:19:13.000Z</time></trkpt>
<trkpt lat="42.198109" lon="23.587435"><ele>2410.7</ele><time>2026-04-05T08:19:14.000Z</time></trkpt>
<trkpt lat="42.198109" lon="23.587435"><ele>2410.7</ele><time>2026-04-05T08:19:15.000Z</time></trkpt>
<trkpt lat="42.19811" lon="23.587434"><ele>2410.7</ele><time>2026-04-05T08:19:16.000Z</time></trkpt>
<trkpt lat="42.19811" lon="23.587434"><ele>2410.7</ele><time>2026-04-05T08:19:17.000Z</time></trkpt>
<trkpt lat="42.19811" lon="23.587434"><ele>2410.7</ele><time>2026-04-05T08:19:18.000Z</time></trkpt>
<trkpt lat="42.19811" lon="23.587434"><ele>2410.7</ele><time>2026-04-05T08:19:19.000Z</time></trkpt>
<trkpt lat="42.19811" lon="23.587434"><ele>2410.7</ele><time>2026-04-05T08:19:20.000Z</time></trkpt>
<trkpt lat="42.19811" lon="23.587435"><ele>2410.7</ele><time>2026-04-05T08:19:21.000Z</time></trkpt>
<trkpt lat="42.19811" lon="23.587435"><ele>2410.7</ele><time>2026-04-05T08:19:22.000Z</time></trkpt>
<trkpt lat="42.19811" lon="23.587436"><ele>2410.7</ele><time>2026-04-05T08:19:23.000Z</time></trkpt>
<trkpt lat="42.19811" lon="23.587436"><ele>2410.8</ele><time>2026-04-05T08:19:24.000Z</time></trkpt>
<trkpt lat="42.19811" lon="23.587436"><ele>2410.8</ele><time>2026-04-05T08:19:25.000Z</time></trkpt>
<trkpt lat="42.19811" lon="23.587436"><ele>2410.8</ele><time>2026-04-05T08:19:26.000Z</time></trkpt>
<trkpt lat="42.19811" lon="23.587436"><ele>2410.8</ele><time>2026-04-05T08:19:27.000Z</time></trkpt>
<trkpt lat="42.198111" lon="23.587436"><ele>2410.8</ele><time>2026-04-05T08:19:28.000Z</time></trkpt>
<trkpt lat="42.198111" lon="23.587436"><ele>2410.7</ele><time>2026-04-05T08:19:29.000Z</time></trkpt>
<trkpt lat="42.198111" lon="23.587436"><ele>2410.7</ele><time>2026-04-05T08:19:30.000Z</time></trkpt>
<trkpt lat="42.198111" lon="23.587436"><ele>2410.7</ele><time>2026-04-05T08:19:31.000Z</time></trkpt>
<trkpt lat="42.198111" lon="23.587436"><ele>2410.7</ele><time>2026-04-05T08:19:32.000Z</time></trkpt>
<trkpt lat="42.19811" lon="23.587436"><ele>2410.7</ele><time>2026-04-05T08:19:33.000Z</time></trkpt>
<trkpt lat="42.19811" lon="23.587437"><ele>2410.7</ele><time>2026-04-05T08:19:34.000Z</time></trkpt>
<trkpt lat="42.198109" lon="23.587438"><ele>2410.7</ele><time>2026-04-05T08:19:35.000Z</time></trkpt>
<trkpt lat="42.198109" lon="23.587439"><ele>2410.7</ele><time>2026-04-05T08:19:36.000Z</time></trkpt>
<trkpt lat="42.198109" lon="23.58744"><ele>2410.7</ele><time>2026-04-05T08:19:37.000Z</time></trkpt>
<trkpt lat="42.19811" lon="23.587441"><ele>2410.7</ele><time>2026-04-05T08:19:38.000Z</time></trkpt>
<trkpt lat="42.19811" lon="23.587441"><ele>2410.7</ele><time>2026-04-05T08:19:39.000Z</time></trkpt>
<trkpt lat="42.198111" lon="23.587442"><ele>2410.7</ele><time>2026-04-05T08:19:40.000Z</time></trkpt>
<trkpt lat="42.198111" lon="23.587442"><ele>2410.7</ele><time>2026-04-05T08:19:41.000Z</time></trkpt>
<trkpt lat="42.198111" lon="23.587442"><ele>2410.7</ele><time>2026-04-05T08:19:42.000Z</time></trkpt>
<trkpt lat="42.198111" lon="23.587442"><ele>2410.7</ele><time>2026-04-05T08:19:43.000Z</time></trkpt>
<trkpt lat="42.198111" lon="23.587442"><ele>2410.9</ele><time>2026-04-05T08:19:44.000Z</time></trkpt>
<trkpt lat="42.19811" lon="23.587442"><ele>2410.9</ele><time>2026-04-05T08:19:45.000Z</time></trkpt>
<trkpt lat="42.19811" lon="23.587442"><ele>2410.9</ele><time>2026-04-05T08:19:46.000Z</time></trkpt>
<trkpt lat="42.19811" lon="23.587442"><ele>2410.9</ele><time>2026-04-05T08:19:47.000Z</time></trkpt>
<trkpt lat="42.19811" lon="23.587442"><ele>2410.9</ele><time>2026-04-05T08:19:48.000Z</time></trkpt>
<trkpt lat="42.19811" lon="23.587442"><ele>2410.9</ele><time>2026-04-05T08:19:49.000Z</time></trkpt>
<trkpt lat="42.198111" lon="23.587441"><ele>2410.9</ele><time>2026-04-05T08:19:50.000Z</time></trkpt>
<trkpt lat="42.198111" lon="23.587441"><ele>2410.9</ele><time>2026-04-05T08:19:51.000Z</time></trkpt>
<trkpt lat="42.198111" lon="23.58744"><ele>2410.9</ele><time>2026-04-05T08:19:52.000Z</time></trkpt>
<trkpt lat="42.198111" lon="23.58744"><ele>2410.9</ele><time>2026-04-05T08:19:53.000Z</time></trkpt>
<trkpt lat="42.198111" lon="23.587439"><ele>2410.8</ele><time>2026-04-05T08:19:54.000Z</time></trkpt>
<trkpt lat="42.198111" lon="23.587439"><ele>2410.8</ele><time>2026-04-05T08:19:55.000Z</time></trkpt>
<trkpt lat="42.198111" lon="23.587439"><ele>2410.8</ele><time>2026-04-05T08:19:56.000Z</time></trkpt>
<trkpt lat="42.198111" lon="23.58744"><ele>2410.8</ele><time>2026-04-05T08:19:57.000Z</time></trkpt>
<trkpt lat="42.198111" lon="23.58744"><ele>2410.8</ele><time>2026-04-05T08:19:58.000Z</time></trkpt>
<trkpt lat="42.198112" lon="23.587439"><ele>2410.5</ele><time>2026-04-05T08:19:59.000Z</time></trkpt>
<trkpt lat="42.198112" lon="23.587439"><ele>2410.5</ele><time>2026-04-05T08:20:00.000Z</time></trkpt>
<trkpt lat="42.198112" lon="23.587439"><ele>2410.5</ele><time>2026-04-05T08:20:01.000Z</time></trkpt>
<trkpt lat="42.198113" lon="23.587438"><ele>2410.5</ele><time>2026-04-05T08:20:02.000Z</time></trkpt>
<trkpt lat="42.198113" lon="23.587438"><ele>2410.5</ele><time>2026-04-05T08:20:03.000Z</time></trkpt>
<trkpt lat="42.198113" lon="23.587439"><ele>2410.4</ele><time>2026-04-05T08:20:04.000Z</time></trkpt>
<trkpt lat="42.198113" lon="23.587439"><ele>2410.4</ele><time>2026-04-05T08:20:05.000Z</time></trkpt>
<trkpt lat="42.198112" lon="23.587439"><ele>2410.4</ele><time>2026-04-05T08:20:06.000Z</time></trkpt>
<trkpt lat="42.198113" lon="23.587438"><ele>2410.4</ele><time>2026-04-05T08:20:07.000Z</time></trkpt>
<trkpt lat="42.198113" lon="23.587437"><ele>2410.4</ele><time>2026-04-05T08:20:08.000Z</time></trkpt>
<trkpt lat="42.198114" lon="23.587436"><ele>2410.4</ele><time>2026-04-05T08:20:09.000Z</time></trkpt>
<trkpt lat="42.198114" lon="23.587434"><ele>2410.4</ele><time>2026-04-05T08:20:10.000Z</time></trkpt>
<trkpt lat="42.198115" lon="23.587434"><ele>2410.4</ele><time>2026-04-05T08:20:11.000Z</time></trkpt>
<trkpt lat="42.198115" lon="23.587435"><ele>2410.4</ele><time>2026-04-05T08:20:12.000Z</time></trkpt>
<trkpt lat="42.198114" lon="23.587435"><ele>2410.4</ele><time>2026-04-05T08:20:13.000Z</time></trkpt>
<trkpt lat="42.198114" lon="23.587436"><ele>2410.5</ele><time>2026-04-05T08:20:14.000Z</time></trkpt>
<trkpt lat="42.198114" lon="23.587436"><ele>2410.5</ele><time>2026-04-05T08:20:15.000Z</time></trkpt>
<trkpt lat="42.198114" lon="23.587437"><ele>2410.5</ele><time>2026-04-05T08:20:16.000Z</time></trkpt>
<trkpt lat="42.198114" lon="23.587437"><ele>2410.5</ele><time>2026-04-05T08:20:17.000Z</time></trkpt>
<trkpt lat="42.198114" lon="23.587437"><ele>2410.5</ele><time>2026-04-05T08:20:18.000Z</time></trkpt>
<trkpt lat="42.198114" lon="23.587437"><ele>2410.7</ele><time>2026-04-05T08:20:19.000Z</time></trkpt>
<trkpt lat="42.198114" lon="23.587437"><ele>2410.7</ele><time>2026-04-05T08:20:20.000Z</time></trkpt>
<trkpt lat="42.198114" lon="23.587437"><ele>2410.7</ele><time>2026-04-05T08:20:21.000Z</time></trkpt>
<trkpt lat="42.198114" lon="23.587437"><ele>2410.7</ele><time>2026-04-05T08:20:22.000Z</time></trkpt>
<trkpt lat="42.198113" lon="23.587436"><ele>2410.7</ele><time>2026-04-05T08:20:23.000Z</time></trkpt>
<trkpt lat="42.198112" lon="23.587437"><ele>2410.8</ele><time>2026-04-05T08:20:24.000Z</time></trkpt>
<trkpt lat="42.198111" lon="23.587438"><ele>2410.8</ele><time>2026-04-05T08:20:25.000Z</time></trkpt>
<trkpt lat="42.198111" lon="23.587439"><ele>2410.8</ele><time>2026-04-05T08:20:26.000Z</time></trkpt>
<trkpt lat="42.198111" lon="23.58744"><ele>2410.8</ele><time>2026-04-05T08:20:27.000Z</time></trkpt>
<trkpt lat="42.198111" lon="23.587442"><ele>2410.8</ele><time>2026-04-05T08:20:28.000Z</time></trkpt>
<trkpt lat="42.198111" lon="23.587443"><ele>2411</ele><time>2026-04-05T08:20:29.000Z</time></trkpt>
<trkpt lat="42.19811" lon="23.587444"><ele>2411</ele><time>2026-04-05T08:20:30.000Z</time></trkpt>
<trkpt lat="42.198109" lon="23.587445"><ele>2411</ele><time>2026-04-05T08:20:31.000Z</time></trkpt>
<trkpt lat="42.198108" lon="23.587447"><ele>2411</ele><time>2026-04-05T08:20:32.000Z</time></trkpt>
<trkpt lat="42.198107" lon="23.587451"><ele>2411</ele><time>2026-04-05T08:20:33.000Z</time></trkpt>
<trkpt lat="42.198107" lon="23.587453"><ele>2411.1</ele><time>2026-04-05T08:20:34.000Z</time></trkpt>
<trkpt lat="42.198106" lon="23.587455"><ele>2411.1</ele><time>2026-04-05T08:20:35.000Z</time></trkpt>
<trkpt lat="42.198105" lon="23.587458"><ele>2411.1</ele><time>2026-04-05T08:20:36.000Z</time></trkpt>
<trkpt lat="42.198105" lon="23.587459"><ele>2411.1</ele><time>2026-04-05T08:20:37.000Z</time></trkpt>
<trkpt lat="42.198104" lon="23.587458"><ele>2411.1</ele><time>2026-04-05T08:20:38.000Z</time></trkpt>
<trkpt lat="42.198105" lon="23.587458"><ele>2411.4</ele><time>2026-04-05T08:20:39.000Z</time></trkpt>
<trkpt lat="42.198105" lon="23.587457"><ele>2411.4</ele><time>2026-04-05T08:20:40.000Z</time></trkpt>
<trkpt lat="42.198106" lon="23.587456"><ele>2411.4</ele><time>2026-04-05T08:20:41.000Z</time></trkpt>
<trkpt lat="42.198107" lon="23.587455"><ele>2411.4</ele><time>2026-04-05T08:20:42.000Z</time></trkpt>
<trkpt lat="42.198108" lon="23.587455"><ele>2411.4</ele><time>2026-04-05T08:20:43.000Z</time></trkpt>
<trkpt lat="42.198108" lon="23.587455"><ele>2411.4</ele><time>2026-04-05T08:20:44.000Z</time></trkpt>
<trkpt lat="42.198108" lon="23.587456"><ele>2411.4</ele><time>2026-04-05T08:20:45.000Z</time></trkpt>
<trkpt lat="42.198108" lon="23.587456"><ele>2411.4</ele><time>2026-04-05T08:20:46.000Z</time></trkpt>
<trkpt lat="42.198109" lon="23.587457"><ele>2411.4</ele><time>2026-04-05T08:20:47.000Z</time></trkpt>
<trkpt lat="42.198108" lon="23.587457"><ele>2411.4</ele><time>2026-04-05T08:20:48.000Z</time></trkpt>
<trkpt lat="42.198108" lon="23.587455"><ele>2411.3</ele><time>2026-04-05T08:20:49.000Z</time></trkpt>
<trkpt lat="42.198108" lon="23.587454"><ele>2411.3</ele><time>2026-04-05T08:20:50.000Z</time></trkpt>
<trkpt lat="42.198108" lon="23.587453"><ele>2411.3</ele><time>2026-04-05T08:20:51.000Z</time></trkpt>
<trkpt lat="42.198107" lon="23.587452"><ele>2411.3</ele><time>2026-04-05T08:20:52.000Z</time></trkpt>
<trkpt lat="42.198107" lon="23.587452"><ele>2411.3</ele><time>2026-04-05T08:20:53.000Z</time></trkpt>
<trkpt lat="42.198107" lon="23.587452"><ele>2411.2</ele><time>2026-04-05T08:20:54.000Z</time></trkpt>
<trkpt lat="42.198108" lon="23.587452"><ele>2411.2</ele><time>2026-04-05T08:20:55.000Z</time></trkpt>
<trkpt lat="42.19811" lon="23.587453"><ele>2411.2</ele><time>2026-04-05T08:20:56.000Z</time></trkpt>
<trkpt lat="42.19811" lon="23.587453"><ele>2411.2</ele><time>2026-04-05T08:20:57.000Z</time></trkpt>
<trkpt lat="42.198111" lon="23.587454"><ele>2411.2</ele><time>2026-04-05T08:20:58.000Z</time></trkpt>
<trkpt lat="42.19811" lon="23.587455"><ele>2411.3</ele><time>2026-04-05T08:20:59.000Z</time></trkpt>
<trkpt lat="42.198109" lon="23.587457"><ele>2411.3</ele><time>2026-04-05T08:21:00.000Z</time></trkpt>
<trkpt lat="42.198108" lon="23.587457"><ele>2411.3</ele><time>2026-04-05T08:21:01.000Z</time></trkpt>
<trkpt lat="42.198107" lon="23.587458"><ele>2411.3</ele><time>2026-04-05T08:21:02.000Z</time></trkpt>
<trkpt lat="42.198107" lon="23.587459"><ele>2411.3</ele><time>2026-04-05T08:21:03.000Z</time></trkpt>
<trkpt lat="42.198107" lon="23.587461"><ele>2411.3</ele><time>2026-04-05T08:21:04.000Z</time></trkpt>
<trkpt lat="42.198107" lon="23.587463"><ele>2411.3</ele><time>2026-04-05T08:21:05.000Z</time></trkpt>
<trkpt lat="42.198106" lon="23.587467"><ele>2411.3</ele><time>2026-04-05T08:21:06.000Z</time></trkpt>
<trkpt lat="42.198104" lon="23.587471"><ele>2411.3</ele><time>2026-04-05T08:21:07.000Z</time></trkpt>
<trkpt lat="42.198102" lon="23.587475"><ele>2411.3</ele><time>2026-04-05T08:21:08.000Z</time></trkpt>
<trkpt lat="42.198099" lon="23.587476"><ele>2411.3</ele><time>2026-04-05T08:21:09.000Z</time></trkpt>
<trkpt lat="42.198098" lon="23.587477"><ele>2411.3</ele><time>2026-04-05T08:21:10.000Z</time></trkpt>
<trkpt lat="42.198097" lon="23.587477"><ele>2411.3</ele><time>2026-04-05T08:21:11.000Z</time></trkpt>
<trkpt lat="42.198096" lon="23.587476"><ele>2411.3</ele><time>2026-04-05T08:21:12.000Z</time></trkpt>
<trkpt lat="42.198096" lon="23.587476"><ele>2411.3</ele><time>2026-04-05T08:21:13.000Z</time></trkpt>
<trkpt lat="42.198096" lon="23.587473"><ele>2411.3</ele><time>2026-04-05T08:21:14.000Z</time></trkpt>
<trkpt lat="42.198096" lon="23.587471"><ele>2411.3</ele><time>2026-04-05T08:21:15.000Z</time></trkpt>
<trkpt lat="42.198097" lon="23.587469"><ele>2411.3</ele><time>2026-04-05T08:21:16.000Z</time></trkpt>
<trkpt lat="42.198097" lon="23.587466"><ele>2411.3</ele><time>2026-04-05T08:21:17.000Z</time></trkpt>
<trkpt lat="42.198098" lon="23.587464"><ele>2411.3</ele><time>2026-04-05T08:21:18.000Z</time></trkpt>
<trkpt lat="42.198099" lon="23.587464"><ele>2411.3</ele><time>2026-04-05T08:21:19.000Z</time></trkpt>
<trkpt lat="42.1981" lon="23.587464"><ele>2411.3</ele><time>2026-04-05T08:21:20.000Z</time></trkpt>
<trkpt lat="42.198102" lon="23.587465"><ele>2411.3</ele><time>2026-04-05T08:21:21.000Z</time></trkpt>
<trkpt lat="42.198103" lon="23.587466"><ele>2411.3</ele><time>2026-04-05T08:21:22.000Z</time></trkpt>
<trkpt lat="42.198103" lon="23.587466"><ele>2411.3</ele><time>2026-04-05T08:21:23.000Z</time></trkpt>
<trkpt lat="42.198104" lon="23.587466"><ele>2411.3</ele><time>2026-04-05T08:21:24.000Z</time></trkpt>
<trkpt lat="42.198105" lon="23.587467"><ele>2411.3</ele><time>2026-04-05T08:21:25.000Z</time></trkpt>
<trkpt lat="42.198106" lon="23.587467"><ele>2411.3</ele><time>2026-04-05T08:21:26.000Z</time></trkpt>
<trkpt lat="42.198106" lon="23.587467"><ele>2411.3</ele><time>2026-04-05T08:21:27.000Z</time></trkpt>
<trkpt lat="42.198107" lon="23.587467"><ele>2411.3</ele><time>2026-04-05T08:21:28.000Z</time></trkpt>
<trkpt lat="42.198107" lon="23.587467"><ele>2411.2</ele><time>2026-04-05T08:21:29.000Z</time></trkpt>
<trkpt lat="42.198107" lon="23.587466"><ele>2411.2</ele><time>2026-04-05T08:21:30.000Z</time></trkpt>
<trkpt lat="42.198107" lon="23.587466"><ele>2411.2</ele><time>2026-04-05T08:21:31.000Z</time></trkpt>
<trkpt lat="42.198107" lon="23.587465"><ele>2411.2</ele><time>2026-04-05T08:21:32.000Z</time></trkpt>
<trkpt lat="42.198107" lon="23.587464"><ele>2411.2</ele><time>2026-04-05T08:21:33.000Z</time></trkpt>
<trkpt lat="42.198107" lon="23.587462"><ele>2411.2</ele><time>2026-04-05T08:21:34.000Z</time></trkpt>
<trkpt lat="42.198106" lon="23.58746"><ele>2411.2</ele><time>2026-04-05T08:21:35.000Z</time></trkpt>
<trkpt lat="42.198104" lon="23.587458"><ele>2411.2</ele><time>2026-04-05T08:21:36.000Z</time></trkpt>
<trkpt lat="42.198101" lon="23.587456"><ele>2411.2</ele><time>2026-04-05T08:21:37.000Z</time></trkpt>
<trkpt lat="42.198098" lon="23.587455"><ele>2411.2</ele><time>2026-04-05T08:21:38.000Z</time></trkpt>
<trkpt lat="42.198096" lon="23.587453"><ele>2411.1</ele><time>2026-04-05T08:21:39.000Z</time></trkpt>
<trkpt lat="42.198094" lon="23.587451"><ele>2411.1</ele><time>2026-04-05T08:21:40.000Z</time></trkpt>
<trkpt lat="42.198093" lon="23.587449"><ele>2411.1</ele><time>2026-04-05T08:21:41.000Z</time></trkpt>
<trkpt lat="42.198094" lon="23.587447"><ele>2411.1</ele><time>2026-04-05T08:21:42.000Z</time></trkpt>
<trkpt lat="42.198096" lon="23.587445"><ele>2411.1</ele><time>2026-04-05T08:21:43.000Z</time></trkpt>
<trkpt lat="42.198098" lon="23.587444"><ele>2411</ele><time>2026-04-05T08:21:44.000Z</time></trkpt>
<trkpt lat="42.1981" lon="23.587442"><ele>2411</ele><time>2026-04-05T08:21:45.000Z</time></trkpt>
<trkpt lat="42.198102" lon="23.587441"><ele>2411</ele><time>2026-04-05T08:21:46.000Z</time></trkpt>
<trkpt lat="42.198103" lon="23.58744"><ele>2411</ele><time>2026-04-05T08:21:47.000Z</time></trkpt>
<trkpt lat="42.198103" lon="23.587439"><ele>2411</ele><time>2026-04-05T08:21:48.000Z</time></trkpt>
<trkpt lat="42.198103" lon="23.587438"><ele>2411</ele><time>2026-04-05T08:21:49.000Z</time></trkpt>
<trkpt lat="42.198103" lon="23.587438"><ele>2411</ele><time>2026-04-05T08:21:50.000Z</time></trkpt>
<trkpt lat="42.198103" lon="23.587437"><ele>2411</ele><time>2026-04-05T08:21:51.000Z</time></trkpt>
<trkpt lat="42.198102" lon="23.587437"><ele>2411</ele><time>2026-04-05T08:21:52.000Z</time></trkpt>
<trkpt lat="42.198102" lon="23.587438"><ele>2411</ele><time>2026-04-05T08:21:53.000Z</time></trkpt>
<trkpt lat="42.198102" lon="23.58744"><ele>2411.1</ele><time>2026-04-05T08:21:54.000Z</time></trkpt>
<trkpt lat="42.198101" lon="23.587441"><ele>2411.1</ele><time>2026-04-05T08:21:55.000Z</time></trkpt>
<trkpt lat="42.198101" lon="23.587443"><ele>2411.1</ele><time>2026-04-05T08:21:56.000Z</time></trkpt>
<trkpt lat="42.198102" lon="23.587443"><ele>2411.1</ele><time>2026-04-05T08:21:57.000Z</time></trkpt>
<trkpt lat="42.198102" lon="23.587444"><ele>2411.1</ele><time>2026-04-05T08:21:58.000Z</time></trkpt>
<trkpt lat="42.198103" lon="23.587446"><ele>2411.2</ele><time>2026-04-05T08:21:59.000Z</time></trkpt>
<trkpt lat="42.198104" lon="23.587448"><ele>2411.2</ele><time>2026-04-05T08:22:00.000Z</time></trkpt>
<trkpt lat="42.198104" lon="23.58745"><ele>2411.2</ele><time>2026-04-05T08:22:01.000Z</time></trkpt>
<trkpt lat="42.198104" lon="23.587453"><ele>2411.2</ele><time>2026-04-05T08:22:02.000Z</time></trkpt>
<trkpt lat="42.198104" lon="23.587455"><ele>2411.2</ele><time>2026-04-05T08:22:03.000Z</time></trkpt>
<trkpt lat="42.198104" lon="23.587456"><ele>2411.3</ele><time>2026-04-05T08:22:04.000Z</time></trkpt>
<trkpt lat="42.198105" lon="23.587457"><ele>2411.3</ele><time>2026-04-05T08:22:05.000Z</time></trkpt>
<trkpt lat="42.198105" lon="23.587457"><ele>2411.3</ele><time>2026-04-05T08:22:06.000Z</time></trkpt>
<trkpt lat="42.198106" lon="23.587456"><ele>2411.3</ele><time>2026-04-05T08:22:07.000Z</time></trkpt>
<trkpt lat="42.198105" lon="23.587457"><ele>2411.3</ele><time>2026-04-05T08:22:08.000Z</time></trkpt>
<trkpt lat="42.198106" lon="23.587457"><ele>2411.5</ele><time>2026-04-05T08:22:09.000Z</time></trkpt>
<trkpt lat="42.198107" lon="23.587456"><ele>2411.5</ele><time>2026-04-05T08:22:10.000Z</time></trkpt>
<trkpt lat="42.198109" lon="23.587454"><ele>2411.5</ele><time>2026-04-05T08:22:11.000Z</time></trkpt>
<trkpt lat="42.19811" lon="23.587452"><ele>2411.5</ele><time>2026-04-05T08:22:12.000Z</time></trkpt>
<trkpt lat="42.198112" lon="23.587449"><ele>2411.5</ele><time>2026-04-05T08:22:13.000Z</time></trkpt>
<trkpt lat="42.198112" lon="23.587446"><ele>2411.5</ele><time>2026-04-05T08:22:14.000Z</time></trkpt>
<trkpt lat="42.198112" lon="23.587442"><ele>2411.5</ele><time>2026-04-05T08:22:15.000Z</time></trkpt>
<trkpt lat="42.198112" lon="23.58744"><ele>2411.5</ele><time>2026-04-05T08:22:16.000Z</time></trkpt>
<trkpt lat="42.198111" lon="23.587439"><ele>2411.5</ele><time>2026-04-05T08:22:17.000Z</time></trkpt>
<trkpt lat="42.19811" lon="23.587436"><ele>2411.5</ele><time>2026-04-05T08:22:18.000Z</time></trkpt>
<trkpt lat="42.19811" lon="23.587435"><ele>2411.6</ele><time>2026-04-05T08:22:19.000Z</time></trkpt>
<trkpt lat="42.19811" lon="23.587434"><ele>2411.6</ele><time>2026-04-05T08:22:20.000Z</time></trkpt>
<trkpt lat="42.19811" lon="23.587433"><ele>2411.6</ele><time>2026-04-05T08:22:21.000Z</time></trkpt>
<trkpt lat="42.19811" lon="23.587433"><ele>2411.6</ele><time>2026-04-05T08:22:22.000Z</time></trkpt>
<trkpt lat="42.198109" lon="23.587433"><ele>2411.6</ele><time>2026-04-05T08:22:23.000Z</time></trkpt>
<trkpt lat="42.198108" lon="23.587433"><ele>2411.6</ele><time>2026-04-05T08:22:24.000Z</time></trkpt>
<trkpt lat="42.198108" lon="23.587433"><ele>2411.6</ele><time>2026-04-05T08:22:25.000Z</time></trkpt>
<trkpt lat="42.198108" lon="23.587433"><ele>2411.6</ele><time>2026-04-05T08:22:26.000Z</time></trkpt>
<trkpt lat="42.198108" lon="23.587432"><ele>2411.6</ele><time>2026-04-05T08:22:27.000Z</time></trkpt>
<trkpt lat="42.198108" lon="23.587431"><ele>2411.6</ele><time>2026-04-05T08:22:28.000Z</time></trkpt>
<trkpt lat="42.198108" lon="23.587432"><ele>2411.6</ele><time>2026-04-05T08:22:29.000Z</time></trkpt>
<trkpt lat="42.198108" lon="23.587433"><ele>2411.6</ele><time>2026-04-05T08:22:30.000Z</time></trkpt>
<trkpt lat="42.198108" lon="23.587434"><ele>2411.6</ele><time>2026-04-05T08:22:31.000Z</time></trkpt>
<trkpt lat="42.198108" lon="23.587434"><ele>2411.6</ele><time>2026-04-05T08:22:32.000Z</time></trkpt>
<trkpt lat="42.198108" lon="23.587434"><ele>2411.6</ele><time>2026-04-05T08:22:33.000Z</time></trkpt>
<trkpt lat="42.198109" lon="23.587434"><ele>2411.6</ele><time>2026-04-05T08:22:34.000Z</time></trkpt>
<trkpt lat="42.198109" lon="23.587434"><ele>2411.6</ele><time>2026-04-05T08:22:35.000Z</time></trkpt>
<trkpt lat="42.198108" lon="23.587434"><ele>2411.6</ele><time>2026-04-05T08:22:36.000Z</time></trkpt>
<trkpt lat="42.198107" lon="23.587435"><ele>2411.6</ele><time>2026-04-05T08:22:37.000Z</time></trkpt>
<trkpt lat="42.198106" lon="23.587436"><ele>2411.6</ele><time>2026-04-05T08:22:38.000Z</time></trkpt>
<trkpt lat="42.198105" lon="23.587436"><ele>2411.6</ele><time>2026-04-05T08:22:39.000Z</time></trkpt>
<trkpt lat="42.198104" lon="23.587436"><ele>2411.6</ele><time>2026-04-05T08:22:40.000Z</time></trkpt>
<trkpt lat="42.198105" lon="23.587436"><ele>2411.6</ele><time>2026-04-05T08:22:41.000Z</time></trkpt>
<trkpt lat="42.198105" lon="23.587436"><ele>2411.6</ele><time>2026-04-05T08:22:42.000Z</time></trkpt>
<trkpt lat="42.198105" lon="23.587436"><ele>2411.6</ele><time>2026-04-05T08:22:43.000Z</time></trkpt>
<trkpt lat="42.198105" lon="23.587437"><ele>2411.5</ele><time>2026-04-05T08:22:44.000Z</time></trkpt>
<trkpt lat="42.198104" lon="23.587437"><ele>2411.5</ele><time>2026-04-05T08:22:45.000Z</time></trkpt>
<trkpt lat="42.198104" lon="23.587437"><ele>2411.5</ele><time>2026-04-05T08:22:46.000Z</time></trkpt>
<trkpt lat="42.198104" lon="23.587438"><ele>2411.5</ele><time>2026-04-05T08:22:47.000Z</time></trkpt>
<trkpt lat="42.198103" lon="23.587438"><ele>2411.5</ele><time>2026-04-05T08:22:48.000Z</time></trkpt>
<trkpt lat="42.198103" lon="23.587438"><ele>2411.6</ele><time>2026-04-05T08:22:49.000Z</time></trkpt>
<trkpt lat="42.198103" lon="23.587439"><ele>2411.6</ele><time>2026-04-05T08:22:50.000Z</time></trkpt>
<trkpt lat="42.198103" lon="23.587439"><ele>2411.6</ele><time>2026-04-05T08:22:51.000Z</time></trkpt>
<trkpt lat="42.198102" lon="23.587441"><ele>2411.6</ele><time>2026-04-05T08:22:52.000Z</time></trkpt>
<trkpt lat="42.198102" lon="23.587443"><ele>2411.6</ele><time>2026-04-05T08:22:53.000Z</time></trkpt>
<trkpt lat="42.198101" lon="23.587444"><ele>2411.6</ele><time>2026-04-05T08:22:54.000Z</time></trkpt>
<trkpt lat="42.198101" lon="23.587444"><ele>2411.6</ele><time>2026-04-05T08:22:55.000Z</time></trkpt>
<trkpt lat="42.198101" lon="23.587446"><ele>2411.6</ele><time>2026-04-05T08:22:56.000Z</time></trkpt>
<trkpt lat="42.1981" lon="23.587447"><ele>2411.6</ele><time>2026-04-05T08:22:57.000Z</time></trkpt>
<trkpt lat="42.198101" lon="23.587449"><ele>2411.6</ele><time>2026-04-05T08:22:58.000Z</time></trkpt>
<trkpt lat="42.198103" lon="23.587453"><ele>2411.6</ele><time>2026-04-05T08:22:59.000Z</time></trkpt>
<trkpt lat="42.198104" lon="23.587459"><ele>2411.6</ele><time>2026-04-05T08:23:00.000Z</time></trkpt>
<trkpt lat="42.198106" lon="23.587464"><ele>2411.6</ele><time>2026-04-05T08:23:01.000Z</time></trkpt>
<trkpt lat="42.198108" lon="23.587471"><ele>2411.6</ele><time>2026-04-05T08:23:02.000Z</time></trkpt>
<trkpt lat="42.198111" lon="23.587478"><ele>2411.6</ele><time>2026-04-05T08:23:03.000Z</time></trkpt>
<trkpt lat="42.198115" lon="23.587487"><ele>2411.5</ele><time>2026-04-05T08:23:04.000Z</time></trkpt>
<trkpt lat="42.198121" lon="23.587496"><ele>2411.5</ele><time>2026-04-05T08:23:05.000Z</time></trkpt>
<trkpt lat="42.198125" lon="23.587504"><ele>2411.5</ele><time>2026-04-05T08:23:06.000Z</time></trkpt>
<trkpt lat="42.198127" lon="23.587512"><ele>2411.5</ele><time>2026-04-05T08:23:07.000Z</time></trkpt>
<trkpt lat="42.198126" lon="23.587517"><ele>2411.5</ele><time>2026-04-05T08:23:08.000Z</time></trkpt>
<trkpt lat="42.198121" lon="23.587521"><ele>2411.4</ele><time>2026-04-05T08:23:09.000Z</time></trkpt>
<trkpt lat="42.198115" lon="23.587525"><ele>2411.4</ele><time>2026-04-05T08:23:10.000Z</time></trkpt>
<trkpt lat="42.198108" lon="23.587529"><ele>2411.4</ele><time>2026-04-05T08:23:11.000Z</time></trkpt>
<trkpt lat="42.198101" lon="23.587534"><ele>2411.4</ele><time>2026-04-05T08:23:12.000Z</time></trkpt>
<trkpt lat="42.198096" lon="23.587541"><ele>2411.4</ele><time>2026-04-05T08:23:13.000Z</time></trkpt>
<trkpt lat="42.198092" lon="23.587546"><ele>2411.2</ele><time>2026-04-05T08:23:14.000Z</time></trkpt>
<trkpt lat="42.198088" lon="23.58755"><ele>2411.2</ele><time>2026-04-05T08:23:15.000Z</time></trkpt>
<trkpt lat="42.198085" lon="23.587552"><ele>2411.2</ele><time>2026-04-05T08:23:16.000Z</time></trkpt>
<trkpt lat="42.198084" lon="23.587553"><ele>2411.2</ele><time>2026-04-05T08:23:17.000Z</time></trkpt>
<trkpt lat="42.198081" lon="23.587553"><ele>2411.2</ele><time>2026-04-05T08:23:18.000Z</time></trkpt>
<trkpt lat="42.198079" lon="23.587554"><ele>2411.4</ele><time>2026-04-05T08:23:19.000Z</time></trkpt>
<trkpt lat="42.198078" lon="23.587554"><ele>2411.4</ele><time>2026-04-05T08:23:20.000Z</time></trkpt>
<trkpt lat="42.198076" lon="23.587554"><ele>2411.4</ele><time>2026-04-05T08:23:21.000Z</time></trkpt>
<trkpt lat="42.198075" lon="23.587554"><ele>2411.4</ele><time>2026-04-05T08:23:22.000Z</time></trkpt>
<trkpt lat="42.198075" lon="23.587555"><ele>2411.4</ele><time>2026-04-05T08:23:23.000Z</time></trkpt>
<trkpt lat="42.198075" lon="23.587555"><ele>2411.9</ele><time>2026-04-05T08:23:24.000Z</time></trkpt>
<trkpt lat="42.198075" lon="23.587556"><ele>2411.9</ele><time>2026-04-05T08:23:25.000Z</time></trkpt>
<trkpt lat="42.198076" lon="23.587557"><ele>2411.9</ele><time>2026-04-05T08:23:26.000Z</time></trkpt>
<trkpt lat="42.198076" lon="23.587557"><ele>2411.9</ele><time>2026-04-05T08:23:27.000Z</time></trkpt>
<trkpt lat="42.198076" lon="23.587557"><ele>2411.9</ele><time>2026-04-05T08:23:28.000Z</time></trkpt>
<trkpt lat="42.198076" lon="23.587557"><ele>2412.4</ele><time>2026-04-05T08:23:29.000Z</time></trkpt>
<trkpt lat="42.198076" lon="23.587557"><ele>2412.4</ele><time>2026-04-05T08:23:30.000Z</time></trkpt>
<trkpt lat="42.198076" lon="23.587557"><ele>2412.4</ele><time>2026-04-05T08:23:31.000Z</time></trkpt>
<trkpt lat="42.198076" lon="23.587557"><ele>2412.4</ele><time>2026-04-05T08:23:32.000Z</time></trkpt>
<trkpt lat="42.198076" lon="23.587557"><ele>2412.4</ele><time>2026-04-05T08:23:33.000Z</time></trkpt>
<trkpt lat="42.198076" lon="23.587557"><ele>2412.5</ele><time>2026-04-05T08:23:34.000Z</time></trkpt>
<trkpt lat="42.198076" lon="23.587557"><ele>2412.5</ele><time>2026-04-05T08:23:35.000Z</time></trkpt>
<trkpt lat="42.198076" lon="23.587557"><ele>2412.5</ele><time>2026-04-05T08:23:36.000Z</time></trkpt>
<trkpt lat="42.198076" lon="23.587557"><ele>2412.5</ele><time>2026-04-05T08:23:37.000Z</time></trkpt>
<trkpt lat="42.198076" lon="23.587557"><ele>2412.5</ele><time>2026-04-05T08:23:38.000Z</time></trkpt>
<trkpt lat="42.198076" lon="23.587557"><ele>2412.4</ele><time>2026-04-05T08:23:39.000Z</time></trkpt>
<trkpt lat="42.198076" lon="23.587557"><ele>2412.4</ele><time>2026-04-05T08:23:40.000Z</time></trkpt>
<trkpt lat="42.198076" lon="23.587557"><ele>2412.4</ele><time>2026-04-05T08:23:41.000Z</time></trkpt>
<trkpt lat="42.198076" lon="23.587557"><ele>2412.4</ele><time>2026-04-05T08:23:42.000Z</time></trkpt>
<trkpt lat="42.198076" lon="23.587557"><ele>2412.4</ele><time>2026-04-05T08:23:43.000Z</time></trkpt>
<trkpt lat="42.198076" lon="23.587558"><ele>2412.2</ele><time>2026-04-05T08:23:44.000Z</time></trkpt>
<trkpt lat="42.198075" lon="23.587558"><ele>2412.2</ele><time>2026-04-05T08:23:45.000Z</time></trkpt>
<trkpt lat="42.198075" lon="23.58756"><ele>2412.2</ele><time>2026-04-05T08:23:46.000Z</time></trkpt>
<trkpt lat="42.198073" lon="23.587561"><ele>2412.2</ele><time>2026-04-05T08:23:47.000Z</time></trkpt>
<trkpt lat="42.198072" lon="23.587563"><ele>2412.2</ele><time>2026-04-05T08:23:48.000Z</time></trkpt>
<trkpt lat="42.19807" lon="23.587564"><ele>2412.2</ele><time>2026-04-05T08:23:49.000Z</time></trkpt>
<trkpt lat="42.198069" lon="23.587565"><ele>2412.2</ele><time>2026-04-05T08:23:50.000Z</time></trkpt>
<trkpt lat="42.198068" lon="23.587565"><ele>2412.2</ele><time>2026-04-05T08:23:51.000Z</time></trkpt>
<trkpt lat="42.198069" lon="23.587565"><ele>2412.2</ele><time>2026-04-05T08:23:52.000Z</time></trkpt>
<trkpt lat="42.19807" lon="23.587565"><ele>2412.2</ele><time>2026-04-05T08:23:53.000Z</time></trkpt>
<trkpt lat="42.198071" lon="23.587566"><ele>2412.3</ele><time>2026-04-05T08:23:54.000Z</time></trkpt>
<trkpt lat="42.198071" lon="23.587566"><ele>2412.3</ele><time>2026-04-05T08:23:55.000Z</time></trkpt>
<trkpt lat="42.198071" lon="23.587567"><ele>2412.3</ele><time>2026-04-05T08:23:56.000Z</time></trkpt>
<trkpt lat="42.198069" lon="23.587566"><ele>2412.3</ele><time>2026-04-05T08:23:57.000Z</time></trkpt>
<trkpt lat="42.198067" lon="23.587565"><ele>2412.3</ele><time>2026-04-05T08:23:58.000Z</time></trkpt>
<trkpt lat="42.198065" lon="23.587563"><ele>2412.3</ele><time>2026-04-05T08:23:59.000Z</time></trkpt>
<trkpt lat="42.198063" lon="23.587562"><ele>2412.3</ele><time>2026-04-05T08:24:00.000Z</time></trkpt>
<trkpt lat="42.198061" lon="23.587561"><ele>2412.3</ele><time>2026-04-05T08:24:01.000Z</time></trkpt>
<trkpt lat="42.19806" lon="23.587561"><ele>2412.3</ele><time>2026-04-05T08:24:02.000Z</time></trkpt>
<trkpt lat="42.198059" lon="23.587562"><ele>2412.3</ele><time>2026-04-05T08:24:03.000Z</time></trkpt>
<trkpt lat="42.198059" lon="23.587563"><ele>2412.3</ele><time>2026-04-05T08:24:04.000Z</time></trkpt>
<trkpt lat="42.198058" lon="23.587565"><ele>2412.3</ele><time>2026-04-05T08:24:05.000Z</time></trkpt>
<trkpt lat="42.198058" lon="23.587566"><ele>2412.3</ele><time>2026-04-05T08:24:06.000Z</time></trkpt>
<trkpt lat="42.198058" lon="23.587568"><ele>2412.3</ele><time>2026-04-05T08:24:07.000Z</time></trkpt>
<trkpt lat="42.198057" lon="23.587571"><ele>2412.3</ele><time>2026-04-05T08:24:08.000Z</time></trkpt>
<trkpt lat="42.198056" lon="23.587574"><ele>2412.3</ele><time>2026-04-05T08:24:09.000Z</time></trkpt>
<trkpt lat="42.198056" lon="23.587577"><ele>2412.3</ele><time>2026-04-05T08:24:10.000Z</time></trkpt>
<trkpt lat="42.198054" lon="23.587579"><ele>2412.3</ele><time>2026-04-05T08:24:11.000Z</time></trkpt>
<trkpt lat="42.198052" lon="23.587579"><ele>2412.3</ele><time>2026-04-05T08:24:12.000Z</time></trkpt>
<trkpt lat="42.198052" lon="23.587578"><ele>2412.3</ele><time>2026-04-05T08:24:13.000Z</time></trkpt>
<trkpt lat="42.198051" lon="23.587578"><ele>2412.2</ele><time>2026-04-05T08:24:14.000Z</time></trkpt>
<trkpt lat="42.19805" lon="23.587578"><ele>2412.2</ele><time>2026-04-05T08:24:15.000Z</time></trkpt>
<trkpt lat="42.19805" lon="23.587578"><ele>2412.2</ele><time>2026-04-05T08:24:16.000Z</time></trkpt>
<trkpt lat="42.19805" lon="23.587579"><ele>2412.2</ele><time>2026-04-05T08:24:17.000Z</time></trkpt>
<trkpt lat="42.19805" lon="23.587579"><ele>2412.2</ele><time>2026-04-05T08:24:18.000Z</time></trkpt>
<trkpt lat="42.198049" lon="23.587579"><ele>2412.1</ele><time>2026-04-05T08:24:19.000Z</time></trkpt>
<trkpt lat="42.198048" lon="23.587579"><ele>2412.1</ele><time>2026-04-05T08:24:20.000Z</time></trkpt>
<trkpt lat="42.198047" lon="23.587579"><ele>2412.1</ele><time>2026-04-05T08:24:21.000Z</time></trkpt>
<trkpt lat="42.198046" lon="23.587579"><ele>2412.1</ele><time>2026-04-05T08:24:22.000Z</time></trkpt>
<trkpt lat="42.198045" lon="23.587579"><ele>2412.1</ele><time>2026-04-05T08:24:23.000Z</time></trkpt>
<trkpt lat="42.198044" lon="23.58758"><ele>2411.9</ele><time>2026-04-05T08:24:24.000Z</time></trkpt>
<trkpt lat="42.198043" lon="23.587581"><ele>2411.9</ele><time>2026-04-05T08:24:25.000Z</time></trkpt>
<trkpt lat="42.198043" lon="23.587581"><ele>2411.9</ele><time>2026-04-05T08:24:26.000Z</time></trkpt>
<trkpt lat="42.198043" lon="23.587581"><ele>2411.9</ele><time>2026-04-05T08:24:27.000Z</time></trkpt>
<trkpt lat="42.198044" lon="23.587581"><ele>2411.9</ele><time>2026-04-05T08:24:28.000Z</time></trkpt>
<trkpt lat="42.198044" lon="23.587582"><ele>2411.8</ele><time>2026-04-05T08:24:29.000Z</time></trkpt>
<trkpt lat="42.198044" lon="23.587581"><ele>2411.8</ele><time>2026-04-05T08:24:30.000Z</time></trkpt>
<trkpt lat="42.198044" lon="23.587581"><ele>2411.8</ele><time>2026-04-05T08:24:31.000Z</time></trkpt>
<trkpt lat="42.198044" lon="23.587581"><ele>2411.8</ele><time>2026-04-05T08:24:32.000Z</time></trkpt>
<trkpt lat="42.198045" lon="23.587581"><ele>2411.8</ele><time>2026-04-05T08:24:33.000Z</time></trkpt>
<trkpt lat="42.198045" lon="23.587581"><ele>2411.9</ele><time>2026-04-05T08:24:34.000Z</time></trkpt>
<trkpt lat="42.198046" lon="23.587582"><ele>2411.9</ele><time>2026-04-05T08:24:35.000Z</time></trkpt>
<trkpt lat="42.198046" lon="23.587583"><ele>2411.9</ele><time>2026-04-05T08:24:36.000Z</time></trkpt>
<trkpt lat="42.198046" lon="23.587583"><ele>2411.9</ele><time>2026-04-05T08:24:37.000Z</time></trkpt>
<trkpt lat="42.198047" lon="23.587583"><ele>2411.9</ele><time>2026-04-05T08:24:38.000Z</time></trkpt>
<trkpt lat="42.198047" lon="23.587583"><ele>2412.1</ele><time>2026-04-05T08:24:39.000Z</time></trkpt>
<trkpt lat="42.198047" lon="23.587584"><ele>2412.1</ele><time>2026-04-05T08:24:40.000Z</time></trkpt>
<trkpt lat="42.198047" lon="23.587584"><ele>2412.1</ele><time>2026-04-05T08:24:41.000Z</time></trkpt>
<trkpt lat="42.198047" lon="23.587584"><ele>2412.1</ele><time>2026-04-05T08:24:42.000Z</time></trkpt>
<trkpt lat="42.198047" lon="23.587584"><ele>2412.1</ele><time>2026-04-05T08:24:43.000Z</time></trkpt>
<trkpt lat="42.198047" lon="23.587583"><ele>2412.5</ele><time>2026-04-05T08:24:44.000Z</time></trkpt>
<trkpt lat="42.198046" lon="23.587584"><ele>2412.5</ele><time>2026-04-05T08:24:45.000Z</time></trkpt>
<trkpt lat="42.198046" lon="23.587584"><ele>2412.5</ele><time>2026-04-05T08:24:46.000Z</time></trkpt>
<trkpt lat="42.198045" lon="23.587584"><ele>2412.5</ele><time>2026-04-05T08:24:47.000Z</time></trkpt>
<trkpt lat="42.198045" lon="23.587584"><ele>2412.5</ele><time>2026-04-05T08:24:48.000Z</time></trkpt>
<trkpt lat="42.198045" lon="23.587585"><ele>2412.6</ele><time>2026-04-05T08:24:49.000Z</time></trkpt>
<trkpt lat="42.198044" lon="23.587584"><ele>2412.6</ele><time>2026-04-05T08:24:50.000Z</time></trkpt>
<trkpt lat="42.198041" lon="23.587582"><ele>2412.6</ele><time>2026-04-05T08:24:51.000Z</time></trkpt>
<trkpt lat="42.198037" lon="23.587581"><ele>2412.6</ele><time>2026-04-05T08:24:52.000Z</time></trkpt>
<trkpt lat="42.198033" lon="23.58758"><ele>2412.6</ele><time>2026-04-05T08:24:53.000Z</time></trkpt>
<trkpt lat="42.19803" lon="23.587578"><ele>2412.7</ele><time>2026-04-05T08:24:54.000Z</time></trkpt>
<trkpt lat="42.198027" lon="23.587578"><ele>2412.7</ele><time>2026-04-05T08:24:55.000Z</time></trkpt>
<trkpt lat="42.198025" lon="23.587579"><ele>2412.7</ele><time>2026-04-05T08:24:56.000Z</time></trkpt>
<trkpt lat="42.198022" lon="23.58758"><ele>2412.7</ele><time>2026-04-05T08:24:57.000Z</time></trkpt>
<trkpt lat="42.198018" lon="23.587583"><ele>2412.7</ele><time>2026-04-05T08:24:58.000Z</time></trkpt>
<trkpt lat="42.198011" lon="23.587587"><ele>2412.4</ele><time>2026-04-05T08:24:59.000Z</time></trkpt>
<trkpt lat="42.198003" lon="23.587592"><ele>2412.4</ele><time>2026-04-05T08:25:00.000Z</time></trkpt>
<trkpt lat="42.197995" lon="23.587599"><ele>2412.4</ele><time>2026-04-05T08:25:01.000Z</time></trkpt>
<trkpt lat="42.197986" lon="23.587606"><ele>2412.4</ele><time>2026-04-05T08:25:02.000Z</time></trkpt>
<trkpt lat="42.197977" lon="23.587614"><ele>2412.4</ele><time>2026-04-05T08:25:03.000Z</time></trkpt>
<trkpt lat="42.197969" lon="23.587623"><ele>2412.2</ele><time>2026-04-05T08:25:04.000Z</time></trkpt>
<trkpt lat="42.197961" lon="23.587632"><ele>2412.2</ele><time>2026-04-05T08:25:05.000Z</time></trkpt>
<trkpt lat="42.197953" lon="23.58764"><ele>2412.2</ele><time>2026-04-05T08:25:06.000Z</time></trkpt>
<trkpt lat="42.197945" lon="23.587649"><ele>2412.2</ele><time>2026-04-05T08:25:07.000Z</time></trkpt>
<trkpt lat="42.197937" lon="23.587656"><ele>2412.2</ele><time>2026-04-05T08:25:08.000Z</time></trkpt>
<trkpt lat="42.197929" lon="23.587662"><ele>2411.7</ele><time>2026-04-05T08:25:09.000Z</time></trkpt>
<trkpt lat="42.197921" lon="23.587671"><ele>2411.7</ele><time>2026-04-05T08:25:10.000Z</time></trkpt>
<trkpt lat="42.197913" lon="23.58768"><ele>2411.7</ele><time>2026-04-05T08:25:11.000Z</time></trkpt>
<trkpt lat="42.197904" lon="23.587689"><ele>2411.7</ele><time>2026-04-05T08:25:12.000Z</time></trkpt>
<trkpt lat="42.197896" lon="23.587698"><ele>2411.7</ele><time>2026-04-05T08:25:13.000Z</time></trkpt>
<trkpt lat="42.197889" lon="23.587707"><ele>2411.2</ele><time>2026-04-05T08:25:14.000Z</time></trkpt>
<trkpt lat="42.197882" lon="23.587716"><ele>2411.2</ele><time>2026-04-05T08:25:15.000Z</time></trkpt>
<trkpt lat="42.197876" lon="23.587725"><ele>2411.2</ele><time>2026-04-05T08:25:16.000Z</time></trkpt>
<trkpt lat="42.197869" lon="23.587735"><ele>2411.2</ele><time>2026-04-05T08:25:17.000Z</time></trkpt>
<trkpt lat="42.197862" lon="23.587748"><ele>2411.2</ele><time>2026-04-05T08:25:18.000Z</time></trkpt>
<trkpt lat="42.197852" lon="23.587761"><ele>2410.9</ele><time>2026-04-05T08:25:19.000Z</time></trkpt>
<trkpt lat="42.197841" lon="23.587773"><ele>2410.9</ele><time>2026-04-05T08:25:20.000Z</time></trkpt>
<trkpt lat="42.19783" lon="23.587785"><ele>2410.9</ele><time>2026-04-05T08:25:21.000Z</time></trkpt>
<trkpt lat="42.197819" lon="23.587794"><ele>2410.9</ele><time>2026-04-05T08:25:22.000Z</time></trkpt>
<trkpt lat="42.197808" lon="23.587802"><ele>2410.9</ele><time>2026-04-05T08:25:23.000Z</time></trkpt>
<trkpt lat="42.197798" lon="23.587808"><ele>2409.8</ele><time>2026-04-05T08:25:24.000Z</time></trkpt>
<trkpt lat="42.19779" lon="23.587813"><ele>2409.8</ele><time>2026-04-05T08:25:25.000Z</time></trkpt>
<trkpt lat="42.197784" lon="23.587817"><ele>2409.8</ele><time>2026-04-05T08:25:26.000Z</time></trkpt>
<trkpt lat="42.19778" lon="23.587819"><ele>2409.8</ele><time>2026-04-05T08:25:27.000Z</time></trkpt>
<trkpt lat="42.197776" lon="23.587822"><ele>2409.8</ele><time>2026-04-05T08:25:28.000Z</time></trkpt>
<trkpt lat="42.197773" lon="23.587826"><ele>2408.4</ele><time>2026-04-05T08:25:29.000Z</time></trkpt>
<trkpt lat="42.197771" lon="23.587828"><ele>2408.4</ele><time>2026-04-05T08:25:30.000Z</time></trkpt>
<trkpt lat="42.19777" lon="23.58783"><ele>2408.4</ele><time>2026-04-05T08:25:31.000Z</time></trkpt>
<trkpt lat="42.197768" lon="23.587832"><ele>2408.4</ele><time>2026-04-05T08:25:32.000Z</time></trkpt>
<trkpt lat="42.197768" lon="23.587833"><ele>2408.4</ele><time>2026-04-05T08:25:33.000Z</time></trkpt>
<trkpt lat="42.197767" lon="23.587832"><ele>2407.8</ele><time>2026-04-05T08:25:34.000Z</time></trkpt>
<trkpt lat="42.197766" lon="23.587832"><ele>2407.8</ele><time>2026-04-05T08:25:35.000Z</time></trkpt>
<trkpt lat="42.197764" lon="23.587833"><ele>2407.8</ele><time>2026-04-05T08:25:36.000Z</time></trkpt>
<trkpt lat="42.197762" lon="23.587835"><ele>2407.8</ele><time>2026-04-05T08:25:37.000Z</time></trkpt>
<trkpt lat="42.197757" lon="23.587839"><ele>2407.8</ele><time>2026-04-05T08:25:38.000Z</time></trkpt>
<trkpt lat="42.19775" lon="23.587844"><ele>2407.2</ele><time>2026-04-05T08:25:39.000Z</time></trkpt>
<trkpt lat="42.197742" lon="23.587849"><ele>2407.2</ele><time>2026-04-05T08:25:40.000Z</time></trkpt>
<trkpt lat="42.197731" lon="23.587857"><ele>2407.2</ele><time>2026-04-05T08:25:41.000Z</time></trkpt>
<trkpt lat="42.197722" lon="23.587866"><ele>2407.2</ele><time>2026-04-05T08:25:42.000Z</time></trkpt>
<trkpt lat="42.197713" lon="23.587875"><ele>2407.2</ele><time>2026-04-05T08:25:43.000Z</time></trkpt>
<trkpt lat="42.197705" lon="23.587884"><ele>2407.2</ele><time>2026-04-05T08:25:44.000Z</time></trkpt>
<trkpt lat="42.197697" lon="23.587894"><ele>2407.2</ele><time>2026-04-05T08:25:45.000Z</time></trkpt>
<trkpt lat="42.197692" lon="23.587902"><ele>2407.2</ele><time>2026-04-05T08:25:46.000Z</time></trkpt>
<trkpt lat="42.197686" lon="23.58791"><ele>2407.2</ele><time>2026-04-05T08:25:47.000Z</time></trkpt>
<trkpt lat="42.19768" lon="23.587916"><ele>2407.2</ele><time>2026-04-05T08:25:48.000Z</time></trkpt>
<trkpt lat="42.197677" lon="23.587919"><ele>2407.2</ele><time>2026-04-05T08:25:49.000Z</time></trkpt>
<trkpt lat="42.197672" lon="23.58792"><ele>2407.2</ele><time>2026-04-05T08:25:50.000Z</time></trkpt>
<trkpt lat="42.197667" lon="23.587921"><ele>2407.2</ele><time>2026-04-05T08:25:51.000Z</time></trkpt>
<trkpt lat="42.197661" lon="23.58792"><ele>2407.2</ele><time>2026-04-05T08:25:52.000Z</time></trkpt>
<trkpt lat="42.197655" lon="23.58792"><ele>2407.2</ele><time>2026-04-05T08:25:53.000Z</time></trkpt>
<trkpt lat="42.197648" lon="23.587922"><ele>2407</ele><time>2026-04-05T08:25:54.000Z</time></trkpt>
<trkpt lat="42.197642" lon="23.587925"><ele>2407</ele><time>2026-04-05T08:25:55.000Z</time></trkpt>
<trkpt lat="42.197635" lon="23.587928"><ele>2407</ele><time>2026-04-05T08:25:56.000Z</time></trkpt>
<trkpt lat="42.197628" lon="23.587932"><ele>2407</ele><time>2026-04-05T08:25:57.000Z</time></trkpt>
<trkpt lat="42.197621" lon="23.587936"><ele>2407</ele><time>2026-04-05T08:25:58.000Z</time></trkpt>
<trkpt lat="42.197614" lon="23.58794"><ele>2406.6</ele><time>2026-04-05T08:25:59.000Z</time></trkpt>
<trkpt lat="42.197608" lon="23.587942"><ele>2406.6</ele><time>2026-04-05T08:26:00.000Z</time></trkpt>
<trkpt lat="42.197601" lon="23.587944"><ele>2406.6</ele><time>2026-04-05T08:26:01.000Z</time></trkpt>
<trkpt lat="42.197594" lon="23.587944"><ele>2406.6</ele><time>2026-04-05T08:26:02.000Z</time></trkpt>
<trkpt lat="42.197588" lon="23.587944"><ele>2406.6</ele><time>2026-04-05T08:26:03.000Z</time></trkpt>
<trkpt lat="42.197584" lon="23.587947"><ele>2406.4</ele><time>2026-04-05T08:26:04.000Z</time></trkpt>
<trkpt lat="42.197578" lon="23.587952"><ele>2406.4</ele><time>2026-04-05T08:26:05.000Z</time></trkpt>
<trkpt lat="42.197573" lon="23.587959"><ele>2406.4</ele><time>2026-04-05T08:26:06.000Z</time></trkpt>
<trkpt lat="42.197568" lon="23.587967"><ele>2406.4</ele><time>2026-04-05T08:26:07.000Z</time></trkpt>
<trkpt lat="42.197562" lon="23.587974"><ele>2406.4</ele><time>2026-04-05T08:26:08.000Z</time></trkpt>
<trkpt lat="42.197554" lon="23.58798"><ele>2406.2</ele><time>2026-04-05T08:26:09.000Z</time></trkpt>
<trkpt lat="42.197545" lon="23.587985"><ele>2406.2</ele><time>2026-04-05T08:26:10.000Z</time></trkpt>
<trkpt lat="42.197536" lon="23.587989"><ele>2406.2</ele><time>2026-04-05T08:26:11.000Z</time></trkpt>
<trkpt lat="42.197526" lon="23.587993"><ele>2406.2</ele><time>2026-04-05T08:26:12.000Z</time></trkpt>
<trkpt lat="42.197517" lon="23.587999"><ele>2406.2</ele><time>2026-04-05T08:26:13.000Z</time></trkpt>
<trkpt lat="42.19751" lon="23.588005"><ele>2406.1</ele><time>2026-04-05T08:26:14.000Z</time></trkpt>
<trkpt lat="42.197503" lon="23.588011"><ele>2406.1</ele><time>2026-04-05T08:26:15.000Z</time></trkpt>
<trkpt lat="42.197496" lon="23.588018"><ele>2406.1</ele><time>2026-04-05T08:26:16.000Z</time></trkpt>
<trkpt lat="42.197489" lon="23.588024"><ele>2406.1</ele><time>2026-04-05T08:26:17.000Z</time></trkpt>
<trkpt lat="42.197483" lon="23.588031"><ele>2406.1</ele><time>2026-04-05T08:26:18.000Z</time></trkpt>
<trkpt lat="42.197476" lon="23.588037"><ele>2406.1</ele><time>2026-04-05T08:26:19.000Z</time></trkpt>
<trkpt lat="42.197468" lon="23.588044"><ele>2406.1</ele><time>2026-04-05T08:26:20.000Z</time></trkpt>
<trkpt lat="42.197461" lon="23.58805"><ele>2406.1</ele><time>2026-04-05T08:26:21.000Z</time></trkpt>
<trkpt lat="42.197453" lon="23.588057"><ele>2406.1</ele><time>2026-04-05T08:26:22.000Z</time></trkpt>
<trkpt lat="42.197444" lon="23.588064"><ele>2406.1</ele><time>2026-04-05T08:26:23.000Z</time></trkpt>
<trkpt lat="42.197435" lon="23.588071"><ele>2405.9</ele><time>2026-04-05T08:26:24.000Z</time></trkpt>
<trkpt lat="42.197426" lon="23.588077"><ele>2405.9</ele><time>2026-04-05T08:26:25.000Z</time></trkpt>
<trkpt lat="42.197419" lon="23.588084"><ele>2405.9</ele><time>2026-04-05T08:26:26.000Z</time></trkpt>
<trkpt lat="42.197411" lon="23.58809"><ele>2405.9</ele><time>2026-04-05T08:26:27.000Z</time></trkpt>
<trkpt lat="42.197404" lon="23.588097"><ele>2405.9</ele><time>2026-04-05T08:26:28.000Z</time></trkpt>
<trkpt lat="42.197396" lon="23.588103"><ele>2405.8</ele><time>2026-04-05T08:26:29.000Z</time></trkpt>
<trkpt lat="42.197389" lon="23.58811"><ele>2405.8</ele><time>2026-04-05T08:26:30.000Z</time></trkpt>
<trkpt lat="42.197381" lon="23.588118"><ele>2405.8</ele><time>2026-04-05T08:26:31.000Z</time></trkpt>
<trkpt lat="42.197374" lon="23.588125"><ele>2405.8</ele><time>2026-04-05T08:26:32.000Z</time></trkpt>
<trkpt lat="42.197367" lon="23.588133"><ele>2405.8</ele><time>2026-04-05T08:26:33.000Z</time></trkpt>
<trkpt lat="42.19736" lon="23.588141"><ele>2405.7</ele><time>2026-04-05T08:26:34.000Z</time></trkpt>
<trkpt lat="42.197352" lon="23.588149"><ele>2405.7</ele><time>2026-04-05T08:26:35.000Z</time></trkpt>
<trkpt lat="42.197345" lon="23.588156"><ele>2405.7</ele><time>2026-04-05T08:26:36.000Z</time></trkpt>
<trkpt lat="42.197337" lon="23.588164"><ele>2405.7</ele><time>2026-04-05T08:26:37.000Z</time></trkpt>
<trkpt lat="42.197328" lon="23.588171"><ele>2405.7</ele><time>2026-04-05T08:26:38.000Z</time></trkpt>
<trkpt lat="42.19732" lon="23.588178"><ele>2405.6</ele><time>2026-04-05T08:26:39.000Z</time></trkpt>
<trkpt lat="42.197311" lon="23.588185"><ele>2405.6</ele><time>2026-04-05T08:26:40.000Z</time></trkpt>
<trkpt lat="42.197303" lon="23.588192"><ele>2405.6</ele><time>2026-04-05T08:26:41.000Z</time></trkpt>
<trkpt lat="42.197294" lon="23.588198"><ele>2405.6</ele><time>2026-04-05T08:26:42.000Z</time></trkpt>
<trkpt lat="42.197287" lon="23.588205"><ele>2405.6</ele><time>2026-04-05T08:26:43.000Z</time></trkpt>
<trkpt lat="42.19728" lon="23.588212"><ele>2405.6</ele><time>2026-04-05T08:26:44.000Z</time></trkpt>
<trkpt lat="42.197272" lon="23.588218"><ele>2405.6</ele><time>2026-04-05T08:26:45.000Z</time></trkpt>
<trkpt lat="42.197265" lon="23.588224"><ele>2405.6</ele><time>2026-04-05T08:26:46.000Z</time></trkpt>
<trkpt lat="42.197258" lon="23.588231"><ele>2405.6</ele><time>2026-04-05T08:26:47.000Z</time></trkpt>
<trkpt lat="42.197251" lon="23.588237"><ele>2405.6</ele><time>2026-04-05T08:26:48.000Z</time></trkpt>
<trkpt lat="42.197244" lon="23.588243"><ele>2405.6</ele><time>2026-04-05T08:26:49.000Z</time></trkpt>
<trkpt lat="42.197239" lon="23.588248"><ele>2405.6</ele><time>2026-04-05T08:26:50.000Z</time></trkpt>
<trkpt lat="42.197234" lon="23.58825"><ele>2405.6</ele><time>2026-04-05T08:26:51.000Z</time></trkpt>
<trkpt lat="42.197231" lon="23.588252"><ele>2405.6</ele><time>2026-04-05T08:26:52.000Z</time></trkpt>
<trkpt lat="42.197228" lon="23.588255"><ele>2405.6</ele><time>2026-04-05T08:26:53.000Z</time></trkpt>
<trkpt lat="42.197224" lon="23.588259"><ele>2405.5</ele><time>2026-04-05T08:26:54.000Z</time></trkpt>
<trkpt lat="42.197218" lon="23.588265"><ele>2405.5</ele><time>2026-04-05T08:26:55.000Z</time></trkpt>
<trkpt lat="42.197211" lon="23.588272"><ele>2405.5</ele><time>2026-04-05T08:26:56.000Z</time></trkpt>
<trkpt lat="42.197204" lon="23.58828"><ele>2405.5</ele><time>2026-04-05T08:26:57.000Z</time></trkpt>
<trkpt lat="42.197195" lon="23.588288"><ele>2405.5</ele><time>2026-04-05T08:26:58.000Z</time></trkpt>
<trkpt lat="42.197187" lon="23.588296"><ele>2405.4</ele><time>2026-04-05T08:26:59.000Z</time></trkpt>
<trkpt lat="42.197179" lon="23.588303"><ele>2405.4</ele><time>2026-04-05T08:27:00.000Z</time></trkpt>
<trkpt lat="42.197172" lon="23.588311"><ele>2405.4</ele><time>2026-04-05T08:27:01.000Z</time></trkpt>
<trkpt lat="42.197166" lon="23.58832"><ele>2405.4</ele><time>2026-04-05T08:27:02.000Z</time></trkpt>
<trkpt lat="42.19716" lon="23.588328"><ele>2405.4</ele><time>2026-04-05T08:27:03.000Z</time></trkpt>
<trkpt lat="42.197154" lon="23.588335"><ele>2405.4</ele><time>2026-04-05T08:27:04.000Z</time></trkpt>
<trkpt lat="42.197147" lon="23.588343"><ele>2405.4</ele><time>2026-04-05T08:27:05.000Z</time></trkpt>
<trkpt lat="42.197141" lon="23.58835"><ele>2405.4</ele><time>2026-04-05T08:27:06.000Z</time></trkpt>
<trkpt lat="42.197133" lon="23.588355"><ele>2405.4</ele><time>2026-04-05T08:27:07.000Z</time></trkpt>
<trkpt lat="42.197126" lon="23.58836"><ele>2405.4</ele><time>2026-04-05T08:27:08.000Z</time></trkpt>
<trkpt lat="42.197119" lon="23.588363"><ele>2405.2</ele><time>2026-04-05T08:27:09.000Z</time></trkpt>
<trkpt lat="42.197116" lon="23.588365"><ele>2405.2</ele><time>2026-04-05T08:27:10.000Z</time></trkpt>
<trkpt lat="42.197114" lon="23.588366"><ele>2405.2</ele><time>2026-04-05T08:27:11.000Z</time></trkpt>
<trkpt lat="42.197114" lon="23.588369"><ele>2405.2</ele><time>2026-04-05T08:27:12.000Z</time></trkpt>
<trkpt lat="42.197115" lon="23.588373"><ele>2405.2</ele><time>2026-04-05T08:27:13.000Z</time></trkpt>
<trkpt lat="42.197115" lon="23.588378"><ele>2404.9</ele><time>2026-04-05T08:27:14.000Z</time></trkpt>
<trkpt lat="42.197112" lon="23.588386"><ele>2404.9</ele><time>2026-04-05T08:27:15.000Z</time></trkpt>
<trkpt lat="42.197107" lon="23.588393"><ele>2404.9</ele><time>2026-04-05T08:27:16.000Z</time></trkpt>
<trkpt lat="42.197098" lon="23.588399"><ele>2404.9</ele><time>2026-04-05T08:27:17.000Z</time></trkpt>
<trkpt lat="42.19709" lon="23.588404"><ele>2404.9</ele><time>2026-04-05T08:27:18.000Z</time></trkpt>
<trkpt lat="42.19708" lon="23.588407"><ele>2404.8</ele><time>2026-04-05T08:27:19.000Z</time></trkpt>
<trkpt lat="42.19707" lon="23.588411"><ele>2404.8</ele><time>2026-04-05T08:27:20.000Z</time></trkpt>
<trkpt lat="42.197061" lon="23.588415"><ele>2404.8</ele><time>2026-04-05T08:27:21.000Z</time></trkpt>
<trkpt lat="42.197053" lon="23.58842"><ele>2404.8</ele><time>2026-04-05T08:27:22.000Z</time></trkpt>
<trkpt lat="42.197045" lon="23.588425"><ele>2404.8</ele><time>2026-04-05T08:27:23.000Z</time></trkpt>
<trkpt lat="42.197038" lon="23.588429"><ele>2404.7</ele><time>2026-04-05T08:27:24.000Z</time></trkpt>
<trkpt lat="42.19703" lon="23.588434"><ele>2404.7</ele><time>2026-04-05T08:27:25.000Z</time></trkpt>
<trkpt lat="42.197021" lon="23.588438"><ele>2404.7</ele><time>2026-04-05T08:27:26.000Z</time></trkpt>
<trkpt lat="42.197013" lon="23.588442"><ele>2404.7</ele><time>2026-04-05T08:27:27.000Z</time></trkpt>
<trkpt lat="42.197005" lon="23.588446"><ele>2404.7</ele><time>2026-04-05T08:27:28.000Z</time></trkpt>
<trkpt lat="42.196997" lon="23.58845"><ele>2404.7</ele><time>2026-04-05T08:27:29.000Z</time></trkpt>
<trkpt lat="42.196991" lon="23.588453"><ele>2404.7</ele><time>2026-04-05T08:27:30.000Z</time></trkpt>
<trkpt lat="42.196986" lon="23.588456"><ele>2404.7</ele><time>2026-04-05T08:27:31.000Z</time></trkpt>
<trkpt lat="42.196981" lon="23.58846"><ele>2404.7</ele><time>2026-04-05T08:27:32.000Z</time></trkpt>
<trkpt lat="42.196975" lon="23.588464"><ele>2404.7</ele><time>2026-04-05T08:27:33.000Z</time></trkpt>
<trkpt lat="42.196969" lon="23.588467"><ele>2404.7</ele><time>2026-04-05T08:27:34.000Z</time></trkpt>
<trkpt lat="42.196963" lon="23.588472"><ele>2404.7</ele><time>2026-04-05T08:27:35.000Z</time></trkpt>
<trkpt lat="42.196955" lon="23.588478"><ele>2404.7</ele><time>2026-04-05T08:27:36.000Z</time></trkpt>
<trkpt lat="42.196947" lon="23.588485"><ele>2404.7</ele><time>2026-04-05T08:27:37.000Z</time></trkpt>
<trkpt lat="42.19694" lon="23.588491"><ele>2404.7</ele><time>2026-04-05T08:27:38.000Z</time></trkpt>
<trkpt lat="42.196934" lon="23.588497"><ele>2404.7</ele><time>2026-04-05T08:27:39.000Z</time></trkpt>
<trkpt lat="42.196927" lon="23.588503"><ele>2404.7</ele><time>2026-04-05T08:27:40.000Z</time></trkpt>
<trkpt lat="42.196918" lon="23.588508"><ele>2404.7</ele><time>2026-04-05T08:27:41.000Z</time></trkpt>
<trkpt lat="42.19691" lon="23.588512"><ele>2404.7</ele><time>2026-04-05T08:27:42.000Z</time></trkpt>
<trkpt lat="42.196901" lon="23.588518"><ele>2404.7</ele><time>2026-04-05T08:27:43.000Z</time></trkpt>
<trkpt lat="42.196894" lon="23.588524"><ele>2404.6</ele><time>2026-04-05T08:27:44.000Z</time></trkpt>
<trkpt lat="42.196886" lon="23.588529"><ele>2404.6</ele><time>2026-04-05T08:27:45.000Z</time></trkpt>
<trkpt lat="42.196879" lon="23.588533"><ele>2404.6</ele><time>2026-04-05T08:27:46.000Z</time></trkpt>
<trkpt lat="42.196873" lon="23.588538"><ele>2404.6</ele><time>2026-04-05T08:27:47.000Z</time></trkpt>
<trkpt lat="42.196867" lon="23.588543"><ele>2404.6</ele><time>2026-04-05T08:27:48.000Z</time></trkpt>
<trkpt lat="42.196859" lon="23.588547"><ele>2404.7</ele><time>2026-04-05T08:27:49.000Z</time></trkpt>
<trkpt lat="42.196851" lon="23.588552"><ele>2404.7</ele><time>2026-04-05T08:27:50.000Z</time></trkpt>
<trkpt lat="42.196843" lon="23.588558"><ele>2404.7</ele><time>2026-04-05T08:27:51.000Z</time></trkpt>
<trkpt lat="42.196835" lon="23.588564"><ele>2404.7</ele><time>2026-04-05T08:27:52.000Z</time></trkpt>
<trkpt lat="42.196827" lon="23.588569"><ele>2404.7</ele><time>2026-04-05T08:27:53.000Z</time></trkpt>
<trkpt lat="42.19682" lon="23.588575"><ele>2404.7</ele><time>2026-04-05T08:27:54.000Z</time></trkpt>
<trkpt lat="42.196812" lon="23.58858"><ele>2404.7</ele><time>2026-04-05T08:27:55.000Z</time></trkpt>
<trkpt lat="42.196803" lon="23.588585"><ele>2404.7</ele><time>2026-04-05T08:27:56.000Z</time></trkpt>
<trkpt lat="42.196794" lon="23.58859"><ele>2404.7</ele><time>2026-04-05T08:27:57.000Z</time></trkpt>
<trkpt lat="42.196785" lon="23.588594"><ele>2404.7</ele><time>2026-04-05T08:27:58.000Z</time></trkpt>
<trkpt lat="42.196776" lon="23.588598"><ele>2404.6</ele><time>2026-04-05T08:27:59.000Z</time></trkpt>
<trkpt lat="42.196767" lon="23.588603"><ele>2404.6</ele><time>2026-04-05T08:28:00.000Z</time></trkpt>
<trkpt lat="42.196758" lon="23.588606"><ele>2404.6</ele><time>2026-04-05T08:28:01.000Z</time></trkpt>
<trkpt lat="42.19675" lon="23.58861"><ele>2404.6</ele><time>2026-04-05T08:28:02.000Z</time></trkpt>
<trkpt lat="42.196741" lon="23.588614"><ele>2404.6</ele><time>2026-04-05T08:28:03.000Z</time></trkpt>
<trkpt lat="42.196733" lon="23.588618"><ele>2404.6</ele><time>2026-04-05T08:28:04.000Z</time></trkpt>
<trkpt lat="42.196724" lon="23.588623"><ele>2404.6</ele><time>2026-04-05T08:28:05.000Z</time></trkpt>
<trkpt lat="42.196716" lon="23.588629"><ele>2404.6</ele><time>2026-04-05T08:28:06.000Z</time></trkpt>
<trkpt lat="42.196708" lon="23.588635"><ele>2404.6</ele><time>2026-04-05T08:28:07.000Z</time></trkpt>
<trkpt lat="42.1967" lon="23.588641"><ele>2404.6</ele><time>2026-04-05T08:28:08.000Z</time></trkpt>
<trkpt lat="42.196691" lon="23.588648"><ele>2404.6</ele><time>2026-04-05T08:28:09.000Z</time></trkpt>
<trkpt lat="42.196683" lon="23.588655"><ele>2404.6</ele><time>2026-04-05T08:28:10.000Z</time></trkpt>
<trkpt lat="42.196674" lon="23.588661"><ele>2404.6</ele><time>2026-04-05T08:28:11.000Z</time></trkpt>
<trkpt lat="42.196666" lon="23.588667"><ele>2404.6</ele><time>2026-04-05T08:28:12.000Z</time></trkpt>
<trkpt lat="42.196658" lon="23.588672"><ele>2404.6</ele><time>2026-04-05T08:28:13.000Z</time></trkpt>
<trkpt lat="42.19665" lon="23.588676"><ele>2404.6</ele><time>2026-04-05T08:28:14.000Z</time></trkpt>
<trkpt lat="42.196643" lon="23.58868"><ele>2404.6</ele><time>2026-04-05T08:28:15.000Z</time></trkpt>
<trkpt lat="42.196636" lon="23.588684"><ele>2404.6</ele><time>2026-04-05T08:28:16.000Z</time></trkpt>
<trkpt lat="42.196628" lon="23.588688"><ele>2404.6</ele><time>2026-04-05T08:28:17.000Z</time></trkpt>
<trkpt lat="42.19662" lon="23.588692"><ele>2404.6</ele><time>2026-04-05T08:28:18.000Z</time></trkpt>
<trkpt lat="42.196612" lon="23.588696"><ele>2404.5</ele><time>2026-04-05T08:28:19.000Z</time></trkpt>
<trkpt lat="42.196605" lon="23.5887"><ele>2404.5</ele><time>2026-04-05T08:28:20.000Z</time></trkpt>
<trkpt lat="42.196598" lon="23.588704"><ele>2404.5</ele><time>2026-04-05T08:28:21.000Z</time></trkpt>
<trkpt lat="42.196593" lon="23.588707"><ele>2404.5</ele><time>2026-04-05T08:28:22.000Z</time></trkpt>
<trkpt lat="42.196587" lon="23.588712"><ele>2404.5</ele><time>2026-04-05T08:28:23.000Z</time></trkpt>
<trkpt lat="42.196581" lon="23.588716"><ele>2404.3</ele><time>2026-04-05T08:28:24.000Z</time></trkpt>
<trkpt lat="42.196574" lon="23.588721"><ele>2404.3</ele><time>2026-04-05T08:28:25.000Z</time></trkpt>
<trkpt lat="42.196566" lon="23.588726"><ele>2404.3</ele><time>2026-04-05T08:28:26.000Z</time></trkpt>
<trkpt lat="42.196557" lon="23.588731"><ele>2404.3</ele><time>2026-04-05T08:28:27.000Z</time></trkpt>
<trkpt lat="42.196549" lon="23.588736"><ele>2404.3</ele><time>2026-04-05T08:28:28.000Z</time></trkpt>
<trkpt lat="42.19654" lon="23.588741"><ele>2404.4</ele><time>2026-04-05T08:28:29.000Z</time></trkpt>
<trkpt lat="42.196531" lon="23.588747"><ele>2404.4</ele><time>2026-04-05T08:28:30.000Z</time></trkpt>
<trkpt lat="42.196523" lon="23.588751"><ele>2404.4</ele><time>2026-04-05T08:28:31.000Z</time></trkpt>
<trkpt lat="42.196515" lon="23.588756"><ele>2404.4</ele><time>2026-04-05T08:28:32.000Z</time></trkpt>
<trkpt lat="42.196506" lon="23.58876"><ele>2404.4</ele><time>2026-04-05T08:28:33.000Z</time></trkpt>
<trkpt lat="42.196498" lon="23.588765"><ele>2404.6</ele><time>2026-04-05T08:28:34.000Z</time></trkpt>
<trkpt lat="42.19649" lon="23.58877"><ele>2404.6</ele><time>2026-04-05T08:28:35.000Z</time></trkpt>
<trkpt lat="42.196483" lon="23.588775"><ele>2404.6</ele><time>2026-04-05T08:28:36.000Z</time></trkpt>
<trkpt lat="42.196475" lon="23.58878"><ele>2404.6</ele><time>2026-04-05T08:28:37.000Z</time></trkpt>
<trkpt lat="42.196466" lon="23.588786"><ele>2404.6</ele><time>2026-04-05T08:28:38.000Z</time></trkpt>
<trkpt lat="42.196459" lon="23.588793"><ele>2404.7</ele><time>2026-04-05T08:28:39.000Z</time></trkpt>
<trkpt lat="42.19645" lon="23.588799"><ele>2404.7</ele><time>2026-04-05T08:28:40.000Z</time></trkpt>
<trkpt lat="42.196442" lon="23.588804"><ele>2404.7</ele><time>2026-04-05T08:28:41.000Z</time></trkpt>
<trkpt lat="42.196434" lon="23.58881"><ele>2404.7</ele><time>2026-04-05T08:28:42.000Z</time></trkpt>
<trkpt lat="42.196426" lon="23.588817"><ele>2404.7</ele><time>2026-04-05T08:28:43.000Z</time></trkpt>
<trkpt lat="42.196418" lon="23.588822"><ele>2404.8</ele><time>2026-04-05T08:28:44.000Z</time></trkpt>
<trkpt lat="42.196412" lon="23.588828"><ele>2404.8</ele><time>2026-04-05T08:28:45.000Z</time></trkpt>
<trkpt lat="42.196405" lon="23.588834"><ele>2404.8</ele><time>2026-04-05T08:28:46.000Z</time></trkpt>
<trkpt lat="42.196399" lon="23.588839"><ele>2404.8</ele><time>2026-04-05T08:28:47.000Z</time></trkpt>
<trkpt lat="42.196392" lon="23.588844"><ele>2404.8</ele><time>2026-04-05T08:28:48.000Z</time></trkpt>
<trkpt lat="42.196385" lon="23.588848"><ele>2404.8</ele><time>2026-04-05T08:28:49.000Z</time></trkpt>
<trkpt lat="42.196379" lon="23.588853"><ele>2404.8</ele><time>2026-04-05T08:28:50.000Z</time></trkpt>
<trkpt lat="42.196372" lon="23.588858"><ele>2404.8</ele><time>2026-04-05T08:28:51.000Z</time></trkpt>
<trkpt lat="42.196365" lon="23.588864"><ele>2404.8</ele><time>2026-04-05T08:28:52.000Z</time></trkpt>
<trkpt lat="42.196357" lon="23.588871"><ele>2404.8</ele><time>2026-04-05T08:28:53.000Z</time></trkpt>
<trkpt lat="42.19635" lon="23.588878"><ele>2405</ele><time>2026-04-05T08:28:54.000Z</time></trkpt>
<trkpt lat="42.196341" lon="23.588885"><ele>2405</ele><time>2026-04-05T08:28:55.000Z</time></trkpt>
<trkpt lat="42.196333" lon="23.588892"><ele>2405</ele><time>2026-04-05T08:28:56.000Z</time></trkpt>
<trkpt lat="42.196325" lon="23.588899"><ele>2405</ele><time>2026-04-05T08:28:57.000Z</time></trkpt>
<trkpt lat="42.196317" lon="23.588905"><ele>2405</ele><time>2026-04-05T08:28:58.000Z</time></trkpt>
<trkpt lat="42.196309" lon="23.588912"><ele>2405.1</ele><time>2026-04-05T08:28:59.000Z</time></trkpt>
<trkpt lat="42.196301" lon="23.588919"><ele>2405.1</ele><time>2026-04-05T08:29:00.000Z</time></trkpt>
<trkpt lat="42.196293" lon="23.588926"><ele>2405.1</ele><time>2026-04-05T08:29:01.000Z</time></trkpt>
<trkpt lat="42.196286" lon="23.588932"><ele>2405.1</ele><time>2026-04-05T08:29:02.000Z</time></trkpt>
<trkpt lat="42.196279" lon="23.588937"><ele>2405.1</ele><time>2026-04-05T08:29:03.000Z</time></trkpt>
<trkpt lat="42.196272" lon="23.588943"><ele>2405.2</ele><time>2026-04-05T08:29:04.000Z</time></trkpt>
<trkpt lat="42.196265" lon="23.588949"><ele>2405.2</ele><time>2026-04-05T08:29:05.000Z</time></trkpt>
<trkpt lat="42.196256" lon="23.588956"><ele>2405.2</ele><time>2026-04-05T08:29:06.000Z</time></trkpt>
<trkpt lat="42.196248" lon="23.588962"><ele>2405.2</ele><time>2026-04-05T08:29:07.000Z</time></trkpt>
<trkpt lat="42.196239" lon="23.588969"><ele>2405.2</ele><time>2026-04-05T08:29:08.000Z</time></trkpt>
<trkpt lat="42.196231" lon="23.588975"><ele>2405.5</ele><time>2026-04-05T08:29:09.000Z</time></trkpt>
<trkpt lat="42.196224" lon="23.588982"><ele>2405.5</ele><time>2026-04-05T08:29:10.000Z</time></trkpt>
<trkpt lat="42.196217" lon="23.588989"><ele>2405.5</ele><time>2026-04-05T08:29:11.000Z</time></trkpt>
<trkpt lat="42.19621" lon="23.588997"><ele>2405.5</ele><time>2026-04-05T08:29:12.000Z</time></trkpt>
<trkpt lat="42.196203" lon="23.589005"><ele>2405.5</ele><time>2026-04-05T08:29:13.000Z</time></trkpt>
<trkpt lat="42.196194" lon="23.589013"><ele>2405.7</ele><time>2026-04-05T08:29:14.000Z</time></trkpt>
<trkpt lat="42.196185" lon="23.589019"><ele>2405.7</ele><time>2026-04-05T08:29:15.000Z</time></trkpt>
<trkpt lat="42.196176" lon="23.589025"><ele>2405.7</ele><time>2026-04-05T08:29:16.000Z</time></trkpt>
<trkpt lat="42.196168" lon="23.589031"><ele>2405.7</ele><time>2026-04-05T08:29:17.000Z</time></trkpt>
<trkpt lat="42.196159" lon="23.589036"><ele>2405.7</ele><time>2026-04-05T08:29:18.000Z</time></trkpt>
<trkpt lat="42.196151" lon="23.589041"><ele>2405.8</ele><time>2026-04-05T08:29:19.000Z</time></trkpt>
<trkpt lat="42.196143" lon="23.589046"><ele>2405.8</ele><time>2026-04-05T08:29:20.000Z</time></trkpt>
<trkpt lat="42.196135" lon="23.58905"><ele>2405.8</ele><time>2026-04-05T08:29:21.000Z</time></trkpt>
<trkpt lat="42.196127" lon="23.589054"><ele>2405.8</ele><time>2026-04-05T08:29:22.000Z</time></trkpt>
<trkpt lat="42.196119" lon="23.589059"><ele>2405.8</ele><time>2026-04-05T08:29:23.000Z</time></trkpt>
<trkpt lat="42.19611" lon="23.589063"><ele>2406.1</ele><time>2026-04-05T08:29:24.000Z</time></trkpt>
<trkpt lat="42.1961" lon="23.589067"><ele>2406.1</ele><time>2026-04-05T08:29:25.000Z</time></trkpt>
<trkpt lat="42.196089" lon="23.589072"><ele>2406.1</ele><time>2026-04-05T08:29:26.000Z</time></trkpt>
<trkpt lat="42.196079" lon="23.589077"><ele>2406.1</ele><time>2026-04-05T08:29:27.000Z</time></trkpt>
<trkpt lat="42.196069" lon="23.589081"><ele>2406.1</ele><time>2026-04-05T08:29:28.000Z</time></trkpt>
<trkpt lat="42.196059" lon="23.589085"><ele>2406.3</ele><time>2026-04-05T08:29:29.000Z</time></trkpt>
<trkpt lat="42.19605" lon="23.589089"><ele>2406.3</ele><time>2026-04-05T08:29:30.000Z</time></trkpt>
<trkpt lat="42.196041" lon="23.589093"><ele>2406.3</ele><time>2026-04-05T08:29:31.000Z</time></trkpt>
<trkpt lat="42.196032" lon="23.589097"><ele>2406.3</ele><time>2026-04-05T08:29:32.000Z</time></trkpt>
<trkpt lat="42.196024" lon="23.589101"><ele>2406.3</ele><time>2026-04-05T08:29:33.000Z</time></trkpt>
<trkpt lat="42.196015" lon="23.589104"><ele>2406.3</ele><time>2026-04-05T08:29:34.000Z</time></trkpt>
<trkpt lat="42.196005" lon="23.589107"><ele>2406.3</ele><time>2026-04-05T08:29:35.000Z</time></trkpt>
<trkpt lat="42.195995" lon="23.58911"><ele>2406.3</ele><time>2026-04-05T08:29:36.000Z</time></trkpt>
<trkpt lat="42.195985" lon="23.589112"><ele>2406.3</ele><time>2026-04-05T08:29:37.000Z</time></trkpt>
<trkpt lat="42.195975" lon="23.589114"><ele>2406.3</ele><time>2026-04-05T08:29:38.000Z</time></trkpt>
<trkpt lat="42.195965" lon="23.589117"><ele>2406.5</ele><time>2026-04-05T08:29:39.000Z</time></trkpt>
<trkpt lat="42.195957" lon="23.58912"><ele>2406.5</ele><time>2026-04-05T08:29:40.000Z</time></trkpt>
<trkpt lat="42.195948" lon="23.589123"><ele>2406.5</ele><time>2026-04-05T08:29:41.000Z</time></trkpt>
<trkpt lat="42.195938" lon="23.589127"><ele>2406.5</ele><time>2026-04-05T08:29:42.000Z</time></trkpt>
<trkpt lat="42.19593" lon="23.589131"><ele>2406.5</ele><time>2026-04-05T08:29:43.000Z</time></trkpt>
<trkpt lat="42.195921" lon="23.589133"><ele>2406.7</ele><time>2026-04-05T08:29:44.000Z</time></trkpt>
<trkpt lat="42.195913" lon="23.589137"><ele>2406.7</ele><time>2026-04-05T08:29:45.000Z</time></trkpt>
<trkpt lat="42.195905" lon="23.58914"><ele>2406.7</ele><time>2026-04-05T08:29:46.000Z</time></trkpt>
<trkpt lat="42.195898" lon="23.589143"><ele>2406.7</ele><time>2026-04-05T08:29:47.000Z</time></trkpt>
<trkpt lat="42.195889" lon="23.589147"><ele>2406.7</ele><time>2026-04-05T08:29:48.000Z</time></trkpt>
<trkpt lat="42.195882" lon="23.58915"><ele>2406.9</ele><time>2026-04-05T08:29:49.000Z</time></trkpt>
<trkpt lat="42.195874" lon="23.589154"><ele>2406.9</ele><time>2026-04-05T08:29:50.000Z</time></trkpt>
<trkpt lat="42.195866" lon="23.589158"><ele>2406.9</ele><time>2026-04-05T08:29:51.000Z</time></trkpt>
<trkpt lat="42.195857" lon="23.589162"><ele>2406.9</ele><time>2026-04-05T08:29:52.000Z</time></trkpt>
<trkpt lat="42.195849" lon="23.589165"><ele>2406.9</ele><time>2026-04-05T08:29:53.000Z</time></trkpt>
<trkpt lat="42.19584" lon="23.589169"><ele>2407.1</ele><time>2026-04-05T08:29:54.000Z</time></trkpt>
<trkpt lat="42.195831" lon="23.589172"><ele>2407.1</ele><time>2026-04-05T08:29:55.000Z</time></trkpt>
<trkpt lat="42.195822" lon="23.589176"><ele>2407.1</ele><time>2026-04-05T08:29:56.000Z</time></trkpt>
<trkpt lat="42.195814" lon="23.589179"><ele>2407.1</ele><time>2026-04-05T08:29:57.000Z</time></trkpt>
<trkpt lat="42.195804" lon="23.589182"><ele>2407.1</ele><time>2026-04-05T08:29:58.000Z</time></trkpt>
<trkpt lat="42.195795" lon="23.589186"><ele>2407.3</ele><time>2026-04-05T08:29:59.000Z</time></trkpt>
<trkpt lat="42.195786" lon="23.589189"><ele>2407.3</ele><time>2026-04-05T08:30:00.000Z</time></trkpt>
<trkpt lat="42.195778" lon="23.589194"><ele>2407.3</ele><time>2026-04-05T08:30:01.000Z</time></trkpt>
<trkpt lat="42.195771" lon="23.589198"><ele>2407.3</ele><time>2026-04-05T08:30:02.000Z</time></trkpt>
<trkpt lat="42.195762" lon="23.589202"><ele>2407.3</ele><time>2026-04-05T08:30:03.000Z</time></trkpt>
<trkpt lat="42.195754" lon="23.589205"><ele>2407.4</ele><time>2026-04-05T08:30:04.000Z</time></trkpt>
<trkpt lat="42.195746" lon="23.589209"><ele>2407.4</ele><time>2026-04-05T08:30:05.000Z</time></trkpt>
<trkpt lat="42.195738" lon="23.58921"><ele>2407.4</ele><time>2026-04-05T08:30:06.000Z</time></trkpt>
<trkpt lat="42.195731" lon="23.589211"><ele>2407.4</ele><time>2026-04-05T08:30:07.000Z</time></trkpt>
<trkpt lat="42.195724" lon="23.589213"><ele>2407.4</ele><time>2026-04-05T08:30:08.000Z</time></trkpt>
<trkpt lat="42.195716" lon="23.589214"><ele>2407.6</ele><time>2026-04-05T08:30:09.000Z</time></trkpt>
<trkpt lat="42.195709" lon="23.589216"><ele>2407.6</ele><time>2026-04-05T08:30:10.000Z</time></trkpt>
<trkpt lat="42.195701" lon="23.589217"><ele>2407.6</ele><time>2026-04-05T08:30:11.000Z</time></trkpt>
<trkpt lat="42.195693" lon="23.58922"><ele>2407.6</ele><time>2026-04-05T08:30:12.000Z</time></trkpt>
<trkpt lat="42.195684" lon="23.589222"><ele>2407.6</ele><time>2026-04-05T08:30:13.000Z</time></trkpt>
<trkpt lat="42.195675" lon="23.589225"><ele>2408</ele><time>2026-04-05T08:30:14.000Z</time></trkpt>
<trkpt lat="42.195665" lon="23.589228"><ele>2408</ele><time>2026-04-05T08:30:15.000Z</time></trkpt>
<trkpt lat="42.195655" lon="23.589233"><ele>2408</ele><time>2026-04-05T08:30:16.000Z</time></trkpt>
<trkpt lat="42.195644" lon="23.589236"><ele>2408</ele><time>2026-04-05T08:30:17.000Z</time></trkpt>
<trkpt lat="42.195634" lon="23.58924"><ele>2408</ele><time>2026-04-05T08:30:18.000Z</time></trkpt>
<trkpt lat="42.195625" lon="23.589244"><ele>2408.2</ele><time>2026-04-05T08:30:19.000Z</time></trkpt>
<trkpt lat="42.195615" lon="23.589247"><ele>2408.2</ele><time>2026-04-05T08:30:20.000Z</time></trkpt>
<trkpt lat="42.195606" lon="23.589251"><ele>2408.2</ele><time>2026-04-05T08:30:21.000Z</time></trkpt>
<trkpt lat="42.195597" lon="23.589256"><ele>2408.2</ele><time>2026-04-05T08:30:22.000Z</time></trkpt>
<trkpt lat="42.195587" lon="23.589261"><ele>2408.2</ele><time>2026-04-05T08:30:23.000Z</time></trkpt>
<trkpt lat="42.195579" lon="23.589265"><ele>2408.6</ele><time>2026-04-05T08:30:24.000Z</time></trkpt>
<trkpt lat="42.19557" lon="23.589269"><ele>2408.6</ele><time>2026-04-05T08:30:25.000Z</time></trkpt>
<trkpt lat="42.195561" lon="23.589273"><ele>2408.6</ele><time>2026-04-05T08:30:26.000Z</time></trkpt>
<trkpt lat="42.195552" lon="23.589277"><ele>2408.6</ele><time>2026-04-05T08:30:27.000Z</time></trkpt>
<trkpt lat="42.195543" lon="23.589281"><ele>2408.6</ele><time>2026-04-05T08:30:28.000Z</time></trkpt>
<trkpt lat="42.195535" lon="23.589284"><ele>2408.9</ele><time>2026-04-05T08:30:29.000Z</time></trkpt>
<trkpt lat="42.195527" lon="23.589287"><ele>2408.9</ele><time>2026-04-05T08:30:30.000Z</time></trkpt>
<trkpt lat="42.195519" lon="23.589291"><ele>2408.9</ele><time>2026-04-05T08:30:31.000Z</time></trkpt>
<trkpt lat="42.195511" lon="23.589296"><ele>2408.9</ele><time>2026-04-05T08:30:32.000Z</time></trkpt>
<trkpt lat="42.195503" lon="23.5893"><ele>2408.9</ele><time>2026-04-05T08:30:33.000Z</time></trkpt>
<trkpt lat="42.195493" lon="23.589306"><ele>2409</ele><time>2026-04-05T08:30:34.000Z</time></trkpt>
<trkpt lat="42.195484" lon="23.589311"><ele>2409</ele><time>2026-04-05T08:30:35.000Z</time></trkpt>
<trkpt lat="42.195474" lon="23.589315"><ele>2409</ele><time>2026-04-05T08:30:36.000Z</time></trkpt>
<trkpt lat="42.195465" lon="23.589317"><ele>2409</ele><time>2026-04-05T08:30:37.000Z</time></trkpt>
<trkpt lat="42.195457" lon="23.589318"><ele>2409</ele><time>2026-04-05T08:30:38.000Z</time></trkpt>
<trkpt lat="42.195449" lon="23.589318"><ele>2409.2</ele><time>2026-04-05T08:30:39.000Z</time></trkpt>
<trkpt lat="42.195441" lon="23.589316"><ele>2409.2</ele><time>2026-04-05T08:30:40.000Z</time></trkpt>
<trkpt lat="42.195434" lon="23.589313"><ele>2409.2</ele><time>2026-04-05T08:30:41.000Z</time></trkpt>
<trkpt lat="42.195429" lon="23.58931"><ele>2409.2</ele><time>2026-04-05T08:30:42.000Z</time></trkpt>
<trkpt lat="42.195425" lon="23.589308"><ele>2409.2</ele><time>2026-04-05T08:30:43.000Z</time></trkpt>
<trkpt lat="42.195421" lon="23.589307"><ele>2409.6</ele><time>2026-04-05T08:30:44.000Z</time></trkpt>
<trkpt lat="42.195416" lon="23.589306"><ele>2409.6</ele><time>2026-04-05T08:30:45.000Z</time></trkpt>
<trkpt lat="42.195412" lon="23.589307"><ele>2409.6</ele><time>2026-04-05T08:30:46.000Z</time></trkpt>
<trkpt lat="42.195406" lon="23.589306"><ele>2409.6</ele><time>2026-04-05T08:30:47.000Z</time></trkpt>
<trkpt lat="42.195399" lon="23.589306"><ele>2409.6</ele><time>2026-04-05T08:30:48.000Z</time></trkpt>
<trkpt lat="42.195392" lon="23.589304"><ele>2409.8</ele><time>2026-04-05T08:30:49.000Z</time></trkpt>
<trkpt lat="42.195385" lon="23.589302"><ele>2409.8</ele><time>2026-04-05T08:30:50.000Z</time></trkpt>
<trkpt lat="42.195377" lon="23.589298"><ele>2409.8</ele><time>2026-04-05T08:30:51.000Z</time></trkpt>
<trkpt lat="42.195369" lon="23.589296"><ele>2409.8</ele><time>2026-04-05T08:30:52.000Z</time></trkpt>
<trkpt lat="42.195361" lon="23.589293"><ele>2409.8</ele><time>2026-04-05T08:30:53.000Z</time></trkpt>
<trkpt lat="42.195352" lon="23.589291"><ele>2410</ele><time>2026-04-05T08:30:54.000Z</time></trkpt>
<trkpt lat="42.195345" lon="23.58929"><ele>2410</ele><time>2026-04-05T08:30:55.000Z</time></trkpt>
<trkpt lat="42.195337" lon="23.589288"><ele>2410</ele><time>2026-04-05T08:30:56.000Z</time></trkpt>
<trkpt lat="42.19533" lon="23.589285"><ele>2410</ele><time>2026-04-05T08:30:57.000Z</time></trkpt>
<trkpt lat="42.195322" lon="23.589284"><ele>2410</ele><time>2026-04-05T08:30:58.000Z</time></trkpt>
<trkpt lat="42.195316" lon="23.589283"><ele>2410.1</ele><time>2026-04-05T08:30:59.000Z</time></trkpt>
<trkpt lat="42.195307" lon="23.589282"><ele>2410.1</ele><time>2026-04-05T08:31:00.000Z</time></trkpt>
<trkpt lat="42.195298" lon="23.589283"><ele>2410.1</ele><time>2026-04-05T08:31:01.000Z</time></trkpt>
<trkpt lat="42.195287" lon="23.589284"><ele>2410.1</ele><time>2026-04-05T08:31:02.000Z</time></trkpt>
<trkpt lat="42.195275" lon="23.589284"><ele>2410.1</ele><time>2026-04-05T08:31:03.000Z</time></trkpt>
<trkpt lat="42.195263" lon="23.589285"><ele>2410.1</ele><time>2026-04-05T08:31:04.000Z</time></trkpt>
<trkpt lat="42.195251" lon="23.589286"><ele>2410.1</ele><time>2026-04-05T08:31:05.000Z</time></trkpt>
<trkpt lat="42.19524" lon="23.589286"><ele>2410.1</ele><time>2026-04-05T08:31:06.000Z</time></trkpt>
<trkpt lat="42.19523" lon="23.589287"><ele>2410.1</ele><time>2026-04-05T08:31:07.000Z</time></trkpt>
<trkpt lat="42.195221" lon="23.589286"><ele>2410.1</ele><time>2026-04-05T08:31:08.000Z</time></trkpt>
<trkpt lat="42.195211" lon="23.589285"><ele>2410.3</ele><time>2026-04-05T08:31:09.000Z</time></trkpt>
<trkpt lat="42.195201" lon="23.589284"><ele>2410.3</ele><time>2026-04-05T08:31:10.000Z</time></trkpt>
<trkpt lat="42.195191" lon="23.589283"><ele>2410.3</ele><time>2026-04-05T08:31:11.000Z</time></trkpt>
<trkpt lat="42.195181" lon="23.589281"><ele>2410.3</ele><time>2026-04-05T08:31:12.000Z</time></trkpt>
<trkpt lat="42.19517" lon="23.589278"><ele>2410.3</ele><time>2026-04-05T08:31:13.000Z</time></trkpt>
<trkpt lat="42.19516" lon="23.589275"><ele>2410.5</ele><time>2026-04-05T08:31:14.000Z</time></trkpt>
<trkpt lat="42.19515" lon="23.589273"><ele>2410.5</ele><time>2026-04-05T08:31:15.000Z</time></trkpt>
<trkpt lat="42.19514" lon="23.589271"><ele>2410.5</ele><time>2026-04-05T08:31:16.000Z</time></trkpt>
<trkpt lat="42.195131" lon="23.58927"><ele>2410.5</ele><time>2026-04-05T08:31:17.000Z</time></trkpt>
<trkpt lat="42.195123" lon="23.589269"><ele>2410.5</ele><time>2026-04-05T08:31:18.000Z</time></trkpt>
<trkpt lat="42.195114" lon="23.589269"><ele>2410.7</ele><time>2026-04-05T08:31:19.000Z</time></trkpt>
<trkpt lat="42.195105" lon="23.589267"><ele>2410.7</ele><time>2026-04-05T08:31:20.000Z</time></trkpt>
<trkpt lat="42.195095" lon="23.589266"><ele>2410.7</ele><time>2026-04-05T08:31:21.000Z</time></trkpt>
<trkpt lat="42.195083" lon="23.589264"><ele>2410.7</ele><time>2026-04-05T08:31:22.000Z</time></trkpt>
<trkpt lat="42.195071" lon="23.589261"><ele>2410.7</ele><time>2026-04-05T08:31:23.000Z</time></trkpt>
<trkpt lat="42.195061" lon="23.58926"><ele>2410.8</ele><time>2026-04-05T08:31:24.000Z</time></trkpt>
<trkpt lat="42.195051" lon="23.589258"><ele>2410.8</ele><time>2026-04-05T08:31:25.000Z</time></trkpt>
<trkpt lat="42.195041" lon="23.589257"><ele>2410.8</ele><time>2026-04-05T08:31:26.000Z</time></trkpt>
<trkpt lat="42.195032" lon="23.589255"><ele>2410.8</ele><time>2026-04-05T08:31:27.000Z</time></trkpt>
<trkpt lat="42.195022" lon="23.589253"><ele>2410.8</ele><time>2026-04-05T08:31:28.000Z</time></trkpt>
<trkpt lat="42.195011" lon="23.58925"><ele>2410.9</ele><time>2026-04-05T08:31:29.000Z</time></trkpt>
<trkpt lat="42.195" lon="23.589247"><ele>2410.9</ele><time>2026-04-05T08:31:30.000Z</time></trkpt>
<trkpt lat="42.19499" lon="23.589245"><ele>2410.9</ele><time>2026-04-05T08:31:31.000Z</time></trkpt>
<trkpt lat="42.194981" lon="23.589243"><ele>2410.9</ele><time>2026-04-05T08:31:32.000Z</time></trkpt>
<trkpt lat="42.194972" lon="23.58924"><ele>2410.9</ele><time>2026-04-05T08:31:33.000Z</time></trkpt>
<trkpt lat="42.194963" lon="23.589238"><ele>2410.9</ele><time>2026-04-05T08:31:34.000Z</time></trkpt>
<trkpt lat="42.194954" lon="23.589235"><ele>2410.9</ele><time>2026-04-05T08:31:35.000Z</time></trkpt>
<trkpt lat="42.194946" lon="23.589232"><ele>2410.9</ele><time>2026-04-05T08:31:36.000Z</time></trkpt>
<trkpt lat="42.194938" lon="23.589228"><ele>2410.9</ele><time>2026-04-05T08:31:37.000Z</time></trkpt>
<trkpt lat="42.194932" lon="23.589225"><ele>2410.9</ele><time>2026-04-05T08:31:38.000Z</time></trkpt>
<trkpt lat="42.194928" lon="23.589223"><ele>2411</ele><time>2026-04-05T08:31:39.000Z</time></trkpt>
<trkpt lat="42.194926" lon="23.589222"><ele>2411</ele><time>2026-04-05T08:31:40.000Z</time></trkpt>
<trkpt lat="42.194925" lon="23.589222"><ele>2411</ele><time>2026-04-05T08:31:41.000Z</time></trkpt>
<trkpt lat="42.194924" lon="23.589223"><ele>2411</ele><time>2026-04-05T08:31:42.000Z</time></trkpt>
<trkpt lat="42.194923" lon="23.589225"><ele>2411</ele><time>2026-04-05T08:31:43.000Z</time></trkpt>
<trkpt lat="42.194921" lon="23.589227"><ele>2410.9</ele><time>2026-04-05T08:31:44.000Z</time></trkpt>
<trkpt lat="42.194916" lon="23.589228"><ele>2410.9</ele><time>2026-04-05T08:31:45.000Z</time></trkpt>
<trkpt lat="42.19491" lon="23.589228"><ele>2410.9</ele><time>2026-04-05T08:31:46.000Z</time></trkpt>
<trkpt lat="42.194902" lon="23.589227"><ele>2410.9</ele><time>2026-04-05T08:31:47.000Z</time></trkpt>
<trkpt lat="42.194894" lon="23.589225"><ele>2410.9</ele><time>2026-04-05T08:31:48.000Z</time></trkpt>
<trkpt lat="42.194885" lon="23.589221"><ele>2410.8</ele><time>2026-04-05T08:31:49.000Z</time></trkpt>
<trkpt lat="42.194879" lon="23.589217"><ele>2410.8</ele><time>2026-04-05T08:31:50.000Z</time></trkpt>
<trkpt lat="42.194874" lon="23.589214"><ele>2410.8</ele><time>2026-04-05T08:31:51.000Z</time></trkpt>
<trkpt lat="42.194871" lon="23.589212"><ele>2410.8</ele><time>2026-04-05T08:31:52.000Z</time></trkpt>
<trkpt lat="42.194868" lon="23.589211"><ele>2410.8</ele><time>2026-04-05T08:31:53.000Z</time></trkpt>
<trkpt lat="42.194867" lon="23.589211"><ele>2410.8</ele><time>2026-04-05T08:31:54.000Z</time></trkpt>
<trkpt lat="42.194866" lon="23.589212"><ele>2410.8</ele><time>2026-04-05T08:31:55.000Z</time></trkpt>
<trkpt lat="42.194864" lon="23.589214"><ele>2410.8</ele><time>2026-04-05T08:31:56.000Z</time></trkpt>
<trkpt lat="42.19486" lon="23.589214"><ele>2410.8</ele><time>2026-04-05T08:31:57.000Z</time></trkpt>
<trkpt lat="42.194855" lon="23.589213"><ele>2410.8</ele><time>2026-04-05T08:31:58.000Z</time></trkpt>
<trkpt lat="42.194848" lon="23.589211"><ele>2410.8</ele><time>2026-04-05T08:31:59.000Z</time></trkpt>
<trkpt lat="42.194838" lon="23.589207"><ele>2410.8</ele><time>2026-04-05T08:32:00.000Z</time></trkpt>
<trkpt lat="42.194829" lon="23.589203"><ele>2410.8</ele><time>2026-04-05T08:32:01.000Z</time></trkpt>
<trkpt lat="42.194819" lon="23.5892"><ele>2410.8</ele><time>2026-04-05T08:32:02.000Z</time></trkpt>
<trkpt lat="42.19481" lon="23.589196"><ele>2410.8</ele><time>2026-04-05T08:32:03.000Z</time></trkpt>
<trkpt lat="42.1948" lon="23.589192"><ele>2410.8</ele><time>2026-04-05T08:32:04.000Z</time></trkpt>
<trkpt lat="42.194791" lon="23.589189"><ele>2410.8</ele><time>2026-04-05T08:32:05.000Z</time></trkpt>
<trkpt lat="42.194781" lon="23.589185"><ele>2410.8</ele><time>2026-04-05T08:32:06.000Z</time></trkpt>
<trkpt lat="42.194772" lon="23.58918"><ele>2410.8</ele><time>2026-04-05T08:32:07.000Z</time></trkpt>
<trkpt lat="42.194763" lon="23.589175"><ele>2410.8</ele><time>2026-04-05T08:32:08.000Z</time></trkpt>
<trkpt lat="42.194755" lon="23.589171"><ele>2410.7</ele><time>2026-04-05T08:32:09.000Z</time></trkpt>
<trkpt lat="42.194748" lon="23.589168"><ele>2410.7</ele><time>2026-04-05T08:32:10.000Z</time></trkpt>
<trkpt lat="42.194739" lon="23.589164"><ele>2410.7</ele><time>2026-04-05T08:32:11.000Z</time></trkpt>
<trkpt lat="42.194731" lon="23.58916"><ele>2410.7</ele><time>2026-04-05T08:32:12.000Z</time></trkpt>
<trkpt lat="42.194723" lon="23.589156"><ele>2410.7</ele><time>2026-04-05T08:32:13.000Z</time></trkpt>
<trkpt lat="42.194715" lon="23.589151"><ele>2411.1</ele><time>2026-04-05T08:32:14.000Z</time></trkpt>
<trkpt lat="42.194706" lon="23.589146"><ele>2411.1</ele><time>2026-04-05T08:32:15.000Z</time></trkpt>
<trkpt lat="42.194698" lon="23.589143"><ele>2411.1</ele><time>2026-04-05T08:32:16.000Z</time></trkpt>
<trkpt lat="42.19469" lon="23.589139"><ele>2411.1</ele><time>2026-04-05T08:32:17.000Z</time></trkpt>
<trkpt lat="42.194681" lon="23.589135"><ele>2411.1</ele><time>2026-04-05T08:32:18.000Z</time></trkpt>
<trkpt lat="42.194672" lon="23.589132"><ele>2411.4</ele><time>2026-04-05T08:32:19.000Z</time></trkpt>
<trkpt lat="42.194664" lon="23.58913"><ele>2411.4</ele><time>2026-04-05T08:32:20.000Z</time></trkpt>
<trkpt lat="42.194655" lon="23.589126"><ele>2411.4</ele><time>2026-04-05T08:32:21.000Z</time></trkpt>
<trkpt lat="42.194645" lon="23.589122"><ele>2411.4</ele><time>2026-04-05T08:32:22.000Z</time></trkpt>
<trkpt lat="42.194636" lon="23.589119"><ele>2411.4</ele><time>2026-04-05T08:32:23.000Z</time></trkpt>
<trkpt lat="42.194627" lon="23.589115"><ele>2412.1</ele><time>2026-04-05T08:32:24.000Z</time></trkpt>
<trkpt lat="42.194618" lon="23.589111"><ele>2412.1</ele><time>2026-04-05T08:32:25.000Z</time></trkpt>
<trkpt lat="42.194609" lon="23.589108"><ele>2412.1</ele><time>2026-04-05T08:32:26.000Z</time></trkpt>
<trkpt lat="42.194599" lon="23.589106"><ele>2412.1</ele><time>2026-04-05T08:32:27.000Z</time></trkpt>
<trkpt lat="42.19459" lon="23.589103"><ele>2412.1</ele><time>2026-04-05T08:32:28.000Z</time></trkpt>
<trkpt lat="42.194581" lon="23.5891"><ele>2412.8</ele><time>2026-04-05T08:32:29.000Z</time></trkpt>
<trkpt lat="42.194572" lon="23.589098"><ele>2412.8</ele><time>2026-04-05T08:32:30.000Z</time></trkpt>
<trkpt lat="42.194563" lon="23.589095"><ele>2412.8</ele><time>2026-04-05T08:32:31.000Z</time></trkpt>
<trkpt lat="42.194554" lon="23.589092"><ele>2412.8</ele><time>2026-04-05T08:32:32.000Z</time></trkpt>
<trkpt lat="42.194545" lon="23.589089"><ele>2412.8</ele><time>2026-04-05T08:32:33.000Z</time></trkpt>
<trkpt lat="42.194536" lon="23.589085"><ele>2413.1</ele><time>2026-04-05T08:32:34.000Z</time></trkpt>
<trkpt lat="42.194527" lon="23.589083"><ele>2413.1</ele><time>2026-04-05T08:32:35.000Z</time></trkpt>
<trkpt lat="42.194519" lon="23.589079"><ele>2413.1</ele><time>2026-04-05T08:32:36.000Z</time></trkpt>
<trkpt lat="42.19451" lon="23.589077"><ele>2413.1</ele><time>2026-04-05T08:32:37.000Z</time></trkpt>
<trkpt lat="42.1945" lon="23.589074"><ele>2413.1</ele><time>2026-04-05T08:32:38.000Z</time></trkpt>
<trkpt lat="42.194492" lon="23.589071"><ele>2413.5</ele><time>2026-04-05T08:32:39.000Z</time></trkpt>
<trkpt lat="42.194482" lon="23.589068"><ele>2413.5</ele><time>2026-04-05T08:32:40.000Z</time></trkpt>
<trkpt lat="42.194474" lon="23.589064"><ele>2413.5</ele><time>2026-04-05T08:32:41.000Z</time></trkpt>
<trkpt lat="42.194464" lon="23.58906"><ele>2413.5</ele><time>2026-04-05T08:32:42.000Z</time></trkpt>
<trkpt lat="42.194454" lon="23.589056"><ele>2413.5</ele><time>2026-04-05T08:32:43.000Z</time></trkpt>
<trkpt lat="42.194446" lon="23.589053"><ele>2413.9</ele><time>2026-04-05T08:32:44.000Z</time></trkpt>
<trkpt lat="42.194437" lon="23.589049"><ele>2413.9</ele><time>2026-04-05T08:32:45.000Z</time></trkpt>
<trkpt lat="42.194428" lon="23.589046"><ele>2413.9</ele><time>2026-04-05T08:32:46.000Z</time></trkpt>
<trkpt lat="42.19442" lon="23.589044"><ele>2413.9</ele><time>2026-04-05T08:32:47.000Z</time></trkpt>
<trkpt lat="42.194411" lon="23.58904"><ele>2413.9</ele><time>2026-04-05T08:32:48.000Z</time></trkpt>
<trkpt lat="42.194402" lon="23.589036"><ele>2414</ele><time>2026-04-05T08:32:49.000Z</time></trkpt>
<trkpt lat="42.194393" lon="23.589031"><ele>2414</ele><time>2026-04-05T08:32:50.000Z</time></trkpt>
<trkpt lat="42.194383" lon="23.589026"><ele>2414</ele><time>2026-04-05T08:32:51.000Z</time></trkpt>
<trkpt lat="42.194374" lon="23.58902"><ele>2414</ele><time>2026-04-05T08:32:52.000Z</time></trkpt>
<trkpt lat="42.194365" lon="23.589015"><ele>2414</ele><time>2026-04-05T08:32:53.000Z</time></trkpt>
<trkpt lat="42.194355" lon="23.589011"><ele>2414.5</ele><time>2026-04-05T08:32:54.000Z</time></trkpt>
<trkpt lat="42.194344" lon="23.589008"><ele>2414.5</ele><time>2026-04-05T08:32:55.000Z</time></trkpt>
<trkpt lat="42.194334" lon="23.589004"><ele>2414.5</ele><time>2026-04-05T08:32:56.000Z</time></trkpt>
<trkpt lat="42.194324" lon="23.589001"><ele>2414.5</ele><time>2026-04-05T08:32:57.000Z</time></trkpt>
<trkpt lat="42.194313" lon="23.588999"><ele>2414.5</ele><time>2026-04-05T08:32:58.000Z</time></trkpt>
<trkpt lat="42.194303" lon="23.588997"><ele>2415.1</ele><time>2026-04-05T08:32:59.000Z</time></trkpt>
<trkpt lat="42.194295" lon="23.588994"><ele>2415.1</ele><time>2026-04-05T08:33:00.000Z</time></trkpt>
<trkpt lat="42.194289" lon="23.588993"><ele>2415.1</ele><time>2026-04-05T08:33:01.000Z</time></trkpt>
<trkpt lat="42.194285" lon="23.588992"><ele>2415.1</ele><time>2026-04-05T08:33:02.000Z</time></trkpt>
<trkpt lat="42.194284" lon="23.588993"><ele>2415.1</ele><time>2026-04-05T08:33:03.000Z</time></trkpt>
<trkpt lat="42.194283" lon="23.588993"><ele>2415.4</ele><time>2026-04-05T08:33:04.000Z</time></trkpt>
<trkpt lat="42.194283" lon="23.588994"><ele>2415.4</ele><time>2026-04-05T08:33:05.000Z</time></trkpt>
<trkpt lat="42.194282" lon="23.588995"><ele>2415.4</ele><time>2026-04-05T08:33:06.000Z</time></trkpt>
<trkpt lat="42.194279" lon="23.588995"><ele>2415.4</ele><time>2026-04-05T08:33:07.000Z</time></trkpt>
<trkpt lat="42.194274" lon="23.588996"><ele>2415.4</ele><time>2026-04-05T08:33:08.000Z</time></trkpt>
<trkpt lat="42.194268" lon="23.588996"><ele>2416</ele><time>2026-04-05T08:33:09.000Z</time></trkpt>
<trkpt lat="42.194259" lon="23.588995"><ele>2416</ele><time>2026-04-05T08:33:10.000Z</time></trkpt>
<trkpt lat="42.194251" lon="23.588995"><ele>2416</ele><time>2026-04-05T08:33:11.000Z</time></trkpt>
<trkpt lat="42.194242" lon="23.588994"><ele>2416</ele><time>2026-04-05T08:33:12.000Z</time></trkpt>
<trkpt lat="42.194233" lon="23.588993"><ele>2416</ele><time>2026-04-05T08:33:13.000Z</time></trkpt>
<trkpt lat="42.194223" lon="23.58899"><ele>2416.5</ele><time>2026-04-05T08:33:14.000Z</time></trkpt>
<trkpt lat="42.194212" lon="23.588988"><ele>2416.5</ele><time>2026-04-05T08:33:15.000Z</time></trkpt>
<trkpt lat="42.194201" lon="23.588986"><ele>2416.5</ele><time>2026-04-05T08:33:16.000Z</time></trkpt>
<trkpt lat="42.19419" lon="23.588984"><ele>2416.5</ele><time>2026-04-05T08:33:17.000Z</time></trkpt>
<trkpt lat="42.194178" lon="23.588983"><ele>2416.5</ele><time>2026-04-05T08:33:18.000Z</time></trkpt>
<trkpt lat="42.194168" lon="23.588983"><ele>2416.7</ele><time>2026-04-05T08:33:19.000Z</time></trkpt>
<trkpt lat="42.194158" lon="23.588983"><ele>2416.7</ele><time>2026-04-05T08:33:20.000Z</time></trkpt>
<trkpt lat="42.194147" lon="23.588981"><ele>2416.7</ele><time>2026-04-05T08:33:21.000Z</time></trkpt>
<trkpt lat="42.194136" lon="23.58898"><ele>2416.7</ele><time>2026-04-05T08:33:22.000Z</time></trkpt>
<trkpt lat="42.194127" lon="23.588978"><ele>2416.7</ele><time>2026-04-05T08:33:23.000Z</time></trkpt>
<trkpt lat="42.194118" lon="23.588975"><ele>2417.2</ele><time>2026-04-05T08:33:24.000Z</time></trkpt>
<trkpt lat="42.194109" lon="23.588973"><ele>2417.2</ele><time>2026-04-05T08:33:25.000Z</time></trkpt>
<trkpt lat="42.194103" lon="23.588972"><ele>2417.2</ele><time>2026-04-05T08:33:26.000Z</time></trkpt>
<trkpt lat="42.194098" lon="23.588971"><ele>2417.2</ele><time>2026-04-05T08:33:27.000Z</time></trkpt>
<trkpt lat="42.194096" lon="23.58897"><ele>2417.2</ele><time>2026-04-05T08:33:28.000Z</time></trkpt>
<trkpt lat="42.194094" lon="23.588968"><ele>2417.8</ele><time>2026-04-05T08:33:29.000Z</time></trkpt>
<trkpt lat="42.194093" lon="23.588967"><ele>2417.8</ele><time>2026-04-05T08:33:30.000Z</time></trkpt>
<trkpt lat="42.194094" lon="23.588967"><ele>2417.8</ele><time>2026-04-05T08:33:31.000Z</time></trkpt>
<trkpt lat="42.194093" lon="23.588967"><ele>2417.8</ele><time>2026-04-05T08:33:32.000Z</time></trkpt>
<trkpt lat="42.194093" lon="23.588967"><ele>2417.8</ele><time>2026-04-05T08:33:33.000Z</time></trkpt>
<trkpt lat="42.194093" lon="23.588967"><ele>2418.1</ele><time>2026-04-05T08:33:34.000Z</time></trkpt>
<trkpt lat="42.194093" lon="23.588967"><ele>2418.1</ele><time>2026-04-05T08:33:35.000Z</time></trkpt>
<trkpt lat="42.194092" lon="23.588966"><ele>2418.1</ele><time>2026-04-05T08:33:36.000Z</time></trkpt>
<trkpt lat="42.194088" lon="23.588965"><ele>2418.1</ele><time>2026-04-05T08:33:37.000Z</time></trkpt>
<trkpt lat="42.194083" lon="23.588964"><ele>2418.1</ele><time>2026-04-05T08:33:38.000Z</time></trkpt>
<trkpt lat="42.194076" lon="23.588963"><ele>2418.7</ele><time>2026-04-05T08:33:39.000Z</time></trkpt>
<trkpt lat="42.194066" lon="23.588959"><ele>2418.7</ele><time>2026-04-05T08:33:40.000Z</time></trkpt>
<trkpt lat="42.194055" lon="23.588955"><ele>2418.7</ele><time>2026-04-05T08:33:41.000Z</time></trkpt>
<trkpt lat="42.194044" lon="23.588951"><ele>2418.7</ele><time>2026-04-05T08:33:42.000Z</time></trkpt>
<trkpt lat="42.194033" lon="23.588946"><ele>2418.7</ele><time>2026-04-05T08:33:43.000Z</time></trkpt>
<trkpt lat="42.194022" lon="23.58894"><ele>2419</ele><time>2026-04-05T08:33:44.000Z</time></trkpt>
<trkpt lat="42.194012" lon="23.588936"><ele>2419</ele><time>2026-04-05T08:33:45.000Z</time></trkpt>
<trkpt lat="42.194001" lon="23.588932"><ele>2419</ele><time>2026-04-05T08:33:46.000Z</time></trkpt>
<trkpt lat="42.193989" lon="23.588929"><ele>2419</ele><time>2026-04-05T08:33:47.000Z</time></trkpt>
<trkpt lat="42.193977" lon="23.588925"><ele>2419</ele><time>2026-04-05T08:33:48.000Z</time></trkpt>
<trkpt lat="42.193966" lon="23.588923"><ele>2419.2</ele><time>2026-04-05T08:33:49.000Z</time></trkpt>
<trkpt lat="42.193954" lon="23.58892"><ele>2419.2</ele><time>2026-04-05T08:33:50.000Z</time></trkpt>
<trkpt lat="42.193944" lon="23.588918"><ele>2419.2</ele><time>2026-04-05T08:33:51.000Z</time></trkpt>
<trkpt lat="42.193934" lon="23.588913"><ele>2419.2</ele><time>2026-04-05T08:33:52.000Z</time></trkpt>
<trkpt lat="42.193923" lon="23.588909"><ele>2419.2</ele><time>2026-04-05T08:33:53.000Z</time></trkpt>
<trkpt lat="42.193913" lon="23.588904"><ele>2419.5</ele><time>2026-04-05T08:33:54.000Z</time></trkpt>
<trkpt lat="42.193903" lon="23.5889"><ele>2419.5</ele><time>2026-04-05T08:33:55.000Z</time></trkpt>
<trkpt lat="42.193893" lon="23.588895"><ele>2419.5</ele><time>2026-04-05T08:33:56.000Z</time></trkpt>
<trkpt lat="42.193883" lon="23.588892"><ele>2419.5</ele><time>2026-04-05T08:33:57.000Z</time></trkpt>
<trkpt lat="42.193874" lon="23.588889"><ele>2419.5</ele><time>2026-04-05T08:33:58.000Z</time></trkpt>
<trkpt lat="42.193865" lon="23.588887"><ele>2420.3</ele><time>2026-04-05T08:33:59.000Z</time></trkpt>
<trkpt lat="42.193855" lon="23.588885"><ele>2420.3</ele><time>2026-04-05T08:34:00.000Z</time></trkpt>
<trkpt lat="42.193845" lon="23.588883"><ele>2420.3</ele><time>2026-04-05T08:34:01.000Z</time></trkpt>
<trkpt lat="42.193836" lon="23.588881"><ele>2420.3</ele><time>2026-04-05T08:34:02.000Z</time></trkpt>
<trkpt lat="42.193827" lon="23.588879"><ele>2420.3</ele><time>2026-04-05T08:34:03.000Z</time></trkpt>
<trkpt lat="42.193818" lon="23.588877"><ele>2420.8</ele><time>2026-04-05T08:34:04.000Z</time></trkpt>
<trkpt lat="42.193809" lon="23.588874"><ele>2420.8</ele><time>2026-04-05T08:34:05.000Z</time></trkpt>
<trkpt lat="42.193801" lon="23.588871"><ele>2420.8</ele><time>2026-04-05T08:34:06.000Z</time></trkpt>
<trkpt lat="42.193793" lon="23.588867"><ele>2420.8</ele><time>2026-04-05T08:34:07.000Z</time></trkpt>
<trkpt lat="42.193787" lon="23.588861"><ele>2420.8</ele><time>2026-04-05T08:34:08.000Z</time></trkpt>
<trkpt lat="42.19378" lon="23.588856"><ele>2421.9</ele><time>2026-04-05T08:34:09.000Z</time></trkpt>
<trkpt lat="42.193774" lon="23.588852"><ele>2421.9</ele><time>2026-04-05T08:34:10.000Z</time></trkpt>
<trkpt lat="42.193766" lon="23.588848"><ele>2421.9</ele><time>2026-04-05T08:34:11.000Z</time></trkpt>
<trkpt lat="42.193758" lon="23.588846"><ele>2421.9</ele><time>2026-04-05T08:34:12.000Z</time></trkpt>
<trkpt lat="42.193749" lon="23.588844"><ele>2421.9</ele><time>2026-04-05T08:34:13.000Z</time></trkpt>
<trkpt lat="42.19374" lon="23.588841"><ele>2423.1</ele><time>2026-04-05T08:34:14.000Z</time></trkpt>
<trkpt lat="42.193732" lon="23.588837"><ele>2423.1</ele><time>2026-04-05T08:34:15.000Z</time></trkpt>
<trkpt lat="42.193724" lon="23.588833"><ele>2423.1</ele><time>2026-04-05T08:34:16.000Z</time></trkpt>
<trkpt lat="42.193715" lon="23.58883"><ele>2423.1</ele><time>2026-04-05T08:34:17.000Z</time></trkpt>
<trkpt lat="42.193708" lon="23.588827"><ele>2423.1</ele><time>2026-04-05T08:34:18.000Z</time></trkpt>
<trkpt lat="42.193701" lon="23.588824"><ele>2423.6</ele><time>2026-04-05T08:34:19.000Z</time></trkpt>
<trkpt lat="42.193693" lon="23.588822"><ele>2423.6</ele><time>2026-04-05T08:34:20.000Z</time></trkpt>
<trkpt lat="42.193685" lon="23.58882"><ele>2423.6</ele><time>2026-04-05T08:34:21.000Z</time></trkpt>
<trkpt lat="42.193676" lon="23.588818"><ele>2423.6</ele><time>2026-04-05T08:34:22.000Z</time></trkpt>
<trkpt lat="42.193668" lon="23.588815"><ele>2423.6</ele><time>2026-04-05T08:34:23.000Z</time></trkpt>
<trkpt lat="42.19366" lon="23.588812"><ele>2424.5</ele><time>2026-04-05T08:34:24.000Z</time></trkpt>
<trkpt lat="42.193652" lon="23.58881"><ele>2424.5</ele><time>2026-04-05T08:34:25.000Z</time></trkpt>
<trkpt lat="42.193645" lon="23.588807"><ele>2424.5</ele><time>2026-04-05T08:34:26.000Z</time></trkpt>
<trkpt lat="42.193638" lon="23.588805"><ele>2424.5</ele><time>2026-04-05T08:34:27.000Z</time></trkpt>
<trkpt lat="42.193632" lon="23.588802"><ele>2424.5</ele><time>2026-04-05T08:34:28.000Z</time></trkpt>
<trkpt lat="42.193625" lon="23.5888"><ele>2425.2</ele><time>2026-04-05T08:34:29.000Z</time></trkpt>
<trkpt lat="42.193618" lon="23.588798"><ele>2425.2</ele><time>2026-04-05T08:34:30.000Z</time></trkpt>
<trkpt lat="42.193612" lon="23.588796"><ele>2425.2</ele><time>2026-04-05T08:34:31.000Z</time></trkpt>
<trkpt lat="42.193606" lon="23.588794"><ele>2425.2</ele><time>2026-04-05T08:34:32.000Z</time></trkpt>
<trkpt lat="42.1936" lon="23.588792"><ele>2425.2</ele><time>2026-04-05T08:34:33.000Z</time></trkpt>
<trkpt lat="42.193594" lon="23.58879"><ele>2425.6</ele><time>2026-04-05T08:34:34.000Z</time></trkpt>
<trkpt lat="42.193586" lon="23.588788"><ele>2425.6</ele><time>2026-04-05T08:34:35.000Z</time></trkpt>
<trkpt lat="42.193578" lon="23.588785"><ele>2425.6</ele><time>2026-04-05T08:34:36.000Z</time></trkpt>
<trkpt lat="42.193569" lon="23.588782"><ele>2425.6</ele><time>2026-04-05T08:34:37.000Z</time></trkpt>
<trkpt lat="42.193561" lon="23.58878"><ele>2425.6</ele><time>2026-04-05T08:34:38.000Z</time></trkpt>
<trkpt lat="42.193554" lon="23.588777"><ele>2426.1</ele><time>2026-04-05T08:34:39.000Z</time></trkpt>
<trkpt lat="42.193548" lon="23.588774"><ele>2426.1</ele><time>2026-04-05T08:34:40.000Z</time></trkpt>
<trkpt lat="42.193543" lon="23.588773"><ele>2426.1</ele><time>2026-04-05T08:34:41.000Z</time></trkpt>
<trkpt lat="42.193538" lon="23.588771"><ele>2426.1</ele><time>2026-04-05T08:34:42.000Z</time></trkpt>
<trkpt lat="42.193533" lon="23.58877"><ele>2426.1</ele><time>2026-04-05T08:34:43.000Z</time></trkpt>
<trkpt lat="42.193527" lon="23.588768"><ele>2426.6</ele><time>2026-04-05T08:34:44.000Z</time></trkpt>
<trkpt lat="42.193521" lon="23.588765"><ele>2426.6</ele><time>2026-04-05T08:34:45.000Z</time></trkpt>
<trkpt lat="42.193516" lon="23.588762"><ele>2426.6</ele><time>2026-04-05T08:34:46.000Z</time></trkpt>
<trkpt lat="42.19351" lon="23.588759"><ele>2426.6</ele><time>2026-04-05T08:34:47.000Z</time></trkpt>
<trkpt lat="42.193505" lon="23.588756"><ele>2426.6</ele><time>2026-04-05T08:34:48.000Z</time></trkpt>
<trkpt lat="42.193499" lon="23.588754"><ele>2426.9</ele><time>2026-04-05T08:34:49.000Z</time></trkpt>
<trkpt lat="42.193495" lon="23.588754"><ele>2426.9</ele><time>2026-04-05T08:34:50.000Z</time></trkpt>
<trkpt lat="42.193489" lon="23.588753"><ele>2426.9</ele><time>2026-04-05T08:34:51.000Z</time></trkpt>
<trkpt lat="42.193483" lon="23.588753"><ele>2426.9</ele><time>2026-04-05T08:34:52.000Z</time></trkpt>
<trkpt lat="42.193477" lon="23.588752"><ele>2426.9</ele><time>2026-04-05T08:34:53.000Z</time></trkpt>
<trkpt lat="42.193471" lon="23.58875"><ele>2427.4</ele><time>2026-04-05T08:34:54.000Z</time></trkpt>
<trkpt lat="42.193463" lon="23.588748"><ele>2427.4</ele><time>2026-04-05T08:34:55.000Z</time></trkpt>
<trkpt lat="42.193456" lon="23.588745"><ele>2427.4</ele><time>2026-04-05T08:34:56.000Z</time></trkpt>
<trkpt lat="42.193449" lon="23.588742"><ele>2427.4</ele><time>2026-04-05T08:34:57.000Z</time></trkpt>
<trkpt lat="42.193441" lon="23.588739"><ele>2427.4</ele><time>2026-04-05T08:34:58.000Z</time></trkpt>
<trkpt lat="42.193435" lon="23.588736"><ele>2428.1</ele><time>2026-04-05T08:34:59.000Z</time></trkpt>
<trkpt lat="42.193429" lon="23.588734"><ele>2428.1</ele><time>2026-04-05T08:35:00.000Z</time></trkpt>
<trkpt lat="42.193423" lon="23.588732"><ele>2428.1</ele><time>2026-04-05T08:35:01.000Z</time></trkpt>
<trkpt lat="42.193417" lon="23.588731"><ele>2428.1</ele><time>2026-04-05T08:35:02.000Z</time></trkpt>
<trkpt lat="42.19341" lon="23.588731"><ele>2428.1</ele><time>2026-04-05T08:35:03.000Z</time></trkpt>
<trkpt lat="42.193403" lon="23.58873"><ele>2428.5</ele><time>2026-04-05T08:35:04.000Z</time></trkpt>
<trkpt lat="42.193395" lon="23.588729"><ele>2428.5</ele><time>2026-04-05T08:35:05.000Z</time></trkpt>
<trkpt lat="42.193387" lon="23.588728"><ele>2428.5</ele><time>2026-04-05T08:35:06.000Z</time></trkpt>
<trkpt lat="42.193379" lon="23.588726"><ele>2428.5</ele><time>2026-04-05T08:35:07.000Z</time></trkpt>
<trkpt lat="42.193371" lon="23.588723"><ele>2428.5</ele><time>2026-04-05T08:35:08.000Z</time></trkpt>
<trkpt lat="42.193364" lon="23.588721"><ele>2429.3</ele><time>2026-04-05T08:35:09.000Z</time></trkpt>
<trkpt lat="42.193356" lon="23.588718"><ele>2429.3</ele><time>2026-04-05T08:35:10.000Z</time></trkpt>
<trkpt lat="42.19335" lon="23.588716"><ele>2429.3</ele><time>2026-04-05T08:35:11.000Z</time></trkpt>
<trkpt lat="42.193343" lon="23.588715"><ele>2429.3</ele><time>2026-04-05T08:35:12.000Z</time></trkpt>
<trkpt lat="42.193336" lon="23.588715"><ele>2429.3</ele><time>2026-04-05T08:35:13.000Z</time></trkpt>
<trkpt lat="42.193329" lon="23.588715"><ele>2430.1</ele><time>2026-04-05T08:35:14.000Z</time></trkpt>
<trkpt lat="42.193321" lon="23.588714"><ele>2430.1</ele><time>2026-04-05T08:35:15.000Z</time></trkpt>
<trkpt lat="42.193312" lon="23.588713"><ele>2430.1</ele><time>2026-04-05T08:35:16.000Z</time></trkpt>
<trkpt lat="42.193304" lon="23.588712"><ele>2430.1</ele><time>2026-04-05T08:35:17.000Z</time></trkpt>
<trkpt lat="42.193296" lon="23.58871"><ele>2430.1</ele><time>2026-04-05T08:35:18.000Z</time></trkpt>
<trkpt lat="42.193288" lon="23.588709"><ele>2430.5</ele><time>2026-04-05T08:35:19.000Z</time></trkpt>
<trkpt lat="42.193281" lon="23.588708"><ele>2430.5</ele><time>2026-04-05T08:35:20.000Z</time></trkpt>
<trkpt lat="42.193273" lon="23.588707"><ele>2430.5</ele><time>2026-04-05T08:35:21.000Z</time></trkpt>
<trkpt lat="42.193265" lon="23.588706"><ele>2430.5</ele><time>2026-04-05T08:35:22.000Z</time></trkpt>
<trkpt lat="42.193257" lon="23.588704"><ele>2430.5</ele><time>2026-04-05T08:35:23.000Z</time></trkpt>
<trkpt lat="42.193249" lon="23.588703"><ele>2431.2</ele><time>2026-04-05T08:35:24.000Z</time></trkpt>
<trkpt lat="42.19324" lon="23.588701"><ele>2431.2</ele><time>2026-04-05T08:35:25.000Z</time></trkpt>
<trkpt lat="42.193231" lon="23.5887"><ele>2431.2</ele><time>2026-04-05T08:35:26.000Z</time></trkpt>
<trkpt lat="42.193222" lon="23.588699"><ele>2431.2</ele><time>2026-04-05T08:35:27.000Z</time></trkpt>
<trkpt lat="42.193212" lon="23.5887"><ele>2431.2</ele><time>2026-04-05T08:35:28.000Z</time></trkpt>
<trkpt lat="42.193203" lon="23.588701"><ele>2431.8</ele><time>2026-04-05T08:35:29.000Z</time></trkpt>
<trkpt lat="42.193196" lon="23.588702"><ele>2431.8</ele><time>2026-04-05T08:35:30.000Z</time></trkpt>
<trkpt lat="42.193189" lon="23.588705"><ele>2431.8</ele><time>2026-04-05T08:35:31.000Z</time></trkpt>
<trkpt lat="42.193182" lon="23.588708"><ele>2431.8</ele><time>2026-04-05T08:35:32.000Z</time></trkpt>
<trkpt lat="42.193174" lon="23.58871"><ele>2431.8</ele><time>2026-04-05T08:35:33.000Z</time></trkpt>
<trkpt lat="42.193165" lon="23.588711"><ele>2432.1</ele><time>2026-04-05T08:35:34.000Z</time></trkpt>
<trkpt lat="42.193156" lon="23.588712"><ele>2432.1</ele><time>2026-04-05T08:35:35.000Z</time></trkpt>
<trkpt lat="42.193146" lon="23.588714"><ele>2432.1</ele><time>2026-04-05T08:35:36.000Z</time></trkpt>
<trkpt lat="42.193136" lon="23.588716"><ele>2432.1</ele><time>2026-04-05T08:35:37.000Z</time></trkpt>
<trkpt lat="42.193127" lon="23.588719"><ele>2432.1</ele><time>2026-04-05T08:35:38.000Z</time></trkpt>
<trkpt lat="42.193118" lon="23.588721"><ele>2432.6</ele><time>2026-04-05T08:35:39.000Z</time></trkpt>
<trkpt lat="42.193111" lon="23.588722"><ele>2432.6</ele><time>2026-04-05T08:35:40.000Z</time></trkpt>
<trkpt lat="42.193103" lon="23.588722"><ele>2432.6</ele><time>2026-04-05T08:35:41.000Z</time></trkpt>
<trkpt lat="42.193096" lon="23.588722"><ele>2432.6</ele><time>2026-04-05T08:35:42.000Z</time></trkpt>
<trkpt lat="42.193088" lon="23.588722"><ele>2432.6</ele><time>2026-04-05T08:35:43.000Z</time></trkpt>
<trkpt lat="42.19308" lon="23.588722"><ele>2432.9</ele><time>2026-04-05T08:35:44.000Z</time></trkpt>
<trkpt lat="42.19307" lon="23.588723"><ele>2432.9</ele><time>2026-04-05T08:35:45.000Z</time></trkpt>
<trkpt lat="42.193061" lon="23.588724"><ele>2432.9</ele><time>2026-04-05T08:35:46.000Z</time></trkpt>
<trkpt lat="42.193051" lon="23.588725"><ele>2432.9</ele><time>2026-04-05T08:35:47.000Z</time></trkpt>
<trkpt lat="42.193041" lon="23.588726"><ele>2432.9</ele><time>2026-04-05T08:35:48.000Z</time></trkpt>
<trkpt lat="42.193032" lon="23.588728"><ele>2433</ele><time>2026-04-05T08:35:49.000Z</time></trkpt>
<trkpt lat="42.193022" lon="23.58873"><ele>2433</ele><time>2026-04-05T08:35:50.000Z</time></trkpt>
<trkpt lat="42.193013" lon="23.588732"><ele>2433</ele><time>2026-04-05T08:35:51.000Z</time></trkpt>
<trkpt lat="42.193004" lon="23.588734"><ele>2433</ele><time>2026-04-05T08:35:52.000Z</time></trkpt>
<trkpt lat="42.192995" lon="23.588735"><ele>2433</ele><time>2026-04-05T08:35:53.000Z</time></trkpt>
<trkpt lat="42.192986" lon="23.588734"><ele>2433.1</ele><time>2026-04-05T08:35:54.000Z</time></trkpt>
<trkpt lat="42.192978" lon="23.588733"><ele>2433.1</ele><time>2026-04-05T08:35:55.000Z</time></trkpt>
<trkpt lat="42.19297" lon="23.588731"><ele>2433.1</ele><time>2026-04-05T08:35:56.000Z</time></trkpt>
<trkpt lat="42.192963" lon="23.58873"><ele>2433.1</ele><time>2026-04-05T08:35:57.000Z</time></trkpt>
<trkpt lat="42.192957" lon="23.588729"><ele>2433.1</ele><time>2026-04-05T08:35:58.000Z</time></trkpt>
<trkpt lat="42.19295" lon="23.588727"><ele>2433.1</ele><time>2026-04-05T08:35:59.000Z</time></trkpt>
<trkpt lat="42.192943" lon="23.588726"><ele>2433.1</ele><time>2026-04-05T08:36:00.000Z</time></trkpt>
<trkpt lat="42.192934" lon="23.588724"><ele>2433.1</ele><time>2026-04-05T08:36:01.000Z</time></trkpt>
<trkpt lat="42.192925" lon="23.588722"><ele>2433.1</ele><time>2026-04-05T08:36:02.000Z</time></trkpt>
<trkpt lat="42.192916" lon="23.58872"><ele>2433.1</ele><time>2026-04-05T08:36:03.000Z</time></trkpt>
<trkpt lat="42.192905" lon="23.588718"><ele>2433.1</ele><time>2026-04-05T08:36:04.000Z</time></trkpt>
<trkpt lat="42.192896" lon="23.588715"><ele>2433.1</ele><time>2026-04-05T08:36:05.000Z</time></trkpt>
<trkpt lat="42.192888" lon="23.588713"><ele>2433.1</ele><time>2026-04-05T08:36:06.000Z</time></trkpt>
<trkpt lat="42.192879" lon="23.58871"><ele>2433.1</ele><time>2026-04-05T08:36:07.000Z</time></trkpt>
<trkpt lat="42.192873" lon="23.588707"><ele>2433.1</ele><time>2026-04-05T08:36:08.000Z</time></trkpt>
<trkpt lat="42.19287" lon="23.588706"><ele>2433.3</ele><time>2026-04-05T08:36:09.000Z</time></trkpt>
<trkpt lat="42.192867" lon="23.588705"><ele>2433.3</ele><time>2026-04-05T08:36:10.000Z</time></trkpt>
<trkpt lat="42.192866" lon="23.588705"><ele>2433.3</ele><time>2026-04-05T08:36:11.000Z</time></trkpt>
<trkpt lat="42.192863" lon="23.588705"><ele>2433.3</ele><time>2026-04-05T08:36:12.000Z</time></trkpt>
<trkpt lat="42.192859" lon="23.588704"><ele>2433.3</ele><time>2026-04-05T08:36:13.000Z</time></trkpt>
<trkpt lat="42.192852" lon="23.588702"><ele>2433.6</ele><time>2026-04-05T08:36:14.000Z</time></trkpt>
<trkpt lat="42.192844" lon="23.588699"><ele>2433.6</ele><time>2026-04-05T08:36:15.000Z</time></trkpt>
<trkpt lat="42.192835" lon="23.588693"><ele>2433.6</ele><time>2026-04-05T08:36:16.000Z</time></trkpt>
<trkpt lat="42.192827" lon="23.588686"><ele>2433.6</ele><time>2026-04-05T08:36:17.000Z</time></trkpt>
<trkpt lat="42.192818" lon="23.588678"><ele>2433.6</ele><time>2026-04-05T08:36:18.000Z</time></trkpt>
<trkpt lat="42.192811" lon="23.58867"><ele>2433.8</ele><time>2026-04-05T08:36:19.000Z</time></trkpt>
<trkpt lat="42.192805" lon="23.588662"><ele>2433.8</ele><time>2026-04-05T08:36:20.000Z</time></trkpt>
<trkpt lat="42.1928" lon="23.588655"><ele>2433.8</ele><time>2026-04-05T08:36:21.000Z</time></trkpt>
<trkpt lat="42.192795" lon="23.588649"><ele>2433.8</ele><time>2026-04-05T08:36:22.000Z</time></trkpt>
<trkpt lat="42.192791" lon="23.588645"><ele>2433.8</ele><time>2026-04-05T08:36:23.000Z</time></trkpt>
<trkpt lat="42.192787" lon="23.58864"><ele>2434.1</ele><time>2026-04-05T08:36:24.000Z</time></trkpt>
<trkpt lat="42.192782" lon="23.588636"><ele>2434.1</ele><time>2026-04-05T08:36:25.000Z</time></trkpt>
<trkpt lat="42.192777" lon="23.588632"><ele>2434.1</ele><time>2026-04-05T08:36:26.000Z</time></trkpt>
<trkpt lat="42.192772" lon="23.588627"><ele>2434.1</ele><time>2026-04-05T08:36:27.000Z</time></trkpt>
<trkpt lat="42.192767" lon="23.588623"><ele>2434.1</ele><time>2026-04-05T08:36:28.000Z</time></trkpt>
<trkpt lat="42.192762" lon="23.588619"><ele>2434.7</ele><time>2026-04-05T08:36:29.000Z</time></trkpt>
<trkpt lat="42.192756" lon="23.588615"><ele>2434.7</ele><time>2026-04-05T08:36:30.000Z</time></trkpt>
<trkpt lat="42.19275" lon="23.588611"><ele>2434.7</ele><time>2026-04-05T08:36:31.000Z</time></trkpt>
<trkpt lat="42.192744" lon="23.588608"><ele>2434.7</ele><time>2026-04-05T08:36:32.000Z</time></trkpt>
<trkpt lat="42.192737" lon="23.588603"><ele>2434.7</ele><time>2026-04-05T08:36:33.000Z</time></trkpt>
<trkpt lat="42.192729" lon="23.588599"><ele>2435.1</ele><time>2026-04-05T08:36:34.000Z</time></trkpt>
<trkpt lat="42.192723" lon="23.588595"><ele>2435.1</ele><time>2026-04-05T08:36:35.000Z</time></trkpt>
<trkpt lat="42.192716" lon="23.588589"><ele>2435.1</ele><time>2026-04-05T08:36:36.000Z</time></trkpt>
<trkpt lat="42.19271" lon="23.588584"><ele>2435.1</ele><time>2026-04-05T08:36:37.000Z</time></trkpt>
<trkpt lat="42.192705" lon="23.588579"><ele>2435.1</ele><time>2026-04-05T08:36:38.000Z</time></trkpt>
<trkpt lat="42.1927" lon="23.588575"><ele>2436.1</ele><time>2026-04-05T08:36:39.000Z</time></trkpt>
<trkpt lat="42.192696" lon="23.588571"><ele>2436.1</ele><time>2026-04-05T08:36:40.000Z</time></trkpt>
<trkpt lat="42.192693" lon="23.588568"><ele>2436.1</ele><time>2026-04-05T08:36:41.000Z</time></trkpt>
<trkpt lat="42.192691" lon="23.588565"><ele>2436.1</ele><time>2026-04-05T08:36:42.000Z</time></trkpt>
<trkpt lat="42.192689" lon="23.588562"><ele>2436.1</ele><time>2026-04-05T08:36:43.000Z</time></trkpt>
<trkpt lat="42.192687" lon="23.58856"><ele>2437.2</ele><time>2026-04-05T08:36:44.000Z</time></trkpt>
<trkpt lat="42.192686" lon="23.588557"><ele>2437.2</ele><time>2026-04-05T08:36:45.000Z</time></trkpt>
<trkpt lat="42.192683" lon="23.588554"><ele>2437.2</ele><time>2026-04-05T08:36:46.000Z</time></trkpt>
<trkpt lat="42.19268" lon="23.58855"><ele>2437.2</ele><time>2026-04-05T08:36:47.000Z</time></trkpt>
<trkpt lat="42.192676" lon="23.588546"><ele>2437.2</ele><time>2026-04-05T08:36:48.000Z</time></trkpt>
<trkpt lat="42.192673" lon="23.588543"><ele>2437.7</ele><time>2026-04-05T08:36:49.000Z</time></trkpt>
<trkpt lat="42.192671" lon="23.588539"><ele>2437.7</ele><time>2026-04-05T08:36:50.000Z</time></trkpt>
<trkpt lat="42.192669" lon="23.588534"><ele>2437.7</ele><time>2026-04-05T08:36:51.000Z</time></trkpt>
<trkpt lat="42.192668" lon="23.588531"><ele>2437.7</ele><time>2026-04-05T08:36:52.000Z</time></trkpt>
<trkpt lat="42.192668" lon="23.588528"><ele>2437.7</ele><time>2026-04-05T08:36:53.000Z</time></trkpt>
<trkpt lat="42.192667" lon="23.588525"><ele>2438.6</ele><time>2026-04-05T08:36:54.000Z</time></trkpt>
<trkpt lat="42.192667" lon="23.588523"><ele>2438.6</ele><time>2026-04-05T08:36:55.000Z</time></trkpt>
<trkpt lat="42.192667" lon="23.588522"><ele>2438.6</ele><time>2026-04-05T08:36:56.000Z</time></trkpt>
<trkpt lat="42.192667" lon="23.588519"><ele>2438.6</ele><time>2026-04-05T08:36:57.000Z</time></trkpt>
<trkpt lat="42.192669" lon="23.588517"><ele>2438.6</ele><time>2026-04-05T08:36:58.000Z</time></trkpt>
<trkpt lat="42.19267" lon="23.588517"><ele>2439.2</ele><time>2026-04-05T08:36:59.000Z</time></trkpt>
<trkpt lat="42.192672" lon="23.588516"><ele>2439.2</ele><time>2026-04-05T08:37:00.000Z</time></trkpt>
<trkpt lat="42.192673" lon="23.588515"><ele>2439.2</ele><time>2026-04-05T08:37:01.000Z</time></trkpt>
<trkpt lat="42.192674" lon="23.588516"><ele>2439.2</ele><time>2026-04-05T08:37:02.000Z</time></trkpt>
<trkpt lat="42.192673" lon="23.588514"><ele>2439.2</ele><time>2026-04-05T08:37:03.000Z</time></trkpt>
<trkpt lat="42.192671" lon="23.588512"><ele>2439.5</ele><time>2026-04-05T08:37:04.000Z</time></trkpt>
<trkpt lat="42.192669" lon="23.588509"><ele>2439.5</ele><time>2026-04-05T08:37:05.000Z</time></trkpt>
<trkpt lat="42.192666" lon="23.588505"><ele>2439.5</ele><time>2026-04-05T08:37:06.000Z</time></trkpt>
<trkpt lat="42.192663" lon="23.588499"><ele>2439.5</ele><time>2026-04-05T08:37:07.000Z</time></trkpt>
<trkpt lat="42.19266" lon="23.588494"><ele>2439.5</ele><time>2026-04-05T08:37:08.000Z</time></trkpt>
<trkpt lat="42.192658" lon="23.588489"><ele>2439.7</ele><time>2026-04-05T08:37:09.000Z</time></trkpt>
<trkpt lat="42.192656" lon="23.588484"><ele>2439.7</ele><time>2026-04-05T08:37:10.000Z</time></trkpt>
<trkpt lat="42.192655" lon="23.58848"><ele>2439.7</ele><time>2026-04-05T08:37:11.000Z</time></trkpt>
<trkpt lat="42.192654" lon="23.588476"><ele>2439.7</ele><time>2026-04-05T08:37:12.000Z</time></trkpt>
<trkpt lat="42.192653" lon="23.588471"><ele>2439.7</ele><time>2026-04-05T08:37:13.000Z</time></trkpt>
<trkpt lat="42.192653" lon="23.588466"><ele>2439.9</ele><time>2026-04-05T08:37:14.000Z</time></trkpt>
<trkpt lat="42.192652" lon="23.58846"><ele>2439.9</ele><time>2026-04-05T08:37:15.000Z</time></trkpt>
<trkpt lat="42.192651" lon="23.588453"><ele>2439.9</ele><time>2026-04-05T08:37:16.000Z</time></trkpt>
<trkpt lat="42.192649" lon="23.588445"><ele>2439.9</ele><time>2026-04-05T08:37:17.000Z</time></trkpt>
<trkpt lat="42.192646" lon="23.588439"><ele>2439.9</ele><time>2026-04-05T08:37:18.000Z</time></trkpt>
<trkpt lat="42.192643" lon="23.588432"><ele>2440.1</ele><time>2026-04-05T08:37:19.000Z</time></trkpt>
<trkpt lat="42.19264" lon="23.588424"><ele>2440.1</ele><time>2026-04-05T08:37:20.000Z</time></trkpt>
<trkpt lat="42.192636" lon="23.588416"><ele>2440.1</ele><time>2026-04-05T08:37:21.000Z</time></trkpt>
<trkpt lat="42.192633" lon="23.588408"><ele>2440.1</ele><time>2026-04-05T08:37:22.000Z</time></trkpt>
<trkpt lat="42.19263" lon="23.588401"><ele>2440.1</ele><time>2026-04-05T08:37:23.000Z</time></trkpt>
<trkpt lat="42.192627" lon="23.588394"><ele>2440.6</ele><time>2026-04-05T08:37:24.000Z</time></trkpt>
<trkpt lat="42.192625" lon="23.588388"><ele>2440.6</ele><time>2026-04-05T08:37:25.000Z</time></trkpt>
<trkpt lat="42.192623" lon="23.588385"><ele>2440.6</ele><time>2026-04-05T08:37:26.000Z</time></trkpt>
<trkpt lat="42.192622" lon="23.588382"><ele>2440.6</ele><time>2026-04-05T08:37:27.000Z</time></trkpt>
<trkpt lat="42.192622" lon="23.588382"><ele>2440.6</ele><time>2026-04-05T08:37:28.000Z</time></trkpt>
<trkpt lat="42.192622" lon="23.588382"><ele>2441.4</ele><time>2026-04-05T08:37:29.000Z</time></trkpt>
<trkpt lat="42.192622" lon="23.588383"><ele>2441.4</ele><time>2026-04-05T08:37:30.000Z</time></trkpt>
<trkpt lat="42.192622" lon="23.588383"><ele>2441.4</ele><time>2026-04-05T08:37:31.000Z</time></trkpt>
<trkpt lat="42.192622" lon="23.588385"><ele>2441.4</ele><time>2026-04-05T08:37:32.000Z</time></trkpt>
<trkpt lat="42.192621" lon="23.588386"><ele>2441.4</ele><time>2026-04-05T08:37:33.000Z</time></trkpt>
<trkpt lat="42.192621" lon="23.588385"><ele>2441.8</ele><time>2026-04-05T08:37:34.000Z</time></trkpt>
<trkpt lat="42.19262" lon="23.588384"><ele>2441.8</ele><time>2026-04-05T08:37:35.000Z</time></trkpt>
<trkpt lat="42.192619" lon="23.588384"><ele>2441.8</ele><time>2026-04-05T08:37:36.000Z</time></trkpt>
<trkpt lat="42.192617" lon="23.588381"><ele>2441.8</ele><time>2026-04-05T08:37:37.000Z</time></trkpt>
<trkpt lat="42.192615" lon="23.588377"><ele>2441.8</ele><time>2026-04-05T08:37:38.000Z</time></trkpt>
<trkpt lat="42.192611" lon="23.588374"><ele>2442.4</ele><time>2026-04-05T08:37:39.000Z</time></trkpt>
<trkpt lat="42.192608" lon="23.588369"><ele>2442.4</ele><time>2026-04-05T08:37:40.000Z</time></trkpt>
<trkpt lat="42.192604" lon="23.588362"><ele>2442.4</ele><time>2026-04-05T08:37:41.000Z</time></trkpt>
<trkpt lat="42.192601" lon="23.588355"><ele>2442.4</ele><time>2026-04-05T08:37:42.000Z</time></trkpt>
<trkpt lat="42.192598" lon="23.588348"><ele>2442.4</ele><time>2026-04-05T08:37:43.000Z</time></trkpt>
<trkpt lat="42.192596" lon="23.58834"><ele>2442.6</ele><time>2026-04-05T08:37:44.000Z</time></trkpt>
<trkpt lat="42.192593" lon="23.588333"><ele>2442.6</ele><time>2026-04-05T08:37:45.000Z</time></trkpt>
<trkpt lat="42.192591" lon="23.588326"><ele>2442.6</ele><time>2026-04-05T08:37:46.000Z</time></trkpt>
<trkpt lat="42.192588" lon="23.58832"><ele>2442.6</ele><time>2026-04-05T08:37:47.000Z</time></trkpt>
<trkpt lat="42.192585" lon="23.588313"><ele>2442.6</ele><time>2026-04-05T08:37:48.000Z</time></trkpt>
<trkpt lat="42.192581" lon="23.588308"><ele>2442.7</ele><time>2026-04-05T08:37:49.000Z</time></trkpt>
<trkpt lat="42.192578" lon="23.588302"><ele>2442.7</ele><time>2026-04-05T08:37:50.000Z</time></trkpt>
<trkpt lat="42.192574" lon="23.588295"><ele>2442.7</ele><time>2026-04-05T08:37:51.000Z</time></trkpt>
<trkpt lat="42.19257" lon="23.588288"><ele>2442.7</ele><time>2026-04-05T08:37:52.000Z</time></trkpt>
<trkpt lat="42.192565" lon="23.58828"><ele>2442.7</ele><time>2026-04-05T08:37:53.000Z</time></trkpt>
<trkpt lat="42.192561" lon="23.588271"><ele>2443.3</ele><time>2026-04-05T08:37:54.000Z</time></trkpt>
<trkpt lat="42.192556" lon="23.588263"><ele>2443.3</ele><time>2026-04-05T08:37:55.000Z</time></trkpt>
<trkpt lat="42.192552" lon="23.588255"><ele>2443.3</ele><time>2026-04-05T08:37:56.000Z</time></trkpt>
<trkpt lat="42.192548" lon="23.588246"><ele>2443.3</ele><time>2026-04-05T08:37:57.000Z</time></trkpt>
<trkpt lat="42.192544" lon="23.588237"><ele>2443.3</ele><time>2026-04-05T08:37:58.000Z</time></trkpt>
<trkpt lat="42.192539" lon="23.588228"><ele>2444.3</ele><time>2026-04-05T08:37:59.000Z</time></trkpt>
<trkpt lat="42.192534" lon="23.58822"><ele>2444.3</ele><time>2026-04-05T08:38:00.000Z</time></trkpt>
<trkpt lat="42.192529" lon="23.588211"><ele>2444.3</ele><time>2026-04-05T08:38:01.000Z</time></trkpt>
<trkpt lat="42.192524" lon="23.588201"><ele>2444.3</ele><time>2026-04-05T08:38:02.000Z</time></trkpt>
<trkpt lat="42.192519" lon="23.588191"><ele>2444.3</ele><time>2026-04-05T08:38:03.000Z</time></trkpt>
<trkpt lat="42.192514" lon="23.588182"><ele>2444.8</ele><time>2026-04-05T08:38:04.000Z</time></trkpt>
<trkpt lat="42.192511" lon="23.588172"><ele>2444.8</ele><time>2026-04-05T08:38:05.000Z</time></trkpt>
<trkpt lat="42.192507" lon="23.588161"><ele>2444.8</ele><time>2026-04-05T08:38:06.000Z</time></trkpt>
<trkpt lat="42.192504" lon="23.58815"><ele>2444.8</ele><time>2026-04-05T08:38:07.000Z</time></trkpt>
<trkpt lat="42.192501" lon="23.588141"><ele>2444.8</ele><time>2026-04-05T08:38:08.000Z</time></trkpt>
<trkpt lat="42.192497" lon="23.588133"><ele>2445.9</ele><time>2026-04-05T08:38:09.000Z</time></trkpt>
<trkpt lat="42.192494" lon="23.588124"><ele>2445.9</ele><time>2026-04-05T08:38:10.000Z</time></trkpt>
<trkpt lat="42.192489" lon="23.588117"><ele>2445.9</ele><time>2026-04-05T08:38:11.000Z</time></trkpt>
<trkpt lat="42.192485" lon="23.588111"><ele>2445.9</ele><time>2026-04-05T08:38:12.000Z</time></trkpt>
<trkpt lat="42.192481" lon="23.588105"><ele>2445.9</ele><time>2026-04-05T08:38:13.000Z</time></trkpt>
<trkpt lat="42.192477" lon="23.588099"><ele>2447.1</ele><time>2026-04-05T08:38:14.000Z</time></trkpt>
<trkpt lat="42.192472" lon="23.588094"><ele>2447.1</ele><time>2026-04-05T08:38:15.000Z</time></trkpt>
<trkpt lat="42.192466" lon="23.58809"><ele>2447.1</ele><time>2026-04-05T08:38:16.000Z</time></trkpt>
<trkpt lat="42.19246" lon="23.588085"><ele>2447.1</ele><time>2026-04-05T08:38:17.000Z</time></trkpt>
<trkpt lat="42.192455" lon="23.588081"><ele>2447.1</ele><time>2026-04-05T08:38:18.000Z</time></trkpt>
<trkpt lat="42.192451" lon="23.588078"><ele>2447.9</ele><time>2026-04-05T08:38:19.000Z</time></trkpt>
<trkpt lat="42.192449" lon="23.588077"><ele>2447.9</ele><time>2026-04-05T08:38:20.000Z</time></trkpt>
<trkpt lat="42.192448" lon="23.588075"><ele>2447.9</ele><time>2026-04-05T08:38:21.000Z</time></trkpt>
<trkpt lat="42.192448" lon="23.588075"><ele>2447.9</ele><time>2026-04-05T08:38:22.000Z</time></trkpt>
<trkpt lat="42.192449" lon="23.588077"><ele>2447.9</ele><time>2026-04-05T08:38:23.000Z</time></trkpt>
<trkpt lat="42.19245" lon="23.588079"><ele>2449.3</ele><time>2026-04-05T08:38:24.000Z</time></trkpt>
<trkpt lat="42.192451" lon="23.588078"><ele>2449.3</ele><time>2026-04-05T08:38:25.000Z</time></trkpt>
<trkpt lat="42.192452" lon="23.588077"><ele>2449.3</ele><time>2026-04-05T08:38:26.000Z</time></trkpt>
<trkpt lat="42.192453" lon="23.588075"><ele>2449.3</ele><time>2026-04-05T08:38:27.000Z</time></trkpt>
<trkpt lat="42.192454" lon="23.588072"><ele>2449.3</ele><time>2026-04-05T08:38:28.000Z</time></trkpt>
<trkpt lat="42.192454" lon="23.588067"><ele>2450.4</ele><time>2026-04-05T08:38:29.000Z</time></trkpt>
<trkpt lat="42.192454" lon="23.588065"><ele>2450.4</ele><time>2026-04-05T08:38:30.000Z</time></trkpt>
<trkpt lat="42.192454" lon="23.588062"><ele>2450.4</ele><time>2026-04-05T08:38:31.000Z</time></trkpt>
<trkpt lat="42.192454" lon="23.588061"><ele>2450.4</ele><time>2026-04-05T08:38:32.000Z</time></trkpt>
<trkpt lat="42.192453" lon="23.58806"><ele>2450.4</ele><time>2026-04-05T08:38:33.000Z</time></trkpt>
<trkpt lat="42.192452" lon="23.588059"><ele>2450.7</ele><time>2026-04-05T08:38:34.000Z</time></trkpt>
<trkpt lat="42.192451" lon="23.58806"><ele>2450.7</ele><time>2026-04-05T08:38:35.000Z</time></trkpt>
<trkpt lat="42.192451" lon="23.58806"><ele>2450.7</ele><time>2026-04-05T08:38:36.000Z</time></trkpt>
<trkpt lat="42.192451" lon="23.588059"><ele>2450.7</ele><time>2026-04-05T08:38:37.000Z</time></trkpt>
<trkpt lat="42.192451" lon="23.588059"><ele>2450.7</ele><time>2026-04-05T08:38:38.000Z</time></trkpt>
<trkpt lat="42.192452" lon="23.588059"><ele>2451</ele><time>2026-04-05T08:38:39.000Z</time></trkpt>
<trkpt lat="42.192453" lon="23.588057"><ele>2451</ele><time>2026-04-05T08:38:40.000Z</time></trkpt>
<trkpt lat="42.192452" lon="23.588054"><ele>2451</ele><time>2026-04-05T08:38:41.000Z</time></trkpt>
<trkpt lat="42.192451" lon="23.58805"><ele>2451</ele><time>2026-04-05T08:38:42.000Z</time></trkpt>
<trkpt lat="42.19245" lon="23.588047"><ele>2451</ele><time>2026-04-05T08:38:43.000Z</time></trkpt>
<trkpt lat="42.19245" lon="23.588044"><ele>2450.9</ele><time>2026-04-05T08:38:44.000Z</time></trkpt>
<trkpt lat="42.19245" lon="23.588043"><ele>2450.9</ele><time>2026-04-05T08:38:45.000Z</time></trkpt>
<trkpt lat="42.19245" lon="23.588042"><ele>2450.9</ele><time>2026-04-05T08:38:46.000Z</time></trkpt>
<trkpt lat="42.192451" lon="23.588042"><ele>2450.9</ele><time>2026-04-05T08:38:47.000Z</time></trkpt>
<trkpt lat="42.192452" lon="23.588041"><ele>2450.9</ele><time>2026-04-05T08:38:48.000Z</time></trkpt>
<trkpt lat="42.192452" lon="23.588039"><ele>2450.9</ele><time>2026-04-05T08:38:49.000Z</time></trkpt>
<trkpt lat="42.192453" lon="23.588039"><ele>2450.9</ele><time>2026-04-05T08:38:50.000Z</time></trkpt>
<trkpt lat="42.192453" lon="23.588039"><ele>2450.9</ele><time>2026-04-05T08:38:51.000Z</time></trkpt>
<trkpt lat="42.192453" lon="23.588039"><ele>2450.9</ele><time>2026-04-05T08:38:52.000Z</time></trkpt>
<trkpt lat="42.192452" lon="23.58804"><ele>2450.9</ele><time>2026-04-05T08:38:53.000Z</time></trkpt>
<trkpt lat="42.192451" lon="23.58804"><ele>2451</ele><time>2026-04-05T08:38:54.000Z</time></trkpt>
<trkpt lat="42.192451" lon="23.58804"><ele>2451</ele><time>2026-04-05T08:38:55.000Z</time></trkpt>
<trkpt lat="42.192449" lon="23.588039"><ele>2451</ele><time>2026-04-05T08:38:56.000Z</time></trkpt>
<trkpt lat="42.192448" lon="23.588038"><ele>2451</ele><time>2026-04-05T08:38:57.000Z</time></trkpt>
<trkpt lat="42.192446" lon="23.588037"><ele>2451</ele><time>2026-04-05T08:38:58.000Z</time></trkpt>
<trkpt lat="42.192445" lon="23.588035"><ele>2451.2</ele><time>2026-04-05T08:38:59.000Z</time></trkpt>
<trkpt lat="42.192445" lon="23.588034"><ele>2451.2</ele><time>2026-04-05T08:39:00.000Z</time></trkpt>
<trkpt lat="42.192445" lon="23.588032"><ele>2451.2</ele><time>2026-04-05T08:39:01.000Z</time></trkpt>
<trkpt lat="42.192446" lon="23.588033"><ele>2451.2</ele><time>2026-04-05T08:39:02.000Z</time></trkpt>
<trkpt lat="42.192446" lon="23.588033"><ele>2451.2</ele><time>2026-04-05T08:39:03.000Z</time></trkpt>
<trkpt lat="42.192447" lon="23.588033"><ele>2451.3</ele><time>2026-04-05T08:39:04.000Z</time></trkpt>
<trkpt lat="42.192447" lon="23.588033"><ele>2451.3</ele><time>2026-04-05T08:39:05.000Z</time></trkpt>
<trkpt lat="42.192447" lon="23.588033"><ele>2451.3</ele><time>2026-04-05T08:39:06.000Z</time></trkpt>
<trkpt lat="42.192448" lon="23.588033"><ele>2451.3</ele><time>2026-04-05T08:39:07.000Z</time></trkpt>
<trkpt lat="42.192448" lon="23.588033"><ele>2451.3</ele><time>2026-04-05T08:39:08.000Z</time></trkpt>
<trkpt lat="42.192448" lon="23.588033"><ele>2451.5</ele><time>2026-04-05T08:39:09.000Z</time></trkpt>
<trkpt lat="42.192446" lon="23.588032"><ele>2451.5</ele><time>2026-04-05T08:39:10.000Z</time></trkpt>
<trkpt lat="42.192445" lon="23.588032"><ele>2451.5</ele><time>2026-04-05T08:39:11.000Z</time></trkpt>
<trkpt lat="42.192444" lon="23.588031"><ele>2451.5</ele><time>2026-04-05T08:39:12.000Z</time></trkpt>
<trkpt lat="42.192443" lon="23.588031"><ele>2451.5</ele><time>2026-04-05T08:39:13.000Z</time></trkpt>
<trkpt lat="42.192441" lon="23.588031"><ele>2451.6</ele><time>2026-04-05T08:39:14.000Z</time></trkpt>
<trkpt lat="42.192441" lon="23.588032"><ele>2451.6</ele><time>2026-04-05T08:39:15.000Z</time></trkpt>
<trkpt lat="42.19244" lon="23.588033"><ele>2451.6</ele><time>2026-04-05T08:39:16.000Z</time></trkpt>
<trkpt lat="42.192439" lon="23.588034"><ele>2451.6</ele><time>2026-04-05T08:39:17.000Z</time></trkpt>
<trkpt lat="42.192438" lon="23.588035"><ele>2451.6</ele><time>2026-04-05T08:39:18.000Z</time></trkpt>
<trkpt lat="42.192437" lon="23.588036"><ele>2451.6</ele><time>2026-04-05T08:39:19.000Z</time></trkpt>
<trkpt lat="42.192437" lon="23.588036"><ele>2451.6</ele><time>2026-04-05T08:39:20.000Z</time></trkpt>
<trkpt lat="42.192437" lon="23.588036"><ele>2451.6</ele><time>2026-04-05T08:39:21.000Z</time></trkpt>
<trkpt lat="42.192437" lon="23.588036"><ele>2451.6</ele><time>2026-04-05T08:39:22.000Z</time></trkpt>
<trkpt lat="42.192437" lon="23.588036"><ele>2451.6</ele><time>2026-04-05T08:39:23.000Z</time></trkpt>
<trkpt lat="42.192437" lon="23.588036"><ele>2451.8</ele><time>2026-04-05T08:39:24.000Z</time></trkpt>
<trkpt lat="42.192437" lon="23.588036"><ele>2451.8</ele><time>2026-04-05T08:39:25.000Z</time></trkpt>
<trkpt lat="42.192437" lon="23.588036"><ele>2451.8</ele><time>2026-04-05T08:39:26.000Z</time></trkpt>
<trkpt lat="42.192437" lon="23.588035"><ele>2451.8</ele><time>2026-04-05T08:39:27.000Z</time></trkpt>
<trkpt lat="42.192436" lon="23.588035"><ele>2451.8</ele><time>2026-04-05T08:39:28.000Z</time></trkpt>
<trkpt lat="42.192436" lon="23.588034"><ele>2451.9</ele><time>2026-04-05T08:39:29.000Z</time></trkpt>
<trkpt lat="42.192435" lon="23.588034"><ele>2451.9</ele><time>2026-04-05T08:39:30.000Z</time></trkpt>
<trkpt lat="42.192435" lon="23.588034"><ele>2451.9</ele><time>2026-04-05T08:39:31.000Z</time></trkpt>
<trkpt lat="42.192435" lon="23.588034"><ele>2451.9</ele><time>2026-04-05T08:39:32.000Z</time></trkpt>
<trkpt lat="42.192434" lon="23.588034"><ele>2451.9</ele><time>2026-04-05T08:39:33.000Z</time></trkpt>
<trkpt lat="42.192434" lon="23.588034"><ele>2451.9</ele><time>2026-04-05T08:39:34.000Z</time></trkpt>
<trkpt lat="42.192434" lon="23.588034"><ele>2451.9</ele><time>2026-04-05T08:39:35.000Z</time></trkpt>
<trkpt lat="42.192434" lon="23.588033"><ele>2451.9</ele><time>2026-04-05T08:39:36.000Z</time></trkpt>
<trkpt lat="42.192434" lon="23.588033"><ele>2451.9</ele><time>2026-04-05T08:39:37.000Z</time></trkpt>
<trkpt lat="42.192435" lon="23.588034"><ele>2451.9</ele><time>2026-04-05T08:39:38.000Z</time></trkpt>
<trkpt lat="42.192435" lon="23.588034"><ele>2451.8</ele><time>2026-04-05T08:39:39.000Z</time></trkpt>
<trkpt lat="42.192435" lon="23.588035"><ele>2451.8</ele><time>2026-04-05T08:39:40.000Z</time></trkpt>
<trkpt lat="42.192435" lon="23.588035"><ele>2451.8</ele><time>2026-04-05T08:39:41.000Z</time></trkpt>
<trkpt lat="42.192435" lon="23.588035"><ele>2451.8</ele><time>2026-04-05T08:39:42.000Z</time></trkpt>
<trkpt lat="42.192435" lon="23.588035"><ele>2451.8</ele><time>2026-04-05T08:39:43.000Z</time></trkpt>
<trkpt lat="42.192435" lon="23.588035"><ele>2451.7</ele><time>2026-04-05T08:39:44.000Z</time></trkpt>
<trkpt lat="42.192435" lon="23.588035"><ele>2451.7</ele><time>2026-04-05T08:39:45.000Z</time></trkpt>
<trkpt lat="42.192435" lon="23.588036"><ele>2451.7</ele><time>2026-04-05T08:39:46.000Z</time></trkpt>
<trkpt lat="42.192435" lon="23.588036"><ele>2451.7</ele><time>2026-04-05T08:39:47.000Z</time></trkpt>
<trkpt lat="42.192435" lon="23.588037"><ele>2451.7</ele><time>2026-04-05T08:39:48.000Z</time></trkpt>
<trkpt lat="42.192436" lon="23.588037"><ele>2451.6</ele><time>2026-04-05T08:39:49.000Z</time></trkpt>
<trkpt lat="42.192436" lon="23.588038"><ele>2451.6</ele><time>2026-04-05T08:39:50.000Z</time></trkpt>
<trkpt lat="42.192437" lon="23.588037"><ele>2451.6</ele><time>2026-04-05T08:39:51.000Z</time></trkpt>
<trkpt lat="42.192437" lon="23.588037"><ele>2451.6</ele><time>2026-04-05T08:39:52.000Z</time></trkpt>
<trkpt lat="42.192437" lon="23.588037"><ele>2451.6</ele><time>2026-04-05T08:39:53.000Z</time></trkpt>
<trkpt lat="42.192438" lon="23.588037"><ele>2451.6</ele><time>2026-04-05T08:39:54.000Z</time></trkpt>
<trkpt lat="42.192439" lon="23.588037"><ele>2451.6</ele><time>2026-04-05T08:39:55.000Z</time></trkpt>
<trkpt lat="42.19244" lon="23.588037"><ele>2451.6</ele><time>2026-04-05T08:39:56.000Z</time></trkpt>
<trkpt lat="42.192442" lon="23.588036"><ele>2451.6</ele><time>2026-04-05T08:39:57.000Z</time></trkpt>
<trkpt lat="42.192445" lon="23.588035"><ele>2451.6</ele><time>2026-04-05T08:39:58.000Z</time></trkpt>
<trkpt lat="42.192447" lon="23.588034"><ele>2451.6</ele><time>2026-04-05T08:39:59.000Z</time></trkpt>
<trkpt lat="42.192448" lon="23.588033"><ele>2451.6</ele><time>2026-04-05T08:40:00.000Z</time></trkpt>
<trkpt lat="42.192449" lon="23.588032"><ele>2451.6</ele><time>2026-04-05T08:40:01.000Z</time></trkpt>
<trkpt lat="42.192449" lon="23.588032"><ele>2451.6</ele><time>2026-04-05T08:40:02.000Z</time></trkpt>
<trkpt lat="42.192449" lon="23.588031"><ele>2451.6</ele><time>2026-04-05T08:40:03.000Z</time></trkpt>
<trkpt lat="42.192449" lon="23.588031"><ele>2451.6</ele><time>2026-04-05T08:40:04.000Z</time></trkpt>
<trkpt lat="42.192448" lon="23.58803"><ele>2451.6</ele><time>2026-04-05T08:40:05.000Z</time></trkpt>
<trkpt lat="42.192448" lon="23.588029"><ele>2451.6</ele><time>2026-04-05T08:40:06.000Z</time></trkpt>
<trkpt lat="42.192447" lon="23.588028"><ele>2451.6</ele><time>2026-04-05T08:40:07.000Z</time></trkpt>
<trkpt lat="42.192446" lon="23.588027"><ele>2451.6</ele><time>2026-04-05T08:40:08.000Z</time></trkpt>
<trkpt lat="42.192446" lon="23.588025"><ele>2451.6</ele><time>2026-04-05T08:40:09.000Z</time></trkpt>
<trkpt lat="42.192445" lon="23.588024"><ele>2451.6</ele><time>2026-04-05T08:40:10.000Z</time></trkpt>
<trkpt lat="42.192445" lon="23.588024"><ele>2451.6</ele><time>2026-04-05T08:40:11.000Z</time></trkpt>
<trkpt lat="42.192445" lon="23.588023"><ele>2451.6</ele><time>2026-04-05T08:40:12.000Z</time></trkpt>
<trkpt lat="42.192444" lon="23.588023"><ele>2451.6</ele><time>2026-04-05T08:40:13.000Z</time></trkpt>
<trkpt lat="42.192444" lon="23.588022"><ele>2451.7</ele><time>2026-04-05T08:40:14.000Z</time></trkpt>
<trkpt lat="42.192443" lon="23.588021"><ele>2451.7</ele><time>2026-04-05T08:40:15.000Z</time></trkpt>
<trkpt lat="42.192442" lon="23.58802"><ele>2451.7</ele><time>2026-04-05T08:40:16.000Z</time></trkpt>
<trkpt lat="42.192441" lon="23.588018"><ele>2451.7</ele><time>2026-04-05T08:40:17.000Z</time></trkpt>
<trkpt lat="42.192441" lon="23.588018"><ele>2451.7</ele><time>2026-04-05T08:40:18.000Z</time></trkpt>
<trkpt lat="42.19244" lon="23.588017"><ele>2451.7</ele><time>2026-04-05T08:40:19.000Z</time></trkpt>
<trkpt lat="42.19244" lon="23.588016"><ele>2451.7</ele><time>2026-04-05T08:40:20.000Z</time></trkpt>
<trkpt lat="42.19244" lon="23.588015"><ele>2451.7</ele><time>2026-04-05T08:40:21.000Z</time></trkpt>
<trkpt lat="42.19244" lon="23.588015"><ele>2451.7</ele><time>2026-04-05T08:40:22.000Z</time></trkpt>
<trkpt lat="42.19244" lon="23.588015"><ele>2451.7</ele><time>2026-04-05T08:40:23.000Z</time></trkpt>
<trkpt lat="42.19244" lon="23.588015"><ele>2451.6</ele><time>2026-04-05T08:40:24.000Z</time></trkpt>
<trkpt lat="42.19244" lon="23.588015"><ele>2451.6</ele><time>2026-04-05T08:40:25.000Z</time></trkpt>
<trkpt lat="42.19244" lon="23.588014"><ele>2451.6</ele><time>2026-04-05T08:40:26.000Z</time></trkpt>
<trkpt lat="42.192439" lon="23.588011"><ele>2451.6</ele><time>2026-04-05T08:40:27.000Z</time></trkpt>
<trkpt lat="42.192439" lon="23.588007"><ele>2451.6</ele><time>2026-04-05T08:40:28.000Z</time></trkpt>
<trkpt lat="42.192439" lon="23.588002"><ele>2451.4</ele><time>2026-04-05T08:40:29.000Z</time></trkpt>
<trkpt lat="42.192439" lon="23.587998"><ele>2451.4</ele><time>2026-04-05T08:40:30.000Z</time></trkpt>
<trkpt lat="42.192439" lon="23.587994"><ele>2451.4</ele><time>2026-04-05T08:40:31.000Z</time></trkpt>
<trkpt lat="42.192441" lon="23.587992"><ele>2451.4</ele><time>2026-04-05T08:40:32.000Z</time></trkpt>
<trkpt lat="42.192441" lon="23.587991"><ele>2451.4</ele><time>2026-04-05T08:40:33.000Z</time></trkpt>
<trkpt lat="42.192441" lon="23.587992"><ele>2451.4</ele><time>2026-04-05T08:40:34.000Z</time></trkpt>
<trkpt lat="42.192441" lon="23.587991"><ele>2451.4</ele><time>2026-04-05T08:40:35.000Z</time></trkpt>
<trkpt lat="42.192441" lon="23.58799"><ele>2451.4</ele><time>2026-04-05T08:40:36.000Z</time></trkpt>
<trkpt lat="42.192441" lon="23.587988"><ele>2451.4</ele><time>2026-04-05T08:40:37.000Z</time></trkpt>
<trkpt lat="42.192441" lon="23.587986"><ele>2451.4</ele><time>2026-04-05T08:40:38.000Z</time></trkpt>
<trkpt lat="42.192441" lon="23.587984"><ele>2451.6</ele><time>2026-04-05T08:40:39.000Z</time></trkpt>
<trkpt lat="42.19244" lon="23.587979"><ele>2451.6</ele><time>2026-04-05T08:40:40.000Z</time></trkpt>
<trkpt lat="42.192439" lon="23.587976"><ele>2451.6</ele><time>2026-04-05T08:40:41.000Z</time></trkpt>
<trkpt lat="42.192439" lon="23.587973"><ele>2451.6</ele><time>2026-04-05T08:40:42.000Z</time></trkpt>
<trkpt lat="42.192437" lon="23.587971"><ele>2451.6</ele><time>2026-04-05T08:40:43.000Z</time></trkpt>
<trkpt lat="42.192437" lon="23.587969"><ele>2452</ele><time>2026-04-05T08:40:44.000Z</time></trkpt>
<trkpt lat="42.192436" lon="23.587968"><ele>2452</ele><time>2026-04-05T08:40:45.000Z</time></trkpt>
<trkpt lat="42.192434" lon="23.587969"><ele>2452</ele><time>2026-04-05T08:40:46.000Z</time></trkpt>
<trkpt lat="42.192431" lon="23.587969"><ele>2452</ele><time>2026-04-05T08:40:47.000Z</time></trkpt>
<trkpt lat="42.192429" lon="23.587969"><ele>2452</ele><time>2026-04-05T08:40:48.000Z</time></trkpt>
<trkpt lat="42.192426" lon="23.58797"><ele>2452.2</ele><time>2026-04-05T08:40:49.000Z</time></trkpt>
<trkpt lat="42.192424" lon="23.587971"><ele>2452.2</ele><time>2026-04-05T08:40:50.000Z</time></trkpt>
<trkpt lat="42.192422" lon="23.587972"><ele>2452.2</ele><time>2026-04-05T08:40:51.000Z</time></trkpt>
<trkpt lat="42.192422" lon="23.587973"><ele>2452.2</ele><time>2026-04-05T08:40:52.000Z</time></trkpt>
<trkpt lat="42.192423" lon="23.587974"><ele>2452.2</ele><time>2026-04-05T08:40:53.000Z</time></trkpt>
<trkpt lat="42.192424" lon="23.587976"><ele>2452.5</ele><time>2026-04-05T08:40:54.000Z</time></trkpt>
<trkpt lat="42.192426" lon="23.587978"><ele>2452.5</ele><time>2026-04-05T08:40:55.000Z</time></trkpt>
<trkpt lat="42.192428" lon="23.587979"><ele>2452.5</ele><time>2026-04-05T08:40:56.000Z</time></trkpt>
<trkpt lat="42.192429" lon="23.587981"><ele>2452.5</ele><time>2026-04-05T08:40:57.000Z</time></trkpt>
<trkpt lat="42.192429" lon="23.587982"><ele>2452.5</ele><time>2026-04-05T08:40:58.000Z</time></trkpt>
<trkpt lat="42.192429" lon="23.587983"><ele>2452.6</ele><time>2026-04-05T08:40:59.000Z</time></trkpt>
<trkpt lat="42.192428" lon="23.587982"><ele>2452.6</ele><time>2026-04-05T08:41:00.000Z</time></trkpt>
<trkpt lat="42.192426" lon="23.587983"><ele>2452.6</ele><time>2026-04-05T08:41:01.000Z</time></trkpt>
<trkpt lat="42.192426" lon="23.587984"><ele>2452.6</ele><time>2026-04-05T08:41:02.000Z</time></trkpt>
<trkpt lat="42.192425" lon="23.587984"><ele>2452.6</ele><time>2026-04-05T08:41:03.000Z</time></trkpt>
<trkpt lat="42.192425" lon="23.587984"><ele>2452.5</ele><time>2026-04-05T08:41:04.000Z</time></trkpt>
<trkpt lat="42.192425" lon="23.587984"><ele>2452.5</ele><time>2026-04-05T08:41:05.000Z</time></trkpt>
<trkpt lat="42.192425" lon="23.587984"><ele>2452.5</ele><time>2026-04-05T08:41:06.000Z</time></trkpt>
<trkpt lat="42.192424" lon="23.587984"><ele>2452.5</ele><time>2026-04-05T08:41:07.000Z</time></trkpt>
<trkpt lat="42.192424" lon="23.587984"><ele>2452.5</ele><time>2026-04-05T08:41:08.000Z</time></trkpt>
<trkpt lat="42.192424" lon="23.587984"><ele>2452.6</ele><time>2026-04-05T08:41:09.000Z</time></trkpt>
<trkpt lat="42.192424" lon="23.587984"><ele>2452.6</ele><time>2026-04-05T08:41:10.000Z</time></trkpt>
<trkpt lat="42.192423" lon="23.587984"><ele>2452.6</ele><time>2026-04-05T08:41:11.000Z</time></trkpt>
<trkpt lat="42.192423" lon="23.587984"><ele>2452.6</ele><time>2026-04-05T08:41:12.000Z</time></trkpt>
<trkpt lat="42.192423" lon="23.587985"><ele>2452.6</ele><time>2026-04-05T08:41:13.000Z</time></trkpt>
<trkpt lat="42.192424" lon="23.587984"><ele>2452.9</ele><time>2026-04-05T08:41:14.000Z</time></trkpt>
<trkpt lat="42.192424" lon="23.587985"><ele>2452.9</ele><time>2026-04-05T08:41:15.000Z</time></trkpt>
<trkpt lat="42.192425" lon="23.587985"><ele>2452.9</ele><time>2026-04-05T08:41:16.000Z</time></trkpt>
<trkpt lat="42.192426" lon="23.587984"><ele>2452.9</ele><time>2026-04-05T08:41:17.000Z</time></trkpt>
<trkpt lat="42.192427" lon="23.587983"><ele>2452.9</ele><time>2026-04-05T08:41:18.000Z</time></trkpt>
<trkpt lat="42.192428" lon="23.587982"><ele>2453</ele><time>2026-04-05T08:41:19.000Z</time></trkpt>
<trkpt lat="42.192429" lon="23.587979"><ele>2453</ele><time>2026-04-05T08:41:20.000Z</time></trkpt>
<trkpt lat="42.192429" lon="23.587976"><ele>2453</ele><time>2026-04-05T08:41:21.000Z</time></trkpt>
<trkpt lat="42.19243" lon="23.587974"><ele>2453</ele><time>2026-04-05T08:41:22.000Z</time></trkpt>
<trkpt lat="42.19243" lon="23.587973"><ele>2453</ele><time>2026-04-05T08:41:23.000Z</time></trkpt>
<trkpt lat="42.192429" lon="23.587973"><ele>2453.1</ele><time>2026-04-05T08:41:24.000Z</time></trkpt>
<trkpt lat="42.19243" lon="23.587973"><ele>2453.1</ele><time>2026-04-05T08:41:25.000Z</time></trkpt>
<trkpt lat="42.19243" lon="23.587973"><ele>2453.1</ele><time>2026-04-05T08:41:26.000Z</time></trkpt>
<trkpt lat="42.19243" lon="23.587973"><ele>2453.1</ele><time>2026-04-05T08:41:27.000Z</time></trkpt>
<trkpt lat="42.19243" lon="23.587973"><ele>2453.1</ele><time>2026-04-05T08:41:28.000Z</time></trkpt>
<trkpt lat="42.19243" lon="23.587973"><ele>2453.1</ele><time>2026-04-05T08:41:29.000Z</time></trkpt>
<trkpt lat="42.192431" lon="23.587974"><ele>2453.1</ele><time>2026-04-05T08:41:30.000Z</time></trkpt>
<trkpt lat="42.192431" lon="23.587975"><ele>2453.1</ele><time>2026-04-05T08:41:31.000Z</time></trkpt>
<trkpt lat="42.192431" lon="23.587976"><ele>2453.1</ele><time>2026-04-05T08:41:32.000Z</time></trkpt>
<trkpt lat="42.192432" lon="23.587977"><ele>2453.1</ele><time>2026-04-05T08:41:33.000Z</time></trkpt>
<trkpt lat="42.192432" lon="23.587979"><ele>2453</ele><time>2026-04-05T08:41:34.000Z</time></trkpt>
<trkpt lat="42.192432" lon="23.58798"><ele>2453</ele><time>2026-04-05T08:41:35.000Z</time></trkpt>
<trkpt lat="42.192431" lon="23.58798"><ele>2453</ele><time>2026-04-05T08:41:36.000Z</time></trkpt>
<trkpt lat="42.192431" lon="23.58798"><ele>2453</ele><time>2026-04-05T08:41:37.000Z</time></trkpt>
<trkpt lat="42.19243" lon="23.587979"><ele>2453</ele><time>2026-04-05T08:41:38.000Z</time></trkpt>
<trkpt lat="42.19243" lon="23.587978"><ele>2453.1</ele><time>2026-04-05T08:41:39.000Z</time></trkpt>
<trkpt lat="42.19243" lon="23.587977"><ele>2453.1</ele><time>2026-04-05T08:41:40.000Z</time></trkpt>
<trkpt lat="42.19243" lon="23.587976"><ele>2453.1</ele><time>2026-04-05T08:41:41.000Z</time></trkpt>
<trkpt lat="42.192431" lon="23.587977"><ele>2453.1</ele><time>2026-04-05T08:41:42.000Z</time></trkpt>
<trkpt lat="42.192431" lon="23.587978"><ele>2453.1</ele><time>2026-04-05T08:41:43.000Z</time></trkpt>
<trkpt lat="42.19243" lon="23.587979"><ele>2453.2</ele><time>2026-04-05T08:41:44.000Z</time></trkpt>
<trkpt lat="42.192429" lon="23.58798"><ele>2453.2</ele><time>2026-04-05T08:41:45.000Z</time></trkpt>
<trkpt lat="42.192429" lon="23.58798"><ele>2453.2</ele><time>2026-04-05T08:41:46.000Z</time></trkpt>
<trkpt lat="42.192429" lon="23.58798"><ele>2453.2</ele><time>2026-04-05T08:41:47.000Z</time></trkpt>
<trkpt lat="42.192429" lon="23.587978"><ele>2453.2</ele><time>2026-04-05T08:41:48.000Z</time></trkpt>
<trkpt lat="42.192429" lon="23.587976"><ele>2453.3</ele><time>2026-04-05T08:41:49.000Z</time></trkpt>
<trkpt lat="42.19243" lon="23.587972"><ele>2453.3</ele><time>2026-04-05T08:41:50.000Z</time></trkpt>
<trkpt lat="42.19243" lon="23.587968"><ele>2453.3</ele><time>2026-04-05T08:41:51.000Z</time></trkpt>
<trkpt lat="42.19243" lon="23.587964"><ele>2453.3</ele><time>2026-04-05T08:41:52.000Z</time></trkpt>
<trkpt lat="42.192429" lon="23.58796"><ele>2453.3</ele><time>2026-04-05T08:41:53.000Z</time></trkpt>
<trkpt lat="42.192429" lon="23.587957"><ele>2453.1</ele><time>2026-04-05T08:41:54.000Z</time></trkpt>
<trkpt lat="42.192428" lon="23.587956"><ele>2453.1</ele><time>2026-04-05T08:41:55.000Z</time></trkpt>
<trkpt lat="42.192427" lon="23.587956"><ele>2453.1</ele><time>2026-04-05T08:41:56.000Z</time></trkpt>
<trkpt lat="42.192427" lon="23.587956"><ele>2453.1</ele><time>2026-04-05T08:41:57.000Z</time></trkpt>
<trkpt lat="42.192426" lon="23.587955"><ele>2453.1</ele><time>2026-04-05T08:41:58.000Z</time></trkpt>
<trkpt lat="42.192426" lon="23.587956"><ele>2452.7</ele><time>2026-04-05T08:41:59.000Z</time></trkpt>
<trkpt lat="42.192426" lon="23.587956"><ele>2452.7</ele><time>2026-04-05T08:42:00.000Z</time></trkpt>
<trkpt lat="42.192426" lon="23.587956"><ele>2452.7</ele><time>2026-04-05T08:42:01.000Z</time></trkpt>
<trkpt lat="42.192426" lon="23.587956"><ele>2452.7</ele><time>2026-04-05T08:42:02.000Z</time></trkpt>
<trkpt lat="42.192426" lon="23.587957"><ele>2452.7</ele><time>2026-04-05T08:42:03.000Z</time></trkpt>
<trkpt lat="42.192426" lon="23.587957"><ele>2452.7</ele><time>2026-04-05T08:42:04.000Z</time></trkpt>
<trkpt lat="42.192426" lon="23.587957"><ele>2452.7</ele><time>2026-04-05T08:42:05.000Z</time></trkpt>
<trkpt lat="42.192426" lon="23.587957"><ele>2452.7</ele><time>2026-04-05T08:42:06.000Z</time></trkpt>
<trkpt lat="42.192427" lon="23.587957"><ele>2452.7</ele><time>2026-04-05T08:42:07.000Z</time></trkpt>
<trkpt lat="42.192427" lon="23.587957"><ele>2452.7</ele><time>2026-04-05T08:42:08.000Z</time></trkpt>
<trkpt lat="42.192428" lon="23.587959"><ele>2452.8</ele><time>2026-04-05T08:42:09.000Z</time></trkpt>
<trkpt lat="42.192428" lon="23.58796"><ele>2452.8</ele><time>2026-04-05T08:42:10.000Z</time></trkpt>
<trkpt lat="42.192428" lon="23.587962"><ele>2452.8</ele><time>2026-04-05T08:42:11.000Z</time></trkpt>
<trkpt lat="42.192428" lon="23.587965"><ele>2452.8</ele><time>2026-04-05T08:42:12.000Z</time></trkpt>
<trkpt lat="42.192427" lon="23.587967"><ele>2452.8</ele><time>2026-04-05T08:42:13.000Z</time></trkpt>
<trkpt lat="42.192426" lon="23.587968"><ele>2453</ele><time>2026-04-05T08:42:14.000Z</time></trkpt>
<trkpt lat="42.192425" lon="23.587969"><ele>2453</ele><time>2026-04-05T08:42:15.000Z</time></trkpt>
<trkpt lat="42.192425" lon="23.587969"><ele>2453</ele><time>2026-04-05T08:42:16.000Z</time></trkpt>
<trkpt lat="42.192425" lon="23.587969"><ele>2453</ele><time>2026-04-05T08:42:17.000Z</time></trkpt>
<trkpt lat="42.192424" lon="23.587969"><ele>2453</ele><time>2026-04-05T08:42:18.000Z</time></trkpt>
<trkpt lat="42.192424" lon="23.587969"><ele>2453</ele><time>2026-04-05T08:42:19.000Z</time></trkpt>
<trkpt lat="42.192424" lon="23.587969"><ele>2453</ele><time>2026-04-05T08:42:20.000Z</time></trkpt>
<trkpt lat="42.192423" lon="23.587968"><ele>2453</ele><time>2026-04-05T08:42:21.000Z</time></trkpt>
<trkpt lat="42.192423" lon="23.587967"><ele>2453</ele><time>2026-04-05T08:42:22.000Z</time></trkpt>
<trkpt lat="42.192423" lon="23.587967"><ele>2453</ele><time>2026-04-05T08:42:23.000Z</time></trkpt>
<trkpt lat="42.192422" lon="23.587967"><ele>2452.9</ele><time>2026-04-05T08:42:24.000Z</time></trkpt>
<trkpt lat="42.192421" lon="23.587967"><ele>2452.9</ele><time>2026-04-05T08:42:25.000Z</time></trkpt>
<trkpt lat="42.192421" lon="23.587968"><ele>2452.9</ele><time>2026-04-05T08:42:26.000Z</time></trkpt>
<trkpt lat="42.19242" lon="23.587969"><ele>2452.9</ele><time>2026-04-05T08:42:27.000Z</time></trkpt>
<trkpt lat="42.19242" lon="23.587969"><ele>2452.9</ele><time>2026-04-05T08:42:28.000Z</time></trkpt>
<trkpt lat="42.19242" lon="23.587969"><ele>2452.9</ele><time>2026-04-05T08:42:29.000Z</time></trkpt>
<trkpt lat="42.192421" lon="23.587969"><ele>2452.9</ele><time>2026-04-05T08:42:30.000Z</time></trkpt>
<trkpt lat="42.192421" lon="23.587969"><ele>2452.9</ele><time>2026-04-05T08:42:31.000Z</time></trkpt>
<trkpt lat="42.192421" lon="23.58797"><ele>2452.9</ele><time>2026-04-05T08:42:32.000Z</time></trkpt>
<trkpt lat="42.192422" lon="23.587971"><ele>2452.9</ele><time>2026-04-05T08:42:33.000Z</time></trkpt>
<trkpt lat="42.192422" lon="23.587971"><ele>2453</ele><time>2026-04-05T08:42:34.000Z</time></trkpt>
<trkpt lat="42.192421" lon="23.587969"><ele>2453</ele><time>2026-04-05T08:42:35.000Z</time></trkpt>
<trkpt lat="42.192421" lon="23.587965"><ele>2453</ele><time>2026-04-05T08:42:36.000Z</time></trkpt>
<trkpt lat="42.192421" lon="23.587958"><ele>2453</ele><time>2026-04-05T08:42:37.000Z</time></trkpt>
<trkpt lat="42.19242" lon="23.587949"><ele>2453</ele><time>2026-04-05T08:42:38.000Z</time></trkpt>
<trkpt lat="42.19242" lon="23.58794"><ele>2453.2</ele><time>2026-04-05T08:42:39.000Z</time></trkpt>
<trkpt lat="42.192419" lon="23.58793"><ele>2453.2</ele><time>2026-04-05T08:42:40.000Z</time></trkpt>
<trkpt lat="42.192419" lon="23.587919"><ele>2453.2</ele><time>2026-04-05T08:42:41.000Z</time></trkpt>
<trkpt lat="42.192418" lon="23.58791"><ele>2453.2</ele><time>2026-04-05T08:42:42.000Z</time></trkpt>
<trkpt lat="42.192417" lon="23.587901"><ele>2453.2</ele><time>2026-04-05T08:42:43.000Z</time></trkpt>
<trkpt lat="42.192415" lon="23.587893"><ele>2453.5</ele><time>2026-04-05T08:42:44.000Z</time></trkpt>
<trkpt lat="42.192413" lon="23.587885"><ele>2453.5</ele><time>2026-04-05T08:42:45.000Z</time></trkpt>
<trkpt lat="42.19241" lon="23.587877"><ele>2453.5</ele><time>2026-04-05T08:42:46.000Z</time></trkpt>
<trkpt lat="42.192408" lon="23.587867"><ele>2453.5</ele><time>2026-04-05T08:42:47.000Z</time></trkpt>
<trkpt lat="42.192405" lon="23.587856"><ele>2453.5</ele><time>2026-04-05T08:42:48.000Z</time></trkpt>
<trkpt lat="42.192404" lon="23.587844"><ele>2453.8</ele><time>2026-04-05T08:42:49.000Z</time></trkpt>
<trkpt lat="42.192402" lon="23.587834"><ele>2453.8</ele><time>2026-04-05T08:42:50.000Z</time></trkpt>
<trkpt lat="42.1924" lon="23.587824"><ele>2453.8</ele><time>2026-04-05T08:42:51.000Z</time></trkpt>
<trkpt lat="42.192398" lon="23.587814"><ele>2453.8</ele><time>2026-04-05T08:42:52.000Z</time></trkpt>
<trkpt lat="42.192396" lon="23.587804"><ele>2453.8</ele><time>2026-04-05T08:42:53.000Z</time></trkpt>
<trkpt lat="42.192394" lon="23.587793"><ele>2454.9</ele><time>2026-04-05T08:42:54.000Z</time></trkpt>
<trkpt lat="42.192392" lon="23.587783"><ele>2454.9</ele><time>2026-04-05T08:42:55.000Z</time></trkpt>
<trkpt lat="42.192391" lon="23.587773"><ele>2454.9</ele><time>2026-04-05T08:42:56.000Z</time></trkpt>
<trkpt lat="42.192391" lon="23.587763"><ele>2454.9</ele><time>2026-04-05T08:42:57.000Z</time></trkpt>
<trkpt lat="42.19239" lon="23.587756"><ele>2454.9</ele><time>2026-04-05T08:42:58.000Z</time></trkpt>
<trkpt lat="42.192389" lon="23.587748"><ele>2456.4</ele><time>2026-04-05T08:42:59.000Z</time></trkpt>
<trkpt lat="42.192388" lon="23.58774"><ele>2456.4</ele><time>2026-04-05T08:43:00.000Z</time></trkpt>
<trkpt lat="42.192387" lon="23.587732"><ele>2456.4</ele><time>2026-04-05T08:43:01.000Z</time></trkpt>
<trkpt lat="42.192385" lon="23.587725"><ele>2456.4</ele><time>2026-04-05T08:43:02.000Z</time></trkpt>
<trkpt lat="42.192384" lon="23.587718"><ele>2456.4</ele><time>2026-04-05T08:43:03.000Z</time></trkpt>
<trkpt lat="42.192383" lon="23.587711"><ele>2457.1</ele><time>2026-04-05T08:43:04.000Z</time></trkpt>
<trkpt lat="42.192382" lon="23.587703"><ele>2457.1</ele><time>2026-04-05T08:43:05.000Z</time></trkpt>
<trkpt lat="42.192381" lon="23.587696"><ele>2457.1</ele><time>2026-04-05T08:43:06.000Z</time></trkpt>
<trkpt lat="42.19238" lon="23.587688"><ele>2457.1</ele><time>2026-04-05T08:43:07.000Z</time></trkpt>
<trkpt lat="42.192378" lon="23.58768"><ele>2457.1</ele><time>2026-04-05T08:43:08.000Z</time></trkpt>
<trkpt lat="42.192377" lon="23.587671"><ele>2458.6</ele><time>2026-04-05T08:43:09.000Z</time></trkpt>
<trkpt lat="42.192376" lon="23.587663"><ele>2458.6</ele><time>2026-04-05T08:43:10.000Z</time></trkpt>
<trkpt lat="42.192373" lon="23.587655"><ele>2458.6</ele><time>2026-04-05T08:43:11.000Z</time></trkpt>
<trkpt lat="42.192371" lon="23.587647"><ele>2458.6</ele><time>2026-04-05T08:43:12.000Z</time></trkpt>
<trkpt lat="42.192369" lon="23.587639"><ele>2458.6</ele><time>2026-04-05T08:43:13.000Z</time></trkpt>
<trkpt lat="42.192368" lon="23.587631"><ele>2460</ele><time>2026-04-05T08:43:14.000Z</time></trkpt>
<trkpt lat="42.192366" lon="23.587623"><ele>2460</ele><time>2026-04-05T08:43:15.000Z</time></trkpt>
<trkpt lat="42.192366" lon="23.587616"><ele>2460</ele><time>2026-04-05T08:43:16.000Z</time></trkpt>
<trkpt lat="42.192365" lon="23.587609"><ele>2460</ele><time>2026-04-05T08:43:17.000Z</time></trkpt>
<trkpt lat="42.192366" lon="23.587601"><ele>2460</ele><time>2026-04-05T08:43:18.000Z</time></trkpt>
<trkpt lat="42.192366" lon="23.587595"><ele>2460.7</ele><time>2026-04-05T08:43:19.000Z</time></trkpt>
<trkpt lat="42.192368" lon="23.587589"><ele>2460.7</ele><time>2026-04-05T08:43:20.000Z</time></trkpt>
<trkpt lat="42.192371" lon="23.587581"><ele>2460.7</ele><time>2026-04-05T08:43:21.000Z</time></trkpt>
<trkpt lat="42.192374" lon="23.587573"><ele>2460.7</ele><time>2026-04-05T08:43:22.000Z</time></trkpt>
<trkpt lat="42.192376" lon="23.587565"><ele>2460.7</ele><time>2026-04-05T08:43:23.000Z</time></trkpt>
<trkpt lat="42.192378" lon="23.587557"><ele>2461.7</ele><time>2026-04-05T08:43:24.000Z</time></trkpt>
<trkpt lat="42.19238" lon="23.587547"><ele>2461.7</ele><time>2026-04-05T08:43:25.000Z</time></trkpt>
<trkpt lat="42.192381" lon="23.587537"><ele>2461.7</ele><time>2026-04-05T08:43:26.000Z</time></trkpt>
<trkpt lat="42.192382" lon="23.587529"><ele>2461.7</ele><time>2026-04-05T08:43:27.000Z</time></trkpt>
<trkpt lat="42.192383" lon="23.587519"><ele>2461.7</ele><time>2026-04-05T08:43:28.000Z</time></trkpt>
<trkpt lat="42.192385" lon="23.58751"><ele>2462.8</ele><time>2026-04-05T08:43:29.000Z</time></trkpt>
<trkpt lat="42.192385" lon="23.587502"><ele>2462.8</ele><time>2026-04-05T08:43:30.000Z</time></trkpt>
<trkpt lat="42.192386" lon="23.587494"><ele>2462.8</ele><time>2026-04-05T08:43:31.000Z</time></trkpt>
<trkpt lat="42.192386" lon="23.587485"><ele>2462.8</ele><time>2026-04-05T08:43:32.000Z</time></trkpt>
<trkpt lat="42.192386" lon="23.587475"><ele>2462.8</ele><time>2026-04-05T08:43:33.000Z</time></trkpt>
<trkpt lat="42.192385" lon="23.587467"><ele>2463.3</ele><time>2026-04-05T08:43:34.000Z</time></trkpt>
<trkpt lat="42.192384" lon="23.587457"><ele>2463.3</ele><time>2026-04-05T08:43:35.000Z</time></trkpt>
<trkpt lat="42.192384" lon="23.587447"><ele>2463.3</ele><time>2026-04-05T08:43:36.000Z</time></trkpt>
<trkpt lat="42.192383" lon="23.587438"><ele>2463.3</ele><time>2026-04-05T08:43:37.000Z</time></trkpt>
<trkpt lat="42.192381" lon="23.587431"><ele>2463.3</ele><time>2026-04-05T08:43:38.000Z</time></trkpt>
<trkpt lat="42.19238" lon="23.587423"><ele>2464.3</ele><time>2026-04-05T08:43:39.000Z</time></trkpt>
<trkpt lat="42.192379" lon="23.587415"><ele>2464.3</ele><time>2026-04-05T08:43:40.000Z</time></trkpt>
<trkpt lat="42.192378" lon="23.587408"><ele>2464.3</ele><time>2026-04-05T08:43:41.000Z</time></trkpt>
<trkpt lat="42.192377" lon="23.587401"><ele>2464.3</ele><time>2026-04-05T08:43:42.000Z</time></trkpt>
<trkpt lat="42.192377" lon="23.587394"><ele>2464.3</ele><time>2026-04-05T08:43:43.000Z</time></trkpt>
<trkpt lat="42.192376" lon="23.587385"><ele>2465.4</ele><time>2026-04-05T08:43:44.000Z</time></trkpt>
<trkpt lat="42.192375" lon="23.587377"><ele>2465.4</ele><time>2026-04-05T08:43:45.000Z</time></trkpt>
<trkpt lat="42.192373" lon="23.587367"><ele>2465.4</ele><time>2026-04-05T08:43:46.000Z</time></trkpt>
<trkpt lat="42.192371" lon="23.587357"><ele>2465.4</ele><time>2026-04-05T08:43:47.000Z</time></trkpt>
<trkpt lat="42.19237" lon="23.587347"><ele>2465.4</ele><time>2026-04-05T08:43:48.000Z</time></trkpt>
<trkpt lat="42.192368" lon="23.587338"><ele>2466</ele><time>2026-04-05T08:43:49.000Z</time></trkpt>
<trkpt lat="42.192367" lon="23.587328"><ele>2466</ele><time>2026-04-05T08:43:50.000Z</time></trkpt>
<trkpt lat="42.192365" lon="23.587319"><ele>2466</ele><time>2026-04-05T08:43:51.000Z</time></trkpt>
<trkpt lat="42.192363" lon="23.587309"><ele>2466</ele><time>2026-04-05T08:43:52.000Z</time></trkpt>
<trkpt lat="42.192361" lon="23.5873"><ele>2466</ele><time>2026-04-05T08:43:53.000Z</time></trkpt>
<trkpt lat="42.192358" lon="23.587291"><ele>2467.1</ele><time>2026-04-05T08:43:54.000Z</time></trkpt>
<trkpt lat="42.192355" lon="23.587281"><ele>2467.1</ele><time>2026-04-05T08:43:55.000Z</time></trkpt>
<trkpt lat="42.192353" lon="23.587271"><ele>2467.1</ele><time>2026-04-05T08:43:56.000Z</time></trkpt>
<trkpt lat="42.19235" lon="23.587261"><ele>2467.1</ele><time>2026-04-05T08:43:57.000Z</time></trkpt>
<trkpt lat="42.192347" lon="23.587252"><ele>2467.1</ele><time>2026-04-05T08:43:58.000Z</time></trkpt>
<trkpt lat="42.192344" lon="23.587241"><ele>2468.3</ele><time>2026-04-05T08:43:59.000Z</time></trkpt>
<trkpt lat="42.192342" lon="23.587232"><ele>2468.3</ele><time>2026-04-05T08:44:00.000Z</time></trkpt>
<trkpt lat="42.192341" lon="23.587223"><ele>2468.3</ele><time>2026-04-05T08:44:01.000Z</time></trkpt>
<trkpt lat="42.192339" lon="23.587214"><ele>2468.3</ele><time>2026-04-05T08:44:02.000Z</time></trkpt>
<trkpt lat="42.192338" lon="23.587205"><ele>2468.3</ele><time>2026-04-05T08:44:03.000Z</time></trkpt>
<trkpt lat="42.192335" lon="23.587196"><ele>2468.9</ele><time>2026-04-05T08:44:04.000Z</time></trkpt>
<trkpt lat="42.192333" lon="23.587187"><ele>2468.9</ele><time>2026-04-05T08:44:05.000Z</time></trkpt>
<trkpt lat="42.19233" lon="23.587179"><ele>2468.9</ele><time>2026-04-05T08:44:06.000Z</time></trkpt>
<trkpt lat="42.192327" lon="23.58717"><ele>2468.9</ele><time>2026-04-05T08:44:07.000Z</time></trkpt>
<trkpt lat="42.192324" lon="23.587161"><ele>2468.9</ele><time>2026-04-05T08:44:08.000Z</time></trkpt>
<trkpt lat="42.192321" lon="23.587154"><ele>2470.1</ele><time>2026-04-05T08:44:09.000Z</time></trkpt>
<trkpt lat="42.192318" lon="23.587146"><ele>2470.1</ele><time>2026-04-05T08:44:10.000Z</time></trkpt>
<trkpt lat="42.192315" lon="23.587138"><ele>2470.1</ele><time>2026-04-05T08:44:11.000Z</time></trkpt>
<trkpt lat="42.192312" lon="23.587131"><ele>2470.1</ele><time>2026-04-05T08:44:12.000Z</time></trkpt>
<trkpt lat="42.192308" lon="23.587122"><ele>2470.1</ele><time>2026-04-05T08:44:13.000Z</time></trkpt>
<trkpt lat="42.192303" lon="23.587113"><ele>2471.3</ele><time>2026-04-05T08:44:14.000Z</time></trkpt>
<trkpt lat="42.192299" lon="23.587104"><ele>2471.3</ele><time>2026-04-05T08:44:15.000Z</time></trkpt>
<trkpt lat="42.192296" lon="23.587095"><ele>2471.3</ele><time>2026-04-05T08:44:16.000Z</time></trkpt>
<trkpt lat="42.192293" lon="23.587085"><ele>2471.3</ele><time>2026-04-05T08:44:17.000Z</time></trkpt>
<trkpt lat="42.192291" lon="23.587077"><ele>2471.3</ele><time>2026-04-05T08:44:18.000Z</time></trkpt>
<trkpt lat="42.192289" lon="23.587067"><ele>2471.9</ele><time>2026-04-05T08:44:19.000Z</time></trkpt>
<trkpt lat="42.192286" lon="23.587056"><ele>2471.9</ele><time>2026-04-05T08:44:20.000Z</time></trkpt>
<trkpt lat="42.192284" lon="23.587046"><ele>2471.9</ele><time>2026-04-05T08:44:21.000Z</time></trkpt>
<trkpt lat="42.192281" lon="23.587034"><ele>2471.9</ele><time>2026-04-05T08:44:22.000Z</time></trkpt>
<trkpt lat="42.192278" lon="23.587023"><ele>2471.9</ele><time>2026-04-05T08:44:23.000Z</time></trkpt>
<trkpt lat="42.192276" lon="23.587013"><ele>2473</ele><time>2026-04-05T08:44:24.000Z</time></trkpt>
<trkpt lat="42.192272" lon="23.587003"><ele>2473</ele><time>2026-04-05T08:44:25.000Z</time></trkpt>
<trkpt lat="42.192267" lon="23.586995"><ele>2473</ele><time>2026-04-05T08:44:26.000Z</time></trkpt>
<trkpt lat="42.192263" lon="23.586986"><ele>2473</ele><time>2026-04-05T08:44:27.000Z</time></trkpt>
<trkpt lat="42.192258" lon="23.586977"><ele>2473</ele><time>2026-04-05T08:44:28.000Z</time></trkpt>
<trkpt lat="42.192253" lon="23.586969"><ele>2474.1</ele><time>2026-04-05T08:44:29.000Z</time></trkpt>
<trkpt lat="42.192247" lon="23.586961"><ele>2474.1</ele><time>2026-04-05T08:44:30.000Z</time></trkpt>
<trkpt lat="42.192241" lon="23.586953"><ele>2474.1</ele><time>2026-04-05T08:44:31.000Z</time></trkpt>
<trkpt lat="42.192235" lon="23.586944"><ele>2474.1</ele><time>2026-04-05T08:44:32.000Z</time></trkpt>
<trkpt lat="42.192227" lon="23.586934"><ele>2474.1</ele><time>2026-04-05T08:44:33.000Z</time></trkpt>
<trkpt lat="42.192221" lon="23.586925"><ele>2474.5</ele><time>2026-04-05T08:44:34.000Z</time></trkpt>
<trkpt lat="42.192215" lon="23.586915"><ele>2474.5</ele><time>2026-04-05T08:44:35.000Z</time></trkpt>
<trkpt lat="42.192209" lon="23.586907"><ele>2474.5</ele><time>2026-04-05T08:44:36.000Z</time></trkpt>
<trkpt lat="42.192205" lon="23.5869"><ele>2474.5</ele><time>2026-04-05T08:44:37.000Z</time></trkpt>
<trkpt lat="42.192202" lon="23.586892"><ele>2474.5</ele><time>2026-04-05T08:44:38.000Z</time></trkpt>
<trkpt lat="42.192198" lon="23.586884"><ele>2475.5</ele><time>2026-04-05T08:44:39.000Z</time></trkpt>
<trkpt lat="42.192194" lon="23.586877"><ele>2475.5</ele><time>2026-04-05T08:44:40.000Z</time></trkpt>
<trkpt lat="42.19219" lon="23.586868"><ele>2475.5</ele><time>2026-04-05T08:44:41.000Z</time></trkpt>
<trkpt lat="42.192187" lon="23.586859"><ele>2475.5</ele><time>2026-04-05T08:44:42.000Z</time></trkpt>
<trkpt lat="42.192183" lon="23.586853"><ele>2475.5</ele><time>2026-04-05T08:44:43.000Z</time></trkpt>
<trkpt lat="42.192179" lon="23.586844"><ele>2476.5</ele><time>2026-04-05T08:44:44.000Z</time></trkpt>
<trkpt lat="42.192174" lon="23.586835"><ele>2476.5</ele><time>2026-04-05T08:44:45.000Z</time></trkpt>
<trkpt lat="42.19217" lon="23.586827"><ele>2476.5</ele><time>2026-04-05T08:44:46.000Z</time></trkpt>
<trkpt lat="42.192165" lon="23.586819"><ele>2476.5</ele><time>2026-04-05T08:44:47.000Z</time></trkpt>
<trkpt lat="42.192161" lon="23.58681"><ele>2476.5</ele><time>2026-04-05T08:44:48.000Z</time></trkpt>
<trkpt lat="42.192158" lon="23.586803"><ele>2477</ele><time>2026-04-05T08:44:49.000Z</time></trkpt>
<trkpt lat="42.192156" lon="23.586796"><ele>2477</ele><time>2026-04-05T08:44:50.000Z</time></trkpt>
<trkpt lat="42.192154" lon="23.586791"><ele>2477</ele><time>2026-04-05T08:44:51.000Z</time></trkpt>
<trkpt lat="42.192154" lon="23.586784"><ele>2477</ele><time>2026-04-05T08:44:52.000Z</time></trkpt>
<trkpt lat="42.192154" lon="23.58678"><ele>2477</ele><time>2026-04-05T08:44:53.000Z</time></trkpt>
<trkpt lat="42.192153" lon="23.586776"><ele>2477.9</ele><time>2026-04-05T08:44:54.000Z</time></trkpt>
<trkpt lat="42.192151" lon="23.586772"><ele>2477.9</ele><time>2026-04-05T08:44:55.000Z</time></trkpt>
<trkpt lat="42.19215" lon="23.586766"><ele>2477.9</ele><time>2026-04-05T08:44:56.000Z</time></trkpt>
<trkpt lat="42.192147" lon="23.586761"><ele>2477.9</ele><time>2026-04-05T08:44:57.000Z</time></trkpt>
<trkpt lat="42.192144" lon="23.586755"><ele>2477.9</ele><time>2026-04-05T08:44:58.000Z</time></trkpt>
<trkpt lat="42.19214" lon="23.586748"><ele>2478.8</ele><time>2026-04-05T08:44:59.000Z</time></trkpt>
<trkpt lat="42.192134" lon="23.586741"><ele>2478.8</ele><time>2026-04-05T08:45:00.000Z</time></trkpt>
<trkpt lat="42.192129" lon="23.586738"><ele>2478.8</ele><time>2026-04-05T08:45:01.000Z</time></trkpt>
<trkpt lat="42.192122" lon="23.586734"><ele>2478.8</ele><time>2026-04-05T08:45:02.000Z</time></trkpt>
<trkpt lat="42.192114" lon="23.58673"><ele>2478.8</ele><time>2026-04-05T08:45:03.000Z</time></trkpt>
<trkpt lat="42.192108" lon="23.586729"><ele>2479.3</ele><time>2026-04-05T08:45:04.000Z</time></trkpt>
<trkpt lat="42.192101" lon="23.586728"><ele>2479.3</ele><time>2026-04-05T08:45:05.000Z</time></trkpt>
<trkpt lat="42.192095" lon="23.586727"><ele>2479.3</ele><time>2026-04-05T08:45:06.000Z</time></trkpt>
<trkpt lat="42.192091" lon="23.586725"><ele>2479.3</ele><time>2026-04-05T08:45:07.000Z</time></trkpt>
<trkpt lat="42.192087" lon="23.586724"><ele>2479.3</ele><time>2026-04-05T08:45:08.000Z</time></trkpt>
<trkpt lat="42.192083" lon="23.586722"><ele>2480.5</ele><time>2026-04-05T08:45:09.000Z</time></trkpt>
<trkpt lat="42.192081" lon="23.586719"><ele>2480.5</ele><time>2026-04-05T08:45:10.000Z</time></trkpt>
<trkpt lat="42.192079" lon="23.586714"><ele>2480.5</ele><time>2026-04-05T08:45:11.000Z</time></trkpt>
<trkpt lat="42.192076" lon="23.586709"><ele>2480.5</ele><time>2026-04-05T08:45:12.000Z</time></trkpt>
<trkpt lat="42.192074" lon="23.586704"><ele>2480.5</ele><time>2026-04-05T08:45:13.000Z</time></trkpt>
<trkpt lat="42.192072" lon="23.5867"><ele>2481.6</ele><time>2026-04-05T08:45:14.000Z</time></trkpt>
<trkpt lat="42.192072" lon="23.586696"><ele>2481.6</ele><time>2026-04-05T08:45:15.000Z</time></trkpt>
<trkpt lat="42.192072" lon="23.586695"><ele>2481.6</ele><time>2026-04-05T08:45:16.000Z</time></trkpt>
<trkpt lat="42.192073" lon="23.586694"><ele>2481.6</ele><time>2026-04-05T08:45:17.000Z</time></trkpt>
<trkpt lat="42.192073" lon="23.586695"><ele>2481.6</ele><time>2026-04-05T08:45:18.000Z</time></trkpt>
<trkpt lat="42.192074" lon="23.586695"><ele>2482.1</ele><time>2026-04-05T08:45:19.000Z</time></trkpt>
<trkpt lat="42.192074" lon="23.586696"><ele>2482.1</ele><time>2026-04-05T08:45:20.000Z</time></trkpt>
<trkpt lat="42.192075" lon="23.586696"><ele>2482.1</ele><time>2026-04-05T08:45:21.000Z</time></trkpt>
<trkpt lat="42.192075" lon="23.586696"><ele>2482.1</ele><time>2026-04-05T08:45:22.000Z</time></trkpt>
<trkpt lat="42.192075" lon="23.586694"><ele>2482.1</ele><time>2026-04-05T08:45:23.000Z</time></trkpt>
<trkpt lat="42.192073" lon="23.586691"><ele>2483</ele><time>2026-04-05T08:45:24.000Z</time></trkpt>
<trkpt lat="42.192071" lon="23.586688"><ele>2483</ele><time>2026-04-05T08:45:25.000Z</time></trkpt>
<trkpt lat="42.192067" lon="23.586684"><ele>2483</ele><time>2026-04-05T08:45:26.000Z</time></trkpt>
<trkpt lat="42.192064" lon="23.586679"><ele>2483</ele><time>2026-04-05T08:45:27.000Z</time></trkpt>
<trkpt lat="42.192063" lon="23.586676"><ele>2483</ele><time>2026-04-05T08:45:28.000Z</time></trkpt>
<trkpt lat="42.192062" lon="23.586674"><ele>2483.6</ele><time>2026-04-05T08:45:29.000Z</time></trkpt>
<trkpt lat="42.192061" lon="23.58667"><ele>2483.6</ele><time>2026-04-05T08:45:30.000Z</time></trkpt>
<trkpt lat="42.192059" lon="23.586667"><ele>2483.6</ele><time>2026-04-05T08:45:31.000Z</time></trkpt>
<trkpt lat="42.192058" lon="23.586665"><ele>2483.6</ele><time>2026-04-05T08:45:32.000Z</time></trkpt>
<trkpt lat="42.192055" lon="23.586661"><ele>2483.6</ele><time>2026-04-05T08:45:33.000Z</time></trkpt>
<trkpt lat="42.192052" lon="23.586655"><ele>2483.8</ele><time>2026-04-05T08:45:34.000Z</time></trkpt>
<trkpt lat="42.192048" lon="23.586651"><ele>2483.8</ele><time>2026-04-05T08:45:35.000Z</time></trkpt>
<trkpt lat="42.192045" lon="23.586646"><ele>2483.8</ele><time>2026-04-05T08:45:36.000Z</time></trkpt>
<trkpt lat="42.192041" lon="23.586641"><ele>2483.8</ele><time>2026-04-05T08:45:37.000Z</time></trkpt>
<trkpt lat="42.192037" lon="23.586636"><ele>2483.8</ele><time>2026-04-05T08:45:38.000Z</time></trkpt>
<trkpt lat="42.192034" lon="23.586631"><ele>2484.1</ele><time>2026-04-05T08:45:39.000Z</time></trkpt>
<trkpt lat="42.192031" lon="23.586625"><ele>2484.1</ele><time>2026-04-05T08:45:40.000Z</time></trkpt>
<trkpt lat="42.192027" lon="23.58662"><ele>2484.1</ele><time>2026-04-05T08:45:41.000Z</time></trkpt>
<trkpt lat="42.192023" lon="23.586615"><ele>2484.1</ele><time>2026-04-05T08:45:42.000Z</time></trkpt>
<trkpt lat="42.192019" lon="23.586611"><ele>2484.1</ele><time>2026-04-05T08:45:43.000Z</time></trkpt>
<trkpt lat="42.192015" lon="23.586608"><ele>2484.6</ele><time>2026-04-05T08:45:44.000Z</time></trkpt>
<trkpt lat="42.192011" lon="23.586604"><ele>2484.6</ele><time>2026-04-05T08:45:45.000Z</time></trkpt>
<trkpt lat="42.192008" lon="23.586601"><ele>2484.6</ele><time>2026-04-05T08:45:46.000Z</time></trkpt>
<trkpt lat="42.192006" lon="23.586596"><ele>2484.6</ele><time>2026-04-05T08:45:47.000Z</time></trkpt>
<trkpt lat="42.192004" lon="23.58659"><ele>2484.6</ele><time>2026-04-05T08:45:48.000Z</time></trkpt>
<trkpt lat="42.192002" lon="23.586585"><ele>2485.1</ele><time>2026-04-05T08:45:49.000Z</time></trkpt>
<trkpt lat="42.191999" lon="23.586579"><ele>2485.1</ele><time>2026-04-05T08:45:50.000Z</time></trkpt>
<trkpt lat="42.191996" lon="23.586574"><ele>2485.1</ele><time>2026-04-05T08:45:51.000Z</time></trkpt>
<trkpt lat="42.191992" lon="23.58657"><ele>2485.1</ele><time>2026-04-05T08:45:52.000Z</time></trkpt>
<trkpt lat="42.191989" lon="23.586567"><ele>2485.1</ele><time>2026-04-05T08:45:53.000Z</time></trkpt>
<trkpt lat="42.191985" lon="23.586563"><ele>2486.4</ele><time>2026-04-05T08:45:54.000Z</time></trkpt>
<trkpt lat="42.191982" lon="23.58656"><ele>2486.4</ele><time>2026-04-05T08:45:55.000Z</time></trkpt>
<trkpt lat="42.191979" lon="23.586557"><ele>2486.4</ele><time>2026-04-05T08:45:56.000Z</time></trkpt>
<trkpt lat="42.191976" lon="23.586554"><ele>2486.4</ele><time>2026-04-05T08:45:57.000Z</time></trkpt>
<trkpt lat="42.191974" lon="23.586551"><ele>2486.4</ele><time>2026-04-05T08:45:58.000Z</time></trkpt>
<trkpt lat="42.191972" lon="23.586548"><ele>2487.9</ele><time>2026-04-05T08:45:59.000Z</time></trkpt>
<trkpt lat="42.191971" lon="23.586543"><ele>2487.9</ele><time>2026-04-05T08:46:00.000Z</time></trkpt>
<trkpt lat="42.191969" lon="23.586537"><ele>2487.9</ele><time>2026-04-05T08:46:01.000Z</time></trkpt>
<trkpt lat="42.191968" lon="23.586531"><ele>2487.9</ele><time>2026-04-05T08:46:02.000Z</time></trkpt>
<trkpt lat="42.191966" lon="23.586523"><ele>2487.9</ele><time>2026-04-05T08:46:03.000Z</time></trkpt>
<trkpt lat="42.191965" lon="23.586516"><ele>2488.6</ele><time>2026-04-05T08:46:04.000Z</time></trkpt>
<trkpt lat="42.191963" lon="23.58651"><ele>2488.6</ele><time>2026-04-05T08:46:05.000Z</time></trkpt>
<trkpt lat="42.191963" lon="23.586503"><ele>2488.6</ele><time>2026-04-05T08:46:06.000Z</time></trkpt>
<trkpt lat="42.191962" lon="23.586496"><ele>2488.6</ele><time>2026-04-05T08:46:07.000Z</time></trkpt>
<trkpt lat="42.191962" lon="23.58649"><ele>2488.6</ele><time>2026-04-05T08:46:08.000Z</time></trkpt>
<trkpt lat="42.191961" lon="23.586484"><ele>2489.9</ele><time>2026-04-05T08:46:09.000Z</time></trkpt>
<trkpt lat="42.19196" lon="23.586479"><ele>2489.9</ele><time>2026-04-05T08:46:10.000Z</time></trkpt>
<trkpt lat="42.19196" lon="23.586473"><ele>2489.9</ele><time>2026-04-05T08:46:11.000Z</time></trkpt>
<trkpt lat="42.191959" lon="23.586467"><ele>2489.9</ele><time>2026-04-05T08:46:12.000Z</time></trkpt>
<trkpt lat="42.191958" lon="23.58646"><ele>2489.9</ele><time>2026-04-05T08:46:13.000Z</time></trkpt>
<trkpt lat="42.191957" lon="23.586451"><ele>2491.1</ele><time>2026-04-05T08:46:14.000Z</time></trkpt>
<trkpt lat="42.191955" lon="23.586442"><ele>2491.1</ele><time>2026-04-05T08:46:15.000Z</time></trkpt>
<trkpt lat="42.191954" lon="23.586434"><ele>2491.1</ele><time>2026-04-05T08:46:16.000Z</time></trkpt>
<trkpt lat="42.191953" lon="23.586426"><ele>2491.1</ele><time>2026-04-05T08:46:17.000Z</time></trkpt>
<trkpt lat="42.191953" lon="23.586418"><ele>2491.1</ele><time>2026-04-05T08:46:18.000Z</time></trkpt>
<trkpt lat="42.191954" lon="23.586413"><ele>2491.7</ele><time>2026-04-05T08:46:19.000Z</time></trkpt>
<trkpt lat="42.191954" lon="23.58641"><ele>2491.7</ele><time>2026-04-05T08:46:20.000Z</time></trkpt>
<trkpt lat="42.191955" lon="23.586407"><ele>2491.7</ele><time>2026-04-05T08:46:21.000Z</time></trkpt>
<trkpt lat="42.191956" lon="23.586404"><ele>2491.7</ele><time>2026-04-05T08:46:22.000Z</time></trkpt>
<trkpt lat="42.191956" lon="23.5864"><ele>2491.7</ele><time>2026-04-05T08:46:23.000Z</time></trkpt>
<trkpt lat="42.191957" lon="23.586396"><ele>2492.8</ele><time>2026-04-05T08:46:24.000Z</time></trkpt>
<trkpt lat="42.191959" lon="23.586388"><ele>2492.8</ele><time>2026-04-05T08:46:25.000Z</time></trkpt>
<trkpt lat="42.191961" lon="23.58638"><ele>2492.8</ele><time>2026-04-05T08:46:26.000Z</time></trkpt>
<trkpt lat="42.191962" lon="23.586371"><ele>2492.8</ele><time>2026-04-05T08:46:27.000Z</time></trkpt>
<trkpt lat="42.191964" lon="23.586364"><ele>2492.8</ele><time>2026-04-05T08:46:28.000Z</time></trkpt>
<trkpt lat="42.191966" lon="23.586357"><ele>2493.9</ele><time>2026-04-05T08:46:29.000Z</time></trkpt>
<trkpt lat="42.191967" lon="23.586354"><ele>2493.9</ele><time>2026-04-05T08:46:30.000Z</time></trkpt>
<trkpt lat="42.191967" lon="23.586352"><ele>2493.9</ele><time>2026-04-05T08:46:31.000Z</time></trkpt>
<trkpt lat="42.191968" lon="23.586351"><ele>2493.9</ele><time>2026-04-05T08:46:32.000Z</time></trkpt>
<trkpt lat="42.191969" lon="23.58635"><ele>2493.9</ele><time>2026-04-05T08:46:33.000Z</time></trkpt>
<trkpt lat="42.191971" lon="23.58635"><ele>2494.4</ele><time>2026-04-05T08:46:34.000Z</time></trkpt>
<trkpt lat="42.191973" lon="23.586348"><ele>2494.4</ele><time>2026-04-05T08:46:35.000Z</time></trkpt>
<trkpt lat="42.191975" lon="23.586346"><ele>2494.4</ele><time>2026-04-05T08:46:36.000Z</time></trkpt>
<trkpt lat="42.191976" lon="23.586344"><ele>2494.4</ele><time>2026-04-05T08:46:37.000Z</time></trkpt>
<trkpt lat="42.191976" lon="23.586344"><ele>2494.4</ele><time>2026-04-05T08:46:38.000Z</time></trkpt>
<trkpt lat="42.191974" lon="23.586343"><ele>2495.4</ele><time>2026-04-05T08:46:39.000Z</time></trkpt>
<trkpt lat="42.191973" lon="23.586344"><ele>2495.4</ele><time>2026-04-05T08:46:40.000Z</time></trkpt>
<trkpt lat="42.191971" lon="23.586345"><ele>2495.4</ele><time>2026-04-05T08:46:41.000Z</time></trkpt>
<trkpt lat="42.19197" lon="23.586346"><ele>2495.4</ele><time>2026-04-05T08:46:42.000Z</time></trkpt>
<trkpt lat="42.19197" lon="23.586346"><ele>2495.4</ele><time>2026-04-05T08:46:43.000Z</time></trkpt>
<trkpt lat="42.191969" lon="23.586347"><ele>2496.1</ele><time>2026-04-05T08:46:44.000Z</time></trkpt>
<trkpt lat="42.191969" lon="23.586347"><ele>2496.1</ele><time>2026-04-05T08:46:45.000Z</time></trkpt>
<trkpt lat="42.191969" lon="23.586347"><ele>2496.1</ele><time>2026-04-05T08:46:46.000Z</time></trkpt>
<trkpt lat="42.191968" lon="23.586348"><ele>2496.1</ele><time>2026-04-05T08:46:47.000Z</time></trkpt>
<trkpt lat="42.191968" lon="23.586348"><ele>2496.1</ele><time>2026-04-05T08:46:48.000Z</time></trkpt>
<trkpt lat="42.191967" lon="23.586348"><ele>2496.4</ele><time>2026-04-05T08:46:49.000Z</time></trkpt>
<trkpt lat="42.191967" lon="23.586348"><ele>2496.4</ele><time>2026-04-05T08:46:50.000Z</time></trkpt>
<trkpt lat="42.191966" lon="23.586348"><ele>2496.4</ele><time>2026-04-05T08:46:51.000Z</time></trkpt>
<trkpt lat="42.191966" lon="23.586348"><ele>2496.4</ele><time>2026-04-05T08:46:52.000Z</time></trkpt>
<trkpt lat="42.191965" lon="23.586348"><ele>2496.4</ele><time>2026-04-05T08:46:53.000Z</time></trkpt>
<trkpt lat="42.191965" lon="23.586348"><ele>2496.7</ele><time>2026-04-05T08:46:54.000Z</time></trkpt>
<trkpt lat="42.191965" lon="23.586348"><ele>2496.7</ele><time>2026-04-05T08:46:55.000Z</time></trkpt>
<trkpt lat="42.191966" lon="23.586348"><ele>2496.7</ele><time>2026-04-05T08:46:56.000Z</time></trkpt>
<trkpt lat="42.191966" lon="23.586348"><ele>2496.7</ele><time>2026-04-05T08:46:57.000Z</time></trkpt>
<trkpt lat="42.191966" lon="23.586348"><ele>2496.7</ele><time>2026-04-05T08:46:58.000Z</time></trkpt>
<trkpt lat="42.191967" lon="23.586348"><ele>2496.8</ele><time>2026-04-05T08:46:59.000Z</time></trkpt>
<trkpt lat="42.191967" lon="23.586348"><ele>2496.8</ele><time>2026-04-05T08:47:00.000Z</time></trkpt>
<trkpt lat="42.191967" lon="23.586348"><ele>2496.8</ele><time>2026-04-05T08:47:01.000Z</time></trkpt>
<trkpt lat="42.191967" lon="23.586348"><ele>2496.8</ele><time>2026-04-05T08:47:02.000Z</time></trkpt>
<trkpt lat="42.191967" lon="23.586348"><ele>2496.8</ele><time>2026-04-05T08:47:03.000Z</time></trkpt>
<trkpt lat="42.191967" lon="23.586348"><ele>2496.8</ele><time>2026-04-05T08:47:04.000Z</time></trkpt>
<trkpt lat="42.191967" lon="23.586348"><ele>2496.8</ele><time>2026-04-05T08:47:05.000Z</time></trkpt>
<trkpt lat="42.191967" lon="23.586348"><ele>2496.8</ele><time>2026-04-05T08:47:06.000Z</time></trkpt>
<trkpt lat="42.191966" lon="23.586347"><ele>2496.8</ele><time>2026-04-05T08:47:07.000Z</time></trkpt>
<trkpt lat="42.191964" lon="23.586346"><ele>2496.8</ele><time>2026-04-05T08:47:08.000Z</time></trkpt>
<trkpt lat="42.191963" lon="23.586343"><ele>2496.8</ele><time>2026-04-05T08:47:09.000Z</time></trkpt>
<trkpt lat="42.191962" lon="23.586337"><ele>2496.8</ele><time>2026-04-05T08:47:10.000Z</time></trkpt>
<trkpt lat="42.19196" lon="23.58633"><ele>2496.8</ele><time>2026-04-05T08:47:11.000Z</time></trkpt>
<trkpt lat="42.19196" lon="23.586322"><ele>2496.8</ele><time>2026-04-05T08:47:12.000Z</time></trkpt>
<trkpt lat="42.191959" lon="23.586315"><ele>2496.8</ele><time>2026-04-05T08:47:13.000Z</time></trkpt>
<trkpt lat="42.191957" lon="23.586308"><ele>2496.8</ele><time>2026-04-05T08:47:14.000Z</time></trkpt>
<trkpt lat="42.191954" lon="23.586301"><ele>2496.8</ele><time>2026-04-05T08:47:15.000Z</time></trkpt>
<trkpt lat="42.191951" lon="23.586293"><ele>2496.8</ele><time>2026-04-05T08:47:16.000Z</time></trkpt>
<trkpt lat="42.191947" lon="23.586287"><ele>2496.8</ele><time>2026-04-05T08:47:17.000Z</time></trkpt>
<trkpt lat="42.191944" lon="23.586282"><ele>2496.8</ele><time>2026-04-05T08:47:18.000Z</time></trkpt>
<trkpt lat="42.191941" lon="23.586274"><ele>2496.9</ele><time>2026-04-05T08:47:19.000Z</time></trkpt>
<trkpt lat="42.191938" lon="23.586267"><ele>2496.9</ele><time>2026-04-05T08:47:20.000Z</time></trkpt>
<trkpt lat="42.191936" lon="23.586262"><ele>2496.9</ele><time>2026-04-05T08:47:21.000Z</time></trkpt>
<trkpt lat="42.191933" lon="23.586255"><ele>2496.9</ele><time>2026-04-05T08:47:22.000Z</time></trkpt>
<trkpt lat="42.191931" lon="23.586246"><ele>2496.9</ele><time>2026-04-05T08:47:23.000Z</time></trkpt>
<trkpt lat="42.191927" lon="23.586238"><ele>2497.5</ele><time>2026-04-05T08:47:24.000Z</time></trkpt>
<trkpt lat="42.191924" lon="23.586229"><ele>2497.5</ele><time>2026-04-05T08:47:25.000Z</time></trkpt>
<trkpt lat="42.191922" lon="23.586218"><ele>2497.5</ele><time>2026-04-05T08:47:26.000Z</time></trkpt>
<trkpt lat="42.191919" lon="23.586207"><ele>2497.5</ele><time>2026-04-05T08:47:27.000Z</time></trkpt>
<trkpt lat="42.191918" lon="23.586198"><ele>2497.5</ele><time>2026-04-05T08:47:28.000Z</time></trkpt>
<trkpt lat="42.191917" lon="23.586188"><ele>2498.4</ele><time>2026-04-05T08:47:29.000Z</time></trkpt>
<trkpt lat="42.191917" lon="23.586179"><ele>2498.4</ele><time>2026-04-05T08:47:30.000Z</time></trkpt>
<trkpt lat="42.191916" lon="23.586172"><ele>2498.4</ele><time>2026-04-05T08:47:31.000Z</time></trkpt>
<trkpt lat="42.191914" lon="23.586163"><ele>2498.4</ele><time>2026-04-05T08:47:32.000Z</time></trkpt>
<trkpt lat="42.191912" lon="23.586154"><ele>2498.4</ele><time>2026-04-05T08:47:33.000Z</time></trkpt>
<trkpt lat="42.19191" lon="23.586144"><ele>2498.8</ele><time>2026-04-05T08:47:34.000Z</time></trkpt>
<trkpt lat="42.191908" lon="23.586133"><ele>2498.8</ele><time>2026-04-05T08:47:35.000Z</time></trkpt>
<trkpt lat="42.191906" lon="23.586123"><ele>2498.8</ele><time>2026-04-05T08:47:36.000Z</time></trkpt>
<trkpt lat="42.191904" lon="23.586114"><ele>2498.8</ele><time>2026-04-05T08:47:37.000Z</time></trkpt>
<trkpt lat="42.191903" lon="23.586105"><ele>2498.8</ele><time>2026-04-05T08:47:38.000Z</time></trkpt>
<trkpt lat="42.191901" lon="23.586097"><ele>2499.7</ele><time>2026-04-05T08:47:39.000Z</time></trkpt>
<trkpt lat="42.191899" lon="23.58609"><ele>2499.7</ele><time>2026-04-05T08:47:40.000Z</time></trkpt>
<trkpt lat="42.191897" lon="23.586081"><ele>2499.7</ele><time>2026-04-05T08:47:41.000Z</time></trkpt>
<trkpt lat="42.191895" lon="23.586074"><ele>2499.7</ele><time>2026-04-05T08:47:42.000Z</time></trkpt>
<trkpt lat="42.191893" lon="23.586067"><ele>2499.7</ele><time>2026-04-05T08:47:43.000Z</time></trkpt>
<trkpt lat="42.191892" lon="23.586061"><ele>2500.6</ele><time>2026-04-05T08:47:44.000Z</time></trkpt>
<trkpt lat="42.191889" lon="23.586054"><ele>2500.6</ele><time>2026-04-05T08:47:45.000Z</time></trkpt>
<trkpt lat="42.191888" lon="23.586049"><ele>2500.6</ele><time>2026-04-05T08:47:46.000Z</time></trkpt>
<trkpt lat="42.191886" lon="23.586042"><ele>2500.6</ele><time>2026-04-05T08:47:47.000Z</time></trkpt>
<trkpt lat="42.191883" lon="23.586034"><ele>2500.6</ele><time>2026-04-05T08:47:48.000Z</time></trkpt>
<trkpt lat="42.191882" lon="23.586027"><ele>2501.1</ele><time>2026-04-05T08:47:49.000Z</time></trkpt>
<trkpt lat="42.191881" lon="23.586019"><ele>2501.1</ele><time>2026-04-05T08:47:50.000Z</time></trkpt>
<trkpt lat="42.19188" lon="23.586012"><ele>2501.1</ele><time>2026-04-05T08:47:51.000Z</time></trkpt>
<trkpt lat="42.191879" lon="23.586005"><ele>2501.1</ele><time>2026-04-05T08:47:52.000Z</time></trkpt>
<trkpt lat="42.191878" lon="23.585999"><ele>2501.1</ele><time>2026-04-05T08:47:53.000Z</time></trkpt>
<trkpt lat="42.191877" lon="23.585994"><ele>2502.1</ele><time>2026-04-05T08:47:54.000Z</time></trkpt>
<trkpt lat="42.191877" lon="23.58599"><ele>2502.1</ele><time>2026-04-05T08:47:55.000Z</time></trkpt>
<trkpt lat="42.191876" lon="23.585987"><ele>2502.1</ele><time>2026-04-05T08:47:56.000Z</time></trkpt>
<trkpt lat="42.191874" lon="23.585984"><ele>2502.1</ele><time>2026-04-05T08:47:57.000Z</time></trkpt>
<trkpt lat="42.191874" lon="23.58598"><ele>2502.1</ele><time>2026-04-05T08:47:58.000Z</time></trkpt>
<trkpt lat="42.191873" lon="23.585976"><ele>2503.2</ele><time>2026-04-05T08:47:59.000Z</time></trkpt>
<trkpt lat="42.191872" lon="23.585972"><ele>2503.2</ele><time>2026-04-05T08:48:00.000Z</time></trkpt>
<trkpt lat="42.191871" lon="23.585968"><ele>2503.2</ele><time>2026-04-05T08:48:01.000Z</time></trkpt>
<trkpt lat="42.191871" lon="23.585965"><ele>2503.2</ele><time>2026-04-05T08:48:02.000Z</time></trkpt>
<trkpt lat="42.19187" lon="23.585964"><ele>2503.2</ele><time>2026-04-05T08:48:03.000Z</time></trkpt>
<trkpt lat="42.19187" lon="23.585964"><ele>2503.8</ele><time>2026-04-05T08:48:04.000Z</time></trkpt>
<trkpt lat="42.191869" lon="23.585964"><ele>2503.8</ele><time>2026-04-05T08:48:05.000Z</time></trkpt>
<trkpt lat="42.191869" lon="23.585965"><ele>2503.8</ele><time>2026-04-05T08:48:06.000Z</time></trkpt>
<trkpt lat="42.191868" lon="23.585965"><ele>2503.8</ele><time>2026-04-05T08:48:07.000Z</time></trkpt>
<trkpt lat="42.191868" lon="23.585963"><ele>2503.8</ele><time>2026-04-05T08:48:08.000Z</time></trkpt>
<trkpt lat="42.191867" lon="23.58596"><ele>2505</ele><time>2026-04-05T08:48:09.000Z</time></trkpt>
<trkpt lat="42.191867" lon="23.585956"><ele>2505</ele><time>2026-04-05T08:48:10.000Z</time></trkpt>
<trkpt lat="42.191865" lon="23.585952"><ele>2505</ele><time>2026-04-05T08:48:11.000Z</time></trkpt>
<trkpt lat="42.191863" lon="23.585946"><ele>2505</ele><time>2026-04-05T08:48:12.000Z</time></trkpt>
<trkpt lat="42.19186" lon="23.585941"><ele>2505</ele><time>2026-04-05T08:48:13.000Z</time></trkpt>
<trkpt lat="42.191858" lon="23.585936"><ele>2506</ele><time>2026-04-05T08:48:14.000Z</time></trkpt>
<trkpt lat="42.191856" lon="23.585931"><ele>2506</ele><time>2026-04-05T08:48:15.000Z</time></trkpt>
<trkpt lat="42.191855" lon="23.585923"><ele>2506</ele><time>2026-04-05T08:48:16.000Z</time></trkpt>
<trkpt lat="42.191854" lon="23.585916"><ele>2506</ele><time>2026-04-05T08:48:17.000Z</time></trkpt>
<trkpt lat="42.191854" lon="23.58591"><ele>2506</ele><time>2026-04-05T08:48:18.000Z</time></trkpt>
<trkpt lat="42.191853" lon="23.585903"><ele>2506.4</ele><time>2026-04-05T08:48:19.000Z</time></trkpt>
<trkpt lat="42.191853" lon="23.585899"><ele>2506.4</ele><time>2026-04-05T08:48:20.000Z</time></trkpt>
<trkpt lat="42.191853" lon="23.585897"><ele>2506.4</ele><time>2026-04-05T08:48:21.000Z</time></trkpt>
<trkpt lat="42.191853" lon="23.585896"><ele>2506.4</ele><time>2026-04-05T08:48:22.000Z</time></trkpt>
<trkpt lat="42.191853" lon="23.585896"><ele>2506.4</ele><time>2026-04-05T08:48:23.000Z</time></trkpt>
<trkpt lat="42.191853" lon="23.585896"><ele>2507.1</ele><time>2026-04-05T08:48:24.000Z</time></trkpt>
<trkpt lat="42.191854" lon="23.585896"><ele>2507.1</ele><time>2026-04-05T08:48:25.000Z</time></trkpt>
<trkpt lat="42.191855" lon="23.585896"><ele>2507.1</ele><time>2026-04-05T08:48:26.000Z</time></trkpt>
<trkpt lat="42.191855" lon="23.585895"><ele>2507.1</ele><time>2026-04-05T08:48:27.000Z</time></trkpt>
<trkpt lat="42.191855" lon="23.585894"><ele>2507.1</ele><time>2026-04-05T08:48:28.000Z</time></trkpt>
<trkpt lat="42.191855" lon="23.585893"><ele>2508.1</ele><time>2026-04-05T08:48:29.000Z</time></trkpt>
<trkpt lat="42.191854" lon="23.585892"><ele>2508.1</ele><time>2026-04-05T08:48:30.000Z</time></trkpt>
<trkpt lat="42.191854" lon="23.58589"><ele>2508.1</ele><time>2026-04-05T08:48:31.000Z</time></trkpt>
<trkpt lat="42.191854" lon="23.585888"><ele>2508.1</ele><time>2026-04-05T08:48:32.000Z</time></trkpt>
<trkpt lat="42.191855" lon="23.585887"><ele>2508.1</ele><time>2026-04-05T08:48:33.000Z</time></trkpt>
<trkpt lat="42.191855" lon="23.585886"><ele>2508.6</ele><time>2026-04-05T08:48:34.000Z</time></trkpt>
<trkpt lat="42.191854" lon="23.585882"><ele>2508.6</ele><time>2026-04-05T08:48:35.000Z</time></trkpt>
<trkpt lat="42.191853" lon="23.58588"><ele>2508.6</ele><time>2026-04-05T08:48:36.000Z</time></trkpt>
<trkpt lat="42.191852" lon="23.585877"><ele>2508.6</ele><time>2026-04-05T08:48:37.000Z</time></trkpt>
<trkpt lat="42.19185" lon="23.585871"><ele>2508.6</ele><time>2026-04-05T08:48:38.000Z</time></trkpt>
<trkpt lat="42.191848" lon="23.585867"><ele>2509.4</ele><time>2026-04-05T08:48:39.000Z</time></trkpt>
<trkpt lat="42.191847" lon="23.585862"><ele>2509.4</ele><time>2026-04-05T08:48:40.000Z</time></trkpt>
<trkpt lat="42.191845" lon="23.585857"><ele>2509.4</ele><time>2026-04-05T08:48:41.000Z</time></trkpt>
<trkpt lat="42.191842" lon="23.585852"><ele>2509.4</ele><time>2026-04-05T08:48:42.000Z</time></trkpt>
<trkpt lat="42.19184" lon="23.585847"><ele>2509.4</ele><time>2026-04-05T08:48:43.000Z</time></trkpt>
<trkpt lat="42.191838" lon="23.585842"><ele>2510</ele><time>2026-04-05T08:48:44.000Z</time></trkpt>
<trkpt lat="42.191836" lon="23.585838"><ele>2510</ele><time>2026-04-05T08:48:45.000Z</time></trkpt>
<trkpt lat="42.191835" lon="23.585835"><ele>2510</ele><time>2026-04-05T08:48:46.000Z</time></trkpt>
<trkpt lat="42.191833" lon="23.585831"><ele>2510</ele><time>2026-04-05T08:48:47.000Z</time></trkpt>
<trkpt lat="42.191832" lon="23.585828"><ele>2510</ele><time>2026-04-05T08:48:48.000Z</time></trkpt>
<trkpt lat="42.19183" lon="23.585826"><ele>2510.4</ele><time>2026-04-05T08:48:49.000Z</time></trkpt>
<trkpt lat="42.191829" lon="23.585823"><ele>2510.4</ele><time>2026-04-05T08:48:50.000Z</time></trkpt>
<trkpt lat="42.191828" lon="23.58582"><ele>2510.4</ele><time>2026-04-05T08:48:51.000Z</time></trkpt>
<trkpt lat="42.191828" lon="23.585819"><ele>2510.4</ele><time>2026-04-05T08:48:52.000Z</time></trkpt>
<trkpt lat="42.191828" lon="23.585818"><ele>2510.4</ele><time>2026-04-05T08:48:53.000Z</time></trkpt>
<trkpt lat="42.191828" lon="23.585817"><ele>2511.4</ele><time>2026-04-05T08:48:54.000Z</time></trkpt>
<trkpt lat="42.191828" lon="23.585816"><ele>2511.4</ele><time>2026-04-05T08:48:55.000Z</time></trkpt>
<trkpt lat="42.191829" lon="23.585816"><ele>2511.4</ele><time>2026-04-05T08:48:56.000Z</time></trkpt>
<trkpt lat="42.191829" lon="23.585816"><ele>2511.4</ele><time>2026-04-05T08:48:57.000Z</time></trkpt>
<trkpt lat="42.191829" lon="23.585817"><ele>2511.4</ele><time>2026-04-05T08:48:58.000Z</time></trkpt>
<trkpt lat="42.191829" lon="23.585817"><ele>2512.7</ele><time>2026-04-05T08:48:59.000Z</time></trkpt>
<trkpt lat="42.191829" lon="23.585818"><ele>2512.7</ele><time>2026-04-05T08:49:00.000Z</time></trkpt>
<trkpt lat="42.191829" lon="23.585818"><ele>2512.7</ele><time>2026-04-05T08:49:01.000Z</time></trkpt>
<trkpt lat="42.191828" lon="23.585818"><ele>2512.7</ele><time>2026-04-05T08:49:02.000Z</time></trkpt>
<trkpt lat="42.191826" lon="23.585817"><ele>2512.7</ele><time>2026-04-05T08:49:03.000Z</time></trkpt>
<trkpt lat="42.191824" lon="23.585816"><ele>2513.2</ele><time>2026-04-05T08:49:04.000Z</time></trkpt>
<trkpt lat="42.191822" lon="23.585814"><ele>2513.2</ele><time>2026-04-05T08:49:05.000Z</time></trkpt>
<trkpt lat="42.19182" lon="23.585811"><ele>2513.2</ele><time>2026-04-05T08:49:06.000Z</time></trkpt>
<trkpt lat="42.191818" lon="23.585808"><ele>2513.2</ele><time>2026-04-05T08:49:07.000Z</time></trkpt>
<trkpt lat="42.191817" lon="23.585804"><ele>2513.2</ele><time>2026-04-05T08:49:08.000Z</time></trkpt>
<trkpt lat="42.191816" lon="23.585801"><ele>2513.7</ele><time>2026-04-05T08:49:09.000Z</time></trkpt>
<trkpt lat="42.191815" lon="23.585797"><ele>2513.7</ele><time>2026-04-05T08:49:10.000Z</time></trkpt>
<trkpt lat="42.191813" lon="23.585795"><ele>2513.7</ele><time>2026-04-05T08:49:11.000Z</time></trkpt>
<trkpt lat="42.19181" lon="23.585792"><ele>2513.7</ele><time>2026-04-05T08:49:12.000Z</time></trkpt>
<trkpt lat="42.191807" lon="23.585791"><ele>2513.7</ele><time>2026-04-05T08:49:13.000Z</time></trkpt>
<trkpt lat="42.191805" lon="23.585789"><ele>2514.1</ele><time>2026-04-05T08:49:14.000Z</time></trkpt>
<trkpt lat="42.191803" lon="23.585786"><ele>2514.1</ele><time>2026-04-05T08:49:15.000Z</time></trkpt>
<trkpt lat="42.1918" lon="23.585784"><ele>2514.1</ele><time>2026-04-05T08:49:16.000Z</time></trkpt>
<trkpt lat="42.191799" lon="23.585782"><ele>2514.1</ele><time>2026-04-05T08:49:17.000Z</time></trkpt>
<trkpt lat="42.191797" lon="23.585781"><ele>2514.1</ele><time>2026-04-05T08:49:18.000Z</time></trkpt>
<trkpt lat="42.191796" lon="23.58578"><ele>2514.4</ele><time>2026-04-05T08:49:19.000Z</time></trkpt>
<trkpt lat="42.191795" lon="23.585779"><ele>2514.4</ele><time>2026-04-05T08:49:20.000Z</time></trkpt>
<trkpt lat="42.191795" lon="23.585779"><ele>2514.4</ele><time>2026-04-05T08:49:21.000Z</time></trkpt>
<trkpt lat="42.191794" lon="23.585779"><ele>2514.4</ele><time>2026-04-05T08:49:22.000Z</time></trkpt>
<trkpt lat="42.191794" lon="23.585779"><ele>2514.4</ele><time>2026-04-05T08:49:23.000Z</time></trkpt>
<trkpt lat="42.191794" lon="23.58578"><ele>2515.3</ele><time>2026-04-05T08:49:24.000Z</time></trkpt>
<trkpt lat="42.191794" lon="23.585781"><ele>2515.3</ele><time>2026-04-05T08:49:25.000Z</time></trkpt>
<trkpt lat="42.191795" lon="23.585781"><ele>2515.3</ele><time>2026-04-05T08:49:26.000Z</time></trkpt>
<trkpt lat="42.191795" lon="23.585782"><ele>2515.3</ele><time>2026-04-05T08:49:27.000Z</time></trkpt>
<trkpt lat="42.191795" lon="23.585783"><ele>2515.3</ele><time>2026-04-05T08:49:28.000Z</time></trkpt>
<trkpt lat="42.191795" lon="23.585784"><ele>2516.3</ele><time>2026-04-05T08:49:29.000Z</time></trkpt>
<trkpt lat="42.191795" lon="23.585784"><ele>2516.3</ele><time>2026-04-05T08:49:30.000Z</time></trkpt>
<trkpt lat="42.191794" lon="23.585784"><ele>2516.3</ele><time>2026-04-05T08:49:31.000Z</time></trkpt>
<trkpt lat="42.191793" lon="23.585785"><ele>2516.3</ele><time>2026-04-05T08:49:32.000Z</time></trkpt>
<trkpt lat="42.191792" lon="23.585784"><ele>2516.3</ele><time>2026-04-05T08:49:33.000Z</time></trkpt>
<trkpt lat="42.19179" lon="23.585781"><ele>2516.6</ele><time>2026-04-05T08:49:34.000Z</time></trkpt>
<trkpt lat="42.191788" lon="23.585778"><ele>2516.6</ele><time>2026-04-05T08:49:35.000Z</time></trkpt>
<trkpt lat="42.191785" lon="23.585774"><ele>2516.6</ele><time>2026-04-05T08:49:36.000Z</time></trkpt>
<trkpt lat="42.191781" lon="23.58577"><ele>2516.6</ele><time>2026-04-05T08:49:37.000Z</time></trkpt>
<trkpt lat="42.191777" lon="23.585765"><ele>2516.6</ele><time>2026-04-05T08:49:38.000Z</time></trkpt>
<trkpt lat="42.191772" lon="23.585761"><ele>2516.9</ele><time>2026-04-05T08:49:39.000Z</time></trkpt>
<trkpt lat="42.191767" lon="23.585756"><ele>2516.9</ele><time>2026-04-05T08:49:40.000Z</time></trkpt>
<trkpt lat="42.191763" lon="23.585751"><ele>2516.9</ele><time>2026-04-05T08:49:41.000Z</time></trkpt>
<trkpt lat="42.191758" lon="23.585745"><ele>2516.9</ele><time>2026-04-05T08:49:42.000Z</time></trkpt>
<trkpt lat="42.191753" lon="23.58574"><ele>2516.9</ele><time>2026-04-05T08:49:43.000Z</time></trkpt>
<trkpt lat="42.191748" lon="23.585735"><ele>2517</ele><time>2026-04-05T08:49:44.000Z</time></trkpt>
<trkpt lat="42.191742" lon="23.58573"><ele>2517</ele><time>2026-04-05T08:49:45.000Z</time></trkpt>
<trkpt lat="42.191736" lon="23.585725"><ele>2517</ele><time>2026-04-05T08:49:46.000Z</time></trkpt>
<trkpt lat="42.19173" lon="23.585721"><ele>2517</ele><time>2026-04-05T08:49:47.000Z</time></trkpt>
<trkpt lat="42.191724" lon="23.585714"><ele>2517</ele><time>2026-04-05T08:49:48.000Z</time></trkpt>
<trkpt lat="42.191718" lon="23.585708"><ele>2517.3</ele><time>2026-04-05T08:49:49.000Z</time></trkpt>
<trkpt lat="42.191715" lon="23.585703"><ele>2517.3</ele><time>2026-04-05T08:49:50.000Z</time></trkpt>
<trkpt lat="42.191712" lon="23.5857"><ele>2517.3</ele><time>2026-04-05T08:49:51.000Z</time></trkpt>
<trkpt lat="42.191711" lon="23.585698"><ele>2517.3</ele><time>2026-04-05T08:49:52.000Z</time></trkpt>
<trkpt lat="42.19171" lon="23.585697"><ele>2517.3</ele><time>2026-04-05T08:49:53.000Z</time></trkpt>
<trkpt lat="42.191709" lon="23.585696"><ele>2518.3</ele><time>2026-04-05T08:49:54.000Z</time></trkpt>
<trkpt lat="42.191708" lon="23.585693"><ele>2518.3</ele><time>2026-04-05T08:49:55.000Z</time></trkpt>
<trkpt lat="42.191705" lon="23.585689"><ele>2518.3</ele><time>2026-04-05T08:49:56.000Z</time></trkpt>
<trkpt lat="42.191702" lon="23.585682"><ele>2518.3</ele><time>2026-04-05T08:49:57.000Z</time></trkpt>
<trkpt lat="42.191699" lon="23.585675"><ele>2518.3</ele><time>2026-04-05T08:49:58.000Z</time></trkpt>
<trkpt lat="42.191694" lon="23.58567"><ele>2519.3</ele><time>2026-04-05T08:49:59.000Z</time></trkpt>
<trkpt lat="42.191688" lon="23.585664"><ele>2519.3</ele><time>2026-04-05T08:50:00.000Z</time></trkpt>
<trkpt lat="42.191683" lon="23.585659"><ele>2519.3</ele><time>2026-04-05T08:50:01.000Z</time></trkpt>
<trkpt lat="42.191678" lon="23.585656"><ele>2519.3</ele><time>2026-04-05T08:50:02.000Z</time></trkpt>
<trkpt lat="42.191673" lon="23.585651"><ele>2519.3</ele><time>2026-04-05T08:50:03.000Z</time></trkpt>
<trkpt lat="42.191669" lon="23.585646"><ele>2519.6</ele><time>2026-04-05T08:50:04.000Z</time></trkpt>
<trkpt lat="42.191668" lon="23.585643"><ele>2519.6</ele><time>2026-04-05T08:50:05.000Z</time></trkpt>
<trkpt lat="42.191666" lon="23.585637"><ele>2519.6</ele><time>2026-04-05T08:50:06.000Z</time></trkpt>
<trkpt lat="42.191664" lon="23.585632"><ele>2519.6</ele><time>2026-04-05T08:50:07.000Z</time></trkpt>
<trkpt lat="42.191662" lon="23.585626"><ele>2519.6</ele><time>2026-04-05T08:50:08.000Z</time></trkpt>
<trkpt lat="42.191659" lon="23.585619"><ele>2520.4</ele><time>2026-04-05T08:50:09.000Z</time></trkpt>
<trkpt lat="42.191657" lon="23.585612"><ele>2520.4</ele><time>2026-04-05T08:50:10.000Z</time></trkpt>
<trkpt lat="42.191655" lon="23.585606"><ele>2520.4</ele><time>2026-04-05T08:50:11.000Z</time></trkpt>
<trkpt lat="42.191654" lon="23.585601"><ele>2520.4</ele><time>2026-04-05T08:50:12.000Z</time></trkpt>
<trkpt lat="42.191654" lon="23.585597"><ele>2520.4</ele><time>2026-04-05T08:50:13.000Z</time></trkpt>
<trkpt lat="42.191654" lon="23.585595"><ele>2521.3</ele><time>2026-04-05T08:50:14.000Z</time></trkpt>
<trkpt lat="42.191653" lon="23.585593"><ele>2521.3</ele><time>2026-04-05T08:50:15.000Z</time></trkpt>
<trkpt lat="42.191652" lon="23.585592"><ele>2521.3</ele><time>2026-04-05T08:50:16.000Z</time></trkpt>
<trkpt lat="42.191651" lon="23.585591"><ele>2521.3</ele><time>2026-04-05T08:50:17.000Z</time></trkpt>
<trkpt lat="42.19165" lon="23.585589"><ele>2521.3</ele><time>2026-04-05T08:50:18.000Z</time></trkpt>
<trkpt lat="42.191649" lon="23.585585"><ele>2521.9</ele><time>2026-04-05T08:50:19.000Z</time></trkpt>
<trkpt lat="42.191649" lon="23.585581"><ele>2521.9</ele><time>2026-04-05T08:50:20.000Z</time></trkpt>
<trkpt lat="42.191648" lon="23.585577"><ele>2521.9</ele><time>2026-04-05T08:50:21.000Z</time></trkpt>
<trkpt lat="42.191646" lon="23.58557"><ele>2521.9</ele><time>2026-04-05T08:50:22.000Z</time></trkpt>
<trkpt lat="42.191643" lon="23.585562"><ele>2521.9</ele><time>2026-04-05T08:50:23.000Z</time></trkpt>
<trkpt lat="42.19164" lon="23.585555"><ele>2523.2</ele><time>2026-04-05T08:50:24.000Z</time></trkpt>
<trkpt lat="42.191637" lon="23.585547"><ele>2523.2</ele><time>2026-04-05T08:50:25.000Z</time></trkpt>
<trkpt lat="42.191635" lon="23.585541"><ele>2523.2</ele><time>2026-04-05T08:50:26.000Z</time></trkpt>
<trkpt lat="42.191634" lon="23.585536"><ele>2523.2</ele><time>2026-04-05T08:50:27.000Z</time></trkpt>
<trkpt lat="42.191634" lon="23.585534"><ele>2523.2</ele><time>2026-04-05T08:50:28.000Z</time></trkpt>
<trkpt lat="42.191634" lon="23.585531"><ele>2524.3</ele><time>2026-04-05T08:50:29.000Z</time></trkpt>
<trkpt lat="42.191634" lon="23.585531"><ele>2524.3</ele><time>2026-04-05T08:50:30.000Z</time></trkpt>
<trkpt lat="42.191634" lon="23.585529"><ele>2524.3</ele><time>2026-04-05T08:50:31.000Z</time></trkpt>
<trkpt lat="42.191633" lon="23.585528"><ele>2524.3</ele><time>2026-04-05T08:50:32.000Z</time></trkpt>
<trkpt lat="42.191631" lon="23.585527"><ele>2524.3</ele><time>2026-04-05T08:50:33.000Z</time></trkpt>
<trkpt lat="42.191628" lon="23.585526"><ele>2524.9</ele><time>2026-04-05T08:50:34.000Z</time></trkpt>
<trkpt lat="42.191625" lon="23.585522"><ele>2524.9</ele><time>2026-04-05T08:50:35.000Z</time></trkpt>
<trkpt lat="42.191621" lon="23.585519"><ele>2524.9</ele><time>2026-04-05T08:50:36.000Z</time></trkpt>
<trkpt lat="42.191617" lon="23.585515"><ele>2524.9</ele><time>2026-04-05T08:50:37.000Z</time></trkpt>
<trkpt lat="42.191613" lon="23.585512"><ele>2524.9</ele><time>2026-04-05T08:50:38.000Z</time></trkpt>
<trkpt lat="42.191609" lon="23.585509"><ele>2525.9</ele><time>2026-04-05T08:50:39.000Z</time></trkpt>
<trkpt lat="42.191606" lon="23.585507"><ele>2525.9</ele><time>2026-04-05T08:50:40.000Z</time></trkpt>
<trkpt lat="42.191604" lon="23.585504"><ele>2525.9</ele><time>2026-04-05T08:50:41.000Z</time></trkpt>
<trkpt lat="42.191602" lon="23.585503"><ele>2525.9</ele><time>2026-04-05T08:50:42.000Z</time></trkpt>
<trkpt lat="42.1916" lon="23.5855"><ele>2525.9</ele><time>2026-04-05T08:50:43.000Z</time></trkpt>
<trkpt lat="42.191598" lon="23.585498"><ele>2526.7</ele><time>2026-04-05T08:50:44.000Z</time></trkpt>
<trkpt lat="42.191596" lon="23.585495"><ele>2526.7</ele><time>2026-04-05T08:50:45.000Z</time></trkpt>
<trkpt lat="42.191593" lon="23.585491"><ele>2526.7</ele><time>2026-04-05T08:50:46.000Z</time></trkpt>
<trkpt lat="42.191589" lon="23.585486"><ele>2526.7</ele><time>2026-04-05T08:50:47.000Z</time></trkpt>
<trkpt lat="42.191587" lon="23.585481"><ele>2526.7</ele><time>2026-04-05T08:50:48.000Z</time></trkpt>
<trkpt lat="42.191583" lon="23.585475"><ele>2527.1</ele><time>2026-04-05T08:50:49.000Z</time></trkpt>
<trkpt lat="42.19158" lon="23.58547"><ele>2527.1</ele><time>2026-04-05T08:50:50.000Z</time></trkpt>
<trkpt lat="42.191578" lon="23.585465"><ele>2527.1</ele><time>2026-04-05T08:50:51.000Z</time></trkpt>
<trkpt lat="42.191576" lon="23.58546"><ele>2527.1</ele><time>2026-04-05T08:50:52.000Z</time></trkpt>
<trkpt lat="42.191573" lon="23.585455"><ele>2527.1</ele><time>2026-04-05T08:50:53.000Z</time></trkpt>
<trkpt lat="42.191571" lon="23.58545"><ele>2527.8</ele><time>2026-04-05T08:50:54.000Z</time></trkpt>
<trkpt lat="42.191568" lon="23.585445"><ele>2527.8</ele><time>2026-04-05T08:50:55.000Z</time></trkpt>
<trkpt lat="42.191565" lon="23.585439"><ele>2527.8</ele><time>2026-04-05T08:50:56.000Z</time></trkpt>
<trkpt lat="42.191562" lon="23.585434"><ele>2527.8</ele><time>2026-04-05T08:50:57.000Z</time></trkpt>
<trkpt lat="42.191559" lon="23.585428"><ele>2527.8</ele><time>2026-04-05T08:50:58.000Z</time></trkpt>
<trkpt lat="42.191557" lon="23.585423"><ele>2528.8</ele><time>2026-04-05T08:50:59.000Z</time></trkpt>
<trkpt lat="42.191556" lon="23.58542"><ele>2528.8</ele><time>2026-04-05T08:51:00.000Z</time></trkpt>
<trkpt lat="42.191556" lon="23.585418"><ele>2528.8</ele><time>2026-04-05T08:51:01.000Z</time></trkpt>
<trkpt lat="42.191557" lon="23.585417"><ele>2528.8</ele><time>2026-04-05T08:51:02.000Z</time></trkpt>
<trkpt lat="42.191559" lon="23.585418"><ele>2528.8</ele><time>2026-04-05T08:51:03.000Z</time></trkpt>
<trkpt lat="42.19156" lon="23.585419"><ele>2529.5</ele><time>2026-04-05T08:51:04.000Z</time></trkpt>
<trkpt lat="42.19156" lon="23.585419"><ele>2529.5</ele><time>2026-04-05T08:51:05.000Z</time></trkpt>
<trkpt lat="42.19156" lon="23.58542"><ele>2529.5</ele><time>2026-04-05T08:51:06.000Z</time></trkpt>
<trkpt lat="42.191558" lon="23.585421"><ele>2529.5</ele><time>2026-04-05T08:51:07.000Z</time></trkpt>
<trkpt lat="42.191554" lon="23.58542"><ele>2529.5</ele><time>2026-04-05T08:51:08.000Z</time></trkpt>
<trkpt lat="42.19155" lon="23.58542"><ele>2530.8</ele><time>2026-04-05T08:51:09.000Z</time></trkpt>
<trkpt lat="42.191546" lon="23.585418"><ele>2530.8</ele><time>2026-04-05T08:51:10.000Z</time></trkpt>
<trkpt lat="42.191542" lon="23.585414"><ele>2530.8</ele><time>2026-04-05T08:51:11.000Z</time></trkpt>
<trkpt lat="42.191538" lon="23.58541"><ele>2530.8</ele><time>2026-04-05T08:51:12.000Z</time></trkpt>
<trkpt lat="42.191536" lon="23.585406"><ele>2530.8</ele><time>2026-04-05T08:51:13.000Z</time></trkpt>
<trkpt lat="42.191533" lon="23.585401"><ele>2531.5</ele><time>2026-04-05T08:51:14.000Z</time></trkpt>
<trkpt lat="42.191531" lon="23.585395"><ele>2531.5</ele><time>2026-04-05T08:51:15.000Z</time></trkpt>
<trkpt lat="42.19153" lon="23.585391"><ele>2531.5</ele><time>2026-04-05T08:51:16.000Z</time></trkpt>
<trkpt lat="42.191529" lon="23.585384"><ele>2531.5</ele><time>2026-04-05T08:51:17.000Z</time></trkpt>
<trkpt lat="42.191527" lon="23.585378"><ele>2531.5</ele><time>2026-04-05T08:51:18.000Z</time></trkpt>
<trkpt lat="42.191525" lon="23.585373"><ele>2531.7</ele><time>2026-04-05T08:51:19.000Z</time></trkpt>
<trkpt lat="42.191524" lon="23.585367"><ele>2531.7</ele><time>2026-04-05T08:51:20.000Z</time></trkpt>
<trkpt lat="42.191521" lon="23.585362"><ele>2531.7</ele><time>2026-04-05T08:51:21.000Z</time></trkpt>
<trkpt lat="42.191519" lon="23.585356"><ele>2531.7</ele><time>2026-04-05T08:51:22.000Z</time></trkpt>
<trkpt lat="42.191517" lon="23.585349"><ele>2531.7</ele><time>2026-04-05T08:51:23.000Z</time></trkpt>
<trkpt lat="42.191515" lon="23.585344"><ele>2532.2</ele><time>2026-04-05T08:51:24.000Z</time></trkpt>
<trkpt lat="42.191513" lon="23.585339"><ele>2532.2</ele><time>2026-04-05T08:51:25.000Z</time></trkpt>
<trkpt lat="42.191513" lon="23.585332"><ele>2532.2</ele><time>2026-04-05T08:51:26.000Z</time></trkpt>
<trkpt lat="42.191511" lon="23.585327"><ele>2532.2</ele><time>2026-04-05T08:51:27.000Z</time></trkpt>
<trkpt lat="42.19151" lon="23.585324"><ele>2532.2</ele><time>2026-04-05T08:51:28.000Z</time></trkpt>
<trkpt lat="42.191509" lon="23.585319"><ele>2533.2</ele><time>2026-04-05T08:51:29.000Z</time></trkpt>
<trkpt lat="42.191507" lon="23.585314"><ele>2533.2</ele><time>2026-04-05T08:51:30.000Z</time></trkpt>
<trkpt lat="42.191504" lon="23.585309"><ele>2533.2</ele><time>2026-04-05T08:51:31.000Z</time></trkpt>
<trkpt lat="42.191502" lon="23.585304"><ele>2533.2</ele><time>2026-04-05T08:51:32.000Z</time></trkpt>
<trkpt lat="42.191499" lon="23.585298"><ele>2533.2</ele><time>2026-04-05T08:51:33.000Z</time></trkpt>
<trkpt lat="42.191496" lon="23.585292"><ele>2533.9</ele><time>2026-04-05T08:51:34.000Z</time></trkpt>
<trkpt lat="42.191493" lon="23.585286"><ele>2533.9</ele><time>2026-04-05T08:51:35.000Z</time></trkpt>
<trkpt lat="42.19149" lon="23.585281"><ele>2533.9</ele><time>2026-04-05T08:51:36.000Z</time></trkpt>
<trkpt lat="42.191487" lon="23.585277"><ele>2533.9</ele><time>2026-04-05T08:51:37.000Z</time></trkpt>
<trkpt lat="42.191485" lon="23.585273"><ele>2533.9</ele><time>2026-04-05T08:51:38.000Z</time></trkpt>
<trkpt lat="42.191482" lon="23.585269"><ele>2535.2</ele><time>2026-04-05T08:51:39.000Z</time></trkpt>
<trkpt lat="42.191479" lon="23.585266"><ele>2535.2</ele><time>2026-04-05T08:51:40.000Z</time></trkpt>
<trkpt lat="42.191477" lon="23.585263"><ele>2535.2</ele><time>2026-04-05T08:51:41.000Z</time></trkpt>
<trkpt lat="42.191476" lon="23.58526"><ele>2535.2</ele><time>2026-04-05T08:51:42.000Z</time></trkpt>
<trkpt lat="42.191475" lon="23.585257"><ele>2535.2</ele><time>2026-04-05T08:51:43.000Z</time></trkpt>
<trkpt lat="42.191475" lon="23.585256"><ele>2536.4</ele><time>2026-04-05T08:51:44.000Z</time></trkpt>
<trkpt lat="42.191475" lon="23.585255"><ele>2536.4</ele><time>2026-04-05T08:51:45.000Z</time></trkpt>
<trkpt lat="42.191476" lon="23.585255"><ele>2536.4</ele><time>2026-04-05T08:51:46.000Z</time></trkpt>
<trkpt lat="42.191476" lon="23.585255"><ele>2536.4</ele><time>2026-04-05T08:51:47.000Z</time></trkpt>
<trkpt lat="42.191476" lon="23.585255"><ele>2536.4</ele><time>2026-04-05T08:51:48.000Z</time></trkpt>
<trkpt lat="42.191476" lon="23.585255"><ele>2537</ele><time>2026-04-05T08:51:49.000Z</time></trkpt>
<trkpt lat="42.191476" lon="23.585255"><ele>2537</ele><time>2026-04-05T08:51:50.000Z</time></trkpt>
<trkpt lat="42.191476" lon="23.585255"><ele>2537</ele><time>2026-04-05T08:51:51.000Z</time></trkpt>
<trkpt lat="42.191475" lon="23.585255"><ele>2537</ele><time>2026-04-05T08:51:52.000Z</time></trkpt>
<trkpt lat="42.191475" lon="23.585254"><ele>2537</ele><time>2026-04-05T08:51:53.000Z</time></trkpt>
<trkpt lat="42.191474" lon="23.585254"><ele>2537.9</ele><time>2026-04-05T08:51:54.000Z</time></trkpt>
<trkpt lat="42.191475" lon="23.585253"><ele>2537.9</ele><time>2026-04-05T08:51:55.000Z</time></trkpt>
<trkpt lat="42.191475" lon="23.585254"><ele>2537.9</ele><time>2026-04-05T08:51:56.000Z</time></trkpt>
<trkpt lat="42.191474" lon="23.585255"><ele>2537.9</ele><time>2026-04-05T08:51:57.000Z</time></trkpt>
<trkpt lat="42.191473" lon="23.585256"><ele>2537.9</ele><time>2026-04-05T08:51:58.000Z</time></trkpt>
<trkpt lat="42.191472" lon="23.585256"><ele>2538.4</ele><time>2026-04-05T08:51:59.000Z</time></trkpt>
<trkpt lat="42.19147" lon="23.585255"><ele>2538.4</ele><time>2026-04-05T08:52:00.000Z</time></trkpt>
<trkpt lat="42.191468" lon="23.585252"><ele>2538.4</ele><time>2026-04-05T08:52:01.000Z</time></trkpt>
<trkpt lat="42.191465" lon="23.585248"><ele>2538.4</ele><time>2026-04-05T08:52:02.000Z</time></trkpt>
<trkpt lat="42.191463" lon="23.585243"><ele>2538.4</ele><time>2026-04-05T08:52:03.000Z</time></trkpt>
<trkpt lat="42.19146" lon="23.585238"><ele>2538.6</ele><time>2026-04-05T08:52:04.000Z</time></trkpt>
<trkpt lat="42.191457" lon="23.585234"><ele>2538.6</ele><time>2026-04-05T08:52:05.000Z</time></trkpt>
<trkpt lat="42.191454" lon="23.585229"><ele>2538.6</ele><time>2026-04-05T08:52:06.000Z</time></trkpt>
<trkpt lat="42.191452" lon="23.585227"><ele>2538.6</ele><time>2026-04-05T08:52:07.000Z</time></trkpt>
<trkpt lat="42.191448" lon="23.585223"><ele>2538.6</ele><time>2026-04-05T08:52:08.000Z</time></trkpt>
<trkpt lat="42.191444" lon="23.58522"><ele>2538.8</ele><time>2026-04-05T08:52:09.000Z</time></trkpt>
<trkpt lat="42.19144" lon="23.585218"><ele>2538.8</ele><time>2026-04-05T08:52:10.000Z</time></trkpt>
<trkpt lat="42.191435" lon="23.585214"><ele>2538.8</ele><time>2026-04-05T08:52:11.000Z</time></trkpt>
<trkpt lat="42.191431" lon="23.585211"><ele>2538.8</ele><time>2026-04-05T08:52:12.000Z</time></trkpt>
<trkpt lat="42.191428" lon="23.585207"><ele>2538.8</ele><time>2026-04-05T08:52:13.000Z</time></trkpt>
<trkpt lat="42.191425" lon="23.585203"><ele>2539.3</ele><time>2026-04-05T08:52:14.000Z</time></trkpt>
<trkpt lat="42.191423" lon="23.585199"><ele>2539.3</ele><time>2026-04-05T08:52:15.000Z</time></trkpt>
<trkpt lat="42.191423" lon="23.585197"><ele>2539.3</ele><time>2026-04-05T08:52:16.000Z</time></trkpt>
<trkpt lat="42.191424" lon="23.585194"><ele>2539.3</ele><time>2026-04-05T08:52:17.000Z</time></trkpt>
<trkpt lat="42.191425" lon="23.585192"><ele>2539.3</ele><time>2026-04-05T08:52:18.000Z</time></trkpt>
<trkpt lat="42.191426" lon="23.585192"><ele>2539.7</ele><time>2026-04-05T08:52:19.000Z</time></trkpt>
<trkpt lat="42.191427" lon="23.585193"><ele>2539.7</ele><time>2026-04-05T08:52:20.000Z</time></trkpt>
<trkpt lat="42.191426" lon="23.585193"><ele>2539.7</ele><time>2026-04-05T08:52:21.000Z</time></trkpt>
<trkpt lat="42.191424" lon="23.585193"><ele>2539.7</ele><time>2026-04-05T08:52:22.000Z</time></trkpt>
<trkpt lat="42.191423" lon="23.585193"><ele>2539.7</ele><time>2026-04-05T08:52:23.000Z</time></trkpt>
<trkpt lat="42.191421" lon="23.585193"><ele>2540.6</ele><time>2026-04-05T08:52:24.000Z</time></trkpt>
<trkpt lat="42.19142" lon="23.585193"><ele>2540.6</ele><time>2026-04-05T08:52:25.000Z</time></trkpt>
<trkpt lat="42.191418" lon="23.585194"><ele>2540.6</ele><time>2026-04-05T08:52:26.000Z</time></trkpt>
<trkpt lat="42.191418" lon="23.585195"><ele>2540.6</ele><time>2026-04-05T08:52:27.000Z</time></trkpt>
<trkpt lat="42.191417" lon="23.585195"><ele>2540.6</ele><time>2026-04-05T08:52:28.000Z</time></trkpt>
<trkpt lat="42.191417" lon="23.585195"><ele>2541.4</ele><time>2026-04-05T08:52:29.000Z</time></trkpt>
<trkpt lat="42.191417" lon="23.585194"><ele>2541.4</ele><time>2026-04-05T08:52:30.000Z</time></trkpt>
<trkpt lat="42.191418" lon="23.585193"><ele>2541.4</ele><time>2026-04-05T08:52:31.000Z</time></trkpt>
<trkpt lat="42.191418" lon="23.585192"><ele>2541.4</ele><time>2026-04-05T08:52:32.000Z</time></trkpt>
<trkpt lat="42.191419" lon="23.585191"><ele>2541.4</ele><time>2026-04-05T08:52:33.000Z</time></trkpt>
<trkpt lat="42.191419" lon="23.58519"><ele>2541.6</ele><time>2026-04-05T08:52:34.000Z</time></trkpt>
<trkpt lat="42.191419" lon="23.58519"><ele>2541.6</ele><time>2026-04-05T08:52:35.000Z</time></trkpt>
<trkpt lat="42.191419" lon="23.58519"><ele>2541.6</ele><time>2026-04-05T08:52:36.000Z</time></trkpt>
<trkpt lat="42.191419" lon="23.58519"><ele>2541.6</ele><time>2026-04-05T08:52:37.000Z</time></trkpt>
<trkpt lat="42.191419" lon="23.58519"><ele>2541.6</ele><time>2026-04-05T08:52:38.000Z</time></trkpt>
<trkpt lat="42.191419" lon="23.58519"><ele>2541.8</ele><time>2026-04-05T08:52:39.000Z</time></trkpt>
<trkpt lat="42.191419" lon="23.58519"><ele>2541.8</ele><time>2026-04-05T08:52:40.000Z</time></trkpt>
<trkpt lat="42.191419" lon="23.58519"><ele>2541.8</ele><time>2026-04-05T08:52:41.000Z</time></trkpt>
<trkpt lat="42.191418" lon="23.58519"><ele>2541.8</ele><time>2026-04-05T08:52:42.000Z</time></trkpt>
<trkpt lat="42.191417" lon="23.585188"><ele>2541.8</ele><time>2026-04-05T08:52:43.000Z</time></trkpt>
<trkpt lat="42.191415" lon="23.585186"><ele>2541.7</ele><time>2026-04-05T08:52:44.000Z</time></trkpt>
<trkpt lat="42.191413" lon="23.585182"><ele>2541.7</ele><time>2026-04-05T08:52:45.000Z</time></trkpt>
<trkpt lat="42.19141" lon="23.585177"><ele>2541.7</ele><time>2026-04-05T08:52:46.000Z</time></trkpt>
<trkpt lat="42.191408" lon="23.585172"><ele>2541.7</ele><time>2026-04-05T08:52:47.000Z</time></trkpt>
<trkpt lat="42.191405" lon="23.585168"><ele>2541.7</ele><time>2026-04-05T08:52:48.000Z</time></trkpt>
<trkpt lat="42.191403" lon="23.585163"><ele>2541.7</ele><time>2026-04-05T08:52:49.000Z</time></trkpt>
<trkpt lat="42.1914" lon="23.58516"><ele>2541.7</ele><time>2026-04-05T08:52:50.000Z</time></trkpt>
<trkpt lat="42.191397" lon="23.585156"><ele>2541.7</ele><time>2026-04-05T08:52:51.000Z</time></trkpt>
<trkpt lat="42.191395" lon="23.585151"><ele>2541.7</ele><time>2026-04-05T08:52:52.000Z</time></trkpt>
<trkpt lat="42.191394" lon="23.585145"><ele>2541.7</ele><time>2026-04-05T08:52:53.000Z</time></trkpt>
<trkpt lat="42.191393" lon="23.58514"><ele>2541.8</ele><time>2026-04-05T08:52:54.000Z</time></trkpt>
<trkpt lat="42.191393" lon="23.585136"><ele>2541.8</ele><time>2026-04-05T08:52:55.000Z</time></trkpt>
<trkpt lat="42.191393" lon="23.58513"><ele>2541.8</ele><time>2026-04-05T08:52:56.000Z</time></trkpt>
<trkpt lat="42.191392" lon="23.585125"><ele>2541.8</ele><time>2026-04-05T08:52:57.000Z</time></trkpt>
<trkpt lat="42.191391" lon="23.585117"><ele>2541.8</ele><time>2026-04-05T08:52:58.000Z</time></trkpt>
<trkpt lat="42.191388" lon="23.58511"><ele>2542.4</ele><time>2026-04-05T08:52:59.000Z</time></trkpt>
<trkpt lat="42.191386" lon="23.585102"><ele>2542.4</ele><time>2026-04-05T08:53:00.000Z</time></trkpt>
<trkpt lat="42.191384" lon="23.585093"><ele>2542.4</ele><time>2026-04-05T08:53:01.000Z</time></trkpt>
<trkpt lat="42.191381" lon="23.585087"><ele>2542.4</ele><time>2026-04-05T08:53:02.000Z</time></trkpt>
<trkpt lat="42.191379" lon="23.585083"><ele>2542.4</ele><time>2026-04-05T08:53:03.000Z</time></trkpt>
<trkpt lat="42.191378" lon="23.585075"><ele>2542.9</ele><time>2026-04-05T08:53:04.000Z</time></trkpt>
<trkpt lat="42.191376" lon="23.585069"><ele>2542.9</ele><time>2026-04-05T08:53:05.000Z</time></trkpt>
<trkpt lat="42.191374" lon="23.585063"><ele>2542.9</ele><time>2026-04-05T08:53:06.000Z</time></trkpt>
<trkpt lat="42.191372" lon="23.585055"><ele>2542.9</ele><time>2026-04-05T08:53:07.000Z</time></trkpt>
<trkpt lat="42.19137" lon="23.585047"><ele>2542.9</ele><time>2026-04-05T08:53:08.000Z</time></trkpt>
<trkpt lat="42.191368" lon="23.585042"><ele>2544.1</ele><time>2026-04-05T08:53:09.000Z</time></trkpt>
<trkpt lat="42.191367" lon="23.585036"><ele>2544.1</ele><time>2026-04-05T08:53:10.000Z</time></trkpt>
<trkpt lat="42.191365" lon="23.58503"><ele>2544.1</ele><time>2026-04-05T08:53:11.000Z</time></trkpt>
<trkpt lat="42.191364" lon="23.585025"><ele>2544.1</ele><time>2026-04-05T08:53:12.000Z</time></trkpt>
<trkpt lat="42.191363" lon="23.585022"><ele>2544.1</ele><time>2026-04-05T08:53:13.000Z</time></trkpt>
<trkpt lat="42.191362" lon="23.585018"><ele>2545.4</ele><time>2026-04-05T08:53:14.000Z</time></trkpt>
<trkpt lat="42.191362" lon="23.585013"><ele>2545.4</ele><time>2026-04-05T08:53:15.000Z</time></trkpt>
<trkpt lat="42.191362" lon="23.585009"><ele>2545.4</ele><time>2026-04-05T08:53:16.000Z</time></trkpt>
<trkpt lat="42.191362" lon="23.585006"><ele>2545.4</ele><time>2026-04-05T08:53:17.000Z</time></trkpt>
<trkpt lat="42.191363" lon="23.585003"><ele>2545.4</ele><time>2026-04-05T08:53:18.000Z</time></trkpt>
<trkpt lat="42.191365" lon="23.585001"><ele>2546.1</ele><time>2026-04-05T08:53:19.000Z</time></trkpt>
<trkpt lat="42.191367" lon="23.585"><ele>2546.1</ele><time>2026-04-05T08:53:20.000Z</time></trkpt>
<trkpt lat="42.191369" lon="23.584999"><ele>2546.1</ele><time>2026-04-05T08:53:21.000Z</time></trkpt>
<trkpt lat="42.19137" lon="23.584999"><ele>2546.1</ele><time>2026-04-05T08:53:22.000Z</time></trkpt>
<trkpt lat="42.191371" lon="23.584999"><ele>2546.1</ele><time>2026-04-05T08:53:23.000Z</time></trkpt>
<trkpt lat="42.191372" lon="23.584999"><ele>2547.4</ele><time>2026-04-05T08:53:24.000Z</time></trkpt>
<trkpt lat="42.191372" lon="23.584998"><ele>2547.4</ele><time>2026-04-05T08:53:25.000Z</time></trkpt>
<trkpt lat="42.191372" lon="23.584998"><ele>2547.4</ele><time>2026-04-05T08:53:26.000Z</time></trkpt>
<trkpt lat="42.191371" lon="23.584998"><ele>2547.4</ele><time>2026-04-05T08:53:27.000Z</time></trkpt>
<trkpt lat="42.191371" lon="23.584998"><ele>2547.4</ele><time>2026-04-05T08:53:28.000Z</time></trkpt>
<trkpt lat="42.191371" lon="23.584998"><ele>2548.3</ele><time>2026-04-05T08:53:29.000Z</time></trkpt>
<trkpt lat="42.191372" lon="23.584998"><ele>2548.3</ele><time>2026-04-05T08:53:30.000Z</time></trkpt>
<trkpt lat="42.191372" lon="23.584999"><ele>2548.3</ele><time>2026-04-05T08:53:31.000Z</time></trkpt>
<trkpt lat="42.191372" lon="23.584999"><ele>2548.3</ele><time>2026-04-05T08:53:32.000Z</time></trkpt>
<trkpt lat="42.191372" lon="23.584999"><ele>2548.3</ele><time>2026-04-05T08:53:33.000Z</time></trkpt>
<trkpt lat="42.191372" lon="23.584999"><ele>2548.7</ele><time>2026-04-05T08:53:34.000Z</time></trkpt>
<trkpt lat="42.191372" lon="23.584999"><ele>2548.7</ele><time>2026-04-05T08:53:35.000Z</time></trkpt>
<trkpt lat="42.191372" lon="23.584999"><ele>2548.7</ele><time>2026-04-05T08:53:36.000Z</time></trkpt>
<trkpt lat="42.191372" lon="23.584999"><ele>2548.7</ele><time>2026-04-05T08:53:37.000Z</time></trkpt>
<trkpt lat="42.191372" lon="23.584999"><ele>2548.7</ele><time>2026-04-05T08:53:38.000Z</time></trkpt>
<trkpt lat="42.191373" lon="23.585"><ele>2548.9</ele><time>2026-04-05T08:53:39.000Z</time></trkpt>
<trkpt lat="42.191372" lon="23.585001"><ele>2548.9</ele><time>2026-04-05T08:53:40.000Z</time></trkpt>
<trkpt lat="42.191372" lon="23.585002"><ele>2548.9</ele><time>2026-04-05T08:53:41.000Z</time></trkpt>
<trkpt lat="42.191372" lon="23.585002"><ele>2548.9</ele><time>2026-04-05T08:53:42.000Z</time></trkpt>
<trkpt lat="42.191371" lon="23.585003"><ele>2548.9</ele><time>2026-04-05T08:53:43.000Z</time></trkpt>
<trkpt lat="42.19137" lon="23.585003"><ele>2548.9</ele><time>2026-04-05T08:53:44.000Z</time></trkpt>
<trkpt lat="42.19137" lon="23.585003"><ele>2548.9</ele><time>2026-04-05T08:53:45.000Z</time></trkpt>
<trkpt lat="42.19137" lon="23.585003"><ele>2548.9</ele><time>2026-04-05T08:53:46.000Z</time></trkpt>
<trkpt lat="42.19137" lon="23.585003"><ele>2548.9</ele><time>2026-04-05T08:53:47.000Z</time></trkpt>
<trkpt lat="42.19137" lon="23.585003"><ele>2548.9</ele><time>2026-04-05T08:53:48.000Z</time></trkpt>
<trkpt lat="42.19137" lon="23.585002"><ele>2548.8</ele><time>2026-04-05T08:53:49.000Z</time></trkpt>
<trkpt lat="42.19137" lon="23.585002"><ele>2548.8</ele><time>2026-04-05T08:53:50.000Z</time></trkpt>
<trkpt lat="42.19137" lon="23.585002"><ele>2548.8</ele><time>2026-04-05T08:53:51.000Z</time></trkpt>
<trkpt lat="42.19137" lon="23.585002"><ele>2548.8</ele><time>2026-04-05T08:53:52.000Z</time></trkpt>
<trkpt lat="42.19137" lon="23.585002"><ele>2548.8</ele><time>2026-04-05T08:53:53.000Z</time></trkpt>
<trkpt lat="42.19137" lon="23.585002"><ele>2548.6</ele><time>2026-04-05T08:53:54.000Z</time></trkpt>
<trkpt lat="42.19137" lon="23.585002"><ele>2548.6</ele><time>2026-04-05T08:53:55.000Z</time></trkpt>
<trkpt lat="42.19137" lon="23.585002"><ele>2548.6</ele><time>2026-04-05T08:53:56.000Z</time></trkpt>
<trkpt lat="42.19137" lon="23.585002"><ele>2548.6</ele><time>2026-04-05T08:53:57.000Z</time></trkpt>
<trkpt lat="42.191368" lon="23.585001"><ele>2548.6</ele><time>2026-04-05T08:53:58.000Z</time></trkpt>
<trkpt lat="42.191366" lon="23.584998"><ele>2548.7</ele><time>2026-04-05T08:53:59.000Z</time></trkpt>
<trkpt lat="42.191361" lon="23.584995"><ele>2548.7</ele><time>2026-04-05T08:54:00.000Z</time></trkpt>
<trkpt lat="42.191357" lon="23.58499"><ele>2548.7</ele><time>2026-04-05T08:54:01.000Z</time></trkpt>
<trkpt lat="42.191353" lon="23.584986"><ele>2548.7</ele><time>2026-04-05T08:54:02.000Z</time></trkpt>
<trkpt lat="42.19135" lon="23.584983"><ele>2548.7</ele><time>2026-04-05T08:54:03.000Z</time></trkpt>
<trkpt lat="42.191348" lon="23.584979"><ele>2548.7</ele><time>2026-04-05T08:54:04.000Z</time></trkpt>
<trkpt lat="42.191346" lon="23.584976"><ele>2548.7</ele><time>2026-04-05T08:54:05.000Z</time></trkpt>
<trkpt lat="42.191346" lon="23.584973"><ele>2548.7</ele><time>2026-04-05T08:54:06.000Z</time></trkpt>
<trkpt lat="42.191346" lon="23.584971"><ele>2548.7</ele><time>2026-04-05T08:54:07.000Z</time></trkpt>
<trkpt lat="42.191347" lon="23.584968"><ele>2548.7</ele><time>2026-04-05T08:54:08.000Z</time></trkpt>
<trkpt lat="42.191347" lon="23.584967"><ele>2548.9</ele><time>2026-04-05T08:54:09.000Z</time></trkpt>
<trkpt lat="42.191349" lon="23.584966"><ele>2548.9</ele><time>2026-04-05T08:54:10.000Z</time></trkpt>
<trkpt lat="42.191349" lon="23.584966"><ele>2548.9</ele><time>2026-04-05T08:54:11.000Z</time></trkpt>
<trkpt lat="42.19135" lon="23.584966"><ele>2548.9</ele><time>2026-04-05T08:54:12.000Z</time></trkpt>
<trkpt lat="42.19135" lon="23.584966"><ele>2548.9</ele><time>2026-04-05T08:54:13.000Z</time></trkpt>
<trkpt lat="42.191351" lon="23.584966"><ele>2548.9</ele><time>2026-04-05T08:54:14.000Z</time></trkpt>
<trkpt lat="42.191352" lon="23.584966"><ele>2548.9</ele><time>2026-04-05T08:54:15.000Z</time></trkpt>
<trkpt lat="42.191352" lon="23.584966"><ele>2548.9</ele><time>2026-04-05T08:54:16.000Z</time></trkpt>
<trkpt lat="42.191353" lon="23.584966"><ele>2548.9</ele><time>2026-04-05T08:54:17.000Z</time></trkpt>
<trkpt lat="42.191354" lon="23.584967"><ele>2548.9</ele><time>2026-04-05T08:54:18.000Z</time></trkpt>
<trkpt lat="42.191354" lon="23.584967"><ele>2549</ele><time>2026-04-05T08:54:19.000Z</time></trkpt>
<trkpt lat="42.191354" lon="23.584968"><ele>2549</ele><time>2026-04-05T08:54:20.000Z</time></trkpt>
<trkpt lat="42.191354" lon="23.584968"><ele>2549</ele><time>2026-04-05T08:54:21.000Z</time></trkpt>
<trkpt lat="42.191354" lon="23.584969"><ele>2549</ele><time>2026-04-05T08:54:22.000Z</time></trkpt>
<trkpt lat="42.191354" lon="23.584969"><ele>2549</ele><time>2026-04-05T08:54:23.000Z</time></trkpt>
<trkpt lat="42.191354" lon="23.584969"><ele>2549.2</ele><time>2026-04-05T08:54:24.000Z</time></trkpt>
<trkpt lat="42.191354" lon="23.584969"><ele>2549.2</ele><time>2026-04-05T08:54:25.000Z</time></trkpt>
<trkpt lat="42.191354" lon="23.584969"><ele>2549.2</ele><time>2026-04-05T08:54:26.000Z</time></trkpt>
<trkpt lat="42.191354" lon="23.584969"><ele>2549.2</ele><time>2026-04-05T08:54:27.000Z</time></trkpt>
<trkpt lat="42.191354" lon="23.584969"><ele>2549.2</ele><time>2026-04-05T08:54:28.000Z</time></trkpt>
<trkpt lat="42.191354" lon="23.584969"><ele>2549.6</ele><time>2026-04-05T08:54:29.000Z</time></trkpt>
<trkpt lat="42.191354" lon="23.584969"><ele>2549.6</ele><time>2026-04-05T08:54:30.000Z</time></trkpt>
<trkpt lat="42.191354" lon="23.584969"><ele>2549.6</ele><time>2026-04-05T08:54:31.000Z</time></trkpt>
<trkpt lat="42.191354" lon="23.584969"><ele>2549.6</ele><time>2026-04-05T08:54:32.000Z</time></trkpt>
<trkpt lat="42.191354" lon="23.584969"><ele>2549.6</ele><time>2026-04-05T08:54:33.000Z</time></trkpt>
<trkpt lat="42.191354" lon="23.584969"><ele>2549.6</ele><time>2026-04-05T08:54:34.000Z</time></trkpt>
<trkpt lat="42.191354" lon="23.584969"><ele>2549.6</ele><time>2026-04-05T08:54:35.000Z</time></trkpt>
<trkpt lat="42.191353" lon="23.584969"><ele>2549.6</ele><time>2026-04-05T08:54:36.000Z</time></trkpt>
<trkpt lat="42.191353" lon="23.584969"><ele>2549.6</ele><time>2026-04-05T08:54:37.000Z</time></trkpt>
<trkpt lat="42.191353" lon="23.584969"><ele>2549.6</ele><time>2026-04-05T08:54:38.000Z</time></trkpt>
<trkpt lat="42.191353" lon="23.584968"><ele>2549.6</ele><time>2026-04-05T08:54:39.000Z</time></trkpt>
<trkpt lat="42.191352" lon="23.584968"><ele>2549.6</ele><time>2026-04-05T08:54:40.000Z</time></trkpt>
<trkpt lat="42.191351" lon="23.584968"><ele>2549.6</ele><time>2026-04-05T08:54:41.000Z</time></trkpt>
<trkpt lat="42.191349" lon="23.584968"><ele>2549.6</ele><time>2026-04-05T08:54:42.000Z</time></trkpt>
<trkpt lat="42.191347" lon="23.584967"><ele>2549.6</ele><time>2026-04-05T08:54:43.000Z</time></trkpt>
<trkpt lat="42.191344" lon="23.584966"><ele>2549.6</ele><time>2026-04-05T08:54:44.000Z</time></trkpt>
<trkpt lat="42.19134" lon="23.584962"><ele>2549.6</ele><time>2026-04-05T08:54:45.000Z</time></trkpt>
<trkpt lat="42.191337" lon="23.584956"><ele>2549.6</ele><time>2026-04-05T08:54:46.000Z</time></trkpt>
<trkpt lat="42.191333" lon="23.584948"><ele>2549.6</ele><time>2026-04-05T08:54:47.000Z</time></trkpt>
<trkpt lat="42.19133" lon="23.58494"><ele>2549.6</ele><time>2026-04-05T08:54:48.000Z</time></trkpt>
<trkpt lat="42.191327" lon="23.584932"><ele>2549.6</ele><time>2026-04-05T08:54:49.000Z</time></trkpt>
<trkpt lat="42.191323" lon="23.584921"><ele>2549.6</ele><time>2026-04-05T08:54:50.000Z</time></trkpt>
<trkpt lat="42.191321" lon="23.584912"><ele>2549.6</ele><time>2026-04-05T08:54:51.000Z</time></trkpt>
<trkpt lat="42.191319" lon="23.584905"><ele>2549.6</ele><time>2026-04-05T08:54:52.000Z</time></trkpt>
<trkpt lat="42.191317" lon="23.584899"><ele>2549.6</ele><time>2026-04-05T08:54:53.000Z</time></trkpt>
<trkpt lat="42.191314" lon="23.584891"><ele>2549.7</ele><time>2026-04-05T08:54:54.000Z</time></trkpt>
<trkpt lat="42.191312" lon="23.584884"><ele>2549.7</ele><time>2026-04-05T08:54:55.000Z</time></trkpt>
<trkpt lat="42.191309" lon="23.584878"><ele>2549.7</ele><time>2026-04-05T08:54:56.000Z</time></trkpt>
<trkpt lat="42.191305" lon="23.584871"><ele>2549.7</ele><time>2026-04-05T08:54:57.000Z</time></trkpt>
<trkpt lat="42.191301" lon="23.584861"><ele>2549.7</ele><time>2026-04-05T08:54:58.000Z</time></trkpt>
<trkpt lat="42.191298" lon="23.584853"><ele>2550.3</ele><time>2026-04-05T08:54:59.000Z</time></trkpt>
<trkpt lat="42.191294" lon="23.584846"><ele>2550.3</ele><time>2026-04-05T08:55:00.000Z</time></trkpt>
<trkpt lat="42.19129" lon="23.584837"><ele>2550.3</ele><time>2026-04-05T08:55:01.000Z</time></trkpt>
<trkpt lat="42.191285" lon="23.584828"><ele>2550.3</ele><time>2026-04-05T08:55:02.000Z</time></trkpt>
<trkpt lat="42.191281" lon="23.584821"><ele>2550.3</ele><time>2026-04-05T08:55:03.000Z</time></trkpt>
<trkpt lat="42.191278" lon="23.584812"><ele>2550.8</ele><time>2026-04-05T08:55:04.000Z</time></trkpt>
<trkpt lat="42.191275" lon="23.584805"><ele>2550.8</ele><time>2026-04-05T08:55:05.000Z</time></trkpt>
<trkpt lat="42.191273" lon="23.584799"><ele>2550.8</ele><time>2026-04-05T08:55:06.000Z</time></trkpt>
<trkpt lat="42.191271" lon="23.584792"><ele>2550.8</ele><time>2026-04-05T08:55:07.000Z</time></trkpt>
<trkpt lat="42.191268" lon="23.584785"><ele>2550.8</ele><time>2026-04-05T08:55:08.000Z</time></trkpt>
<trkpt lat="42.191266" lon="23.584778"><ele>2552.2</ele><time>2026-04-05T08:55:09.000Z</time></trkpt>
<trkpt lat="42.191265" lon="23.584771"><ele>2552.2</ele><time>2026-04-05T08:55:10.000Z</time></trkpt>
<trkpt lat="42.191263" lon="23.584764"><ele>2552.2</ele><time>2026-04-05T08:55:11.000Z</time></trkpt>
<trkpt lat="42.191261" lon="23.584758"><ele>2552.2</ele><time>2026-04-05T08:55:12.000Z</time></trkpt>
<trkpt lat="42.191259" lon="23.584749"><ele>2552.2</ele><time>2026-04-05T08:55:13.000Z</time></trkpt>
<trkpt lat="42.191257" lon="23.584742"><ele>2553.6</ele><time>2026-04-05T08:55:14.000Z</time></trkpt>
<trkpt lat="42.191254" lon="23.584733"><ele>2553.6</ele><time>2026-04-05T08:55:15.000Z</time></trkpt>
<trkpt lat="42.191251" lon="23.584723"><ele>2553.6</ele><time>2026-04-05T08:55:16.000Z</time></trkpt>
<trkpt lat="42.191249" lon="23.584714"><ele>2553.6</ele><time>2026-04-05T08:55:17.000Z</time></trkpt>
<trkpt lat="42.191247" lon="23.584705"><ele>2553.6</ele><time>2026-04-05T08:55:18.000Z</time></trkpt>
<trkpt lat="42.191245" lon="23.584696"><ele>2554.4</ele><time>2026-04-05T08:55:19.000Z</time></trkpt>
<trkpt lat="42.191244" lon="23.584689"><ele>2554.4</ele><time>2026-04-05T08:55:20.000Z</time></trkpt>
<trkpt lat="42.191244" lon="23.584682"><ele>2554.4</ele><time>2026-04-05T08:55:21.000Z</time></trkpt>
<trkpt lat="42.191243" lon="23.584675"><ele>2554.4</ele><time>2026-04-05T08:55:22.000Z</time></trkpt>
<trkpt lat="42.191241" lon="23.584667"><ele>2554.4</ele><time>2026-04-05T08:55:23.000Z</time></trkpt>
<trkpt lat="42.19124" lon="23.584659"><ele>2555.8</ele><time>2026-04-05T08:55:24.000Z</time></trkpt>
<trkpt lat="42.191239" lon="23.58465"><ele>2555.8</ele><time>2026-04-05T08:55:25.000Z</time></trkpt>
<trkpt lat="42.191237" lon="23.584641"><ele>2555.8</ele><time>2026-04-05T08:55:26.000Z</time></trkpt>
<trkpt lat="42.191234" lon="23.58463"><ele>2555.8</ele><time>2026-04-05T08:55:27.000Z</time></trkpt>
<trkpt lat="42.191231" lon="23.584619"><ele>2555.8</ele><time>2026-04-05T08:55:28.000Z</time></trkpt>
<trkpt lat="42.191227" lon="23.584611"><ele>2557</ele><time>2026-04-05T08:55:29.000Z</time></trkpt>
<trkpt lat="42.191223" lon="23.584603"><ele>2557</ele><time>2026-04-05T08:55:30.000Z</time></trkpt>
<trkpt lat="42.19122" lon="23.584595"><ele>2557</ele><time>2026-04-05T08:55:31.000Z</time></trkpt>
<trkpt lat="42.191217" lon="23.584587"><ele>2557</ele><time>2026-04-05T08:55:32.000Z</time></trkpt>
<trkpt lat="42.191215" lon="23.58458"><ele>2557</ele><time>2026-04-05T08:55:33.000Z</time></trkpt>
<trkpt lat="42.191213" lon="23.584572"><ele>2557.5</ele><time>2026-04-05T08:55:34.000Z</time></trkpt>
<trkpt lat="42.191211" lon="23.584565"><ele>2557.5</ele><time>2026-04-05T08:55:35.000Z</time></trkpt>
<trkpt lat="42.19121" lon="23.584558"><ele>2557.5</ele><time>2026-04-05T08:55:36.000Z</time></trkpt>
<trkpt lat="42.191208" lon="23.584552"><ele>2557.5</ele><time>2026-04-05T08:55:37.000Z</time></trkpt>
<trkpt lat="42.191206" lon="23.584545"><ele>2557.5</ele><time>2026-04-05T08:55:38.000Z</time></trkpt>
<trkpt lat="42.191204" lon="23.584537"><ele>2558.5</ele><time>2026-04-05T08:55:39.000Z</time></trkpt>
<trkpt lat="42.191202" lon="23.584529"><ele>2558.5</ele><time>2026-04-05T08:55:40.000Z</time></trkpt>
<trkpt lat="42.191199" lon="23.58452"><ele>2558.5</ele><time>2026-04-05T08:55:41.000Z</time></trkpt>
<trkpt lat="42.191195" lon="23.584511"><ele>2558.5</ele><time>2026-04-05T08:55:42.000Z</time></trkpt>
<trkpt lat="42.191192" lon="23.584501"><ele>2558.5</ele><time>2026-04-05T08:55:43.000Z</time></trkpt>
<trkpt lat="42.191187" lon="23.584492"><ele>2559.5</ele><time>2026-04-05T08:55:44.000Z</time></trkpt>
<trkpt lat="42.191183" lon="23.584483"><ele>2559.5</ele><time>2026-04-05T08:55:45.000Z</time></trkpt>
<trkpt lat="42.191179" lon="23.584474"><ele>2559.5</ele><time>2026-04-05T08:55:46.000Z</time></trkpt>
<trkpt lat="42.191176" lon="23.584468"><ele>2559.5</ele><time>2026-04-05T08:55:47.000Z</time></trkpt>
<trkpt lat="42.191173" lon="23.584462"><ele>2559.5</ele><time>2026-04-05T08:55:48.000Z</time></trkpt>
<trkpt lat="42.19117" lon="23.584457"><ele>2560</ele><time>2026-04-05T08:55:49.000Z</time></trkpt>
<trkpt lat="42.191169" lon="23.584452"><ele>2560</ele><time>2026-04-05T08:55:50.000Z</time></trkpt>
<trkpt lat="42.191168" lon="23.584446"><ele>2560</ele><time>2026-04-05T08:55:51.000Z</time></trkpt>
<trkpt lat="42.191166" lon="23.58444"><ele>2560</ele><time>2026-04-05T08:55:52.000Z</time></trkpt>
<trkpt lat="42.191164" lon="23.584433"><ele>2560</ele><time>2026-04-05T08:55:53.000Z</time></trkpt>
<trkpt lat="42.191161" lon="23.584425"><ele>2561</ele><time>2026-04-05T08:55:54.000Z</time></trkpt>
<trkpt lat="42.191157" lon="23.584418"><ele>2561</ele><time>2026-04-05T08:55:55.000Z</time></trkpt>
<trkpt lat="42.191152" lon="23.584409"><ele>2561</ele><time>2026-04-05T08:55:56.000Z</time></trkpt>
<trkpt lat="42.191147" lon="23.584399"><ele>2561</ele><time>2026-04-05T08:55:57.000Z</time></trkpt>
<trkpt lat="42.191142" lon="23.58439"><ele>2561</ele><time>2026-04-05T08:55:58.000Z</time></trkpt>
<trkpt lat="42.191136" lon="23.584381"><ele>2562</ele><time>2026-04-05T08:55:59.000Z</time></trkpt>
<trkpt lat="42.191132" lon="23.584371"><ele>2562</ele><time>2026-04-05T08:56:00.000Z</time></trkpt>
<trkpt lat="42.191128" lon="23.584364"><ele>2562</ele><time>2026-04-05T08:56:01.000Z</time></trkpt>
<trkpt lat="42.191125" lon="23.584357"><ele>2562</ele><time>2026-04-05T08:56:02.000Z</time></trkpt>
<trkpt lat="42.191121" lon="23.584349"><ele>2562</ele><time>2026-04-05T08:56:03.000Z</time></trkpt>
<trkpt lat="42.191118" lon="23.584341"><ele>2562.5</ele><time>2026-04-05T08:56:04.000Z</time></trkpt>
<trkpt lat="42.191113" lon="23.584333"><ele>2562.5</ele><time>2026-04-05T08:56:05.000Z</time></trkpt>
<trkpt lat="42.191108" lon="23.584322"><ele>2562.5</ele><time>2026-04-05T08:56:06.000Z</time></trkpt>
<trkpt lat="42.191103" lon="23.584311"><ele>2562.5</ele><time>2026-04-05T08:56:07.000Z</time></trkpt>
<trkpt lat="42.191098" lon="23.584301"><ele>2562.5</ele><time>2026-04-05T08:56:08.000Z</time></trkpt>
<trkpt lat="42.191092" lon="23.584291"><ele>2563.4</ele><time>2026-04-05T08:56:09.000Z</time></trkpt>
<trkpt lat="42.191087" lon="23.584282"><ele>2563.4</ele><time>2026-04-05T08:56:10.000Z</time></trkpt>
<trkpt lat="42.191082" lon="23.584274"><ele>2563.4</ele><time>2026-04-05T08:56:11.000Z</time></trkpt>
<trkpt lat="42.191077" lon="23.584266"><ele>2563.4</ele><time>2026-04-05T08:56:12.000Z</time></trkpt>
<trkpt lat="42.191072" lon="23.584258"><ele>2563.4</ele><time>2026-04-05T08:56:13.000Z</time></trkpt>
<trkpt lat="42.191068" lon="23.584252"><ele>2564.2</ele><time>2026-04-05T08:56:14.000Z</time></trkpt>
<trkpt lat="42.191062" lon="23.584245"><ele>2564.2</ele><time>2026-04-05T08:56:15.000Z</time></trkpt>
<trkpt lat="42.191056" lon="23.584238"><ele>2564.2</ele><time>2026-04-05T08:56:16.000Z</time></trkpt>
<trkpt lat="42.191051" lon="23.584233"><ele>2564.2</ele><time>2026-04-05T08:56:17.000Z</time></trkpt>
<trkpt lat="42.191044" lon="23.584227"><ele>2564.2</ele><time>2026-04-05T08:56:18.000Z</time></trkpt>
<trkpt lat="42.191039" lon="23.584222"><ele>2564.6</ele><time>2026-04-05T08:56:19.000Z</time></trkpt>
<trkpt lat="42.191036" lon="23.584218"><ele>2564.6</ele><time>2026-04-05T08:56:20.000Z</time></trkpt>
<trkpt lat="42.191034" lon="23.584216"><ele>2564.6</ele><time>2026-04-05T08:56:21.000Z</time></trkpt>
<trkpt lat="42.191033" lon="23.584215"><ele>2564.6</ele><time>2026-04-05T08:56:22.000Z</time></trkpt>
<trkpt lat="42.191034" lon="23.584216"><ele>2564.6</ele><time>2026-04-05T08:56:23.000Z</time></trkpt>
<trkpt lat="42.191035" lon="23.584216"><ele>2565.1</ele><time>2026-04-05T08:56:24.000Z</time></trkpt>
<trkpt lat="42.191035" lon="23.584217"><ele>2565.1</ele><time>2026-04-05T08:56:25.000Z</time></trkpt>
<trkpt lat="42.191035" lon="23.584217"><ele>2565.1</ele><time>2026-04-05T08:56:26.000Z</time></trkpt>
<trkpt lat="42.191035" lon="23.584217"><ele>2565.1</ele><time>2026-04-05T08:56:27.000Z</time></trkpt>
<trkpt lat="42.191034" lon="23.584217"><ele>2565.1</ele><time>2026-04-05T08:56:28.000Z</time></trkpt>
<trkpt lat="42.191033" lon="23.584217"><ele>2565.4</ele><time>2026-04-05T08:56:29.000Z</time></trkpt>
<trkpt lat="42.191032" lon="23.584218"><ele>2565.4</ele><time>2026-04-05T08:56:30.000Z</time></trkpt>
<trkpt lat="42.191031" lon="23.584218"><ele>2565.4</ele><time>2026-04-05T08:56:31.000Z</time></trkpt>
<trkpt lat="42.191031" lon="23.584218"><ele>2565.4</ele><time>2026-04-05T08:56:32.000Z</time></trkpt>
<trkpt lat="42.191031" lon="23.584218"><ele>2565.4</ele><time>2026-04-05T08:56:33.000Z</time></trkpt>
<trkpt lat="42.191031" lon="23.584218"><ele>2565.5</ele><time>2026-04-05T08:56:34.000Z</time></trkpt>
<trkpt lat="42.191031" lon="23.584218"><ele>2565.5</ele><time>2026-04-05T08:56:35.000Z</time></trkpt>
<trkpt lat="42.191031" lon="23.584218"><ele>2565.5</ele><time>2026-04-05T08:56:36.000Z</time></trkpt>
<trkpt lat="42.19103" lon="23.584219"><ele>2565.5</ele><time>2026-04-05T08:56:37.000Z</time></trkpt>
<trkpt lat="42.191029" lon="23.584219"><ele>2565.5</ele><time>2026-04-05T08:56:38.000Z</time></trkpt>
<trkpt lat="42.191028" lon="23.584219"><ele>2565.7</ele><time>2026-04-05T08:56:39.000Z</time></trkpt>
<trkpt lat="42.191028" lon="23.584219"><ele>2565.7</ele><time>2026-04-05T08:56:40.000Z</time></trkpt>
<trkpt lat="42.191027" lon="23.584219"><ele>2565.7</ele><time>2026-04-05T08:56:41.000Z</time></trkpt>
<trkpt lat="42.191026" lon="23.58422"><ele>2565.7</ele><time>2026-04-05T08:56:42.000Z</time></trkpt>
<trkpt lat="42.191026" lon="23.58422"><ele>2565.7</ele><time>2026-04-05T08:56:43.000Z</time></trkpt>
<trkpt lat="42.191026" lon="23.58422"><ele>2565.7</ele><time>2026-04-05T08:56:44.000Z</time></trkpt>
<trkpt lat="42.191028" lon="23.58422"><ele>2565.7</ele><time>2026-04-05T08:56:45.000Z</time></trkpt>
<trkpt lat="42.19103" lon="23.584221"><ele>2565.7</ele><time>2026-04-05T08:56:46.000Z</time></trkpt>
<trkpt lat="42.191031" lon="23.584222"><ele>2565.7</ele><time>2026-04-05T08:56:47.000Z</time></trkpt>
<trkpt lat="42.191032" lon="23.584221"><ele>2565.7</ele><time>2026-04-05T08:56:48.000Z</time></trkpt>
<trkpt lat="42.191032" lon="23.58422"><ele>2565.6</ele><time>2026-04-05T08:56:49.000Z</time></trkpt>
<trkpt lat="42.19103" lon="23.584219"><ele>2565.6</ele><time>2026-04-05T08:56:50.000Z</time></trkpt>
<trkpt lat="42.191027" lon="23.584215"><ele>2565.6</ele><time>2026-04-05T08:56:51.000Z</time></trkpt>
<trkpt lat="42.191024" lon="23.584212"><ele>2565.6</ele><time>2026-04-05T08:56:52.000Z</time></trkpt>
<trkpt lat="42.191021" lon="23.584208"><ele>2565.6</ele><time>2026-04-05T08:56:53.000Z</time></trkpt>
<trkpt lat="42.191019" lon="23.584206"><ele>2565.4</ele><time>2026-04-05T08:56:54.000Z</time></trkpt>
<trkpt lat="42.191018" lon="23.584204"><ele>2565.4</ele><time>2026-04-05T08:56:55.000Z</time></trkpt>
<trkpt lat="42.191017" lon="23.584204"><ele>2565.4</ele><time>2026-04-05T08:56:56.000Z</time></trkpt>
<trkpt lat="42.191017" lon="23.584205"><ele>2565.4</ele><time>2026-04-05T08:56:57.000Z</time></trkpt>
<trkpt lat="42.191016" lon="23.584206"><ele>2565.4</ele><time>2026-04-05T08:56:58.000Z</time></trkpt>
<trkpt lat="42.191015" lon="23.584208"><ele>2565.3</ele><time>2026-04-05T08:56:59.000Z</time></trkpt>
<trkpt lat="42.191015" lon="23.584209"><ele>2565.3</ele><time>2026-04-05T08:57:00.000Z</time></trkpt>
<trkpt lat="42.191014" lon="23.58421"><ele>2565.3</ele><time>2026-04-05T08:57:01.000Z</time></trkpt>
<trkpt lat="42.191013" lon="23.584211"><ele>2565.3</ele><time>2026-04-05T08:57:02.000Z</time></trkpt>
<trkpt lat="42.191011" lon="23.584211"><ele>2565.3</ele><time>2026-04-05T08:57:03.000Z</time></trkpt>
<trkpt lat="42.191008" lon="23.584211"><ele>2565.3</ele><time>2026-04-05T08:57:04.000Z</time></trkpt>
<trkpt lat="42.191004" lon="23.584211"><ele>2565.3</ele><time>2026-04-05T08:57:05.000Z</time></trkpt>
<trkpt lat="42.190999" lon="23.58421"><ele>2565.3</ele><time>2026-04-05T08:57:06.000Z</time></trkpt>
<trkpt lat="42.190995" lon="23.584207"><ele>2565.3</ele><time>2026-04-05T08:57:07.000Z</time></trkpt>
<trkpt lat="42.190991" lon="23.584204"><ele>2565.3</ele><time>2026-04-05T08:57:08.000Z</time></trkpt>
<trkpt lat="42.190987" lon="23.5842"><ele>2565.3</ele><time>2026-04-05T08:57:09.000Z</time></trkpt>
<trkpt lat="42.190984" lon="23.584196"><ele>2565.3</ele><time>2026-04-05T08:57:10.000Z</time></trkpt>
<trkpt lat="42.190979" lon="23.584192"><ele>2565.3</ele><time>2026-04-05T08:57:11.000Z</time></trkpt>
<trkpt lat="42.190975" lon="23.584189"><ele>2565.3</ele><time>2026-04-05T08:57:12.000Z</time></trkpt>
<trkpt lat="42.190971" lon="23.584187"><ele>2565.3</ele><time>2026-04-05T08:57:13.000Z</time></trkpt>
<trkpt lat="42.190968" lon="23.584184"><ele>2565.3</ele><time>2026-04-05T08:57:14.000Z</time></trkpt>
<trkpt lat="42.190966" lon="23.584183"><ele>2565.3</ele><time>2026-04-05T08:57:15.000Z</time></trkpt>
<trkpt lat="42.190964" lon="23.584182"><ele>2565.3</ele><time>2026-04-05T08:57:16.000Z</time></trkpt>
<trkpt lat="42.190962" lon="23.584183"><ele>2565.3</ele><time>2026-04-05T08:57:17.000Z</time></trkpt>
<trkpt lat="42.190962" lon="23.584183"><ele>2565.3</ele><time>2026-04-05T08:57:18.000Z</time></trkpt>
<trkpt lat="42.190962" lon="23.584185"><ele>2565.4</ele><time>2026-04-05T08:57:19.000Z</time></trkpt>
<trkpt lat="42.190961" lon="23.584186"><ele>2565.4</ele><time>2026-04-05T08:57:20.000Z</time></trkpt>
<trkpt lat="42.190961" lon="23.584187"><ele>2565.4</ele><time>2026-04-05T08:57:21.000Z</time></trkpt>
<trkpt lat="42.190962" lon="23.584188"><ele>2565.4</ele><time>2026-04-05T08:57:22.000Z</time></trkpt>
<trkpt lat="42.190962" lon="23.584188"><ele>2565.4</ele><time>2026-04-05T08:57:23.000Z</time></trkpt>
<trkpt lat="42.190962" lon="23.584188"><ele>2565.8</ele><time>2026-04-05T08:57:24.000Z</time></trkpt>
<trkpt lat="42.190962" lon="23.584188"><ele>2565.8</ele><time>2026-04-05T08:57:25.000Z</time></trkpt>
<trkpt lat="42.190962" lon="23.584188"><ele>2565.8</ele><time>2026-04-05T08:57:26.000Z</time></trkpt>
<trkpt lat="42.190962" lon="23.584187"><ele>2565.8</ele><time>2026-04-05T08:57:27.000Z</time></trkpt>
<trkpt lat="42.190962" lon="23.584187"><ele>2565.8</ele><time>2026-04-05T08:57:28.000Z</time></trkpt>
<trkpt lat="42.190962" lon="23.584187"><ele>2566.4</ele><time>2026-04-05T08:57:29.000Z</time></trkpt>
<trkpt lat="42.190962" lon="23.584187"><ele>2566.4</ele><time>2026-04-05T08:57:30.000Z</time></trkpt>
<trkpt lat="42.190962" lon="23.584187"><ele>2566.4</ele><time>2026-04-05T08:57:31.000Z</time></trkpt>
<trkpt lat="42.190962" lon="23.584187"><ele>2566.4</ele><time>2026-04-05T08:57:32.000Z</time></trkpt>
<trkpt lat="42.190961" lon="23.584187"><ele>2566.4</ele><time>2026-04-05T08:57:33.000Z</time></trkpt>
<trkpt lat="42.190961" lon="23.584187"><ele>2566.7</ele><time>2026-04-05T08:57:34.000Z</time></trkpt>
<trkpt lat="42.190961" lon="23.584187"><ele>2566.7</ele><time>2026-04-05T08:57:35.000Z</time></trkpt>
<trkpt lat="42.190961" lon="23.584186"><ele>2566.7</ele><time>2026-04-05T08:57:36.000Z</time></trkpt>
<trkpt lat="42.19096" lon="23.584185"><ele>2566.7</ele><time>2026-04-05T08:57:37.000Z</time></trkpt>
<trkpt lat="42.19096" lon="23.584185"><ele>2566.7</ele><time>2026-04-05T08:57:38.000Z</time></trkpt>
<trkpt lat="42.190959" lon="23.584184"><ele>2567</ele><time>2026-04-05T08:57:39.000Z</time></trkpt>
<trkpt lat="42.190959" lon="23.584184"><ele>2567</ele><time>2026-04-05T08:57:40.000Z</time></trkpt>
<trkpt lat="42.190959" lon="23.584184"><ele>2567</ele><time>2026-04-05T08:57:41.000Z</time></trkpt>
<trkpt lat="42.190959" lon="23.584184"><ele>2567</ele><time>2026-04-05T08:57:42.000Z</time></trkpt>
<trkpt lat="42.19096" lon="23.584185"><ele>2567</ele><time>2026-04-05T08:57:43.000Z</time></trkpt>
<trkpt lat="42.19096" lon="23.584186"><ele>2567</ele><time>2026-04-05T08:57:44.000Z</time></trkpt>
<trkpt lat="42.19096" lon="23.584187"><ele>2567</ele><time>2026-04-05T08:57:45.000Z</time></trkpt>
<trkpt lat="42.19096" lon="23.584188"><ele>2567</ele><time>2026-04-05T08:57:46.000Z</time></trkpt>
<trkpt lat="42.190961" lon="23.584189"><ele>2567</ele><time>2026-04-05T08:57:47.000Z</time></trkpt>
<trkpt lat="42.190961" lon="23.58419"><ele>2567</ele><time>2026-04-05T08:57:48.000Z</time></trkpt>
<trkpt lat="42.19096" lon="23.584189"><ele>2566.8</ele><time>2026-04-05T08:57:49.000Z</time></trkpt>
<trkpt lat="42.19096" lon="23.584188"><ele>2566.8</ele><time>2026-04-05T08:57:50.000Z</time></trkpt>
<trkpt lat="42.190959" lon="23.584187"><ele>2566.8</ele><time>2026-04-05T08:57:51.000Z</time></trkpt>
<trkpt lat="42.190959" lon="23.584186"><ele>2566.8</ele><time>2026-04-05T08:57:52.000Z</time></trkpt>
<trkpt lat="42.190958" lon="23.584186"><ele>2566.8</ele><time>2026-04-05T08:57:53.000Z</time></trkpt>
<trkpt lat="42.190957" lon="23.584186"><ele>2566.6</ele><time>2026-04-05T08:57:54.000Z</time></trkpt>
<trkpt lat="42.190957" lon="23.584185"><ele>2566.6</ele><time>2026-04-05T08:57:55.000Z</time></trkpt>
<trkpt lat="42.190957" lon="23.584185"><ele>2566.6</ele><time>2026-04-05T08:57:56.000Z</time></trkpt>
<trkpt lat="42.190957" lon="23.584183"><ele>2566.6</ele><time>2026-04-05T08:57:57.000Z</time></trkpt>
<trkpt lat="42.190959" lon="23.584181"><ele>2566.6</ele><time>2026-04-05T08:57:58.000Z</time></trkpt>
<trkpt lat="42.19096" lon="23.584178"><ele>2566.3</ele><time>2026-04-05T08:57:59.000Z</time></trkpt>
<trkpt lat="42.19096" lon="23.584176"><ele>2566.3</ele><time>2026-04-05T08:58:00.000Z</time></trkpt>
<trkpt lat="42.19096" lon="23.584174"><ele>2566.3</ele><time>2026-04-05T08:58:01.000Z</time></trkpt>
<trkpt lat="42.190959" lon="23.584174"><ele>2566.3</ele><time>2026-04-05T08:58:02.000Z</time></trkpt>
<trkpt lat="42.190958" lon="23.584172"><ele>2566.3</ele><time>2026-04-05T08:58:03.000Z</time></trkpt>
<trkpt lat="42.190957" lon="23.584172"><ele>2566.2</ele><time>2026-04-05T08:58:04.000Z</time></trkpt>
<trkpt lat="42.190956" lon="23.584172"><ele>2566.2</ele><time>2026-04-05T08:58:05.000Z</time></trkpt>
<trkpt lat="42.190956" lon="23.584172"><ele>2566.2</ele><time>2026-04-05T08:58:06.000Z</time></trkpt>
<trkpt lat="42.190955" lon="23.584172"><ele>2566.2</ele><time>2026-04-05T08:58:07.000Z</time></trkpt>
<trkpt lat="42.190954" lon="23.584173"><ele>2566.2</ele><time>2026-04-05T08:58:08.000Z</time></trkpt>
<trkpt lat="42.190953" lon="23.584175"><ele>2566.1</ele><time>2026-04-05T08:58:09.000Z</time></trkpt>
<trkpt lat="42.190952" lon="23.584177"><ele>2566.1</ele><time>2026-04-05T08:58:10.000Z</time></trkpt>
<trkpt lat="42.190952" lon="23.584179"><ele>2566.1</ele><time>2026-04-05T08:58:11.000Z</time></trkpt>
<trkpt lat="42.190952" lon="23.58418"><ele>2566.1</ele><time>2026-04-05T08:58:12.000Z</time></trkpt>
<trkpt lat="42.190952" lon="23.584181"><ele>2566.1</ele><time>2026-04-05T08:58:13.000Z</time></trkpt>
<trkpt lat="42.190953" lon="23.58418"><ele>2566.2</ele><time>2026-04-05T08:58:14.000Z</time></trkpt>
<trkpt lat="42.190954" lon="23.584178"><ele>2566.2</ele><time>2026-04-05T08:58:15.000Z</time></trkpt>
<trkpt lat="42.190953" lon="23.584178"><ele>2566.2</ele><time>2026-04-05T08:58:16.000Z</time></trkpt>
<trkpt lat="42.190954" lon="23.584178"><ele>2566.2</ele><time>2026-04-05T08:58:17.000Z</time></trkpt>
<trkpt lat="42.190954" lon="23.584179"><ele>2566.2</ele><time>2026-04-05T08:58:18.000Z</time></trkpt>
<trkpt lat="42.190954" lon="23.584179"><ele>2566.3</ele><time>2026-04-05T08:58:19.000Z</time></trkpt>
<trkpt lat="42.190954" lon="23.58418"><ele>2566.3</ele><time>2026-04-05T08:58:20.000Z</time></trkpt>
<trkpt lat="42.190954" lon="23.584181"><ele>2566.3</ele><time>2026-04-05T08:58:21.000Z</time></trkpt>
<trkpt lat="42.190955" lon="23.584181"><ele>2566.3</ele><time>2026-04-05T08:58:22.000Z</time></trkpt>
<trkpt lat="42.190954" lon="23.58418"><ele>2566.3</ele><time>2026-04-05T08:58:23.000Z</time></trkpt>
<trkpt lat="42.190954" lon="23.584181"><ele>2566.4</ele><time>2026-04-05T08:58:24.000Z</time></trkpt>
<trkpt lat="42.190953" lon="23.584182"><ele>2566.4</ele><time>2026-04-05T08:58:25.000Z</time></trkpt>
<trkpt lat="42.190951" lon="23.584182"><ele>2566.4</ele><time>2026-04-05T08:58:26.000Z</time></trkpt>
<trkpt lat="42.19095" lon="23.584183"><ele>2566.4</ele><time>2026-04-05T08:58:27.000Z</time></trkpt>
<trkpt lat="42.190949" lon="23.584184"><ele>2566.4</ele><time>2026-04-05T08:58:28.000Z</time></trkpt>
<trkpt lat="42.190948" lon="23.584185"><ele>2566.3</ele><time>2026-04-05T08:58:29.000Z</time></trkpt>
<trkpt lat="42.190949" lon="23.584186"><ele>2566.3</ele><time>2026-04-05T08:58:30.000Z</time></trkpt>
<trkpt lat="42.19095" lon="23.584186"><ele>2566.3</ele><time>2026-04-05T08:58:31.000Z</time></trkpt>
<trkpt lat="42.190951" lon="23.584186"><ele>2566.3</ele><time>2026-04-05T08:58:32.000Z</time></trkpt>
<trkpt lat="42.190952" lon="23.584186"><ele>2566.3</ele><time>2026-04-05T08:58:33.000Z</time></trkpt>
<trkpt lat="42.190953" lon="23.584186"><ele>2566.2</ele><time>2026-04-05T08:58:34.000Z</time></trkpt>
<trkpt lat="42.190953" lon="23.584186"><ele>2566.2</ele><time>2026-04-05T08:58:35.000Z</time></trkpt>
<trkpt lat="42.190953" lon="23.584185"><ele>2566.2</ele><time>2026-04-05T08:58:36.000Z</time></trkpt>
<trkpt lat="42.190954" lon="23.584186"><ele>2566.2</ele><time>2026-04-05T08:58:37.000Z</time></trkpt>
<trkpt lat="42.190954" lon="23.584186"><ele>2566.2</ele><time>2026-04-05T08:58:38.000Z</time></trkpt>
<trkpt lat="42.190955" lon="23.584186"><ele>2566</ele><time>2026-04-05T08:58:39.000Z</time></trkpt>
<trkpt lat="42.190955" lon="23.584187"><ele>2566</ele><time>2026-04-05T08:58:40.000Z</time></trkpt>
<trkpt lat="42.190955" lon="23.584186"><ele>2566</ele><time>2026-04-05T08:58:41.000Z</time></trkpt>
<trkpt lat="42.190955" lon="23.584186"><ele>2566</ele><time>2026-04-05T08:58:42.000Z</time></trkpt>
<trkpt lat="42.190955" lon="23.584185"><ele>2566</ele><time>2026-04-05T08:58:43.000Z</time></trkpt>
<trkpt lat="42.190955" lon="23.584185"><ele>2566.4</ele><time>2026-04-05T08:58:44.000Z</time></trkpt>
<trkpt lat="42.190956" lon="23.584185"><ele>2566.4</ele><time>2026-04-05T08:58:45.000Z</time></trkpt>
<trkpt lat="42.190955" lon="23.584186"><ele>2566.4</ele><time>2026-04-05T08:58:46.000Z</time></trkpt>
<trkpt lat="42.190954" lon="23.584186"><ele>2566.4</ele><time>2026-04-05T08:58:47.000Z</time></trkpt>
<trkpt lat="42.190953" lon="23.584186"><ele>2566.4</ele><time>2026-04-05T08:58:48.000Z</time></trkpt>
<trkpt lat="42.190951" lon="23.584186"><ele>2566.6</ele><time>2026-04-05T08:58:49.000Z</time></trkpt>
<trkpt lat="42.190948" lon="23.584185"><ele>2566.6</ele><time>2026-04-05T08:58:50.000Z</time></trkpt>
<trkpt lat="42.190946" lon="23.584183"><ele>2566.6</ele><time>2026-04-05T08:58:51.000Z</time></trkpt>
<trkpt lat="42.190944" lon="23.584181"><ele>2566.6</ele><time>2026-04-05T08:58:52.000Z</time></trkpt>
<trkpt lat="42.190943" lon="23.584178"><ele>2566.6</ele><time>2026-04-05T08:58:53.000Z</time></trkpt>
<trkpt lat="42.190941" lon="23.584176"><ele>2566.6</ele><time>2026-04-05T08:58:54.000Z</time></trkpt>
<trkpt lat="42.19094" lon="23.584176"><ele>2566.6</ele><time>2026-04-05T08:58:55.000Z</time></trkpt>
<trkpt lat="42.190939" lon="23.584176"><ele>2566.6</ele><time>2026-04-05T08:58:56.000Z</time></trkpt>
<trkpt lat="42.190939" lon="23.584178"><ele>2566.6</ele><time>2026-04-05T08:58:57.000Z</time></trkpt>
<trkpt lat="42.190938" lon="23.58418"><ele>2566.6</ele><time>2026-04-05T08:58:58.000Z</time></trkpt>
<trkpt lat="42.190939" lon="23.584182"><ele>2566.3</ele><time>2026-04-05T08:58:59.000Z</time></trkpt>
<trkpt lat="42.190939" lon="23.584184"><ele>2566.3</ele><time>2026-04-05T08:59:00.000Z</time></trkpt>
<trkpt lat="42.190939" lon="23.584185"><ele>2566.3</ele><time>2026-04-05T08:59:01.000Z</time></trkpt>
<trkpt lat="42.19094" lon="23.584185"><ele>2566.3</ele><time>2026-04-05T08:59:02.000Z</time></trkpt>
<trkpt lat="42.19094" lon="23.584185"><ele>2566.3</ele><time>2026-04-05T08:59:03.000Z</time></trkpt>
<trkpt lat="42.190939" lon="23.584184"><ele>2566.3</ele><time>2026-04-05T08:59:04.000Z</time></trkpt>
<trkpt lat="42.19094" lon="23.584183"><ele>2566.3</ele><time>2026-04-05T08:59:05.000Z</time></trkpt>
<trkpt lat="42.190939" lon="23.584181"><ele>2566.3</ele><time>2026-04-05T08:59:06.000Z</time></trkpt>
<trkpt lat="42.190939" lon="23.584179"><ele>2566.3</ele><time>2026-04-05T08:59:07.000Z</time></trkpt>
<trkpt lat="42.19094" lon="23.584176"><ele>2566.3</ele><time>2026-04-05T08:59:08.000Z</time></trkpt>
<trkpt lat="42.19094" lon="23.584173"><ele>2566.6</ele><time>2026-04-05T08:59:09.000Z</time></trkpt>
<trkpt lat="42.190941" lon="23.584171"><ele>2566.6</ele><time>2026-04-05T08:59:10.000Z</time></trkpt>
<trkpt lat="42.190942" lon="23.58417"><ele>2566.6</ele><time>2026-04-05T08:59:11.000Z</time></trkpt>
<trkpt lat="42.190943" lon="23.58417"><ele>2566.6</ele><time>2026-04-05T08:59:12.000Z</time></trkpt>
<trkpt lat="42.190944" lon="23.58417"><ele>2566.6</ele><time>2026-04-05T08:59:13.000Z</time></trkpt>
<trkpt lat="42.190944" lon="23.584171"><ele>2566.9</ele><time>2026-04-05T08:59:14.000Z</time></trkpt>
<trkpt lat="42.190944" lon="23.584171"><ele>2566.9</ele><time>2026-04-05T08:59:15.000Z</time></trkpt>
<trkpt lat="42.190943" lon="23.584171"><ele>2566.9</ele><time>2026-04-05T08:59:16.000Z</time></trkpt>
<trkpt lat="42.190943" lon="23.584171"><ele>2566.9</ele><time>2026-04-05T08:59:17.000Z</time></trkpt>
<trkpt lat="42.190944" lon="23.584171"><ele>2566.9</ele><time>2026-04-05T08:59:18.000Z</time></trkpt>
<trkpt lat="42.190944" lon="23.584171"><ele>2566.9</ele><time>2026-04-05T08:59:19.000Z</time></trkpt>
<trkpt lat="42.190944" lon="23.584171"><ele>2566.9</ele><time>2026-04-05T08:59:20.000Z</time></trkpt>
<trkpt lat="42.190945" lon="23.584171"><ele>2566.9</ele><time>2026-04-05T08:59:21.000Z</time></trkpt>
<trkpt lat="42.190945" lon="23.584171"><ele>2566.9</ele><time>2026-04-05T08:59:22.000Z</time></trkpt>
<trkpt lat="42.190945" lon="23.584171"><ele>2566.9</ele><time>2026-04-05T08:59:23.000Z</time></trkpt>
<trkpt lat="42.190945" lon="23.58417"><ele>2567</ele><time>2026-04-05T08:59:24.000Z</time></trkpt>
<trkpt lat="42.190945" lon="23.58417"><ele>2567</ele><time>2026-04-05T08:59:25.000Z</time></trkpt>
<trkpt lat="42.190945" lon="23.58417"><ele>2567</ele><time>2026-04-05T08:59:26.000Z</time></trkpt>
<trkpt lat="42.190945" lon="23.58417"><ele>2567</ele><time>2026-04-05T08:59:27.000Z</time></trkpt>
<trkpt lat="42.190945" lon="23.584169"><ele>2567</ele><time>2026-04-05T08:59:28.000Z</time></trkpt>
<trkpt lat="42.190946" lon="23.584169"><ele>2566.9</ele><time>2026-04-05T08:59:29.000Z</time></trkpt>
<trkpt lat="42.190946" lon="23.584169"><ele>2566.9</ele><time>2026-04-05T08:59:30.000Z</time></trkpt>
<trkpt lat="42.190946" lon="23.584169"><ele>2566.9</ele><time>2026-04-05T08:59:31.000Z</time></trkpt>
<trkpt lat="42.190945" lon="23.584169"><ele>2566.9</ele><time>2026-04-05T08:59:32.000Z</time></trkpt>
<trkpt lat="42.190945" lon="23.58417"><ele>2566.9</ele><time>2026-04-05T08:59:33.000Z</time></trkpt>
<trkpt lat="42.190945" lon="23.58417"><ele>2566.8</ele><time>2026-04-05T08:59:34.000Z</time></trkpt>
<trkpt lat="42.190945" lon="23.584169"><ele>2566.8</ele><time>2026-04-05T08:59:35.000Z</time></trkpt>
<trkpt lat="42.190945" lon="23.584169"><ele>2566.8</ele><time>2026-04-05T08:59:36.000Z</time></trkpt>
<trkpt lat="42.190945" lon="23.584167"><ele>2566.8</ele><time>2026-04-05T08:59:37.000Z</time></trkpt>
<trkpt lat="42.190944" lon="23.584166"><ele>2566.8</ele><time>2026-04-05T08:59:38.000Z</time></trkpt>
<trkpt lat="42.190944" lon="23.584166"><ele>2566.5</ele><time>2026-04-05T08:59:39.000Z</time></trkpt>
<trkpt lat="42.190943" lon="23.584165"><ele>2566.5</ele><time>2026-04-05T08:59:40.000Z</time></trkpt>
<trkpt lat="42.190942" lon="23.584165"><ele>2566.5</ele><time>2026-04-05T08:59:41.000Z</time></trkpt>
<trkpt lat="42.190941" lon="23.584165"><ele>2566.5</ele><time>2026-04-05T08:59:42.000Z</time></trkpt>
<trkpt lat="42.190941" lon="23.584165"><ele>2566.5</ele><time>2026-04-05T08:59:43.000Z</time></trkpt>
<trkpt lat="42.19094" lon="23.584165"><ele>2566.4</ele><time>2026-04-05T08:59:44.000Z</time></trkpt>
<trkpt lat="42.19094" lon="23.584165"><ele>2566.4</ele><time>2026-04-05T08:59:45.000Z</time></trkpt>
<trkpt lat="42.19094" lon="23.584165"><ele>2566.4</ele><time>2026-04-05T08:59:46.000Z</time></trkpt>
<trkpt lat="42.19094" lon="23.584165"><ele>2566.4</ele><time>2026-04-05T08:59:47.000Z</time></trkpt>
<trkpt lat="42.19094" lon="23.584165"><ele>2566.4</ele><time>2026-04-05T08:59:48.000Z</time></trkpt>
<trkpt lat="42.190939" lon="23.584165"><ele>2566.4</ele><time>2026-04-05T08:59:49.000Z</time></trkpt>
<trkpt lat="42.190938" lon="23.584164"><ele>2566.4</ele><time>2026-04-05T08:59:50.000Z</time></trkpt>
<trkpt lat="42.190937" lon="23.584163"><ele>2566.4</ele><time>2026-04-05T08:59:51.000Z</time></trkpt>
<trkpt lat="42.190936" lon="23.584162"><ele>2566.4</ele><time>2026-04-05T08:59:52.000Z</time></trkpt>
<trkpt lat="42.190935" lon="23.584161"><ele>2566.4</ele><time>2026-04-05T08:59:53.000Z</time></trkpt>
<trkpt lat="42.190936" lon="23.58416"><ele>2566.6</ele><time>2026-04-05T08:59:54.000Z</time></trkpt>
<trkpt lat="42.190936" lon="23.584161"><ele>2566.6</ele><time>2026-04-05T08:59:55.000Z</time></trkpt>
<trkpt lat="42.190936" lon="23.584161"><ele>2566.6</ele><time>2026-04-05T08:59:56.000Z</time></trkpt>
<trkpt lat="42.190936" lon="23.584161"><ele>2566.6</ele><time>2026-04-05T08:59:57.000Z</time></trkpt>
<trkpt lat="42.190936" lon="23.584162"><ele>2566.6</ele><time>2026-04-05T08:59:58.000Z</time></trkpt>
<trkpt lat="42.190936" lon="23.584162"><ele>2566.6</ele><time>2026-04-05T08:59:59.000Z</time></trkpt>
<trkpt lat="42.190935" lon="23.58416"><ele>2566.6</ele><time>2026-04-05T09:00:00.000Z</time></trkpt>
<trkpt lat="42.190935" lon="23.58416"><ele>2566.6</ele><time>2026-04-05T09:00:01.000Z</time></trkpt>
<trkpt lat="42.190935" lon="23.584159"><ele>2566.6</ele><time>2026-04-05T09:00:02.000Z</time></trkpt>
<trkpt lat="42.190936" lon="23.584158"><ele>2566.6</ele><time>2026-04-05T09:00:03.000Z</time></trkpt>
<trkpt lat="42.190936" lon="23.584158"><ele>2566.6</ele><time>2026-04-05T09:00:04.000Z</time></trkpt>
<trkpt lat="42.190937" lon="23.584158"><ele>2566.6</ele><time>2026-04-05T09:00:05.000Z</time></trkpt>
<trkpt lat="42.190937" lon="23.584158"><ele>2566.6</ele><time>2026-04-05T09:00:06.000Z</time></trkpt>
<trkpt lat="42.190938" lon="23.584159"><ele>2566.6</ele><time>2026-04-05T09:00:07.000Z</time></trkpt>
<trkpt lat="42.190938" lon="23.584159"><ele>2566.6</ele><time>2026-04-05T09:00:08.000Z</time></trkpt>
<trkpt lat="42.190938" lon="23.584159"><ele>2566.7</ele><time>2026-04-05T09:00:09.000Z</time></trkpt>
<trkpt lat="42.190938" lon="23.584159"><ele>2566.7</ele><time>2026-04-05T09:00:10.000Z</time></trkpt>
<trkpt lat="42.190938" lon="23.584159"><ele>2566.7</ele><time>2026-04-05T09:00:11.000Z</time></trkpt>
<trkpt lat="42.190938" lon="23.584159"><ele>2566.7</ele><time>2026-04-05T09:00:12.000Z</time></trkpt>
<trkpt lat="42.190938" lon="23.58416"><ele>2566.7</ele><time>2026-04-05T09:00:13.000Z</time></trkpt>
<trkpt lat="42.190938" lon="23.58416"><ele>2566.7</ele><time>2026-04-05T09:00:14.000Z</time></trkpt>
<trkpt lat="42.190938" lon="23.584161"><ele>2566.7</ele><time>2026-04-05T09:00:15.000Z</time></trkpt>
<trkpt lat="42.190938" lon="23.584162"><ele>2566.7</ele><time>2026-04-05T09:00:16.000Z</time></trkpt>
<trkpt lat="42.190938" lon="23.584162"><ele>2566.7</ele><time>2026-04-05T09:00:17.000Z</time></trkpt>
<trkpt lat="42.190938" lon="23.584163"><ele>2566.7</ele><time>2026-04-05T09:00:18.000Z</time></trkpt>
<trkpt lat="42.190938" lon="23.584164"><ele>2566.7</ele><time>2026-04-05T09:00:19.000Z</time></trkpt>
<trkpt lat="42.190938" lon="23.584165"><ele>2566.7</ele><time>2026-04-05T09:00:20.000Z</time></trkpt>
<trkpt lat="42.190937" lon="23.584166"><ele>2566.7</ele><time>2026-04-05T09:00:21.000Z</time></trkpt>
<trkpt lat="42.190937" lon="23.584166"><ele>2566.7</ele><time>2026-04-05T09:00:22.000Z</time></trkpt>
<trkpt lat="42.190937" lon="23.584167"><ele>2566.7</ele><time>2026-04-05T09:00:23.000Z</time></trkpt>
<trkpt lat="42.190937" lon="23.584167"><ele>2566.6</ele><time>2026-04-05T09:00:24.000Z</time></trkpt>
<trkpt lat="42.190936" lon="23.584167"><ele>2566.6</ele><time>2026-04-05T09:00:25.000Z</time></trkpt>
<trkpt lat="42.190936" lon="23.584166"><ele>2566.6</ele><time>2026-04-05T09:00:26.000Z</time></trkpt>
<trkpt lat="42.190935" lon="23.584164"><ele>2566.6</ele><time>2026-04-05T09:00:27.000Z</time></trkpt>
<trkpt lat="42.190934" lon="23.584163"><ele>2566.6</ele><time>2026-04-05T09:00:28.000Z</time></trkpt>
<trkpt lat="42.190934" lon="23.584161"><ele>2566.4</ele><time>2026-04-05T09:00:29.000Z</time></trkpt>
<trkpt lat="42.190934" lon="23.584159"><ele>2566.4</ele><time>2026-04-05T09:00:30.000Z</time></trkpt>
<trkpt lat="42.190935" lon="23.584158"><ele>2566.4</ele><time>2026-04-05T09:00:31.000Z</time></trkpt>
<trkpt lat="42.190936" lon="23.584158"><ele>2566.4</ele><time>2026-04-05T09:00:32.000Z</time></trkpt>
<trkpt lat="42.190937" lon="23.584158"><ele>2566.4</ele><time>2026-04-05T09:00:33.000Z</time></trkpt>
<trkpt lat="42.190938" lon="23.584158"><ele>2566.4</ele><time>2026-04-05T09:00:34.000Z</time></trkpt>
<trkpt lat="42.190939" lon="23.584158"><ele>2566.4</ele><time>2026-04-05T09:00:35.000Z</time></trkpt>
<trkpt lat="42.19094" lon="23.584158"><ele>2566.4</ele><time>2026-04-05T09:00:36.000Z</time></trkpt>
<trkpt lat="42.19094" lon="23.584157"><ele>2566.4</ele><time>2026-04-05T09:00:37.000Z</time></trkpt>
<trkpt lat="42.19094" lon="23.584157"><ele>2566.4</ele><time>2026-04-05T09:00:38.000Z</time></trkpt>
<trkpt lat="42.19094" lon="23.584157"><ele>2566.4</ele><time>2026-04-05T09:00:39.000Z</time></trkpt>
<trkpt lat="42.19094" lon="23.584156"><ele>2566.4</ele><time>2026-04-05T09:00:40.000Z</time></trkpt>
<trkpt lat="42.190939" lon="23.584156"><ele>2566.4</ele><time>2026-04-05T09:00:41.000Z</time></trkpt>
<trkpt lat="42.190939" lon="23.584156"><ele>2566.4</ele><time>2026-04-05T09:00:42.000Z</time></trkpt>
<trkpt lat="42.190939" lon="23.584156"><ele>2566.4</ele><time>2026-04-05T09:00:43.000Z</time></trkpt>
<trkpt lat="42.190939" lon="23.584156"><ele>2566.5</ele><time>2026-04-05T09:00:44.000Z</time></trkpt>
<trkpt lat="42.190939" lon="23.584156"><ele>2566.5</ele><time>2026-04-05T09:00:45.000Z</time></trkpt>
<trkpt lat="42.19094" lon="23.584156"><ele>2566.5</ele><time>2026-04-05T09:00:46.000Z</time></trkpt>
<trkpt lat="42.19094" lon="23.584156"><ele>2566.5</ele><time>2026-04-05T09:00:47.000Z</time></trkpt>
<trkpt lat="42.19094" lon="23.584155"><ele>2566.5</ele><time>2026-04-05T09:00:48.000Z</time></trkpt>
<trkpt lat="42.190941" lon="23.584155"><ele>2566.6</ele><time>2026-04-05T09:00:49.000Z</time></trkpt>
<trkpt lat="42.190941" lon="23.584154"><ele>2566.6</ele><time>2026-04-05T09:00:50.000Z</time></trkpt>
<trkpt lat="42.190942" lon="23.584154"><ele>2566.6</ele><time>2026-04-05T09:00:51.000Z</time></trkpt>
<trkpt lat="42.190942" lon="23.584153"><ele>2566.6</ele><time>2026-04-05T09:00:52.000Z</time></trkpt>
<trkpt lat="42.190942" lon="23.584153"><ele>2566.6</ele><time>2026-04-05T09:00:53.000Z</time></trkpt>
<trkpt lat="42.190942" lon="23.584153"><ele>2566.7</ele><time>2026-04-05T09:00:54.000Z</time></trkpt>
<trkpt lat="42.190942" lon="23.584152"><ele>2566.7</ele><time>2026-04-05T09:00:55.000Z</time></trkpt>
<trkpt lat="42.190943" lon="23.584152"><ele>2566.7</ele><time>2026-04-05T09:00:56.000Z</time></trkpt>
<trkpt lat="42.190943" lon="23.584151"><ele>2566.7</ele><time>2026-04-05T09:00:57.000Z</time></trkpt>
<trkpt lat="42.190942" lon="23.58415"><ele>2566.7</ele><time>2026-04-05T09:00:58.000Z</time></trkpt>
<trkpt lat="42.190942" lon="23.584151"><ele>2566.6</ele><time>2026-04-05T09:00:59.000Z</time></trkpt>
<trkpt lat="42.190942" lon="23.584152"><ele>2566.6</ele><time>2026-04-05T09:01:00.000Z</time></trkpt>
<trkpt lat="42.19094" lon="23.584154"><ele>2566.6</ele><time>2026-04-05T09:01:01.000Z</time></trkpt>
<trkpt lat="42.190939" lon="23.584157"><ele>2566.6</ele><time>2026-04-05T09:01:02.000Z</time></trkpt>
<trkpt lat="42.190939" lon="23.584159"><ele>2566.6</ele><time>2026-04-05T09:01:03.000Z</time></trkpt>
<trkpt lat="42.190938" lon="23.584161"><ele>2566.5</ele><time>2026-04-05T09:01:04.000Z</time></trkpt>
<trkpt lat="42.190938" lon="23.584164"><ele>2566.5</ele><time>2026-04-05T09:01:05.000Z</time></trkpt>
<trkpt lat="42.190938" lon="23.584165"><ele>2566.5</ele><time>2026-04-05T09:01:06.000Z</time></trkpt>
<trkpt lat="42.190939" lon="23.584167"><ele>2566.5</ele><time>2026-04-05T09:01:07.000Z</time></trkpt>
<trkpt lat="42.190939" lon="23.584169"><ele>2566.5</ele><time>2026-04-05T09:01:08.000Z</time></trkpt>
<trkpt lat="42.190939" lon="23.58417"><ele>2566.5</ele><time>2026-04-05T09:01:09.000Z</time></trkpt>
<trkpt lat="42.19094" lon="23.584171"><ele>2566.5</ele><time>2026-04-05T09:01:10.000Z</time></trkpt>
<trkpt lat="42.19094" lon="23.584171"><ele>2566.5</ele><time>2026-04-05T09:01:11.000Z</time></trkpt>
<trkpt lat="42.19094" lon="23.584171"><ele>2566.5</ele><time>2026-04-05T09:01:12.000Z</time></trkpt>
<trkpt lat="42.19094" lon="23.584171"><ele>2566.5</ele><time>2026-04-05T09:01:13.000Z</time></trkpt>
<trkpt lat="42.19094" lon="23.58417"><ele>2566.6</ele><time>2026-04-05T09:01:14.000Z</time></trkpt>
<trkpt lat="42.190941" lon="23.584169"><ele>2566.6</ele><time>2026-04-05T09:01:15.000Z</time></trkpt>
<trkpt lat="42.190941" lon="23.584167"><ele>2566.6</ele><time>2026-04-05T09:01:16.000Z</time></trkpt>
<trkpt lat="42.190942" lon="23.584166"><ele>2566.6</ele><time>2026-04-05T09:01:17.000Z</time></trkpt>
<trkpt lat="42.190943" lon="23.584165"><ele>2566.6</ele><time>2026-04-05T09:01:18.000Z</time></trkpt>
<trkpt lat="42.190943" lon="23.584164"><ele>2566.5</ele><time>2026-04-05T09:01:19.000Z</time></trkpt>
<trkpt lat="42.190944" lon="23.584165"><ele>2566.5</ele><time>2026-04-05T09:01:20.000Z</time></trkpt>
<trkpt lat="42.190945" lon="23.584165"><ele>2566.5</ele><time>2026-04-05T09:01:21.000Z</time></trkpt>
<trkpt lat="42.190945" lon="23.584164"><ele>2566.5</ele><time>2026-04-05T09:01:22.000Z</time></trkpt>
<trkpt lat="42.190944" lon="23.584164"><ele>2566.5</ele><time>2026-04-05T09:01:23.000Z</time></trkpt>
<trkpt lat="42.190944" lon="23.584164"><ele>2566.5</ele><time>2026-04-05T09:01:24.000Z</time></trkpt>
<trkpt lat="42.190944" lon="23.584164"><ele>2566.5</ele><time>2026-04-05T09:01:25.000Z</time></trkpt>
<trkpt lat="42.190944" lon="23.584164"><ele>2566.5</ele><time>2026-04-05T09:01:26.000Z</time></trkpt>
<trkpt lat="42.190944" lon="23.584163"><ele>2566.5</ele><time>2026-04-05T09:01:27.000Z</time></trkpt>
<trkpt lat="42.190945" lon="23.584163"><ele>2566.5</ele><time>2026-04-05T09:01:28.000Z</time></trkpt>
<trkpt lat="42.190945" lon="23.584162"><ele>2566.5</ele><time>2026-04-05T09:01:29.000Z</time></trkpt>
<trkpt lat="42.190945" lon="23.584162"><ele>2566.5</ele><time>2026-04-05T09:01:30.000Z</time></trkpt>
<trkpt lat="42.190945" lon="23.584162"><ele>2566.5</ele><time>2026-04-05T09:01:31.000Z</time></trkpt>
<trkpt lat="42.190945" lon="23.584162"><ele>2566.5</ele><time>2026-04-05T09:01:32.000Z</time></trkpt>
<trkpt lat="42.190945" lon="23.584162"><ele>2566.5</ele><time>2026-04-05T09:01:33.000Z</time></trkpt>
<trkpt lat="42.190946" lon="23.584161"><ele>2566.5</ele><time>2026-04-05T09:01:34.000Z</time></trkpt>
<trkpt lat="42.190946" lon="23.584161"><ele>2566.5</ele><time>2026-04-05T09:01:35.000Z</time></trkpt>
<trkpt lat="42.190946" lon="23.584161"><ele>2566.5</ele><time>2026-04-05T09:01:36.000Z</time></trkpt>
<trkpt lat="42.190946" lon="23.584161"><ele>2566.5</ele><time>2026-04-05T09:01:37.000Z</time></trkpt>
<trkpt lat="42.190946" lon="23.584161"><ele>2566.5</ele><time>2026-04-05T09:01:38.000Z</time></trkpt>
<trkpt lat="42.190946" lon="23.584161"><ele>2566.4</ele><time>2026-04-05T09:01:39.000Z</time></trkpt>
<trkpt lat="42.190946" lon="23.584161"><ele>2566.4</ele><time>2026-04-05T09:01:40.000Z</time></trkpt>
<trkpt lat="42.190945" lon="23.584161"><ele>2566.4</ele><time>2026-04-05T09:01:41.000Z</time></trkpt>
<trkpt lat="42.190944" lon="23.58416"><ele>2566.4</ele><time>2026-04-05T09:01:42.000Z</time></trkpt>
<trkpt lat="42.190942" lon="23.584159"><ele>2566.4</ele><time>2026-04-05T09:01:43.000Z</time></trkpt>
<trkpt lat="42.190942" lon="23.584158"><ele>2566.2</ele><time>2026-04-05T09:01:44.000Z</time></trkpt>
<trkpt lat="42.190941" lon="23.584157"><ele>2566.2</ele><time>2026-04-05T09:01:45.000Z</time></trkpt>
<trkpt lat="42.190941" lon="23.584157"><ele>2566.2</ele><time>2026-04-05T09:01:46.000Z</time></trkpt>
<trkpt lat="42.190943" lon="23.584157"><ele>2566.2</ele><time>2026-04-05T09:01:47.000Z</time></trkpt>
<trkpt lat="42.190944" lon="23.584156"><ele>2566.2</ele><time>2026-04-05T09:01:48.000Z</time></trkpt>
<trkpt lat="42.190946" lon="23.584157"><ele>2566.1</ele><time>2026-04-05T09:01:49.000Z</time></trkpt>
<trkpt lat="42.190947" lon="23.584157"><ele>2566.1</ele><time>2026-04-05T09:01:50.000Z</time></trkpt>
<trkpt lat="42.190947" lon="23.584156"><ele>2566.1</ele><time>2026-04-05T09:01:51.000Z</time></trkpt>
<trkpt lat="42.190948" lon="23.584155"><ele>2566.1</ele><time>2026-04-05T09:01:52.000Z</time></trkpt>
<trkpt lat="42.190948" lon="23.584155"><ele>2566.1</ele><time>2026-04-05T09:01:53.000Z</time></trkpt>
<trkpt lat="42.190948" lon="23.584155"><ele>2566.2</ele><time>2026-04-05T09:01:54.000Z</time></trkpt>
<trkpt lat="42.190948" lon="23.584155"><ele>2566.2</ele><time>2026-04-05T09:01:55.000Z</time></trkpt>
<trkpt lat="42.190948" lon="23.584155"><ele>2566.2</ele><time>2026-04-05T09:01:56.000Z</time></trkpt>
<trkpt lat="42.190948" lon="23.584155"><ele>2566.2</ele><time>2026-04-05T09:01:57.000Z</time></trkpt>
<trkpt lat="42.190947" lon="23.584155"><ele>2566.2</ele><time>2026-04-05T09:01:58.000Z</time></trkpt>
<trkpt lat="42.190947" lon="23.584155"><ele>2566.2</ele><time>2026-04-05T09:01:59.000Z</time></trkpt>
<trkpt lat="42.190947" lon="23.584154"><ele>2566.2</ele><time>2026-04-05T09:02:00.000Z</time></trkpt>
<trkpt lat="42.190947" lon="23.584154"><ele>2566.2</ele><time>2026-04-05T09:02:01.000Z</time></trkpt>
<trkpt lat="42.190947" lon="23.584154"><ele>2566.2</ele><time>2026-04-05T09:02:02.000Z</time></trkpt>
<trkpt lat="42.190947" lon="23.584153"><ele>2566.2</ele><time>2026-04-05T09:02:03.000Z</time></trkpt>
<trkpt lat="42.190945" lon="23.584154"><ele>2566.1</ele><time>2026-04-05T09:02:04.000Z</time></trkpt>
<trkpt lat="42.190945" lon="23.584154"><ele>2566.1</ele><time>2026-04-05T09:02:05.000Z</time></trkpt>
<trkpt lat="42.190943" lon="23.584155"><ele>2566.1</ele><time>2026-04-05T09:02:06.000Z</time></trkpt>
<trkpt lat="42.190942" lon="23.584157"><ele>2566.1</ele><time>2026-04-05T09:02:07.000Z</time></trkpt>
<trkpt lat="42.190941" lon="23.58416"><ele>2566.1</ele><time>2026-04-05T09:02:08.000Z</time></trkpt>
<trkpt lat="42.190942" lon="23.584162"><ele>2566.1</ele><time>2026-04-05T09:02:09.000Z</time></trkpt>
<trkpt lat="42.190942" lon="23.584164"><ele>2566.1</ele><time>2026-04-05T09:02:10.000Z</time></trkpt>
<trkpt lat="42.190943" lon="23.584167"><ele>2566.1</ele><time>2026-04-05T09:02:11.000Z</time></trkpt>
<trkpt lat="42.190943" lon="23.584169"><ele>2566.1</ele><time>2026-04-05T09:02:12.000Z</time></trkpt>
<trkpt lat="42.190945" lon="23.584171"><ele>2566.1</ele><time>2026-04-05T09:02:13.000Z</time></trkpt>
<trkpt lat="42.190946" lon="23.584173"><ele>2566.3</ele><time>2026-04-05T09:02:14.000Z</time></trkpt>
<trkpt lat="42.190948" lon="23.584174"><ele>2566.3</ele><time>2026-04-05T09:02:15.000Z</time></trkpt>
<trkpt lat="42.190949" lon="23.584174"><ele>2566.3</ele><time>2026-04-05T09:02:16.000Z</time></trkpt>
<trkpt lat="42.19095" lon="23.584174"><ele>2566.3</ele><time>2026-04-05T09:02:17.000Z</time></trkpt>
<trkpt lat="42.190951" lon="23.584173"><ele>2566.3</ele><time>2026-04-05T09:02:18.000Z</time></trkpt>
<trkpt lat="42.190952" lon="23.584172"><ele>2566.5</ele><time>2026-04-05T09:02:19.000Z</time></trkpt>
<trkpt lat="42.190952" lon="23.584172"><ele>2566.5</ele><time>2026-04-05T09:02:20.000Z</time></trkpt>
<trkpt lat="42.190953" lon="23.584173"><ele>2566.5</ele><time>2026-04-05T09:02:21.000Z</time></trkpt>
<trkpt lat="42.190955" lon="23.584175"><ele>2566.5</ele><time>2026-04-05T09:02:22.000Z</time></trkpt>
<trkpt lat="42.190957" lon="23.584177"><ele>2566.5</ele><time>2026-04-05T09:02:23.000Z</time></trkpt>
<trkpt lat="42.190958" lon="23.584179"><ele>2566.6</ele><time>2026-04-05T09:02:24.000Z</time></trkpt>
<trkpt lat="42.190959" lon="23.58418"><ele>2566.6</ele><time>2026-04-05T09:02:25.000Z</time></trkpt>
<trkpt lat="42.190959" lon="23.584181"><ele>2566.6</ele><time>2026-04-05T09:02:26.000Z</time></trkpt>
<trkpt lat="42.190959" lon="23.584181"><ele>2566.6</ele><time>2026-04-05T09:02:27.000Z</time></trkpt>
<trkpt lat="42.190958" lon="23.584181"><ele>2566.6</ele><time>2026-04-05T09:02:28.000Z</time></trkpt>
<trkpt lat="42.190957" lon="23.58418"><ele>2566.6</ele><time>2026-04-05T09:02:29.000Z</time></trkpt>
<trkpt lat="42.190957" lon="23.584179"><ele>2566.6</ele><time>2026-04-05T09:02:30.000Z</time></trkpt>
<trkpt lat="42.190956" lon="23.584178"><ele>2566.6</ele><time>2026-04-05T09:02:31.000Z</time></trkpt>
<trkpt lat="42.190956" lon="23.584177"><ele>2566.6</ele><time>2026-04-05T09:02:32.000Z</time></trkpt>
<trkpt lat="42.190956" lon="23.584176"><ele>2566.6</ele><time>2026-04-05T09:02:33.000Z</time></trkpt>
<trkpt lat="42.190957" lon="23.584176"><ele>2566.6</ele><time>2026-04-05T09:02:34.000Z</time></trkpt>
<trkpt lat="42.190957" lon="23.584175"><ele>2566.6</ele><time>2026-04-05T09:02:35.000Z</time></trkpt>
<trkpt lat="42.190957" lon="23.584174"><ele>2566.6</ele><time>2026-04-05T09:02:36.000Z</time></trkpt>
<trkpt lat="42.190957" lon="23.584173"><ele>2566.6</ele><time>2026-04-05T09:02:37.000Z</time></trkpt>
<trkpt lat="42.190956" lon="23.584171"><ele>2566.6</ele><time>2026-04-05T09:02:38.000Z</time></trkpt>
<trkpt lat="42.190955" lon="23.584169"><ele>2566.5</ele><time>2026-04-05T09:02:39.000Z</time></trkpt>
<trkpt lat="42.190953" lon="23.584166"><ele>2566.5</ele><time>2026-04-05T09:02:40.000Z</time></trkpt>
<trkpt lat="42.190952" lon="23.584164"><ele>2566.5</ele><time>2026-04-05T09:02:41.000Z</time></trkpt>
<trkpt lat="42.190952" lon="23.584162"><ele>2566.5</ele><time>2026-04-05T09:02:42.000Z</time></trkpt>
<trkpt lat="42.190951" lon="23.584161"><ele>2566.5</ele><time>2026-04-05T09:02:43.000Z</time></trkpt>
<trkpt lat="42.190951" lon="23.58416"><ele>2566.5</ele><time>2026-04-05T09:02:44.000Z</time></trkpt>
<trkpt lat="42.190951" lon="23.58416"><ele>2566.5</ele><time>2026-04-05T09:02:45.000Z</time></trkpt>
<trkpt lat="42.190951" lon="23.58416"><ele>2566.5</ele><time>2026-04-05T09:02:46.000Z</time></trkpt>
<trkpt lat="42.190951" lon="23.58416"><ele>2566.5</ele><time>2026-04-05T09:02:47.000Z</time></trkpt>
<trkpt lat="42.190952" lon="23.58416"><ele>2566.5</ele><time>2026-04-05T09:02:48.000Z</time></trkpt>
<trkpt lat="42.190952" lon="23.584161"><ele>2566.5</ele><time>2026-04-05T09:02:49.000Z</time></trkpt>
<trkpt lat="42.190952" lon="23.584161"><ele>2566.5</ele><time>2026-04-05T09:02:50.000Z</time></trkpt>
<trkpt lat="42.190953" lon="23.584162"><ele>2566.5</ele><time>2026-04-05T09:02:51.000Z</time></trkpt>
<trkpt lat="42.190953" lon="23.584162"><ele>2566.5</ele><time>2026-04-05T09:02:52.000Z</time></trkpt>
<trkpt lat="42.190953" lon="23.584162"><ele>2566.5</ele><time>2026-04-05T09:02:53.000Z</time></trkpt>
<trkpt lat="42.190953" lon="23.584162"><ele>2566.7</ele><time>2026-04-05T09:02:54.000Z</time></trkpt>
<trkpt lat="42.190953" lon="23.584163"><ele>2566.7</ele><time>2026-04-05T09:02:55.000Z</time></trkpt>
<trkpt lat="42.190952" lon="23.584163"><ele>2566.7</ele><time>2026-04-05T09:02:56.000Z</time></trkpt>
<trkpt lat="42.190951" lon="23.584163"><ele>2566.7</ele><time>2026-04-05T09:02:57.000Z</time></trkpt>
<trkpt lat="42.19095" lon="23.584162"><ele>2566.7</ele><time>2026-04-05T09:02:58.000Z</time></trkpt>
<trkpt lat="42.19095" lon="23.584162"><ele>2566.8</ele><time>2026-04-05T09:02:59.000Z</time></trkpt>
<trkpt lat="42.19095" lon="23.584162"><ele>2566.8</ele><time>2026-04-05T09:03:00.000Z</time></trkpt>
<trkpt lat="42.19095" lon="23.584162"><ele>2566.8</ele><time>2026-04-05T09:03:01.000Z</time></trkpt>
<trkpt lat="42.190951" lon="23.584162"><ele>2566.8</ele><time>2026-04-05T09:03:02.000Z</time></trkpt>
<trkpt lat="42.190952" lon="23.584162"><ele>2566.8</ele><time>2026-04-05T09:03:03.000Z</time></trkpt>
<trkpt lat="42.190953" lon="23.584162"><ele>2566.8</ele><time>2026-04-05T09:03:04.000Z</time></trkpt>
<trkpt lat="42.190954" lon="23.584162"><ele>2566.8</ele><time>2026-04-05T09:03:05.000Z</time></trkpt>
<trkpt lat="42.190955" lon="23.584162"><ele>2566.8</ele><time>2026-04-05T09:03:06.000Z</time></trkpt>
<trkpt lat="42.190955" lon="23.584162"><ele>2566.8</ele><time>2026-04-05T09:03:07.000Z</time></trkpt>
<trkpt lat="42.190954" lon="23.584161"><ele>2566.8</ele><time>2026-04-05T09:03:08.000Z</time></trkpt>
<trkpt lat="42.190954" lon="23.584161"><ele>2566.6</ele><time>2026-04-05T09:03:09.000Z</time></trkpt>
<trkpt lat="42.190953" lon="23.58416"><ele>2566.6</ele><time>2026-04-05T09:03:10.000Z</time></trkpt>
<trkpt lat="42.190952" lon="23.584161"><ele>2566.6</ele><time>2026-04-05T09:03:11.000Z</time></trkpt>
<trkpt lat="42.19095" lon="23.584164"><ele>2566.6</ele><time>2026-04-05T09:03:12.000Z</time></trkpt>
<trkpt lat="42.190946" lon="23.584168"><ele>2566.6</ele><time>2026-04-05T09:03:13.000Z</time></trkpt>
<trkpt lat="42.190941" lon="23.584171"><ele>2566.5</ele><time>2026-04-05T09:03:14.000Z</time></trkpt>
<trkpt lat="42.190933" lon="23.584176"><ele>2566.5</ele><time>2026-04-05T09:03:15.000Z</time></trkpt>
<trkpt lat="42.190925" lon="23.584178"><ele>2566.5</ele><time>2026-04-05T09:03:16.000Z</time></trkpt>
<trkpt lat="42.190919" lon="23.584179"><ele>2566.5</ele><time>2026-04-05T09:03:17.000Z</time></trkpt>
<trkpt lat="42.190911" lon="23.584179"><ele>2566.5</ele><time>2026-04-05T09:03:18.000Z</time></trkpt>
<trkpt lat="42.190906" lon="23.58418"><ele>2566.5</ele><time>2026-04-05T09:03:19.000Z</time></trkpt>
<trkpt lat="42.1909" lon="23.584181"><ele>2566.5</ele><time>2026-04-05T09:03:20.000Z</time></trkpt>
<trkpt lat="42.190895" lon="23.584181"><ele>2566.5</ele><time>2026-04-05T09:03:21.000Z</time></trkpt>
<trkpt lat="42.190889" lon="23.584183"><ele>2566.5</ele><time>2026-04-05T09:03:22.000Z</time></trkpt>
<trkpt lat="42.190883" lon="23.584184"><ele>2566.5</ele><time>2026-04-05T09:03:23.000Z</time></trkpt>
<trkpt lat="42.190877" lon="23.584186"><ele>2566.6</ele><time>2026-04-05T09:03:24.000Z</time></trkpt>
<trkpt lat="42.190871" lon="23.584188"><ele>2566.6</ele><time>2026-04-05T09:03:25.000Z</time></trkpt>
<trkpt lat="42.190864" lon="23.584192"><ele>2566.6</ele><time>2026-04-05T09:03:26.000Z</time></trkpt>
<trkpt lat="42.190859" lon="23.584195"><ele>2566.6</ele><time>2026-04-05T09:03:27.000Z</time></trkpt>
<trkpt lat="42.190855" lon="23.584197"><ele>2566.6</ele><time>2026-04-05T09:03:28.000Z</time></trkpt>
<trkpt lat="42.190851" lon="23.5842"><ele>2566.7</ele><time>2026-04-05T09:03:29.000Z</time></trkpt>
<trkpt lat="42.190849" lon="23.584201"><ele>2566.7</ele><time>2026-04-05T09:03:30.000Z</time></trkpt>
<trkpt lat="42.19085" lon="23.584202"><ele>2566.7</ele><time>2026-04-05T09:03:31.000Z</time></trkpt>
<trkpt lat="42.190851" lon="23.584202"><ele>2566.7</ele><time>2026-04-05T09:03:32.000Z</time></trkpt>
<trkpt lat="42.19085" lon="23.584203"><ele>2566.7</ele><time>2026-04-05T09:03:33.000Z</time></trkpt>
<trkpt lat="42.19085" lon="23.584204"><ele>2566.7</ele><time>2026-04-05T09:03:34.000Z</time></trkpt>
<trkpt lat="42.19085" lon="23.584205"><ele>2566.7</ele><time>2026-04-05T09:03:35.000Z</time></trkpt>
<trkpt lat="42.19085" lon="23.584205"><ele>2566.7</ele><time>2026-04-05T09:03:36.000Z</time></trkpt>
<trkpt lat="42.190849" lon="23.584205"><ele>2566.7</ele><time>2026-04-05T09:03:37.000Z</time></trkpt>
<trkpt lat="42.190849" lon="23.584205"><ele>2566.7</ele><time>2026-04-05T09:03:38.000Z</time></trkpt>
<trkpt lat="42.190849" lon="23.584205"><ele>2566.7</ele><time>2026-04-05T09:03:39.000Z</time></trkpt>
<trkpt lat="42.190849" lon="23.584205"><ele>2566.7</ele><time>2026-04-05T09:03:40.000Z</time></trkpt>
<trkpt lat="42.190849" lon="23.584206"><ele>2566.7</ele><time>2026-04-05T09:03:41.000Z</time></trkpt>
<trkpt lat="42.19085" lon="23.584207"><ele>2566.7</ele><time>2026-04-05T09:03:42.000Z</time></trkpt>
<trkpt lat="42.19085" lon="23.584208"><ele>2566.7</ele><time>2026-04-05T09:03:43.000Z</time></trkpt>
<trkpt lat="42.19085" lon="23.584209"><ele>2566.8</ele><time>2026-04-05T09:03:44.000Z</time></trkpt>
<trkpt lat="42.190849" lon="23.58421"><ele>2566.8</ele><time>2026-04-05T09:03:45.000Z</time></trkpt>
<trkpt lat="42.190848" lon="23.584212"><ele>2566.8</ele><time>2026-04-05T09:03:46.000Z</time></trkpt>
<trkpt lat="42.190847" lon="23.584213"><ele>2566.8</ele><time>2026-04-05T09:03:47.000Z</time></trkpt>
<trkpt lat="42.190846" lon="23.584214"><ele>2566.8</ele><time>2026-04-05T09:03:48.000Z</time></trkpt>
<trkpt lat="42.190845" lon="23.584215"><ele>2566.8</ele><time>2026-04-05T09:03:49.000Z</time></trkpt>
<trkpt lat="42.190845" lon="23.584215"><ele>2566.8</ele><time>2026-04-05T09:03:50.000Z</time></trkpt>
<trkpt lat="42.190845" lon="23.584214"><ele>2566.8</ele><time>2026-04-05T09:03:51.000Z</time></trkpt>
<trkpt lat="42.190846" lon="23.584214"><ele>2566.8</ele><time>2026-04-05T09:03:52.000Z</time></trkpt>
<trkpt lat="42.190845" lon="23.584215"><ele>2566.8</ele><time>2026-04-05T09:03:53.000Z</time></trkpt>
<trkpt lat="42.190844" lon="23.584215"><ele>2566.8</ele><time>2026-04-05T09:03:54.000Z</time></trkpt>
<trkpt lat="42.190845" lon="23.584214"><ele>2566.8</ele><time>2026-04-05T09:03:55.000Z</time></trkpt>
<trkpt lat="42.190844" lon="23.584213"><ele>2566.8</ele><time>2026-04-05T09:03:56.000Z</time></trkpt>
<trkpt lat="42.190843" lon="23.584212"><ele>2566.8</ele><time>2026-04-05T09:03:57.000Z</time></trkpt>
<trkpt lat="42.190841" lon="23.58421"><ele>2566.8</ele><time>2026-04-05T09:03:58.000Z</time></trkpt>
<trkpt lat="42.19084" lon="23.584209"><ele>2566.7</ele><time>2026-04-05T09:03:59.000Z</time></trkpt>
<trkpt lat="42.190839" lon="23.584209"><ele>2566.7</ele><time>2026-04-05T09:04:00.000Z</time></trkpt>
<trkpt lat="42.190837" lon="23.584208"><ele>2566.7</ele><time>2026-04-05T09:04:01.000Z</time></trkpt>
<trkpt lat="42.190838" lon="23.584209"><ele>2566.7</ele><time>2026-04-05T09:04:02.000Z</time></trkpt>
<trkpt lat="42.190838" lon="23.584209"><ele>2566.7</ele><time>2026-04-05T09:04:03.000Z</time></trkpt>
<trkpt lat="42.190838" lon="23.584209"><ele>2566.7</ele><time>2026-04-05T09:04:04.000Z</time></trkpt>
<trkpt lat="42.190839" lon="23.584209"><ele>2566.7</ele><time>2026-04-05T09:04:05.000Z</time></trkpt>
<trkpt lat="42.190839" lon="23.58421"><ele>2566.7</ele><time>2026-04-05T09:04:06.000Z</time></trkpt>
<trkpt lat="42.190838" lon="23.58421"><ele>2566.7</ele><time>2026-04-05T09:04:07.000Z</time></trkpt>
<trkpt lat="42.190838" lon="23.58421"><ele>2566.7</ele><time>2026-04-05T09:04:08.000Z</time></trkpt>
<trkpt lat="42.190838" lon="23.58421"><ele>2566.9</ele><time>2026-04-05T09:04:09.000Z</time></trkpt>
<trkpt lat="42.190838" lon="23.58421"><ele>2566.9</ele><time>2026-04-05T09:04:10.000Z</time></trkpt>
<trkpt lat="42.190837" lon="23.58421"><ele>2566.9</ele><time>2026-04-05T09:04:11.000Z</time></trkpt>
<trkpt lat="42.190834" lon="23.58421"><ele>2566.9</ele><time>2026-04-05T09:04:12.000Z</time></trkpt>
<trkpt lat="42.190831" lon="23.584211"><ele>2566.9</ele><time>2026-04-05T09:04:13.000Z</time></trkpt>
<trkpt lat="42.190827" lon="23.584213"><ele>2567.1</ele><time>2026-04-05T09:04:14.000Z</time></trkpt>
<trkpt lat="42.19082" lon="23.584215"><ele>2567.1</ele><time>2026-04-05T09:04:15.000Z</time></trkpt>
<trkpt lat="42.190815" lon="23.584218"><ele>2567.1</ele><time>2026-04-05T09:04:16.000Z</time></trkpt>
<trkpt lat="42.19081" lon="23.58422"><ele>2567.1</ele><time>2026-04-05T09:04:17.000Z</time></trkpt>
<trkpt lat="42.190806" lon="23.584223"><ele>2567.1</ele><time>2026-04-05T09:04:18.000Z</time></trkpt>
<trkpt lat="42.190803" lon="23.584224"><ele>2567.1</ele><time>2026-04-05T09:04:19.000Z</time></trkpt>
<trkpt lat="42.1908" lon="23.584227"><ele>2567.1</ele><time>2026-04-05T09:04:20.000Z</time></trkpt>
<trkpt lat="42.190796" lon="23.584229"><ele>2567.1</ele><time>2026-04-05T09:04:21.000Z</time></trkpt>
<trkpt lat="42.190793" lon="23.584233"><ele>2567.1</ele><time>2026-04-05T09:04:22.000Z</time></trkpt>
<trkpt lat="42.190789" lon="23.584238"><ele>2567.1</ele><time>2026-04-05T09:04:23.000Z</time></trkpt>
<trkpt lat="42.190783" lon="23.584245"><ele>2567.2</ele><time>2026-04-05T09:04:24.000Z</time></trkpt>
<trkpt lat="42.190777" lon="23.58425"><ele>2567.2</ele><time>2026-04-05T09:04:25.000Z</time></trkpt>
<trkpt lat="42.190772" lon="23.584257"><ele>2567.2</ele><time>2026-04-05T09:04:26.000Z</time></trkpt>
<trkpt lat="42.190765" lon="23.584264"><ele>2567.2</ele><time>2026-04-05T09:04:27.000Z</time></trkpt>
<trkpt lat="42.190759" lon="23.584272"><ele>2567.2</ele><time>2026-04-05T09:04:28.000Z</time></trkpt>
<trkpt lat="42.190755" lon="23.584282"><ele>2567.3</ele><time>2026-04-05T09:04:29.000Z</time></trkpt>
<trkpt lat="42.190751" lon="23.584293"><ele>2567.3</ele><time>2026-04-05T09:04:30.000Z</time></trkpt>
<trkpt lat="42.190747" lon="23.584305"><ele>2567.3</ele><time>2026-04-05T09:04:31.000Z</time></trkpt>
<trkpt lat="42.190742" lon="23.584316"><ele>2567.3</ele><time>2026-04-05T09:04:32.000Z</time></trkpt>
<trkpt lat="42.190737" lon="23.584328"><ele>2567.3</ele><time>2026-04-05T09:04:33.000Z</time></trkpt>
<trkpt lat="42.19073" lon="23.584339"><ele>2567.3</ele><time>2026-04-05T09:04:34.000Z</time></trkpt>
<trkpt lat="42.190724" lon="23.584348"><ele>2567.3</ele><time>2026-04-05T09:04:35.000Z</time></trkpt>
<trkpt lat="42.19072" lon="23.584355"><ele>2567.3</ele><time>2026-04-05T09:04:36.000Z</time></trkpt>
<trkpt lat="42.190717" lon="23.58436"><ele>2567.3</ele><time>2026-04-05T09:04:37.000Z</time></trkpt>
<trkpt lat="42.190713" lon="23.584364"><ele>2567.3</ele><time>2026-04-05T09:04:38.000Z</time></trkpt>
<trkpt lat="42.19071" lon="23.584368"><ele>2567.6</ele><time>2026-04-05T09:04:39.000Z</time></trkpt>
<trkpt lat="42.190705" lon="23.584374"><ele>2567.6</ele><time>2026-04-05T09:04:40.000Z</time></trkpt>
<trkpt lat="42.190697" lon="23.584381"><ele>2567.6</ele><time>2026-04-05T09:04:41.000Z</time></trkpt>
<trkpt lat="42.190689" lon="23.58439"><ele>2567.6</ele><time>2026-04-05T09:04:42.000Z</time></trkpt>
<trkpt lat="42.190681" lon="23.584399"><ele>2567.6</ele><time>2026-04-05T09:04:43.000Z</time></trkpt>
<trkpt lat="42.190674" lon="23.584409"><ele>2567.9</ele><time>2026-04-05T09:04:44.000Z</time></trkpt>
<trkpt lat="42.190668" lon="23.584416"><ele>2567.9</ele><time>2026-04-05T09:04:45.000Z</time></trkpt>
<trkpt lat="42.190663" lon="23.584422"><ele>2567.9</ele><time>2026-04-05T09:04:46.000Z</time></trkpt>
<trkpt lat="42.190658" lon="23.584429"><ele>2567.9</ele><time>2026-04-05T09:04:47.000Z</time></trkpt>
<trkpt lat="42.190652" lon="23.584434"><ele>2567.9</ele><time>2026-04-05T09:04:48.000Z</time></trkpt>
<trkpt lat="42.190646" lon="23.584439"><ele>2568.1</ele><time>2026-04-05T09:04:49.000Z</time></trkpt>
<trkpt lat="42.19064" lon="23.584444"><ele>2568.1</ele><time>2026-04-05T09:04:50.000Z</time></trkpt>
<trkpt lat="42.190633" lon="23.584451"><ele>2568.1</ele><time>2026-04-05T09:04:51.000Z</time></trkpt>
<trkpt lat="42.190626" lon="23.584459"><ele>2568.1</ele><time>2026-04-05T09:04:52.000Z</time></trkpt>
<trkpt lat="42.19062" lon="23.584468"><ele>2568.1</ele><time>2026-04-05T09:04:53.000Z</time></trkpt>
<trkpt lat="42.190612" lon="23.584479"><ele>2568.4</ele><time>2026-04-05T09:04:54.000Z</time></trkpt>
<trkpt lat="42.190605" lon="23.58449"><ele>2568.4</ele><time>2026-04-05T09:04:55.000Z</time></trkpt>
<trkpt lat="42.190597" lon="23.584501"><ele>2568.4</ele><time>2026-04-05T09:04:56.000Z</time></trkpt>
<trkpt lat="42.190589" lon="23.584511"><ele>2568.4</ele><time>2026-04-05T09:04:57.000Z</time></trkpt>
<trkpt lat="42.190581" lon="23.58452"><ele>2568.4</ele><time>2026-04-05T09:04:58.000Z</time></trkpt>
<trkpt lat="42.190573" lon="23.584529"><ele>2568.8</ele><time>2026-04-05T09:04:59.000Z</time></trkpt>
<trkpt lat="42.190565" lon="23.584537"><ele>2568.8</ele><time>2026-04-05T09:05:00.000Z</time></trkpt>
<trkpt lat="42.190558" lon="23.584545"><ele>2568.8</ele><time>2026-04-05T09:05:01.000Z</time></trkpt>
<trkpt lat="42.190551" lon="23.584554"><ele>2568.8</ele><time>2026-04-05T09:05:02.000Z</time></trkpt>
<trkpt lat="42.190544" lon="23.584563"><ele>2568.8</ele><time>2026-04-05T09:05:03.000Z</time></trkpt>
<trkpt lat="42.190537" lon="23.584573"><ele>2569</ele><time>2026-04-05T09:05:04.000Z</time></trkpt>
<trkpt lat="42.19053" lon="23.584582"><ele>2569</ele><time>2026-04-05T09:05:05.000Z</time></trkpt>
<trkpt lat="42.190523" lon="23.584592"><ele>2569</ele><time>2026-04-05T09:05:06.000Z</time></trkpt>
<trkpt lat="42.190516" lon="23.584602"><ele>2569</ele><time>2026-04-05T09:05:07.000Z</time></trkpt>
<trkpt lat="42.190509" lon="23.58461"><ele>2569</ele><time>2026-04-05T09:05:08.000Z</time></trkpt>
<trkpt lat="42.190502" lon="23.584619"><ele>2569.7</ele><time>2026-04-05T09:05:09.000Z</time></trkpt>
<trkpt lat="42.190495" lon="23.584628"><ele>2569.7</ele><time>2026-04-05T09:05:10.000Z</time></trkpt>
<trkpt lat="42.190488" lon="23.584636"><ele>2569.7</ele><time>2026-04-05T09:05:11.000Z</time></trkpt>
<trkpt lat="42.19048" lon="23.584642"><ele>2569.7</ele><time>2026-04-05T09:05:12.000Z</time></trkpt>
<trkpt lat="42.190472" lon="23.584649"><ele>2569.7</ele><time>2026-04-05T09:05:13.000Z</time></trkpt>
<trkpt lat="42.190465" lon="23.584655"><ele>2570.7</ele><time>2026-04-05T09:05:14.000Z</time></trkpt>
<trkpt lat="42.190459" lon="23.58466"><ele>2570.7</ele><time>2026-04-05T09:05:15.000Z</time></trkpt>
<trkpt lat="42.190453" lon="23.584666"><ele>2570.7</ele><time>2026-04-05T09:05:16.000Z</time></trkpt>
<trkpt lat="42.190448" lon="23.584672"><ele>2570.7</ele><time>2026-04-05T09:05:17.000Z</time></trkpt>
<trkpt lat="42.190444" lon="23.584677"><ele>2570.7</ele><time>2026-04-05T09:05:18.000Z</time></trkpt>
<trkpt lat="42.19044" lon="23.584682"><ele>2571.3</ele><time>2026-04-05T09:05:19.000Z</time></trkpt>
<trkpt lat="42.190436" lon="23.584686"><ele>2571.3</ele><time>2026-04-05T09:05:20.000Z</time></trkpt>
<trkpt lat="42.190432" lon="23.584692"><ele>2571.3</ele><time>2026-04-05T09:05:21.000Z</time></trkpt>
<trkpt lat="42.190428" lon="23.584696"><ele>2571.3</ele><time>2026-04-05T09:05:22.000Z</time></trkpt>
<trkpt lat="42.190421" lon="23.584701"><ele>2571.3</ele><time>2026-04-05T09:05:23.000Z</time></trkpt>
<trkpt lat="42.190416" lon="23.584705"><ele>2572.6</ele><time>2026-04-05T09:05:24.000Z</time></trkpt>
<trkpt lat="42.190409" lon="23.58471"><ele>2572.6</ele><time>2026-04-05T09:05:25.000Z</time></trkpt>
<trkpt lat="42.190403" lon="23.584715"><ele>2572.6</ele><time>2026-04-05T09:05:26.000Z</time></trkpt>
<trkpt lat="42.190398" lon="23.58472"><ele>2572.6</ele><time>2026-04-05T09:05:27.000Z</time></trkpt>
<trkpt lat="42.190393" lon="23.584726"><ele>2572.6</ele><time>2026-04-05T09:05:28.000Z</time></trkpt>
<trkpt lat="42.190388" lon="23.584731"><ele>2573.8</ele><time>2026-04-05T09:05:29.000Z</time></trkpt>
<trkpt lat="42.190384" lon="23.584735"><ele>2573.8</ele><time>2026-04-05T09:05:30.000Z</time></trkpt>
<trkpt lat="42.19038" lon="23.584738"><ele>2573.8</ele><time>2026-04-05T09:05:31.000Z</time></trkpt>
<trkpt lat="42.190377" lon="23.58474"><ele>2573.8</ele><time>2026-04-05T09:05:32.000Z</time></trkpt>
<trkpt lat="42.190374" lon="23.584742"><ele>2573.8</ele><time>2026-04-05T09:05:33.000Z</time></trkpt>
<trkpt lat="42.190371" lon="23.584746"><ele>2574.4</ele><time>2026-04-05T09:05:34.000Z</time></trkpt>
<trkpt lat="42.190367" lon="23.584749"><ele>2574.4</ele><time>2026-04-05T09:05:35.000Z</time></trkpt>
<trkpt lat="42.190364" lon="23.584753"><ele>2574.4</ele><time>2026-04-05T09:05:36.000Z</time></trkpt>
<trkpt lat="42.190361" lon="23.584756"><ele>2574.4</ele><time>2026-04-05T09:05:37.000Z</time></trkpt>
<trkpt lat="42.190358" lon="23.584762"><ele>2574.4</ele><time>2026-04-05T09:05:38.000Z</time></trkpt>
<trkpt lat="42.190355" lon="23.584766"><ele>2575.4</ele><time>2026-04-05T09:05:39.000Z</time></trkpt>
<trkpt lat="42.190352" lon="23.584771"><ele>2575.4</ele><time>2026-04-05T09:05:40.000Z</time></trkpt>
<trkpt lat="42.190348" lon="23.584777"><ele>2575.4</ele><time>2026-04-05T09:05:41.000Z</time></trkpt>
<trkpt lat="42.190344" lon="23.584783"><ele>2575.4</ele><time>2026-04-05T09:05:42.000Z</time></trkpt>
<trkpt lat="42.19034" lon="23.584788"><ele>2575.4</ele><time>2026-04-05T09:05:43.000Z</time></trkpt>
<trkpt lat="42.190336" lon="23.584793"><ele>2576.3</ele><time>2026-04-05T09:05:44.000Z</time></trkpt>
<trkpt lat="42.190333" lon="23.584798"><ele>2576.3</ele><time>2026-04-05T09:05:45.000Z</time></trkpt>
<trkpt lat="42.190329" lon="23.584805"><ele>2576.3</ele><time>2026-04-05T09:05:46.000Z</time></trkpt>
<trkpt lat="42.190326" lon="23.584809"><ele>2576.3</ele><time>2026-04-05T09:05:47.000Z</time></trkpt>
<trkpt lat="42.190324" lon="23.584813"><ele>2576.3</ele><time>2026-04-05T09:05:48.000Z</time></trkpt>
<trkpt lat="42.190322" lon="23.584816"><ele>2576.9</ele><time>2026-04-05T09:05:49.000Z</time></trkpt>
<trkpt lat="42.19032" lon="23.584818"><ele>2576.9</ele><time>2026-04-05T09:05:50.000Z</time></trkpt>
<trkpt lat="42.19032" lon="23.584818"><ele>2576.9</ele><time>2026-04-05T09:05:51.000Z</time></trkpt>
<trkpt lat="42.19032" lon="23.584819"><ele>2576.9</ele><time>2026-04-05T09:05:52.000Z</time></trkpt>
<trkpt lat="42.19032" lon="23.584819"><ele>2576.9</ele><time>2026-04-05T09:05:53.000Z</time></trkpt>
<trkpt lat="42.19032" lon="23.584819"><ele>2577.8</ele><time>2026-04-05T09:05:54.000Z</time></trkpt>
<trkpt lat="42.19032" lon="23.584819"><ele>2577.8</ele><time>2026-04-05T09:05:55.000Z</time></trkpt>
<trkpt lat="42.19032" lon="23.584819"><ele>2577.8</ele><time>2026-04-05T09:05:56.000Z</time></trkpt>
<trkpt lat="42.19032" lon="23.584819"><ele>2577.8</ele><time>2026-04-05T09:05:57.000Z</time></trkpt>
<trkpt lat="42.19032" lon="23.584819"><ele>2577.8</ele><time>2026-04-05T09:05:58.000Z</time></trkpt>
<trkpt lat="42.19032" lon="23.584819"><ele>2578.4</ele><time>2026-04-05T09:05:59.000Z</time></trkpt>
<trkpt lat="42.19032" lon="23.584819"><ele>2578.4</ele><time>2026-04-05T09:06:00.000Z</time></trkpt>
<trkpt lat="42.19032" lon="23.584819"><ele>2578.4</ele><time>2026-04-05T09:06:01.000Z</time></trkpt>
<trkpt lat="42.190319" lon="23.584822"><ele>2578.4</ele><time>2026-04-05T09:06:02.000Z</time></trkpt>
<trkpt lat="42.190318" lon="23.584827"><ele>2578.4</ele><time>2026-04-05T09:06:03.000Z</time></trkpt>
<trkpt lat="42.190316" lon="23.584832"><ele>2578.5</ele><time>2026-04-05T09:06:04.000Z</time></trkpt>
<trkpt lat="42.190314" lon="23.584839"><ele>2578.5</ele><time>2026-04-05T09:06:05.000Z</time></trkpt>
<trkpt lat="42.190311" lon="23.584846"><ele>2578.5</ele><time>2026-04-05T09:06:06.000Z</time></trkpt>
<trkpt lat="42.190309" lon="23.584851"><ele>2578.5</ele><time>2026-04-05T09:06:07.000Z</time></trkpt>
<trkpt lat="42.190307" lon="23.584855"><ele>2578.5</ele><time>2026-04-05T09:06:08.000Z</time></trkpt>
<trkpt lat="42.190306" lon="23.584858"><ele>2578.6</ele><time>2026-04-05T09:06:09.000Z</time></trkpt>
<trkpt lat="42.190305" lon="23.584861"><ele>2578.6</ele><time>2026-04-05T09:06:10.000Z</time></trkpt>
<trkpt lat="42.190304" lon="23.584862"><ele>2578.6</ele><time>2026-04-05T09:06:11.000Z</time></trkpt>
<trkpt lat="42.190304" lon="23.584863"><ele>2578.6</ele><time>2026-04-05T09:06:12.000Z</time></trkpt>
<trkpt lat="42.190303" lon="23.584864"><ele>2578.6</ele><time>2026-04-05T09:06:13.000Z</time></trkpt>
<trkpt lat="42.190303" lon="23.584865"><ele>2578.8</ele><time>2026-04-05T09:06:14.000Z</time></trkpt>
<trkpt lat="42.190303" lon="23.584865"><ele>2578.8</ele><time>2026-04-05T09:06:15.000Z</time></trkpt>
<trkpt lat="42.190302" lon="23.584865"><ele>2578.8</ele><time>2026-04-05T09:06:16.000Z</time></trkpt>
<trkpt lat="42.1903" lon="23.584867"><ele>2578.8</ele><time>2026-04-05T09:06:17.000Z</time></trkpt>
<trkpt lat="42.190297" lon="23.584869"><ele>2578.8</ele><time>2026-04-05T09:06:18.000Z</time></trkpt>
<trkpt lat="42.190293" lon="23.584872"><ele>2578.9</ele><time>2026-04-05T09:06:19.000Z</time></trkpt>
<trkpt lat="42.190288" lon="23.584875"><ele>2578.9</ele><time>2026-04-05T09:06:20.000Z</time></trkpt>
<trkpt lat="42.190284" lon="23.584879"><ele>2578.9</ele><time>2026-04-05T09:06:21.000Z</time></trkpt>
<trkpt lat="42.190279" lon="23.584883"><ele>2578.9</ele><time>2026-04-05T09:06:22.000Z</time></trkpt>
<trkpt lat="42.190273" lon="23.584888"><ele>2578.9</ele><time>2026-04-05T09:06:23.000Z</time></trkpt>
<trkpt lat="42.190269" lon="23.584893"><ele>2579.3</ele><time>2026-04-05T09:06:24.000Z</time></trkpt>
<trkpt lat="42.190265" lon="23.584897"><ele>2579.3</ele><time>2026-04-05T09:06:25.000Z</time></trkpt>
<trkpt lat="42.190261" lon="23.584904"><ele>2579.3</ele><time>2026-04-05T09:06:26.000Z</time></trkpt>
<trkpt lat="42.190258" lon="23.584908"><ele>2579.3</ele><time>2026-04-05T09:06:27.000Z</time></trkpt>
<trkpt lat="42.190256" lon="23.584913"><ele>2579.3</ele><time>2026-04-05T09:06:28.000Z</time></trkpt>
<trkpt lat="42.190253" lon="23.584919"><ele>2580</ele><time>2026-04-05T09:06:29.000Z</time></trkpt>
<trkpt lat="42.190251" lon="23.584925"><ele>2580</ele><time>2026-04-05T09:06:30.000Z</time></trkpt>
<trkpt lat="42.190248" lon="23.58493"><ele>2580</ele><time>2026-04-05T09:06:31.000Z</time></trkpt>
<trkpt lat="42.190246" lon="23.584935"><ele>2580</ele><time>2026-04-05T09:06:32.000Z</time></trkpt>
<trkpt lat="42.190244" lon="23.58494"><ele>2580</ele><time>2026-04-05T09:06:33.000Z</time></trkpt>
<trkpt lat="42.190241" lon="23.584945"><ele>2580.5</ele><time>2026-04-05T09:06:34.000Z</time></trkpt>
<trkpt lat="42.190237" lon="23.58495"><ele>2580.5</ele><time>2026-04-05T09:06:35.000Z</time></trkpt>
<trkpt lat="42.190233" lon="23.584953"><ele>2580.5</ele><time>2026-04-05T09:06:36.000Z</time></trkpt>
<trkpt lat="42.190228" lon="23.584957"><ele>2580.5</ele><time>2026-04-05T09:06:37.000Z</time></trkpt>
<trkpt lat="42.190222" lon="23.584961"><ele>2580.5</ele><time>2026-04-05T09:06:38.000Z</time></trkpt>
<trkpt lat="42.190217" lon="23.584965"><ele>2581.6</ele><time>2026-04-05T09:06:39.000Z</time></trkpt>
<trkpt lat="42.190213" lon="23.584969"><ele>2581.6</ele><time>2026-04-05T09:06:40.000Z</time></trkpt>
<trkpt lat="42.190209" lon="23.584974"><ele>2581.6</ele><time>2026-04-05T09:06:41.000Z</time></trkpt>
<trkpt lat="42.190206" lon="23.584978"><ele>2581.6</ele><time>2026-04-05T09:06:42.000Z</time></trkpt>
<trkpt lat="42.190203" lon="23.584983"><ele>2581.6</ele><time>2026-04-05T09:06:43.000Z</time></trkpt>
<trkpt lat="42.1902" lon="23.584987"><ele>2582.8</ele><time>2026-04-05T09:06:44.000Z</time></trkpt>
<trkpt lat="42.190198" lon="23.584991"><ele>2582.8</ele><time>2026-04-05T09:06:45.000Z</time></trkpt>
<trkpt lat="42.190195" lon="23.584996"><ele>2582.8</ele><time>2026-04-05T09:06:46.000Z</time></trkpt>
<trkpt lat="42.190193" lon="23.585001"><ele>2582.8</ele><time>2026-04-05T09:06:47.000Z</time></trkpt>
<trkpt lat="42.19019" lon="23.585006"><ele>2582.8</ele><time>2026-04-05T09:06:48.000Z</time></trkpt>
<trkpt lat="42.190188" lon="23.585011"><ele>2583.3</ele><time>2026-04-05T09:06:49.000Z</time></trkpt>
<trkpt lat="42.190185" lon="23.585015"><ele>2583.3</ele><time>2026-04-05T09:06:50.000Z</time></trkpt>
<trkpt lat="42.190184" lon="23.585019"><ele>2583.3</ele><time>2026-04-05T09:06:51.000Z</time></trkpt>
<trkpt lat="42.190184" lon="23.585022"><ele>2583.3</ele><time>2026-04-05T09:06:52.000Z</time></trkpt>
<trkpt lat="42.190184" lon="23.585026"><ele>2583.3</ele><time>2026-04-05T09:06:53.000Z</time></trkpt>
<trkpt lat="42.190184" lon="23.585028"><ele>2584.4</ele><time>2026-04-05T09:06:54.000Z</time></trkpt>
<trkpt lat="42.190182" lon="23.585031"><ele>2584.4</ele><time>2026-04-05T09:06:55.000Z</time></trkpt>
<trkpt lat="42.19018" lon="23.585034"><ele>2584.4</ele><time>2026-04-05T09:06:56.000Z</time></trkpt>
<trkpt lat="42.190176" lon="23.585038"><ele>2584.4</ele><time>2026-04-05T09:06:57.000Z</time></trkpt>
<trkpt lat="42.190172" lon="23.585041"><ele>2584.4</ele><time>2026-04-05T09:06:58.000Z</time></trkpt>
<trkpt lat="42.190168" lon="23.585046"><ele>2585.5</ele><time>2026-04-05T09:06:59.000Z</time></trkpt>
<trkpt lat="42.190163" lon="23.585049"><ele>2585.5</ele><time>2026-04-05T09:07:00.000Z</time></trkpt>
<trkpt lat="42.19016" lon="23.585053"><ele>2585.5</ele><time>2026-04-05T09:07:01.000Z</time></trkpt>
<trkpt lat="42.190156" lon="23.585056"><ele>2585.5</ele><time>2026-04-05T09:07:02.000Z</time></trkpt>
<trkpt lat="42.190152" lon="23.585059"><ele>2585.5</ele><time>2026-04-05T09:07:03.000Z</time></trkpt>
<trkpt lat="42.190149" lon="23.585063"><ele>2586.1</ele><time>2026-04-05T09:07:04.000Z</time></trkpt>
<trkpt lat="42.190145" lon="23.585066"><ele>2586.1</ele><time>2026-04-05T09:07:05.000Z</time></trkpt>
<trkpt lat="42.190141" lon="23.585069"><ele>2586.1</ele><time>2026-04-05T09:07:06.000Z</time></trkpt>
<trkpt lat="42.190136" lon="23.585073"><ele>2586.1</ele><time>2026-04-05T09:07:07.000Z</time></trkpt>
<trkpt lat="42.190132" lon="23.585076"><ele>2586.1</ele><time>2026-04-05T09:07:08.000Z</time></trkpt>
<trkpt lat="42.190128" lon="23.58508"><ele>2587.2</ele><time>2026-04-05T09:07:09.000Z</time></trkpt>
<trkpt lat="42.190124" lon="23.585084"><ele>2587.2</ele><time>2026-04-05T09:07:10.000Z</time></trkpt>
<trkpt lat="42.190122" lon="23.585087"><ele>2587.2</ele><time>2026-04-05T09:07:11.000Z</time></trkpt>
<trkpt lat="42.190121" lon="23.58509"><ele>2587.2</ele><time>2026-04-05T09:07:12.000Z</time></trkpt>
<trkpt lat="42.19012" lon="23.585093"><ele>2587.2</ele><time>2026-04-05T09:07:13.000Z</time></trkpt>
<trkpt lat="42.19012" lon="23.585094"><ele>2588.2</ele><time>2026-04-05T09:07:14.000Z</time></trkpt>
<trkpt lat="42.190121" lon="23.585096"><ele>2588.2</ele><time>2026-04-05T09:07:15.000Z</time></trkpt>
<trkpt lat="42.190122" lon="23.585098"><ele>2588.2</ele><time>2026-04-05T09:07:16.000Z</time></trkpt>
<trkpt lat="42.190124" lon="23.585101"><ele>2588.2</ele><time>2026-04-05T09:07:17.000Z</time></trkpt>
<trkpt lat="42.190124" lon="23.585104"><ele>2588.2</ele><time>2026-04-05T09:07:18.000Z</time></trkpt>
<trkpt lat="42.190124" lon="23.585107"><ele>2588.7</ele><time>2026-04-05T09:07:19.000Z</time></trkpt>
<trkpt lat="42.190125" lon="23.585111"><ele>2588.7</ele><time>2026-04-05T09:07:20.000Z</time></trkpt>
<trkpt lat="42.190123" lon="23.585114"><ele>2588.7</ele><time>2026-04-05T09:07:21.000Z</time></trkpt>
<trkpt lat="42.190121" lon="23.585117"><ele>2588.7</ele><time>2026-04-05T09:07:22.000Z</time></trkpt>
<trkpt lat="42.190118" lon="23.585118"><ele>2588.7</ele><time>2026-04-05T09:07:23.000Z</time></trkpt>
<trkpt lat="42.190117" lon="23.585116"><ele>2589.5</ele><time>2026-04-05T09:07:24.000Z</time></trkpt>
<trkpt lat="42.190114" lon="23.585114"><ele>2589.5</ele><time>2026-04-05T09:07:25.000Z</time></trkpt>
<trkpt lat="42.190112" lon="23.585111"><ele>2589.5</ele><time>2026-04-05T09:07:26.000Z</time></trkpt>
<trkpt lat="42.190112" lon="23.585106"><ele>2589.5</ele><time>2026-04-05T09:07:27.000Z</time></trkpt>
<trkpt lat="42.190112" lon="23.585103"><ele>2589.5</ele><time>2026-04-05T09:07:28.000Z</time></trkpt>
<trkpt lat="42.190112" lon="23.585101"><ele>2590.1</ele><time>2026-04-05T09:07:29.000Z</time></trkpt>
<trkpt lat="42.190113" lon="23.5851"><ele>2590.1</ele><time>2026-04-05T09:07:30.000Z</time></trkpt>
<trkpt lat="42.190114" lon="23.5851"><ele>2590.1</ele><time>2026-04-05T09:07:31.000Z</time></trkpt>
<trkpt lat="42.190114" lon="23.585101"><ele>2590.1</ele><time>2026-04-05T09:07:32.000Z</time></trkpt>
<trkpt lat="42.190115" lon="23.585101"><ele>2590.1</ele><time>2026-04-05T09:07:33.000Z</time></trkpt>
<trkpt lat="42.190115" lon="23.585102"><ele>2590.5</ele><time>2026-04-05T09:07:34.000Z</time></trkpt>
<trkpt lat="42.190115" lon="23.585104"><ele>2590.5</ele><time>2026-04-05T09:07:35.000Z</time></trkpt>
<trkpt lat="42.190114" lon="23.585104"><ele>2590.5</ele><time>2026-04-05T09:07:36.000Z</time></trkpt>
<trkpt lat="42.190113" lon="23.585105"><ele>2590.5</ele><time>2026-04-05T09:07:37.000Z</time></trkpt>
<trkpt lat="42.19011" lon="23.585105"><ele>2590.5</ele><time>2026-04-05T09:07:38.000Z</time></trkpt>
<trkpt lat="42.190107" lon="23.585104"><ele>2591.3</ele><time>2026-04-05T09:07:39.000Z</time></trkpt>
<trkpt lat="42.190103" lon="23.585102"><ele>2591.3</ele><time>2026-04-05T09:07:40.000Z</time></trkpt>
<trkpt lat="42.190098" lon="23.5851"><ele>2591.3</ele><time>2026-04-05T09:07:41.000Z</time></trkpt>
<trkpt lat="42.190093" lon="23.585097"><ele>2591.3</ele><time>2026-04-05T09:07:42.000Z</time></trkpt>
<trkpt lat="42.190087" lon="23.585094"><ele>2591.3</ele><time>2026-04-05T09:07:43.000Z</time></trkpt>
<trkpt lat="42.19008" lon="23.585092"><ele>2591.8</ele><time>2026-04-05T09:07:44.000Z</time></trkpt>
<trkpt lat="42.190074" lon="23.58509"><ele>2591.8</ele><time>2026-04-05T09:07:45.000Z</time></trkpt>
<trkpt lat="42.19007" lon="23.585091"><ele>2591.8</ele><time>2026-04-05T09:07:46.000Z</time></trkpt>
<trkpt lat="42.190066" lon="23.585092"><ele>2591.8</ele><time>2026-04-05T09:07:47.000Z</time></trkpt>
<trkpt lat="42.190062" lon="23.585095"><ele>2591.8</ele><time>2026-04-05T09:07:48.000Z</time></trkpt>
<trkpt lat="42.190059" lon="23.585097"><ele>2592</ele><time>2026-04-05T09:07:49.000Z</time></trkpt>
<trkpt lat="42.190055" lon="23.5851"><ele>2592</ele><time>2026-04-05T09:07:50.000Z</time></trkpt>
<trkpt lat="42.19005" lon="23.585101"><ele>2592</ele><time>2026-04-05T09:07:51.000Z</time></trkpt>
<trkpt lat="42.190045" lon="23.585103"><ele>2592</ele><time>2026-04-05T09:07:52.000Z</time></trkpt>
<trkpt lat="42.19004" lon="23.585105"><ele>2592</ele><time>2026-04-05T09:07:53.000Z</time></trkpt>
<trkpt lat="42.190036" lon="23.585108"><ele>2592.5</ele><time>2026-04-05T09:07:54.000Z</time></trkpt>
<trkpt lat="42.190033" lon="23.585112"><ele>2592.5</ele><time>2026-04-05T09:07:55.000Z</time></trkpt>
<trkpt lat="42.19003" lon="23.585118"><ele>2592.5</ele><time>2026-04-05T09:07:56.000Z</time></trkpt>
<trkpt lat="42.190028" lon="23.585123"><ele>2592.5</ele><time>2026-04-05T09:07:57.000Z</time></trkpt>
<trkpt lat="42.190026" lon="23.58513"><ele>2592.5</ele><time>2026-04-05T09:07:58.000Z</time></trkpt>
<trkpt lat="42.190023" lon="23.585135"><ele>2593.3</ele><time>2026-04-05T09:07:59.000Z</time></trkpt>
<trkpt lat="42.19002" lon="23.585141"><ele>2593.3</ele><time>2026-04-05T09:08:00.000Z</time></trkpt>
<trkpt lat="42.190018" lon="23.585145"><ele>2593.3</ele><time>2026-04-05T09:08:01.000Z</time></trkpt>
<trkpt lat="42.190016" lon="23.585149"><ele>2593.3</ele><time>2026-04-05T09:08:02.000Z</time></trkpt>
<trkpt lat="42.190013" lon="23.585154"><ele>2593.3</ele><time>2026-04-05T09:08:03.000Z</time></trkpt>
<trkpt lat="42.190011" lon="23.585158"><ele>2593.7</ele><time>2026-04-05T09:08:04.000Z</time></trkpt>
<trkpt lat="42.190008" lon="23.585162"><ele>2593.7</ele><time>2026-04-05T09:08:05.000Z</time></trkpt>
<trkpt lat="42.190005" lon="23.585164"><ele>2593.7</ele><time>2026-04-05T09:08:06.000Z</time></trkpt>
<trkpt lat="42.190003" lon="23.585166"><ele>2593.7</ele><time>2026-04-05T09:08:07.000Z</time></trkpt>
<trkpt lat="42.190002" lon="23.585166"><ele>2593.7</ele><time>2026-04-05T09:08:08.000Z</time></trkpt>
<trkpt lat="42.190001" lon="23.585165"><ele>2594.7</ele><time>2026-04-05T09:08:09.000Z</time></trkpt>
<trkpt lat="42.190001" lon="23.585165"><ele>2594.7</ele><time>2026-04-05T09:08:10.000Z</time></trkpt>
<trkpt lat="42.190002" lon="23.585165"><ele>2594.7</ele><time>2026-04-05T09:08:11.000Z</time></trkpt>
<trkpt lat="42.190002" lon="23.585165"><ele>2594.7</ele><time>2026-04-05T09:08:12.000Z</time></trkpt>
<trkpt lat="42.190002" lon="23.585165"><ele>2594.7</ele><time>2026-04-05T09:08:13.000Z</time></trkpt>
<trkpt lat="42.190003" lon="23.585165"><ele>2595.5</ele><time>2026-04-05T09:08:14.000Z</time></trkpt>
<trkpt lat="42.190003" lon="23.585165"><ele>2595.5</ele><time>2026-04-05T09:08:15.000Z</time></trkpt>
<trkpt lat="42.190003" lon="23.585165"><ele>2595.5</ele><time>2026-04-05T09:08:16.000Z</time></trkpt>
<trkpt lat="42.190003" lon="23.585166"><ele>2595.5</ele><time>2026-04-05T09:08:17.000Z</time></trkpt>
<trkpt lat="42.190002" lon="23.585166"><ele>2595.5</ele><time>2026-04-05T09:08:18.000Z</time></trkpt>
<trkpt lat="42.190002" lon="23.585166"><ele>2595.8</ele><time>2026-04-05T09:08:19.000Z</time></trkpt>
<trkpt lat="42.190003" lon="23.585166"><ele>2595.8</ele><time>2026-04-05T09:08:20.000Z</time></trkpt>
<trkpt lat="42.190003" lon="23.585167"><ele>2595.8</ele><time>2026-04-05T09:08:21.000Z</time></trkpt>
<trkpt lat="42.190004" lon="23.585167"><ele>2595.8</ele><time>2026-04-05T09:08:22.000Z</time></trkpt>
<trkpt lat="42.190004" lon="23.585167"><ele>2595.8</ele><time>2026-04-05T09:08:23.000Z</time></trkpt>
<trkpt lat="42.190005" lon="23.585168"><ele>2596.1</ele><time>2026-04-05T09:08:24.000Z</time></trkpt>
<trkpt lat="42.190005" lon="23.585167"><ele>2596.1</ele><time>2026-04-05T09:08:25.000Z</time></trkpt>
<trkpt lat="42.190005" lon="23.585167"><ele>2596.1</ele><time>2026-04-05T09:08:26.000Z</time></trkpt>
<trkpt lat="42.190005" lon="23.585167"><ele>2596.1</ele><time>2026-04-05T09:08:27.000Z</time></trkpt>
<trkpt lat="42.190005" lon="23.585167"><ele>2596.1</ele><time>2026-04-05T09:08:28.000Z</time></trkpt>
<trkpt lat="42.190006" lon="23.585168"><ele>2596.2</ele><time>2026-04-05T09:08:29.000Z</time></trkpt>
<trkpt lat="42.190006" lon="23.585169"><ele>2596.2</ele><time>2026-04-05T09:08:30.000Z</time></trkpt>
<trkpt lat="42.190006" lon="23.58517"><ele>2596.2</ele><time>2026-04-05T09:08:31.000Z</time></trkpt>
<trkpt lat="42.190007" lon="23.585171"><ele>2596.2</ele><time>2026-04-05T09:08:32.000Z</time></trkpt>
<trkpt lat="42.190007" lon="23.585171"><ele>2596.2</ele><time>2026-04-05T09:08:33.000Z</time></trkpt>
<trkpt lat="42.190006" lon="23.585172"><ele>2596.2</ele><time>2026-04-05T09:08:34.000Z</time></trkpt>
<trkpt lat="42.190006" lon="23.585172"><ele>2596.2</ele><time>2026-04-05T09:08:35.000Z</time></trkpt>
<trkpt lat="42.190007" lon="23.585172"><ele>2596.2</ele><time>2026-04-05T09:08:36.000Z</time></trkpt>
<trkpt lat="42.190007" lon="23.585171"><ele>2596.2</ele><time>2026-04-05T09:08:37.000Z</time></trkpt>
<trkpt lat="42.190008" lon="23.585171"><ele>2596.2</ele><time>2026-04-05T09:08:38.000Z</time></trkpt>
<trkpt lat="42.190008" lon="23.585171"><ele>2596.2</ele><time>2026-04-05T09:08:39.000Z</time></trkpt>
<trkpt lat="42.190008" lon="23.585172"><ele>2596.2</ele><time>2026-04-05T09:08:40.000Z</time></trkpt>
<trkpt lat="42.190008" lon="23.585173"><ele>2596.2</ele><time>2026-04-05T09:08:41.000Z</time></trkpt>
<trkpt lat="42.190008" lon="23.585174"><ele>2596.2</ele><time>2026-04-05T09:08:42.000Z</time></trkpt>
<trkpt lat="42.190007" lon="23.585175"><ele>2596.2</ele><time>2026-04-05T09:08:43.000Z</time></trkpt>
<trkpt lat="42.190007" lon="23.585176"><ele>2596.1</ele><time>2026-04-05T09:08:44.000Z</time></trkpt>
<trkpt lat="42.190007" lon="23.585176"><ele>2596.1</ele><time>2026-04-05T09:08:45.000Z</time></trkpt>
<trkpt lat="42.190007" lon="23.585176"><ele>2596.1</ele><time>2026-04-05T09:08:46.000Z</time></trkpt>
<trkpt lat="42.190007" lon="23.585176"><ele>2596.1</ele><time>2026-04-05T09:08:47.000Z</time></trkpt>
<trkpt lat="42.190007" lon="23.585176"><ele>2596.1</ele><time>2026-04-05T09:08:48.000Z</time></trkpt>
<trkpt lat="42.190007" lon="23.585176"><ele>2596.1</ele><time>2026-04-05T09:08:49.000Z</time></trkpt>
<trkpt lat="42.190007" lon="23.585176"><ele>2596.1</ele><time>2026-04-05T09:08:50.000Z</time></trkpt>
<trkpt lat="42.190007" lon="23.585176"><ele>2596.1</ele><time>2026-04-05T09:08:51.000Z</time></trkpt>
<trkpt lat="42.190007" lon="23.585176"><ele>2596.1</ele><time>2026-04-05T09:08:52.000Z</time></trkpt>
<trkpt lat="42.190007" lon="23.585176"><ele>2596.1</ele><time>2026-04-05T09:08:53.000Z</time></trkpt>
<trkpt lat="42.190007" lon="23.585176"><ele>2596</ele><time>2026-04-05T09:08:54.000Z</time></trkpt>
<trkpt lat="42.190007" lon="23.585175"><ele>2596</ele><time>2026-04-05T09:08:55.000Z</time></trkpt>
<trkpt lat="42.190007" lon="23.585174"><ele>2596</ele><time>2026-04-05T09:08:56.000Z</time></trkpt>
<trkpt lat="42.190006" lon="23.585174"><ele>2596</ele><time>2026-04-05T09:08:57.000Z</time></trkpt>
<trkpt lat="42.190007" lon="23.585173"><ele>2596</ele><time>2026-04-05T09:08:58.000Z</time></trkpt>
<trkpt lat="42.190007" lon="23.585172"><ele>2595.9</ele><time>2026-04-05T09:08:59.000Z</time></trkpt>
<trkpt lat="42.190007" lon="23.585171"><ele>2595.9</ele><time>2026-04-05T09:09:00.000Z</time></trkpt>
<trkpt lat="42.190008" lon="23.58517"><ele>2595.9</ele><time>2026-04-05T09:09:01.000Z</time></trkpt>
<trkpt lat="42.190008" lon="23.585169"><ele>2595.9</ele><time>2026-04-05T09:09:02.000Z</time></trkpt>
<trkpt lat="42.190009" lon="23.585168"><ele>2595.9</ele><time>2026-04-05T09:09:03.000Z</time></trkpt>
<trkpt lat="42.190009" lon="23.585168"><ele>2595.9</ele><time>2026-04-05T09:09:04.000Z</time></trkpt>
<trkpt lat="42.190009" lon="23.585168"><ele>2595.9</ele><time>2026-04-05T09:09:05.000Z</time></trkpt>
<trkpt lat="42.190009" lon="23.585168"><ele>2595.9</ele><time>2026-04-05T09:09:06.000Z</time></trkpt>
<trkpt lat="42.190009" lon="23.585168"><ele>2595.9</ele><time>2026-04-05T09:09:07.000Z</time></trkpt>
<trkpt lat="42.190009" lon="23.585168"><ele>2595.9</ele><time>2026-04-05T09:09:08.000Z</time></trkpt>
<trkpt lat="42.190009" lon="23.585168"><ele>2595.9</ele><time>2026-04-05T09:09:09.000Z</time></trkpt>
<trkpt lat="42.190008" lon="23.585168"><ele>2595.9</ele><time>2026-04-05T09:09:10.000Z</time></trkpt>
<trkpt lat="42.190008" lon="23.585168"><ele>2595.9</ele><time>2026-04-05T09:09:11.000Z</time></trkpt>
<trkpt lat="42.190008" lon="23.585168"><ele>2595.9</ele><time>2026-04-05T09:09:12.000Z</time></trkpt>
<trkpt lat="42.190007" lon="23.585168"><ele>2595.9</ele><time>2026-04-05T09:09:13.000Z</time></trkpt>
<trkpt lat="42.190007" lon="23.585168"><ele>2595.9</ele><time>2026-04-05T09:09:14.000Z</time></trkpt>
<trkpt lat="42.190007" lon="23.585167"><ele>2595.9</ele><time>2026-04-05T09:09:15.000Z</time></trkpt>
<trkpt lat="42.190007" lon="23.585167"><ele>2595.9</ele><time>2026-04-05T09:09:16.000Z</time></trkpt>
<trkpt lat="42.190007" lon="23.585166"><ele>2595.9</ele><time>2026-04-05T09:09:17.000Z</time></trkpt>
<trkpt lat="42.190007" lon="23.585165"><ele>2595.9</ele><time>2026-04-05T09:09:18.000Z</time></trkpt>
<trkpt lat="42.190006" lon="23.585165"><ele>2595.8</ele><time>2026-04-05T09:09:19.000Z</time></trkpt>
<trkpt lat="42.190006" lon="23.585165"><ele>2595.8</ele><time>2026-04-05T09:09:20.000Z</time></trkpt>
<trkpt lat="42.190006" lon="23.585165"><ele>2595.8</ele><time>2026-04-05T09:09:21.000Z</time></trkpt>
<trkpt lat="42.190005" lon="23.585165"><ele>2595.8</ele><time>2026-04-05T09:09:22.000Z</time></trkpt>
<trkpt lat="42.190005" lon="23.585165"><ele>2595.8</ele><time>2026-04-05T09:09:23.000Z</time></trkpt>
<trkpt lat="42.190005" lon="23.585166"><ele>2595.8</ele><time>2026-04-05T09:09:24.000Z</time></trkpt>
<trkpt lat="42.190005" lon="23.585166"><ele>2595.8</ele><time>2026-04-05T09:09:25.000Z</time></trkpt>
<trkpt lat="42.190005" lon="23.585166"><ele>2595.8</ele><time>2026-04-05T09:09:26.000Z</time></trkpt>
<trkpt lat="42.190004" lon="23.585167"><ele>2595.8</ele><time>2026-04-05T09:09:27.000Z</time></trkpt>
<trkpt lat="42.190004" lon="23.585167"><ele>2595.8</ele><time>2026-04-05T09:09:28.000Z</time></trkpt>
<trkpt lat="42.190004" lon="23.585169"><ele>2595.9</ele><time>2026-04-05T09:09:29.000Z</time></trkpt>
<trkpt lat="42.190003" lon="23.58517"><ele>2595.9</ele><time>2026-04-05T09:09:30.000Z</time></trkpt>
<trkpt lat="42.19" lon="23.585172"><ele>2595.9</ele><time>2026-04-05T09:09:31.000Z</time></trkpt>
<trkpt lat="42.189997" lon="23.585174"><ele>2595.9</ele><time>2026-04-05T09:09:32.000Z</time></trkpt>
<trkpt lat="42.189993" lon="23.585177"><ele>2595.9</ele><time>2026-04-05T09:09:33.000Z</time></trkpt>
<trkpt lat="42.189988" lon="23.585179"><ele>2595.9</ele><time>2026-04-05T09:09:34.000Z</time></trkpt>
<trkpt lat="42.189984" lon="23.585182"><ele>2595.9</ele><time>2026-04-05T09:09:35.000Z</time></trkpt>
<trkpt lat="42.189981" lon="23.585184"><ele>2595.9</ele><time>2026-04-05T09:09:36.000Z</time></trkpt>
<trkpt lat="42.189978" lon="23.585187"><ele>2595.9</ele><time>2026-04-05T09:09:37.000Z</time></trkpt>
<trkpt lat="42.189975" lon="23.585189"><ele>2595.9</ele><time>2026-04-05T09:09:38.000Z</time></trkpt>
<trkpt lat="42.189971" lon="23.585192"><ele>2595.9</ele><time>2026-04-05T09:09:39.000Z</time></trkpt>
<trkpt lat="42.189968" lon="23.585196"><ele>2595.9</ele><time>2026-04-05T09:09:40.000Z</time></trkpt>
<trkpt lat="42.189965" lon="23.585199"><ele>2595.9</ele><time>2026-04-05T09:09:41.000Z</time></trkpt>
<trkpt lat="42.189962" lon="23.585201"><ele>2595.9</ele><time>2026-04-05T09:09:42.000Z</time></trkpt>
<trkpt lat="42.189959" lon="23.585205"><ele>2595.9</ele><time>2026-04-05T09:09:43.000Z</time></trkpt>
<trkpt lat="42.189956" lon="23.585207"><ele>2596.3</ele><time>2026-04-05T09:09:44.000Z</time></trkpt>
<trkpt lat="42.189953" lon="23.58521"><ele>2596.3</ele><time>2026-04-05T09:09:45.000Z</time></trkpt>
<trkpt lat="42.18995" lon="23.585213"><ele>2596.3</ele><time>2026-04-05T09:09:46.000Z</time></trkpt>
<trkpt lat="42.189947" lon="23.585215"><ele>2596.3</ele><time>2026-04-05T09:09:47.000Z</time></trkpt>
<trkpt lat="42.189944" lon="23.585218"><ele>2596.3</ele><time>2026-04-05T09:09:48.000Z</time></trkpt>
<trkpt lat="42.189941" lon="23.58522"><ele>2596.7</ele><time>2026-04-05T09:09:49.000Z</time></trkpt>
<trkpt lat="42.189938" lon="23.585222"><ele>2596.7</ele><time>2026-04-05T09:09:50.000Z</time></trkpt>
<trkpt lat="42.189934" lon="23.585225"><ele>2596.7</ele><time>2026-04-05T09:09:51.000Z</time></trkpt>
<trkpt lat="42.189931" lon="23.585227"><ele>2596.7</ele><time>2026-04-05T09:09:52.000Z</time></trkpt>
<trkpt lat="42.189928" lon="23.585229"><ele>2596.7</ele><time>2026-04-05T09:09:53.000Z</time></trkpt>
<trkpt lat="42.189925" lon="23.585231"><ele>2597.7</ele><time>2026-04-05T09:09:54.000Z</time></trkpt>
<trkpt lat="42.189922" lon="23.585234"><ele>2597.7</ele><time>2026-04-05T09:09:55.000Z</time></trkpt>
<trkpt lat="42.18992" lon="23.585236"><ele>2597.7</ele><time>2026-04-05T09:09:56.000Z</time></trkpt>
<trkpt lat="42.189917" lon="23.58524"><ele>2597.7</ele><time>2026-04-05T09:09:57.000Z</time></trkpt>
<trkpt lat="42.189915" lon="23.585243"><ele>2597.7</ele><time>2026-04-05T09:09:58.000Z</time></trkpt>
<trkpt lat="42.189913" lon="23.585247"><ele>2598.8</ele><time>2026-04-05T09:09:59.000Z</time></trkpt>
<trkpt lat="42.18991" lon="23.585251"><ele>2598.8</ele><time>2026-04-05T09:10:00.000Z</time></trkpt>
<trkpt lat="42.189907" lon="23.585254"><ele>2598.8</ele><time>2026-04-05T09:10:01.000Z</time></trkpt>
<trkpt lat="42.189904" lon="23.585258"><ele>2598.8</ele><time>2026-04-05T09:10:02.000Z</time></trkpt>
<trkpt lat="42.189901" lon="23.585262"><ele>2598.8</ele><time>2026-04-05T09:10:03.000Z</time></trkpt>
<trkpt lat="42.189897" lon="23.585265"><ele>2599.3</ele><time>2026-04-05T09:10:04.000Z</time></trkpt>
<trkpt lat="42.189893" lon="23.585267"><ele>2599.3</ele><time>2026-04-05T09:10:05.000Z</time></trkpt>
<trkpt lat="42.189889" lon="23.585268"><ele>2599.3</ele><time>2026-04-05T09:10:06.000Z</time></trkpt>
<trkpt lat="42.189885" lon="23.585268"><ele>2599.3</ele><time>2026-04-05T09:10:07.000Z</time></trkpt>
<trkpt lat="42.189881" lon="23.585267"><ele>2599.3</ele><time>2026-04-05T09:10:08.000Z</time></trkpt>
<trkpt lat="42.189877" lon="23.585265"><ele>2600.3</ele><time>2026-04-05T09:10:09.000Z</time></trkpt>
<trkpt lat="42.189874" lon="23.585262"><ele>2600.3</ele><time>2026-04-05T09:10:10.000Z</time></trkpt>
<trkpt lat="42.18987" lon="23.585258"><ele>2600.3</ele><time>2026-04-05T09:10:11.000Z</time></trkpt>
<trkpt lat="42.189866" lon="23.585255"><ele>2600.3</ele><time>2026-04-05T09:10:12.000Z</time></trkpt>
<trkpt lat="42.189861" lon="23.585251"><ele>2600.3</ele><time>2026-04-05T09:10:13.000Z</time></trkpt>
<trkpt lat="42.189855" lon="23.585248"><ele>2601.4</ele><time>2026-04-05T09:10:14.000Z</time></trkpt>
<trkpt lat="42.18985" lon="23.585246"><ele>2601.4</ele><time>2026-04-05T09:10:15.000Z</time></trkpt>
<trkpt lat="42.189844" lon="23.585244"><ele>2601.4</ele><time>2026-04-05T09:10:16.000Z</time></trkpt>
<trkpt lat="42.189837" lon="23.585243"><ele>2601.4</ele><time>2026-04-05T09:10:17.000Z</time></trkpt>
<trkpt lat="42.18983" lon="23.585242"><ele>2601.4</ele><time>2026-04-05T09:10:18.000Z</time></trkpt>
<trkpt lat="42.189824" lon="23.585241"><ele>2602</ele><time>2026-04-05T09:10:19.000Z</time></trkpt>
<trkpt lat="42.189817" lon="23.585241"><ele>2602</ele><time>2026-04-05T09:10:20.000Z</time></trkpt>
<trkpt lat="42.189811" lon="23.58524"><ele>2602</ele><time>2026-04-05T09:10:21.000Z</time></trkpt>
<trkpt lat="42.189804" lon="23.58524"><ele>2602</ele><time>2026-04-05T09:10:22.000Z</time></trkpt>
<trkpt lat="42.189798" lon="23.58524"><ele>2602</ele><time>2026-04-05T09:10:23.000Z</time></trkpt>
<trkpt lat="42.189791" lon="23.585241"><ele>2603</ele><time>2026-04-05T09:10:24.000Z</time></trkpt>
<trkpt lat="42.189784" lon="23.585242"><ele>2603</ele><time>2026-04-05T09:10:25.000Z</time></trkpt>
<trkpt lat="42.189777" lon="23.585245"><ele>2603</ele><time>2026-04-05T09:10:26.000Z</time></trkpt>
<trkpt lat="42.18977" lon="23.585247"><ele>2603</ele><time>2026-04-05T09:10:27.000Z</time></trkpt>
<trkpt lat="42.189761" lon="23.585249"><ele>2603</ele><time>2026-04-05T09:10:28.000Z</time></trkpt>
<trkpt lat="42.189754" lon="23.58525"><ele>2603.9</ele><time>2026-04-05T09:10:29.000Z</time></trkpt>
<trkpt lat="42.189747" lon="23.585251"><ele>2603.9</ele><time>2026-04-05T09:10:30.000Z</time></trkpt>
<trkpt lat="42.189741" lon="23.585251"><ele>2603.9</ele><time>2026-04-05T09:10:31.000Z</time></trkpt>
<trkpt lat="42.189735" lon="23.585252"><ele>2603.9</ele><time>2026-04-05T09:10:32.000Z</time></trkpt>
<trkpt lat="42.18973" lon="23.585254"><ele>2603.9</ele><time>2026-04-05T09:10:33.000Z</time></trkpt>
<trkpt lat="42.189725" lon="23.585258"><ele>2604.4</ele><time>2026-04-05T09:10:34.000Z</time></trkpt>
<trkpt lat="42.18972" lon="23.585261"><ele>2604.4</ele><time>2026-04-05T09:10:35.000Z</time></trkpt>
<trkpt lat="42.189713" lon="23.585265"><ele>2604.4</ele><time>2026-04-05T09:10:36.000Z</time></trkpt>
<trkpt lat="42.189706" lon="23.585268"><ele>2604.4</ele><time>2026-04-05T09:10:37.000Z</time></trkpt>
<trkpt lat="42.189699" lon="23.585271"><ele>2604.4</ele><time>2026-04-05T09:10:38.000Z</time></trkpt>
<trkpt lat="42.189692" lon="23.585273"><ele>2605.5</ele><time>2026-04-05T09:10:39.000Z</time></trkpt>
<trkpt lat="42.189686" lon="23.585277"><ele>2605.5</ele><time>2026-04-05T09:10:40.000Z</time></trkpt>
<trkpt lat="42.189681" lon="23.58528"><ele>2605.5</ele><time>2026-04-05T09:10:41.000Z</time></trkpt>
<trkpt lat="42.189676" lon="23.585284"><ele>2605.5</ele><time>2026-04-05T09:10:42.000Z</time></trkpt>
<trkpt lat="42.18967" lon="23.585287"><ele>2605.5</ele><time>2026-04-05T09:10:43.000Z</time></trkpt>
<trkpt lat="42.189664" lon="23.585291"><ele>2606.4</ele><time>2026-04-05T09:10:44.000Z</time></trkpt>
<trkpt lat="42.189658" lon="23.585295"><ele>2606.4</ele><time>2026-04-05T09:10:45.000Z</time></trkpt>
<trkpt lat="42.189653" lon="23.585298"><ele>2606.4</ele><time>2026-04-05T09:10:46.000Z</time></trkpt>
<trkpt lat="42.189647" lon="23.585303"><ele>2606.4</ele><time>2026-04-05T09:10:47.000Z</time></trkpt>
<trkpt lat="42.189641" lon="23.585307"><ele>2606.4</ele><time>2026-04-05T09:10:48.000Z</time></trkpt>
<trkpt lat="42.189636" lon="23.58531"><ele>2606.7</ele><time>2026-04-05T09:10:49.000Z</time></trkpt>
<trkpt lat="42.189629" lon="23.585312"><ele>2606.7</ele><time>2026-04-05T09:10:50.000Z</time></trkpt>
<trkpt lat="42.189624" lon="23.585313"><ele>2606.7</ele><time>2026-04-05T09:10:51.000Z</time></trkpt>
<trkpt lat="42.189619" lon="23.585314"><ele>2606.7</ele><time>2026-04-05T09:10:52.000Z</time></trkpt>
<trkpt lat="42.189614" lon="23.585316"><ele>2606.7</ele><time>2026-04-05T09:10:53.000Z</time></trkpt>
<trkpt lat="42.18961" lon="23.585318"><ele>2607.4</ele><time>2026-04-05T09:10:54.000Z</time></trkpt>
<trkpt lat="42.189606" lon="23.58532"><ele>2607.4</ele><time>2026-04-05T09:10:55.000Z</time></trkpt>
<trkpt lat="42.189602" lon="23.585322"><ele>2607.4</ele><time>2026-04-05T09:10:56.000Z</time></trkpt>
<trkpt lat="42.189599" lon="23.585326"><ele>2607.4</ele><time>2026-04-05T09:10:57.000Z</time></trkpt>
<trkpt lat="42.189595" lon="23.585329"><ele>2607.4</ele><time>2026-04-05T09:10:58.000Z</time></trkpt>
<trkpt lat="42.189591" lon="23.585333"><ele>2608.2</ele><time>2026-04-05T09:10:59.000Z</time></trkpt>
<trkpt lat="42.189586" lon="23.585337"><ele>2608.2</ele><time>2026-04-05T09:11:00.000Z</time></trkpt>
<trkpt lat="42.18958" lon="23.58534"><ele>2608.2</ele><time>2026-04-05T09:11:01.000Z</time></trkpt>
<trkpt lat="42.189573" lon="23.585341"><ele>2608.2</ele><time>2026-04-05T09:11:02.000Z</time></trkpt>
<trkpt lat="42.189566" lon="23.585342"><ele>2608.2</ele><time>2026-04-05T09:11:03.000Z</time></trkpt>
<trkpt lat="42.189559" lon="23.585342"><ele>2608.7</ele><time>2026-04-05T09:11:04.000Z</time></trkpt>
<trkpt lat="42.189552" lon="23.585342"><ele>2608.7</ele><time>2026-04-05T09:11:05.000Z</time></trkpt>
<trkpt lat="42.189546" lon="23.585342"><ele>2608.7</ele><time>2026-04-05T09:11:06.000Z</time></trkpt>
<trkpt lat="42.18954" lon="23.585343"><ele>2608.7</ele><time>2026-04-05T09:11:07.000Z</time></trkpt>
<trkpt lat="42.189535" lon="23.585346"><ele>2608.7</ele><time>2026-04-05T09:11:08.000Z</time></trkpt>
<trkpt lat="42.189529" lon="23.585349"><ele>2609.6</ele><time>2026-04-05T09:11:09.000Z</time></trkpt>
<trkpt lat="42.189524" lon="23.585355"><ele>2609.6</ele><time>2026-04-05T09:11:10.000Z</time></trkpt>
<trkpt lat="42.189518" lon="23.585361"><ele>2609.6</ele><time>2026-04-05T09:11:11.000Z</time></trkpt>
<trkpt lat="42.189511" lon="23.585367"><ele>2609.6</ele><time>2026-04-05T09:11:12.000Z</time></trkpt>
<trkpt lat="42.189504" lon="23.585372"><ele>2609.6</ele><time>2026-04-05T09:11:13.000Z</time></trkpt>
<trkpt lat="42.189497" lon="23.585378"><ele>2610.7</ele><time>2026-04-05T09:11:14.000Z</time></trkpt>
<trkpt lat="42.18949" lon="23.585382"><ele>2610.7</ele><time>2026-04-05T09:11:15.000Z</time></trkpt>
<trkpt lat="42.189484" lon="23.585387"><ele>2610.7</ele><time>2026-04-05T09:11:16.000Z</time></trkpt>
<trkpt lat="42.189476" lon="23.585392"><ele>2610.7</ele><time>2026-04-05T09:11:17.000Z</time></trkpt>
<trkpt lat="42.189469" lon="23.585397"><ele>2610.7</ele><time>2026-04-05T09:11:18.000Z</time></trkpt>
<trkpt lat="42.189464" lon="23.585401"><ele>2611.3</ele><time>2026-04-05T09:11:19.000Z</time></trkpt>
<trkpt lat="42.189459" lon="23.585406"><ele>2611.3</ele><time>2026-04-05T09:11:20.000Z</time></trkpt>
<trkpt lat="42.189453" lon="23.58541"><ele>2611.3</ele><time>2026-04-05T09:11:21.000Z</time></trkpt>
<trkpt lat="42.189448" lon="23.585414"><ele>2611.3</ele><time>2026-04-05T09:11:22.000Z</time></trkpt>
<trkpt lat="42.189443" lon="23.585418"><ele>2611.3</ele><time>2026-04-05T09:11:23.000Z</time></trkpt>
<trkpt lat="42.189436" lon="23.585422"><ele>2612.5</ele><time>2026-04-05T09:11:24.000Z</time></trkpt>
<trkpt lat="42.189429" lon="23.585426"><ele>2612.5</ele><time>2026-04-05T09:11:25.000Z</time></trkpt>
<trkpt lat="42.189421" lon="23.58543"><ele>2612.5</ele><time>2026-04-05T09:11:26.000Z</time></trkpt>
<trkpt lat="42.189415" lon="23.585435"><ele>2612.5</ele><time>2026-04-05T09:11:27.000Z</time></trkpt>
<trkpt lat="42.189409" lon="23.58544"><ele>2612.5</ele><time>2026-04-05T09:11:28.000Z</time></trkpt>
<trkpt lat="42.189402" lon="23.585445"><ele>2613.6</ele><time>2026-04-05T09:11:29.000Z</time></trkpt>
<trkpt lat="42.189398" lon="23.585448"><ele>2613.6</ele><time>2026-04-05T09:11:30.000Z</time></trkpt>
<trkpt lat="42.189395" lon="23.58545"><ele>2613.6</ele><time>2026-04-05T09:11:31.000Z</time></trkpt>
<trkpt lat="42.189393" lon="23.58545"><ele>2613.6</ele><time>2026-04-05T09:11:32.000Z</time></trkpt>
<trkpt lat="42.189392" lon="23.58545"><ele>2613.6</ele><time>2026-04-05T09:11:33.000Z</time></trkpt>
<trkpt lat="42.189392" lon="23.585448"><ele>2614</ele><time>2026-04-05T09:11:34.000Z</time></trkpt>
<trkpt lat="42.189393" lon="23.585446"><ele>2614</ele><time>2026-04-05T09:11:35.000Z</time></trkpt>
<trkpt lat="42.189393" lon="23.585446"><ele>2614</ele><time>2026-04-05T09:11:36.000Z</time></trkpt>
<trkpt lat="42.189394" lon="23.585445"><ele>2614</ele><time>2026-04-05T09:11:37.000Z</time></trkpt>
<trkpt lat="42.189394" lon="23.585444"><ele>2614</ele><time>2026-04-05T09:11:38.000Z</time></trkpt>
<trkpt lat="42.189393" lon="23.585445"><ele>2614.5</ele><time>2026-04-05T09:11:39.000Z</time></trkpt>
<trkpt lat="42.189392" lon="23.585446"><ele>2614.5</ele><time>2026-04-05T09:11:40.000Z</time></trkpt>
<trkpt lat="42.18939" lon="23.585447"><ele>2614.5</ele><time>2026-04-05T09:11:41.000Z</time></trkpt>
<trkpt lat="42.189388" lon="23.585449"><ele>2614.5</ele><time>2026-04-05T09:11:42.000Z</time></trkpt>
<trkpt lat="42.189387" lon="23.585451"><ele>2614.5</ele><time>2026-04-05T09:11:43.000Z</time></trkpt>
<trkpt lat="42.189386" lon="23.585452"><ele>2614.7</ele><time>2026-04-05T09:11:44.000Z</time></trkpt>
<trkpt lat="42.189385" lon="23.585453"><ele>2614.7</ele><time>2026-04-05T09:11:45.000Z</time></trkpt>
<trkpt lat="42.189384" lon="23.585453"><ele>2614.7</ele><time>2026-04-05T09:11:46.000Z</time></trkpt>
<trkpt lat="42.189384" lon="23.585453"><ele>2614.7</ele><time>2026-04-05T09:11:47.000Z</time></trkpt>
<trkpt lat="42.189384" lon="23.585453"><ele>2614.7</ele><time>2026-04-05T09:11:48.000Z</time></trkpt>
<trkpt lat="42.189384" lon="23.585453"><ele>2614.8</ele><time>2026-04-05T09:11:49.000Z</time></trkpt>
<trkpt lat="42.189384" lon="23.585454"><ele>2614.8</ele><time>2026-04-05T09:11:50.000Z</time></trkpt>
<trkpt lat="42.189384" lon="23.585454"><ele>2614.8</ele><time>2026-04-05T09:11:51.000Z</time></trkpt>
<trkpt lat="42.189384" lon="23.585455"><ele>2614.8</ele><time>2026-04-05T09:11:52.000Z</time></trkpt>
<trkpt lat="42.189384" lon="23.585455"><ele>2614.8</ele><time>2026-04-05T09:11:53.000Z</time></trkpt>
<trkpt lat="42.189384" lon="23.585456"><ele>2614.9</ele><time>2026-04-05T09:11:54.000Z</time></trkpt>
<trkpt lat="42.189384" lon="23.585456"><ele>2614.9</ele><time>2026-04-05T09:11:55.000Z</time></trkpt>
<trkpt lat="42.189384" lon="23.585456"><ele>2614.9</ele><time>2026-04-05T09:11:56.000Z</time></trkpt>
<trkpt lat="42.189383" lon="23.585456"><ele>2614.9</ele><time>2026-04-05T09:11:57.000Z</time></trkpt>
<trkpt lat="42.189383" lon="23.585456"><ele>2614.9</ele><time>2026-04-05T09:11:58.000Z</time></trkpt>
<trkpt lat="42.189383" lon="23.585455"><ele>2614.8</ele><time>2026-04-05T09:11:59.000Z</time></trkpt>
<trkpt lat="42.189383" lon="23.585455"><ele>2614.8</ele><time>2026-04-05T09:12:00.000Z</time></trkpt>
<trkpt lat="42.189383" lon="23.585455"><ele>2614.8</ele><time>2026-04-05T09:12:01.000Z</time></trkpt>
<trkpt lat="42.189383" lon="23.585455"><ele>2614.8</ele><time>2026-04-05T09:12:02.000Z</time></trkpt>
<trkpt lat="42.189383" lon="23.585455"><ele>2614.8</ele><time>2026-04-05T09:12:03.000Z</time></trkpt>
<trkpt lat="42.189383" lon="23.585455"><ele>2614.8</ele><time>2026-04-05T09:12:04.000Z</time></trkpt>
<trkpt lat="42.189383" lon="23.585455"><ele>2614.8</ele><time>2026-04-05T09:12:05.000Z</time></trkpt>
<trkpt lat="42.189383" lon="23.585455"><ele>2614.8</ele><time>2026-04-05T09:12:06.000Z</time></trkpt>
<trkpt lat="42.189383" lon="23.585455"><ele>2614.8</ele><time>2026-04-05T09:12:07.000Z</time></trkpt>
<trkpt lat="42.189383" lon="23.585455"><ele>2614.8</ele><time>2026-04-05T09:12:08.000Z</time></trkpt>
<trkpt lat="42.189383" lon="23.585455"><ele>2614.6</ele><time>2026-04-05T09:12:09.000Z</time></trkpt>
<trkpt lat="42.189383" lon="23.585455"><ele>2614.6</ele><time>2026-04-05T09:12:10.000Z</time></trkpt>
<trkpt lat="42.189383" lon="23.585455"><ele>2614.6</ele><time>2026-04-05T09:12:11.000Z</time></trkpt>
<trkpt lat="42.189383" lon="23.585455"><ele>2614.6</ele><time>2026-04-05T09:12:12.000Z</time></trkpt>
<trkpt lat="42.189383" lon="23.585455"><ele>2614.6</ele><time>2026-04-05T09:12:13.000Z</time></trkpt>
<trkpt lat="42.189383" lon="23.585455"><ele>2614.5</ele><time>2026-04-05T09:12:14.000Z</time></trkpt>
<trkpt lat="42.189383" lon="23.585455"><ele>2614.5</ele><time>2026-04-05T09:12:15.000Z</time></trkpt>
<trkpt lat="42.189383" lon="23.585455"><ele>2614.5</ele><time>2026-04-05T09:12:16.000Z</time></trkpt>
<trkpt lat="42.189384" lon="23.585455"><ele>2614.5</ele><time>2026-04-05T09:12:17.000Z</time></trkpt>
<trkpt lat="42.189383" lon="23.585455"><ele>2614.5</ele><time>2026-04-05T09:12:18.000Z</time></trkpt>
<trkpt lat="42.189383" lon="23.585455"><ele>2614.5</ele><time>2026-04-05T09:12:19.000Z</time></trkpt>
<trkpt lat="42.189384" lon="23.585456"><ele>2614.5</ele><time>2026-04-05T09:12:20.000Z</time></trkpt>
<trkpt lat="42.189384" lon="23.585457"><ele>2614.5</ele><time>2026-04-05T09:12:21.000Z</time></trkpt>
<trkpt lat="42.189384" lon="23.585459"><ele>2614.5</ele><time>2026-04-05T09:12:22.000Z</time></trkpt>
<trkpt lat="42.189385" lon="23.585461"><ele>2614.5</ele><time>2026-04-05T09:12:23.000Z</time></trkpt>
<trkpt lat="42.189385" lon="23.585461"><ele>2614.5</ele><time>2026-04-05T09:12:24.000Z</time></trkpt>
<trkpt lat="42.189384" lon="23.58546"><ele>2614.5</ele><time>2026-04-05T09:12:25.000Z</time></trkpt>
<trkpt lat="42.189384" lon="23.585459"><ele>2614.5</ele><time>2026-04-05T09:12:26.000Z</time></trkpt>
<trkpt lat="42.189383" lon="23.585458"><ele>2614.5</ele><time>2026-04-05T09:12:27.000Z</time></trkpt>
<trkpt lat="42.189383" lon="23.585457"><ele>2614.5</ele><time>2026-04-05T09:12:28.000Z</time></trkpt>
<trkpt lat="42.189382" lon="23.585457"><ele>2614.4</ele><time>2026-04-05T09:12:29.000Z</time></trkpt>
<trkpt lat="42.189382" lon="23.585457"><ele>2614.4</ele><time>2026-04-05T09:12:30.000Z</time></trkpt>
<trkpt lat="42.189382" lon="23.585457"><ele>2614.4</ele><time>2026-04-05T09:12:31.000Z</time></trkpt>
<trkpt lat="42.189382" lon="23.585457"><ele>2614.4</ele><time>2026-04-05T09:12:32.000Z</time></trkpt>
<trkpt lat="42.189382" lon="23.585457"><ele>2614.4</ele><time>2026-04-05T09:12:33.000Z</time></trkpt>
<trkpt lat="42.189382" lon="23.585457"><ele>2614.4</ele><time>2026-04-05T09:12:34.000Z</time></trkpt>
<trkpt lat="42.189382" lon="23.585457"><ele>2614.4</ele><time>2026-04-05T09:12:35.000Z</time></trkpt>
<trkpt lat="42.189383" lon="23.585457"><ele>2614.4</ele><time>2026-04-05T09:12:36.000Z</time></trkpt>
<trkpt lat="42.189383" lon="23.585456"><ele>2614.4</ele><time>2026-04-05T09:12:37.000Z</time></trkpt>
<trkpt lat="42.189383" lon="23.585456"><ele>2614.4</ele><time>2026-04-05T09:12:38.000Z</time></trkpt>
<trkpt lat="42.189383" lon="23.585456"><ele>2614.2</ele><time>2026-04-05T09:12:39.000Z</time></trkpt>
<trkpt lat="42.189383" lon="23.585456"><ele>2614.2</ele><time>2026-04-05T09:12:40.000Z</time></trkpt>
<trkpt lat="42.189383" lon="23.585456"><ele>2614.2</ele><time>2026-04-05T09:12:41.000Z</time></trkpt>
<trkpt lat="42.189383" lon="23.585457"><ele>2614.2</ele><time>2026-04-05T09:12:42.000Z</time></trkpt>
<trkpt lat="42.189382" lon="23.585457"><ele>2614.2</ele><time>2026-04-05T09:12:43.000Z</time></trkpt>
<trkpt lat="42.189382" lon="23.585457"><ele>2614.2</ele><time>2026-04-05T09:12:44.000Z</time></trkpt>
<trkpt lat="42.189382" lon="23.585457"><ele>2614.2</ele><time>2026-04-05T09:12:45.000Z</time></trkpt>
<trkpt lat="42.189382" lon="23.585457"><ele>2614.2</ele><time>2026-04-05T09:12:46.000Z</time></trkpt>
<trkpt lat="42.189382" lon="23.585457"><ele>2614.2</ele><time>2026-04-05T09:12:47.000Z</time></trkpt>
<trkpt lat="42.189382" lon="23.585457"><ele>2614.2</ele><time>2026-04-05T09:12:48.000Z</time></trkpt>
<trkpt lat="42.189382" lon="23.585457"><ele>2614.2</ele><time>2026-04-05T09:12:49.000Z</time></trkpt>
<trkpt lat="42.189382" lon="23.585457"><ele>2614.2</ele><time>2026-04-05T09:12:50.000Z</time></trkpt>
<trkpt lat="42.189382" lon="23.585457"><ele>2614.2</ele><time>2026-04-05T09:12:51.000Z</time></trkpt>
<trkpt lat="42.189382" lon="23.585457"><ele>2614.2</ele><time>2026-04-05T09:12:52.000Z</time></trkpt>
<trkpt lat="42.189382" lon="23.585457"><ele>2614.2</ele><time>2026-04-05T09:12:53.000Z</time></trkpt>
<trkpt lat="42.189382" lon="23.585457"><ele>2614.3</ele><time>2026-04-05T09:12:54.000Z</time></trkpt>
<trkpt lat="42.189381" lon="23.585457"><ele>2614.3</ele><time>2026-04-05T09:12:55.000Z</time></trkpt>
<trkpt lat="42.189381" lon="23.585456"><ele>2614.3</ele><time>2026-04-05T09:12:56.000Z</time></trkpt>
<trkpt lat="42.189381" lon="23.585456"><ele>2614.3</ele><time>2026-04-05T09:12:57.000Z</time></trkpt>
<trkpt lat="42.189381" lon="23.585456"><ele>2614.3</ele><time>2026-04-05T09:12:58.000Z</time></trkpt>
<trkpt lat="42.189381" lon="23.585456"><ele>2614.2</ele><time>2026-04-05T09:12:59.000Z</time></trkpt>
<trkpt lat="42.189381" lon="23.585457"><ele>2614.2</ele><time>2026-04-05T09:13:00.000Z</time></trkpt>
<trkpt lat="42.18938" lon="23.585458"><ele>2614.2</ele><time>2026-04-05T09:13:01.000Z</time></trkpt>
<trkpt lat="42.189378" lon="23.58546"><ele>2614.2</ele><time>2026-04-05T09:13:02.000Z</time></trkpt>
<trkpt lat="42.189375" lon="23.585462"><ele>2614.2</ele><time>2026-04-05T09:13:03.000Z</time></trkpt>
<trkpt lat="42.18937" lon="23.585464"><ele>2614.1</ele><time>2026-04-05T09:13:04.000Z</time></trkpt>
<trkpt lat="42.189365" lon="23.585466"><ele>2614.1</ele><time>2026-04-05T09:13:05.000Z</time></trkpt>
<trkpt lat="42.189357" lon="23.585468"><ele>2614.1</ele><time>2026-04-05T09:13:06.000Z</time></trkpt>
<trkpt lat="42.18935" lon="23.58547"><ele>2614.1</ele><time>2026-04-05T09:13:07.000Z</time></trkpt>
<trkpt lat="42.189344" lon="23.585473"><ele>2614.1</ele><time>2026-04-05T09:13:08.000Z</time></trkpt>
<trkpt lat="42.189335" lon="23.585477"><ele>2614.2</ele><time>2026-04-05T09:13:09.000Z</time></trkpt>
<trkpt lat="42.189327" lon="23.585482"><ele>2614.2</ele><time>2026-04-05T09:13:10.000Z</time></trkpt>
<trkpt lat="42.189318" lon="23.585487"><ele>2614.2</ele><time>2026-04-05T09:13:11.000Z</time></trkpt>
<trkpt lat="42.18931" lon="23.585493"><ele>2614.2</ele><time>2026-04-05T09:13:12.000Z</time></trkpt>
<trkpt lat="42.189303" lon="23.585497"><ele>2614.2</ele><time>2026-04-05T09:13:13.000Z</time></trkpt>
<trkpt lat="42.189295" lon="23.585502"><ele>2614.6</ele><time>2026-04-05T09:13:14.000Z</time></trkpt>
<trkpt lat="42.189287" lon="23.585506"><ele>2614.6</ele><time>2026-04-05T09:13:15.000Z</time></trkpt>
<trkpt lat="42.18928" lon="23.585508"><ele>2614.6</ele><time>2026-04-05T09:13:16.000Z</time></trkpt>
<trkpt lat="42.189273" lon="23.585511"><ele>2614.6</ele><time>2026-04-05T09:13:17.000Z</time></trkpt>
<trkpt lat="42.189265" lon="23.585513"><ele>2614.6</ele><time>2026-04-05T09:13:18.000Z</time></trkpt>
<trkpt lat="42.189258" lon="23.585514"><ele>2614.8</ele><time>2026-04-05T09:13:19.000Z</time></trkpt>
<trkpt lat="42.189251" lon="23.585516"><ele>2614.8</ele><time>2026-04-05T09:13:20.000Z</time></trkpt>
<trkpt lat="42.189244" lon="23.585517"><ele>2614.8</ele><time>2026-04-05T09:13:21.000Z</time></trkpt>
<trkpt lat="42.189235" lon="23.585518"><ele>2614.8</ele><time>2026-04-05T09:13:22.000Z</time></trkpt>
<trkpt lat="42.189227" lon="23.585521"><ele>2614.8</ele><time>2026-04-05T09:13:23.000Z</time></trkpt>
<trkpt lat="42.189218" lon="23.585522"><ele>2615.4</ele><time>2026-04-05T09:13:24.000Z</time></trkpt>
<trkpt lat="42.189208" lon="23.585524"><ele>2615.4</ele><time>2026-04-05T09:13:25.000Z</time></trkpt>
<trkpt lat="42.189198" lon="23.585525"><ele>2615.4</ele><time>2026-04-05T09:13:26.000Z</time></trkpt>
<trkpt lat="42.189187" lon="23.585528"><ele>2615.4</ele><time>2026-04-05T09:13:27.000Z</time></trkpt>
<trkpt lat="42.189176" lon="23.585531"><ele>2615.4</ele><time>2026-04-05T09:13:28.000Z</time></trkpt>
<trkpt lat="42.189164" lon="23.585534"><ele>2616</ele><time>2026-04-05T09:13:29.000Z</time></trkpt>
<trkpt lat="42.189153" lon="23.585538"><ele>2616</ele><time>2026-04-05T09:13:30.000Z</time></trkpt>
<trkpt lat="42.189142" lon="23.585541"><ele>2616</ele><time>2026-04-05T09:13:31.000Z</time></trkpt>
<trkpt lat="42.189132" lon="23.585543"><ele>2616</ele><time>2026-04-05T09:13:32.000Z</time></trkpt>
<trkpt lat="42.189122" lon="23.585545"><ele>2616</ele><time>2026-04-05T09:13:33.000Z</time></trkpt>
<trkpt lat="42.189113" lon="23.585546"><ele>2616.2</ele><time>2026-04-05T09:13:34.000Z</time></trkpt>
<trkpt lat="42.189102" lon="23.585547"><ele>2616.2</ele><time>2026-04-05T09:13:35.000Z</time></trkpt>
<trkpt lat="42.189093" lon="23.585547"><ele>2616.2</ele><time>2026-04-05T09:13:36.000Z</time></trkpt>
<trkpt lat="42.189085" lon="23.585548"><ele>2616.2</ele><time>2026-04-05T09:13:37.000Z</time></trkpt>
<trkpt lat="42.189077" lon="23.585549"><ele>2616.2</ele><time>2026-04-05T09:13:38.000Z</time></trkpt>
<trkpt lat="42.189071" lon="23.58555"><ele>2616.6</ele><time>2026-04-05T09:13:39.000Z</time></trkpt>
<trkpt lat="42.189067" lon="23.585552"><ele>2616.6</ele><time>2026-04-05T09:13:40.000Z</time></trkpt>
<trkpt lat="42.189065" lon="23.585556"><ele>2616.6</ele><time>2026-04-05T09:13:41.000Z</time></trkpt>
<trkpt lat="42.189062" lon="23.585563"><ele>2616.6</ele><time>2026-04-05T09:13:42.000Z</time></trkpt>
<trkpt lat="42.189059" lon="23.585571"><ele>2616.6</ele><time>2026-04-05T09:13:43.000Z</time></trkpt>
<trkpt lat="42.189055" lon="23.58558"><ele>2616.7</ele><time>2026-04-05T09:13:44.000Z</time></trkpt>
<trkpt lat="42.189049" lon="23.58559"><ele>2616.7</ele><time>2026-04-05T09:13:45.000Z</time></trkpt>
<trkpt lat="42.189042" lon="23.585598"><ele>2616.7</ele><time>2026-04-05T09:13:46.000Z</time></trkpt>
<trkpt lat="42.189034" lon="23.585604"><ele>2616.7</ele><time>2026-04-05T09:13:47.000Z</time></trkpt>
<trkpt lat="42.189025" lon="23.585608"><ele>2616.7</ele><time>2026-04-05T09:13:48.000Z</time></trkpt>
<trkpt lat="42.189017" lon="23.585611"><ele>2616.7</ele><time>2026-04-05T09:13:49.000Z</time></trkpt>
<trkpt lat="42.189009" lon="23.585612"><ele>2616.7</ele><time>2026-04-05T09:13:50.000Z</time></trkpt>
<trkpt lat="42.189001" lon="23.585613"><ele>2616.7</ele><time>2026-04-05T09:13:51.000Z</time></trkpt>
<trkpt lat="42.188993" lon="23.585612"><ele>2616.7</ele><time>2026-04-05T09:13:52.000Z</time></trkpt>
<trkpt lat="42.188986" lon="23.585611"><ele>2616.7</ele><time>2026-04-05T09:13:53.000Z</time></trkpt>
<trkpt lat="42.188979" lon="23.58561"><ele>2616.8</ele><time>2026-04-05T09:13:54.000Z</time></trkpt>
<trkpt lat="42.188973" lon="23.585609"><ele>2616.8</ele><time>2026-04-05T09:13:55.000Z</time></trkpt>
<trkpt lat="42.188967" lon="23.585607"><ele>2616.8</ele><time>2026-04-05T09:13:56.000Z</time></trkpt>
<trkpt lat="42.188961" lon="23.585605"><ele>2616.8</ele><time>2026-04-05T09:13:57.000Z</time></trkpt>
<trkpt lat="42.188955" lon="23.585604"><ele>2616.8</ele><time>2026-04-05T09:13:58.000Z</time></trkpt>
<trkpt lat="42.188949" lon="23.585602"><ele>2617</ele><time>2026-04-05T09:13:59.000Z</time></trkpt>
<trkpt lat="42.188943" lon="23.585601"><ele>2617</ele><time>2026-04-05T09:14:00.000Z</time></trkpt>
<trkpt lat="42.188936" lon="23.585601"><ele>2617</ele><time>2026-04-05T09:14:01.000Z</time></trkpt>
<trkpt lat="42.188931" lon="23.585602"><ele>2617</ele><time>2026-04-05T09:14:02.000Z</time></trkpt>
<trkpt lat="42.188926" lon="23.585604"><ele>2617</ele><time>2026-04-05T09:14:03.000Z</time></trkpt>
<trkpt lat="42.18892" lon="23.585606"><ele>2617.2</ele><time>2026-04-05T09:14:04.000Z</time></trkpt>
<trkpt lat="42.188916" lon="23.585609"><ele>2617.2</ele><time>2026-04-05T09:14:05.000Z</time></trkpt>
<trkpt lat="42.188911" lon="23.58561"><ele>2617.2</ele><time>2026-04-05T09:14:06.000Z</time></trkpt>
<trkpt lat="42.188906" lon="23.585613"><ele>2617.2</ele><time>2026-04-05T09:14:07.000Z</time></trkpt>
<trkpt lat="42.188901" lon="23.585615"><ele>2617.2</ele><time>2026-04-05T09:14:08.000Z</time></trkpt>
<trkpt lat="42.188896" lon="23.585617"><ele>2618</ele><time>2026-04-05T09:14:09.000Z</time></trkpt>
<trkpt lat="42.188891" lon="23.58562"><ele>2618</ele><time>2026-04-05T09:14:10.000Z</time></trkpt>
<trkpt lat="42.188885" lon="23.585624"><ele>2618</ele><time>2026-04-05T09:14:11.000Z</time></trkpt>
<trkpt lat="42.18888" lon="23.585627"><ele>2618</ele><time>2026-04-05T09:14:12.000Z</time></trkpt>
<trkpt lat="42.188875" lon="23.58563"><ele>2618</ele><time>2026-04-05T09:14:13.000Z</time></trkpt>
<trkpt lat="42.18887" lon="23.585633"><ele>2619</ele><time>2026-04-05T09:14:14.000Z</time></trkpt>
<trkpt lat="42.188865" lon="23.585634"><ele>2619</ele><time>2026-04-05T09:14:15.000Z</time></trkpt>
<trkpt lat="42.18886" lon="23.585635"><ele>2619</ele><time>2026-04-05T09:14:16.000Z</time></trkpt>
<trkpt lat="42.188855" lon="23.585636"><ele>2619</ele><time>2026-04-05T09:14:17.000Z</time></trkpt>
<trkpt lat="42.188851" lon="23.585635"><ele>2619</ele><time>2026-04-05T09:14:18.000Z</time></trkpt>
<trkpt lat="42.188846" lon="23.585635"><ele>2619.6</ele><time>2026-04-05T09:14:19.000Z</time></trkpt>
<trkpt lat="42.188842" lon="23.585634"><ele>2619.6</ele><time>2026-04-05T09:14:20.000Z</time></trkpt>
<trkpt lat="42.188837" lon="23.585631"><ele>2619.6</ele><time>2026-04-05T09:14:21.000Z</time></trkpt>
<trkpt lat="42.188831" lon="23.58563"><ele>2619.6</ele><time>2026-04-05T09:14:22.000Z</time></trkpt>
<trkpt lat="42.188825" lon="23.585628"><ele>2619.6</ele><time>2026-04-05T09:14:23.000Z</time></trkpt>
<trkpt lat="42.188819" lon="23.585626"><ele>2620.6</ele><time>2026-04-05T09:14:24.000Z</time></trkpt>
<trkpt lat="42.188812" lon="23.585624"><ele>2620.6</ele><time>2026-04-05T09:14:25.000Z</time></trkpt>
<trkpt lat="42.188805" lon="23.585623"><ele>2620.6</ele><time>2026-04-05T09:14:26.000Z</time></trkpt>
<trkpt lat="42.188798" lon="23.58562"><ele>2620.6</ele><time>2026-04-05T09:14:27.000Z</time></trkpt>
<trkpt lat="42.188791" lon="23.585617"><ele>2620.6</ele><time>2026-04-05T09:14:28.000Z</time></trkpt>
<trkpt lat="42.188783" lon="23.585615"><ele>2621.6</ele><time>2026-04-05T09:14:29.000Z</time></trkpt>
<trkpt lat="42.188776" lon="23.585613"><ele>2621.6</ele><time>2026-04-05T09:14:30.000Z</time></trkpt>
<trkpt lat="42.18877" lon="23.585612"><ele>2621.6</ele><time>2026-04-05T09:14:31.000Z</time></trkpt>
<trkpt lat="42.188764" lon="23.585613"><ele>2621.6</ele><time>2026-04-05T09:14:32.000Z</time></trkpt>
<trkpt lat="42.188758" lon="23.585614"><ele>2621.6</ele><time>2026-04-05T09:14:33.000Z</time></trkpt>
<trkpt lat="42.188752" lon="23.585617"><ele>2622</ele><time>2026-04-05T09:14:34.000Z</time></trkpt>
<trkpt lat="42.188747" lon="23.585619"><ele>2622</ele><time>2026-04-05T09:14:35.000Z</time></trkpt>
<trkpt lat="42.188742" lon="23.585619"><ele>2622</ele><time>2026-04-05T09:14:36.000Z</time></trkpt>
<trkpt lat="42.188738" lon="23.58562"><ele>2622</ele><time>2026-04-05T09:14:37.000Z</time></trkpt>
<trkpt lat="42.188735" lon="23.58562"><ele>2622</ele><time>2026-04-05T09:14:38.000Z</time></trkpt>
<trkpt lat="42.188731" lon="23.58562"><ele>2622.6</ele><time>2026-04-05T09:14:39.000Z</time></trkpt>
<trkpt lat="42.188727" lon="23.58562"><ele>2622.6</ele><time>2026-04-05T09:14:40.000Z</time></trkpt>
<trkpt lat="42.188721" lon="23.58562"><ele>2622.6</ele><time>2026-04-05T09:14:41.000Z</time></trkpt>
<trkpt lat="42.188714" lon="23.58562"><ele>2622.6</ele><time>2026-04-05T09:14:42.000Z</time></trkpt>
<trkpt lat="42.188708" lon="23.585621"><ele>2622.6</ele><time>2026-04-05T09:14:43.000Z</time></trkpt>
<trkpt lat="42.188702" lon="23.585623"><ele>2623.1</ele><time>2026-04-05T09:14:44.000Z</time></trkpt>
<trkpt lat="42.188698" lon="23.585626"><ele>2623.1</ele><time>2026-04-05T09:14:45.000Z</time></trkpt>
<trkpt lat="42.188695" lon="23.585632"><ele>2623.1</ele><time>2026-04-05T09:14:46.000Z</time></trkpt>
<trkpt lat="42.188693" lon="23.585638"><ele>2623.1</ele><time>2026-04-05T09:14:47.000Z</time></trkpt>
<trkpt lat="42.188693" lon="23.585646"><ele>2623.1</ele><time>2026-04-05T09:14:48.000Z</time></trkpt>
<trkpt lat="42.188693" lon="23.585654"><ele>2623.3</ele><time>2026-04-05T09:14:49.000Z</time></trkpt>
<trkpt lat="42.188693" lon="23.585662"><ele>2623.3</ele><time>2026-04-05T09:14:50.000Z</time></trkpt>
<trkpt lat="42.188693" lon="23.58567"><ele>2623.3</ele><time>2026-04-05T09:14:51.000Z</time></trkpt>
<trkpt lat="42.188693" lon="23.585677"><ele>2623.3</ele><time>2026-04-05T09:14:52.000Z</time></trkpt>
<trkpt lat="42.188691" lon="23.585685"><ele>2623.3</ele><time>2026-04-05T09:14:53.000Z</time></trkpt>
<trkpt lat="42.188689" lon="23.585694"><ele>2623.7</ele><time>2026-04-05T09:14:54.000Z</time></trkpt>
<trkpt lat="42.188687" lon="23.585704"><ele>2623.7</ele><time>2026-04-05T09:14:55.000Z</time></trkpt>
<trkpt lat="42.188685" lon="23.585714"><ele>2623.7</ele><time>2026-04-05T09:14:56.000Z</time></trkpt>
<trkpt lat="42.188681" lon="23.585725"><ele>2623.7</ele><time>2026-04-05T09:14:57.000Z</time></trkpt>
<trkpt lat="42.188677" lon="23.585736"><ele>2623.7</ele><time>2026-04-05T09:14:58.000Z</time></trkpt>
<trkpt lat="42.188672" lon="23.585746"><ele>2623.8</ele><time>2026-04-05T09:14:59.000Z</time></trkpt>
<trkpt lat="42.188667" lon="23.585755"><ele>2623.8</ele><time>2026-04-05T09:15:00.000Z</time></trkpt>
<trkpt lat="42.188663" lon="23.585763"><ele>2623.8</ele><time>2026-04-05T09:15:01.000Z</time></trkpt>
<trkpt lat="42.188659" lon="23.585771"><ele>2623.8</ele><time>2026-04-05T09:15:02.000Z</time></trkpt>
<trkpt lat="42.188657" lon="23.585777"><ele>2623.8</ele><time>2026-04-05T09:15:03.000Z</time></trkpt>
<trkpt lat="42.188655" lon="23.585784"><ele>2623.7</ele><time>2026-04-05T09:15:04.000Z</time></trkpt>
<trkpt lat="42.188655" lon="23.585791"><ele>2623.7</ele><time>2026-04-05T09:15:05.000Z</time></trkpt>
<trkpt lat="42.188655" lon="23.585799"><ele>2623.7</ele><time>2026-04-05T09:15:06.000Z</time></trkpt>
<trkpt lat="42.188655" lon="23.585807"><ele>2623.7</ele><time>2026-04-05T09:15:07.000Z</time></trkpt>
<trkpt lat="42.188652" lon="23.585815"><ele>2623.7</ele><time>2026-04-05T09:15:08.000Z</time></trkpt>
<trkpt lat="42.188649" lon="23.585822"><ele>2623.3</ele><time>2026-04-05T09:15:09.000Z</time></trkpt>
<trkpt lat="42.188644" lon="23.585828"><ele>2623.3</ele><time>2026-04-05T09:15:10.000Z</time></trkpt>
<trkpt lat="42.188639" lon="23.585833"><ele>2623.3</ele><time>2026-04-05T09:15:11.000Z</time></trkpt>
<trkpt lat="42.188634" lon="23.585836"><ele>2623.3</ele><time>2026-04-05T09:15:12.000Z</time></trkpt>
<trkpt lat="42.18863" lon="23.58584"><ele>2623.3</ele><time>2026-04-05T09:15:13.000Z</time></trkpt>
<trkpt lat="42.188627" lon="23.585844"><ele>2622.7</ele><time>2026-04-05T09:15:14.000Z</time></trkpt>
<trkpt lat="42.188624" lon="23.585849"><ele>2622.7</ele><time>2026-04-05T09:15:15.000Z</time></trkpt>
<trkpt lat="42.188621" lon="23.585855"><ele>2622.7</ele><time>2026-04-05T09:15:16.000Z</time></trkpt>
<trkpt lat="42.188617" lon="23.58586"><ele>2622.7</ele><time>2026-04-05T09:15:17.000Z</time></trkpt>
<trkpt lat="42.188614" lon="23.585865"><ele>2622.7</ele><time>2026-04-05T09:15:18.000Z</time></trkpt>
<trkpt lat="42.18861" lon="23.585869"><ele>2622.4</ele><time>2026-04-05T09:15:19.000Z</time></trkpt>
<trkpt lat="42.188606" lon="23.585875"><ele>2622.4</ele><time>2026-04-05T09:15:20.000Z</time></trkpt>
<trkpt lat="42.188602" lon="23.58588"><ele>2622.4</ele><time>2026-04-05T09:15:21.000Z</time></trkpt>
<trkpt lat="42.188599" lon="23.585887"><ele>2622.4</ele><time>2026-04-05T09:15:22.000Z</time></trkpt>
<trkpt lat="42.188595" lon="23.585895"><ele>2622.4</ele><time>2026-04-05T09:15:23.000Z</time></trkpt>
<trkpt lat="42.188592" lon="23.585904"><ele>2621.8</ele><time>2026-04-05T09:15:24.000Z</time></trkpt>
<trkpt lat="42.18859" lon="23.585913"><ele>2621.8</ele><time>2026-04-05T09:15:25.000Z</time></trkpt>
<trkpt lat="42.188588" lon="23.585921"><ele>2621.8</ele><time>2026-04-05T09:15:26.000Z</time></trkpt>
<trkpt lat="42.188585" lon="23.585929"><ele>2621.8</ele><time>2026-04-05T09:15:27.000Z</time></trkpt>
<trkpt lat="42.188583" lon="23.585934"><ele>2621.8</ele><time>2026-04-05T09:15:28.000Z</time></trkpt>
<trkpt lat="42.188583" lon="23.585939"><ele>2621.2</ele><time>2026-04-05T09:15:29.000Z</time></trkpt>
<trkpt lat="42.188583" lon="23.585944"><ele>2621.2</ele><time>2026-04-05T09:15:30.000Z</time></trkpt>
<trkpt lat="42.188585" lon="23.585951"><ele>2621.2</ele><time>2026-04-05T09:15:31.000Z</time></trkpt>
<trkpt lat="42.188586" lon="23.585958"><ele>2621.2</ele><time>2026-04-05T09:15:32.000Z</time></trkpt>
<trkpt lat="42.188585" lon="23.585968"><ele>2621.2</ele><time>2026-04-05T09:15:33.000Z</time></trkpt>
<trkpt lat="42.188583" lon="23.585976"><ele>2620.9</ele><time>2026-04-05T09:15:34.000Z</time></trkpt>
<trkpt lat="42.188581" lon="23.585982"><ele>2620.9</ele><time>2026-04-05T09:15:35.000Z</time></trkpt>
<trkpt lat="42.188579" lon="23.585986"><ele>2620.9</ele><time>2026-04-05T09:15:36.000Z</time></trkpt>
<trkpt lat="42.188577" lon="23.585989"><ele>2620.9</ele><time>2026-04-05T09:15:37.000Z</time></trkpt>
<trkpt lat="42.188576" lon="23.585992"><ele>2620.9</ele><time>2026-04-05T09:15:38.000Z</time></trkpt>
<trkpt lat="42.188576" lon="23.585996"><ele>2620.1</ele><time>2026-04-05T09:15:39.000Z</time></trkpt>
<trkpt lat="42.188576" lon="23.586001"><ele>2620.1</ele><time>2026-04-05T09:15:40.000Z</time></trkpt>
<trkpt lat="42.188574" lon="23.586006"><ele>2620.1</ele><time>2026-04-05T09:15:41.000Z</time></trkpt>
<trkpt lat="42.188573" lon="23.586009"><ele>2620.1</ele><time>2026-04-05T09:15:42.000Z</time></trkpt>
<trkpt lat="42.188571" lon="23.586011"><ele>2620.1</ele><time>2026-04-05T09:15:43.000Z</time></trkpt>
<trkpt lat="42.18857" lon="23.586011"><ele>2619.3</ele><time>2026-04-05T09:15:44.000Z</time></trkpt>
<trkpt lat="42.188569" lon="23.586011"><ele>2619.3</ele><time>2026-04-05T09:15:45.000Z</time></trkpt>
<trkpt lat="42.188567" lon="23.586013"><ele>2619.3</ele><time>2026-04-05T09:15:46.000Z</time></trkpt>
<trkpt lat="42.188565" lon="23.586017"><ele>2619.3</ele><time>2026-04-05T09:15:47.000Z</time></trkpt>
<trkpt lat="42.188562" lon="23.586024"><ele>2619.3</ele><time>2026-04-05T09:15:48.000Z</time></trkpt>
<trkpt lat="42.188557" lon="23.586031"><ele>2619</ele><time>2026-04-05T09:15:49.000Z</time></trkpt>
<trkpt lat="42.188551" lon="23.586038"><ele>2619</ele><time>2026-04-05T09:15:50.000Z</time></trkpt>
<trkpt lat="42.188545" lon="23.586043"><ele>2619</ele><time>2026-04-05T09:15:51.000Z</time></trkpt>
<trkpt lat="42.188538" lon="23.586048"><ele>2619</ele><time>2026-04-05T09:15:52.000Z</time></trkpt>
<trkpt lat="42.188532" lon="23.586052"><ele>2619</ele><time>2026-04-05T09:15:53.000Z</time></trkpt>
<trkpt lat="42.188527" lon="23.586055"><ele>2618.5</ele><time>2026-04-05T09:15:54.000Z</time></trkpt>
<trkpt lat="42.188522" lon="23.58606"><ele>2618.5</ele><time>2026-04-05T09:15:55.000Z</time></trkpt>
<trkpt lat="42.188517" lon="23.586065"><ele>2618.5</ele><time>2026-04-05T09:15:56.000Z</time></trkpt>
<trkpt lat="42.188512" lon="23.586072"><ele>2618.5</ele><time>2026-04-05T09:15:57.000Z</time></trkpt>
<trkpt lat="42.188506" lon="23.586078"><ele>2618.5</ele><time>2026-04-05T09:15:58.000Z</time></trkpt>
<trkpt lat="42.188501" lon="23.586086"><ele>2617.9</ele><time>2026-04-05T09:15:59.000Z</time></trkpt>
<trkpt lat="42.188496" lon="23.586093"><ele>2617.9</ele><time>2026-04-05T09:16:00.000Z</time></trkpt>
<trkpt lat="42.18849" lon="23.5861"><ele>2617.9</ele><time>2026-04-05T09:16:01.000Z</time></trkpt>
<trkpt lat="42.188485" lon="23.586107"><ele>2617.9</ele><time>2026-04-05T09:16:02.000Z</time></trkpt>
<trkpt lat="42.188479" lon="23.586115"><ele>2617.9</ele><time>2026-04-05T09:16:03.000Z</time></trkpt>
<trkpt lat="42.188473" lon="23.586123"><ele>2617.5</ele><time>2026-04-05T09:16:04.000Z</time></trkpt>
<trkpt lat="42.188466" lon="23.586132"><ele>2617.5</ele><time>2026-04-05T09:16:05.000Z</time></trkpt>
<trkpt lat="42.18846" lon="23.586141"><ele>2617.5</ele><time>2026-04-05T09:16:06.000Z</time></trkpt>
<trkpt lat="42.188454" lon="23.586152"><ele>2617.5</ele><time>2026-04-05T09:16:07.000Z</time></trkpt>
<trkpt lat="42.188447" lon="23.586163"><ele>2617.5</ele><time>2026-04-05T09:16:08.000Z</time></trkpt>
<trkpt lat="42.188441" lon="23.586172"><ele>2616.8</ele><time>2026-04-05T09:16:09.000Z</time></trkpt>
<trkpt lat="42.188435" lon="23.586179"><ele>2616.8</ele><time>2026-04-05T09:16:10.000Z</time></trkpt>
<trkpt lat="42.188428" lon="23.586187"><ele>2616.8</ele><time>2026-04-05T09:16:11.000Z</time></trkpt>
<trkpt lat="42.188422" lon="23.586193"><ele>2616.8</ele><time>2026-04-05T09:16:12.000Z</time></trkpt>
<trkpt lat="42.188417" lon="23.5862"><ele>2616.8</ele><time>2026-04-05T09:16:13.000Z</time></trkpt>
<trkpt lat="42.188412" lon="23.586207"><ele>2616.4</ele><time>2026-04-05T09:16:14.000Z</time></trkpt>
<trkpt lat="42.188408" lon="23.586217"><ele>2616.4</ele><time>2026-04-05T09:16:15.000Z</time></trkpt>
<trkpt lat="42.188405" lon="23.586227"><ele>2616.4</ele><time>2026-04-05T09:16:16.000Z</time></trkpt>
<trkpt lat="42.188401" lon="23.586233"><ele>2616.4</ele><time>2026-04-05T09:16:17.000Z</time></trkpt>
<trkpt lat="42.188398" lon="23.58624"><ele>2616.4</ele><time>2026-04-05T09:16:18.000Z</time></trkpt>
<trkpt lat="42.188395" lon="23.586248"><ele>2616.3</ele><time>2026-04-05T09:16:19.000Z</time></trkpt>
<trkpt lat="42.188392" lon="23.586256"><ele>2616.3</ele><time>2026-04-05T09:16:20.000Z</time></trkpt>
<trkpt lat="42.188388" lon="23.586263"><ele>2616.3</ele><time>2026-04-05T09:16:21.000Z</time></trkpt>
<trkpt lat="42.188385" lon="23.586273"><ele>2616.3</ele><time>2026-04-05T09:16:22.000Z</time></trkpt>
<trkpt lat="42.188381" lon="23.586283"><ele>2616.3</ele><time>2026-04-05T09:16:23.000Z</time></trkpt>
<trkpt lat="42.188376" lon="23.586292"><ele>2616.1</ele><time>2026-04-05T09:16:24.000Z</time></trkpt>
<trkpt lat="42.188371" lon="23.586301"><ele>2616.1</ele><time>2026-04-05T09:16:25.000Z</time></trkpt>
<trkpt lat="42.188365" lon="23.586308"><ele>2616.1</ele><time>2026-04-05T09:16:26.000Z</time></trkpt>
<trkpt lat="42.188359" lon="23.586316"><ele>2616.1</ele><time>2026-04-05T09:16:27.000Z</time></trkpt>
<trkpt lat="42.188352" lon="23.586324"><ele>2616.1</ele><time>2026-04-05T09:16:28.000Z</time></trkpt>
<trkpt lat="42.188345" lon="23.586332"><ele>2615.9</ele><time>2026-04-05T09:16:29.000Z</time></trkpt>
<trkpt lat="42.188339" lon="23.586341"><ele>2615.9</ele><time>2026-04-05T09:16:30.000Z</time></trkpt>
<trkpt lat="42.188334" lon="23.586351"><ele>2615.9</ele><time>2026-04-05T09:16:31.000Z</time></trkpt>
<trkpt lat="42.188329" lon="23.586362"><ele>2615.9</ele><time>2026-04-05T09:16:32.000Z</time></trkpt>
<trkpt lat="42.188323" lon="23.586374"><ele>2615.9</ele><time>2026-04-05T09:16:33.000Z</time></trkpt>
<trkpt lat="42.188316" lon="23.586387"><ele>2615.6</ele><time>2026-04-05T09:16:34.000Z</time></trkpt>
<trkpt lat="42.188309" lon="23.586399"><ele>2615.6</ele><time>2026-04-05T09:16:35.000Z</time></trkpt>
<trkpt lat="42.188303" lon="23.586411"><ele>2615.6</ele><time>2026-04-05T09:16:36.000Z</time></trkpt>
<trkpt lat="42.188297" lon="23.586423"><ele>2615.6</ele><time>2026-04-05T09:16:37.000Z</time></trkpt>
<trkpt lat="42.188291" lon="23.586434"><ele>2615.6</ele><time>2026-04-05T09:16:38.000Z</time></trkpt>
<trkpt lat="42.188285" lon="23.586446"><ele>2614.8</ele><time>2026-04-05T09:16:39.000Z</time></trkpt>
<trkpt lat="42.18828" lon="23.586456"><ele>2614.8</ele><time>2026-04-05T09:16:40.000Z</time></trkpt>
<trkpt lat="42.188273" lon="23.586465"><ele>2614.8</ele><time>2026-04-05T09:16:41.000Z</time></trkpt>
<trkpt lat="42.188268" lon="23.586474"><ele>2614.8</ele><time>2026-04-05T09:16:42.000Z</time></trkpt>
<trkpt lat="42.188264" lon="23.586482"><ele>2614.8</ele><time>2026-04-05T09:16:43.000Z</time></trkpt>
<trkpt lat="42.188261" lon="23.58649"><ele>2614.2</ele><time>2026-04-05T09:16:44.000Z</time></trkpt>
<trkpt lat="42.188258" lon="23.5865"><ele>2614.2</ele><time>2026-04-05T09:16:45.000Z</time></trkpt>
<trkpt lat="42.188256" lon="23.586509"><ele>2614.2</ele><time>2026-04-05T09:16:46.000Z</time></trkpt>
<trkpt lat="42.188252" lon="23.586518"><ele>2614.2</ele><time>2026-04-05T09:16:47.000Z</time></trkpt>
<trkpt lat="42.188248" lon="23.586526"><ele>2614.2</ele><time>2026-04-05T09:16:48.000Z</time></trkpt>
<trkpt lat="42.188243" lon="23.586533"><ele>2614.1</ele><time>2026-04-05T09:16:49.000Z</time></trkpt>
<trkpt lat="42.188238" lon="23.586539"><ele>2614.1</ele><time>2026-04-05T09:16:50.000Z</time></trkpt>
<trkpt lat="42.188233" lon="23.586545"><ele>2614.1</ele><time>2026-04-05T09:16:51.000Z</time></trkpt>
<trkpt lat="42.188231" lon="23.586551"><ele>2614.1</ele><time>2026-04-05T09:16:52.000Z</time></trkpt>
<trkpt lat="42.188229" lon="23.586559"><ele>2614.1</ele><time>2026-04-05T09:16:53.000Z</time></trkpt>
<trkpt lat="42.188227" lon="23.586567"><ele>2614.4</ele><time>2026-04-05T09:16:54.000Z</time></trkpt>
<trkpt lat="42.188225" lon="23.586577"><ele>2614.4</ele><time>2026-04-05T09:16:55.000Z</time></trkpt>
<trkpt lat="42.188223" lon="23.586587"><ele>2614.4</ele><time>2026-04-05T09:16:56.000Z</time></trkpt>
<trkpt lat="42.188219" lon="23.586597"><ele>2614.4</ele><time>2026-04-05T09:16:57.000Z</time></trkpt>
<trkpt lat="42.188216" lon="23.586605"><ele>2614.4</ele><time>2026-04-05T09:16:58.000Z</time></trkpt>
<trkpt lat="42.188212" lon="23.586614"><ele>2615.1</ele><time>2026-04-05T09:16:59.000Z</time></trkpt>
<trkpt lat="42.188208" lon="23.586623"><ele>2615.1</ele><time>2026-04-05T09:17:00.000Z</time></trkpt>
<trkpt lat="42.188204" lon="23.586631"><ele>2615.1</ele><time>2026-04-05T09:17:01.000Z</time></trkpt>
<trkpt lat="42.188199" lon="23.586639"><ele>2615.1</ele><time>2026-04-05T09:17:02.000Z</time></trkpt>
<trkpt lat="42.188194" lon="23.586647"><ele>2615.1</ele><time>2026-04-05T09:17:03.000Z</time></trkpt>
<trkpt lat="42.188188" lon="23.586654"><ele>2615.5</ele><time>2026-04-05T09:17:04.000Z</time></trkpt>
<trkpt lat="42.188181" lon="23.586659"><ele>2615.5</ele><time>2026-04-05T09:17:05.000Z</time></trkpt>
<trkpt lat="42.188174" lon="23.586663"><ele>2615.5</ele><time>2026-04-05T09:17:06.000Z</time></trkpt>
<trkpt lat="42.188167" lon="23.586667"><ele>2615.5</ele><time>2026-04-05T09:17:07.000Z</time></trkpt>
<trkpt lat="42.18816" lon="23.586669"><ele>2615.5</ele><time>2026-04-05T09:17:08.000Z</time></trkpt>
<trkpt lat="42.188152" lon="23.586673"><ele>2616.1</ele><time>2026-04-05T09:17:09.000Z</time></trkpt>
<trkpt lat="42.188145" lon="23.586677"><ele>2616.1</ele><time>2026-04-05T09:17:10.000Z</time></trkpt>
<trkpt lat="42.188139" lon="23.586681"><ele>2616.1</ele><time>2026-04-05T09:17:11.000Z</time></trkpt>
<trkpt lat="42.188132" lon="23.586684"><ele>2616.1</ele><time>2026-04-05T09:17:12.000Z</time></trkpt>
<trkpt lat="42.188126" lon="23.586687"><ele>2616.1</ele><time>2026-04-05T09:17:13.000Z</time></trkpt>
<trkpt lat="42.188119" lon="23.58669"><ele>2616.6</ele><time>2026-04-05T09:17:14.000Z</time></trkpt>
<trkpt lat="42.188113" lon="23.586693"><ele>2616.6</ele><time>2026-04-05T09:17:15.000Z</time></trkpt>
<trkpt lat="42.188107" lon="23.586696"><ele>2616.6</ele><time>2026-04-05T09:17:16.000Z</time></trkpt>
<trkpt lat="42.1881" lon="23.5867"><ele>2616.6</ele><time>2026-04-05T09:17:17.000Z</time></trkpt>
<trkpt lat="42.188094" lon="23.586704"><ele>2616.6</ele><time>2026-04-05T09:17:18.000Z</time></trkpt>
<trkpt lat="42.188087" lon="23.586708"><ele>2616.9</ele><time>2026-04-05T09:17:19.000Z</time></trkpt>
<trkpt lat="42.188081" lon="23.586712"><ele>2616.9</ele><time>2026-04-05T09:17:20.000Z</time></trkpt>
<trkpt lat="42.188073" lon="23.586716"><ele>2616.9</ele><time>2026-04-05T09:17:21.000Z</time></trkpt>
<trkpt lat="42.188067" lon="23.586721"><ele>2616.9</ele><time>2026-04-05T09:17:22.000Z</time></trkpt>
<trkpt lat="42.18806" lon="23.586727"><ele>2616.9</ele><time>2026-04-05T09:17:23.000Z</time></trkpt>
<trkpt lat="42.188053" lon="23.586732"><ele>2617.2</ele><time>2026-04-05T09:17:24.000Z</time></trkpt>
<trkpt lat="42.188045" lon="23.586738"><ele>2617.2</ele><time>2026-04-05T09:17:25.000Z</time></trkpt>
<trkpt lat="42.188039" lon="23.586743"><ele>2617.2</ele><time>2026-04-05T09:17:26.000Z</time></trkpt>
<trkpt lat="42.188032" lon="23.586748"><ele>2617.2</ele><time>2026-04-05T09:17:27.000Z</time></trkpt>
<trkpt lat="42.188024" lon="23.586753"><ele>2617.2</ele><time>2026-04-05T09:17:28.000Z</time></trkpt>
<trkpt lat="42.188019" lon="23.586758"><ele>2617.5</ele><time>2026-04-05T09:17:29.000Z</time></trkpt>
<trkpt lat="42.188013" lon="23.586762"><ele>2617.5</ele><time>2026-04-05T09:17:30.000Z</time></trkpt>
<trkpt lat="42.188008" lon="23.586766"><ele>2617.5</ele><time>2026-04-05T09:17:31.000Z</time></trkpt>
<trkpt lat="42.188002" lon="23.586771"><ele>2617.5</ele><time>2026-04-05T09:17:32.000Z</time></trkpt>
<trkpt lat="42.187997" lon="23.586775"><ele>2617.5</ele><time>2026-04-05T09:17:33.000Z</time></trkpt>
<trkpt lat="42.187991" lon="23.58678"><ele>2617.7</ele><time>2026-04-05T09:17:34.000Z</time></trkpt>
<trkpt lat="42.187985" lon="23.586785"><ele>2617.7</ele><time>2026-04-05T09:17:35.000Z</time></trkpt>
<trkpt lat="42.187979" lon="23.586791"><ele>2617.7</ele><time>2026-04-05T09:17:36.000Z</time></trkpt>
<trkpt lat="42.187973" lon="23.586796"><ele>2617.7</ele><time>2026-04-05T09:17:37.000Z</time></trkpt>
<trkpt lat="42.187968" lon="23.586802"><ele>2617.7</ele><time>2026-04-05T09:17:38.000Z</time></trkpt>
<trkpt lat="42.187962" lon="23.586808"><ele>2618.3</ele><time>2026-04-05T09:17:39.000Z</time></trkpt>
<trkpt lat="42.187956" lon="23.586814"><ele>2618.3</ele><time>2026-04-05T09:17:40.000Z</time></trkpt>
<trkpt lat="42.18795" lon="23.58682"><ele>2618.3</ele><time>2026-04-05T09:17:41.000Z</time></trkpt>
<trkpt lat="42.187944" lon="23.586825"><ele>2618.3</ele><time>2026-04-05T09:17:42.000Z</time></trkpt>
<trkpt lat="42.187938" lon="23.586831"><ele>2618.3</ele><time>2026-04-05T09:17:43.000Z</time></trkpt>
<trkpt lat="42.187932" lon="23.586836"><ele>2618.9</ele><time>2026-04-05T09:17:44.000Z</time></trkpt>
<trkpt lat="42.187926" lon="23.58684"><ele>2618.9</ele><time>2026-04-05T09:17:45.000Z</time></trkpt>
<trkpt lat="42.187921" lon="23.586845"><ele>2618.9</ele><time>2026-04-05T09:17:46.000Z</time></trkpt>
<trkpt lat="42.187915" lon="23.58685"><ele>2618.9</ele><time>2026-04-05T09:17:47.000Z</time></trkpt>
<trkpt lat="42.18791" lon="23.586855"><ele>2618.9</ele><time>2026-04-05T09:17:48.000Z</time></trkpt>
<trkpt lat="42.187905" lon="23.586859"><ele>2619.2</ele><time>2026-04-05T09:17:49.000Z</time></trkpt>
<trkpt lat="42.187901" lon="23.586865"><ele>2619.2</ele><time>2026-04-05T09:17:50.000Z</time></trkpt>
<trkpt lat="42.187896" lon="23.586872"><ele>2619.2</ele><time>2026-04-05T09:17:51.000Z</time></trkpt>
<trkpt lat="42.187892" lon="23.586879"><ele>2619.2</ele><time>2026-04-05T09:17:52.000Z</time></trkpt>
<trkpt lat="42.187887" lon="23.586887"><ele>2619.2</ele><time>2026-04-05T09:17:53.000Z</time></trkpt>
<trkpt lat="42.187882" lon="23.586895"><ele>2619.9</ele><time>2026-04-05T09:17:54.000Z</time></trkpt>
<trkpt lat="42.187876" lon="23.586902"><ele>2619.9</ele><time>2026-04-05T09:17:55.000Z</time></trkpt>
<trkpt lat="42.187869" lon="23.586908"><ele>2619.9</ele><time>2026-04-05T09:17:56.000Z</time></trkpt>
<trkpt lat="42.187863" lon="23.586914"><ele>2619.9</ele><time>2026-04-05T09:17:57.000Z</time></trkpt>
<trkpt lat="42.187857" lon="23.586919"><ele>2619.9</ele><time>2026-04-05T09:17:58.000Z</time></trkpt>
<trkpt lat="42.187849" lon="23.586925"><ele>2620.5</ele><time>2026-04-05T09:17:59.000Z</time></trkpt>
<trkpt lat="42.187843" lon="23.58693"><ele>2620.5</ele><time>2026-04-05T09:18:00.000Z</time></trkpt>
<trkpt lat="42.187836" lon="23.586936"><ele>2620.5</ele><time>2026-04-05T09:18:01.000Z</time></trkpt>
<trkpt lat="42.187829" lon="23.586943"><ele>2620.5</ele><time>2026-04-05T09:18:02.000Z</time></trkpt>
<trkpt lat="42.187822" lon="23.586952"><ele>2620.5</ele><time>2026-04-05T09:18:03.000Z</time></trkpt>
<trkpt lat="42.187815" lon="23.586961"><ele>2620.7</ele><time>2026-04-05T09:18:04.000Z</time></trkpt>
<trkpt lat="42.187808" lon="23.58697"><ele>2620.7</ele><time>2026-04-05T09:18:05.000Z</time></trkpt>
<trkpt lat="42.187802" lon="23.586978"><ele>2620.7</ele><time>2026-04-05T09:18:06.000Z</time></trkpt>
<trkpt lat="42.187795" lon="23.586986"><ele>2620.7</ele><time>2026-04-05T09:18:07.000Z</time></trkpt>
<trkpt lat="42.187788" lon="23.586992"><ele>2620.7</ele><time>2026-04-05T09:18:08.000Z</time></trkpt>
<trkpt lat="42.187783" lon="23.586997"><ele>2621.2</ele><time>2026-04-05T09:18:09.000Z</time></trkpt>
<trkpt lat="42.187777" lon="23.587003"><ele>2621.2</ele><time>2026-04-05T09:18:10.000Z</time></trkpt>
<trkpt lat="42.187771" lon="23.587008"><ele>2621.2</ele><time>2026-04-05T09:18:11.000Z</time></trkpt>
<trkpt lat="42.187766" lon="23.587012"><ele>2621.2</ele><time>2026-04-05T09:18:12.000Z</time></trkpt>
<trkpt lat="42.187763" lon="23.587015"><ele>2621.2</ele><time>2026-04-05T09:18:13.000Z</time></trkpt>
<trkpt lat="42.18776" lon="23.587016"><ele>2621.7</ele><time>2026-04-05T09:18:14.000Z</time></trkpt>
<trkpt lat="42.187758" lon="23.587016"><ele>2621.7</ele><time>2026-04-05T09:18:15.000Z</time></trkpt>
<trkpt lat="42.187757" lon="23.587016"><ele>2621.7</ele><time>2026-04-05T09:18:16.000Z</time></trkpt>
<trkpt lat="42.187756" lon="23.587016"><ele>2621.7</ele><time>2026-04-05T09:18:17.000Z</time></trkpt>
<trkpt lat="42.187755" lon="23.587015"><ele>2621.7</ele><time>2026-04-05T09:18:18.000Z</time></trkpt>
<trkpt lat="42.187754" lon="23.587015"><ele>2621.9</ele><time>2026-04-05T09:18:19.000Z</time></trkpt>
<trkpt lat="42.187754" lon="23.587016"><ele>2621.9</ele><time>2026-04-05T09:18:20.000Z</time></trkpt>
<trkpt lat="42.187754" lon="23.587016"><ele>2621.9</ele><time>2026-04-05T09:18:21.000Z</time></trkpt>
<trkpt lat="42.187754" lon="23.587017"><ele>2621.9</ele><time>2026-04-05T09:18:22.000Z</time></trkpt>
<trkpt lat="42.187752" lon="23.58702"><ele>2621.9</ele><time>2026-04-05T09:18:23.000Z</time></trkpt>
<trkpt lat="42.187748" lon="23.587024"><ele>2622.1</ele><time>2026-04-05T09:18:24.000Z</time></trkpt>
<trkpt lat="42.187743" lon="23.58703"><ele>2622.1</ele><time>2026-04-05T09:18:25.000Z</time></trkpt>
<trkpt lat="42.187738" lon="23.587037"><ele>2622.1</ele><time>2026-04-05T09:18:26.000Z</time></trkpt>
<trkpt lat="42.18773" lon="23.587044"><ele>2622.1</ele><time>2026-04-05T09:18:27.000Z</time></trkpt>
<trkpt lat="42.187724" lon="23.58705"><ele>2622.1</ele><time>2026-04-05T09:18:28.000Z</time></trkpt>
<trkpt lat="42.187718" lon="23.587056"><ele>2622.3</ele><time>2026-04-05T09:18:29.000Z</time></trkpt>
<trkpt lat="42.187711" lon="23.587062"><ele>2622.3</ele><time>2026-04-05T09:18:30.000Z</time></trkpt>
<trkpt lat="42.187704" lon="23.587068"><ele>2622.3</ele><time>2026-04-05T09:18:31.000Z</time></trkpt>
<trkpt lat="42.187697" lon="23.587074"><ele>2622.3</ele><time>2026-04-05T09:18:32.000Z</time></trkpt>
<trkpt lat="42.18769" lon="23.58708"><ele>2622.3</ele><time>2026-04-05T09:18:33.000Z</time></trkpt>
<trkpt lat="42.187682" lon="23.587085"><ele>2622.4</ele><time>2026-04-05T09:18:34.000Z</time></trkpt>
<trkpt lat="42.187675" lon="23.587092"><ele>2622.4</ele><time>2026-04-05T09:18:35.000Z</time></trkpt>
<trkpt lat="42.187667" lon="23.587098"><ele>2622.4</ele><time>2026-04-05T09:18:36.000Z</time></trkpt>
<trkpt lat="42.187659" lon="23.587105"><ele>2622.4</ele><time>2026-04-05T09:18:37.000Z</time></trkpt>
<trkpt lat="42.187651" lon="23.587111"><ele>2622.4</ele><time>2026-04-05T09:18:38.000Z</time></trkpt>
<trkpt lat="42.187644" lon="23.587117"><ele>2622.8</ele><time>2026-04-05T09:18:39.000Z</time></trkpt>
<trkpt lat="42.187637" lon="23.587122"><ele>2622.8</ele><time>2026-04-05T09:18:40.000Z</time></trkpt>
<trkpt lat="42.187631" lon="23.587128"><ele>2622.8</ele><time>2026-04-05T09:18:41.000Z</time></trkpt>
<trkpt lat="42.187624" lon="23.587133"><ele>2622.8</ele><time>2026-04-05T09:18:42.000Z</time></trkpt>
<trkpt lat="42.187617" lon="23.587139"><ele>2622.8</ele><time>2026-04-05T09:18:43.000Z</time></trkpt>
<trkpt lat="42.187611" lon="23.587146"><ele>2623.3</ele><time>2026-04-05T09:18:44.000Z</time></trkpt>
<trkpt lat="42.187604" lon="23.587152"><ele>2623.3</ele><time>2026-04-05T09:18:45.000Z</time></trkpt>
<trkpt lat="42.187596" lon="23.58716"><ele>2623.3</ele><time>2026-04-05T09:18:46.000Z</time></trkpt>
<trkpt lat="42.187589" lon="23.587167"><ele>2623.3</ele><time>2026-04-05T09:18:47.000Z</time></trkpt>
<trkpt lat="42.187581" lon="23.587174"><ele>2623.3</ele><time>2026-04-05T09:18:48.000Z</time></trkpt>
<trkpt lat="42.187573" lon="23.587181"><ele>2623.5</ele><time>2026-04-05T09:18:49.000Z</time></trkpt>
<trkpt lat="42.187565" lon="23.587188"><ele>2623.5</ele><time>2026-04-05T09:18:50.000Z</time></trkpt>
<trkpt lat="42.187557" lon="23.587194"><ele>2623.5</ele><time>2026-04-05T09:18:51.000Z</time></trkpt>
<trkpt lat="42.187549" lon="23.587199"><ele>2623.5</ele><time>2026-04-05T09:18:52.000Z</time></trkpt>
<trkpt lat="42.187541" lon="23.587205"><ele>2623.5</ele><time>2026-04-05T09:18:53.000Z</time></trkpt>
<trkpt lat="42.187532" lon="23.58721"><ele>2623.9</ele><time>2026-04-05T09:18:54.000Z</time></trkpt>
<trkpt lat="42.187524" lon="23.587215"><ele>2623.9</ele><time>2026-04-05T09:18:55.000Z</time></trkpt>
<trkpt lat="42.187516" lon="23.587221"><ele>2623.9</ele><time>2026-04-05T09:18:56.000Z</time></trkpt>
<trkpt lat="42.187509" lon="23.587228"><ele>2623.9</ele><time>2026-04-05T09:18:57.000Z</time></trkpt>
<trkpt lat="42.1875" lon="23.587235"><ele>2623.9</ele><time>2026-04-05T09:18:58.000Z</time></trkpt>
<trkpt lat="42.187492" lon="23.587242"><ele>2624.1</ele><time>2026-04-05T09:18:59.000Z</time></trkpt>
<trkpt lat="42.187484" lon="23.587248"><ele>2624.1</ele><time>2026-04-05T09:19:00.000Z</time></trkpt>
<trkpt lat="42.187475" lon="23.587253"><ele>2624.1</ele><time>2026-04-05T09:19:01.000Z</time></trkpt>
<trkpt lat="42.187466" lon="23.587258"><ele>2624.1</ele><time>2026-04-05T09:19:02.000Z</time></trkpt>
<trkpt lat="42.187457" lon="23.587263"><ele>2624.1</ele><time>2026-04-05T09:19:03.000Z</time></trkpt>
<trkpt lat="42.187448" lon="23.587268"><ele>2624.3</ele><time>2026-04-05T09:19:04.000Z</time></trkpt>
<trkpt lat="42.187438" lon="23.587273"><ele>2624.3</ele><time>2026-04-05T09:19:05.000Z</time></trkpt>
<trkpt lat="42.187429" lon="23.587278"><ele>2624.3</ele><time>2026-04-05T09:19:06.000Z</time></trkpt>
<trkpt lat="42.18742" lon="23.587282"><ele>2624.3</ele><time>2026-04-05T09:19:07.000Z</time></trkpt>
<trkpt lat="42.18741" lon="23.587286"><ele>2624.3</ele><time>2026-04-05T09:19:08.000Z</time></trkpt>
<trkpt lat="42.187399" lon="23.587289"><ele>2624.6</ele><time>2026-04-05T09:19:09.000Z</time></trkpt>
<trkpt lat="42.187389" lon="23.587293"><ele>2624.6</ele><time>2026-04-05T09:19:10.000Z</time></trkpt>
<trkpt lat="42.187379" lon="23.587296"><ele>2624.6</ele><time>2026-04-05T09:19:11.000Z</time></trkpt>
<trkpt lat="42.187368" lon="23.587299"><ele>2624.6</ele><time>2026-04-05T09:19:12.000Z</time></trkpt>
<trkpt lat="42.187359" lon="23.587303"><ele>2624.6</ele><time>2026-04-05T09:19:13.000Z</time></trkpt>
<trkpt lat="42.18735" lon="23.587307"><ele>2624.8</ele><time>2026-04-05T09:19:14.000Z</time></trkpt>
<trkpt lat="42.187342" lon="23.587311"><ele>2624.8</ele><time>2026-04-05T09:19:15.000Z</time></trkpt>
<trkpt lat="42.187335" lon="23.587316"><ele>2624.8</ele><time>2026-04-05T09:19:16.000Z</time></trkpt>
<trkpt lat="42.187327" lon="23.58732"><ele>2624.8</ele><time>2026-04-05T09:19:17.000Z</time></trkpt>
<trkpt lat="42.187321" lon="23.587324"><ele>2624.8</ele><time>2026-04-05T09:19:18.000Z</time></trkpt>
<trkpt lat="42.187316" lon="23.587328"><ele>2625</ele><time>2026-04-05T09:19:19.000Z</time></trkpt>
<trkpt lat="42.187311" lon="23.587332"><ele>2625</ele><time>2026-04-05T09:19:20.000Z</time></trkpt>
<trkpt lat="42.187308" lon="23.587337"><ele>2625</ele><time>2026-04-05T09:19:21.000Z</time></trkpt>
<trkpt lat="42.187304" lon="23.587341"><ele>2625</ele><time>2026-04-05T09:19:22.000Z</time></trkpt>
<trkpt lat="42.187301" lon="23.587345"><ele>2625</ele><time>2026-04-05T09:19:23.000Z</time></trkpt>
<trkpt lat="42.187297" lon="23.58735"><ele>2625.3</ele><time>2026-04-05T09:19:24.000Z</time></trkpt>
<trkpt lat="42.187295" lon="23.587355"><ele>2625.3</ele><time>2026-04-05T09:19:25.000Z</time></trkpt>
<trkpt lat="42.187292" lon="23.587358"><ele>2625.3</ele><time>2026-04-05T09:19:26.000Z</time></trkpt>
<trkpt lat="42.187289" lon="23.587361"><ele>2625.3</ele><time>2026-04-05T09:19:27.000Z</time></trkpt>
<trkpt lat="42.187288" lon="23.587362"><ele>2625.3</ele><time>2026-04-05T09:19:28.000Z</time></trkpt>
<trkpt lat="42.187288" lon="23.587361"><ele>2625.8</ele><time>2026-04-05T09:19:29.000Z</time></trkpt>
<trkpt lat="42.187288" lon="23.58736"><ele>2625.8</ele><time>2026-04-05T09:19:30.000Z</time></trkpt>
<trkpt lat="42.187288" lon="23.587359"><ele>2625.8</ele><time>2026-04-05T09:19:31.000Z</time></trkpt>
<trkpt lat="42.187289" lon="23.587358"><ele>2625.8</ele><time>2026-04-05T09:19:32.000Z</time></trkpt>
<trkpt lat="42.18729" lon="23.587359"><ele>2625.8</ele><time>2026-04-05T09:19:33.000Z</time></trkpt>
<trkpt lat="42.18729" lon="23.587359"><ele>2626</ele><time>2026-04-05T09:19:34.000Z</time></trkpt>
<trkpt lat="42.18729" lon="23.587359"><ele>2626</ele><time>2026-04-05T09:19:35.000Z</time></trkpt>
<trkpt lat="42.18729" lon="23.587359"><ele>2626</ele><time>2026-04-05T09:19:36.000Z</time></trkpt>
<trkpt lat="42.18729" lon="23.587359"><ele>2626</ele><time>2026-04-05T09:19:37.000Z</time></trkpt>
<trkpt lat="42.18729" lon="23.587359"><ele>2626</ele><time>2026-04-05T09:19:38.000Z</time></trkpt>
<trkpt lat="42.18729" lon="23.587359"><ele>2626.4</ele><time>2026-04-05T09:19:39.000Z</time></trkpt>
<trkpt lat="42.18729" lon="23.587359"><ele>2626.4</ele><time>2026-04-05T09:19:40.000Z</time></trkpt>
<trkpt lat="42.18729" lon="23.587359"><ele>2626.4</ele><time>2026-04-05T09:19:41.000Z</time></trkpt>
<trkpt lat="42.18729" lon="23.587359"><ele>2626.4</ele><time>2026-04-05T09:19:42.000Z</time></trkpt>
<trkpt lat="42.18729" lon="23.587359"><ele>2626.4</ele><time>2026-04-05T09:19:43.000Z</time></trkpt>
<trkpt lat="42.187289" lon="23.587359"><ele>2626.5</ele><time>2026-04-05T09:19:44.000Z</time></trkpt>
<trkpt lat="42.187289" lon="23.587359"><ele>2626.5</ele><time>2026-04-05T09:19:45.000Z</time></trkpt>
<trkpt lat="42.187289" lon="23.587359"><ele>2626.5</ele><time>2026-04-05T09:19:46.000Z</time></trkpt>
<trkpt lat="42.187288" lon="23.587359"><ele>2626.5</ele><time>2026-04-05T09:19:47.000Z</time></trkpt>
<trkpt lat="42.187288" lon="23.587359"><ele>2626.5</ele><time>2026-04-05T09:19:48.000Z</time></trkpt>
<trkpt lat="42.187288" lon="23.587359"><ele>2626.4</ele><time>2026-04-05T09:19:49.000Z</time></trkpt>
<trkpt lat="42.187288" lon="23.587359"><ele>2626.4</ele><time>2026-04-05T09:19:50.000Z</time></trkpt>
<trkpt lat="42.187288" lon="23.587359"><ele>2626.4</ele><time>2026-04-05T09:19:51.000Z</time></trkpt>
<trkpt lat="42.187288" lon="23.587359"><ele>2626.4</ele><time>2026-04-05T09:19:52.000Z</time></trkpt>
<trkpt lat="42.187288" lon="23.587359"><ele>2626.4</ele><time>2026-04-05T09:19:53.000Z</time></trkpt>
<trkpt lat="42.187288" lon="23.58736"><ele>2626.1</ele><time>2026-04-05T09:19:54.000Z</time></trkpt>
<trkpt lat="42.187287" lon="23.58736"><ele>2626.1</ele><time>2026-04-05T09:19:55.000Z</time></trkpt>
<trkpt lat="42.187287" lon="23.587361"><ele>2626.1</ele><time>2026-04-05T09:19:56.000Z</time></trkpt>
<trkpt lat="42.187286" lon="23.587361"><ele>2626.1</ele><time>2026-04-05T09:19:57.000Z</time></trkpt>
<trkpt lat="42.187285" lon="23.587362"><ele>2626.1</ele><time>2026-04-05T09:19:58.000Z</time></trkpt>
<trkpt lat="42.187285" lon="23.587361"><ele>2626</ele><time>2026-04-05T09:19:59.000Z</time></trkpt>
<trkpt lat="42.187285" lon="23.587361"><ele>2626</ele><time>2026-04-05T09:20:00.000Z</time></trkpt>
<trkpt lat="42.187285" lon="23.587361"><ele>2626</ele><time>2026-04-05T09:20:01.000Z</time></trkpt>
<trkpt lat="42.187285" lon="23.58736"><ele>2626</ele><time>2026-04-05T09:20:02.000Z</time></trkpt>
<trkpt lat="42.187285" lon="23.587361"><ele>2626</ele><time>2026-04-05T09:20:03.000Z</time></trkpt>
<trkpt lat="42.187285" lon="23.587362"><ele>2625.9</ele><time>2026-04-05T09:20:04.000Z</time></trkpt>
<trkpt lat="42.187286" lon="23.587364"><ele>2625.9</ele><time>2026-04-05T09:20:05.000Z</time></trkpt>
<trkpt lat="42.187285" lon="23.587366"><ele>2625.9</ele><time>2026-04-05T09:20:06.000Z</time></trkpt>
<trkpt lat="42.187285" lon="23.587368"><ele>2625.9</ele><time>2026-04-05T09:20:07.000Z</time></trkpt>
<trkpt lat="42.187285" lon="23.587369"><ele>2625.9</ele><time>2026-04-05T09:20:08.000Z</time></trkpt>
<trkpt lat="42.187284" lon="23.587369"><ele>2626</ele><time>2026-04-05T09:20:09.000Z</time></trkpt>
<trkpt lat="42.187284" lon="23.58737"><ele>2626</ele><time>2026-04-05T09:20:10.000Z</time></trkpt>
<trkpt lat="42.187284" lon="23.58737"><ele>2626</ele><time>2026-04-05T09:20:11.000Z</time></trkpt>
<trkpt lat="42.187284" lon="23.587371"><ele>2626</ele><time>2026-04-05T09:20:12.000Z</time></trkpt>
<trkpt lat="42.187284" lon="23.587371"><ele>2626</ele><time>2026-04-05T09:20:13.000Z</time></trkpt>
<trkpt lat="42.187284" lon="23.587372"><ele>2626.3</ele><time>2026-04-05T09:20:14.000Z</time></trkpt>
<trkpt lat="42.187284" lon="23.587372"><ele>2626.3</ele><time>2026-04-05T09:20:15.000Z</time></trkpt>
<trkpt lat="42.187284" lon="23.587372"><ele>2626.3</ele><time>2026-04-05T09:20:16.000Z</time></trkpt>
<trkpt lat="42.187284" lon="23.587372"><ele>2626.3</ele><time>2026-04-05T09:20:17.000Z</time></trkpt>
<trkpt lat="42.187284" lon="23.587372"><ele>2626.3</ele><time>2026-04-05T09:20:18.000Z</time></trkpt>
<trkpt lat="42.187284" lon="23.587371"><ele>2626.4</ele><time>2026-04-05T09:20:19.000Z</time></trkpt>
<trkpt lat="42.187284" lon="23.587371"><ele>2626.4</ele><time>2026-04-05T09:20:20.000Z</time></trkpt>
<trkpt lat="42.187283" lon="23.587371"><ele>2626.4</ele><time>2026-04-05T09:20:21.000Z</time></trkpt>
<trkpt lat="42.187283" lon="23.587371"><ele>2626.4</ele><time>2026-04-05T09:20:22.000Z</time></trkpt>
<trkpt lat="42.187282" lon="23.587371"><ele>2626.4</ele><time>2026-04-05T09:20:23.000Z</time></trkpt>
<trkpt lat="42.187281" lon="23.587372"><ele>2626.5</ele><time>2026-04-05T09:20:24.000Z</time></trkpt>
<trkpt lat="42.187281" lon="23.587372"><ele>2626.5</ele><time>2026-04-05T09:20:25.000Z</time></trkpt>
<trkpt lat="42.187281" lon="23.587375"><ele>2626.5</ele><time>2026-04-05T09:20:26.000Z</time></trkpt>
<trkpt lat="42.187281" lon="23.587378"><ele>2626.5</ele><time>2026-04-05T09:20:27.000Z</time></trkpt>
<trkpt lat="42.187279" lon="23.587382"><ele>2626.5</ele><time>2026-04-05T09:20:28.000Z</time></trkpt>
<trkpt lat="42.187276" lon="23.587389"><ele>2626.4</ele><time>2026-04-05T09:20:29.000Z</time></trkpt>
<trkpt lat="42.187273" lon="23.587397"><ele>2626.4</ele><time>2026-04-05T09:20:30.000Z</time></trkpt>
<trkpt lat="42.187268" lon="23.587405"><ele>2626.4</ele><time>2026-04-05T09:20:31.000Z</time></trkpt>
<trkpt lat="42.187262" lon="23.587415"><ele>2626.4</ele><time>2026-04-05T09:20:32.000Z</time></trkpt>
<trkpt lat="42.187258" lon="23.587425"><ele>2626.4</ele><time>2026-04-05T09:20:33.000Z</time></trkpt>
<trkpt lat="42.187253" lon="23.587435"><ele>2626.3</ele><time>2026-04-05T09:20:34.000Z</time></trkpt>
<trkpt lat="42.187246" lon="23.587445"><ele>2626.3</ele><time>2026-04-05T09:20:35.000Z</time></trkpt>
<trkpt lat="42.18724" lon="23.587455"><ele>2626.3</ele><time>2026-04-05T09:20:36.000Z</time></trkpt>
<trkpt lat="42.187235" lon="23.587465"><ele>2626.3</ele><time>2026-04-05T09:20:37.000Z</time></trkpt>
<trkpt lat="42.187229" lon="23.587476"><ele>2626.3</ele><time>2026-04-05T09:20:38.000Z</time></trkpt>
<trkpt lat="42.187223" lon="23.587486"><ele>2626.2</ele><time>2026-04-05T09:20:39.000Z</time></trkpt>
<trkpt lat="42.187217" lon="23.587496"><ele>2626.2</ele><time>2026-04-05T09:20:40.000Z</time></trkpt>
<trkpt lat="42.18721" lon="23.587506"><ele>2626.2</ele><time>2026-04-05T09:20:41.000Z</time></trkpt>
<trkpt lat="42.187204" lon="23.587516"><ele>2626.2</ele><time>2026-04-05T09:20:42.000Z</time></trkpt>
<trkpt lat="42.187198" lon="23.587525"><ele>2626.2</ele><time>2026-04-05T09:20:43.000Z</time></trkpt>
<trkpt lat="42.187192" lon="23.587535"><ele>2626.2</ele><time>2026-04-05T09:20:44.000Z</time></trkpt>
<trkpt lat="42.187188" lon="23.587545"><ele>2626.2</ele><time>2026-04-05T09:20:45.000Z</time></trkpt>
<trkpt lat="42.187184" lon="23.587556"><ele>2626.2</ele><time>2026-04-05T09:20:46.000Z</time></trkpt>
<trkpt lat="42.187181" lon="23.587567"><ele>2626.2</ele><time>2026-04-05T09:20:47.000Z</time></trkpt>
<trkpt lat="42.187178" lon="23.58758"><ele>2626.2</ele><time>2026-04-05T09:20:48.000Z</time></trkpt>
<trkpt lat="42.187176" lon="23.587591"><ele>2626.4</ele><time>2026-04-05T09:20:49.000Z</time></trkpt>
<trkpt lat="42.187174" lon="23.587601"><ele>2626.4</ele><time>2026-04-05T09:20:50.000Z</time></trkpt>
<trkpt lat="42.187171" lon="23.587611"><ele>2626.4</ele><time>2026-04-05T09:20:51.000Z</time></trkpt>
<trkpt lat="42.187169" lon="23.587619"><ele>2626.4</ele><time>2026-04-05T09:20:52.000Z</time></trkpt>
<trkpt lat="42.187167" lon="23.587628"><ele>2626.4</ele><time>2026-04-05T09:20:53.000Z</time></trkpt>
<trkpt lat="42.187164" lon="23.587638"><ele>2626.8</ele><time>2026-04-05T09:20:54.000Z</time></trkpt>
<trkpt lat="42.187162" lon="23.587646"><ele>2626.8</ele><time>2026-04-05T09:20:55.000Z</time></trkpt>
<trkpt lat="42.187159" lon="23.587656"><ele>2626.8</ele><time>2026-04-05T09:20:56.000Z</time></trkpt>
<trkpt lat="42.187158" lon="23.587666"><ele>2626.8</ele><time>2026-04-05T09:20:57.000Z</time></trkpt>
<trkpt lat="42.187155" lon="23.587674"><ele>2626.8</ele><time>2026-04-05T09:20:58.000Z</time></trkpt>
<trkpt lat="42.187152" lon="23.587681"><ele>2627.5</ele><time>2026-04-05T09:20:59.000Z</time></trkpt>
<trkpt lat="42.18715" lon="23.587688"><ele>2627.5</ele><time>2026-04-05T09:21:00.000Z</time></trkpt>
<trkpt lat="42.187147" lon="23.587695"><ele>2627.5</ele><time>2026-04-05T09:21:01.000Z</time></trkpt>
<trkpt lat="42.187144" lon="23.5877"><ele>2627.5</ele><time>2026-04-05T09:21:02.000Z</time></trkpt>
<trkpt lat="42.187141" lon="23.587707"><ele>2627.5</ele><time>2026-04-05T09:21:03.000Z</time></trkpt>
<trkpt lat="42.187138" lon="23.587715"><ele>2628</ele><time>2026-04-05T09:21:04.000Z</time></trkpt>
<trkpt lat="42.187132" lon="23.587723"><ele>2628</ele><time>2026-04-05T09:21:05.000Z</time></trkpt>
<trkpt lat="42.187127" lon="23.587733"><ele>2628</ele><time>2026-04-05T09:21:06.000Z</time></trkpt>
<trkpt lat="42.18712" lon="23.587742"><ele>2628</ele><time>2026-04-05T09:21:07.000Z</time></trkpt>
<trkpt lat="42.187112" lon="23.587752"><ele>2628</ele><time>2026-04-05T09:21:08.000Z</time></trkpt>
<trkpt lat="42.187105" lon="23.58776"><ele>2629</ele><time>2026-04-05T09:21:09.000Z</time></trkpt>
<trkpt lat="42.187099" lon="23.587766"><ele>2629</ele><time>2026-04-05T09:21:10.000Z</time></trkpt>
<trkpt lat="42.187093" lon="23.587771"><ele>2629</ele><time>2026-04-05T09:21:11.000Z</time></trkpt>
<trkpt lat="42.187086" lon="23.587777"><ele>2629</ele><time>2026-04-05T09:21:12.000Z</time></trkpt>
<trkpt lat="42.18708" lon="23.587782"><ele>2629</ele><time>2026-04-05T09:21:13.000Z</time></trkpt>
<trkpt lat="42.187072" lon="23.587786"><ele>2629.9</ele><time>2026-04-05T09:21:14.000Z</time></trkpt>
<trkpt lat="42.187063" lon="23.587792"><ele>2629.9</ele><time>2026-04-05T09:21:15.000Z</time></trkpt>
<trkpt lat="42.187055" lon="23.587797"><ele>2629.9</ele><time>2026-04-05T09:21:16.000Z</time></trkpt>
<trkpt lat="42.187046" lon="23.587802"><ele>2629.9</ele><time>2026-04-05T09:21:17.000Z</time></trkpt>
<trkpt lat="42.187037" lon="23.587807"><ele>2629.9</ele><time>2026-04-05T09:21:18.000Z</time></trkpt>
<trkpt lat="42.187027" lon="23.587812"><ele>2630.3</ele><time>2026-04-05T09:21:19.000Z</time></trkpt>
<trkpt lat="42.187019" lon="23.587816"><ele>2630.3</ele><time>2026-04-05T09:21:20.000Z</time></trkpt>
<trkpt lat="42.187011" lon="23.587819"><ele>2630.3</ele><time>2026-04-05T09:21:21.000Z</time></trkpt>
<trkpt lat="42.187003" lon="23.587822"><ele>2630.3</ele><time>2026-04-05T09:21:22.000Z</time></trkpt>
<trkpt lat="42.186995" lon="23.587825"><ele>2630.3</ele><time>2026-04-05T09:21:23.000Z</time></trkpt>
<trkpt lat="42.186989" lon="23.587829"><ele>2631.2</ele><time>2026-04-05T09:21:24.000Z</time></trkpt>
<trkpt lat="42.186983" lon="23.587832"><ele>2631.2</ele><time>2026-04-05T09:21:25.000Z</time></trkpt>
<trkpt lat="42.186976" lon="23.587837"><ele>2631.2</ele><time>2026-04-05T09:21:26.000Z</time></trkpt>
<trkpt lat="42.186971" lon="23.587841"><ele>2631.2</ele><time>2026-04-05T09:21:27.000Z</time></trkpt>
<trkpt lat="42.186964" lon="23.587843"><ele>2631.2</ele><time>2026-04-05T09:21:28.000Z</time></trkpt>
<trkpt lat="42.186957" lon="23.587846"><ele>2632.1</ele><time>2026-04-05T09:21:29.000Z</time></trkpt>
<trkpt lat="42.18695" lon="23.587848"><ele>2632.1</ele><time>2026-04-05T09:21:30.000Z</time></trkpt>
<trkpt lat="42.186944" lon="23.587848"><ele>2632.1</ele><time>2026-04-05T09:21:31.000Z</time></trkpt>
<trkpt lat="42.186938" lon="23.58785"><ele>2632.1</ele><time>2026-04-05T09:21:32.000Z</time></trkpt>
<trkpt lat="42.186933" lon="23.587852"><ele>2632.1</ele><time>2026-04-05T09:21:33.000Z</time></trkpt>
<trkpt lat="42.186928" lon="23.587854"><ele>2632.6</ele><time>2026-04-05T09:21:34.000Z</time></trkpt>
<trkpt lat="42.186924" lon="23.587855"><ele>2632.6</ele><time>2026-04-05T09:21:35.000Z</time></trkpt>
<trkpt lat="42.186921" lon="23.587855"><ele>2632.6</ele><time>2026-04-05T09:21:36.000Z</time></trkpt>
<trkpt lat="42.186919" lon="23.587855"><ele>2632.6</ele><time>2026-04-05T09:21:37.000Z</time></trkpt>
<trkpt lat="42.186918" lon="23.587854"><ele>2632.6</ele><time>2026-04-05T09:21:38.000Z</time></trkpt>
<trkpt lat="42.186917" lon="23.587854"><ele>2633.4</ele><time>2026-04-05T09:21:39.000Z</time></trkpt>
<trkpt lat="42.186917" lon="23.587855"><ele>2633.4</ele><time>2026-04-05T09:21:40.000Z</time></trkpt>
<trkpt lat="42.186916" lon="23.587859"><ele>2633.4</ele><time>2026-04-05T09:21:41.000Z</time></trkpt>
<trkpt lat="42.186915" lon="23.587864"><ele>2633.4</ele><time>2026-04-05T09:21:42.000Z</time></trkpt>
<trkpt lat="42.186915" lon="23.587867"><ele>2633.4</ele><time>2026-04-05T09:21:43.000Z</time></trkpt>
<trkpt lat="42.186914" lon="23.587871"><ele>2634</ele><time>2026-04-05T09:21:44.000Z</time></trkpt>
<trkpt lat="42.186913" lon="23.587873"><ele>2634</ele><time>2026-04-05T09:21:45.000Z</time></trkpt>
<trkpt lat="42.186913" lon="23.587873"><ele>2634</ele><time>2026-04-05T09:21:46.000Z</time></trkpt>
<trkpt lat="42.186913" lon="23.587873"><ele>2634</ele><time>2026-04-05T09:21:47.000Z</time></trkpt>
<trkpt lat="42.186912" lon="23.587873"><ele>2634</ele><time>2026-04-05T09:21:48.000Z</time></trkpt>
<trkpt lat="42.186912" lon="23.587873"><ele>2634.2</ele><time>2026-04-05T09:21:49.000Z</time></trkpt>
<trkpt lat="42.186912" lon="23.587875"><ele>2634.2</ele><time>2026-04-05T09:21:50.000Z</time></trkpt>
<trkpt lat="42.186912" lon="23.587876"><ele>2634.2</ele><time>2026-04-05T09:21:51.000Z</time></trkpt>
<trkpt lat="42.186911" lon="23.587876"><ele>2634.2</ele><time>2026-04-05T09:21:52.000Z</time></trkpt>
<trkpt lat="42.186911" lon="23.587876"><ele>2634.2</ele><time>2026-04-05T09:21:53.000Z</time></trkpt>
<trkpt lat="42.18691" lon="23.587876"><ele>2634.2</ele><time>2026-04-05T09:21:54.000Z</time></trkpt>
<trkpt lat="42.186909" lon="23.587876"><ele>2634.2</ele><time>2026-04-05T09:21:55.000Z</time></trkpt>
<trkpt lat="42.186908" lon="23.587876"><ele>2634.2</ele><time>2026-04-05T09:21:56.000Z</time></trkpt>
<trkpt lat="42.186908" lon="23.587876"><ele>2634.2</ele><time>2026-04-05T09:21:57.000Z</time></trkpt>
<trkpt lat="42.186909" lon="23.587877"><ele>2634.2</ele><time>2026-04-05T09:21:58.000Z</time></trkpt>
<trkpt lat="42.186911" lon="23.587881"><ele>2634</ele><time>2026-04-05T09:21:59.000Z</time></trkpt>
<trkpt lat="42.186913" lon="23.587886"><ele>2634</ele><time>2026-04-05T09:22:00.000Z</time></trkpt>
<trkpt lat="42.186915" lon="23.587892"><ele>2634</ele><time>2026-04-05T09:22:01.000Z</time></trkpt>
<trkpt lat="42.186917" lon="23.587898"><ele>2634</ele><time>2026-04-05T09:22:02.000Z</time></trkpt>
<trkpt lat="42.186918" lon="23.587905"><ele>2634</ele><time>2026-04-05T09:22:03.000Z</time></trkpt>
<trkpt lat="42.186919" lon="23.587911"><ele>2633.9</ele><time>2026-04-05T09:22:04.000Z</time></trkpt>
<trkpt lat="42.186917" lon="23.587917"><ele>2633.9</ele><time>2026-04-05T09:22:05.000Z</time></trkpt>
<trkpt lat="42.186915" lon="23.587923"><ele>2633.9</ele><time>2026-04-05T09:22:06.000Z</time></trkpt>
<trkpt lat="42.186911" lon="23.587929"><ele>2633.9</ele><time>2026-04-05T09:22:07.000Z</time></trkpt>
<trkpt lat="42.186908" lon="23.587931"><ele>2633.9</ele><time>2026-04-05T09:22:08.000Z</time></trkpt>
<trkpt lat="42.186904" lon="23.587933"><ele>2633.9</ele><time>2026-04-05T09:22:09.000Z</time></trkpt>
<trkpt lat="42.186902" lon="23.587933"><ele>2633.9</ele><time>2026-04-05T09:22:10.000Z</time></trkpt>
<trkpt lat="42.186901" lon="23.587931"><ele>2633.9</ele><time>2026-04-05T09:22:11.000Z</time></trkpt>
<trkpt lat="42.186902" lon="23.58793"><ele>2633.9</ele><time>2026-04-05T09:22:12.000Z</time></trkpt>
<trkpt lat="42.186901" lon="23.58793"><ele>2633.9</ele><time>2026-04-05T09:22:13.000Z</time></trkpt>
<trkpt lat="42.186901" lon="23.587929"><ele>2634.4</ele><time>2026-04-05T09:22:14.000Z</time></trkpt>
<trkpt lat="42.186901" lon="23.587929"><ele>2634.4</ele><time>2026-04-05T09:22:15.000Z</time></trkpt>
<trkpt lat="42.186901" lon="23.587929"><ele>2634.4</ele><time>2026-04-05T09:22:16.000Z</time></trkpt>
<trkpt lat="42.186901" lon="23.587928"><ele>2634.4</ele><time>2026-04-05T09:22:17.000Z</time></trkpt>
<trkpt lat="42.1869" lon="23.587929"><ele>2634.4</ele><time>2026-04-05T09:22:18.000Z</time></trkpt>
<trkpt lat="42.1869" lon="23.587929"><ele>2634.6</ele><time>2026-04-05T09:22:19.000Z</time></trkpt>
<trkpt lat="42.186899" lon="23.587929"><ele>2634.6</ele><time>2026-04-05T09:22:20.000Z</time></trkpt>
<trkpt lat="42.186899" lon="23.587929"><ele>2634.6</ele><time>2026-04-05T09:22:21.000Z</time></trkpt>
<trkpt lat="42.186898" lon="23.58793"><ele>2634.6</ele><time>2026-04-05T09:22:22.000Z</time></trkpt>
<trkpt lat="42.186898" lon="23.58793"><ele>2634.6</ele><time>2026-04-05T09:22:23.000Z</time></trkpt>
<trkpt lat="42.186898" lon="23.58793"><ele>2635.3</ele><time>2026-04-05T09:22:24.000Z</time></trkpt>
<trkpt lat="42.186898" lon="23.58793"><ele>2635.3</ele><time>2026-04-05T09:22:25.000Z</time></trkpt>
<trkpt lat="42.186898" lon="23.58793"><ele>2635.3</ele><time>2026-04-05T09:22:26.000Z</time></trkpt>
<trkpt lat="42.186898" lon="23.58793"><ele>2635.3</ele><time>2026-04-05T09:22:27.000Z</time></trkpt>
<trkpt lat="42.186898" lon="23.58793"><ele>2635.3</ele><time>2026-04-05T09:22:28.000Z</time></trkpt>
<trkpt lat="42.186898" lon="23.58793"><ele>2635.8</ele><time>2026-04-05T09:22:29.000Z</time></trkpt>
<trkpt lat="42.186897" lon="23.58793"><ele>2635.8</ele><time>2026-04-05T09:22:30.000Z</time></trkpt>
<trkpt lat="42.186896" lon="23.58793"><ele>2635.8</ele><time>2026-04-05T09:22:31.000Z</time></trkpt>
<trkpt lat="42.186895" lon="23.58793"><ele>2635.8</ele><time>2026-04-05T09:22:32.000Z</time></trkpt>
<trkpt lat="42.186894" lon="23.58793"><ele>2635.8</ele><time>2026-04-05T09:22:33.000Z</time></trkpt>
<trkpt lat="42.186893" lon="23.587929"><ele>2635.8</ele><time>2026-04-05T09:22:34.000Z</time></trkpt>
<trkpt lat="42.186892" lon="23.587929"><ele>2635.8</ele><time>2026-04-05T09:22:35.000Z</time></trkpt>
<trkpt lat="42.186891" lon="23.587929"><ele>2635.8</ele><time>2026-04-05T09:22:36.000Z</time></trkpt>
<trkpt lat="42.18689" lon="23.587928"><ele>2635.8</ele><time>2026-04-05T09:22:37.000Z</time></trkpt>
<trkpt lat="42.186889" lon="23.587926"><ele>2635.8</ele><time>2026-04-05T09:22:38.000Z</time></trkpt>
<trkpt lat="42.186889" lon="23.587926"><ele>2635.8</ele><time>2026-04-05T09:22:39.000Z</time></trkpt>
<trkpt lat="42.186889" lon="23.587925"><ele>2635.8</ele><time>2026-04-05T09:22:40.000Z</time></trkpt>
<trkpt lat="42.186889" lon="23.587924"><ele>2635.8</ele><time>2026-04-05T09:22:41.000Z</time></trkpt>
<trkpt lat="42.186888" lon="23.587924"><ele>2635.8</ele><time>2026-04-05T09:22:42.000Z</time></trkpt>
<trkpt lat="42.186888" lon="23.587925"><ele>2635.8</ele><time>2026-04-05T09:22:43.000Z</time></trkpt>
<trkpt lat="42.186887" lon="23.587926"><ele>2635.6</ele><time>2026-04-05T09:22:44.000Z</time></trkpt>
<trkpt lat="42.186887" lon="23.587926"><ele>2635.6</ele><time>2026-04-05T09:22:45.000Z</time></trkpt>
<trkpt lat="42.186886" lon="23.587927"><ele>2635.6</ele><time>2026-04-05T09:22:46.000Z</time></trkpt>
<trkpt lat="42.186886" lon="23.587925"><ele>2635.6</ele><time>2026-04-05T09:22:47.000Z</time></trkpt>
<trkpt lat="42.186886" lon="23.587923"><ele>2635.6</ele><time>2026-04-05T09:22:48.000Z</time></trkpt>
<trkpt lat="42.186885" lon="23.587922"><ele>2635.6</ele><time>2026-04-05T09:22:49.000Z</time></trkpt>
<trkpt lat="42.186885" lon="23.58792"><ele>2635.6</ele><time>2026-04-05T09:22:50.000Z</time></trkpt>
<trkpt lat="42.186885" lon="23.587919"><ele>2635.6</ele><time>2026-04-05T09:22:51.000Z</time></trkpt>
<trkpt lat="42.186886" lon="23.587918"><ele>2635.6</ele><time>2026-04-05T09:22:52.000Z</time></trkpt>
<trkpt lat="42.186886" lon="23.587916"><ele>2635.6</ele><time>2026-04-05T09:22:53.000Z</time></trkpt>
<trkpt lat="42.186885" lon="23.587914"><ele>2635.4</ele><time>2026-04-05T09:22:54.000Z</time></trkpt>
<trkpt lat="42.186884" lon="23.587913"><ele>2635.4</ele><time>2026-04-05T09:22:55.000Z</time></trkpt>
<trkpt lat="42.186883" lon="23.587912"><ele>2635.4</ele><time>2026-04-05T09:22:56.000Z</time></trkpt>
<trkpt lat="42.186881" lon="23.587911"><ele>2635.4</ele><time>2026-04-05T09:22:57.000Z</time></trkpt>
<trkpt lat="42.18688" lon="23.587911"><ele>2635.4</ele><time>2026-04-05T09:22:58.000Z</time></trkpt>
<trkpt lat="42.186879" lon="23.58791"><ele>2635.1</ele><time>2026-04-05T09:22:59.000Z</time></trkpt>
<trkpt lat="42.186877" lon="23.587912"><ele>2635.1</ele><time>2026-04-05T09:23:00.000Z</time></trkpt>
<trkpt lat="42.186876" lon="23.587914"><ele>2635.1</ele><time>2026-04-05T09:23:01.000Z</time></trkpt>
<trkpt lat="42.186876" lon="23.587916"><ele>2635.1</ele><time>2026-04-05T09:23:02.000Z</time></trkpt>
<trkpt lat="42.186876" lon="23.587917"><ele>2635.1</ele><time>2026-04-05T09:23:03.000Z</time></trkpt>
<trkpt lat="42.186876" lon="23.587919"><ele>2635</ele><time>2026-04-05T09:23:04.000Z</time></trkpt>
<trkpt lat="42.186876" lon="23.58792"><ele>2635</ele><time>2026-04-05T09:23:05.000Z</time></trkpt>
<trkpt lat="42.186876" lon="23.587919"><ele>2635</ele><time>2026-04-05T09:23:06.000Z</time></trkpt>
<trkpt lat="42.186877" lon="23.587919"><ele>2635</ele><time>2026-04-05T09:23:07.000Z</time></trkpt>
<trkpt lat="42.186877" lon="23.58792"><ele>2635</ele><time>2026-04-05T09:23:08.000Z</time></trkpt>
<trkpt lat="42.186878" lon="23.58792"><ele>2634.9</ele><time>2026-04-05T09:23:09.000Z</time></trkpt>
<trkpt lat="42.186878" lon="23.58792"><ele>2634.9</ele><time>2026-04-05T09:23:10.000Z</time></trkpt>
<trkpt lat="42.186879" lon="23.58792"><ele>2634.9</ele><time>2026-04-05T09:23:11.000Z</time></trkpt>
<trkpt lat="42.186879" lon="23.58792"><ele>2634.9</ele><time>2026-04-05T09:23:12.000Z</time></trkpt>
<trkpt lat="42.186879" lon="23.58792"><ele>2634.9</ele><time>2026-04-05T09:23:13.000Z</time></trkpt>
<trkpt lat="42.186879" lon="23.58792"><ele>2634.8</ele><time>2026-04-05T09:23:14.000Z</time></trkpt>
<trkpt lat="42.186879" lon="23.58792"><ele>2634.8</ele><time>2026-04-05T09:23:15.000Z</time></trkpt>
<trkpt lat="42.186879" lon="23.587921"><ele>2634.8</ele><time>2026-04-05T09:23:16.000Z</time></trkpt>
<trkpt lat="42.186879" lon="23.587921"><ele>2634.8</ele><time>2026-04-05T09:23:17.000Z</time></trkpt>
<trkpt lat="42.186879" lon="23.587921"><ele>2634.8</ele><time>2026-04-05T09:23:18.000Z</time></trkpt>
<trkpt lat="42.186879" lon="23.587922"><ele>2634.8</ele><time>2026-04-05T09:23:19.000Z</time></trkpt>
<trkpt lat="42.186879" lon="23.587922"><ele>2634.8</ele><time>2026-04-05T09:23:20.000Z</time></trkpt>
<trkpt lat="42.186879" lon="23.587922"><ele>2634.8</ele><time>2026-04-05T09:23:21.000Z</time></trkpt>
<trkpt lat="42.186879" lon="23.587922"><ele>2634.8</ele><time>2026-04-05T09:23:22.000Z</time></trkpt>
<trkpt lat="42.186879" lon="23.587922"><ele>2634.8</ele><time>2026-04-05T09:23:23.000Z</time></trkpt>
<trkpt lat="42.186879" lon="23.587922"><ele>2634.6</ele><time>2026-04-05T09:23:24.000Z</time></trkpt>
<trkpt lat="42.18688" lon="23.587922"><ele>2634.6</ele><time>2026-04-05T09:23:25.000Z</time></trkpt>
<trkpt lat="42.186879" lon="23.587923"><ele>2634.6</ele><time>2026-04-05T09:23:26.000Z</time></trkpt>
<trkpt lat="42.186878" lon="23.587925"><ele>2634.6</ele><time>2026-04-05T09:23:27.000Z</time></trkpt>
<trkpt lat="42.186875" lon="23.587928"><ele>2634.6</ele><time>2026-04-05T09:23:28.000Z</time></trkpt>
<trkpt lat="42.186872" lon="23.587933"><ele>2634.5</ele><time>2026-04-05T09:23:29.000Z</time></trkpt>
<trkpt lat="42.186868" lon="23.587937"><ele>2634.5</ele><time>2026-04-05T09:23:30.000Z</time></trkpt>
<trkpt lat="42.186864" lon="23.58794"><ele>2634.5</ele><time>2026-04-05T09:23:31.000Z</time></trkpt>
<trkpt lat="42.186861" lon="23.58794"><ele>2634.5</ele><time>2026-04-05T09:23:32.000Z</time></trkpt>
<trkpt lat="42.186859" lon="23.587939"><ele>2634.5</ele><time>2026-04-05T09:23:33.000Z</time></trkpt>
<trkpt lat="42.186856" lon="23.587937"><ele>2634.6</ele><time>2026-04-05T09:23:34.000Z</time></trkpt>
<trkpt lat="42.186856" lon="23.587935"><ele>2634.6</ele><time>2026-04-05T09:23:35.000Z</time></trkpt>
<trkpt lat="42.186856" lon="23.587934"><ele>2634.6</ele><time>2026-04-05T09:23:36.000Z</time></trkpt>
<trkpt lat="42.186856" lon="23.587934"><ele>2634.6</ele><time>2026-04-05T09:23:37.000Z</time></trkpt>
<trkpt lat="42.186856" lon="23.587935"><ele>2634.6</ele><time>2026-04-05T09:23:38.000Z</time></trkpt>
<trkpt lat="42.186857" lon="23.587936"><ele>2635</ele><time>2026-04-05T09:23:39.000Z</time></trkpt>
<trkpt lat="42.186857" lon="23.587936"><ele>2635</ele><time>2026-04-05T09:23:40.000Z</time></trkpt>
<trkpt lat="42.186857" lon="23.587936"><ele>2635</ele><time>2026-04-05T09:23:41.000Z</time></trkpt>
<trkpt lat="42.186858" lon="23.587936"><ele>2635</ele><time>2026-04-05T09:23:42.000Z</time></trkpt>
<trkpt lat="42.186858" lon="23.587936"><ele>2635</ele><time>2026-04-05T09:23:43.000Z</time></trkpt>
<trkpt lat="42.186858" lon="23.587936"><ele>2635.7</ele><time>2026-04-05T09:23:44.000Z</time></trkpt>
<trkpt lat="42.186858" lon="23.587935"><ele>2635.7</ele><time>2026-04-05T09:23:45.000Z</time></trkpt>
<trkpt lat="42.186858" lon="23.587935"><ele>2635.7</ele><time>2026-04-05T09:23:46.000Z</time></trkpt>
<trkpt lat="42.186858" lon="23.587935"><ele>2635.7</ele><time>2026-04-05T09:23:47.000Z</time></trkpt>
<trkpt lat="42.186857" lon="23.587935"><ele>2635.7</ele><time>2026-04-05T09:23:48.000Z</time></trkpt>
<trkpt lat="42.186856" lon="23.587936"><ele>2635.9</ele><time>2026-04-05T09:23:49.000Z</time></trkpt>
<trkpt lat="42.186854" lon="23.587937"><ele>2635.9</ele><time>2026-04-05T09:23:50.000Z</time></trkpt>
<trkpt lat="42.186853" lon="23.587938"><ele>2635.9</ele><time>2026-04-05T09:23:51.000Z</time></trkpt>
<trkpt lat="42.186851" lon="23.587938"><ele>2635.9</ele><time>2026-04-05T09:23:52.000Z</time></trkpt>
<trkpt lat="42.18685" lon="23.587939"><ele>2635.9</ele><time>2026-04-05T09:23:53.000Z</time></trkpt>
<trkpt lat="42.186849" lon="23.587939"><ele>2636</ele><time>2026-04-05T09:23:54.000Z</time></trkpt>
<trkpt lat="42.18685" lon="23.587938"><ele>2636</ele><time>2026-04-05T09:23:55.000Z</time></trkpt>
<trkpt lat="42.186851" lon="23.587936"><ele>2636</ele><time>2026-04-05T09:23:56.000Z</time></trkpt>
<trkpt lat="42.18685" lon="23.587933"><ele>2636</ele><time>2026-04-05T09:23:57.000Z</time></trkpt>
<trkpt lat="42.18685" lon="23.587929"><ele>2636</ele><time>2026-04-05T09:23:58.000Z</time></trkpt>
<trkpt lat="42.186848" lon="23.587925"><ele>2636</ele><time>2026-04-05T09:23:59.000Z</time></trkpt>
<trkpt lat="42.186845" lon="23.587921"><ele>2636</ele><time>2026-04-05T09:24:00.000Z</time></trkpt>
<trkpt lat="42.186841" lon="23.587919"><ele>2636</ele><time>2026-04-05T09:24:01.000Z</time></trkpt>
<trkpt lat="42.186837" lon="23.587917"><ele>2636</ele><time>2026-04-05T09:24:02.000Z</time></trkpt>
<trkpt lat="42.186833" lon="23.587918"><ele>2636</ele><time>2026-04-05T09:24:03.000Z</time></trkpt>
<trkpt lat="42.186828" lon="23.587919"><ele>2635.9</ele><time>2026-04-05T09:24:04.000Z</time></trkpt>
<trkpt lat="42.186822" lon="23.58792"><ele>2635.9</ele><time>2026-04-05T09:24:05.000Z</time></trkpt>
<trkpt lat="42.186815" lon="23.58792"><ele>2635.9</ele><time>2026-04-05T09:24:06.000Z</time></trkpt>
<trkpt lat="42.186808" lon="23.58792"><ele>2635.9</ele><time>2026-04-05T09:24:07.000Z</time></trkpt>
<trkpt lat="42.1868" lon="23.587919"><ele>2635.9</ele><time>2026-04-05T09:24:08.000Z</time></trkpt>
<trkpt lat="42.186791" lon="23.587917"><ele>2635.7</ele><time>2026-04-05T09:24:09.000Z</time></trkpt>
<trkpt lat="42.186783" lon="23.587915"><ele>2635.7</ele><time>2026-04-05T09:24:10.000Z</time></trkpt>
<trkpt lat="42.186775" lon="23.587915"><ele>2635.7</ele><time>2026-04-05T09:24:11.000Z</time></trkpt>
<trkpt lat="42.186768" lon="23.587915"><ele>2635.7</ele><time>2026-04-05T09:24:12.000Z</time></trkpt>
<trkpt lat="42.186761" lon="23.587916"><ele>2635.7</ele><time>2026-04-05T09:24:13.000Z</time></trkpt>
<trkpt lat="42.186756" lon="23.587918"><ele>2635.5</ele><time>2026-04-05T09:24:14.000Z</time></trkpt>
<trkpt lat="42.186751" lon="23.587919"><ele>2635.5</ele><time>2026-04-05T09:24:15.000Z</time></trkpt>
<trkpt lat="42.186746" lon="23.587921"><ele>2635.5</ele><time>2026-04-05T09:24:16.000Z</time></trkpt>
<trkpt lat="42.18674" lon="23.587922"><ele>2635.5</ele><time>2026-04-05T09:24:17.000Z</time></trkpt>
<trkpt lat="42.186734" lon="23.587924"><ele>2635.5</ele><time>2026-04-05T09:24:18.000Z</time></trkpt>
<trkpt lat="42.186728" lon="23.587925"><ele>2635.5</ele><time>2026-04-05T09:24:19.000Z</time></trkpt>
<trkpt lat="42.186722" lon="23.587927"><ele>2635.5</ele><time>2026-04-05T09:24:20.000Z</time></trkpt>
<trkpt lat="42.186716" lon="23.587929"><ele>2635.5</ele><time>2026-04-05T09:24:21.000Z</time></trkpt>
<trkpt lat="42.186709" lon="23.58793"><ele>2635.5</ele><time>2026-04-05T09:24:22.000Z</time></trkpt>
<trkpt lat="42.186702" lon="23.587931"><ele>2635.5</ele><time>2026-04-05T09:24:23.000Z</time></trkpt>
<trkpt lat="42.186695" lon="23.587932"><ele>2635.7</ele><time>2026-04-05T09:24:24.000Z</time></trkpt>
<trkpt lat="42.186688" lon="23.587934"><ele>2635.7</ele><time>2026-04-05T09:24:25.000Z</time></trkpt>
<trkpt lat="42.186682" lon="23.587936"><ele>2635.7</ele><time>2026-04-05T09:24:26.000Z</time></trkpt>
<trkpt lat="42.186676" lon="23.587937"><ele>2635.7</ele><time>2026-04-05T09:24:27.000Z</time></trkpt>
<trkpt lat="42.186671" lon="23.587939"><ele>2635.7</ele><time>2026-04-05T09:24:28.000Z</time></trkpt>
<trkpt lat="42.186667" lon="23.58794"><ele>2636.3</ele><time>2026-04-05T09:24:29.000Z</time></trkpt>
<trkpt lat="42.186664" lon="23.587942"><ele>2636.3</ele><time>2026-04-05T09:24:30.000Z</time></trkpt>
<trkpt lat="42.186662" lon="23.587943"><ele>2636.3</ele><time>2026-04-05T09:24:31.000Z</time></trkpt>
<trkpt lat="42.18666" lon="23.587946"><ele>2636.3</ele><time>2026-04-05T09:24:32.000Z</time></trkpt>
<trkpt lat="42.186658" lon="23.587949"><ele>2636.3</ele><time>2026-04-05T09:24:33.000Z</time></trkpt>
<trkpt lat="42.186654" lon="23.587951"><ele>2636.8</ele><time>2026-04-05T09:24:34.000Z</time></trkpt>
<trkpt lat="42.18665" lon="23.587955"><ele>2636.8</ele><time>2026-04-05T09:24:35.000Z</time></trkpt>
<trkpt lat="42.186646" lon="23.587959"><ele>2636.8</ele><time>2026-04-05T09:24:36.000Z</time></trkpt>
<trkpt lat="42.186642" lon="23.587963"><ele>2636.8</ele><time>2026-04-05T09:24:37.000Z</time></trkpt>
<trkpt lat="42.186636" lon="23.587967"><ele>2636.8</ele><time>2026-04-05T09:24:38.000Z</time></trkpt>
<trkpt lat="42.186631" lon="23.58797"><ele>2638</ele><time>2026-04-05T09:24:39.000Z</time></trkpt>
<trkpt lat="42.186625" lon="23.587972"><ele>2638</ele><time>2026-04-05T09:24:40.000Z</time></trkpt>
<trkpt lat="42.186619" lon="23.587973"><ele>2638</ele><time>2026-04-05T09:24:41.000Z</time></trkpt>
<trkpt lat="42.186614" lon="23.587975"><ele>2638</ele><time>2026-04-05T09:24:42.000Z</time></trkpt>
<trkpt lat="42.186609" lon="23.587977"><ele>2638</ele><time>2026-04-05T09:24:43.000Z</time></trkpt>
<trkpt lat="42.186603" lon="23.587979"><ele>2639</ele><time>2026-04-05T09:24:44.000Z</time></trkpt>
<trkpt lat="42.186596" lon="23.587983"><ele>2639</ele><time>2026-04-05T09:24:45.000Z</time></trkpt>
<trkpt lat="42.186589" lon="23.587986"><ele>2639</ele><time>2026-04-05T09:24:46.000Z</time></trkpt>
<trkpt lat="42.186582" lon="23.587988"><ele>2639</ele><time>2026-04-05T09:24:47.000Z</time></trkpt>
<trkpt lat="42.186575" lon="23.587991"><ele>2639</ele><time>2026-04-05T09:24:48.000Z</time></trkpt>
<trkpt lat="42.186567" lon="23.587993"><ele>2639.5</ele><time>2026-04-05T09:24:49.000Z</time></trkpt>
<trkpt lat="42.18656" lon="23.587996"><ele>2639.5</ele><time>2026-04-05T09:24:50.000Z</time></trkpt>
<trkpt lat="42.186554" lon="23.587997"><ele>2639.5</ele><time>2026-04-05T09:24:51.000Z</time></trkpt>
<trkpt lat="42.186548" lon="23.588"><ele>2639.5</ele><time>2026-04-05T09:24:52.000Z</time></trkpt>
<trkpt lat="42.186542" lon="23.588002"><ele>2639.5</ele><time>2026-04-05T09:24:53.000Z</time></trkpt>
<trkpt lat="42.186537" lon="23.588005"><ele>2640.5</ele><time>2026-04-05T09:24:54.000Z</time></trkpt>
<trkpt lat="42.186532" lon="23.588009"><ele>2640.5</ele><time>2026-04-05T09:24:55.000Z</time></trkpt>
<trkpt lat="42.186527" lon="23.588013"><ele>2640.5</ele><time>2026-04-05T09:24:56.000Z</time></trkpt>
<trkpt lat="42.186522" lon="23.588016"><ele>2640.5</ele><time>2026-04-05T09:24:57.000Z</time></trkpt>
<trkpt lat="42.186517" lon="23.588018"><ele>2640.5</ele><time>2026-04-05T09:24:58.000Z</time></trkpt>
<trkpt lat="42.186513" lon="23.58802"><ele>2641.6</ele><time>2026-04-05T09:24:59.000Z</time></trkpt>
<trkpt lat="42.186509" lon="23.588021"><ele>2641.6</ele><time>2026-04-05T09:25:00.000Z</time></trkpt>
<trkpt lat="42.186504" lon="23.588022"><ele>2641.6</ele><time>2026-04-05T09:25:01.000Z</time></trkpt>
<trkpt lat="42.1865" lon="23.588023"><ele>2641.6</ele><time>2026-04-05T09:25:02.000Z</time></trkpt>
<trkpt lat="42.186496" lon="23.588025"><ele>2641.6</ele><time>2026-04-05T09:25:03.000Z</time></trkpt>
<trkpt lat="42.186492" lon="23.588028"><ele>2642.2</ele><time>2026-04-05T09:25:04.000Z</time></trkpt>
<trkpt lat="42.186488" lon="23.58803"><ele>2642.2</ele><time>2026-04-05T09:25:05.000Z</time></trkpt>
<trkpt lat="42.186485" lon="23.588033"><ele>2642.2</ele><time>2026-04-05T09:25:06.000Z</time></trkpt>
<trkpt lat="42.186481" lon="23.588036"><ele>2642.2</ele><time>2026-04-05T09:25:07.000Z</time></trkpt>
<trkpt lat="42.186477" lon="23.588038"><ele>2642.2</ele><time>2026-04-05T09:25:08.000Z</time></trkpt>
<trkpt lat="42.186475" lon="23.588038"><ele>2643.1</ele><time>2026-04-05T09:25:09.000Z</time></trkpt>
<trkpt lat="42.186473" lon="23.588039"><ele>2643.1</ele><time>2026-04-05T09:25:10.000Z</time></trkpt>
<trkpt lat="42.18647" lon="23.588039"><ele>2643.1</ele><time>2026-04-05T09:25:11.000Z</time></trkpt>
<trkpt lat="42.186467" lon="23.588039"><ele>2643.1</ele><time>2026-04-05T09:25:12.000Z</time></trkpt>
<trkpt lat="42.186464" lon="23.588041"><ele>2643.1</ele><time>2026-04-05T09:25:13.000Z</time></trkpt>
<trkpt lat="42.18646" lon="23.588042"><ele>2643.9</ele><time>2026-04-05T09:25:14.000Z</time></trkpt>
<trkpt lat="42.186455" lon="23.588043"><ele>2643.9</ele><time>2026-04-05T09:25:15.000Z</time></trkpt>
<trkpt lat="42.186451" lon="23.588044"><ele>2643.9</ele><time>2026-04-05T09:25:16.000Z</time></trkpt>
<trkpt lat="42.186447" lon="23.588046"><ele>2643.9</ele><time>2026-04-05T09:25:17.000Z</time></trkpt>
<trkpt lat="42.186443" lon="23.588049"><ele>2643.9</ele><time>2026-04-05T09:25:18.000Z</time></trkpt>
<trkpt lat="42.186439" lon="23.588053"><ele>2644.2</ele><time>2026-04-05T09:25:19.000Z</time></trkpt>
<trkpt lat="42.186435" lon="23.588057"><ele>2644.2</ele><time>2026-04-05T09:25:20.000Z</time></trkpt>
<trkpt lat="42.186432" lon="23.588061"><ele>2644.2</ele><time>2026-04-05T09:25:21.000Z</time></trkpt>
<trkpt lat="42.186428" lon="23.588065"><ele>2644.2</ele><time>2026-04-05T09:25:22.000Z</time></trkpt>
<trkpt lat="42.186424" lon="23.58807"><ele>2644.2</ele><time>2026-04-05T09:25:23.000Z</time></trkpt>
<trkpt lat="42.18642" lon="23.588075"><ele>2645</ele><time>2026-04-05T09:25:24.000Z</time></trkpt>
<trkpt lat="42.186415" lon="23.58808"><ele>2645</ele><time>2026-04-05T09:25:25.000Z</time></trkpt>
<trkpt lat="42.186409" lon="23.588085"><ele>2645</ele><time>2026-04-05T09:25:26.000Z</time></trkpt>
<trkpt lat="42.186405" lon="23.58809"><ele>2645</ele><time>2026-04-05T09:25:27.000Z</time></trkpt>
<trkpt lat="42.1864" lon="23.588095"><ele>2645</ele><time>2026-04-05T09:25:28.000Z</time></trkpt>
<trkpt lat="42.186394" lon="23.588099"><ele>2645.9</ele><time>2026-04-05T09:25:29.000Z</time></trkpt>
<trkpt lat="42.18639" lon="23.588102"><ele>2645.9</ele><time>2026-04-05T09:25:30.000Z</time></trkpt>
<trkpt lat="42.186385" lon="23.588105"><ele>2645.9</ele><time>2026-04-05T09:25:31.000Z</time></trkpt>
<trkpt lat="42.186382" lon="23.588107"><ele>2645.9</ele><time>2026-04-05T09:25:32.000Z</time></trkpt>
<trkpt lat="42.186379" lon="23.588107"><ele>2645.9</ele><time>2026-04-05T09:25:33.000Z</time></trkpt>
<trkpt lat="42.186377" lon="23.588107"><ele>2646.5</ele><time>2026-04-05T09:25:34.000Z</time></trkpt>
<trkpt lat="42.186375" lon="23.588108"><ele>2646.5</ele><time>2026-04-05T09:25:35.000Z</time></trkpt>
<trkpt lat="42.186375" lon="23.588107"><ele>2646.5</ele><time>2026-04-05T09:25:36.000Z</time></trkpt>
<trkpt lat="42.186375" lon="23.588106"><ele>2646.5</ele><time>2026-04-05T09:25:37.000Z</time></trkpt>
<trkpt lat="42.186375" lon="23.588106"><ele>2646.5</ele><time>2026-04-05T09:25:38.000Z</time></trkpt>
<trkpt lat="42.186376" lon="23.588106"><ele>2647.8</ele><time>2026-04-05T09:25:39.000Z</time></trkpt>
<trkpt lat="42.186375" lon="23.588107"><ele>2647.8</ele><time>2026-04-05T09:25:40.000Z</time></trkpt>
<trkpt lat="42.186373" lon="23.588109"><ele>2647.8</ele><time>2026-04-05T09:25:41.000Z</time></trkpt>
<trkpt lat="42.18637" lon="23.588112"><ele>2647.8</ele><time>2026-04-05T09:25:42.000Z</time></trkpt>
<trkpt lat="42.186367" lon="23.588116"><ele>2647.8</ele><time>2026-04-05T09:25:43.000Z</time></trkpt>
<trkpt lat="42.186361" lon="23.58812"><ele>2648.8</ele><time>2026-04-05T09:25:44.000Z</time></trkpt>
<trkpt lat="42.186356" lon="23.588124"><ele>2648.8</ele><time>2026-04-05T09:25:45.000Z</time></trkpt>
<trkpt lat="42.186352" lon="23.588126"><ele>2648.8</ele><time>2026-04-05T09:25:46.000Z</time></trkpt>
<trkpt lat="42.186348" lon="23.588129"><ele>2648.8</ele><time>2026-04-05T09:25:47.000Z</time></trkpt>
<trkpt lat="42.186344" lon="23.588131"><ele>2648.8</ele><time>2026-04-05T09:25:48.000Z</time></trkpt>
<trkpt lat="42.186342" lon="23.588133"><ele>2649.2</ele><time>2026-04-05T09:25:49.000Z</time></trkpt>
<trkpt lat="42.18634" lon="23.588136"><ele>2649.2</ele><time>2026-04-05T09:25:50.000Z</time></trkpt>
<trkpt lat="42.186338" lon="23.588139"><ele>2649.2</ele><time>2026-04-05T09:25:51.000Z</time></trkpt>
<trkpt lat="42.186337" lon="23.588142"><ele>2649.2</ele><time>2026-04-05T09:25:52.000Z</time></trkpt>
<trkpt lat="42.186335" lon="23.588144"><ele>2649.2</ele><time>2026-04-05T09:25:53.000Z</time></trkpt>
<trkpt lat="42.186334" lon="23.588146"><ele>2649.9</ele><time>2026-04-05T09:25:54.000Z</time></trkpt>
<trkpt lat="42.186334" lon="23.588146"><ele>2649.9</ele><time>2026-04-05T09:25:55.000Z</time></trkpt>
<trkpt lat="42.186333" lon="23.588146"><ele>2649.9</ele><time>2026-04-05T09:25:56.000Z</time></trkpt>
<trkpt lat="42.186333" lon="23.588147"><ele>2649.9</ele><time>2026-04-05T09:25:57.000Z</time></trkpt>
<trkpt lat="42.186333" lon="23.588148"><ele>2649.9</ele><time>2026-04-05T09:25:58.000Z</time></trkpt>
<trkpt lat="42.186333" lon="23.588148"><ele>2650.6</ele><time>2026-04-05T09:25:59.000Z</time></trkpt>
<trkpt lat="42.186332" lon="23.588149"><ele>2650.6</ele><time>2026-04-05T09:26:00.000Z</time></trkpt>
<trkpt lat="42.186332" lon="23.588149"><ele>2650.6</ele><time>2026-04-05T09:26:01.000Z</time></trkpt>
<trkpt lat="42.186332" lon="23.588149"><ele>2650.6</ele><time>2026-04-05T09:26:02.000Z</time></trkpt>
<trkpt lat="42.186332" lon="23.588149"><ele>2650.6</ele><time>2026-04-05T09:26:03.000Z</time></trkpt>
<trkpt lat="42.186332" lon="23.588149"><ele>2650.9</ele><time>2026-04-05T09:26:04.000Z</time></trkpt>
<trkpt lat="42.186332" lon="23.588149"><ele>2650.9</ele><time>2026-04-05T09:26:05.000Z</time></trkpt>
<trkpt lat="42.186333" lon="23.588149"><ele>2650.9</ele><time>2026-04-05T09:26:06.000Z</time></trkpt>
<trkpt lat="42.186333" lon="23.58815"><ele>2650.9</ele><time>2026-04-05T09:26:07.000Z</time></trkpt>
<trkpt lat="42.186333" lon="23.58815"><ele>2650.9</ele><time>2026-04-05T09:26:08.000Z</time></trkpt>
<trkpt lat="42.186333" lon="23.58815"><ele>2651.2</ele><time>2026-04-05T09:26:09.000Z</time></trkpt>
<trkpt lat="42.186333" lon="23.588151"><ele>2651.2</ele><time>2026-04-05T09:26:10.000Z</time></trkpt>
<trkpt lat="42.186333" lon="23.588151"><ele>2651.2</ele><time>2026-04-05T09:26:11.000Z</time></trkpt>
<trkpt lat="42.186333" lon="23.588151"><ele>2651.2</ele><time>2026-04-05T09:26:12.000Z</time></trkpt>
<trkpt lat="42.186333" lon="23.588151"><ele>2651.2</ele><time>2026-04-05T09:26:13.000Z</time></trkpt>
<trkpt lat="42.186333" lon="23.588151"><ele>2651.2</ele><time>2026-04-05T09:26:14.000Z</time></trkpt>
<trkpt lat="42.186333" lon="23.588151"><ele>2651.2</ele><time>2026-04-05T09:26:15.000Z</time></trkpt>
<trkpt lat="42.186333" lon="23.588151"><ele>2651.2</ele><time>2026-04-05T09:26:16.000Z</time></trkpt>
<trkpt lat="42.186334" lon="23.588151"><ele>2651.2</ele><time>2026-04-05T09:26:17.000Z</time></trkpt>
<trkpt lat="42.186334" lon="23.58815"><ele>2651.2</ele><time>2026-04-05T09:26:18.000Z</time></trkpt>
<trkpt lat="42.186334" lon="23.588149"><ele>2651.3</ele><time>2026-04-05T09:26:19.000Z</time></trkpt>
<trkpt lat="42.186334" lon="23.588148"><ele>2651.3</ele><time>2026-04-05T09:26:20.000Z</time></trkpt>
<trkpt lat="42.186333" lon="23.588147"><ele>2651.3</ele><time>2026-04-05T09:26:21.000Z</time></trkpt>
<trkpt lat="42.186333" lon="23.588146"><ele>2651.3</ele><time>2026-04-05T09:26:22.000Z</time></trkpt>
<trkpt lat="42.186333" lon="23.588145"><ele>2651.3</ele><time>2026-04-05T09:26:23.000Z</time></trkpt>
<trkpt lat="42.186332" lon="23.588145"><ele>2651.6</ele><time>2026-04-05T09:26:24.000Z</time></trkpt>
<trkpt lat="42.186332" lon="23.588145"><ele>2651.6</ele><time>2026-04-05T09:26:25.000Z</time></trkpt>
<trkpt lat="42.186331" lon="23.588145"><ele>2651.6</ele><time>2026-04-05T09:26:26.000Z</time></trkpt>
<trkpt lat="42.186331" lon="23.588145"><ele>2651.6</ele><time>2026-04-05T09:26:27.000Z</time></trkpt>
<trkpt lat="42.186331" lon="23.588145"><ele>2651.6</ele><time>2026-04-05T09:26:28.000Z</time></trkpt>
<trkpt lat="42.186331" lon="23.588145"><ele>2651.7</ele><time>2026-04-05T09:26:29.000Z</time></trkpt>
<trkpt lat="42.186331" lon="23.588145"><ele>2651.7</ele><time>2026-04-05T09:26:30.000Z</time></trkpt>
<trkpt lat="42.186331" lon="23.588145"><ele>2651.7</ele><time>2026-04-05T09:26:31.000Z</time></trkpt>
<trkpt lat="42.186331" lon="23.588145"><ele>2651.7</ele><time>2026-04-05T09:26:32.000Z</time></trkpt>
<trkpt lat="42.186331" lon="23.588145"><ele>2651.7</ele><time>2026-04-05T09:26:33.000Z</time></trkpt>
<trkpt lat="42.186331" lon="23.588145"><ele>2651.6</ele><time>2026-04-05T09:26:34.000Z</time></trkpt>
<trkpt lat="42.186331" lon="23.588145"><ele>2651.6</ele><time>2026-04-05T09:26:35.000Z</time></trkpt>
<trkpt lat="42.186331" lon="23.588145"><ele>2651.6</ele><time>2026-04-05T09:26:36.000Z</time></trkpt>
<trkpt lat="42.186331" lon="23.588145"><ele>2651.6</ele><time>2026-04-05T09:26:37.000Z</time></trkpt>
<trkpt lat="42.186331" lon="23.588145"><ele>2651.6</ele><time>2026-04-05T09:26:38.000Z</time></trkpt>
<trkpt lat="42.186331" lon="23.588145"><ele>2651.5</ele><time>2026-04-05T09:26:39.000Z</time></trkpt>
<trkpt lat="42.186331" lon="23.588145"><ele>2651.5</ele><time>2026-04-05T09:26:40.000Z</time></trkpt>
<trkpt lat="42.186331" lon="23.588145"><ele>2651.5</ele><time>2026-04-05T09:26:41.000Z</time></trkpt>
<trkpt lat="42.186331" lon="23.588145"><ele>2651.5</ele><time>2026-04-05T09:26:42.000Z</time></trkpt>
<trkpt lat="42.186331" lon="23.588145"><ele>2651.5</ele><time>2026-04-05T09:26:43.000Z</time></trkpt>
<trkpt lat="42.186331" lon="23.588145"><ele>2651.4</ele><time>2026-04-05T09:26:44.000Z</time></trkpt>
<trkpt lat="42.186331" lon="23.588145"><ele>2651.4</ele><time>2026-04-05T09:26:45.000Z</time></trkpt>
<trkpt lat="42.186331" lon="23.588145"><ele>2651.4</ele><time>2026-04-05T09:26:46.000Z</time></trkpt>
<trkpt lat="42.186331" lon="23.588145"><ele>2651.4</ele><time>2026-04-05T09:26:47.000Z</time></trkpt>
<trkpt lat="42.186331" lon="23.588145"><ele>2651.4</ele><time>2026-04-05T09:26:48.000Z</time></trkpt>
<trkpt lat="42.186331" lon="23.588145"><ele>2651.4</ele><time>2026-04-05T09:26:49.000Z</time></trkpt>
<trkpt lat="42.186331" lon="23.588145"><ele>2651.4</ele><time>2026-04-05T09:26:50.000Z</time></trkpt>
<trkpt lat="42.186331" lon="23.588145"><ele>2651.4</ele><time>2026-04-05T09:26:51.000Z</time></trkpt>
<trkpt lat="42.186331" lon="23.588145"><ele>2651.4</ele><time>2026-04-05T09:26:52.000Z</time></trkpt>
<trkpt lat="42.186331" lon="23.588145"><ele>2651.4</ele><time>2026-04-05T09:26:53.000Z</time></trkpt>
<trkpt lat="42.186331" lon="23.588146"><ele>2651.3</ele><time>2026-04-05T09:26:54.000Z</time></trkpt>
<trkpt lat="42.186331" lon="23.588146"><ele>2651.3</ele><time>2026-04-05T09:26:55.000Z</time></trkpt>
<trkpt lat="42.18633" lon="23.588146"><ele>2651.3</ele><time>2026-04-05T09:26:56.000Z</time></trkpt>
<trkpt lat="42.18633" lon="23.588147"><ele>2651.3</ele><time>2026-04-05T09:26:57.000Z</time></trkpt>
<trkpt lat="42.186329" lon="23.588147"><ele>2651.3</ele><time>2026-04-05T09:26:58.000Z</time></trkpt>
<trkpt lat="42.186328" lon="23.588147"><ele>2651.3</ele><time>2026-04-05T09:26:59.000Z</time></trkpt>
<trkpt lat="42.186328" lon="23.588146"><ele>2651.3</ele><time>2026-04-05T09:27:00.000Z</time></trkpt>
<trkpt lat="42.186327" lon="23.588146"><ele>2651.3</ele><time>2026-04-05T09:27:01.000Z</time></trkpt>
<trkpt lat="42.186326" lon="23.588146"><ele>2651.3</ele><time>2026-04-05T09:27:02.000Z</time></trkpt>
<trkpt lat="42.186326" lon="23.588146"><ele>2651.3</ele><time>2026-04-05T09:27:03.000Z</time></trkpt>
<trkpt lat="42.186326" lon="23.588146"><ele>2651.4</ele><time>2026-04-05T09:27:04.000Z</time></trkpt>
<trkpt lat="42.186326" lon="23.588146"><ele>2651.4</ele><time>2026-04-05T09:27:05.000Z</time></trkpt>
<trkpt lat="42.186326" lon="23.588146"><ele>2651.4</ele><time>2026-04-05T09:27:06.000Z</time></trkpt>
<trkpt lat="42.186326" lon="23.588146"><ele>2651.4</ele><time>2026-04-05T09:27:07.000Z</time></trkpt>
<trkpt lat="42.186326" lon="23.588146"><ele>2651.4</ele><time>2026-04-05T09:27:08.000Z</time></trkpt>
<trkpt lat="42.186326" lon="23.588146"><ele>2651.7</ele><time>2026-04-05T09:27:09.000Z</time></trkpt>
<trkpt lat="42.186326" lon="23.588146"><ele>2651.7</ele><time>2026-04-05T09:27:10.000Z</time></trkpt>
<trkpt lat="42.186324" lon="23.588146"><ele>2651.7</ele><time>2026-04-05T09:27:11.000Z</time></trkpt>
<trkpt lat="42.186321" lon="23.588145"><ele>2651.7</ele><time>2026-04-05T09:27:12.000Z</time></trkpt>
<trkpt lat="42.186315" lon="23.588144"><ele>2651.7</ele><time>2026-04-05T09:27:13.000Z</time></trkpt>
<trkpt lat="42.186309" lon="23.588144"><ele>2651.9</ele><time>2026-04-05T09:27:14.000Z</time></trkpt>
<trkpt lat="42.186301" lon="23.588143"><ele>2651.9</ele><time>2026-04-05T09:27:15.000Z</time></trkpt>
<trkpt lat="42.186293" lon="23.588143"><ele>2651.9</ele><time>2026-04-05T09:27:16.000Z</time></trkpt>
<trkpt lat="42.186285" lon="23.588143"><ele>2651.9</ele><time>2026-04-05T09:27:17.000Z</time></trkpt>
<trkpt lat="42.186278" lon="23.588144"><ele>2651.9</ele><time>2026-04-05T09:27:18.000Z</time></trkpt>
<trkpt lat="42.186271" lon="23.588145"><ele>2651.9</ele><time>2026-04-05T09:27:19.000Z</time></trkpt>
<trkpt lat="42.186265" lon="23.588147"><ele>2651.9</ele><time>2026-04-05T09:27:20.000Z</time></trkpt>
<trkpt lat="42.186259" lon="23.588149"><ele>2651.9</ele><time>2026-04-05T09:27:21.000Z</time></trkpt>
<trkpt lat="42.186255" lon="23.588152"><ele>2651.9</ele><time>2026-04-05T09:27:22.000Z</time></trkpt>
<trkpt lat="42.186251" lon="23.588154"><ele>2651.9</ele><time>2026-04-05T09:27:23.000Z</time></trkpt>
<trkpt lat="42.186246" lon="23.588157"><ele>2651.8</ele><time>2026-04-05T09:27:24.000Z</time></trkpt>
<trkpt lat="42.186242" lon="23.58816"><ele>2651.8</ele><time>2026-04-05T09:27:25.000Z</time></trkpt>
<trkpt lat="42.186238" lon="23.588164"><ele>2651.8</ele><time>2026-04-05T09:27:26.000Z</time></trkpt>
<trkpt lat="42.186233" lon="23.588167"><ele>2651.8</ele><time>2026-04-05T09:27:27.000Z</time></trkpt>
<trkpt lat="42.186229" lon="23.58817"><ele>2651.8</ele><time>2026-04-05T09:27:28.000Z</time></trkpt>
<trkpt lat="42.186225" lon="23.588173"><ele>2652</ele><time>2026-04-05T09:27:29.000Z</time></trkpt>
<trkpt lat="42.18622" lon="23.588174"><ele>2652</ele><time>2026-04-05T09:27:30.000Z</time></trkpt>
<trkpt lat="42.186215" lon="23.588176"><ele>2652</ele><time>2026-04-05T09:27:31.000Z</time></trkpt>
<trkpt lat="42.186209" lon="23.588177"><ele>2652</ele><time>2026-04-05T09:27:32.000Z</time></trkpt>
<trkpt lat="42.186204" lon="23.588178"><ele>2652</ele><time>2026-04-05T09:27:33.000Z</time></trkpt>
<trkpt lat="42.186198" lon="23.58818"><ele>2652.3</ele><time>2026-04-05T09:27:34.000Z</time></trkpt>
<trkpt lat="42.186191" lon="23.588181"><ele>2652.3</ele><time>2026-04-05T09:27:35.000Z</time></trkpt>
<trkpt lat="42.186185" lon="23.588183"><ele>2652.3</ele><time>2026-04-05T09:27:36.000Z</time></trkpt>
<trkpt lat="42.186178" lon="23.588184"><ele>2652.3</ele><time>2026-04-05T09:27:37.000Z</time></trkpt>
<trkpt lat="42.186173" lon="23.588185"><ele>2652.3</ele><time>2026-04-05T09:27:38.000Z</time></trkpt>
<trkpt lat="42.186167" lon="23.588185"><ele>2653</ele><time>2026-04-05T09:27:39.000Z</time></trkpt>
<trkpt lat="42.186163" lon="23.588187"><ele>2653</ele><time>2026-04-05T09:27:40.000Z</time></trkpt>
<trkpt lat="42.18616" lon="23.588188"><ele>2653</ele><time>2026-04-05T09:27:41.000Z</time></trkpt>
<trkpt lat="42.186158" lon="23.588189"><ele>2653</ele><time>2026-04-05T09:27:42.000Z</time></trkpt>
<trkpt lat="42.186155" lon="23.588192"><ele>2653</ele><time>2026-04-05T09:27:43.000Z</time></trkpt>
<trkpt lat="42.186153" lon="23.588195"><ele>2653.7</ele><time>2026-04-05T09:27:44.000Z</time></trkpt>
<trkpt lat="42.186152" lon="23.588198"><ele>2653.7</ele><time>2026-04-05T09:27:45.000Z</time></trkpt>
<trkpt lat="42.18615" lon="23.588202"><ele>2653.7</ele><time>2026-04-05T09:27:46.000Z</time></trkpt>
<trkpt lat="42.186149" lon="23.588207"><ele>2653.7</ele><time>2026-04-05T09:27:47.000Z</time></trkpt>
<trkpt lat="42.186147" lon="23.588212"><ele>2653.7</ele><time>2026-04-05T09:27:48.000Z</time></trkpt>
<trkpt lat="42.186147" lon="23.588217"><ele>2654</ele><time>2026-04-05T09:27:49.000Z</time></trkpt>
<trkpt lat="42.186146" lon="23.588221"><ele>2654</ele><time>2026-04-05T09:27:50.000Z</time></trkpt>
<trkpt lat="42.186146" lon="23.588226"><ele>2654</ele><time>2026-04-05T09:27:51.000Z</time></trkpt>
<trkpt lat="42.186146" lon="23.588231"><ele>2654</ele><time>2026-04-05T09:27:52.000Z</time></trkpt>
<trkpt lat="42.186147" lon="23.588235"><ele>2654</ele><time>2026-04-05T09:27:53.000Z</time></trkpt>
<trkpt lat="42.186147" lon="23.58824"><ele>2654.6</ele><time>2026-04-05T09:27:54.000Z</time></trkpt>
<trkpt lat="42.186147" lon="23.588246"><ele>2654.6</ele><time>2026-04-05T09:27:55.000Z</time></trkpt>
<trkpt lat="42.186145" lon="23.588252"><ele>2654.6</ele><time>2026-04-05T09:27:56.000Z</time></trkpt>
<trkpt lat="42.186143" lon="23.588258"><ele>2654.6</ele><time>2026-04-05T09:27:57.000Z</time></trkpt>
<trkpt lat="42.186141" lon="23.588263"><ele>2654.6</ele><time>2026-04-05T09:27:58.000Z</time></trkpt>
<trkpt lat="42.186138" lon="23.588269"><ele>2655.5</ele><time>2026-04-05T09:27:59.000Z</time></trkpt>
<trkpt lat="42.186135" lon="23.588274"><ele>2655.5</ele><time>2026-04-05T09:28:00.000Z</time></trkpt>
<trkpt lat="42.186132" lon="23.588279"><ele>2655.5</ele><time>2026-04-05T09:28:01.000Z</time></trkpt>
<trkpt lat="42.18613" lon="23.588284"><ele>2655.5</ele><time>2026-04-05T09:28:02.000Z</time></trkpt>
<trkpt lat="42.186127" lon="23.588289"><ele>2655.5</ele><time>2026-04-05T09:28:03.000Z</time></trkpt>
<trkpt lat="42.186125" lon="23.588294"><ele>2656</ele><time>2026-04-05T09:28:04.000Z</time></trkpt>
<trkpt lat="42.186122" lon="23.588298"><ele>2656</ele><time>2026-04-05T09:28:05.000Z</time></trkpt>
<trkpt lat="42.186118" lon="23.588302"><ele>2656</ele><time>2026-04-05T09:28:06.000Z</time></trkpt>
<trkpt lat="42.186114" lon="23.588307"><ele>2656</ele><time>2026-04-05T09:28:07.000Z</time></trkpt>
<trkpt lat="42.186111" lon="23.588312"><ele>2656</ele><time>2026-04-05T09:28:08.000Z</time></trkpt>
<trkpt lat="42.186107" lon="23.588317"><ele>2657.2</ele><time>2026-04-05T09:28:09.000Z</time></trkpt>
<trkpt lat="42.186105" lon="23.588321"><ele>2657.2</ele><time>2026-04-05T09:28:10.000Z</time></trkpt>
<trkpt lat="42.186102" lon="23.588326"><ele>2657.2</ele><time>2026-04-05T09:28:11.000Z</time></trkpt>
<trkpt lat="42.186099" lon="23.58833"><ele>2657.2</ele><time>2026-04-05T09:28:12.000Z</time></trkpt>
<trkpt lat="42.186097" lon="23.588335"><ele>2657.2</ele><time>2026-04-05T09:28:13.000Z</time></trkpt>
<trkpt lat="42.186094" lon="23.58834"><ele>2658.3</ele><time>2026-04-05T09:28:14.000Z</time></trkpt>
<trkpt lat="42.186092" lon="23.588345"><ele>2658.3</ele><time>2026-04-05T09:28:15.000Z</time></trkpt>
<trkpt lat="42.186089" lon="23.58835"><ele>2658.3</ele><time>2026-04-05T09:28:16.000Z</time></trkpt>
<trkpt lat="42.186086" lon="23.588355"><ele>2658.3</ele><time>2026-04-05T09:28:17.000Z</time></trkpt>
<trkpt lat="42.186083" lon="23.588358"><ele>2658.3</ele><time>2026-04-05T09:28:18.000Z</time></trkpt>
<trkpt lat="42.186079" lon="23.588361"><ele>2658.8</ele><time>2026-04-05T09:28:19.000Z</time></trkpt>
<trkpt lat="42.186075" lon="23.588364"><ele>2658.8</ele><time>2026-04-05T09:28:20.000Z</time></trkpt>
<trkpt lat="42.186071" lon="23.588366"><ele>2658.8</ele><time>2026-04-05T09:28:21.000Z</time></trkpt>
<trkpt lat="42.186068" lon="23.588368"><ele>2658.8</ele><time>2026-04-05T09:28:22.000Z</time></trkpt>
<trkpt lat="42.186065" lon="23.58837"><ele>2658.8</ele><time>2026-04-05T09:28:23.000Z</time></trkpt>
<trkpt lat="42.186063" lon="23.588373"><ele>2659.9</ele><time>2026-04-05T09:28:24.000Z</time></trkpt>
<trkpt lat="42.18606" lon="23.588374"><ele>2659.9</ele><time>2026-04-05T09:28:25.000Z</time></trkpt>
<trkpt lat="42.186058" lon="23.588377"><ele>2659.9</ele><time>2026-04-05T09:28:26.000Z</time></trkpt>
<trkpt lat="42.186055" lon="23.58838"><ele>2659.9</ele><time>2026-04-05T09:28:27.000Z</time></trkpt>
<trkpt lat="42.186053" lon="23.588383"><ele>2659.9</ele><time>2026-04-05T09:28:28.000Z</time></trkpt>
<trkpt lat="42.18605" lon="23.588387"><ele>2660.9</ele><time>2026-04-05T09:28:29.000Z</time></trkpt>
<trkpt lat="42.186048" lon="23.588391"><ele>2660.9</ele><time>2026-04-05T09:28:30.000Z</time></trkpt>
<trkpt lat="42.186045" lon="23.588396"><ele>2660.9</ele><time>2026-04-05T09:28:31.000Z</time></trkpt>
<trkpt lat="42.186041" lon="23.588401"><ele>2660.9</ele><time>2026-04-05T09:28:32.000Z</time></trkpt>
<trkpt lat="42.186039" lon="23.588405"><ele>2660.9</ele><time>2026-04-05T09:28:33.000Z</time></trkpt>
<trkpt lat="42.186037" lon="23.588409"><ele>2661.4</ele><time>2026-04-05T09:28:34.000Z</time></trkpt>
<trkpt lat="42.186035" lon="23.588412"><ele>2661.4</ele><time>2026-04-05T09:28:35.000Z</time></trkpt>
<trkpt lat="42.186033" lon="23.588414"><ele>2661.4</ele><time>2026-04-05T09:28:36.000Z</time></trkpt>
<trkpt lat="42.186032" lon="23.588416"><ele>2661.4</ele><time>2026-04-05T09:28:37.000Z</time></trkpt>
<trkpt lat="42.186029" lon="23.588418"><ele>2661.4</ele><time>2026-04-05T09:28:38.000Z</time></trkpt>
<trkpt lat="42.186027" lon="23.588421"><ele>2662.3</ele><time>2026-04-05T09:28:39.000Z</time></trkpt>
<trkpt lat="42.186025" lon="23.588426"><ele>2662.3</ele><time>2026-04-05T09:28:40.000Z</time></trkpt>
<trkpt lat="42.186024" lon="23.588432"><ele>2662.3</ele><time>2026-04-05T09:28:41.000Z</time></trkpt>
<trkpt lat="42.186022" lon="23.588438"><ele>2662.3</ele><time>2026-04-05T09:28:42.000Z</time></trkpt>
<trkpt lat="42.186021" lon="23.588446"><ele>2662.3</ele><time>2026-04-05T09:28:43.000Z</time></trkpt>
<trkpt lat="42.186019" lon="23.588454"><ele>2663.3</ele><time>2026-04-05T09:28:44.000Z</time></trkpt>
<trkpt lat="42.186018" lon="23.588459"><ele>2663.3</ele><time>2026-04-05T09:28:45.000Z</time></trkpt>
<trkpt lat="42.186016" lon="23.588462"><ele>2663.3</ele><time>2026-04-05T09:28:46.000Z</time></trkpt>
<trkpt lat="42.186013" lon="23.588465"><ele>2663.3</ele><time>2026-04-05T09:28:47.000Z</time></trkpt>
<trkpt lat="42.186011" lon="23.588467"><ele>2663.3</ele><time>2026-04-05T09:28:48.000Z</time></trkpt>
<trkpt lat="42.186008" lon="23.588468"><ele>2663.7</ele><time>2026-04-05T09:28:49.000Z</time></trkpt>
<trkpt lat="42.186005" lon="23.58847"><ele>2663.7</ele><time>2026-04-05T09:28:50.000Z</time></trkpt>
<trkpt lat="42.186003" lon="23.588471"><ele>2663.7</ele><time>2026-04-05T09:28:51.000Z</time></trkpt>
<trkpt lat="42.186" lon="23.588474"><ele>2663.7</ele><time>2026-04-05T09:28:52.000Z</time></trkpt>
<trkpt lat="42.185998" lon="23.588476"><ele>2663.7</ele><time>2026-04-05T09:28:53.000Z</time></trkpt>
<trkpt lat="42.185995" lon="23.588478"><ele>2664.4</ele><time>2026-04-05T09:28:54.000Z</time></trkpt>
<trkpt lat="42.185991" lon="23.588481"><ele>2664.4</ele><time>2026-04-05T09:28:55.000Z</time></trkpt>
<trkpt lat="42.185986" lon="23.588484"><ele>2664.4</ele><time>2026-04-05T09:28:56.000Z</time></trkpt>
<trkpt lat="42.185981" lon="23.588486"><ele>2664.4</ele><time>2026-04-05T09:28:57.000Z</time></trkpt>
<trkpt lat="42.185975" lon="23.588488"><ele>2664.4</ele><time>2026-04-05T09:28:58.000Z</time></trkpt>
<trkpt lat="42.18597" lon="23.58849"><ele>2665.2</ele><time>2026-04-05T09:28:59.000Z</time></trkpt>
<trkpt lat="42.185966" lon="23.588492"><ele>2665.2</ele><time>2026-04-05T09:29:00.000Z</time></trkpt>
<trkpt lat="42.185963" lon="23.588494"><ele>2665.2</ele><time>2026-04-05T09:29:01.000Z</time></trkpt>
<trkpt lat="42.18596" lon="23.588496"><ele>2665.2</ele><time>2026-04-05T09:29:02.000Z</time></trkpt>
<trkpt lat="42.185956" lon="23.588499"><ele>2665.2</ele><time>2026-04-05T09:29:03.000Z</time></trkpt>
<trkpt lat="42.185953" lon="23.588502"><ele>2665.6</ele><time>2026-04-05T09:29:04.000Z</time></trkpt>
<trkpt lat="42.185949" lon="23.588505"><ele>2665.6</ele><time>2026-04-05T09:29:05.000Z</time></trkpt>
<trkpt lat="42.185946" lon="23.588507"><ele>2665.6</ele><time>2026-04-05T09:29:06.000Z</time></trkpt>
<trkpt lat="42.185942" lon="23.588509"><ele>2665.6</ele><time>2026-04-05T09:29:07.000Z</time></trkpt>
<trkpt lat="42.185938" lon="23.588511"><ele>2665.6</ele><time>2026-04-05T09:29:08.000Z</time></trkpt>
<trkpt lat="42.185932" lon="23.588513"><ele>2666.6</ele><time>2026-04-05T09:29:09.000Z</time></trkpt>
<trkpt lat="42.185927" lon="23.588514"><ele>2666.6</ele><time>2026-04-05T09:29:10.000Z</time></trkpt>
<trkpt lat="42.185921" lon="23.588517"><ele>2666.6</ele><time>2026-04-05T09:29:11.000Z</time></trkpt>
<trkpt lat="42.185917" lon="23.588518"><ele>2666.6</ele><time>2026-04-05T09:29:12.000Z</time></trkpt>
<trkpt lat="42.185913" lon="23.588519"><ele>2666.6</ele><time>2026-04-05T09:29:13.000Z</time></trkpt>
<trkpt lat="42.18591" lon="23.588521"><ele>2667.5</ele><time>2026-04-05T09:29:14.000Z</time></trkpt>
<trkpt lat="42.185907" lon="23.588523"><ele>2667.5</ele><time>2026-04-05T09:29:15.000Z</time></trkpt>
<trkpt lat="42.185905" lon="23.588525"><ele>2667.5</ele><time>2026-04-05T09:29:16.000Z</time></trkpt>
<trkpt lat="42.185903" lon="23.588529"><ele>2667.5</ele><time>2026-04-05T09:29:17.000Z</time></trkpt>
<trkpt lat="42.1859" lon="23.588532"><ele>2667.5</ele><time>2026-04-05T09:29:18.000Z</time></trkpt>
<trkpt lat="42.185897" lon="23.588537"><ele>2668</ele><time>2026-04-05T09:29:19.000Z</time></trkpt>
<trkpt lat="42.185893" lon="23.588541"><ele>2668</ele><time>2026-04-05T09:29:20.000Z</time></trkpt>
<trkpt lat="42.185889" lon="23.588547"><ele>2668</ele><time>2026-04-05T09:29:21.000Z</time></trkpt>
<trkpt lat="42.185883" lon="23.588551"><ele>2668</ele><time>2026-04-05T09:29:22.000Z</time></trkpt>
<trkpt lat="42.185877" lon="23.588555"><ele>2668</ele><time>2026-04-05T09:29:23.000Z</time></trkpt>
<trkpt lat="42.185871" lon="23.588559"><ele>2668.9</ele><time>2026-04-05T09:29:24.000Z</time></trkpt>
<trkpt lat="42.185866" lon="23.588562"><ele>2668.9</ele><time>2026-04-05T09:29:25.000Z</time></trkpt>
<trkpt lat="42.18586" lon="23.588565"><ele>2668.9</ele><time>2026-04-05T09:29:26.000Z</time></trkpt>
<trkpt lat="42.185857" lon="23.588568"><ele>2668.9</ele><time>2026-04-05T09:29:27.000Z</time></trkpt>
<trkpt lat="42.185853" lon="23.588572"><ele>2668.9</ele><time>2026-04-05T09:29:28.000Z</time></trkpt>
<trkpt lat="42.18585" lon="23.588575"><ele>2669.8</ele><time>2026-04-05T09:29:29.000Z</time></trkpt>
<trkpt lat="42.185847" lon="23.588579"><ele>2669.8</ele><time>2026-04-05T09:29:30.000Z</time></trkpt>
<trkpt lat="42.185844" lon="23.588582"><ele>2669.8</ele><time>2026-04-05T09:29:31.000Z</time></trkpt>
<trkpt lat="42.185841" lon="23.588585"><ele>2669.8</ele><time>2026-04-05T09:29:32.000Z</time></trkpt>
<trkpt lat="42.185839" lon="23.588588"><ele>2669.8</ele><time>2026-04-05T09:29:33.000Z</time></trkpt>
<trkpt lat="42.185836" lon="23.58859"><ele>2670.3</ele><time>2026-04-05T09:29:34.000Z</time></trkpt>
<trkpt lat="42.185833" lon="23.588593"><ele>2670.3</ele><time>2026-04-05T09:29:35.000Z</time></trkpt>
<trkpt lat="42.18583" lon="23.588596"><ele>2670.3</ele><time>2026-04-05T09:29:36.000Z</time></trkpt>
<trkpt lat="42.185826" lon="23.588598"><ele>2670.3</ele><time>2026-04-05T09:29:37.000Z</time></trkpt>
<trkpt lat="42.185822" lon="23.588599"><ele>2670.3</ele><time>2026-04-05T09:29:38.000Z</time></trkpt>
<trkpt lat="42.185819" lon="23.5886"><ele>2671.1</ele><time>2026-04-05T09:29:39.000Z</time></trkpt>
<trkpt lat="42.185815" lon="23.588601"><ele>2671.1</ele><time>2026-04-05T09:29:40.000Z</time></trkpt>
<trkpt lat="42.18581" lon="23.588603"><ele>2671.1</ele><time>2026-04-05T09:29:41.000Z</time></trkpt>
<trkpt lat="42.185804" lon="23.588605"><ele>2671.1</ele><time>2026-04-05T09:29:42.000Z</time></trkpt>
<trkpt lat="42.185799" lon="23.588607"><ele>2671.1</ele><time>2026-04-05T09:29:43.000Z</time></trkpt>
<trkpt lat="42.185795" lon="23.58861"><ele>2672</ele><time>2026-04-05T09:29:44.000Z</time></trkpt>
<trkpt lat="42.185791" lon="23.588612"><ele>2672</ele><time>2026-04-05T09:29:45.000Z</time></trkpt>
<trkpt lat="42.185787" lon="23.588614"><ele>2672</ele><time>2026-04-05T09:29:46.000Z</time></trkpt>
<trkpt lat="42.185783" lon="23.588616"><ele>2672</ele><time>2026-04-05T09:29:47.000Z</time></trkpt>
<trkpt lat="42.185779" lon="23.588618"><ele>2672</ele><time>2026-04-05T09:29:48.000Z</time></trkpt>
<trkpt lat="42.185776" lon="23.588622"><ele>2672.4</ele><time>2026-04-05T09:29:49.000Z</time></trkpt>
<trkpt lat="42.185772" lon="23.588626"><ele>2672.4</ele><time>2026-04-05T09:29:50.000Z</time></trkpt>
<trkpt lat="42.185769" lon="23.588632"><ele>2672.4</ele><time>2026-04-05T09:29:51.000Z</time></trkpt>
<trkpt lat="42.185766" lon="23.588638"><ele>2672.4</ele><time>2026-04-05T09:29:52.000Z</time></trkpt>
<trkpt lat="42.185763" lon="23.588644"><ele>2672.4</ele><time>2026-04-05T09:29:53.000Z</time></trkpt>
<trkpt lat="42.185759" lon="23.588649"><ele>2673.1</ele><time>2026-04-05T09:29:54.000Z</time></trkpt>
<trkpt lat="42.185756" lon="23.588653"><ele>2673.1</ele><time>2026-04-05T09:29:55.000Z</time></trkpt>
<trkpt lat="42.185753" lon="23.588657"><ele>2673.1</ele><time>2026-04-05T09:29:56.000Z</time></trkpt>
<trkpt lat="42.185749" lon="23.588661"><ele>2673.1</ele><time>2026-04-05T09:29:57.000Z</time></trkpt>
<trkpt lat="42.185745" lon="23.588666"><ele>2673.1</ele><time>2026-04-05T09:29:58.000Z</time></trkpt>
<trkpt lat="42.185741" lon="23.588672"><ele>2673.8</ele><time>2026-04-05T09:29:59.000Z</time></trkpt>
<trkpt lat="42.185736" lon="23.588678"><ele>2673.8</ele><time>2026-04-05T09:30:00.000Z</time></trkpt>
<trkpt lat="42.185732" lon="23.588685"><ele>2673.8</ele><time>2026-04-05T09:30:01.000Z</time></trkpt>
<trkpt lat="42.185727" lon="23.588692"><ele>2673.8</ele><time>2026-04-05T09:30:02.000Z</time></trkpt>
<trkpt lat="42.185722" lon="23.588699"><ele>2673.8</ele><time>2026-04-05T09:30:03.000Z</time></trkpt>
<trkpt lat="42.185717" lon="23.588705"><ele>2674.1</ele><time>2026-04-05T09:30:04.000Z</time></trkpt>
<trkpt lat="42.185712" lon="23.588711"><ele>2674.1</ele><time>2026-04-05T09:30:05.000Z</time></trkpt>
<trkpt lat="42.185707" lon="23.588717"><ele>2674.1</ele><time>2026-04-05T09:30:06.000Z</time></trkpt>
<trkpt lat="42.185703" lon="23.588722"><ele>2674.1</ele><time>2026-04-05T09:30:07.000Z</time></trkpt>
<trkpt lat="42.185698" lon="23.588727"><ele>2674.1</ele><time>2026-04-05T09:30:08.000Z</time></trkpt>
<trkpt lat="42.185692" lon="23.588731"><ele>2674.9</ele><time>2026-04-05T09:30:09.000Z</time></trkpt>
<trkpt lat="42.185686" lon="23.588735"><ele>2674.9</ele><time>2026-04-05T09:30:10.000Z</time></trkpt>
<trkpt lat="42.185679" lon="23.588739"><ele>2674.9</ele><time>2026-04-05T09:30:11.000Z</time></trkpt>
<trkpt lat="42.185672" lon="23.588742"><ele>2674.9</ele><time>2026-04-05T09:30:12.000Z</time></trkpt>
<trkpt lat="42.185666" lon="23.588745"><ele>2674.9</ele><time>2026-04-05T09:30:13.000Z</time></trkpt>
<trkpt lat="42.185659" lon="23.588748"><ele>2675.8</ele><time>2026-04-05T09:30:14.000Z</time></trkpt>
<trkpt lat="42.185652" lon="23.588753"><ele>2675.8</ele><time>2026-04-05T09:30:15.000Z</time></trkpt>
<trkpt lat="42.185644" lon="23.588756"><ele>2675.8</ele><time>2026-04-05T09:30:16.000Z</time></trkpt>
<trkpt lat="42.185635" lon="23.58876"><ele>2675.8</ele><time>2026-04-05T09:30:17.000Z</time></trkpt>
<trkpt lat="42.185627" lon="23.588763"><ele>2675.8</ele><time>2026-04-05T09:30:18.000Z</time></trkpt>
<trkpt lat="42.185619" lon="23.588767"><ele>2676.3</ele><time>2026-04-05T09:30:19.000Z</time></trkpt>
<trkpt lat="42.185611" lon="23.58877"><ele>2676.3</ele><time>2026-04-05T09:30:20.000Z</time></trkpt>
<trkpt lat="42.185604" lon="23.588773"><ele>2676.3</ele><time>2026-04-05T09:30:21.000Z</time></trkpt>
<trkpt lat="42.185597" lon="23.588776"><ele>2676.3</ele><time>2026-04-05T09:30:22.000Z</time></trkpt>
<trkpt lat="42.18559" lon="23.588778"><ele>2676.3</ele><time>2026-04-05T09:30:23.000Z</time></trkpt>
<trkpt lat="42.185582" lon="23.588779"><ele>2677.2</ele><time>2026-04-05T09:30:24.000Z</time></trkpt>
<trkpt lat="42.185574" lon="23.58878"><ele>2677.2</ele><time>2026-04-05T09:30:25.000Z</time></trkpt>
<trkpt lat="42.185567" lon="23.588779"><ele>2677.2</ele><time>2026-04-05T09:30:26.000Z</time></trkpt>
<trkpt lat="42.18556" lon="23.588778"><ele>2677.2</ele><time>2026-04-05T09:30:27.000Z</time></trkpt>
<trkpt lat="42.185552" lon="23.588775"><ele>2677.2</ele><time>2026-04-05T09:30:28.000Z</time></trkpt>
<trkpt lat="42.185545" lon="23.588774"><ele>2677.9</ele><time>2026-04-05T09:30:29.000Z</time></trkpt>
<trkpt lat="42.185538" lon="23.588773"><ele>2677.9</ele><time>2026-04-05T09:30:30.000Z</time></trkpt>
<trkpt lat="42.18553" lon="23.588774"><ele>2677.9</ele><time>2026-04-05T09:30:31.000Z</time></trkpt>
<trkpt lat="42.185524" lon="23.588776"><ele>2677.9</ele><time>2026-04-05T09:30:32.000Z</time></trkpt>
<trkpt lat="42.185518" lon="23.58878"><ele>2677.9</ele><time>2026-04-05T09:30:33.000Z</time></trkpt>
<trkpt lat="42.185512" lon="23.588785"><ele>2678.2</ele><time>2026-04-05T09:30:34.000Z</time></trkpt>
<trkpt lat="42.185508" lon="23.588789"><ele>2678.2</ele><time>2026-04-05T09:30:35.000Z</time></trkpt>
<trkpt lat="42.185504" lon="23.588794"><ele>2678.2</ele><time>2026-04-05T09:30:36.000Z</time></trkpt>
<trkpt lat="42.1855" lon="23.588798"><ele>2678.2</ele><time>2026-04-05T09:30:37.000Z</time></trkpt>
<trkpt lat="42.185496" lon="23.588804"><ele>2678.2</ele><time>2026-04-05T09:30:38.000Z</time></trkpt>
<trkpt lat="42.185493" lon="23.58881"><ele>2678.6</ele><time>2026-04-05T09:30:39.000Z</time></trkpt>
<trkpt lat="42.18549" lon="23.588817"><ele>2678.6</ele><time>2026-04-05T09:30:40.000Z</time></trkpt>
<trkpt lat="42.185485" lon="23.588825"><ele>2678.6</ele><time>2026-04-05T09:30:41.000Z</time></trkpt>
<trkpt lat="42.185481" lon="23.588832"><ele>2678.6</ele><time>2026-04-05T09:30:42.000Z</time></trkpt>
<trkpt lat="42.185477" lon="23.58884"><ele>2678.6</ele><time>2026-04-05T09:30:43.000Z</time></trkpt>
<trkpt lat="42.185472" lon="23.588847"><ele>2679.1</ele><time>2026-04-05T09:30:44.000Z</time></trkpt>
<trkpt lat="42.185467" lon="23.588854"><ele>2679.1</ele><time>2026-04-05T09:30:45.000Z</time></trkpt>
<trkpt lat="42.185462" lon="23.588861"><ele>2679.1</ele><time>2026-04-05T09:30:46.000Z</time></trkpt>
<trkpt lat="42.185456" lon="23.588868"><ele>2679.1</ele><time>2026-04-05T09:30:47.000Z</time></trkpt>
<trkpt lat="42.185449" lon="23.588873"><ele>2679.1</ele><time>2026-04-05T09:30:48.000Z</time></trkpt>
<trkpt lat="42.185442" lon="23.588879"><ele>2679.4</ele><time>2026-04-05T09:30:49.000Z</time></trkpt>
<trkpt lat="42.185433" lon="23.588884"><ele>2679.4</ele><time>2026-04-05T09:30:50.000Z</time></trkpt>
<trkpt lat="42.185426" lon="23.588888"><ele>2679.4</ele><time>2026-04-05T09:30:51.000Z</time></trkpt>
<trkpt lat="42.18542" lon="23.588893"><ele>2679.4</ele><time>2026-04-05T09:30:52.000Z</time></trkpt>
<trkpt lat="42.185414" lon="23.588898"><ele>2679.4</ele><time>2026-04-05T09:30:53.000Z</time></trkpt>
<trkpt lat="42.185407" lon="23.588903"><ele>2680.2</ele><time>2026-04-05T09:30:54.000Z</time></trkpt>
<trkpt lat="42.185401" lon="23.588908"><ele>2680.2</ele><time>2026-04-05T09:30:55.000Z</time></trkpt>
<trkpt lat="42.185395" lon="23.588912"><ele>2680.2</ele><time>2026-04-05T09:30:56.000Z</time></trkpt>
<trkpt lat="42.185388" lon="23.588916"><ele>2680.2</ele><time>2026-04-05T09:30:57.000Z</time></trkpt>
<trkpt lat="42.185382" lon="23.58892"><ele>2680.2</ele><time>2026-04-05T09:30:58.000Z</time></trkpt>
<trkpt lat="42.185375" lon="23.588923"><ele>2681</ele><time>2026-04-05T09:30:59.000Z</time></trkpt>
<trkpt lat="42.185369" lon="23.588925"><ele>2681</ele><time>2026-04-05T09:31:00.000Z</time></trkpt>
<trkpt lat="42.185363" lon="23.588927"><ele>2681</ele><time>2026-04-05T09:31:01.000Z</time></trkpt>
<trkpt lat="42.185356" lon="23.588929"><ele>2681</ele><time>2026-04-05T09:31:02.000Z</time></trkpt>
<trkpt lat="42.185349" lon="23.588932"><ele>2681</ele><time>2026-04-05T09:31:03.000Z</time></trkpt>
<trkpt lat="42.185342" lon="23.588935"><ele>2681.4</ele><time>2026-04-05T09:31:04.000Z</time></trkpt>
<trkpt lat="42.185334" lon="23.58894"><ele>2681.4</ele><time>2026-04-05T09:31:05.000Z</time></trkpt>
<trkpt lat="42.185326" lon="23.588946"><ele>2681.4</ele><time>2026-04-05T09:31:06.000Z</time></trkpt>
<trkpt lat="42.185319" lon="23.588952"><ele>2681.4</ele><time>2026-04-05T09:31:07.000Z</time></trkpt>
<trkpt lat="42.185312" lon="23.588958"><ele>2681.4</ele><time>2026-04-05T09:31:08.000Z</time></trkpt>
<trkpt lat="42.185305" lon="23.588965"><ele>2681.9</ele><time>2026-04-05T09:31:09.000Z</time></trkpt>
<trkpt lat="42.185299" lon="23.588971"><ele>2681.9</ele><time>2026-04-05T09:31:10.000Z</time></trkpt>
<trkpt lat="42.185292" lon="23.588976"><ele>2681.9</ele><time>2026-04-05T09:31:11.000Z</time></trkpt>
<trkpt lat="42.185283" lon="23.588982"><ele>2681.9</ele><time>2026-04-05T09:31:12.000Z</time></trkpt>
<trkpt lat="42.185276" lon="23.588987"><ele>2681.9</ele><time>2026-04-05T09:31:13.000Z</time></trkpt>
<trkpt lat="42.185268" lon="23.588993"><ele>2682.4</ele><time>2026-04-05T09:31:14.000Z</time></trkpt>
<trkpt lat="42.185258" lon="23.589"><ele>2682.4</ele><time>2026-04-05T09:31:15.000Z</time></trkpt>
<trkpt lat="42.185249" lon="23.589006"><ele>2682.4</ele><time>2026-04-05T09:31:16.000Z</time></trkpt>
<trkpt lat="42.18524" lon="23.589011"><ele>2682.4</ele><time>2026-04-05T09:31:17.000Z</time></trkpt>
<trkpt lat="42.185232" lon="23.589015"><ele>2682.4</ele><time>2026-04-05T09:31:18.000Z</time></trkpt>
<trkpt lat="42.185225" lon="23.589018"><ele>2682.6</ele><time>2026-04-05T09:31:19.000Z</time></trkpt>
<trkpt lat="42.185219" lon="23.58902"><ele>2682.6</ele><time>2026-04-05T09:31:20.000Z</time></trkpt>
<trkpt lat="42.185213" lon="23.589023"><ele>2682.6</ele><time>2026-04-05T09:31:21.000Z</time></trkpt>
<trkpt lat="42.185209" lon="23.589027"><ele>2682.6</ele><time>2026-04-05T09:31:22.000Z</time></trkpt>
<trkpt lat="42.185205" lon="23.58903"><ele>2682.6</ele><time>2026-04-05T09:31:23.000Z</time></trkpt>
<trkpt lat="42.185199" lon="23.589033"><ele>2683.3</ele><time>2026-04-05T09:31:24.000Z</time></trkpt>
<trkpt lat="42.185195" lon="23.589036"><ele>2683.3</ele><time>2026-04-05T09:31:25.000Z</time></trkpt>
<trkpt lat="42.18519" lon="23.589039"><ele>2683.3</ele><time>2026-04-05T09:31:26.000Z</time></trkpt>
<trkpt lat="42.185183" lon="23.589043"><ele>2683.3</ele><time>2026-04-05T09:31:27.000Z</time></trkpt>
<trkpt lat="42.185178" lon="23.589045"><ele>2683.3</ele><time>2026-04-05T09:31:28.000Z</time></trkpt>
<trkpt lat="42.185172" lon="23.589048"><ele>2684</ele><time>2026-04-05T09:31:29.000Z</time></trkpt>
<trkpt lat="42.185166" lon="23.589051"><ele>2684</ele><time>2026-04-05T09:31:30.000Z</time></trkpt>
<trkpt lat="42.185161" lon="23.589054"><ele>2684</ele><time>2026-04-05T09:31:31.000Z</time></trkpt>
<trkpt lat="42.185155" lon="23.589058"><ele>2684</ele><time>2026-04-05T09:31:32.000Z</time></trkpt>
<trkpt lat="42.185149" lon="23.589061"><ele>2684</ele><time>2026-04-05T09:31:33.000Z</time></trkpt>
<trkpt lat="42.185142" lon="23.589066"><ele>2684.3</ele><time>2026-04-05T09:31:34.000Z</time></trkpt>
<trkpt lat="42.185135" lon="23.589071"><ele>2684.3</ele><time>2026-04-05T09:31:35.000Z</time></trkpt>
<trkpt lat="42.185127" lon="23.589075"><ele>2684.3</ele><time>2026-04-05T09:31:36.000Z</time></trkpt>
<trkpt lat="42.185119" lon="23.589081"><ele>2684.3</ele><time>2026-04-05T09:31:37.000Z</time></trkpt>
<trkpt lat="42.185112" lon="23.589086"><ele>2684.3</ele><time>2026-04-05T09:31:38.000Z</time></trkpt>
<trkpt lat="42.185104" lon="23.589091"><ele>2684.9</ele><time>2026-04-05T09:31:39.000Z</time></trkpt>
<trkpt lat="42.185097" lon="23.589095"><ele>2684.9</ele><time>2026-04-05T09:31:40.000Z</time></trkpt>
<trkpt lat="42.18509" lon="23.589099"><ele>2684.9</ele><time>2026-04-05T09:31:41.000Z</time></trkpt>
<trkpt lat="42.185085" lon="23.589101"><ele>2684.9</ele><time>2026-04-05T09:31:42.000Z</time></trkpt>
<trkpt lat="42.18508" lon="23.589103"><ele>2684.9</ele><time>2026-04-05T09:31:43.000Z</time></trkpt>
<trkpt lat="42.185076" lon="23.589106"><ele>2685.5</ele><time>2026-04-05T09:31:44.000Z</time></trkpt>
<trkpt lat="42.185073" lon="23.589109"><ele>2685.5</ele><time>2026-04-05T09:31:45.000Z</time></trkpt>
<trkpt lat="42.185068" lon="23.589112"><ele>2685.5</ele><time>2026-04-05T09:31:46.000Z</time></trkpt>
<trkpt lat="42.185064" lon="23.589114"><ele>2685.5</ele><time>2026-04-05T09:31:47.000Z</time></trkpt>
<trkpt lat="42.18506" lon="23.589115"><ele>2685.5</ele><time>2026-04-05T09:31:48.000Z</time></trkpt>
<trkpt lat="42.185057" lon="23.589117"><ele>2685.8</ele><time>2026-04-05T09:31:49.000Z</time></trkpt>
<trkpt lat="42.185055" lon="23.589117"><ele>2685.8</ele><time>2026-04-05T09:31:50.000Z</time></trkpt>
<trkpt lat="42.185055" lon="23.589117"><ele>2685.8</ele><time>2026-04-05T09:31:51.000Z</time></trkpt>
<trkpt lat="42.185054" lon="23.589118"><ele>2685.8</ele><time>2026-04-05T09:31:52.000Z</time></trkpt>
<trkpt lat="42.185054" lon="23.589121"><ele>2685.8</ele><time>2026-04-05T09:31:53.000Z</time></trkpt>
<trkpt lat="42.185052" lon="23.589123"><ele>2686.5</ele><time>2026-04-05T09:31:54.000Z</time></trkpt>
<trkpt lat="42.185048" lon="23.589125"><ele>2686.5</ele><time>2026-04-05T09:31:55.000Z</time></trkpt>
<trkpt lat="42.185043" lon="23.589126"><ele>2686.5</ele><time>2026-04-05T09:31:56.000Z</time></trkpt>
<trkpt lat="42.185037" lon="23.589126"><ele>2686.5</ele><time>2026-04-05T09:31:57.000Z</time></trkpt>
<trkpt lat="42.185029" lon="23.589127"><ele>2686.5</ele><time>2026-04-05T09:31:58.000Z</time></trkpt>
<trkpt lat="42.185023" lon="23.58913"><ele>2687.2</ele><time>2026-04-05T09:31:59.000Z</time></trkpt>
<trkpt lat="42.185016" lon="23.589133"><ele>2687.2</ele><time>2026-04-05T09:32:00.000Z</time></trkpt>
<trkpt lat="42.185009" lon="23.589136"><ele>2687.2</ele><time>2026-04-05T09:32:01.000Z</time></trkpt>
<trkpt lat="42.185001" lon="23.589139"><ele>2687.2</ele><time>2026-04-05T09:32:02.000Z</time></trkpt>
<trkpt lat="42.184993" lon="23.589142"><ele>2687.2</ele><time>2026-04-05T09:32:03.000Z</time></trkpt>
<trkpt lat="42.184984" lon="23.589143"><ele>2687.5</ele><time>2026-04-05T09:32:04.000Z</time></trkpt>
<trkpt lat="42.184974" lon="23.589145"><ele>2687.5</ele><time>2026-04-05T09:32:05.000Z</time></trkpt>
<trkpt lat="42.184964" lon="23.589146"><ele>2687.5</ele><time>2026-04-05T09:32:06.000Z</time></trkpt>
<trkpt lat="42.184956" lon="23.589148"><ele>2687.5</ele><time>2026-04-05T09:32:07.000Z</time></trkpt>
<trkpt lat="42.184947" lon="23.58915"><ele>2687.5</ele><time>2026-04-05T09:32:08.000Z</time></trkpt>
<trkpt lat="42.184939" lon="23.589151"><ele>2688.2</ele><time>2026-04-05T09:32:09.000Z</time></trkpt>
<trkpt lat="42.184931" lon="23.589151"><ele>2688.2</ele><time>2026-04-05T09:32:10.000Z</time></trkpt>
<trkpt lat="42.184924" lon="23.589151"><ele>2688.2</ele><time>2026-04-05T09:32:11.000Z</time></trkpt>
<trkpt lat="42.184917" lon="23.589151"><ele>2688.2</ele><time>2026-04-05T09:32:12.000Z</time></trkpt>
<trkpt lat="42.184911" lon="23.589151"><ele>2688.2</ele><time>2026-04-05T09:32:13.000Z</time></trkpt>
<trkpt lat="42.184905" lon="23.589151"><ele>2689</ele><time>2026-04-05T09:32:14.000Z</time></trkpt>
<trkpt lat="42.184899" lon="23.589151"><ele>2689</ele><time>2026-04-05T09:32:15.000Z</time></trkpt>
<trkpt lat="42.184893" lon="23.589152"><ele>2689</ele><time>2026-04-05T09:32:16.000Z</time></trkpt>
<trkpt lat="42.184886" lon="23.589152"><ele>2689</ele><time>2026-04-05T09:32:17.000Z</time></trkpt>
<trkpt lat="42.18488" lon="23.589152"><ele>2689</ele><time>2026-04-05T09:32:18.000Z</time></trkpt>
<trkpt lat="42.184874" lon="23.589152"><ele>2689.5</ele><time>2026-04-05T09:32:19.000Z</time></trkpt>
<trkpt lat="42.18487" lon="23.589153"><ele>2689.5</ele><time>2026-04-05T09:32:20.000Z</time></trkpt>
<trkpt lat="42.184868" lon="23.589154"><ele>2689.5</ele><time>2026-04-05T09:32:21.000Z</time></trkpt>
<trkpt lat="42.184868" lon="23.589155"><ele>2689.5</ele><time>2026-04-05T09:32:22.000Z</time></trkpt>
<trkpt lat="42.184868" lon="23.589155"><ele>2689.5</ele><time>2026-04-05T09:32:23.000Z</time></trkpt>
<trkpt lat="42.184867" lon="23.589156"><ele>2690.5</ele><time>2026-04-05T09:32:24.000Z</time></trkpt>
<trkpt lat="42.184866" lon="23.589156"><ele>2690.5</ele><time>2026-04-05T09:32:25.000Z</time></trkpt>
<trkpt lat="42.184863" lon="23.589154"><ele>2690.5</ele><time>2026-04-05T09:32:26.000Z</time></trkpt>
<trkpt lat="42.18486" lon="23.589152"><ele>2690.5</ele><time>2026-04-05T09:32:27.000Z</time></trkpt>
<trkpt lat="42.184855" lon="23.589151"><ele>2690.5</ele><time>2026-04-05T09:32:28.000Z</time></trkpt>
<trkpt lat="42.184852" lon="23.589148"><ele>2691.2</ele><time>2026-04-05T09:32:29.000Z</time></trkpt>
<trkpt lat="42.184849" lon="23.589146"><ele>2691.2</ele><time>2026-04-05T09:32:30.000Z</time></trkpt>
<trkpt lat="42.184846" lon="23.589144"><ele>2691.2</ele><time>2026-04-05T09:32:31.000Z</time></trkpt>
<trkpt lat="42.184843" lon="23.589141"><ele>2691.2</ele><time>2026-04-05T09:32:32.000Z</time></trkpt>
<trkpt lat="42.18484" lon="23.589138"><ele>2691.2</ele><time>2026-04-05T09:32:33.000Z</time></trkpt>
<trkpt lat="42.184839" lon="23.589134"><ele>2691.4</ele><time>2026-04-05T09:32:34.000Z</time></trkpt>
<trkpt lat="42.184839" lon="23.58913"><ele>2691.4</ele><time>2026-04-05T09:32:35.000Z</time></trkpt>
<trkpt lat="42.184838" lon="23.589127"><ele>2691.4</ele><time>2026-04-05T09:32:36.000Z</time></trkpt>
<trkpt lat="42.184839" lon="23.589124"><ele>2691.4</ele><time>2026-04-05T09:32:37.000Z</time></trkpt>
<trkpt lat="42.184839" lon="23.589123"><ele>2691.4</ele><time>2026-04-05T09:32:38.000Z</time></trkpt>
<trkpt lat="42.184839" lon="23.589123"><ele>2691.6</ele><time>2026-04-05T09:32:39.000Z</time></trkpt>
<trkpt lat="42.184839" lon="23.589123"><ele>2691.6</ele><time>2026-04-05T09:32:40.000Z</time></trkpt>
<trkpt lat="42.184838" lon="23.589124"><ele>2691.6</ele><time>2026-04-05T09:32:41.000Z</time></trkpt>
<trkpt lat="42.184838" lon="23.589125"><ele>2691.6</ele><time>2026-04-05T09:32:42.000Z</time></trkpt>
<trkpt lat="42.184837" lon="23.589125"><ele>2691.6</ele><time>2026-04-05T09:32:43.000Z</time></trkpt>
<trkpt lat="42.184837" lon="23.589125"><ele>2691.5</ele><time>2026-04-05T09:32:44.000Z</time></trkpt>
<trkpt lat="42.184836" lon="23.589125"><ele>2691.5</ele><time>2026-04-05T09:32:45.000Z</time></trkpt>
<trkpt lat="42.184836" lon="23.589124"><ele>2691.5</ele><time>2026-04-05T09:32:46.000Z</time></trkpt>
<trkpt lat="42.184835" lon="23.589123"><ele>2691.5</ele><time>2026-04-05T09:32:47.000Z</time></trkpt>
<trkpt lat="42.184835" lon="23.589123"><ele>2691.5</ele><time>2026-04-05T09:32:48.000Z</time></trkpt>
<trkpt lat="42.184835" lon="23.589122"><ele>2691.5</ele><time>2026-04-05T09:32:49.000Z</time></trkpt>
<trkpt lat="42.184835" lon="23.589122"><ele>2691.5</ele><time>2026-04-05T09:32:50.000Z</time></trkpt>
<trkpt lat="42.184833" lon="23.589123"><ele>2691.5</ele><time>2026-04-05T09:32:51.000Z</time></trkpt>
<trkpt lat="42.184832" lon="23.589123"><ele>2691.5</ele><time>2026-04-05T09:32:52.000Z</time></trkpt>
<trkpt lat="42.18483" lon="23.589123"><ele>2691.5</ele><time>2026-04-05T09:32:53.000Z</time></trkpt>
<trkpt lat="42.184828" lon="23.589122"><ele>2691.5</ele><time>2026-04-05T09:32:54.000Z</time></trkpt>
<trkpt lat="42.184826" lon="23.589122"><ele>2691.5</ele><time>2026-04-05T09:32:55.000Z</time></trkpt>
<trkpt lat="42.184824" lon="23.589121"><ele>2691.5</ele><time>2026-04-05T09:32:56.000Z</time></trkpt>
<trkpt lat="42.184821" lon="23.589121"><ele>2691.5</ele><time>2026-04-05T09:32:57.000Z</time></trkpt>
<trkpt lat="42.184818" lon="23.589122"><ele>2691.5</ele><time>2026-04-05T09:32:58.000Z</time></trkpt>
<trkpt lat="42.184813" lon="23.589123"><ele>2691.4</ele><time>2026-04-05T09:32:59.000Z</time></trkpt>
<trkpt lat="42.184808" lon="23.589122"><ele>2691.4</ele><time>2026-04-05T09:33:00.000Z</time></trkpt>
<trkpt lat="42.184804" lon="23.589124"><ele>2691.4</ele><time>2026-04-05T09:33:01.000Z</time></trkpt>
<trkpt lat="42.184802" lon="23.589124"><ele>2691.4</ele><time>2026-04-05T09:33:02.000Z</time></trkpt>
<trkpt lat="42.184802" lon="23.589124"><ele>2691.4</ele><time>2026-04-05T09:33:03.000Z</time></trkpt>
<trkpt lat="42.184803" lon="23.589125"><ele>2691.4</ele><time>2026-04-05T09:33:04.000Z</time></trkpt>
<trkpt lat="42.184805" lon="23.589127"><ele>2691.4</ele><time>2026-04-05T09:33:05.000Z</time></trkpt>
<trkpt lat="42.184807" lon="23.589127"><ele>2691.4</ele><time>2026-04-05T09:33:06.000Z</time></trkpt>
<trkpt lat="42.184809" lon="23.589128"><ele>2691.4</ele><time>2026-04-05T09:33:07.000Z</time></trkpt>
<trkpt lat="42.184811" lon="23.589129"><ele>2691.4</ele><time>2026-04-05T09:33:08.000Z</time></trkpt>
<trkpt lat="42.184813" lon="23.589129"><ele>2691.4</ele><time>2026-04-05T09:33:09.000Z</time></trkpt>
<trkpt lat="42.184815" lon="23.58913"><ele>2691.4</ele><time>2026-04-05T09:33:10.000Z</time></trkpt>
<trkpt lat="42.184817" lon="23.58913"><ele>2691.4</ele><time>2026-04-05T09:33:11.000Z</time></trkpt>
<trkpt lat="42.184818" lon="23.589129"><ele>2691.4</ele><time>2026-04-05T09:33:12.000Z</time></trkpt>
<trkpt lat="42.184819" lon="23.589129"><ele>2691.4</ele><time>2026-04-05T09:33:13.000Z</time></trkpt>
<trkpt lat="42.18482" lon="23.58913"><ele>2691.4</ele><time>2026-04-05T09:33:14.000Z</time></trkpt>
<trkpt lat="42.18482" lon="23.589131"><ele>2691.4</ele><time>2026-04-05T09:33:15.000Z</time></trkpt>
<trkpt lat="42.18482" lon="23.589132"><ele>2691.4</ele><time>2026-04-05T09:33:16.000Z</time></trkpt>
<trkpt lat="42.184819" lon="23.589133"><ele>2691.4</ele><time>2026-04-05T09:33:17.000Z</time></trkpt>
<trkpt lat="42.184819" lon="23.589134"><ele>2691.4</ele><time>2026-04-05T09:33:18.000Z</time></trkpt>
<trkpt lat="42.184819" lon="23.589134"><ele>2691.4</ele><time>2026-04-05T09:33:19.000Z</time></trkpt>
<trkpt lat="42.184819" lon="23.589134"><ele>2691.4</ele><time>2026-04-05T09:33:20.000Z</time></trkpt>
<trkpt lat="42.184818" lon="23.589134"><ele>2691.4</ele><time>2026-04-05T09:33:21.000Z</time></trkpt>
<trkpt lat="42.184817" lon="23.589135"><ele>2691.4</ele><time>2026-04-05T09:33:22.000Z</time></trkpt>
<trkpt lat="42.184817" lon="23.589135"><ele>2691.4</ele><time>2026-04-05T09:33:23.000Z</time></trkpt>
<trkpt lat="42.184816" lon="23.589135"><ele>2691.4</ele><time>2026-04-05T09:33:24.000Z</time></trkpt>
<trkpt lat="42.184816" lon="23.589135"><ele>2691.4</ele><time>2026-04-05T09:33:25.000Z</time></trkpt>
<trkpt lat="42.184816" lon="23.589135"><ele>2691.4</ele><time>2026-04-05T09:33:26.000Z</time></trkpt>
<trkpt lat="42.184816" lon="23.589135"><ele>2691.4</ele><time>2026-04-05T09:33:27.000Z</time></trkpt>
<trkpt lat="42.184816" lon="23.589135"><ele>2691.4</ele><time>2026-04-05T09:33:28.000Z</time></trkpt>
<trkpt lat="42.184815" lon="23.589135"><ele>2691.4</ele><time>2026-04-05T09:33:29.000Z</time></trkpt>
<trkpt lat="42.184815" lon="23.589135"><ele>2691.4</ele><time>2026-04-05T09:33:30.000Z</time></trkpt>
<trkpt lat="42.184814" lon="23.589135"><ele>2691.4</ele><time>2026-04-05T09:33:31.000Z</time></trkpt>
<trkpt lat="42.184814" lon="23.589135"><ele>2691.4</ele><time>2026-04-05T09:33:32.000Z</time></trkpt>
<trkpt lat="42.184813" lon="23.589134"><ele>2691.4</ele><time>2026-04-05T09:33:33.000Z</time></trkpt>
<trkpt lat="42.184812" lon="23.589133"><ele>2691.6</ele><time>2026-04-05T09:33:34.000Z</time></trkpt>
<trkpt lat="42.184812" lon="23.589132"><ele>2691.6</ele><time>2026-04-05T09:33:35.000Z</time></trkpt>
<trkpt lat="42.184812" lon="23.589132"><ele>2691.6</ele><time>2026-04-05T09:33:36.000Z</time></trkpt>
<trkpt lat="42.184812" lon="23.589131"><ele>2691.6</ele><time>2026-04-05T09:33:37.000Z</time></trkpt>
<trkpt lat="42.184812" lon="23.589131"><ele>2691.6</ele><time>2026-04-05T09:33:38.000Z</time></trkpt>
<trkpt lat="42.184813" lon="23.58913"><ele>2691.7</ele><time>2026-04-05T09:33:39.000Z</time></trkpt>
<trkpt lat="42.184814" lon="23.589129"><ele>2691.7</ele><time>2026-04-05T09:33:40.000Z</time></trkpt>
<trkpt lat="42.184815" lon="23.589128"><ele>2691.7</ele><time>2026-04-05T09:33:41.000Z</time></trkpt>
<trkpt lat="42.184817" lon="23.589127"><ele>2691.7</ele><time>2026-04-05T09:33:42.000Z</time></trkpt>
<trkpt lat="42.184817" lon="23.589128"><ele>2691.7</ele><time>2026-04-05T09:33:43.000Z</time></trkpt>
<trkpt lat="42.184816" lon="23.589129"><ele>2691.6</ele><time>2026-04-05T09:33:44.000Z</time></trkpt>
<trkpt lat="42.184815" lon="23.589131"><ele>2691.6</ele><time>2026-04-05T09:33:45.000Z</time></trkpt>
<trkpt lat="42.184814" lon="23.589132"><ele>2691.6</ele><time>2026-04-05T09:33:46.000Z</time></trkpt>
<trkpt lat="42.184813" lon="23.589133"><ele>2691.6</ele><time>2026-04-05T09:33:47.000Z</time></trkpt>
<trkpt lat="42.184812" lon="23.589134"><ele>2691.6</ele><time>2026-04-05T09:33:48.000Z</time></trkpt>
<trkpt lat="42.184812" lon="23.589133"><ele>2691.5</ele><time>2026-04-05T09:33:49.000Z</time></trkpt>
<trkpt lat="42.184812" lon="23.589133"><ele>2691.5</ele><time>2026-04-05T09:33:50.000Z</time></trkpt>
<trkpt lat="42.184813" lon="23.589133"><ele>2691.5</ele><time>2026-04-05T09:33:51.000Z</time></trkpt>
<trkpt lat="42.184813" lon="23.589133"><ele>2691.5</ele><time>2026-04-05T09:33:52.000Z</time></trkpt>
<trkpt lat="42.184813" lon="23.589133"><ele>2691.5</ele><time>2026-04-05T09:33:53.000Z</time></trkpt>
<trkpt lat="42.184814" lon="23.589133"><ele>2691.5</ele><time>2026-04-05T09:33:54.000Z</time></trkpt>
<trkpt lat="42.184813" lon="23.589133"><ele>2691.5</ele><time>2026-04-05T09:33:55.000Z</time></trkpt>
<trkpt lat="42.184812" lon="23.589133"><ele>2691.5</ele><time>2026-04-05T09:33:56.000Z</time></trkpt>
<trkpt lat="42.184812" lon="23.589134"><ele>2691.5</ele><time>2026-04-05T09:33:57.000Z</time></trkpt>
<trkpt lat="42.184812" lon="23.589134"><ele>2691.5</ele><time>2026-04-05T09:33:58.000Z</time></trkpt>
<trkpt lat="42.184811" lon="23.589135"><ele>2691.5</ele><time>2026-04-05T09:33:59.000Z</time></trkpt>
<trkpt lat="42.18481" lon="23.589138"><ele>2691.5</ele><time>2026-04-05T09:34:00.000Z</time></trkpt>
<trkpt lat="42.184809" lon="23.58914"><ele>2691.5</ele><time>2026-04-05T09:34:01.000Z</time></trkpt>
<trkpt lat="42.184807" lon="23.589143"><ele>2691.5</ele><time>2026-04-05T09:34:02.000Z</time></trkpt>
<trkpt lat="42.184805" lon="23.589145"><ele>2691.5</ele><time>2026-04-05T09:34:03.000Z</time></trkpt>
<trkpt lat="42.184803" lon="23.589147"><ele>2691.5</ele><time>2026-04-05T09:34:04.000Z</time></trkpt>
<trkpt lat="42.1848" lon="23.589149"><ele>2691.5</ele><time>2026-04-05T09:34:05.000Z</time></trkpt>
<trkpt lat="42.184796" lon="23.58915"><ele>2691.5</ele><time>2026-04-05T09:34:06.000Z</time></trkpt>
<trkpt lat="42.184793" lon="23.589152"><ele>2691.5</ele><time>2026-04-05T09:34:07.000Z</time></trkpt>
<trkpt lat="42.184789" lon="23.589153"><ele>2691.5</ele><time>2026-04-05T09:34:08.000Z</time></trkpt>
<trkpt lat="42.184783" lon="23.589155"><ele>2691.6</ele><time>2026-04-05T09:34:09.000Z</time></trkpt>
<trkpt lat="42.184778" lon="23.589157"><ele>2691.6</ele><time>2026-04-05T09:34:10.000Z</time></trkpt>
<trkpt lat="42.184772" lon="23.589158"><ele>2691.6</ele><time>2026-04-05T09:34:11.000Z</time></trkpt>
<trkpt lat="42.184767" lon="23.58916"><ele>2691.6</ele><time>2026-04-05T09:34:12.000Z</time></trkpt>
<trkpt lat="42.184762" lon="23.589163"><ele>2691.6</ele><time>2026-04-05T09:34:13.000Z</time></trkpt>
<trkpt lat="42.184758" lon="23.589166"><ele>2692</ele><time>2026-04-05T09:34:14.000Z</time></trkpt>
<trkpt lat="42.184754" lon="23.589169"><ele>2692</ele><time>2026-04-05T09:34:15.000Z</time></trkpt>
<trkpt lat="42.184749" lon="23.589172"><ele>2692</ele><time>2026-04-05T09:34:16.000Z</time></trkpt>
<trkpt lat="42.184745" lon="23.589175"><ele>2692</ele><time>2026-04-05T09:34:17.000Z</time></trkpt>
<trkpt lat="42.18474" lon="23.589177"><ele>2692</ele><time>2026-04-05T09:34:18.000Z</time></trkpt>
<trkpt lat="42.184735" lon="23.589178"><ele>2692.4</ele><time>2026-04-05T09:34:19.000Z</time></trkpt>
<trkpt lat="42.184729" lon="23.589179"><ele>2692.4</ele><time>2026-04-05T09:34:20.000Z</time></trkpt>
<trkpt lat="42.184724" lon="23.58918"><ele>2692.4</ele><time>2026-04-05T09:34:21.000Z</time></trkpt>
<trkpt lat="42.184718" lon="23.58918"><ele>2692.4</ele><time>2026-04-05T09:34:22.000Z</time></trkpt>
<trkpt lat="42.184712" lon="23.589181"><ele>2692.4</ele><time>2026-04-05T09:34:23.000Z</time></trkpt>
<trkpt lat="42.184706" lon="23.589182"><ele>2693.4</ele><time>2026-04-05T09:34:24.000Z</time></trkpt>
<trkpt lat="42.184701" lon="23.589183"><ele>2693.4</ele><time>2026-04-05T09:34:25.000Z</time></trkpt>
<trkpt lat="42.184697" lon="23.589183"><ele>2693.4</ele><time>2026-04-05T09:34:26.000Z</time></trkpt>
<trkpt lat="42.184695" lon="23.589184"><ele>2693.4</ele><time>2026-04-05T09:34:27.000Z</time></trkpt>
<trkpt lat="42.184692" lon="23.589185"><ele>2693.4</ele><time>2026-04-05T09:34:28.000Z</time></trkpt>
<trkpt lat="42.184689" lon="23.589185"><ele>2694.5</ele><time>2026-04-05T09:34:29.000Z</time></trkpt>
<trkpt lat="42.184686" lon="23.589187"><ele>2694.5</ele><time>2026-04-05T09:34:30.000Z</time></trkpt>
<trkpt lat="42.184682" lon="23.58919"><ele>2694.5</ele><time>2026-04-05T09:34:31.000Z</time></trkpt>
<trkpt lat="42.184678" lon="23.589192"><ele>2694.5</ele><time>2026-04-05T09:34:32.000Z</time></trkpt>
<trkpt lat="42.184673" lon="23.589194"><ele>2694.5</ele><time>2026-04-05T09:34:33.000Z</time></trkpt>
<trkpt lat="42.184668" lon="23.589196"><ele>2695.1</ele><time>2026-04-05T09:34:34.000Z</time></trkpt>
<trkpt lat="42.184663" lon="23.589197"><ele>2695.1</ele><time>2026-04-05T09:34:35.000Z</time></trkpt>
<trkpt lat="42.184658" lon="23.589199"><ele>2695.1</ele><time>2026-04-05T09:34:36.000Z</time></trkpt>
<trkpt lat="42.184652" lon="23.5892"><ele>2695.1</ele><time>2026-04-05T09:34:37.000Z</time></trkpt>
<trkpt lat="42.184646" lon="23.589201"><ele>2695.1</ele><time>2026-04-05T09:34:38.000Z</time></trkpt>
<trkpt lat="42.184641" lon="23.589203"><ele>2696</ele><time>2026-04-05T09:34:39.000Z</time></trkpt>
<trkpt lat="42.184635" lon="23.589204"><ele>2696</ele><time>2026-04-05T09:34:40.000Z</time></trkpt>
<trkpt lat="42.18463" lon="23.589204"><ele>2696</ele><time>2026-04-05T09:34:41.000Z</time></trkpt>
<trkpt lat="42.184625" lon="23.589203"><ele>2696</ele><time>2026-04-05T09:34:42.000Z</time></trkpt>
<trkpt lat="42.184621" lon="23.589201"><ele>2696</ele><time>2026-04-05T09:34:43.000Z</time></trkpt>
<trkpt lat="42.184618" lon="23.589199"><ele>2696.8</ele><time>2026-04-05T09:34:44.000Z</time></trkpt>
<trkpt lat="42.184616" lon="23.589198"><ele>2696.8</ele><time>2026-04-05T09:34:45.000Z</time></trkpt>
<trkpt lat="42.184614" lon="23.589197"><ele>2696.8</ele><time>2026-04-05T09:34:46.000Z</time></trkpt>
<trkpt lat="42.184612" lon="23.589196"><ele>2696.8</ele><time>2026-04-05T09:34:47.000Z</time></trkpt>
<trkpt lat="42.18461" lon="23.589196"><ele>2696.8</ele><time>2026-04-05T09:34:48.000Z</time></trkpt>
<trkpt lat="42.184606" lon="23.589196"><ele>2697.3</ele><time>2026-04-05T09:34:49.000Z</time></trkpt>
<trkpt lat="42.184603" lon="23.589195"><ele>2697.3</ele><time>2026-04-05T09:34:50.000Z</time></trkpt>
<trkpt lat="42.184599" lon="23.589192"><ele>2697.3</ele><time>2026-04-05T09:34:51.000Z</time></trkpt>
<trkpt lat="42.184595" lon="23.589191"><ele>2697.3</ele><time>2026-04-05T09:34:52.000Z</time></trkpt>
<trkpt lat="42.184591" lon="23.589189"><ele>2697.3</ele><time>2026-04-05T09:34:53.000Z</time></trkpt>
<trkpt lat="42.184587" lon="23.589187"><ele>2697.9</ele><time>2026-04-05T09:34:54.000Z</time></trkpt>
<trkpt lat="42.184582" lon="23.589184"><ele>2697.9</ele><time>2026-04-05T09:34:55.000Z</time></trkpt>
<trkpt lat="42.184577" lon="23.589183"><ele>2697.9</ele><time>2026-04-05T09:34:56.000Z</time></trkpt>
<trkpt lat="42.184572" lon="23.58918"><ele>2697.9</ele><time>2026-04-05T09:34:57.000Z</time></trkpt>
<trkpt lat="42.184567" lon="23.589177"><ele>2697.9</ele><time>2026-04-05T09:34:58.000Z</time></trkpt>
<trkpt lat="42.184561" lon="23.589173"><ele>2698.2</ele><time>2026-04-05T09:34:59.000Z</time></trkpt>
<trkpt lat="42.184555" lon="23.589171"><ele>2698.2</ele><time>2026-04-05T09:35:00.000Z</time></trkpt>
<trkpt lat="42.18455" lon="23.589169"><ele>2698.2</ele><time>2026-04-05T09:35:01.000Z</time></trkpt>
<trkpt lat="42.184546" lon="23.589168"><ele>2698.2</ele><time>2026-04-05T09:35:02.000Z</time></trkpt>
<trkpt lat="42.184541" lon="23.589168"><ele>2698.2</ele><time>2026-04-05T09:35:03.000Z</time></trkpt>
<trkpt lat="42.184538" lon="23.589167"><ele>2698.3</ele><time>2026-04-05T09:35:04.000Z</time></trkpt>
<trkpt lat="42.184534" lon="23.589166"><ele>2698.3</ele><time>2026-04-05T09:35:05.000Z</time></trkpt>
<trkpt lat="42.18453" lon="23.589165"><ele>2698.3</ele><time>2026-04-05T09:35:06.000Z</time></trkpt>
<trkpt lat="42.184525" lon="23.589163"><ele>2698.3</ele><time>2026-04-05T09:35:07.000Z</time></trkpt>
<trkpt lat="42.184521" lon="23.589158"><ele>2698.3</ele><time>2026-04-05T09:35:08.000Z</time></trkpt>
<trkpt lat="42.184515" lon="23.589154"><ele>2698.8</ele><time>2026-04-05T09:35:09.000Z</time></trkpt>
<trkpt lat="42.18451" lon="23.589149"><ele>2698.8</ele><time>2026-04-05T09:35:10.000Z</time></trkpt>
<trkpt lat="42.184505" lon="23.589146"><ele>2698.8</ele><time>2026-04-05T09:35:11.000Z</time></trkpt>
<trkpt lat="42.1845" lon="23.589143"><ele>2698.8</ele><time>2026-04-05T09:35:12.000Z</time></trkpt>
<trkpt lat="42.184496" lon="23.589141"><ele>2698.8</ele><time>2026-04-05T09:35:13.000Z</time></trkpt>
<trkpt lat="42.184493" lon="23.58914"><ele>2699.6</ele><time>2026-04-05T09:35:14.000Z</time></trkpt>
<trkpt lat="42.18449" lon="23.589139"><ele>2699.6</ele><time>2026-04-05T09:35:15.000Z</time></trkpt>
<trkpt lat="42.184487" lon="23.589138"><ele>2699.6</ele><time>2026-04-05T09:35:16.000Z</time></trkpt>
<trkpt lat="42.184483" lon="23.589136"><ele>2699.6</ele><time>2026-04-05T09:35:17.000Z</time></trkpt>
<trkpt lat="42.184479" lon="23.589135"><ele>2699.6</ele><time>2026-04-05T09:35:18.000Z</time></trkpt>
<trkpt lat="42.184474" lon="23.589133"><ele>2700</ele><time>2026-04-05T09:35:19.000Z</time></trkpt>
<trkpt lat="42.184469" lon="23.589132"><ele>2700</ele><time>2026-04-05T09:35:20.000Z</time></trkpt>
<trkpt lat="42.184464" lon="23.589131"><ele>2700</ele><time>2026-04-05T09:35:21.000Z</time></trkpt>
<trkpt lat="42.184459" lon="23.589131"><ele>2700</ele><time>2026-04-05T09:35:22.000Z</time></trkpt>
<trkpt lat="42.184453" lon="23.589131"><ele>2700</ele><time>2026-04-05T09:35:23.000Z</time></trkpt>
<trkpt lat="42.184446" lon="23.589131"><ele>2700.9</ele><time>2026-04-05T09:35:24.000Z</time></trkpt>
<trkpt lat="42.184439" lon="23.58913"><ele>2700.9</ele><time>2026-04-05T09:35:25.000Z</time></trkpt>
<trkpt lat="42.184433" lon="23.589131"><ele>2700.9</ele><time>2026-04-05T09:35:26.000Z</time></trkpt>
<trkpt lat="42.184428" lon="23.58913"><ele>2700.9</ele><time>2026-04-05T09:35:27.000Z</time></trkpt>
<trkpt lat="42.184423" lon="23.589128"><ele>2700.9</ele><time>2026-04-05T09:35:28.000Z</time></trkpt>
<trkpt lat="42.184419" lon="23.589128"><ele>2701.9</ele><time>2026-04-05T09:35:29.000Z</time></trkpt>
<trkpt lat="42.184415" lon="23.589127"><ele>2701.9</ele><time>2026-04-05T09:35:30.000Z</time></trkpt>
<trkpt lat="42.184411" lon="23.589125"><ele>2701.9</ele><time>2026-04-05T09:35:31.000Z</time></trkpt>
<trkpt lat="42.184407" lon="23.589124"><ele>2701.9</ele><time>2026-04-05T09:35:32.000Z</time></trkpt>
<trkpt lat="42.184402" lon="23.589124"><ele>2701.9</ele><time>2026-04-05T09:35:33.000Z</time></trkpt>
<trkpt lat="42.184398" lon="23.589123"><ele>2702.4</ele><time>2026-04-05T09:35:34.000Z</time></trkpt>
<trkpt lat="42.184394" lon="23.589124"><ele>2702.4</ele><time>2026-04-05T09:35:35.000Z</time></trkpt>
<trkpt lat="42.18439" lon="23.589124"><ele>2702.4</ele><time>2026-04-05T09:35:36.000Z</time></trkpt>
<trkpt lat="42.184387" lon="23.589124"><ele>2702.4</ele><time>2026-04-05T09:35:37.000Z</time></trkpt>
<trkpt lat="42.184384" lon="23.589124"><ele>2702.4</ele><time>2026-04-05T09:35:38.000Z</time></trkpt>
<trkpt lat="42.184381" lon="23.589123"><ele>2703.6</ele><time>2026-04-05T09:35:39.000Z</time></trkpt>
<trkpt lat="42.18438" lon="23.589121"><ele>2703.6</ele><time>2026-04-05T09:35:40.000Z</time></trkpt>
<trkpt lat="42.184377" lon="23.589119"><ele>2703.6</ele><time>2026-04-05T09:35:41.000Z</time></trkpt>
<trkpt lat="42.184375" lon="23.589118"><ele>2703.6</ele><time>2026-04-05T09:35:42.000Z</time></trkpt>
<trkpt lat="42.184372" lon="23.589116"><ele>2703.6</ele><time>2026-04-05T09:35:43.000Z</time></trkpt>
<trkpt lat="42.184368" lon="23.589114"><ele>2704.6</ele><time>2026-04-05T09:35:44.000Z</time></trkpt>
<trkpt lat="42.184365" lon="23.589112"><ele>2704.6</ele><time>2026-04-05T09:35:45.000Z</time></trkpt>
<trkpt lat="42.18436" lon="23.589109"><ele>2704.6</ele><time>2026-04-05T09:35:46.000Z</time></trkpt>
<trkpt lat="42.184356" lon="23.589107"><ele>2704.6</ele><time>2026-04-05T09:35:47.000Z</time></trkpt>
<trkpt lat="42.184351" lon="23.589104"><ele>2704.6</ele><time>2026-04-05T09:35:48.000Z</time></trkpt>
<trkpt lat="42.184348" lon="23.589103"><ele>2704.9</ele><time>2026-04-05T09:35:49.000Z</time></trkpt>
<trkpt lat="42.184343" lon="23.589101"><ele>2704.9</ele><time>2026-04-05T09:35:50.000Z</time></trkpt>
<trkpt lat="42.184339" lon="23.5891"><ele>2704.9</ele><time>2026-04-05T09:35:51.000Z</time></trkpt>
<trkpt lat="42.184335" lon="23.589098"><ele>2704.9</ele><time>2026-04-05T09:35:52.000Z</time></trkpt>
<trkpt lat="42.184331" lon="23.589097"><ele>2704.9</ele><time>2026-04-05T09:35:53.000Z</time></trkpt>
<trkpt lat="42.184327" lon="23.589096"><ele>2705.5</ele><time>2026-04-05T09:35:54.000Z</time></trkpt>
<trkpt lat="42.184324" lon="23.589092"><ele>2705.5</ele><time>2026-04-05T09:35:55.000Z</time></trkpt>
<trkpt lat="42.184322" lon="23.58909"><ele>2705.5</ele><time>2026-04-05T09:35:56.000Z</time></trkpt>
<trkpt lat="42.18432" lon="23.589089"><ele>2705.5</ele><time>2026-04-05T09:35:57.000Z</time></trkpt>
<trkpt lat="42.184319" lon="23.589088"><ele>2705.5</ele><time>2026-04-05T09:35:58.000Z</time></trkpt>
<trkpt lat="42.184317" lon="23.589088"><ele>2706</ele><time>2026-04-05T09:35:59.000Z</time></trkpt>
<trkpt lat="42.184317" lon="23.589089"><ele>2706</ele><time>2026-04-05T09:36:00.000Z</time></trkpt>
<trkpt lat="42.184315" lon="23.58909"><ele>2706</ele><time>2026-04-05T09:36:01.000Z</time></trkpt>
<trkpt lat="42.184314" lon="23.589091"><ele>2706</ele><time>2026-04-05T09:36:02.000Z</time></trkpt>
<trkpt lat="42.184313" lon="23.589092"><ele>2706</ele><time>2026-04-05T09:36:03.000Z</time></trkpt>
<trkpt lat="42.184312" lon="23.589092"><ele>2706.3</ele><time>2026-04-05T09:36:04.000Z</time></trkpt>
<trkpt lat="42.184311" lon="23.589092"><ele>2706.3</ele><time>2026-04-05T09:36:05.000Z</time></trkpt>
<trkpt lat="42.184311" lon="23.589092"><ele>2706.3</ele><time>2026-04-05T09:36:06.000Z</time></trkpt>
<trkpt lat="42.184311" lon="23.589092"><ele>2706.3</ele><time>2026-04-05T09:36:07.000Z</time></trkpt>
<trkpt lat="42.184311" lon="23.589092"><ele>2706.3</ele><time>2026-04-05T09:36:08.000Z</time></trkpt>
<trkpt lat="42.184311" lon="23.589092"><ele>2706.9</ele><time>2026-04-05T09:36:09.000Z</time></trkpt>
<trkpt lat="42.184311" lon="23.589092"><ele>2706.9</ele><time>2026-04-05T09:36:10.000Z</time></trkpt>
<trkpt lat="42.184312" lon="23.589093"><ele>2706.9</ele><time>2026-04-05T09:36:11.000Z</time></trkpt>
<trkpt lat="42.184312" lon="23.589093"><ele>2706.9</ele><time>2026-04-05T09:36:12.000Z</time></trkpt>
<trkpt lat="42.184312" lon="23.589094"><ele>2706.9</ele><time>2026-04-05T09:36:13.000Z</time></trkpt>
<trkpt lat="42.184313" lon="23.589094"><ele>2707.2</ele><time>2026-04-05T09:36:14.000Z</time></trkpt>
<trkpt lat="42.184313" lon="23.589095"><ele>2707.2</ele><time>2026-04-05T09:36:15.000Z</time></trkpt>
<trkpt lat="42.184314" lon="23.589096"><ele>2707.2</ele><time>2026-04-05T09:36:16.000Z</time></trkpt>
<trkpt lat="42.184314" lon="23.589096"><ele>2707.2</ele><time>2026-04-05T09:36:17.000Z</time></trkpt>
<trkpt lat="42.184315" lon="23.589097"><ele>2707.2</ele><time>2026-04-05T09:36:18.000Z</time></trkpt>
<trkpt lat="42.184316" lon="23.589098"><ele>2707.3</ele><time>2026-04-05T09:36:19.000Z</time></trkpt>
<trkpt lat="42.184316" lon="23.589098"><ele>2707.3</ele><time>2026-04-05T09:36:20.000Z</time></trkpt>
<trkpt lat="42.184316" lon="23.589098"><ele>2707.3</ele><time>2026-04-05T09:36:21.000Z</time></trkpt>
<trkpt lat="42.184316" lon="23.589098"><ele>2707.3</ele><time>2026-04-05T09:36:22.000Z</time></trkpt>
<trkpt lat="42.184315" lon="23.589096"><ele>2707.3</ele><time>2026-04-05T09:36:23.000Z</time></trkpt>
<trkpt lat="42.184315" lon="23.589094"><ele>2707.4</ele><time>2026-04-05T09:36:24.000Z</time></trkpt>
<trkpt lat="42.184313" lon="23.589091"><ele>2707.4</ele><time>2026-04-05T09:36:25.000Z</time></trkpt>
<trkpt lat="42.184311" lon="23.589088"><ele>2707.4</ele><time>2026-04-05T09:36:26.000Z</time></trkpt>
<trkpt lat="42.184308" lon="23.589085"><ele>2707.4</ele><time>2026-04-05T09:36:27.000Z</time></trkpt>
<trkpt lat="42.184305" lon="23.589083"><ele>2707.4</ele><time>2026-04-05T09:36:28.000Z</time></trkpt>
<trkpt lat="42.184301" lon="23.589081"><ele>2707.6</ele><time>2026-04-05T09:36:29.000Z</time></trkpt>
<trkpt lat="42.184297" lon="23.589079"><ele>2707.6</ele><time>2026-04-05T09:36:30.000Z</time></trkpt>
<trkpt lat="42.184294" lon="23.589077"><ele>2707.6</ele><time>2026-04-05T09:36:31.000Z</time></trkpt>
<trkpt lat="42.184289" lon="23.589074"><ele>2707.6</ele><time>2026-04-05T09:36:32.000Z</time></trkpt>
<trkpt lat="42.184286" lon="23.589071"><ele>2707.6</ele><time>2026-04-05T09:36:33.000Z</time></trkpt>
<trkpt lat="42.184281" lon="23.589069"><ele>2707.7</ele><time>2026-04-05T09:36:34.000Z</time></trkpt>
<trkpt lat="42.184279" lon="23.589066"><ele>2707.7</ele><time>2026-04-05T09:36:35.000Z</time></trkpt>
<trkpt lat="42.184276" lon="23.589063"><ele>2707.7</ele><time>2026-04-05T09:36:36.000Z</time></trkpt>
<trkpt lat="42.184276" lon="23.589062"><ele>2707.7</ele><time>2026-04-05T09:36:37.000Z</time></trkpt>
<trkpt lat="42.184274" lon="23.589059"><ele>2707.7</ele><time>2026-04-05T09:36:38.000Z</time></trkpt>
<trkpt lat="42.184271" lon="23.589056"><ele>2708.2</ele><time>2026-04-05T09:36:39.000Z</time></trkpt>
<trkpt lat="42.184267" lon="23.589053"><ele>2708.2</ele><time>2026-04-05T09:36:40.000Z</time></trkpt>
<trkpt lat="42.184262" lon="23.589051"><ele>2708.2</ele><time>2026-04-05T09:36:41.000Z</time></trkpt>
<trkpt lat="42.184255" lon="23.589048"><ele>2708.2</ele><time>2026-04-05T09:36:42.000Z</time></trkpt>
<trkpt lat="42.18425" lon="23.589046"><ele>2708.2</ele><time>2026-04-05T09:36:43.000Z</time></trkpt>
<trkpt lat="42.184243" lon="23.589044"><ele>2708.8</ele><time>2026-04-05T09:36:44.000Z</time></trkpt>
<trkpt lat="42.184237" lon="23.589042"><ele>2708.8</ele><time>2026-04-05T09:36:45.000Z</time></trkpt>
<trkpt lat="42.184232" lon="23.58904"><ele>2708.8</ele><time>2026-04-05T09:36:46.000Z</time></trkpt>
<trkpt lat="42.184226" lon="23.589039"><ele>2708.8</ele><time>2026-04-05T09:36:47.000Z</time></trkpt>
<trkpt lat="42.184221" lon="23.589038"><ele>2708.8</ele><time>2026-04-05T09:36:48.000Z</time></trkpt>
<trkpt lat="42.184216" lon="23.589037"><ele>2709.1</ele><time>2026-04-05T09:36:49.000Z</time></trkpt>
<trkpt lat="42.184212" lon="23.589037"><ele>2709.1</ele><time>2026-04-05T09:36:50.000Z</time></trkpt>
<trkpt lat="42.184208" lon="23.589037"><ele>2709.1</ele><time>2026-04-05T09:36:51.000Z</time></trkpt>
<trkpt lat="42.184204" lon="23.589036"><ele>2709.1</ele><time>2026-04-05T09:36:52.000Z</time></trkpt>
<trkpt lat="42.184201" lon="23.589034"><ele>2709.1</ele><time>2026-04-05T09:36:53.000Z</time></trkpt>
<trkpt lat="42.184197" lon="23.589032"><ele>2709.5</ele><time>2026-04-05T09:36:54.000Z</time></trkpt>
<trkpt lat="42.184192" lon="23.589031"><ele>2709.5</ele><time>2026-04-05T09:36:55.000Z</time></trkpt>
<trkpt lat="42.184187" lon="23.589029"><ele>2709.5</ele><time>2026-04-05T09:36:56.000Z</time></trkpt>
<trkpt lat="42.184183" lon="23.589028"><ele>2709.5</ele><time>2026-04-05T09:36:57.000Z</time></trkpt>
<trkpt lat="42.18418" lon="23.589027"><ele>2709.5</ele><time>2026-04-05T09:36:58.000Z</time></trkpt>
<trkpt lat="42.184178" lon="23.589026"><ele>2710</ele><time>2026-04-05T09:36:59.000Z</time></trkpt>
<trkpt lat="42.184178" lon="23.589024"><ele>2710</ele><time>2026-04-05T09:37:00.000Z</time></trkpt>
<trkpt lat="42.184178" lon="23.589023"><ele>2710</ele><time>2026-04-05T09:37:01.000Z</time></trkpt>
<trkpt lat="42.184178" lon="23.589022"><ele>2710</ele><time>2026-04-05T09:37:02.000Z</time></trkpt>
<trkpt lat="42.184179" lon="23.589021"><ele>2710</ele><time>2026-04-05T09:37:03.000Z</time></trkpt>
<trkpt lat="42.184179" lon="23.589021"><ele>2710.4</ele><time>2026-04-05T09:37:04.000Z</time></trkpt>
<trkpt lat="42.184179" lon="23.589021"><ele>2710.4</ele><time>2026-04-05T09:37:05.000Z</time></trkpt>
<trkpt lat="42.184178" lon="23.589022"><ele>2710.4</ele><time>2026-04-05T09:37:06.000Z</time></trkpt>
<trkpt lat="42.184175" lon="23.589022"><ele>2710.4</ele><time>2026-04-05T09:37:07.000Z</time></trkpt>
<trkpt lat="42.184171" lon="23.589021"><ele>2710.4</ele><time>2026-04-05T09:37:08.000Z</time></trkpt>
<trkpt lat="42.184167" lon="23.589021"><ele>2711.2</ele><time>2026-04-05T09:37:09.000Z</time></trkpt>
<trkpt lat="42.184161" lon="23.589019"><ele>2711.2</ele><time>2026-04-05T09:37:10.000Z</time></trkpt>
<trkpt lat="42.184156" lon="23.589017"><ele>2711.2</ele><time>2026-04-05T09:37:11.000Z</time></trkpt>
<trkpt lat="42.184151" lon="23.589015"><ele>2711.2</ele><time>2026-04-05T09:37:12.000Z</time></trkpt>
<trkpt lat="42.184145" lon="23.589014"><ele>2711.2</ele><time>2026-04-05T09:37:13.000Z</time></trkpt>
<trkpt lat="42.18414" lon="23.589012"><ele>2711.7</ele><time>2026-04-05T09:37:14.000Z</time></trkpt>
<trkpt lat="42.184136" lon="23.589012"><ele>2711.7</ele><time>2026-04-05T09:37:15.000Z</time></trkpt>
<trkpt lat="42.184131" lon="23.589012"><ele>2711.7</ele><time>2026-04-05T09:37:16.000Z</time></trkpt>
<trkpt lat="42.184124" lon="23.589011"><ele>2711.7</ele><time>2026-04-05T09:37:17.000Z</time></trkpt>
<trkpt lat="42.184119" lon="23.589011"><ele>2711.7</ele><time>2026-04-05T09:37:18.000Z</time></trkpt>
<trkpt lat="42.184112" lon="23.58901"><ele>2711.8</ele><time>2026-04-05T09:37:19.000Z</time></trkpt>
<trkpt lat="42.184106" lon="23.589009"><ele>2711.8</ele><time>2026-04-05T09:37:20.000Z</time></trkpt>
<trkpt lat="42.184102" lon="23.589007"><ele>2711.8</ele><time>2026-04-05T09:37:21.000Z</time></trkpt>
<trkpt lat="42.184099" lon="23.589006"><ele>2711.8</ele><time>2026-04-05T09:37:22.000Z</time></trkpt>
<trkpt lat="42.184096" lon="23.589005"><ele>2711.8</ele><time>2026-04-05T09:37:23.000Z</time></trkpt>
<trkpt lat="42.184092" lon="23.589004"><ele>2712.2</ele><time>2026-04-05T09:37:24.000Z</time></trkpt>
<trkpt lat="42.184089" lon="23.589003"><ele>2712.2</ele><time>2026-04-05T09:37:25.000Z</time></trkpt>
<trkpt lat="42.184085" lon="23.589002"><ele>2712.2</ele><time>2026-04-05T09:37:26.000Z</time></trkpt>
<trkpt lat="42.18408" lon="23.589"><ele>2712.2</ele><time>2026-04-05T09:37:27.000Z</time></trkpt>
<trkpt lat="42.184075" lon="23.588997"><ele>2712.2</ele><time>2026-04-05T09:37:28.000Z</time></trkpt>
<trkpt lat="42.184071" lon="23.588993"><ele>2712.9</ele><time>2026-04-05T09:37:29.000Z</time></trkpt>
<trkpt lat="42.184066" lon="23.588989"><ele>2712.9</ele><time>2026-04-05T09:37:30.000Z</time></trkpt>
<trkpt lat="42.184061" lon="23.588987"><ele>2712.9</ele><time>2026-04-05T09:37:31.000Z</time></trkpt>
<trkpt lat="42.184056" lon="23.588985"><ele>2712.9</ele><time>2026-04-05T09:37:32.000Z</time></trkpt>
<trkpt lat="42.184052" lon="23.588983"><ele>2712.9</ele><time>2026-04-05T09:37:33.000Z</time></trkpt>
<trkpt lat="42.184047" lon="23.588982"><ele>2713.3</ele><time>2026-04-05T09:37:34.000Z</time></trkpt>
<trkpt lat="42.184043" lon="23.588981"><ele>2713.3</ele><time>2026-04-05T09:37:35.000Z</time></trkpt>
<trkpt lat="42.184039" lon="23.588979"><ele>2713.3</ele><time>2026-04-05T09:37:36.000Z</time></trkpt>
<trkpt lat="42.184035" lon="23.588978"><ele>2713.3</ele><time>2026-04-05T09:37:37.000Z</time></trkpt>
<trkpt lat="42.184031" lon="23.588976"><ele>2713.3</ele><time>2026-04-05T09:37:38.000Z</time></trkpt>
<trkpt lat="42.184026" lon="23.588975"><ele>2714</ele><time>2026-04-05T09:37:39.000Z</time></trkpt>
<trkpt lat="42.18402" lon="23.588973"><ele>2714</ele><time>2026-04-05T09:37:40.000Z</time></trkpt>
<trkpt lat="42.184015" lon="23.588972"><ele>2714</ele><time>2026-04-05T09:37:41.000Z</time></trkpt>
<trkpt lat="42.184009" lon="23.58897"><ele>2714</ele><time>2026-04-05T09:37:42.000Z</time></trkpt>
<trkpt lat="42.184004" lon="23.588968"><ele>2714</ele><time>2026-04-05T09:37:43.000Z</time></trkpt>
<trkpt lat="42.184" lon="23.588966"><ele>2714.6</ele><time>2026-04-05T09:37:44.000Z</time></trkpt>
<trkpt lat="42.183997" lon="23.588964"><ele>2714.6</ele><time>2026-04-05T09:37:45.000Z</time></trkpt>
<trkpt lat="42.183995" lon="23.588962"><ele>2714.6</ele><time>2026-04-05T09:37:46.000Z</time></trkpt>
<trkpt lat="42.183994" lon="23.588963"><ele>2714.6</ele><time>2026-04-05T09:37:47.000Z</time></trkpt>
<trkpt lat="42.183992" lon="23.588964"><ele>2714.6</ele><time>2026-04-05T09:37:48.000Z</time></trkpt>
<trkpt lat="42.18399" lon="23.588965"><ele>2714.9</ele><time>2026-04-05T09:37:49.000Z</time></trkpt>
<trkpt lat="42.183988" lon="23.588966"><ele>2714.9</ele><time>2026-04-05T09:37:50.000Z</time></trkpt>
<trkpt lat="42.183985" lon="23.588967"><ele>2714.9</ele><time>2026-04-05T09:37:51.000Z</time></trkpt>
<trkpt lat="42.183981" lon="23.588967"><ele>2714.9</ele><time>2026-04-05T09:37:52.000Z</time></trkpt>
<trkpt lat="42.183976" lon="23.588968"><ele>2714.9</ele><time>2026-04-05T09:37:53.000Z</time></trkpt>
<trkpt lat="42.183971" lon="23.588969"><ele>2715.3</ele><time>2026-04-05T09:37:54.000Z</time></trkpt>
<trkpt lat="42.183965" lon="23.588971"><ele>2715.3</ele><time>2026-04-05T09:37:55.000Z</time></trkpt>
<trkpt lat="42.183959" lon="23.588971"><ele>2715.3</ele><time>2026-04-05T09:37:56.000Z</time></trkpt>
<trkpt lat="42.183953" lon="23.588972"><ele>2715.3</ele><time>2026-04-05T09:37:57.000Z</time></trkpt>
<trkpt lat="42.183947" lon="23.588972"><ele>2715.3</ele><time>2026-04-05T09:37:58.000Z</time></trkpt>
<trkpt lat="42.183943" lon="23.588972"><ele>2715.8</ele><time>2026-04-05T09:37:59.000Z</time></trkpt>
<trkpt lat="42.183938" lon="23.588972"><ele>2715.8</ele><time>2026-04-05T09:38:00.000Z</time></trkpt>
<trkpt lat="42.183933" lon="23.588972"><ele>2715.8</ele><time>2026-04-05T09:38:01.000Z</time></trkpt>
<trkpt lat="42.183928" lon="23.588972"><ele>2715.8</ele><time>2026-04-05T09:38:02.000Z</time></trkpt>
<trkpt lat="42.183923" lon="23.588972"><ele>2715.8</ele><time>2026-04-05T09:38:03.000Z</time></trkpt>
<trkpt lat="42.183917" lon="23.588972"><ele>2716.1</ele><time>2026-04-05T09:38:04.000Z</time></trkpt>
<trkpt lat="42.183911" lon="23.588971"><ele>2716.1</ele><time>2026-04-05T09:38:05.000Z</time></trkpt>
<trkpt lat="42.183906" lon="23.588971"><ele>2716.1</ele><time>2026-04-05T09:38:06.000Z</time></trkpt>
<trkpt lat="42.1839" lon="23.588969"><ele>2716.1</ele><time>2026-04-05T09:38:07.000Z</time></trkpt>
<trkpt lat="42.183895" lon="23.588968"><ele>2716.1</ele><time>2026-04-05T09:38:08.000Z</time></trkpt>
<trkpt lat="42.18389" lon="23.588967"><ele>2716.7</ele><time>2026-04-05T09:38:09.000Z</time></trkpt>
<trkpt lat="42.183884" lon="23.588965"><ele>2716.7</ele><time>2026-04-05T09:38:10.000Z</time></trkpt>
<trkpt lat="42.183879" lon="23.588963"><ele>2716.7</ele><time>2026-04-05T09:38:11.000Z</time></trkpt>
<trkpt lat="42.183872" lon="23.588961"><ele>2716.7</ele><time>2026-04-05T09:38:12.000Z</time></trkpt>
<trkpt lat="42.183865" lon="23.588958"><ele>2716.7</ele><time>2026-04-05T09:38:13.000Z</time></trkpt>
<trkpt lat="42.183859" lon="23.588956"><ele>2717.4</ele><time>2026-04-05T09:38:14.000Z</time></trkpt>
<trkpt lat="42.183852" lon="23.588954"><ele>2717.4</ele><time>2026-04-05T09:38:15.000Z</time></trkpt>
<trkpt lat="42.183845" lon="23.588953"><ele>2717.4</ele><time>2026-04-05T09:38:16.000Z</time></trkpt>
<trkpt lat="42.18384" lon="23.588952"><ele>2717.4</ele><time>2026-04-05T09:38:17.000Z</time></trkpt>
<trkpt lat="42.183833" lon="23.588951"><ele>2717.4</ele><time>2026-04-05T09:38:18.000Z</time></trkpt>
<trkpt lat="42.183827" lon="23.58895"><ele>2717.7</ele><time>2026-04-05T09:38:19.000Z</time></trkpt>
<trkpt lat="42.183822" lon="23.588951"><ele>2717.7</ele><time>2026-04-05T09:38:20.000Z</time></trkpt>
<trkpt lat="42.183816" lon="23.588952"><ele>2717.7</ele><time>2026-04-05T09:38:21.000Z</time></trkpt>
<trkpt lat="42.18381" lon="23.588953"><ele>2717.7</ele><time>2026-04-05T09:38:22.000Z</time></trkpt>
<trkpt lat="42.183805" lon="23.588953"><ele>2717.7</ele><time>2026-04-05T09:38:23.000Z</time></trkpt>
<trkpt lat="42.1838" lon="23.588951"><ele>2718.4</ele><time>2026-04-05T09:38:24.000Z</time></trkpt>
<trkpt lat="42.183795" lon="23.588947"><ele>2718.4</ele><time>2026-04-05T09:38:25.000Z</time></trkpt>
<trkpt lat="42.183791" lon="23.588941"><ele>2718.4</ele><time>2026-04-05T09:38:26.000Z</time></trkpt>
<trkpt lat="42.183788" lon="23.588936"><ele>2718.4</ele><time>2026-04-05T09:38:27.000Z</time></trkpt>
<trkpt lat="42.183785" lon="23.588932"><ele>2718.4</ele><time>2026-04-05T09:38:28.000Z</time></trkpt>
<trkpt lat="42.183782" lon="23.588927"><ele>2719.3</ele><time>2026-04-05T09:38:29.000Z</time></trkpt>
<trkpt lat="42.183779" lon="23.588924"><ele>2719.3</ele><time>2026-04-05T09:38:30.000Z</time></trkpt>
<trkpt lat="42.183775" lon="23.58892"><ele>2719.3</ele><time>2026-04-05T09:38:31.000Z</time></trkpt>
<trkpt lat="42.18377" lon="23.588916"><ele>2719.3</ele><time>2026-04-05T09:38:32.000Z</time></trkpt>
<trkpt lat="42.183766" lon="23.58891"><ele>2719.3</ele><time>2026-04-05T09:38:33.000Z</time></trkpt>
<trkpt lat="42.183763" lon="23.588906"><ele>2719.7</ele><time>2026-04-05T09:38:34.000Z</time></trkpt>
<trkpt lat="42.18376" lon="23.588902"><ele>2719.7</ele><time>2026-04-05T09:38:35.000Z</time></trkpt>
<trkpt lat="42.183758" lon="23.588899"><ele>2719.7</ele><time>2026-04-05T09:38:36.000Z</time></trkpt>
<trkpt lat="42.183758" lon="23.588897"><ele>2719.7</ele><time>2026-04-05T09:38:37.000Z</time></trkpt>
<trkpt lat="42.183758" lon="23.588897"><ele>2719.7</ele><time>2026-04-05T09:38:38.000Z</time></trkpt>
<trkpt lat="42.183757" lon="23.588897"><ele>2720.5</ele><time>2026-04-05T09:38:39.000Z</time></trkpt>
<trkpt lat="42.183756" lon="23.588895"><ele>2720.5</ele><time>2026-04-05T09:38:40.000Z</time></trkpt>
<trkpt lat="42.183754" lon="23.588892"><ele>2720.5</ele><time>2026-04-05T09:38:41.000Z</time></trkpt>
<trkpt lat="42.183752" lon="23.588889"><ele>2720.5</ele><time>2026-04-05T09:38:42.000Z</time></trkpt>
<trkpt lat="42.183748" lon="23.588885"><ele>2720.5</ele><time>2026-04-05T09:38:43.000Z</time></trkpt>
<trkpt lat="42.183744" lon="23.588879"><ele>2721.3</ele><time>2026-04-05T09:38:44.000Z</time></trkpt>
<trkpt lat="42.18374" lon="23.588875"><ele>2721.3</ele><time>2026-04-05T09:38:45.000Z</time></trkpt>
<trkpt lat="42.183736" lon="23.58887"><ele>2721.3</ele><time>2026-04-05T09:38:46.000Z</time></trkpt>
<trkpt lat="42.183733" lon="23.588865"><ele>2721.3</ele><time>2026-04-05T09:38:47.000Z</time></trkpt>
<trkpt lat="42.183732" lon="23.58886"><ele>2721.3</ele><time>2026-04-05T09:38:48.000Z</time></trkpt>
<trkpt lat="42.18373" lon="23.588855"><ele>2721.7</ele><time>2026-04-05T09:38:49.000Z</time></trkpt>
<trkpt lat="42.183729" lon="23.588849"><ele>2721.7</ele><time>2026-04-05T09:38:50.000Z</time></trkpt>
<trkpt lat="42.183727" lon="23.588845"><ele>2721.7</ele><time>2026-04-05T09:38:51.000Z</time></trkpt>
<trkpt lat="42.183724" lon="23.588841"><ele>2721.7</ele><time>2026-04-05T09:38:52.000Z</time></trkpt>
<trkpt lat="42.183721" lon="23.588838"><ele>2721.7</ele><time>2026-04-05T09:38:53.000Z</time></trkpt>
<trkpt lat="42.183719" lon="23.588837"><ele>2722.4</ele><time>2026-04-05T09:38:54.000Z</time></trkpt>
<trkpt lat="42.183717" lon="23.588835"><ele>2722.4</ele><time>2026-04-05T09:38:55.000Z</time></trkpt>
<trkpt lat="42.183716" lon="23.588833"><ele>2722.4</ele><time>2026-04-05T09:38:56.000Z</time></trkpt>
<trkpt lat="42.183715" lon="23.58883"><ele>2722.4</ele><time>2026-04-05T09:38:57.000Z</time></trkpt>
<trkpt lat="42.183714" lon="23.588826"><ele>2722.4</ele><time>2026-04-05T09:38:58.000Z</time></trkpt>
<trkpt lat="42.183712" lon="23.588822"><ele>2723.1</ele><time>2026-04-05T09:38:59.000Z</time></trkpt>
<trkpt lat="42.18371" lon="23.588819"><ele>2723.1</ele><time>2026-04-05T09:39:00.000Z</time></trkpt>
<trkpt lat="42.183708" lon="23.588814"><ele>2723.1</ele><time>2026-04-05T09:39:01.000Z</time></trkpt>
<trkpt lat="42.183706" lon="23.588809"><ele>2723.1</ele><time>2026-04-05T09:39:02.000Z</time></trkpt>
<trkpt lat="42.183705" lon="23.588807"><ele>2723.1</ele><time>2026-04-05T09:39:03.000Z</time></trkpt>
<trkpt lat="42.183706" lon="23.588807"><ele>2723.4</ele><time>2026-04-05T09:39:04.000Z</time></trkpt>
<trkpt lat="42.183706" lon="23.588807"><ele>2723.4</ele><time>2026-04-05T09:39:05.000Z</time></trkpt>
<trkpt lat="42.183708" lon="23.588809"><ele>2723.4</ele><time>2026-04-05T09:39:06.000Z</time></trkpt>
<trkpt lat="42.183709" lon="23.588812"><ele>2723.4</ele><time>2026-04-05T09:39:07.000Z</time></trkpt>
<trkpt lat="42.183709" lon="23.588813"><ele>2723.4</ele><time>2026-04-05T09:39:08.000Z</time></trkpt>
<trkpt lat="42.183707" lon="23.588813"><ele>2724.1</ele><time>2026-04-05T09:39:09.000Z</time></trkpt>
<trkpt lat="42.183704" lon="23.588811"><ele>2724.1</ele><time>2026-04-05T09:39:10.000Z</time></trkpt>
<trkpt lat="42.183701" lon="23.588809"><ele>2724.1</ele><time>2026-04-05T09:39:11.000Z</time></trkpt>
<trkpt lat="42.183697" lon="23.588805"><ele>2724.1</ele><time>2026-04-05T09:39:12.000Z</time></trkpt>
<trkpt lat="42.183694" lon="23.588799"><ele>2724.1</ele><time>2026-04-05T09:39:13.000Z</time></trkpt>
<trkpt lat="42.183692" lon="23.588794"><ele>2724.6</ele><time>2026-04-05T09:39:14.000Z</time></trkpt>
<trkpt lat="42.18369" lon="23.588789"><ele>2724.6</ele><time>2026-04-05T09:39:15.000Z</time></trkpt>
<trkpt lat="42.183688" lon="23.588783"><ele>2724.6</ele><time>2026-04-05T09:39:16.000Z</time></trkpt>
<trkpt lat="42.183687" lon="23.588777"><ele>2724.6</ele><time>2026-04-05T09:39:17.000Z</time></trkpt>
<trkpt lat="42.183685" lon="23.588772"><ele>2724.6</ele><time>2026-04-05T09:39:18.000Z</time></trkpt>
<trkpt lat="42.183684" lon="23.588765"><ele>2724.8</ele><time>2026-04-05T09:39:19.000Z</time></trkpt>
<trkpt lat="42.183682" lon="23.588758"><ele>2724.8</ele><time>2026-04-05T09:39:20.000Z</time></trkpt>
<trkpt lat="42.18368" lon="23.58875"><ele>2724.8</ele><time>2026-04-05T09:39:21.000Z</time></trkpt>
<trkpt lat="42.183678" lon="23.588743"><ele>2724.8</ele><time>2026-04-05T09:39:22.000Z</time></trkpt>
<trkpt lat="42.183677" lon="23.588736"><ele>2724.8</ele><time>2026-04-05T09:39:23.000Z</time></trkpt>
<trkpt lat="42.183675" lon="23.58873"><ele>2725.1</ele><time>2026-04-05T09:39:24.000Z</time></trkpt>
<trkpt lat="42.183673" lon="23.588724"><ele>2725.1</ele><time>2026-04-05T09:39:25.000Z</time></trkpt>
<trkpt lat="42.18367" lon="23.588717"><ele>2725.1</ele><time>2026-04-05T09:39:26.000Z</time></trkpt>
<trkpt lat="42.183669" lon="23.58871"><ele>2725.1</ele><time>2026-04-05T09:39:27.000Z</time></trkpt>
<trkpt lat="42.183667" lon="23.588704"><ele>2725.1</ele><time>2026-04-05T09:39:28.000Z</time></trkpt>
<trkpt lat="42.183665" lon="23.588697"><ele>2725.7</ele><time>2026-04-05T09:39:29.000Z</time></trkpt>
<trkpt lat="42.183663" lon="23.588689"><ele>2725.7</ele><time>2026-04-05T09:39:30.000Z</time></trkpt>
<trkpt lat="42.183661" lon="23.588682"><ele>2725.7</ele><time>2026-04-05T09:39:31.000Z</time></trkpt>
<trkpt lat="42.183659" lon="23.588677"><ele>2725.7</ele><time>2026-04-05T09:39:32.000Z</time></trkpt>
<trkpt lat="42.183657" lon="23.588671"><ele>2725.7</ele><time>2026-04-05T09:39:33.000Z</time></trkpt>
<trkpt lat="42.183655" lon="23.588666"><ele>2726.2</ele><time>2026-04-05T09:39:34.000Z</time></trkpt>
<trkpt lat="42.183653" lon="23.588659"><ele>2726.2</ele><time>2026-04-05T09:39:35.000Z</time></trkpt>
<trkpt lat="42.183651" lon="23.588653"><ele>2726.2</ele><time>2026-04-05T09:39:36.000Z</time></trkpt>
<trkpt lat="42.18365" lon="23.588646"><ele>2726.2</ele><time>2026-04-05T09:39:37.000Z</time></trkpt>
<trkpt lat="42.183649" lon="23.588638"><ele>2726.2</ele><time>2026-04-05T09:39:38.000Z</time></trkpt>
<trkpt lat="42.183648" lon="23.58863"><ele>2727.4</ele><time>2026-04-05T09:39:39.000Z</time></trkpt>
<trkpt lat="42.183647" lon="23.588623"><ele>2727.4</ele><time>2026-04-05T09:39:40.000Z</time></trkpt>
<trkpt lat="42.183646" lon="23.588615"><ele>2727.4</ele><time>2026-04-05T09:39:41.000Z</time></trkpt>
<trkpt lat="42.183644" lon="23.588607"><ele>2727.4</ele><time>2026-04-05T09:39:42.000Z</time></trkpt>
<trkpt lat="42.183642" lon="23.5886"><ele>2727.4</ele><time>2026-04-05T09:39:43.000Z</time></trkpt>
<trkpt lat="42.183639" lon="23.588592"><ele>2728.5</ele><time>2026-04-05T09:39:44.000Z</time></trkpt>
<trkpt lat="42.183637" lon="23.588585"><ele>2728.5</ele><time>2026-04-05T09:39:45.000Z</time></trkpt>
<trkpt lat="42.183634" lon="23.588578"><ele>2728.5</ele><time>2026-04-05T09:39:46.000Z</time></trkpt>
<trkpt lat="42.183631" lon="23.588574"><ele>2728.5</ele><time>2026-04-05T09:39:47.000Z</time></trkpt>
<trkpt lat="42.18363" lon="23.58857"><ele>2728.5</ele><time>2026-04-05T09:39:48.000Z</time></trkpt>
<trkpt lat="42.183627" lon="23.588565"><ele>2729.1</ele><time>2026-04-05T09:39:49.000Z</time></trkpt>
<trkpt lat="42.183626" lon="23.588561"><ele>2729.1</ele><time>2026-04-05T09:39:50.000Z</time></trkpt>
<trkpt lat="42.183623" lon="23.588558"><ele>2729.1</ele><time>2026-04-05T09:39:51.000Z</time></trkpt>
<trkpt lat="42.183621" lon="23.588555"><ele>2729.1</ele><time>2026-04-05T09:39:52.000Z</time></trkpt>
<trkpt lat="42.183618" lon="23.588553"><ele>2729.1</ele><time>2026-04-05T09:39:53.000Z</time></trkpt>
<trkpt lat="42.183617" lon="23.588552"><ele>2730.1</ele><time>2026-04-05T09:39:54.000Z</time></trkpt>
<trkpt lat="42.183616" lon="23.588552"><ele>2730.1</ele><time>2026-04-05T09:39:55.000Z</time></trkpt>
<trkpt lat="42.183617" lon="23.588551"><ele>2730.1</ele><time>2026-04-05T09:39:56.000Z</time></trkpt>
<trkpt lat="42.183618" lon="23.588551"><ele>2730.1</ele><time>2026-04-05T09:39:57.000Z</time></trkpt>
<trkpt lat="42.183618" lon="23.588551"><ele>2730.1</ele><time>2026-04-05T09:39:58.000Z</time></trkpt>
<trkpt lat="42.183619" lon="23.588552"><ele>2731</ele><time>2026-04-05T09:39:59.000Z</time></trkpt>
<trkpt lat="42.183617" lon="23.588552"><ele>2731</ele><time>2026-04-05T09:40:00.000Z</time></trkpt>
<trkpt lat="42.183615" lon="23.588554"><ele>2731</ele><time>2026-04-05T09:40:01.000Z</time></trkpt>
<trkpt lat="42.183612" lon="23.588555"><ele>2731</ele><time>2026-04-05T09:40:02.000Z</time></trkpt>
<trkpt lat="42.183609" lon="23.588558"><ele>2731</ele><time>2026-04-05T09:40:03.000Z</time></trkpt>
<trkpt lat="42.183605" lon="23.58856"><ele>2731.4</ele><time>2026-04-05T09:40:04.000Z</time></trkpt>
<trkpt lat="42.183603" lon="23.588561"><ele>2731.4</ele><time>2026-04-05T09:40:05.000Z</time></trkpt>
<trkpt lat="42.183601" lon="23.588562"><ele>2731.4</ele><time>2026-04-05T09:40:06.000Z</time></trkpt>
<trkpt lat="42.1836" lon="23.588564"><ele>2731.4</ele><time>2026-04-05T09:40:07.000Z</time></trkpt>
<trkpt lat="42.183598" lon="23.588565"><ele>2731.4</ele><time>2026-04-05T09:40:08.000Z</time></trkpt>
<trkpt lat="42.183597" lon="23.588567"><ele>2732</ele><time>2026-04-05T09:40:09.000Z</time></trkpt>
<trkpt lat="42.183596" lon="23.588569"><ele>2732</ele><time>2026-04-05T09:40:10.000Z</time></trkpt>
<trkpt lat="42.183595" lon="23.58857"><ele>2732</ele><time>2026-04-05T09:40:11.000Z</time></trkpt>
<trkpt lat="42.183595" lon="23.58857"><ele>2732</ele><time>2026-04-05T09:40:12.000Z</time></trkpt>
<trkpt lat="42.183595" lon="23.58857"><ele>2732</ele><time>2026-04-05T09:40:13.000Z</time></trkpt>
<trkpt lat="42.183595" lon="23.588571"><ele>2732.3</ele><time>2026-04-05T09:40:14.000Z</time></trkpt>
<trkpt lat="42.183596" lon="23.588571"><ele>2732.3</ele><time>2026-04-05T09:40:15.000Z</time></trkpt>
<trkpt lat="42.183597" lon="23.588571"><ele>2732.3</ele><time>2026-04-05T09:40:16.000Z</time></trkpt>
<trkpt lat="42.183598" lon="23.588571"><ele>2732.3</ele><time>2026-04-05T09:40:17.000Z</time></trkpt>
<trkpt lat="42.183598" lon="23.588571"><ele>2732.3</ele><time>2026-04-05T09:40:18.000Z</time></trkpt>
<trkpt lat="42.183597" lon="23.588571"><ele>2732.5</ele><time>2026-04-05T09:40:19.000Z</time></trkpt>
<trkpt lat="42.183596" lon="23.588571"><ele>2732.5</ele><time>2026-04-05T09:40:20.000Z</time></trkpt>
<trkpt lat="42.183595" lon="23.58857"><ele>2732.5</ele><time>2026-04-05T09:40:21.000Z</time></trkpt>
<trkpt lat="42.183593" lon="23.588568"><ele>2732.5</ele><time>2026-04-05T09:40:22.000Z</time></trkpt>
<trkpt lat="42.183592" lon="23.588565"><ele>2732.5</ele><time>2026-04-05T09:40:23.000Z</time></trkpt>
<trkpt lat="42.183592" lon="23.588563"><ele>2733</ele><time>2026-04-05T09:40:24.000Z</time></trkpt>
<trkpt lat="42.183592" lon="23.58856"><ele>2733</ele><time>2026-04-05T09:40:25.000Z</time></trkpt>
<trkpt lat="42.183591" lon="23.588559"><ele>2733</ele><time>2026-04-05T09:40:26.000Z</time></trkpt>
<trkpt lat="42.183591" lon="23.588558"><ele>2733</ele><time>2026-04-05T09:40:27.000Z</time></trkpt>
<trkpt lat="42.183591" lon="23.588556"><ele>2733</ele><time>2026-04-05T09:40:28.000Z</time></trkpt>
<trkpt lat="42.183591" lon="23.588555"><ele>2733.4</ele><time>2026-04-05T09:40:29.000Z</time></trkpt>
<trkpt lat="42.183591" lon="23.588554"><ele>2733.4</ele><time>2026-04-05T09:40:30.000Z</time></trkpt>
<trkpt lat="42.183591" lon="23.588553"><ele>2733.4</ele><time>2026-04-05T09:40:31.000Z</time></trkpt>
<trkpt lat="42.183591" lon="23.588553"><ele>2733.4</ele><time>2026-04-05T09:40:32.000Z</time></trkpt>
<trkpt lat="42.183591" lon="23.588553"><ele>2733.4</ele><time>2026-04-05T09:40:33.000Z</time></trkpt>
<trkpt lat="42.183591" lon="23.588553"><ele>2733.4</ele><time>2026-04-05T09:40:34.000Z</time></trkpt>
<trkpt lat="42.183591" lon="23.588553"><ele>2733.4</ele><time>2026-04-05T09:40:35.000Z</time></trkpt>
<trkpt lat="42.183591" lon="23.588553"><ele>2733.4</ele><time>2026-04-05T09:40:36.000Z</time></trkpt>
<trkpt lat="42.183591" lon="23.588553"><ele>2733.4</ele><time>2026-04-05T09:40:37.000Z</time></trkpt>
<trkpt lat="42.183591" lon="23.588553"><ele>2733.4</ele><time>2026-04-05T09:40:38.000Z</time></trkpt>
<trkpt lat="42.183591" lon="23.588553"><ele>2733.4</ele><time>2026-04-05T09:40:39.000Z</time></trkpt>
<trkpt lat="42.183591" lon="23.588553"><ele>2733.4</ele><time>2026-04-05T09:40:40.000Z</time></trkpt>
<trkpt lat="42.183591" lon="23.588553"><ele>2733.4</ele><time>2026-04-05T09:40:41.000Z</time></trkpt>
<trkpt lat="42.183591" lon="23.588553"><ele>2733.4</ele><time>2026-04-05T09:40:42.000Z</time></trkpt>
<trkpt lat="42.183591" lon="23.588553"><ele>2733.4</ele><time>2026-04-05T09:40:43.000Z</time></trkpt>
<trkpt lat="42.18359" lon="23.588553"><ele>2733.4</ele><time>2026-04-05T09:40:44.000Z</time></trkpt>
<trkpt lat="42.18359" lon="23.588553"><ele>2733.4</ele><time>2026-04-05T09:40:45.000Z</time></trkpt>
<trkpt lat="42.183589" lon="23.588552"><ele>2733.4</ele><time>2026-04-05T09:40:46.000Z</time></trkpt>
<trkpt lat="42.183589" lon="23.588552"><ele>2733.4</ele><time>2026-04-05T09:40:47.000Z</time></trkpt>
<trkpt lat="42.183589" lon="23.588552"><ele>2733.4</ele><time>2026-04-05T09:40:48.000Z</time></trkpt>
<trkpt lat="42.183588" lon="23.588553"><ele>2733.4</ele><time>2026-04-05T09:40:49.000Z</time></trkpt>
<trkpt lat="42.183588" lon="23.588554"><ele>2733.4</ele><time>2026-04-05T09:40:50.000Z</time></trkpt>
<trkpt lat="42.183587" lon="23.588556"><ele>2733.4</ele><time>2026-04-05T09:40:51.000Z</time></trkpt>
<trkpt lat="42.183587" lon="23.588558"><ele>2733.4</ele><time>2026-04-05T09:40:52.000Z</time></trkpt>
<trkpt lat="42.183588" lon="23.588559"><ele>2733.4</ele><time>2026-04-05T09:40:53.000Z</time></trkpt>
<trkpt lat="42.183589" lon="23.58856"><ele>2733.4</ele><time>2026-04-05T09:40:54.000Z</time></trkpt>
<trkpt lat="42.18359" lon="23.58856"><ele>2733.4</ele><time>2026-04-05T09:40:55.000Z</time></trkpt>
<trkpt lat="42.183591" lon="23.58856"><ele>2733.4</ele><time>2026-04-05T09:40:56.000Z</time></trkpt>
<trkpt lat="42.183592" lon="23.58856"><ele>2733.4</ele><time>2026-04-05T09:40:57.000Z</time></trkpt>
<trkpt lat="42.183593" lon="23.58856"><ele>2733.4</ele><time>2026-04-05T09:40:58.000Z</time></trkpt>
<trkpt lat="42.183593" lon="23.588561"><ele>2733.4</ele><time>2026-04-05T09:40:59.000Z</time></trkpt>
<trkpt lat="42.183593" lon="23.588561"><ele>2733.4</ele><time>2026-04-05T09:41:00.000Z</time></trkpt>
<trkpt lat="42.183593" lon="23.588562"><ele>2733.4</ele><time>2026-04-05T09:41:01.000Z</time></trkpt>
<trkpt lat="42.183592" lon="23.588563"><ele>2733.4</ele><time>2026-04-05T09:41:02.000Z</time></trkpt>
<trkpt lat="42.183592" lon="23.588563"><ele>2733.4</ele><time>2026-04-05T09:41:03.000Z</time></trkpt>
<trkpt lat="42.183591" lon="23.588563"><ele>2733.4</ele><time>2026-04-05T09:41:04.000Z</time></trkpt>
<trkpt lat="42.18359" lon="23.588563"><ele>2733.4</ele><time>2026-04-05T09:41:05.000Z</time></trkpt>
<trkpt lat="42.18359" lon="23.588564"><ele>2733.4</ele><time>2026-04-05T09:41:06.000Z</time></trkpt>
<trkpt lat="42.183591" lon="23.588564"><ele>2733.4</ele><time>2026-04-05T09:41:07.000Z</time></trkpt>
<trkpt lat="42.183591" lon="23.588565"><ele>2733.4</ele><time>2026-04-05T09:41:08.000Z</time></trkpt>
<trkpt lat="42.183591" lon="23.588566"><ele>2733.4</ele><time>2026-04-05T09:41:09.000Z</time></trkpt>
<trkpt lat="42.183591" lon="23.588565"><ele>2733.4</ele><time>2026-04-05T09:41:10.000Z</time></trkpt>
<trkpt lat="42.18359" lon="23.588562"><ele>2733.4</ele><time>2026-04-05T09:41:11.000Z</time></trkpt>
<trkpt lat="42.183589" lon="23.588557"><ele>2733.4</ele><time>2026-04-05T09:41:12.000Z</time></trkpt>
<trkpt lat="42.183588" lon="23.588551"><ele>2733.4</ele><time>2026-04-05T09:41:13.000Z</time></trkpt>
<trkpt lat="42.183586" lon="23.588543"><ele>2733.3</ele><time>2026-04-05T09:41:14.000Z</time></trkpt>
<trkpt lat="42.183585" lon="23.588536"><ele>2733.3</ele><time>2026-04-05T09:41:15.000Z</time></trkpt>
<trkpt lat="42.183583" lon="23.588531"><ele>2733.3</ele><time>2026-04-05T09:41:16.000Z</time></trkpt>
<trkpt lat="42.183582" lon="23.588527"><ele>2733.3</ele><time>2026-04-05T09:41:17.000Z</time></trkpt>
<trkpt lat="42.183582" lon="23.588523"><ele>2733.3</ele><time>2026-04-05T09:41:18.000Z</time></trkpt>
<trkpt lat="42.183581" lon="23.588521"><ele>2733.4</ele><time>2026-04-05T09:41:19.000Z</time></trkpt>
<trkpt lat="42.183581" lon="23.588521"><ele>2733.4</ele><time>2026-04-05T09:41:20.000Z</time></trkpt>
<trkpt lat="42.183581" lon="23.58852"><ele>2733.4</ele><time>2026-04-05T09:41:21.000Z</time></trkpt>
<trkpt lat="42.18358" lon="23.58852"><ele>2733.4</ele><time>2026-04-05T09:41:22.000Z</time></trkpt>
<trkpt lat="42.18358" lon="23.588521"><ele>2733.4</ele><time>2026-04-05T09:41:23.000Z</time></trkpt>
<trkpt lat="42.183579" lon="23.588521"><ele>2733.6</ele><time>2026-04-05T09:41:24.000Z</time></trkpt>
<trkpt lat="42.183579" lon="23.588521"><ele>2733.6</ele><time>2026-04-05T09:41:25.000Z</time></trkpt>
<trkpt lat="42.183578" lon="23.588522"><ele>2733.6</ele><time>2026-04-05T09:41:26.000Z</time></trkpt>
<trkpt lat="42.183578" lon="23.588522"><ele>2733.6</ele><time>2026-04-05T09:41:27.000Z</time></trkpt>
<trkpt lat="42.183578" lon="23.588522"><ele>2733.6</ele><time>2026-04-05T09:41:28.000Z</time></trkpt>
<trkpt lat="42.183578" lon="23.588521"><ele>2734.2</ele><time>2026-04-05T09:41:29.000Z</time></trkpt>
<trkpt lat="42.183578" lon="23.588521"><ele>2734.2</ele><time>2026-04-05T09:41:30.000Z</time></trkpt>
<trkpt lat="42.183578" lon="23.588521"><ele>2734.2</ele><time>2026-04-05T09:41:31.000Z</time></trkpt>
<trkpt lat="42.183579" lon="23.58852"><ele>2734.2</ele><time>2026-04-05T09:41:32.000Z</time></trkpt>
<trkpt lat="42.183579" lon="23.58852"><ele>2734.2</ele><time>2026-04-05T09:41:33.000Z</time></trkpt>
<trkpt lat="42.183579" lon="23.58852"><ele>2734.4</ele><time>2026-04-05T09:41:34.000Z</time></trkpt>
<trkpt lat="42.183579" lon="23.58852"><ele>2734.4</ele><time>2026-04-05T09:41:35.000Z</time></trkpt>
<trkpt lat="42.183579" lon="23.58852"><ele>2734.4</ele><time>2026-04-05T09:41:36.000Z</time></trkpt>
<trkpt lat="42.183579" lon="23.58852"><ele>2734.4</ele><time>2026-04-05T09:41:37.000Z</time></trkpt>
<trkpt lat="42.183579" lon="23.58852"><ele>2734.4</ele><time>2026-04-05T09:41:38.000Z</time></trkpt>
<trkpt lat="42.183578" lon="23.588519"><ele>2734.4</ele><time>2026-04-05T09:41:39.000Z</time></trkpt>
<trkpt lat="42.183578" lon="23.588519"><ele>2734.4</ele><time>2026-04-05T09:41:40.000Z</time></trkpt>
<trkpt lat="42.183579" lon="23.588518"><ele>2734.4</ele><time>2026-04-05T09:41:41.000Z</time></trkpt>
<trkpt lat="42.183579" lon="23.588518"><ele>2734.4</ele><time>2026-04-05T09:41:42.000Z</time></trkpt>
<trkpt lat="42.18358" lon="23.588518"><ele>2734.4</ele><time>2026-04-05T09:41:43.000Z</time></trkpt>
<trkpt lat="42.183582" lon="23.588519"><ele>2734.2</ele><time>2026-04-05T09:41:44.000Z</time></trkpt>
<trkpt lat="42.183583" lon="23.588519"><ele>2734.2</ele><time>2026-04-05T09:41:45.000Z</time></trkpt>
<trkpt lat="42.183584" lon="23.58852"><ele>2734.2</ele><time>2026-04-05T09:41:46.000Z</time></trkpt>
<trkpt lat="42.183584" lon="23.588521"><ele>2734.2</ele><time>2026-04-05T09:41:47.000Z</time></trkpt>
<trkpt lat="42.183584" lon="23.588521"><ele>2734.2</ele><time>2026-04-05T09:41:48.000Z</time></trkpt>
<trkpt lat="42.183584" lon="23.588521"><ele>2734.1</ele><time>2026-04-05T09:41:49.000Z</time></trkpt>
<trkpt lat="42.183584" lon="23.588522"><ele>2734.1</ele><time>2026-04-05T09:41:50.000Z</time></trkpt>
<trkpt lat="42.183584" lon="23.588522"><ele>2734.1</ele><time>2026-04-05T09:41:51.000Z</time></trkpt>
<trkpt lat="42.183584" lon="23.588522"><ele>2734.1</ele><time>2026-04-05T09:41:52.000Z</time></trkpt>
<trkpt lat="42.183584" lon="23.588522"><ele>2734.1</ele><time>2026-04-05T09:41:53.000Z</time></trkpt>
<trkpt lat="42.183584" lon="23.588522"><ele>2734.4</ele><time>2026-04-05T09:41:54.000Z</time></trkpt>
<trkpt lat="42.183584" lon="23.588522"><ele>2734.4</ele><time>2026-04-05T09:41:55.000Z</time></trkpt>
<trkpt lat="42.183584" lon="23.588522"><ele>2734.4</ele><time>2026-04-05T09:41:56.000Z</time></trkpt>
<trkpt lat="42.183584" lon="23.588522"><ele>2734.4</ele><time>2026-04-05T09:41:57.000Z</time></trkpt>
<trkpt lat="42.183584" lon="23.588522"><ele>2734.4</ele><time>2026-04-05T09:41:58.000Z</time></trkpt>
<trkpt lat="42.183584" lon="23.588522"><ele>2734.7</ele><time>2026-04-05T09:41:59.000Z</time></trkpt>
<trkpt lat="42.183584" lon="23.588521"><ele>2734.7</ele><time>2026-04-05T09:42:00.000Z</time></trkpt>
<trkpt lat="42.183584" lon="23.588521"><ele>2734.7</ele><time>2026-04-05T09:42:01.000Z</time></trkpt>
<trkpt lat="42.183584" lon="23.588521"><ele>2734.7</ele><time>2026-04-05T09:42:02.000Z</time></trkpt>
<trkpt lat="42.183584" lon="23.588521"><ele>2734.7</ele><time>2026-04-05T09:42:03.000Z</time></trkpt>
<trkpt lat="42.183584" lon="23.588521"><ele>2734.8</ele><time>2026-04-05T09:42:04.000Z</time></trkpt>
<trkpt lat="42.183584" lon="23.588522"><ele>2734.8</ele><time>2026-04-05T09:42:05.000Z</time></trkpt>
<trkpt lat="42.183584" lon="23.588522"><ele>2734.8</ele><time>2026-04-05T09:42:06.000Z</time></trkpt>
<trkpt lat="42.183584" lon="23.588522"><ele>2734.8</ele><time>2026-04-05T09:42:07.000Z</time></trkpt>
<trkpt lat="42.183584" lon="23.588522"><ele>2734.8</ele><time>2026-04-05T09:42:08.000Z</time></trkpt>
<trkpt lat="42.183584" lon="23.588522"><ele>2734.9</ele><time>2026-04-05T09:42:09.000Z</time></trkpt>
<trkpt lat="42.183584" lon="23.588522"><ele>2734.9</ele><time>2026-04-05T09:42:10.000Z</time></trkpt>
<trkpt lat="42.183584" lon="23.588522"><ele>2734.9</ele><time>2026-04-05T09:42:11.000Z</time></trkpt>
<trkpt lat="42.183584" lon="23.588522"><ele>2734.9</ele><time>2026-04-05T09:42:12.000Z</time></trkpt>
<trkpt lat="42.183585" lon="23.588522"><ele>2734.9</ele><time>2026-04-05T09:42:13.000Z</time></trkpt>
<trkpt lat="42.183585" lon="23.588522"><ele>2734.7</ele><time>2026-04-05T09:42:14.000Z</time></trkpt>
<trkpt lat="42.183586" lon="23.588521"><ele>2734.7</ele><time>2026-04-05T09:42:15.000Z</time></trkpt>
<trkpt lat="42.183586" lon="23.588521"><ele>2734.7</ele><time>2026-04-05T09:42:16.000Z</time></trkpt>
<trkpt lat="42.183586" lon="23.588521"><ele>2734.7</ele><time>2026-04-05T09:42:17.000Z</time></trkpt>
<trkpt lat="42.183587" lon="23.588521"><ele>2734.7</ele><time>2026-04-05T09:42:18.000Z</time></trkpt>
<trkpt lat="42.183587" lon="23.588521"><ele>2734.6</ele><time>2026-04-05T09:42:19.000Z</time></trkpt>
<trkpt lat="42.183587" lon="23.588521"><ele>2734.6</ele><time>2026-04-05T09:42:20.000Z</time></trkpt>
<trkpt lat="42.183587" lon="23.588521"><ele>2734.6</ele><time>2026-04-05T09:42:21.000Z</time></trkpt>
<trkpt lat="42.183588" lon="23.58852"><ele>2734.6</ele><time>2026-04-05T09:42:22.000Z</time></trkpt>
<trkpt lat="42.183587" lon="23.58852"><ele>2734.6</ele><time>2026-04-05T09:42:23.000Z</time></trkpt>
<trkpt lat="42.183587" lon="23.58852"><ele>2734.7</ele><time>2026-04-05T09:42:24.000Z</time></trkpt>
<trkpt lat="42.183587" lon="23.58852"><ele>2734.7</ele><time>2026-04-05T09:42:25.000Z</time></trkpt>
<trkpt lat="42.183587" lon="23.58852"><ele>2734.7</ele><time>2026-04-05T09:42:26.000Z</time></trkpt>
<trkpt lat="42.183587" lon="23.588521"><ele>2734.7</ele><time>2026-04-05T09:42:27.000Z</time></trkpt>
<trkpt lat="42.183587" lon="23.588521"><ele>2734.7</ele><time>2026-04-05T09:42:28.000Z</time></trkpt>
<trkpt lat="42.183587" lon="23.588521"><ele>2734.9</ele><time>2026-04-05T09:42:29.000Z</time></trkpt>
<trkpt lat="42.183587" lon="23.58852"><ele>2734.9</ele><time>2026-04-05T09:42:30.000Z</time></trkpt>
<trkpt lat="42.183586" lon="23.58852"><ele>2734.9</ele><time>2026-04-05T09:42:31.000Z</time></trkpt>
<trkpt lat="42.183586" lon="23.588519"><ele>2734.9</ele><time>2026-04-05T09:42:32.000Z</time></trkpt>
<trkpt lat="42.183585" lon="23.588518"><ele>2734.9</ele><time>2026-04-05T09:42:33.000Z</time></trkpt>
<trkpt lat="42.183585" lon="23.588519"><ele>2735</ele><time>2026-04-05T09:42:34.000Z</time></trkpt>
<trkpt lat="42.183585" lon="23.588519"><ele>2735</ele><time>2026-04-05T09:42:35.000Z</time></trkpt>
<trkpt lat="42.183586" lon="23.588519"><ele>2735</ele><time>2026-04-05T09:42:36.000Z</time></trkpt>
<trkpt lat="42.183586" lon="23.588519"><ele>2735</ele><time>2026-04-05T09:42:37.000Z</time></trkpt>
<trkpt lat="42.183586" lon="23.588519"><ele>2735</ele><time>2026-04-05T09:42:38.000Z</time></trkpt>
<trkpt lat="42.183586" lon="23.588518"><ele>2734.8</ele><time>2026-04-05T09:42:39.000Z</time></trkpt>
<trkpt lat="42.183587" lon="23.588518"><ele>2734.8</ele><time>2026-04-05T09:42:40.000Z</time></trkpt>
<trkpt lat="42.183586" lon="23.588518"><ele>2734.8</ele><time>2026-04-05T09:42:41.000Z</time></trkpt>
<trkpt lat="42.183586" lon="23.588517"><ele>2734.8</ele><time>2026-04-05T09:42:42.000Z</time></trkpt>
<trkpt lat="42.183587" lon="23.588517"><ele>2734.8</ele><time>2026-04-05T09:42:43.000Z</time></trkpt>
<trkpt lat="42.183587" lon="23.588517"><ele>2734.4</ele><time>2026-04-05T09:42:44.000Z</time></trkpt>
<trkpt lat="42.183586" lon="23.588516"><ele>2734.4</ele><time>2026-04-05T09:42:45.000Z</time></trkpt>
<trkpt lat="42.183585" lon="23.588515"><ele>2734.4</ele><time>2026-04-05T09:42:46.000Z</time></trkpt>
<trkpt lat="42.183583" lon="23.588515"><ele>2734.4</ele><time>2026-04-05T09:42:47.000Z</time></trkpt>
<trkpt lat="42.183582" lon="23.588515"><ele>2734.4</ele><time>2026-04-05T09:42:48.000Z</time></trkpt>
<trkpt lat="42.18358" lon="23.588516"><ele>2734.4</ele><time>2026-04-05T09:42:49.000Z</time></trkpt>
<trkpt lat="42.183579" lon="23.588518"><ele>2734.4</ele><time>2026-04-05T09:42:50.000Z</time></trkpt>
<trkpt lat="42.183578" lon="23.588521"><ele>2734.4</ele><time>2026-04-05T09:42:51.000Z</time></trkpt>
<trkpt lat="42.183577" lon="23.588523"><ele>2734.4</ele><time>2026-04-05T09:42:52.000Z</time></trkpt>
<trkpt lat="42.183576" lon="23.588525"><ele>2734.4</ele><time>2026-04-05T09:42:53.000Z</time></trkpt>
<trkpt lat="42.183576" lon="23.588526"><ele>2734.3</ele><time>2026-04-05T09:42:54.000Z</time></trkpt>
<trkpt lat="42.183575" lon="23.588527"><ele>2734.3</ele><time>2026-04-05T09:42:55.000Z</time></trkpt>
<trkpt lat="42.183576" lon="23.588527"><ele>2734.3</ele><time>2026-04-05T09:42:56.000Z</time></trkpt>
<trkpt lat="42.183577" lon="23.588527"><ele>2734.3</ele><time>2026-04-05T09:42:57.000Z</time></trkpt>
<trkpt lat="42.183578" lon="23.588527"><ele>2734.3</ele><time>2026-04-05T09:42:58.000Z</time></trkpt>
<trkpt lat="42.183579" lon="23.588526"><ele>2734.3</ele><time>2026-04-05T09:42:59.000Z</time></trkpt>
<trkpt lat="42.18358" lon="23.588526"><ele>2734.3</ele><time>2026-04-05T09:43:00.000Z</time></trkpt>
<trkpt lat="42.18358" lon="23.588525"><ele>2734.3</ele><time>2026-04-05T09:43:01.000Z</time></trkpt>
<trkpt lat="42.18358" lon="23.588525"><ele>2734.3</ele><time>2026-04-05T09:43:02.000Z</time></trkpt>
<trkpt lat="42.18358" lon="23.588524"><ele>2734.3</ele><time>2026-04-05T09:43:03.000Z</time></trkpt>
<trkpt lat="42.183581" lon="23.588524"><ele>2734.4</ele><time>2026-04-05T09:43:04.000Z</time></trkpt>
<trkpt lat="42.183581" lon="23.588524"><ele>2734.4</ele><time>2026-04-05T09:43:05.000Z</time></trkpt>
<trkpt lat="42.183581" lon="23.588524"><ele>2734.4</ele><time>2026-04-05T09:43:06.000Z</time></trkpt>
<trkpt lat="42.183581" lon="23.588523"><ele>2734.4</ele><time>2026-04-05T09:43:07.000Z</time></trkpt>
<trkpt lat="42.18358" lon="23.588523"><ele>2734.4</ele><time>2026-04-05T09:43:08.000Z</time></trkpt>
<trkpt lat="42.18358" lon="23.588523"><ele>2734.5</ele><time>2026-04-05T09:43:09.000Z</time></trkpt>
<trkpt lat="42.18358" lon="23.588523"><ele>2734.5</ele><time>2026-04-05T09:43:10.000Z</time></trkpt>
<trkpt lat="42.18358" lon="23.588522"><ele>2734.5</ele><time>2026-04-05T09:43:11.000Z</time></trkpt>
<trkpt lat="42.18358" lon="23.588522"><ele>2734.5</ele><time>2026-04-05T09:43:12.000Z</time></trkpt>
<trkpt lat="42.18358" lon="23.588522"><ele>2734.5</ele><time>2026-04-05T09:43:13.000Z</time></trkpt>
<trkpt lat="42.18358" lon="23.588522"><ele>2734.5</ele><time>2026-04-05T09:43:14.000Z</time></trkpt>
<trkpt lat="42.18358" lon="23.588522"><ele>2734.5</ele><time>2026-04-05T09:43:15.000Z</time></trkpt>
<trkpt lat="42.18358" lon="23.588522"><ele>2734.5</ele><time>2026-04-05T09:43:16.000Z</time></trkpt>
<trkpt lat="42.18358" lon="23.588522"><ele>2734.5</ele><time>2026-04-05T09:43:17.000Z</time></trkpt>
<trkpt lat="42.18358" lon="23.588522"><ele>2734.5</ele><time>2026-04-05T09:43:18.000Z</time></trkpt>
<trkpt lat="42.18358" lon="23.588521"><ele>2734.5</ele><time>2026-04-05T09:43:19.000Z</time></trkpt>
<trkpt lat="42.18358" lon="23.58852"><ele>2734.5</ele><time>2026-04-05T09:43:20.000Z</time></trkpt>
<trkpt lat="42.18358" lon="23.588519"><ele>2734.5</ele><time>2026-04-05T09:43:21.000Z</time></trkpt>
<trkpt lat="42.18358" lon="23.588519"><ele>2734.5</ele><time>2026-04-05T09:43:22.000Z</time></trkpt>
<trkpt lat="42.18358" lon="23.588519"><ele>2734.5</ele><time>2026-04-05T09:43:23.000Z</time></trkpt>
<trkpt lat="42.18358" lon="23.588519"><ele>2734.7</ele><time>2026-04-05T09:43:24.000Z</time></trkpt>
<trkpt lat="42.18358" lon="23.588519"><ele>2734.7</ele><time>2026-04-05T09:43:25.000Z</time></trkpt>
<trkpt lat="42.18358" lon="23.588519"><ele>2734.7</ele><time>2026-04-05T09:43:26.000Z</time></trkpt>
<trkpt lat="42.18358" lon="23.588519"><ele>2734.7</ele><time>2026-04-05T09:43:27.000Z</time></trkpt>
<trkpt lat="42.18358" lon="23.588519"><ele>2734.7</ele><time>2026-04-05T09:43:28.000Z</time></trkpt>
<trkpt lat="42.18358" lon="23.588519"><ele>2734.6</ele><time>2026-04-05T09:43:29.000Z</time></trkpt>
<trkpt lat="42.18358" lon="23.588519"><ele>2734.6</ele><time>2026-04-05T09:43:30.000Z</time></trkpt>
<trkpt lat="42.18358" lon="23.588519"><ele>2734.6</ele><time>2026-04-05T09:43:31.000Z</time></trkpt>
<trkpt lat="42.18358" lon="23.588519"><ele>2734.6</ele><time>2026-04-05T09:43:32.000Z</time></trkpt>
<trkpt lat="42.18358" lon="23.588519"><ele>2734.6</ele><time>2026-04-05T09:43:33.000Z</time></trkpt>
<trkpt lat="42.18358" lon="23.588519"><ele>2734.5</ele><time>2026-04-05T09:43:34.000Z</time></trkpt>
<trkpt lat="42.183581" lon="23.588519"><ele>2734.5</ele><time>2026-04-05T09:43:35.000Z</time></trkpt>
<trkpt lat="42.183583" lon="23.58852"><ele>2734.5</ele><time>2026-04-05T09:43:36.000Z</time></trkpt>
<trkpt lat="42.183585" lon="23.588521"><ele>2734.5</ele><time>2026-04-05T09:43:37.000Z</time></trkpt>
<trkpt lat="42.183588" lon="23.588523"><ele>2734.5</ele><time>2026-04-05T09:43:38.000Z</time></trkpt>
<trkpt lat="42.183592" lon="23.588526"><ele>2734.2</ele><time>2026-04-05T09:43:39.000Z</time></trkpt>
<trkpt lat="42.183596" lon="23.58853"><ele>2734.2</ele><time>2026-04-05T09:43:40.000Z</time></trkpt>
<trkpt lat="42.1836" lon="23.588536"><ele>2734.2</ele><time>2026-04-05T09:43:41.000Z</time></trkpt>
<trkpt lat="42.183604" lon="23.588542"><ele>2734.2</ele><time>2026-04-05T09:43:42.000Z</time></trkpt>
<trkpt lat="42.183606" lon="23.588548"><ele>2734.2</ele><time>2026-04-05T09:43:43.000Z</time></trkpt>
<trkpt lat="42.183607" lon="23.588554"><ele>2734</ele><time>2026-04-05T09:43:44.000Z</time></trkpt>
<trkpt lat="42.183606" lon="23.588559"><ele>2734</ele><time>2026-04-05T09:43:45.000Z</time></trkpt>
<trkpt lat="42.183604" lon="23.588564"><ele>2734</ele><time>2026-04-05T09:43:46.000Z</time></trkpt>
<trkpt lat="42.183601" lon="23.58857"><ele>2734</ele><time>2026-04-05T09:43:47.000Z</time></trkpt>
<trkpt lat="42.183597" lon="23.588575"><ele>2734</ele><time>2026-04-05T09:43:48.000Z</time></trkpt>
<trkpt lat="42.183594" lon="23.588579"><ele>2733.9</ele><time>2026-04-05T09:43:49.000Z</time></trkpt>
<trkpt lat="42.183591" lon="23.588581"><ele>2733.9</ele><time>2026-04-05T09:43:50.000Z</time></trkpt>
<trkpt lat="42.183589" lon="23.588583"><ele>2733.9</ele><time>2026-04-05T09:43:51.000Z</time></trkpt>
<trkpt lat="42.183588" lon="23.588582"><ele>2733.9</ele><time>2026-04-05T09:43:52.000Z</time></trkpt>
<trkpt lat="42.183587" lon="23.588582"><ele>2733.9</ele><time>2026-04-05T09:43:53.000Z</time></trkpt>
<trkpt lat="42.183587" lon="23.588582"><ele>2733.5</ele><time>2026-04-05T09:43:54.000Z</time></trkpt>
<trkpt lat="42.183587" lon="23.588581"><ele>2733.5</ele><time>2026-04-05T09:43:55.000Z</time></trkpt>
<trkpt lat="42.183587" lon="23.588582"><ele>2733.5</ele><time>2026-04-05T09:43:56.000Z</time></trkpt>
<trkpt lat="42.183587" lon="23.588582"><ele>2733.5</ele><time>2026-04-05T09:43:57.000Z</time></trkpt>
<trkpt lat="42.183587" lon="23.588582"><ele>2733.5</ele><time>2026-04-05T09:43:58.000Z</time></trkpt>
<trkpt lat="42.183587" lon="23.588582"><ele>2733</ele><time>2026-04-05T09:43:59.000Z</time></trkpt>
<trkpt lat="42.183586" lon="23.588583"><ele>2733</ele><time>2026-04-05T09:44:00.000Z</time></trkpt>
<trkpt lat="42.183586" lon="23.588583"><ele>2733</ele><time>2026-04-05T09:44:01.000Z</time></trkpt>
<trkpt lat="42.183585" lon="23.588583"><ele>2733</ele><time>2026-04-05T09:44:02.000Z</time></trkpt>
<trkpt lat="42.183584" lon="23.588585"><ele>2733</ele><time>2026-04-05T09:44:03.000Z</time></trkpt>
<trkpt lat="42.183583" lon="23.588586"><ele>2732.9</ele><time>2026-04-05T09:44:04.000Z</time></trkpt>
<trkpt lat="42.183583" lon="23.588586"><ele>2732.9</ele><time>2026-04-05T09:44:05.000Z</time></trkpt>
<trkpt lat="42.183583" lon="23.588587"><ele>2732.9</ele><time>2026-04-05T09:44:06.000Z</time></trkpt>
<trkpt lat="42.183582" lon="23.588588"><ele>2732.9</ele><time>2026-04-05T09:44:07.000Z</time></trkpt>
<trkpt lat="42.183582" lon="23.588588"><ele>2732.9</ele><time>2026-04-05T09:44:08.000Z</time></trkpt>
<trkpt lat="42.183582" lon="23.588588"><ele>2732.8</ele><time>2026-04-05T09:44:09.000Z</time></trkpt>
<trkpt lat="42.183581" lon="23.588588"><ele>2732.8</ele><time>2026-04-05T09:44:10.000Z</time></trkpt>
<trkpt lat="42.183578" lon="23.588588"><ele>2732.8</ele><time>2026-04-05T09:44:11.000Z</time></trkpt>
<trkpt lat="42.183576" lon="23.58859"><ele>2732.8</ele><time>2026-04-05T09:44:12.000Z</time></trkpt>
<trkpt lat="42.183573" lon="23.588591"><ele>2732.8</ele><time>2026-04-05T09:44:13.000Z</time></trkpt>
<trkpt lat="42.18357" lon="23.588593"><ele>2732.8</ele><time>2026-04-05T09:44:14.000Z</time></trkpt>
<trkpt lat="42.183568" lon="23.588596"><ele>2732.8</ele><time>2026-04-05T09:44:15.000Z</time></trkpt>
<trkpt lat="42.183567" lon="23.588598"><ele>2732.8</ele><time>2026-04-05T09:44:16.000Z</time></trkpt>
<trkpt lat="42.183566" lon="23.588598"><ele>2732.8</ele><time>2026-04-05T09:44:17.000Z</time></trkpt>
<trkpt lat="42.183565" lon="23.588598"><ele>2732.8</ele><time>2026-04-05T09:44:18.000Z</time></trkpt>
<trkpt lat="42.183565" lon="23.588596"><ele>2732.7</ele><time>2026-04-05T09:44:19.000Z</time></trkpt>
<trkpt lat="42.183566" lon="23.588594"><ele>2732.7</ele><time>2026-04-05T09:44:20.000Z</time></trkpt>
<trkpt lat="42.183566" lon="23.588592"><ele>2732.7</ele><time>2026-04-05T09:44:21.000Z</time></trkpt>
<trkpt lat="42.183566" lon="23.588592"><ele>2732.7</ele><time>2026-04-05T09:44:22.000Z</time></trkpt>
<trkpt lat="42.183567" lon="23.588592"><ele>2732.7</ele><time>2026-04-05T09:44:23.000Z</time></trkpt>
<trkpt lat="42.183567" lon="23.588592"><ele>2732.4</ele><time>2026-04-05T09:44:24.000Z</time></trkpt>
<trkpt lat="42.183567" lon="23.588592"><ele>2732.4</ele><time>2026-04-05T09:44:25.000Z</time></trkpt>
<trkpt lat="42.183567" lon="23.588592"><ele>2732.4</ele><time>2026-04-05T09:44:26.000Z</time></trkpt>
<trkpt lat="42.183567" lon="23.588591"><ele>2732.4</ele><time>2026-04-05T09:44:27.000Z</time></trkpt>
<trkpt lat="42.183567" lon="23.58859"><ele>2732.4</ele><time>2026-04-05T09:44:28.000Z</time></trkpt>
<trkpt lat="42.183567" lon="23.58859"><ele>2732</ele><time>2026-04-05T09:44:29.000Z</time></trkpt>
<trkpt lat="42.183567" lon="23.588589"><ele>2732</ele><time>2026-04-05T09:44:30.000Z</time></trkpt>
<trkpt lat="42.183567" lon="23.588588"><ele>2732</ele><time>2026-04-05T09:44:31.000Z</time></trkpt>
<trkpt lat="42.183567" lon="23.588587"><ele>2732</ele><time>2026-04-05T09:44:32.000Z</time></trkpt>
<trkpt lat="42.183568" lon="23.588586"><ele>2732</ele><time>2026-04-05T09:44:33.000Z</time></trkpt>
<trkpt lat="42.183568" lon="23.588584"><ele>2731.8</ele><time>2026-04-05T09:44:34.000Z</time></trkpt>
<trkpt lat="42.183567" lon="23.588584"><ele>2731.8</ele><time>2026-04-05T09:44:35.000Z</time></trkpt>
<trkpt lat="42.183567" lon="23.588584"><ele>2731.8</ele><time>2026-04-05T09:44:36.000Z</time></trkpt>
<trkpt lat="42.183567" lon="23.588584"><ele>2731.8</ele><time>2026-04-05T09:44:37.000Z</time></trkpt>
<trkpt lat="42.183567" lon="23.588584"><ele>2731.8</ele><time>2026-04-05T09:44:38.000Z</time></trkpt>
<trkpt lat="42.183567" lon="23.588584"><ele>2731.6</ele><time>2026-04-05T09:44:39.000Z</time></trkpt>
<trkpt lat="42.183567" lon="23.588584"><ele>2731.6</ele><time>2026-04-05T09:44:40.000Z</time></trkpt>
<trkpt lat="42.183568" lon="23.588584"><ele>2731.6</ele><time>2026-04-05T09:44:41.000Z</time></trkpt>
<trkpt lat="42.183568" lon="23.588584"><ele>2731.6</ele><time>2026-04-05T09:44:42.000Z</time></trkpt>
<trkpt lat="42.183567" lon="23.588583"><ele>2731.6</ele><time>2026-04-05T09:44:43.000Z</time></trkpt>
<trkpt lat="42.183568" lon="23.588583"><ele>2731.8</ele><time>2026-04-05T09:44:44.000Z</time></trkpt>
<trkpt lat="42.183569" lon="23.588583"><ele>2731.8</ele><time>2026-04-05T09:44:45.000Z</time></trkpt>
<trkpt lat="42.18357" lon="23.588585"><ele>2731.8</ele><time>2026-04-05T09:44:46.000Z</time></trkpt>
<trkpt lat="42.183573" lon="23.588587"><ele>2731.8</ele><time>2026-04-05T09:44:47.000Z</time></trkpt>
<trkpt lat="42.183577" lon="23.588589"><ele>2731.8</ele><time>2026-04-05T09:44:48.000Z</time></trkpt>
<trkpt lat="42.183579" lon="23.588591"><ele>2731.9</ele><time>2026-04-05T09:44:49.000Z</time></trkpt>
<trkpt lat="42.18358" lon="23.588593"><ele>2731.9</ele><time>2026-04-05T09:44:50.000Z</time></trkpt>
<trkpt lat="42.183582" lon="23.588594"><ele>2731.9</ele><time>2026-04-05T09:44:51.000Z</time></trkpt>
<trkpt lat="42.183582" lon="23.588594"><ele>2731.9</ele><time>2026-04-05T09:44:52.000Z</time></trkpt>
<trkpt lat="42.183582" lon="23.588594"><ele>2731.9</ele><time>2026-04-05T09:44:53.000Z</time></trkpt>
<trkpt lat="42.183582" lon="23.588594"><ele>2732.3</ele><time>2026-04-05T09:44:54.000Z</time></trkpt>
<trkpt lat="42.183582" lon="23.588594"><ele>2732.3</ele><time>2026-04-05T09:44:55.000Z</time></trkpt>
<trkpt lat="42.183582" lon="23.588594"><ele>2732.3</ele><time>2026-04-05T09:44:56.000Z</time></trkpt>
<trkpt lat="42.183582" lon="23.588594"><ele>2732.3</ele><time>2026-04-05T09:44:57.000Z</time></trkpt>
<trkpt lat="42.183582" lon="23.588594"><ele>2732.3</ele><time>2026-04-05T09:44:58.000Z</time></trkpt>
<trkpt lat="42.183582" lon="23.588594"><ele>2732.5</ele><time>2026-04-05T09:44:59.000Z</time></trkpt>
<trkpt lat="42.183582" lon="23.588593"><ele>2732.5</ele><time>2026-04-05T09:45:00.000Z</time></trkpt>
<trkpt lat="42.183582" lon="23.588593"><ele>2732.5</ele><time>2026-04-05T09:45:01.000Z</time></trkpt>
<trkpt lat="42.183581" lon="23.588592"><ele>2732.5</ele><time>2026-04-05T09:45:02.000Z</time></trkpt>
<trkpt lat="42.183581" lon="23.58859"><ele>2732.5</ele><time>2026-04-05T09:45:03.000Z</time></trkpt>
<trkpt lat="42.183582" lon="23.588587"><ele>2732.6</ele><time>2026-04-05T09:45:04.000Z</time></trkpt>
<trkpt lat="42.183584" lon="23.588584"><ele>2732.6</ele><time>2026-04-05T09:45:05.000Z</time></trkpt>
<trkpt lat="42.183587" lon="23.58858"><ele>2732.6</ele><time>2026-04-05T09:45:06.000Z</time></trkpt>
<trkpt lat="42.18359" lon="23.588575"><ele>2732.6</ele><time>2026-04-05T09:45:07.000Z</time></trkpt>
<trkpt lat="42.183593" lon="23.58857"><ele>2732.6</ele><time>2026-04-05T09:45:08.000Z</time></trkpt>
<trkpt lat="42.183595" lon="23.588564"><ele>2732.7</ele><time>2026-04-05T09:45:09.000Z</time></trkpt>
<trkpt lat="42.183597" lon="23.588556"><ele>2732.7</ele><time>2026-04-05T09:45:10.000Z</time></trkpt>
<trkpt lat="42.183598" lon="23.588549"><ele>2732.7</ele><time>2026-04-05T09:45:11.000Z</time></trkpt>
<trkpt lat="42.183599" lon="23.588541"><ele>2732.7</ele><time>2026-04-05T09:45:12.000Z</time></trkpt>
<trkpt lat="42.183599" lon="23.588535"><ele>2732.7</ele><time>2026-04-05T09:45:13.000Z</time></trkpt>
<trkpt lat="42.183599" lon="23.58853"><ele>2732.9</ele><time>2026-04-05T09:45:14.000Z</time></trkpt>
<trkpt lat="42.183598" lon="23.588526"><ele>2732.9</ele><time>2026-04-05T09:45:15.000Z</time></trkpt>
<trkpt lat="42.183596" lon="23.588525"><ele>2732.9</ele><time>2026-04-05T09:45:16.000Z</time></trkpt>
<trkpt lat="42.183595" lon="23.588524"><ele>2732.9</ele><time>2026-04-05T09:45:17.000Z</time></trkpt>
<trkpt lat="42.183594" lon="23.588524"><ele>2732.9</ele><time>2026-04-05T09:45:18.000Z</time></trkpt>
<trkpt lat="42.183594" lon="23.588525"><ele>2733.1</ele><time>2026-04-05T09:45:19.000Z</time></trkpt>
<trkpt lat="42.183595" lon="23.588525"><ele>2733.1</ele><time>2026-04-05T09:45:20.000Z</time></trkpt>
<trkpt lat="42.183595" lon="23.588525"><ele>2733.1</ele><time>2026-04-05T09:45:21.000Z</time></trkpt>
<trkpt lat="42.183595" lon="23.588526"><ele>2733.1</ele><time>2026-04-05T09:45:22.000Z</time></trkpt>
<trkpt lat="42.183595" lon="23.588527"><ele>2733.1</ele><time>2026-04-05T09:45:23.000Z</time></trkpt>
<trkpt lat="42.183595" lon="23.588528"><ele>2733.5</ele><time>2026-04-05T09:45:24.000Z</time></trkpt>
<trkpt lat="42.183596" lon="23.588529"><ele>2733.5</ele><time>2026-04-05T09:45:25.000Z</time></trkpt>
<trkpt lat="42.183596" lon="23.58853"><ele>2733.5</ele><time>2026-04-05T09:45:26.000Z</time></trkpt>
<trkpt lat="42.183596" lon="23.58853"><ele>2733.5</ele><time>2026-04-05T09:45:27.000Z</time></trkpt>
<trkpt lat="42.183596" lon="23.588531"><ele>2733.5</ele><time>2026-04-05T09:45:28.000Z</time></trkpt>
<trkpt lat="42.183595" lon="23.588531"><ele>2733.8</ele><time>2026-04-05T09:45:29.000Z</time></trkpt>
<trkpt lat="42.183594" lon="23.58853"><ele>2733.8</ele><time>2026-04-05T09:45:30.000Z</time></trkpt>
<trkpt lat="42.183593" lon="23.588527"><ele>2733.8</ele><time>2026-04-05T09:45:31.000Z</time></trkpt>
<trkpt lat="42.183591" lon="23.588526"><ele>2733.8</ele><time>2026-04-05T09:45:32.000Z</time></trkpt>
<trkpt lat="42.18359" lon="23.588525"><ele>2733.8</ele><time>2026-04-05T09:45:33.000Z</time></trkpt>
<trkpt lat="42.183589" lon="23.588524"><ele>2733.8</ele><time>2026-04-05T09:45:34.000Z</time></trkpt>
<trkpt lat="42.183588" lon="23.588524"><ele>2733.8</ele><time>2026-04-05T09:45:35.000Z</time></trkpt>
<trkpt lat="42.183586" lon="23.588526"><ele>2733.8</ele><time>2026-04-05T09:45:36.000Z</time></trkpt>
<trkpt lat="42.183585" lon="23.588527"><ele>2733.8</ele><time>2026-04-05T09:45:37.000Z</time></trkpt>
<trkpt lat="42.183584" lon="23.588527"><ele>2733.8</ele><time>2026-04-05T09:45:38.000Z</time></trkpt>
<trkpt lat="42.183584" lon="23.588528"><ele>2733.8</ele><time>2026-04-05T09:45:39.000Z</time></trkpt>
<trkpt lat="42.183583" lon="23.588528"><ele>2733.8</ele><time>2026-04-05T09:45:40.000Z</time></trkpt>
<trkpt lat="42.183583" lon="23.588527"><ele>2733.8</ele><time>2026-04-05T09:45:41.000Z</time></trkpt>
<trkpt lat="42.183583" lon="23.588527"><ele>2733.8</ele><time>2026-04-05T09:45:42.000Z</time></trkpt>
<trkpt lat="42.183582" lon="23.588526"><ele>2733.8</ele><time>2026-04-05T09:45:43.000Z</time></trkpt>
<trkpt lat="42.183582" lon="23.588525"><ele>2733.7</ele><time>2026-04-05T09:45:44.000Z</time></trkpt>
<trkpt lat="42.183582" lon="23.588525"><ele>2733.7</ele><time>2026-04-05T09:45:45.000Z</time></trkpt>
<trkpt lat="42.183583" lon="23.588525"><ele>2733.7</ele><time>2026-04-05T09:45:46.000Z</time></trkpt>
<trkpt lat="42.183584" lon="23.588525"><ele>2733.7</ele><time>2026-04-05T09:45:47.000Z</time></trkpt>
<trkpt lat="42.183584" lon="23.588525"><ele>2733.7</ele><time>2026-04-05T09:45:48.000Z</time></trkpt>
<trkpt lat="42.183584" lon="23.588525"><ele>2733.7</ele><time>2026-04-05T09:45:49.000Z</time></trkpt>
<trkpt lat="42.183583" lon="23.588525"><ele>2733.7</ele><time>2026-04-05T09:45:50.000Z</time></trkpt>
<trkpt lat="42.183581" lon="23.588525"><ele>2733.7</ele><time>2026-04-05T09:45:51.000Z</time></trkpt>
<trkpt lat="42.18358" lon="23.588526"><ele>2733.7</ele><time>2026-04-05T09:45:52.000Z</time></trkpt>
<trkpt lat="42.183579" lon="23.588525"><ele>2733.7</ele><time>2026-04-05T09:45:53.000Z</time></trkpt>
<trkpt lat="42.183578" lon="23.588526"><ele>2733.9</ele><time>2026-04-05T09:45:54.000Z</time></trkpt>
<trkpt lat="42.183578" lon="23.588525"><ele>2733.9</ele><time>2026-04-05T09:45:55.000Z</time></trkpt>
<trkpt lat="42.183578" lon="23.588525"><ele>2733.9</ele><time>2026-04-05T09:45:56.000Z</time></trkpt>
<trkpt lat="42.183579" lon="23.588524"><ele>2733.9</ele><time>2026-04-05T09:45:57.000Z</time></trkpt>
<trkpt lat="42.183579" lon="23.588524"><ele>2733.9</ele><time>2026-04-05T09:45:58.000Z</time></trkpt>
<trkpt lat="42.18358" lon="23.588524"><ele>2734.1</ele><time>2026-04-05T09:45:59.000Z</time></trkpt>
<trkpt lat="42.183581" lon="23.588524"><ele>2734.1</ele><time>2026-04-05T09:46:00.000Z</time></trkpt>
<trkpt lat="42.183583" lon="23.588524"><ele>2734.1</ele><time>2026-04-05T09:46:01.000Z</time></trkpt>
<trkpt lat="42.183585" lon="23.588523"><ele>2734.1</ele><time>2026-04-05T09:46:02.000Z</time></trkpt>
<trkpt lat="42.183588" lon="23.588523"><ele>2734.1</ele><time>2026-04-05T09:46:03.000Z</time></trkpt>
<trkpt lat="42.183592" lon="23.588524"><ele>2734.1</ele><time>2026-04-05T09:46:04.000Z</time></trkpt>
<trkpt lat="42.183596" lon="23.588524"><ele>2734.1</ele><time>2026-04-05T09:46:05.000Z</time></trkpt>
<trkpt lat="42.183598" lon="23.588526"><ele>2734.1</ele><time>2026-04-05T09:46:06.000Z</time></trkpt>
<trkpt lat="42.183598" lon="23.588528"><ele>2734.1</ele><time>2026-04-05T09:46:07.000Z</time></trkpt>
<trkpt lat="42.183595" lon="23.588529"><ele>2734.1</ele><time>2026-04-05T09:46:08.000Z</time></trkpt>
<trkpt lat="42.183591" lon="23.58853"><ele>2734.1</ele><time>2026-04-05T09:46:09.000Z</time></trkpt>
<trkpt lat="42.183587" lon="23.588531"><ele>2734.1</ele><time>2026-04-05T09:46:10.000Z</time></trkpt>
<trkpt lat="42.183585" lon="23.588533"><ele>2734.1</ele><time>2026-04-05T09:46:11.000Z</time></trkpt>
<trkpt lat="42.183584" lon="23.588532"><ele>2734.1</ele><time>2026-04-05T09:46:12.000Z</time></trkpt>
<trkpt lat="42.183583" lon="23.588533"><ele>2734.1</ele><time>2026-04-05T09:46:13.000Z</time></trkpt>
<trkpt lat="42.183584" lon="23.588535"><ele>2734.1</ele><time>2026-04-05T09:46:14.000Z</time></trkpt>
<trkpt lat="42.183583" lon="23.588535"><ele>2734.1</ele><time>2026-04-05T09:46:15.000Z</time></trkpt>
<trkpt lat="42.183582" lon="23.588535"><ele>2734.1</ele><time>2026-04-05T09:46:16.000Z</time></trkpt>
<trkpt lat="42.18358" lon="23.588536"><ele>2734.1</ele><time>2026-04-05T09:46:17.000Z</time></trkpt>
<trkpt lat="42.183579" lon="23.588536"><ele>2734.1</ele><time>2026-04-05T09:46:18.000Z</time></trkpt>
<trkpt lat="42.183577" lon="23.588536"><ele>2734.1</ele><time>2026-04-05T09:46:19.000Z</time></trkpt>
<trkpt lat="42.183576" lon="23.588536"><ele>2734.1</ele><time>2026-04-05T09:46:20.000Z</time></trkpt>
<trkpt lat="42.183576" lon="23.588537"><ele>2734.1</ele><time>2026-04-05T09:46:21.000Z</time></trkpt>
<trkpt lat="42.183577" lon="23.588537"><ele>2734.1</ele><time>2026-04-05T09:46:22.000Z</time></trkpt>
<trkpt lat="42.183577" lon="23.588538"><ele>2734.1</ele><time>2026-04-05T09:46:23.000Z</time></trkpt>
<trkpt lat="42.183577" lon="23.588538"><ele>2734.4</ele><time>2026-04-05T09:46:24.000Z</time></trkpt>
<trkpt lat="42.183577" lon="23.588538"><ele>2734.4</ele><time>2026-04-05T09:46:25.000Z</time></trkpt>
<trkpt lat="42.183577" lon="23.588538"><ele>2734.4</ele><time>2026-04-05T09:46:26.000Z</time></trkpt>
<trkpt lat="42.183577" lon="23.588537"><ele>2734.4</ele><time>2026-04-05T09:46:27.000Z</time></trkpt>
<trkpt lat="42.183576" lon="23.588537"><ele>2734.4</ele><time>2026-04-05T09:46:28.000Z</time></trkpt>
<trkpt lat="42.183576" lon="23.588536"><ele>2734.6</ele><time>2026-04-05T09:46:29.000Z</time></trkpt>
<trkpt lat="42.183576" lon="23.588536"><ele>2734.6</ele><time>2026-04-05T09:46:30.000Z</time></trkpt>
<trkpt lat="42.183576" lon="23.588536"><ele>2734.6</ele><time>2026-04-05T09:46:31.000Z</time></trkpt>
<trkpt lat="42.183576" lon="23.588536"><ele>2734.6</ele><time>2026-04-05T09:46:32.000Z</time></trkpt>
<trkpt lat="42.183576" lon="23.588536"><ele>2734.6</ele><time>2026-04-05T09:46:33.000Z</time></trkpt>
<trkpt lat="42.183576" lon="23.588536"><ele>2734.6</ele><time>2026-04-05T09:46:34.000Z</time></trkpt>
<trkpt lat="42.183577" lon="23.588536"><ele>2734.6</ele><time>2026-04-05T09:46:35.000Z</time></trkpt>
<trkpt lat="42.183578" lon="23.588535"><ele>2734.6</ele><time>2026-04-05T09:46:36.000Z</time></trkpt>
<trkpt lat="42.183579" lon="23.588535"><ele>2734.6</ele><time>2026-04-05T09:46:37.000Z</time></trkpt>
<trkpt lat="42.183581" lon="23.588534"><ele>2734.6</ele><time>2026-04-05T09:46:38.000Z</time></trkpt>
<trkpt lat="42.183583" lon="23.588534"><ele>2734.2</ele><time>2026-04-05T09:46:39.000Z</time></trkpt>
<trkpt lat="42.183584" lon="23.588532"><ele>2734.2</ele><time>2026-04-05T09:46:40.000Z</time></trkpt>
<trkpt lat="42.183585" lon="23.588531"><ele>2734.2</ele><time>2026-04-05T09:46:41.000Z</time></trkpt>
<trkpt lat="42.183585" lon="23.588531"><ele>2734.2</ele><time>2026-04-05T09:46:42.000Z</time></trkpt>
<trkpt lat="42.183584" lon="23.58853"><ele>2734.2</ele><time>2026-04-05T09:46:43.000Z</time></trkpt>
<trkpt lat="42.183583" lon="23.588529"><ele>2733.7</ele><time>2026-04-05T09:46:44.000Z</time></trkpt>
<trkpt lat="42.183582" lon="23.58853"><ele>2733.7</ele><time>2026-04-05T09:46:45.000Z</time></trkpt>
<trkpt lat="42.183582" lon="23.588531"><ele>2733.7</ele><time>2026-04-05T09:46:46.000Z</time></trkpt>
<trkpt lat="42.183581" lon="23.588531"><ele>2733.7</ele><time>2026-04-05T09:46:47.000Z</time></trkpt>
<trkpt lat="42.183581" lon="23.588532"><ele>2733.7</ele><time>2026-04-05T09:46:48.000Z</time></trkpt>
<trkpt lat="42.183581" lon="23.588534"><ele>2733.6</ele><time>2026-04-05T09:46:49.000Z</time></trkpt>
<trkpt lat="42.18358" lon="23.588534"><ele>2733.6</ele><time>2026-04-05T09:46:50.000Z</time></trkpt>
<trkpt lat="42.18358" lon="23.588535"><ele>2733.6</ele><time>2026-04-05T09:46:51.000Z</time></trkpt>
<trkpt lat="42.18358" lon="23.588535"><ele>2733.6</ele><time>2026-04-05T09:46:52.000Z</time></trkpt>
<trkpt lat="42.183579" lon="23.588535"><ele>2733.6</ele><time>2026-04-05T09:46:53.000Z</time></trkpt>
<trkpt lat="42.183579" lon="23.588535"><ele>2733.5</ele><time>2026-04-05T09:46:54.000Z</time></trkpt>
<trkpt lat="42.183579" lon="23.588535"><ele>2733.5</ele><time>2026-04-05T09:46:55.000Z</time></trkpt>
<trkpt lat="42.183579" lon="23.588534"><ele>2733.5</ele><time>2026-04-05T09:46:56.000Z</time></trkpt>
<trkpt lat="42.183579" lon="23.588534"><ele>2733.5</ele><time>2026-04-05T09:46:57.000Z</time></trkpt>
<trkpt lat="42.183579" lon="23.588534"><ele>2733.5</ele><time>2026-04-05T09:46:58.000Z</time></trkpt>
<trkpt lat="42.183579" lon="23.588533"><ele>2733.7</ele><time>2026-04-05T09:46:59.000Z</time></trkpt>
<trkpt lat="42.183579" lon="23.588533"><ele>2733.7</ele><time>2026-04-05T09:47:00.000Z</time></trkpt>
<trkpt lat="42.183579" lon="23.588533"><ele>2733.7</ele><time>2026-04-05T09:47:01.000Z</time></trkpt>
<trkpt lat="42.183579" lon="23.588533"><ele>2733.7</ele><time>2026-04-05T09:47:02.000Z</time></trkpt>
<trkpt lat="42.183579" lon="23.588533"><ele>2733.7</ele><time>2026-04-05T09:47:03.000Z</time></trkpt>
<trkpt lat="42.183579" lon="23.588533"><ele>2733.8</ele><time>2026-04-05T09:47:04.000Z</time></trkpt>
<trkpt lat="42.183579" lon="23.588533"><ele>2733.8</ele><time>2026-04-05T09:47:05.000Z</time></trkpt>
<trkpt lat="42.183579" lon="23.588533"><ele>2733.8</ele><time>2026-04-05T09:47:06.000Z</time></trkpt>
<trkpt lat="42.183579" lon="23.588533"><ele>2733.8</ele><time>2026-04-05T09:47:07.000Z</time></trkpt>
<trkpt lat="42.183579" lon="23.588533"><ele>2733.8</ele><time>2026-04-05T09:47:08.000Z</time></trkpt>
<trkpt lat="42.183579" lon="23.588533"><ele>2733.8</ele><time>2026-04-05T09:47:09.000Z</time></trkpt>
<trkpt lat="42.18358" lon="23.588533"><ele>2733.8</ele><time>2026-04-05T09:47:10.000Z</time></trkpt>
<trkpt lat="42.18358" lon="23.588532"><ele>2733.8</ele><time>2026-04-05T09:47:11.000Z</time></trkpt>
<trkpt lat="42.18358" lon="23.588531"><ele>2733.8</ele><time>2026-04-05T09:47:12.000Z</time></trkpt>
<trkpt lat="42.18358" lon="23.58853"><ele>2733.8</ele><time>2026-04-05T09:47:13.000Z</time></trkpt>
<trkpt lat="42.18358" lon="23.588529"><ele>2733.9</ele><time>2026-04-05T09:47:14.000Z</time></trkpt>
<trkpt lat="42.183579" lon="23.588527"><ele>2733.9</ele><time>2026-04-05T09:47:15.000Z</time></trkpt>
<trkpt lat="42.183579" lon="23.588527"><ele>2733.9</ele><time>2026-04-05T09:47:16.000Z</time></trkpt>
<trkpt lat="42.183579" lon="23.588526"><ele>2733.9</ele><time>2026-04-05T09:47:17.000Z</time></trkpt>
<trkpt lat="42.183579" lon="23.588525"><ele>2733.9</ele><time>2026-04-05T09:47:18.000Z</time></trkpt>
<trkpt lat="42.183579" lon="23.588525"><ele>2734</ele><time>2026-04-05T09:47:19.000Z</time></trkpt>
<trkpt lat="42.18358" lon="23.588525"><ele>2734</ele><time>2026-04-05T09:47:20.000Z</time></trkpt>
<trkpt lat="42.18358" lon="23.588524"><ele>2734</ele><time>2026-04-05T09:47:21.000Z</time></trkpt>
<trkpt lat="42.183581" lon="23.588524"><ele>2734</ele><time>2026-04-05T09:47:22.000Z</time></trkpt>
<trkpt lat="42.183581" lon="23.588525"><ele>2734</ele><time>2026-04-05T09:47:23.000Z</time></trkpt>
<trkpt lat="42.183581" lon="23.588525"><ele>2734</ele><time>2026-04-05T09:47:24.000Z</time></trkpt>
<trkpt lat="42.183581" lon="23.588525"><ele>2734</ele><time>2026-04-05T09:47:25.000Z</time></trkpt>
<trkpt lat="42.183581" lon="23.588525"><ele>2734</ele><time>2026-04-05T09:47:26.000Z</time></trkpt>
<trkpt lat="42.183581" lon="23.588526"><ele>2734</ele><time>2026-04-05T09:47:27.000Z</time></trkpt>
<trkpt lat="42.183581" lon="23.588526"><ele>2734</ele><time>2026-04-05T09:47:28.000Z</time></trkpt>
<trkpt lat="42.183582" lon="23.588526"><ele>2733.9</ele><time>2026-04-05T09:47:29.000Z</time></trkpt>
<trkpt lat="42.183582" lon="23.588527"><ele>2733.9</ele><time>2026-04-05T09:47:30.000Z</time></trkpt>
<trkpt lat="42.183582" lon="23.588528"><ele>2733.9</ele><time>2026-04-05T09:47:31.000Z</time></trkpt>
<trkpt lat="42.183581" lon="23.588528"><ele>2733.9</ele><time>2026-04-05T09:47:32.000Z</time></trkpt>
<trkpt lat="42.183581" lon="23.588528"><ele>2733.9</ele><time>2026-04-05T09:47:33.000Z</time></trkpt>
<trkpt lat="42.183581" lon="23.588528"><ele>2733.9</ele><time>2026-04-05T09:47:34.000Z</time></trkpt>
<trkpt lat="42.183579" lon="23.588527"><ele>2733.9</ele><time>2026-04-05T09:47:35.000Z</time></trkpt>
<trkpt lat="42.183577" lon="23.588526"><ele>2733.9</ele><time>2026-04-05T09:47:36.000Z</time></trkpt>
<trkpt lat="42.183574" lon="23.588524"><ele>2733.9</ele><time>2026-04-05T09:47:37.000Z</time></trkpt>
<trkpt lat="42.18357" lon="23.588519"><ele>2733.9</ele><time>2026-04-05T09:47:38.000Z</time></trkpt>
<trkpt lat="42.183564" lon="23.588514"><ele>2733.9</ele><time>2026-04-05T09:47:39.000Z</time></trkpt>
<trkpt lat="42.183559" lon="23.588508"><ele>2733.9</ele><time>2026-04-05T09:47:40.000Z</time></trkpt>
<trkpt lat="42.183553" lon="23.588501"><ele>2733.9</ele><time>2026-04-05T09:47:41.000Z</time></trkpt>
<trkpt lat="42.183548" lon="23.588495"><ele>2733.9</ele><time>2026-04-05T09:47:42.000Z</time></trkpt>
<trkpt lat="42.183544" lon="23.588491"><ele>2733.9</ele><time>2026-04-05T09:47:43.000Z</time></trkpt>
<trkpt lat="42.183538" lon="23.588489"><ele>2734</ele><time>2026-04-05T09:47:44.000Z</time></trkpt>
<trkpt lat="42.183533" lon="23.588488"><ele>2734</ele><time>2026-04-05T09:47:45.000Z</time></trkpt>
<trkpt lat="42.18353" lon="23.588489"><ele>2734</ele><time>2026-04-05T09:47:46.000Z</time></trkpt>
<trkpt lat="42.183527" lon="23.588489"><ele>2734</ele><time>2026-04-05T09:47:47.000Z</time></trkpt>
<trkpt lat="42.183525" lon="23.588488"><ele>2734</ele><time>2026-04-05T09:47:48.000Z</time></trkpt>
<trkpt lat="42.183525" lon="23.588488"><ele>2734</ele><time>2026-04-05T09:47:49.000Z</time></trkpt>
<trkpt lat="42.183526" lon="23.588487"><ele>2734</ele><time>2026-04-05T09:47:50.000Z</time></trkpt>
<trkpt lat="42.183527" lon="23.588486"><ele>2734</ele><time>2026-04-05T09:47:51.000Z</time></trkpt>
<trkpt lat="42.183529" lon="23.588484"><ele>2734</ele><time>2026-04-05T09:47:52.000Z</time></trkpt>
<trkpt lat="42.183531" lon="23.588483"><ele>2734</ele><time>2026-04-05T09:47:53.000Z</time></trkpt>
<trkpt lat="42.183532" lon="23.588483"><ele>2734.2</ele><time>2026-04-05T09:47:54.000Z</time></trkpt>
<trkpt lat="42.183534" lon="23.588482"><ele>2734.2</ele><time>2026-04-05T09:47:55.000Z</time></trkpt>
<trkpt lat="42.183535" lon="23.588484"><ele>2734.2</ele><time>2026-04-05T09:47:56.000Z</time></trkpt>
<trkpt lat="42.183536" lon="23.588487"><ele>2734.2</ele><time>2026-04-05T09:47:57.000Z</time></trkpt>
<trkpt lat="42.183538" lon="23.58849"><ele>2734.2</ele><time>2026-04-05T09:47:58.000Z</time></trkpt>
<trkpt lat="42.183541" lon="23.588493"><ele>2734.5</ele><time>2026-04-05T09:47:59.000Z</time></trkpt>
<trkpt lat="42.183545" lon="23.588497"><ele>2734.5</ele><time>2026-04-05T09:48:00.000Z</time></trkpt>
<trkpt lat="42.183549" lon="23.588501"><ele>2734.5</ele><time>2026-04-05T09:48:01.000Z</time></trkpt>
<trkpt lat="42.183551" lon="23.588505"><ele>2734.5</ele><time>2026-04-05T09:48:02.000Z</time></trkpt>
<trkpt lat="42.183553" lon="23.588508"><ele>2734.5</ele><time>2026-04-05T09:48:03.000Z</time></trkpt>
<trkpt lat="42.183555" lon="23.588511"><ele>2734.5</ele><time>2026-04-05T09:48:04.000Z</time></trkpt>
<trkpt lat="42.183557" lon="23.588511"><ele>2734.5</ele><time>2026-04-05T09:48:05.000Z</time></trkpt>
<trkpt lat="42.183559" lon="23.588511"><ele>2734.5</ele><time>2026-04-05T09:48:06.000Z</time></trkpt>
<trkpt lat="42.18356" lon="23.588509"><ele>2734.5</ele><time>2026-04-05T09:48:07.000Z</time></trkpt>
<trkpt lat="42.183562" lon="23.588506"><ele>2734.5</ele><time>2026-04-05T09:48:08.000Z</time></trkpt>
<trkpt lat="42.183562" lon="23.588504"><ele>2734.6</ele><time>2026-04-05T09:48:09.000Z</time></trkpt>
<trkpt lat="42.183562" lon="23.588503"><ele>2734.6</ele><time>2026-04-05T09:48:10.000Z</time></trkpt>
<trkpt lat="42.183562" lon="23.588501"><ele>2734.6</ele><time>2026-04-05T09:48:11.000Z</time></trkpt>
<trkpt lat="42.183562" lon="23.588499"><ele>2734.6</ele><time>2026-04-05T09:48:12.000Z</time></trkpt>
<trkpt lat="42.183562" lon="23.588497"><ele>2734.6</ele><time>2026-04-05T09:48:13.000Z</time></trkpt>
<trkpt lat="42.183562" lon="23.588495"><ele>2734.4</ele><time>2026-04-05T09:48:14.000Z</time></trkpt>
<trkpt lat="42.183562" lon="23.588494"><ele>2734.4</ele><time>2026-04-05T09:48:15.000Z</time></trkpt>
<trkpt lat="42.183562" lon="23.588494"><ele>2734.4</ele><time>2026-04-05T09:48:16.000Z</time></trkpt>
<trkpt lat="42.183562" lon="23.588495"><ele>2734.4</ele><time>2026-04-05T09:48:17.000Z</time></trkpt>
<trkpt lat="42.183561" lon="23.588496"><ele>2734.4</ele><time>2026-04-05T09:48:18.000Z</time></trkpt>
<trkpt lat="42.18356" lon="23.588498"><ele>2734.4</ele><time>2026-04-05T09:48:19.000Z</time></trkpt>
<trkpt lat="42.18356" lon="23.588498"><ele>2734.4</ele><time>2026-04-05T09:48:20.000Z</time></trkpt>
<trkpt lat="42.18356" lon="23.5885"><ele>2734.4</ele><time>2026-04-05T09:48:21.000Z</time></trkpt>
<trkpt lat="42.18356" lon="23.588502"><ele>2734.4</ele><time>2026-04-05T09:48:22.000Z</time></trkpt>
<trkpt lat="42.183562" lon="23.588506"><ele>2734.4</ele><time>2026-04-05T09:48:23.000Z</time></trkpt>
<trkpt lat="42.183566" lon="23.588509"><ele>2734.2</ele><time>2026-04-05T09:48:24.000Z</time></trkpt>
<trkpt lat="42.183569" lon="23.588512"><ele>2734.2</ele><time>2026-04-05T09:48:25.000Z</time></trkpt>
<trkpt lat="42.183573" lon="23.588513"><ele>2734.2</ele><time>2026-04-05T09:48:26.000Z</time></trkpt>
<trkpt lat="42.183577" lon="23.588512"><ele>2734.2</ele><time>2026-04-05T09:48:27.000Z</time></trkpt>
<trkpt lat="42.183579" lon="23.588509"><ele>2734.2</ele><time>2026-04-05T09:48:28.000Z</time></trkpt>
<trkpt lat="42.18358" lon="23.588508"><ele>2734</ele><time>2026-04-05T09:48:29.000Z</time></trkpt>
<trkpt lat="42.183581" lon="23.588505"><ele>2734</ele><time>2026-04-05T09:48:30.000Z</time></trkpt>
<trkpt lat="42.183581" lon="23.588502"><ele>2734</ele><time>2026-04-05T09:48:31.000Z</time></trkpt>
<trkpt lat="42.183582" lon="23.588501"><ele>2734</ele><time>2026-04-05T09:48:32.000Z</time></trkpt>
<trkpt lat="42.183582" lon="23.588499"><ele>2734</ele><time>2026-04-05T09:48:33.000Z</time></trkpt>
<trkpt lat="42.183583" lon="23.588497"><ele>2733.9</ele><time>2026-04-05T09:48:34.000Z</time></trkpt>
<trkpt lat="42.183584" lon="23.588496"><ele>2733.9</ele><time>2026-04-05T09:48:35.000Z</time></trkpt>
<trkpt lat="42.183584" lon="23.588494"><ele>2733.9</ele><time>2026-04-05T09:48:36.000Z</time></trkpt>
<trkpt lat="42.183585" lon="23.588493"><ele>2733.9</ele><time>2026-04-05T09:48:37.000Z</time></trkpt>
<trkpt lat="42.183586" lon="23.588491"><ele>2733.9</ele><time>2026-04-05T09:48:38.000Z</time></trkpt>
<trkpt lat="42.183587" lon="23.58849"><ele>2733.6</ele><time>2026-04-05T09:48:39.000Z</time></trkpt>
<trkpt lat="42.183587" lon="23.58849"><ele>2733.6</ele><time>2026-04-05T09:48:40.000Z</time></trkpt>
<trkpt lat="42.183588" lon="23.58849"><ele>2733.6</ele><time>2026-04-05T09:48:41.000Z</time></trkpt>
<trkpt lat="42.183589" lon="23.58849"><ele>2733.6</ele><time>2026-04-05T09:48:42.000Z</time></trkpt>
<trkpt lat="42.18359" lon="23.58849"><ele>2733.6</ele><time>2026-04-05T09:48:43.000Z</time></trkpt>
<trkpt lat="42.18359" lon="23.588491"><ele>2733.5</ele><time>2026-04-05T09:48:44.000Z</time></trkpt>
<trkpt lat="42.18359" lon="23.588491"><ele>2733.5</ele><time>2026-04-05T09:48:45.000Z</time></trkpt>
<trkpt lat="42.18359" lon="23.588492"><ele>2733.5</ele><time>2026-04-05T09:48:46.000Z</time></trkpt>
<trkpt lat="42.183591" lon="23.588494"><ele>2733.5</ele><time>2026-04-05T09:48:47.000Z</time></trkpt>
<trkpt lat="42.183591" lon="23.588495"><ele>2733.5</ele><time>2026-04-05T09:48:48.000Z</time></trkpt>
<trkpt lat="42.183591" lon="23.588497"><ele>2733.6</ele><time>2026-04-05T09:48:49.000Z</time></trkpt>
<trkpt lat="42.183591" lon="23.588499"><ele>2733.6</ele><time>2026-04-05T09:48:50.000Z</time></trkpt>
<trkpt lat="42.183591" lon="23.5885"><ele>2733.6</ele><time>2026-04-05T09:48:51.000Z</time></trkpt>
<trkpt lat="42.183591" lon="23.5885"><ele>2733.6</ele><time>2026-04-05T09:48:52.000Z</time></trkpt>
<trkpt lat="42.18359" lon="23.588501"><ele>2733.6</ele><time>2026-04-05T09:48:53.000Z</time></trkpt>
<trkpt lat="42.18359" lon="23.588502"><ele>2733.8</ele><time>2026-04-05T09:48:54.000Z</time></trkpt>
<trkpt lat="42.18359" lon="23.588502"><ele>2733.8</ele><time>2026-04-05T09:48:55.000Z</time></trkpt>
<trkpt lat="42.18359" lon="23.588503"><ele>2733.8</ele><time>2026-04-05T09:48:56.000Z</time></trkpt>
<trkpt lat="42.18359" lon="23.588504"><ele>2733.8</ele><time>2026-04-05T09:48:57.000Z</time></trkpt>
<trkpt lat="42.18359" lon="23.588505"><ele>2733.8</ele><time>2026-04-05T09:48:58.000Z</time></trkpt>
<trkpt lat="42.18359" lon="23.588506"><ele>2734</ele><time>2026-04-05T09:48:59.000Z</time></trkpt>
<trkpt lat="42.18359" lon="23.588507"><ele>2734</ele><time>2026-04-05T09:49:00.000Z</time></trkpt>
<trkpt lat="42.18359" lon="23.588507"><ele>2734</ele><time>2026-04-05T09:49:01.000Z</time></trkpt>
<trkpt lat="42.18359" lon="23.588508"><ele>2734</ele><time>2026-04-05T09:49:02.000Z</time></trkpt>
<trkpt lat="42.18359" lon="23.588508"><ele>2734</ele><time>2026-04-05T09:49:03.000Z</time></trkpt>
<trkpt lat="42.18359" lon="23.588508"><ele>2734.1</ele><time>2026-04-05T09:49:04.000Z</time></trkpt>
<trkpt lat="42.18359" lon="23.588508"><ele>2734.1</ele><time>2026-04-05T09:49:05.000Z</time></trkpt>
<trkpt lat="42.18359" lon="23.588508"><ele>2734.1</ele><time>2026-04-05T09:49:06.000Z</time></trkpt>
<trkpt lat="42.183589" lon="23.588509"><ele>2734.1</ele><time>2026-04-05T09:49:07.000Z</time></trkpt>
<trkpt lat="42.183588" lon="23.58851"><ele>2734.1</ele><time>2026-04-05T09:49:08.000Z</time></trkpt>
<trkpt lat="42.183587" lon="23.588512"><ele>2734.2</ele><time>2026-04-05T09:49:09.000Z</time></trkpt>
<trkpt lat="42.183585" lon="23.588515"><ele>2734.2</ele><time>2026-04-05T09:49:10.000Z</time></trkpt>
<trkpt lat="42.183583" lon="23.588519"><ele>2734.2</ele><time>2026-04-05T09:49:11.000Z</time></trkpt>
<trkpt lat="42.183582" lon="23.588521"><ele>2734.2</ele><time>2026-04-05T09:49:12.000Z</time></trkpt>
<trkpt lat="42.183581" lon="23.588524"><ele>2734.2</ele><time>2026-04-05T09:49:13.000Z</time></trkpt>
<trkpt lat="42.18358" lon="23.588525"><ele>2734.2</ele><time>2026-04-05T09:49:14.000Z</time></trkpt>
<trkpt lat="42.18358" lon="23.588526"><ele>2734.2</ele><time>2026-04-05T09:49:15.000Z</time></trkpt>
<trkpt lat="42.18358" lon="23.588526"><ele>2734.2</ele><time>2026-04-05T09:49:16.000Z</time></trkpt>
<trkpt lat="42.18358" lon="23.588527"><ele>2734.2</ele><time>2026-04-05T09:49:17.000Z</time></trkpt>
<trkpt lat="42.18358" lon="23.588527"><ele>2734.2</ele><time>2026-04-05T09:49:18.000Z</time></trkpt>
<trkpt lat="42.18358" lon="23.588527"><ele>2734.1</ele><time>2026-04-05T09:49:19.000Z</time></trkpt>
<trkpt lat="42.183579" lon="23.588527"><ele>2734.1</ele><time>2026-04-05T09:49:20.000Z</time></trkpt>
<trkpt lat="42.183579" lon="23.588526"><ele>2734.1</ele><time>2026-04-05T09:49:21.000Z</time></trkpt>
<trkpt lat="42.183579" lon="23.588526"><ele>2734.1</ele><time>2026-04-05T09:49:22.000Z</time></trkpt>
<trkpt lat="42.183578" lon="23.588524"><ele>2734.1</ele><time>2026-04-05T09:49:23.000Z</time></trkpt>
<trkpt lat="42.183578" lon="23.588523"><ele>2733.7</ele><time>2026-04-05T09:49:24.000Z</time></trkpt>
<trkpt lat="42.183577" lon="23.588522"><ele>2733.7</ele><time>2026-04-05T09:49:25.000Z</time></trkpt>
<trkpt lat="42.183577" lon="23.588521"><ele>2733.7</ele><time>2026-04-05T09:49:26.000Z</time></trkpt>
<trkpt lat="42.183576" lon="23.58852"><ele>2733.7</ele><time>2026-04-05T09:49:27.000Z</time></trkpt>
<trkpt lat="42.183576" lon="23.588519"><ele>2733.7</ele><time>2026-04-05T09:49:28.000Z</time></trkpt>
<trkpt lat="42.183576" lon="23.588519"><ele>2733.5</ele><time>2026-04-05T09:49:29.000Z</time></trkpt>
<trkpt lat="42.183576" lon="23.588519"><ele>2733.5</ele><time>2026-04-05T09:49:30.000Z</time></trkpt>
<trkpt lat="42.183575" lon="23.588518"><ele>2733.5</ele><time>2026-04-05T09:49:31.000Z</time></trkpt>
<trkpt lat="42.183575" lon="23.588518"><ele>2733.5</ele><time>2026-04-05T09:49:32.000Z</time></trkpt>
<trkpt lat="42.183575" lon="23.588518"><ele>2733.5</ele><time>2026-04-05T09:49:33.000Z</time></trkpt>
<trkpt lat="42.183575" lon="23.588518"><ele>2733.5</ele><time>2026-04-05T09:49:34.000Z</time></trkpt>
<trkpt lat="42.183575" lon="23.588518"><ele>2733.5</ele><time>2026-04-05T09:49:35.000Z</time></trkpt>
<trkpt lat="42.183575" lon="23.588518"><ele>2733.5</ele><time>2026-04-05T09:49:36.000Z</time></trkpt>
<trkpt lat="42.183575" lon="23.588518"><ele>2733.5</ele><time>2026-04-05T09:49:37.000Z</time></trkpt>
<trkpt lat="42.183575" lon="23.588518"><ele>2733.5</ele><time>2026-04-05T09:49:38.000Z</time></trkpt>
<trkpt lat="42.183575" lon="23.588518"><ele>2733.5</ele><time>2026-04-05T09:49:39.000Z</time></trkpt>
<trkpt lat="42.183575" lon="23.588518"><ele>2733.5</ele><time>2026-04-05T09:49:40.000Z</time></trkpt>
<trkpt lat="42.183575" lon="23.588518"><ele>2733.5</ele><time>2026-04-05T09:49:41.000Z</time></trkpt>
<trkpt lat="42.183575" lon="23.588518"><ele>2733.5</ele><time>2026-04-05T09:49:42.000Z</time></trkpt>
<trkpt lat="42.183577" lon="23.588519"><ele>2733.5</ele><time>2026-04-05T09:49:43.000Z</time></trkpt>
<trkpt lat="42.183579" lon="23.588521"><ele>2733.6</ele><time>2026-04-05T09:49:44.000Z</time></trkpt>
<trkpt lat="42.183583" lon="23.588523"><ele>2733.6</ele><time>2026-04-05T09:49:45.000Z</time></trkpt>
<trkpt lat="42.183587" lon="23.588526"><ele>2733.6</ele><time>2026-04-05T09:49:46.000Z</time></trkpt>
<trkpt lat="42.183593" lon="23.588531"><ele>2733.6</ele><time>2026-04-05T09:49:47.000Z</time></trkpt>
<trkpt lat="42.183598" lon="23.588537"><ele>2733.6</ele><time>2026-04-05T09:49:48.000Z</time></trkpt>
<trkpt lat="42.183601" lon="23.588543"><ele>2733.7</ele><time>2026-04-05T09:49:49.000Z</time></trkpt>
<trkpt lat="42.183603" lon="23.588546"><ele>2733.7</ele><time>2026-04-05T09:49:50.000Z</time></trkpt>
<trkpt lat="42.183605" lon="23.588546"><ele>2733.7</ele><time>2026-04-05T09:49:51.000Z</time></trkpt>
<trkpt lat="42.183604" lon="23.588544"><ele>2733.7</ele><time>2026-04-05T09:49:52.000Z</time></trkpt>
<trkpt lat="42.183602" lon="23.588538"><ele>2733.7</ele><time>2026-04-05T09:49:53.000Z</time></trkpt>
<trkpt lat="42.1836" lon="23.588531"><ele>2733.6</ele><time>2026-04-05T09:49:54.000Z</time></trkpt>
<trkpt lat="42.183596" lon="23.588524"><ele>2733.6</ele><time>2026-04-05T09:49:55.000Z</time></trkpt>
<trkpt lat="42.183592" lon="23.588518"><ele>2733.6</ele><time>2026-04-05T09:49:56.000Z</time></trkpt>
<trkpt lat="42.183589" lon="23.588513"><ele>2733.6</ele><time>2026-04-05T09:49:57.000Z</time></trkpt>
<trkpt lat="42.183587" lon="23.588507"><ele>2733.6</ele><time>2026-04-05T09:49:58.000Z</time></trkpt>
<trkpt lat="42.183586" lon="23.588504"><ele>2733.2</ele><time>2026-04-05T09:49:59.000Z</time></trkpt>
<trkpt lat="42.183586" lon="23.588501"><ele>2733.2</ele><time>2026-04-05T09:50:00.000Z</time></trkpt>
<trkpt lat="42.183587" lon="23.588501"><ele>2733.2</ele><time>2026-04-05T09:50:01.000Z</time></trkpt>
<trkpt lat="42.183588" lon="23.588501"><ele>2733.2</ele><time>2026-04-05T09:50:02.000Z</time></trkpt>
<trkpt lat="42.183589" lon="23.588502"><ele>2733.2</ele><time>2026-04-05T09:50:03.000Z</time></trkpt>
<trkpt lat="42.18359" lon="23.588504"><ele>2733.1</ele><time>2026-04-05T09:50:04.000Z</time></trkpt>
<trkpt lat="42.18359" lon="23.588505"><ele>2733.1</ele><time>2026-04-05T09:50:05.000Z</time></trkpt>
<trkpt lat="42.183589" lon="23.588505"><ele>2733.1</ele><time>2026-04-05T09:50:06.000Z</time></trkpt>
<trkpt lat="42.183589" lon="23.588505"><ele>2733.1</ele><time>2026-04-05T09:50:07.000Z</time></trkpt>
<trkpt lat="42.183589" lon="23.588504"><ele>2733.1</ele><time>2026-04-05T09:50:08.000Z</time></trkpt>
<trkpt lat="42.183588" lon="23.588504"><ele>2733.1</ele><time>2026-04-05T09:50:09.000Z</time></trkpt>
<trkpt lat="42.183588" lon="23.588504"><ele>2733.1</ele><time>2026-04-05T09:50:10.000Z</time></trkpt>
<trkpt lat="42.183588" lon="23.588504"><ele>2733.1</ele><time>2026-04-05T09:50:11.000Z</time></trkpt>
<trkpt lat="42.183588" lon="23.588504"><ele>2733.1</ele><time>2026-04-05T09:50:12.000Z</time></trkpt>
<trkpt lat="42.183588" lon="23.588504"><ele>2733.1</ele><time>2026-04-05T09:50:13.000Z</time></trkpt>
<trkpt lat="42.183588" lon="23.588504"><ele>2733.3</ele><time>2026-04-05T09:50:14.000Z</time></trkpt>
<trkpt lat="42.183588" lon="23.588504"><ele>2733.3</ele><time>2026-04-05T09:50:15.000Z</time></trkpt>
<trkpt lat="42.183588" lon="23.588503"><ele>2733.3</ele><time>2026-04-05T09:50:16.000Z</time></trkpt>
<trkpt lat="42.183588" lon="23.588503"><ele>2733.3</ele><time>2026-04-05T09:50:17.000Z</time></trkpt>
<trkpt lat="42.183587" lon="23.588503"><ele>2733.3</ele><time>2026-04-05T09:50:18.000Z</time></trkpt>
<trkpt lat="42.183587" lon="23.588503"><ele>2733.4</ele><time>2026-04-05T09:50:19.000Z</time></trkpt>
<trkpt lat="42.183587" lon="23.588503"><ele>2733.4</ele><time>2026-04-05T09:50:20.000Z</time></trkpt>
<trkpt lat="42.183587" lon="23.588503"><ele>2733.4</ele><time>2026-04-05T09:50:21.000Z</time></trkpt>
<trkpt lat="42.183587" lon="23.588503"><ele>2733.4</ele><time>2026-04-05T09:50:22.000Z</time></trkpt>
<trkpt lat="42.183587" lon="23.588503"><ele>2733.4</ele><time>2026-04-05T09:50:23.000Z</time></trkpt>
<trkpt lat="42.183587" lon="23.588503"><ele>2733.5</ele><time>2026-04-05T09:50:24.000Z</time></trkpt>
<trkpt lat="42.183587" lon="23.588503"><ele>2733.5</ele><time>2026-04-05T09:50:25.000Z</time></trkpt>
<trkpt lat="42.183586" lon="23.588502"><ele>2733.5</ele><time>2026-04-05T09:50:26.000Z</time></trkpt>
<trkpt lat="42.183585" lon="23.588501"><ele>2733.5</ele><time>2026-04-05T09:50:27.000Z</time></trkpt>
<trkpt lat="42.183583" lon="23.588499"><ele>2733.5</ele><time>2026-04-05T09:50:28.000Z</time></trkpt>
<trkpt lat="42.183581" lon="23.588497"><ele>2733.6</ele><time>2026-04-05T09:50:29.000Z</time></trkpt>
<trkpt lat="42.183578" lon="23.588495"><ele>2733.6</ele><time>2026-04-05T09:50:30.000Z</time></trkpt>
<trkpt lat="42.183577" lon="23.588494"><ele>2733.6</ele><time>2026-04-05T09:50:31.000Z</time></trkpt>
<trkpt lat="42.183576" lon="23.588494"><ele>2733.6</ele><time>2026-04-05T09:50:32.000Z</time></trkpt>
<trkpt lat="42.183575" lon="23.588494"><ele>2733.6</ele><time>2026-04-05T09:50:33.000Z</time></trkpt>
<trkpt lat="42.183575" lon="23.588495"><ele>2733.6</ele><time>2026-04-05T09:50:34.000Z</time></trkpt>
<trkpt lat="42.183575" lon="23.588495"><ele>2733.6</ele><time>2026-04-05T09:50:35.000Z</time></trkpt>
<trkpt lat="42.183575" lon="23.588495"><ele>2733.6</ele><time>2026-04-05T09:50:36.000Z</time></trkpt>
<trkpt lat="42.183575" lon="23.588495"><ele>2733.6</ele><time>2026-04-05T09:50:37.000Z</time></trkpt>
<trkpt lat="42.183575" lon="23.588495"><ele>2733.6</ele><time>2026-04-05T09:50:38.000Z</time></trkpt>
<trkpt lat="42.183575" lon="23.588495"><ele>2733.7</ele><time>2026-04-05T09:50:39.000Z</time></trkpt>
<trkpt lat="42.183575" lon="23.588495"><ele>2733.7</ele><time>2026-04-05T09:50:40.000Z</time></trkpt>
<trkpt lat="42.183575" lon="23.588495"><ele>2733.7</ele><time>2026-04-05T09:50:41.000Z</time></trkpt>
<trkpt lat="42.183575" lon="23.588495"><ele>2733.7</ele><time>2026-04-05T09:50:42.000Z</time></trkpt>
<trkpt lat="42.183575" lon="23.588495"><ele>2733.7</ele><time>2026-04-05T09:50:43.000Z</time></trkpt>
<trkpt lat="42.183575" lon="23.588495"><ele>2733.7</ele><time>2026-04-05T09:50:44.000Z</time></trkpt>
<trkpt lat="42.183575" lon="23.588495"><ele>2733.7</ele><time>2026-04-05T09:50:45.000Z</time></trkpt>
<trkpt lat="42.183575" lon="23.588495"><ele>2733.7</ele><time>2026-04-05T09:50:46.000Z</time></trkpt>
<trkpt lat="42.183575" lon="23.588495"><ele>2733.7</ele><time>2026-04-05T09:50:47.000Z</time></trkpt>
<trkpt lat="42.183575" lon="23.588495"><ele>2733.7</ele><time>2026-04-05T09:50:48.000Z</time></trkpt>
<trkpt lat="42.183575" lon="23.588495"><ele>2733.7</ele><time>2026-04-05T09:50:49.000Z</time></trkpt>
<trkpt lat="42.183575" lon="23.588495"><ele>2733.7</ele><time>2026-04-05T09:50:50.000Z</time></trkpt>
<trkpt lat="42.183575" lon="23.588496"><ele>2733.7</ele><time>2026-04-05T09:50:51.000Z</time></trkpt>
<trkpt lat="42.183575" lon="23.588496"><ele>2733.7</ele><time>2026-04-05T09:50:52.000Z</time></trkpt>
<trkpt lat="42.183576" lon="23.588496"><ele>2733.7</ele><time>2026-04-05T09:50:53.000Z</time></trkpt>
<trkpt lat="42.183576" lon="23.588496"><ele>2733.6</ele><time>2026-04-05T09:50:54.000Z</time></trkpt>
<trkpt lat="42.183576" lon="23.588496"><ele>2733.6</ele><time>2026-04-05T09:50:55.000Z</time></trkpt>
<trkpt lat="42.183576" lon="23.588496"><ele>2733.6</ele><time>2026-04-05T09:50:56.000Z</time></trkpt>
<trkpt lat="42.183576" lon="23.588496"><ele>2733.6</ele><time>2026-04-05T09:50:57.000Z</time></trkpt>
<trkpt lat="42.183576" lon="23.588496"><ele>2733.6</ele><time>2026-04-05T09:50:58.000Z</time></trkpt>
<trkpt lat="42.183576" lon="23.588496"><ele>2733.6</ele><time>2026-04-05T09:50:59.000Z</time></trkpt>
<trkpt lat="42.183576" lon="23.588496"><ele>2733.6</ele><time>2026-04-05T09:51:00.000Z</time></trkpt>
<trkpt lat="42.183576" lon="23.588496"><ele>2733.6</ele><time>2026-04-05T09:51:01.000Z</time></trkpt>
<trkpt lat="42.183575" lon="23.588496"><ele>2733.6</ele><time>2026-04-05T09:51:02.000Z</time></trkpt>
<trkpt lat="42.183575" lon="23.588496"><ele>2733.6</ele><time>2026-04-05T09:51:03.000Z</time></trkpt>
<trkpt lat="42.183575" lon="23.588496"><ele>2733.6</ele><time>2026-04-05T09:51:04.000Z</time></trkpt>
<trkpt lat="42.183575" lon="23.588496"><ele>2733.6</ele><time>2026-04-05T09:51:05.000Z</time></trkpt>
<trkpt lat="42.183575" lon="23.588496"><ele>2733.6</ele><time>2026-04-05T09:51:06.000Z</time></trkpt>
<trkpt lat="42.183575" lon="23.588496"><ele>2733.6</ele><time>2026-04-05T09:51:07.000Z</time></trkpt>
<trkpt lat="42.183575" lon="23.588496"><ele>2733.6</ele><time>2026-04-05T09:51:08.000Z</time></trkpt>
<trkpt lat="42.183575" lon="23.588496"><ele>2733.5</ele><time>2026-04-05T09:51:09.000Z</time></trkpt>
<trkpt lat="42.183574" lon="23.588495"><ele>2733.5</ele><time>2026-04-05T09:51:10.000Z</time></trkpt>
<trkpt lat="42.183574" lon="23.588495"><ele>2733.5</ele><time>2026-04-05T09:51:11.000Z</time></trkpt>
<trkpt lat="42.183574" lon="23.588495"><ele>2733.5</ele><time>2026-04-05T09:51:12.000Z</time></trkpt>
<trkpt lat="42.183574" lon="23.588495"><ele>2733.5</ele><time>2026-04-05T09:51:13.000Z</time></trkpt>
<trkpt lat="42.183575" lon="23.588495"><ele>2733.4</ele><time>2026-04-05T09:51:14.000Z</time></trkpt>
<trkpt lat="42.183575" lon="23.588495"><ele>2733.4</ele><time>2026-04-05T09:51:15.000Z</time></trkpt>
<trkpt lat="42.183576" lon="23.588495"><ele>2733.4</ele><time>2026-04-05T09:51:16.000Z</time></trkpt>
<trkpt lat="42.183576" lon="23.588495"><ele>2733.4</ele><time>2026-04-05T09:51:17.000Z</time></trkpt>
<trkpt lat="42.183577" lon="23.588495"><ele>2733.4</ele><time>2026-04-05T09:51:18.000Z</time></trkpt>
<trkpt lat="42.183577" lon="23.588495"><ele>2733.4</ele><time>2026-04-05T09:51:19.000Z</time></trkpt>
<trkpt lat="42.183577" lon="23.588495"><ele>2733.4</ele><time>2026-04-05T09:51:20.000Z</time></trkpt>
<trkpt lat="42.183577" lon="23.588495"><ele>2733.4</ele><time>2026-04-05T09:51:21.000Z</time></trkpt>
<trkpt lat="42.183577" lon="23.588495"><ele>2733.4</ele><time>2026-04-05T09:51:22.000Z</time></trkpt>
<trkpt lat="42.183577" lon="23.588495"><ele>2733.4</ele><time>2026-04-05T09:51:23.000Z</time></trkpt>
<trkpt lat="42.183577" lon="23.588495"><ele>2733.5</ele><time>2026-04-05T09:51:24.000Z</time></trkpt>
<trkpt lat="42.183577" lon="23.588495"><ele>2733.5</ele><time>2026-04-05T09:51:25.000Z</time></trkpt>
<trkpt lat="42.183577" lon="23.588495"><ele>2733.5</ele><time>2026-04-05T09:51:26.000Z</time></trkpt>
<trkpt lat="42.183577" lon="23.588495"><ele>2733.5</ele><time>2026-04-05T09:51:27.000Z</time></trkpt>
<trkpt lat="42.183576" lon="23.588495"><ele>2733.5</ele><time>2026-04-05T09:51:28.000Z</time></trkpt>
<trkpt lat="42.183576" lon="23.588495"><ele>2733.5</ele><time>2026-04-05T09:51:29.000Z</time></trkpt>
<trkpt lat="42.183576" lon="23.588495"><ele>2733.5</ele><time>2026-04-05T09:51:30.000Z</time></trkpt>
<trkpt lat="42.183576" lon="23.588495"><ele>2733.5</ele><time>2026-04-05T09:51:31.000Z</time></trkpt>
<trkpt lat="42.183576" lon="23.588495"><ele>2733.5</ele><time>2026-04-05T09:51:32.000Z</time></trkpt>
<trkpt lat="42.183576" lon="23.588495"><ele>2733.5</ele><time>2026-04-05T09:51:33.000Z</time></trkpt>
<trkpt lat="42.183576" lon="23.588495"><ele>2733.5</ele><time>2026-04-05T09:51:34.000Z</time></trkpt>
<trkpt lat="42.183576" lon="23.588495"><ele>2733.5</ele><time>2026-04-05T09:51:35.000Z</time></trkpt>
<trkpt lat="42.183576" lon="23.588496"><ele>2733.5</ele><time>2026-04-05T09:51:36.000Z</time></trkpt>
<trkpt lat="42.183575" lon="23.588496"><ele>2733.5</ele><time>2026-04-05T09:51:37.000Z</time></trkpt>
<trkpt lat="42.183575" lon="23.588496"><ele>2733.5</ele><time>2026-04-05T09:51:38.000Z</time></trkpt>
<trkpt lat="42.183574" lon="23.588497"><ele>2733.4</ele><time>2026-04-05T09:51:39.000Z</time></trkpt>
<trkpt lat="42.183574" lon="23.588497"><ele>2733.4</ele><time>2026-04-05T09:51:40.000Z</time></trkpt>
<trkpt lat="42.183574" lon="23.588497"><ele>2733.4</ele><time>2026-04-05T09:51:41.000Z</time></trkpt>
<trkpt lat="42.183574" lon="23.588497"><ele>2733.4</ele><time>2026-04-05T09:51:42.000Z</time></trkpt>
<trkpt lat="42.183574" lon="23.588497"><ele>2733.4</ele><time>2026-04-05T09:51:43.000Z</time></trkpt>
<trkpt lat="42.183574" lon="23.588497"><ele>2733.4</ele><time>2026-04-05T09:51:44.000Z</time></trkpt>
<trkpt lat="42.183574" lon="23.588497"><ele>2733.4</ele><time>2026-04-05T09:51:45.000Z</time></trkpt>
<trkpt lat="42.183574" lon="23.588497"><ele>2733.4</ele><time>2026-04-05T09:51:46.000Z</time></trkpt>
<trkpt lat="42.183574" lon="23.588497"><ele>2733.4</ele><time>2026-04-05T09:51:47.000Z</time></trkpt>
<trkpt lat="42.183574" lon="23.588497"><ele>2733.4</ele><time>2026-04-05T09:51:48.000Z</time></trkpt>
<trkpt lat="42.183574" lon="23.588497"><ele>2733.4</ele><time>2026-04-05T09:51:49.000Z</time></trkpt>
<trkpt lat="42.183574" lon="23.588497"><ele>2733.4</ele><time>2026-04-05T09:51:50.000Z</time></trkpt>
<trkpt lat="42.183574" lon="23.588497"><ele>2733.4</ele><time>2026-04-05T09:51:51.000Z</time></trkpt>
<trkpt lat="42.183574" lon="23.588497"><ele>2733.4</ele><time>2026-04-05T09:51:52.000Z</time></trkpt>
<trkpt lat="42.183574" lon="23.588497"><ele>2733.4</ele><time>2026-04-05T09:51:53.000Z</time></trkpt>
<trkpt lat="42.183574" lon="23.588497"><ele>2733.5</ele><time>2026-04-05T09:51:54.000Z</time></trkpt>
<trkpt lat="42.183574" lon="23.588497"><ele>2733.5</ele><time>2026-04-05T09:51:55.000Z</time></trkpt>
<trkpt lat="42.183574" lon="23.588497"><ele>2733.5</ele><time>2026-04-05T09:51:56.000Z</time></trkpt>
<trkpt lat="42.183574" lon="23.588496"><ele>2733.5</ele><time>2026-04-05T09:51:57.000Z</time></trkpt>
<trkpt lat="42.183574" lon="23.588496"><ele>2733.5</ele><time>2026-04-05T09:51:58.000Z</time></trkpt>
<trkpt lat="42.183573" lon="23.588496"><ele>2733.6</ele><time>2026-04-05T09:51:59.000Z</time></trkpt>
<trkpt lat="42.183573" lon="23.588496"><ele>2733.6</ele><time>2026-04-05T09:52:00.000Z</time></trkpt>
<trkpt lat="42.183573" lon="23.588496"><ele>2733.6</ele><time>2026-04-05T09:52:01.000Z</time></trkpt>
<trkpt lat="42.183573" lon="23.588496"><ele>2733.6</ele><time>2026-04-05T09:52:02.000Z</time></trkpt>
<trkpt lat="42.183573" lon="23.588496"><ele>2733.6</ele><time>2026-04-05T09:52:03.000Z</time></trkpt>
<trkpt lat="42.183573" lon="23.588496"><ele>2733.6</ele><time>2026-04-05T09:52:04.000Z</time></trkpt>
<trkpt lat="42.183573" lon="23.588496"><ele>2733.6</ele><time>2026-04-05T09:52:05.000Z</time></trkpt>
<trkpt lat="42.183573" lon="23.588496"><ele>2733.6</ele><time>2026-04-05T09:52:06.000Z</time></trkpt>
<trkpt lat="42.183573" lon="23.588496"><ele>2733.6</ele><time>2026-04-05T09:52:07.000Z</time></trkpt>
<trkpt lat="42.183573" lon="23.588496"><ele>2733.6</ele><time>2026-04-05T09:52:08.000Z</time></trkpt>
<trkpt lat="42.183573" lon="23.588496"><ele>2733.5</ele><time>2026-04-05T09:52:09.000Z</time></trkpt>
<trkpt lat="42.183573" lon="23.588496"><ele>2733.5</ele><time>2026-04-05T09:52:10.000Z</time></trkpt>
<trkpt lat="42.183573" lon="23.588496"><ele>2733.5</ele><time>2026-04-05T09:52:11.000Z</time></trkpt>
<trkpt lat="42.183573" lon="23.588496"><ele>2733.5</ele><time>2026-04-05T09:52:12.000Z</time></trkpt>
<trkpt lat="42.183573" lon="23.588496"><ele>2733.5</ele><time>2026-04-05T09:52:13.000Z</time></trkpt>
<trkpt lat="42.183573" lon="23.588496"><ele>2733.2</ele><time>2026-04-05T09:52:14.000Z</time></trkpt>
<trkpt lat="42.183573" lon="23.588496"><ele>2733.2</ele><time>2026-04-05T09:52:15.000Z</time></trkpt>
<trkpt lat="42.183573" lon="23.588496"><ele>2733.2</ele><time>2026-04-05T09:52:16.000Z</time></trkpt>
<trkpt lat="42.183573" lon="23.588496"><ele>2733.2</ele><time>2026-04-05T09:52:17.000Z</time></trkpt>
<trkpt lat="42.183573" lon="23.588496"><ele>2733.2</ele><time>2026-04-05T09:52:18.000Z</time></trkpt>
<trkpt lat="42.183573" lon="23.588496"><ele>2733.1</ele><time>2026-04-05T09:52:19.000Z</time></trkpt>
<trkpt lat="42.183573" lon="23.588496"><ele>2733.1</ele><time>2026-04-05T09:52:20.000Z</time></trkpt>
<trkpt lat="42.183573" lon="23.588496"><ele>2733.1</ele><time>2026-04-05T09:52:21.000Z</time></trkpt>
<trkpt lat="42.183573" lon="23.588496"><ele>2733.1</ele><time>2026-04-05T09:52:22.000Z</time></trkpt>
<trkpt lat="42.183573" lon="23.588496"><ele>2733.1</ele><time>2026-04-05T09:52:23.000Z</time></trkpt>
<trkpt lat="42.183573" lon="23.588496"><ele>2733.1</ele><time>2026-04-05T09:52:24.000Z</time></trkpt>
<trkpt lat="42.183573" lon="23.588496"><ele>2733.1</ele><time>2026-04-05T09:52:25.000Z</time></trkpt>
<trkpt lat="42.183573" lon="23.588496"><ele>2733.1</ele><time>2026-04-05T09:52:26.000Z</time></trkpt>
<trkpt lat="42.183573" lon="23.588496"><ele>2733.1</ele><time>2026-04-05T09:52:27.000Z</time></trkpt>
<trkpt lat="42.183573" lon="23.588496"><ele>2733.1</ele><time>2026-04-05T09:52:28.000Z</time></trkpt>
<trkpt lat="42.183573" lon="23.588496"><ele>2733.2</ele><time>2026-04-05T09:52:29.000Z</time></trkpt>
<trkpt lat="42.183573" lon="23.588496"><ele>2733.2</ele><time>2026-04-05T09:52:30.000Z</time></trkpt>
<trkpt lat="42.183573" lon="23.588496"><ele>2733.2</ele><time>2026-04-05T09:52:31.000Z</time></trkpt>
<trkpt lat="42.183573" lon="23.588496"><ele>2733.2</ele><time>2026-04-05T09:52:32.000Z</time></trkpt>
<trkpt lat="42.183573" lon="23.588496"><ele>2733.2</ele><time>2026-04-05T09:52:33.000Z</time></trkpt>
<trkpt lat="42.183573" lon="23.588496"><ele>2733.3</ele><time>2026-04-05T09:52:34.000Z</time></trkpt>
<trkpt lat="42.183574" lon="23.588496"><ele>2733.3</ele><time>2026-04-05T09:52:35.000Z</time></trkpt>
<trkpt lat="42.183574" lon="23.588496"><ele>2733.3</ele><time>2026-04-05T09:52:36.000Z</time></trkpt>
<trkpt lat="42.183574" lon="23.588495"><ele>2733.3</ele><time>2026-04-05T09:52:37.000Z</time></trkpt>
<trkpt lat="42.183575" lon="23.588496"><ele>2733.3</ele><time>2026-04-05T09:52:38.000Z</time></trkpt>
<trkpt lat="42.183576" lon="23.588499"><ele>2733.3</ele><time>2026-04-05T09:52:39.000Z</time></trkpt>
<trkpt lat="42.183576" lon="23.588501"><ele>2733.3</ele><time>2026-04-05T09:52:40.000Z</time></trkpt>
<trkpt lat="42.183577" lon="23.588503"><ele>2733.3</ele><time>2026-04-05T09:52:41.000Z</time></trkpt>
<trkpt lat="42.183579" lon="23.588505"><ele>2733.3</ele><time>2026-04-05T09:52:42.000Z</time></trkpt>
<trkpt lat="42.18358" lon="23.588506"><ele>2733.3</ele><time>2026-04-05T09:52:43.000Z</time></trkpt>
<trkpt lat="42.18358" lon="23.588506"><ele>2733.3</ele><time>2026-04-05T09:52:44.000Z</time></trkpt>
<trkpt lat="42.183581" lon="23.588505"><ele>2733.3</ele><time>2026-04-05T09:52:45.000Z</time></trkpt>
<trkpt lat="42.18358" lon="23.588505"><ele>2733.3</ele><time>2026-04-05T09:52:46.000Z</time></trkpt>
<trkpt lat="42.183579" lon="23.588505"><ele>2733.3</ele><time>2026-04-05T09:52:47.000Z</time></trkpt>
<trkpt lat="42.183578" lon="23.588505"><ele>2733.3</ele><time>2026-04-05T09:52:48.000Z</time></trkpt>
<trkpt lat="42.183577" lon="23.588504"><ele>2733.3</ele><time>2026-04-05T09:52:49.000Z</time></trkpt>
<trkpt lat="42.183577" lon="23.588504"><ele>2733.3</ele><time>2026-04-05T09:52:50.000Z</time></trkpt>
<trkpt lat="42.183577" lon="23.588504"><ele>2733.3</ele><time>2026-04-05T09:52:51.000Z</time></trkpt>
<trkpt lat="42.183577" lon="23.588504"><ele>2733.3</ele><time>2026-04-05T09:52:52.000Z</time></trkpt>
<trkpt lat="42.183577" lon="23.588504"><ele>2733.3</ele><time>2026-04-05T09:52:53.000Z</time></trkpt>
<trkpt lat="42.183577" lon="23.588504"><ele>2733.3</ele><time>2026-04-05T09:52:54.000Z</time></trkpt>
<trkpt lat="42.183577" lon="23.588504"><ele>2733.3</ele><time>2026-04-05T09:52:55.000Z</time></trkpt>
<trkpt lat="42.183577" lon="23.588504"><ele>2733.3</ele><time>2026-04-05T09:52:56.000Z</time></trkpt>
<trkpt lat="42.183577" lon="23.588504"><ele>2733.3</ele><time>2026-04-05T09:52:57.000Z</time></trkpt>
<trkpt lat="42.183577" lon="23.588504"><ele>2733.3</ele><time>2026-04-05T09:52:58.000Z</time></trkpt>
<trkpt lat="42.183578" lon="23.588505"><ele>2733.4</ele><time>2026-04-05T09:52:59.000Z</time></trkpt>
<trkpt lat="42.183578" lon="23.588505"><ele>2733.4</ele><time>2026-04-05T09:53:00.000Z</time></trkpt>
<trkpt lat="42.183579" lon="23.588505"><ele>2733.4</ele><time>2026-04-05T09:53:01.000Z</time></trkpt>
<trkpt lat="42.18358" lon="23.588504"><ele>2733.4</ele><time>2026-04-05T09:53:02.000Z</time></trkpt>
<trkpt lat="42.183581" lon="23.588504"><ele>2733.4</ele><time>2026-04-05T09:53:03.000Z</time></trkpt>
<trkpt lat="42.183581" lon="23.588504"><ele>2733.5</ele><time>2026-04-05T09:53:04.000Z</time></trkpt>
<trkpt lat="42.183581" lon="23.588504"><ele>2733.5</ele><time>2026-04-05T09:53:05.000Z</time></trkpt>
<trkpt lat="42.18358" lon="23.588505"><ele>2733.5</ele><time>2026-04-05T09:53:06.000Z</time></trkpt>
<trkpt lat="42.18358" lon="23.588506"><ele>2733.5</ele><time>2026-04-05T09:53:07.000Z</time></trkpt>
<trkpt lat="42.183579" lon="23.588507"><ele>2733.5</ele><time>2026-04-05T09:53:08.000Z</time></trkpt>
<trkpt lat="42.183579" lon="23.588507"><ele>2733.6</ele><time>2026-04-05T09:53:09.000Z</time></trkpt>
<trkpt lat="42.183579" lon="23.588507"><ele>2733.6</ele><time>2026-04-05T09:53:10.000Z</time></trkpt>
<trkpt lat="42.183579" lon="23.588507"><ele>2733.6</ele><time>2026-04-05T09:53:11.000Z</time></trkpt>
<trkpt lat="42.183579" lon="23.588507"><ele>2733.6</ele><time>2026-04-05T09:53:12.000Z</time></trkpt>
<trkpt lat="42.183579" lon="23.588507"><ele>2733.6</ele><time>2026-04-05T09:53:13.000Z</time></trkpt>
<trkpt lat="42.183579" lon="23.588507"><ele>2733.6</ele><time>2026-04-05T09:53:14.000Z</time></trkpt>
<trkpt lat="42.183579" lon="23.588507"><ele>2733.6</ele><time>2026-04-05T09:53:15.000Z</time></trkpt>
<trkpt lat="42.183579" lon="23.588507"><ele>2733.6</ele><time>2026-04-05T09:53:16.000Z</time></trkpt>
<trkpt lat="42.183579" lon="23.588506"><ele>2733.6</ele><time>2026-04-05T09:53:17.000Z</time></trkpt>
<trkpt lat="42.183579" lon="23.588506"><ele>2733.6</ele><time>2026-04-05T09:53:18.000Z</time></trkpt>
<trkpt lat="42.183579" lon="23.588506"><ele>2733.6</ele><time>2026-04-05T09:53:19.000Z</time></trkpt>
<trkpt lat="42.183579" lon="23.588505"><ele>2733.6</ele><time>2026-04-05T09:53:20.000Z</time></trkpt>
<trkpt lat="42.18358" lon="23.588505"><ele>2733.6</ele><time>2026-04-05T09:53:21.000Z</time></trkpt>
<trkpt lat="42.18358" lon="23.588505"><ele>2733.6</ele><time>2026-04-05T09:53:22.000Z</time></trkpt>
<trkpt lat="42.18358" lon="23.588505"><ele>2733.6</ele><time>2026-04-05T09:53:23.000Z</time></trkpt>
<trkpt lat="42.18358" lon="23.588505"><ele>2733.6</ele><time>2026-04-05T09:53:24.000Z</time></trkpt>
<trkpt lat="42.18358" lon="23.588505"><ele>2733.6</ele><time>2026-04-05T09:53:25.000Z</time></trkpt>
<trkpt lat="42.18358" lon="23.588505"><ele>2733.6</ele><time>2026-04-05T09:53:26.000Z</time></trkpt>
<trkpt lat="42.18358" lon="23.588505"><ele>2733.6</ele><time>2026-04-05T09:53:27.000Z</time></trkpt>
<trkpt lat="42.18358" lon="23.588505"><ele>2733.6</ele><time>2026-04-05T09:53:28.000Z</time></trkpt>
<trkpt lat="42.18358" lon="23.588505"><ele>2733.6</ele><time>2026-04-05T09:53:29.000Z</time></trkpt>
<trkpt lat="42.18358" lon="23.588504"><ele>2733.6</ele><time>2026-04-05T09:53:30.000Z</time></trkpt>
<trkpt lat="42.18358" lon="23.588504"><ele>2733.6</ele><time>2026-04-05T09:53:31.000Z</time></trkpt>
<trkpt lat="42.18358" lon="23.588504"><ele>2733.6</ele><time>2026-04-05T09:53:32.000Z</time></trkpt>
<trkpt lat="42.18358" lon="23.588503"><ele>2733.6</ele><time>2026-04-05T09:53:33.000Z</time></trkpt>
<trkpt lat="42.18358" lon="23.588503"><ele>2733.6</ele><time>2026-04-05T09:53:34.000Z</time></trkpt>
<trkpt lat="42.183581" lon="23.588503"><ele>2733.6</ele><time>2026-04-05T09:53:35.000Z</time></trkpt>
<trkpt lat="42.183581" lon="23.588503"><ele>2733.6</ele><time>2026-04-05T09:53:36.000Z</time></trkpt>
<trkpt lat="42.183581" lon="23.588503"><ele>2733.6</ele><time>2026-04-05T09:53:37.000Z</time></trkpt>
<trkpt lat="42.18358" lon="23.588502"><ele>2733.6</ele><time>2026-04-05T09:53:38.000Z</time></trkpt>
<trkpt lat="42.183577" lon="23.588501"><ele>2733.5</ele><time>2026-04-05T09:53:39.000Z</time></trkpt>
<trkpt lat="42.183573" lon="23.5885"><ele>2733.5</ele><time>2026-04-05T09:53:40.000Z</time></trkpt>
<trkpt lat="42.183568" lon="23.588497"><ele>2733.5</ele><time>2026-04-05T09:53:41.000Z</time></trkpt>
<trkpt lat="42.183563" lon="23.588494"><ele>2733.5</ele><time>2026-04-05T09:53:42.000Z</time></trkpt>
<trkpt lat="42.183559" lon="23.588492"><ele>2733.5</ele><time>2026-04-05T09:53:43.000Z</time></trkpt>
<trkpt lat="42.183556" lon="23.588491"><ele>2733.4</ele><time>2026-04-05T09:53:44.000Z</time></trkpt>
<trkpt lat="42.183554" lon="23.588491"><ele>2733.4</ele><time>2026-04-05T09:53:45.000Z</time></trkpt>
<trkpt lat="42.183555" lon="23.588492"><ele>2733.4</ele><time>2026-04-05T09:53:46.000Z</time></trkpt>
<trkpt lat="42.183555" lon="23.588493"><ele>2733.4</ele><time>2026-04-05T09:53:47.000Z</time></trkpt>
<trkpt lat="42.183555" lon="23.588494"><ele>2733.4</ele><time>2026-04-05T09:53:48.000Z</time></trkpt>
<trkpt lat="42.183555" lon="23.588494"><ele>2733.5</ele><time>2026-04-05T09:53:49.000Z</time></trkpt>
<trkpt lat="42.183555" lon="23.588494"><ele>2733.5</ele><time>2026-04-05T09:53:50.000Z</time></trkpt>
<trkpt lat="42.183555" lon="23.588494"><ele>2733.5</ele><time>2026-04-05T09:53:51.000Z</time></trkpt>
<trkpt lat="42.183555" lon="23.588494"><ele>2733.5</ele><time>2026-04-05T09:53:52.000Z</time></trkpt>
<trkpt lat="42.183555" lon="23.588494"><ele>2733.5</ele><time>2026-04-05T09:53:53.000Z</time></trkpt>
<trkpt lat="42.183555" lon="23.588494"><ele>2733.6</ele><time>2026-04-05T09:53:54.000Z</time></trkpt>
<trkpt lat="42.183555" lon="23.588494"><ele>2733.6</ele><time>2026-04-05T09:53:55.000Z</time></trkpt>
<trkpt lat="42.183555" lon="23.588494"><ele>2733.6</ele><time>2026-04-05T09:53:56.000Z</time></trkpt>
<trkpt lat="42.183555" lon="23.588494"><ele>2733.6</ele><time>2026-04-05T09:53:57.000Z</time></trkpt>
<trkpt lat="42.183555" lon="23.588494"><ele>2733.6</ele><time>2026-04-05T09:53:58.000Z</time></trkpt>
<trkpt lat="42.183556" lon="23.588494"><ele>2733.9</ele><time>2026-04-05T09:53:59.000Z</time></trkpt>
<trkpt lat="42.183556" lon="23.588494"><ele>2733.9</ele><time>2026-04-05T09:54:00.000Z</time></trkpt>
<trkpt lat="42.183556" lon="23.588494"><ele>2733.9</ele><time>2026-04-05T09:54:01.000Z</time></trkpt>
<trkpt lat="42.183557" lon="23.588494"><ele>2733.9</ele><time>2026-04-05T09:54:02.000Z</time></trkpt>
<trkpt lat="42.183557" lon="23.588494"><ele>2733.9</ele><time>2026-04-05T09:54:03.000Z</time></trkpt>
<trkpt lat="42.183557" lon="23.588493"><ele>2734</ele><time>2026-04-05T09:54:04.000Z</time></trkpt>
<trkpt lat="42.183557" lon="23.588493"><ele>2734</ele><time>2026-04-05T09:54:05.000Z</time></trkpt>
<trkpt lat="42.183557" lon="23.588493"><ele>2734</ele><time>2026-04-05T09:54:06.000Z</time></trkpt>
<trkpt lat="42.183557" lon="23.588493"><ele>2734</ele><time>2026-04-05T09:54:07.000Z</time></trkpt>
<trkpt lat="42.183557" lon="23.588493"><ele>2734</ele><time>2026-04-05T09:54:08.000Z</time></trkpt>
<trkpt lat="42.183557" lon="23.588493"><ele>2734.1</ele><time>2026-04-05T09:54:09.000Z</time></trkpt>
<trkpt lat="42.183557" lon="23.588493"><ele>2734.1</ele><time>2026-04-05T09:54:10.000Z</time></trkpt>
<trkpt lat="42.183557" lon="23.588493"><ele>2734.1</ele><time>2026-04-05T09:54:11.000Z</time></trkpt>
<trkpt lat="42.183557" lon="23.588493"><ele>2734.1</ele><time>2026-04-05T09:54:12.000Z</time></trkpt>
<trkpt lat="42.183557" lon="23.588493"><ele>2734.1</ele><time>2026-04-05T09:54:13.000Z</time></trkpt>
<trkpt lat="42.183557" lon="23.588493"><ele>2734.2</ele><time>2026-04-05T09:54:14.000Z</time></trkpt>
<trkpt lat="42.183557" lon="23.588493"><ele>2734.2</ele><time>2026-04-05T09:54:15.000Z</time></trkpt>
<trkpt lat="42.183557" lon="23.588493"><ele>2734.2</ele><time>2026-04-05T09:54:16.000Z</time></trkpt>
<trkpt lat="42.183557" lon="23.588493"><ele>2734.2</ele><time>2026-04-05T09:54:17.000Z</time></trkpt>
<trkpt lat="42.183557" lon="23.588493"><ele>2734.2</ele><time>2026-04-05T09:54:18.000Z</time></trkpt>
<trkpt lat="42.183557" lon="23.588492"><ele>2734.2</ele><time>2026-04-05T09:54:19.000Z</time></trkpt>
<trkpt lat="42.183557" lon="23.588492"><ele>2734.2</ele><time>2026-04-05T09:54:20.000Z</time></trkpt>
<trkpt lat="42.183556" lon="23.588492"><ele>2734.2</ele><time>2026-04-05T09:54:21.000Z</time></trkpt>
<trkpt lat="42.183556" lon="23.588492"><ele>2734.2</ele><time>2026-04-05T09:54:22.000Z</time></trkpt>
<trkpt lat="42.183555" lon="23.588492"><ele>2734.2</ele><time>2026-04-05T09:54:23.000Z</time></trkpt>
<trkpt lat="42.183555" lon="23.588492"><ele>2734.3</ele><time>2026-04-05T09:54:24.000Z</time></trkpt>
<trkpt lat="42.183555" lon="23.588491"><ele>2734.3</ele><time>2026-04-05T09:54:25.000Z</time></trkpt>
<trkpt lat="42.183554" lon="23.588491"><ele>2734.3</ele><time>2026-04-05T09:54:26.000Z</time></trkpt>
<trkpt lat="42.183554" lon="23.588491"><ele>2734.3</ele><time>2026-04-05T09:54:27.000Z</time></trkpt>
<trkpt lat="42.183554" lon="23.588491"><ele>2734.3</ele><time>2026-04-05T09:54:28.000Z</time></trkpt>
<trkpt lat="42.183554" lon="23.588491"><ele>2734.4</ele><time>2026-04-05T09:54:29.000Z</time></trkpt>
<trkpt lat="42.183554" lon="23.588491"><ele>2734.4</ele><time>2026-04-05T09:54:30.000Z</time></trkpt>
<trkpt lat="42.183554" lon="23.588491"><ele>2734.4</ele><time>2026-04-05T09:54:31.000Z</time></trkpt>
<trkpt lat="42.183554" lon="23.588491"><ele>2734.4</ele><time>2026-04-05T09:54:32.000Z</time></trkpt>
<trkpt lat="42.183554" lon="23.588491"><ele>2734.4</ele><time>2026-04-05T09:54:33.000Z</time></trkpt>
<trkpt lat="42.183554" lon="23.588491"><ele>2734.4</ele><time>2026-04-05T09:54:34.000Z</time></trkpt>
<trkpt lat="42.183554" lon="23.588491"><ele>2734.4</ele><time>2026-04-05T09:54:35.000Z</time></trkpt>
<trkpt lat="42.183554" lon="23.588491"><ele>2734.4</ele><time>2026-04-05T09:54:36.000Z</time></trkpt>
<trkpt lat="42.183554" lon="23.588491"><ele>2734.4</ele><time>2026-04-05T09:54:37.000Z</time></trkpt>
<trkpt lat="42.183555" lon="23.588491"><ele>2734.4</ele><time>2026-04-05T09:54:38.000Z</time></trkpt>
<trkpt lat="42.183555" lon="23.588491"><ele>2734.4</ele><time>2026-04-05T09:54:39.000Z</time></trkpt>
<trkpt lat="42.183556" lon="23.588491"><ele>2734.4</ele><time>2026-04-05T09:54:40.000Z</time></trkpt>
<trkpt lat="42.183556" lon="23.588491"><ele>2734.4</ele><time>2026-04-05T09:54:41.000Z</time></trkpt>
<trkpt lat="42.183557" lon="23.588491"><ele>2734.4</ele><time>2026-04-05T09:54:42.000Z</time></trkpt>
<trkpt lat="42.183557" lon="23.588491"><ele>2734.4</ele><time>2026-04-05T09:54:43.000Z</time></trkpt>
<trkpt lat="42.183557" lon="23.588492"><ele>2734.3</ele><time>2026-04-05T09:54:44.000Z</time></trkpt>
<trkpt lat="42.183557" lon="23.588492"><ele>2734.3</ele><time>2026-04-05T09:54:45.000Z</time></trkpt>
<trkpt lat="42.183557" lon="23.588492"><ele>2734.3</ele><time>2026-04-05T09:54:46.000Z</time></trkpt>
<trkpt lat="42.183557" lon="23.588492"><ele>2734.3</ele><time>2026-04-05T09:54:47.000Z</time></trkpt>
<trkpt lat="42.183557" lon="23.588493"><ele>2734.3</ele><time>2026-04-05T09:54:48.000Z</time></trkpt>
<trkpt lat="42.183557" lon="23.588493"><ele>2734.3</ele><time>2026-04-05T09:54:49.000Z</time></trkpt>
<trkpt lat="42.183557" lon="23.588492"><ele>2734.3</ele><time>2026-04-05T09:54:50.000Z</time></trkpt>
<trkpt lat="42.183557" lon="23.588492"><ele>2734.3</ele><time>2026-04-05T09:54:51.000Z</time></trkpt>
<trkpt lat="42.183557" lon="23.588492"><ele>2734.3</ele><time>2026-04-05T09:54:52.000Z</time></trkpt>
<trkpt lat="42.183557" lon="23.588492"><ele>2734.3</ele><time>2026-04-05T09:54:53.000Z</time></trkpt>
<trkpt lat="42.183557" lon="23.588492"><ele>2734.2</ele><time>2026-04-05T09:54:54.000Z</time></trkpt>
<trkpt lat="42.183557" lon="23.588492"><ele>2734.2</ele><time>2026-04-05T09:54:55.000Z</time></trkpt>
<trkpt lat="42.183557" lon="23.588492"><ele>2734.2</ele><time>2026-04-05T09:54:56.000Z</time></trkpt>
<trkpt lat="42.183557" lon="23.588492"><ele>2734.2</ele><time>2026-04-05T09:54:57.000Z</time></trkpt>
<trkpt lat="42.183557" lon="23.588492"><ele>2734.2</ele><time>2026-04-05T09:54:58.000Z</time></trkpt>
<trkpt lat="42.183557" lon="23.588492"><ele>2734.2</ele><time>2026-04-05T09:54:59.000Z</time></trkpt>
<trkpt lat="42.183557" lon="23.588492"><ele>2734.2</ele><time>2026-04-05T09:55:00.000Z</time></trkpt>
<trkpt lat="42.183557" lon="23.588492"><ele>2734.2</ele><time>2026-04-05T09:55:01.000Z</time></trkpt>
<trkpt lat="42.183557" lon="23.588492"><ele>2734.2</ele><time>2026-04-05T09:55:02.000Z</time></trkpt>
<trkpt lat="42.183557" lon="23.588492"><ele>2734.2</ele><time>2026-04-05T09:55:03.000Z</time></trkpt>
<trkpt lat="42.183557" lon="23.588492"><ele>2734.1</ele><time>2026-04-05T09:55:04.000Z</time></trkpt>
<trkpt lat="42.183557" lon="23.588492"><ele>2734.1</ele><time>2026-04-05T09:55:05.000Z</time></trkpt>
<trkpt lat="42.183557" lon="23.588492"><ele>2734.1</ele><time>2026-04-05T09:55:06.000Z</time></trkpt>
<trkpt lat="42.183557" lon="23.588491"><ele>2734.1</ele><time>2026-04-05T09:55:07.000Z</time></trkpt>
<trkpt lat="42.183557" lon="23.58849"><ele>2734.1</ele><time>2026-04-05T09:55:08.000Z</time></trkpt>
<trkpt lat="42.183556" lon="23.588487"><ele>2734.1</ele><time>2026-04-05T09:55:09.000Z</time></trkpt>
<trkpt lat="42.183554" lon="23.588483"><ele>2734.1</ele><time>2026-04-05T09:55:10.000Z</time></trkpt>
<trkpt lat="42.183552" lon="23.588477"><ele>2734.1</ele><time>2026-04-05T09:55:11.000Z</time></trkpt>
<trkpt lat="42.18355" lon="23.588471"><ele>2734.1</ele><time>2026-04-05T09:55:12.000Z</time></trkpt>
<trkpt lat="42.183549" lon="23.588465"><ele>2734.1</ele><time>2026-04-05T09:55:13.000Z</time></trkpt>
<trkpt lat="42.18355" lon="23.588458"><ele>2734.1</ele><time>2026-04-05T09:55:14.000Z</time></trkpt>
<trkpt lat="42.183551" lon="23.588452"><ele>2734.1</ele><time>2026-04-05T09:55:15.000Z</time></trkpt>
<trkpt lat="42.183553" lon="23.588446"><ele>2734.1</ele><time>2026-04-05T09:55:16.000Z</time></trkpt>
<trkpt lat="42.183553" lon="23.588439"><ele>2734.1</ele><time>2026-04-05T09:55:17.000Z</time></trkpt>
<trkpt lat="42.183552" lon="23.588433"><ele>2734.1</ele><time>2026-04-05T09:55:18.000Z</time></trkpt>
<trkpt lat="42.183549" lon="23.588426"><ele>2734.2</ele><time>2026-04-05T09:55:19.000Z</time></trkpt>
<trkpt lat="42.183546" lon="23.588418"><ele>2734.2</ele><time>2026-04-05T09:55:20.000Z</time></trkpt>
<trkpt lat="42.183543" lon="23.588409"><ele>2734.2</ele><time>2026-04-05T09:55:21.000Z</time></trkpt>
<trkpt lat="42.18354" lon="23.5884"><ele>2734.2</ele><time>2026-04-05T09:55:22.000Z</time></trkpt>
<trkpt lat="42.183537" lon="23.588392"><ele>2734.2</ele><time>2026-04-05T09:55:23.000Z</time></trkpt>
<trkpt lat="42.183534" lon="23.588382"><ele>2734.5</ele><time>2026-04-05T09:55:24.000Z</time></trkpt>
<trkpt lat="42.183531" lon="23.588374"><ele>2734.5</ele><time>2026-04-05T09:55:25.000Z</time></trkpt>
<trkpt lat="42.183529" lon="23.588365"><ele>2734.5</ele><time>2026-04-05T09:55:26.000Z</time></trkpt>
<trkpt lat="42.183526" lon="23.588357"><ele>2734.5</ele><time>2026-04-05T09:55:27.000Z</time></trkpt>
<trkpt lat="42.183524" lon="23.588349"><ele>2734.5</ele><time>2026-04-05T09:55:28.000Z</time></trkpt>
<trkpt lat="42.18352" lon="23.588342"><ele>2735.1</ele><time>2026-04-05T09:55:29.000Z</time></trkpt>
<trkpt lat="42.183517" lon="23.588335"><ele>2735.1</ele><time>2026-04-05T09:55:30.000Z</time></trkpt>
<trkpt lat="42.183514" lon="23.588328"><ele>2735.1</ele><time>2026-04-05T09:55:31.000Z</time></trkpt>
<trkpt lat="42.183511" lon="23.588322"><ele>2735.1</ele><time>2026-04-05T09:55:32.000Z</time></trkpt>
<trkpt lat="42.183509" lon="23.588316"><ele>2735.1</ele><time>2026-04-05T09:55:33.000Z</time></trkpt>
<trkpt lat="42.183508" lon="23.588311"><ele>2735.4</ele><time>2026-04-05T09:55:34.000Z</time></trkpt>
<trkpt lat="42.183508" lon="23.588306"><ele>2735.4</ele><time>2026-04-05T09:55:35.000Z</time></trkpt>
<trkpt lat="42.183508" lon="23.588302"><ele>2735.4</ele><time>2026-04-05T09:55:36.000Z</time></trkpt>
<trkpt lat="42.183508" lon="23.588297"><ele>2735.4</ele><time>2026-04-05T09:55:37.000Z</time></trkpt>
<trkpt lat="42.183508" lon="23.588293"><ele>2735.4</ele><time>2026-04-05T09:55:38.000Z</time></trkpt>
<trkpt lat="42.183508" lon="23.588289"><ele>2736.2</ele><time>2026-04-05T09:55:39.000Z</time></trkpt>
<trkpt lat="42.183508" lon="23.588285"><ele>2736.2</ele><time>2026-04-05T09:55:40.000Z</time></trkpt>
<trkpt lat="42.183508" lon="23.58828"><ele>2736.2</ele><time>2026-04-05T09:55:41.000Z</time></trkpt>
<trkpt lat="42.183507" lon="23.588274"><ele>2736.2</ele><time>2026-04-05T09:55:42.000Z</time></trkpt>
<trkpt lat="42.183505" lon="23.588267"><ele>2736.2</ele><time>2026-04-05T09:55:43.000Z</time></trkpt>
<trkpt lat="42.183504" lon="23.588259"><ele>2737.1</ele><time>2026-04-05T09:55:44.000Z</time></trkpt>
<trkpt lat="42.183501" lon="23.588249"><ele>2737.1</ele><time>2026-04-05T09:55:45.000Z</time></trkpt>
<trkpt lat="42.183499" lon="23.588239"><ele>2737.1</ele><time>2026-04-05T09:55:46.000Z</time></trkpt>
<trkpt lat="42.183495" lon="23.588229"><ele>2737.1</ele><time>2026-04-05T09:55:47.000Z</time></trkpt>
<trkpt lat="42.183491" lon="23.588219"><ele>2737.1</ele><time>2026-04-05T09:55:48.000Z</time></trkpt>
<trkpt lat="42.183487" lon="23.588209"><ele>2737.6</ele><time>2026-04-05T09:55:49.000Z</time></trkpt>
<trkpt lat="42.183483" lon="23.5882"><ele>2737.6</ele><time>2026-04-05T09:55:50.000Z</time></trkpt>
<trkpt lat="42.183478" lon="23.588191"><ele>2737.6</ele><time>2026-04-05T09:55:51.000Z</time></trkpt>
<trkpt lat="42.183475" lon="23.588184"><ele>2737.6</ele><time>2026-04-05T09:55:52.000Z</time></trkpt>
<trkpt lat="42.183473" lon="23.588177"><ele>2737.6</ele><time>2026-04-05T09:55:53.000Z</time></trkpt>
<trkpt lat="42.18347" lon="23.588171"><ele>2738.5</ele><time>2026-04-05T09:55:54.000Z</time></trkpt>
<trkpt lat="42.183467" lon="23.588165"><ele>2738.5</ele><time>2026-04-05T09:55:55.000Z</time></trkpt>
<trkpt lat="42.183464" lon="23.588159"><ele>2738.5</ele><time>2026-04-05T09:55:56.000Z</time></trkpt>
<trkpt lat="42.183461" lon="23.588153"><ele>2738.5</ele><time>2026-04-05T09:55:57.000Z</time></trkpt>
<trkpt lat="42.183457" lon="23.588146"><ele>2738.5</ele><time>2026-04-05T09:55:58.000Z</time></trkpt>
<trkpt lat="42.183453" lon="23.588139"><ele>2739.3</ele><time>2026-04-05T09:55:59.000Z</time></trkpt>
<trkpt lat="42.183449" lon="23.588133"><ele>2739.3</ele><time>2026-04-05T09:56:00.000Z</time></trkpt>
<trkpt lat="42.183445" lon="23.588127"><ele>2739.3</ele><time>2026-04-05T09:56:01.000Z</time></trkpt>
<trkpt lat="42.18344" lon="23.588121"><ele>2739.3</ele><time>2026-04-05T09:56:02.000Z</time></trkpt>
<trkpt lat="42.183435" lon="23.588115"><ele>2739.3</ele><time>2026-04-05T09:56:03.000Z</time></trkpt>
<trkpt lat="42.183429" lon="23.588109"><ele>2739.5</ele><time>2026-04-05T09:56:04.000Z</time></trkpt>
<trkpt lat="42.183424" lon="23.588105"><ele>2739.5</ele><time>2026-04-05T09:56:05.000Z</time></trkpt>
<trkpt lat="42.18342" lon="23.5881"><ele>2739.5</ele><time>2026-04-05T09:56:06.000Z</time></trkpt>
<trkpt lat="42.183416" lon="23.588095"><ele>2739.5</ele><time>2026-04-05T09:56:07.000Z</time></trkpt>
<trkpt lat="42.183412" lon="23.58809"><ele>2739.5</ele><time>2026-04-05T09:56:08.000Z</time></trkpt>
<trkpt lat="42.183408" lon="23.588084"><ele>2739.9</ele><time>2026-04-05T09:56:09.000Z</time></trkpt>
<trkpt lat="42.183404" lon="23.588077"><ele>2739.9</ele><time>2026-04-05T09:56:10.000Z</time></trkpt>
<trkpt lat="42.183399" lon="23.588069"><ele>2739.9</ele><time>2026-04-05T09:56:11.000Z</time></trkpt>
<trkpt lat="42.183393" lon="23.588061"><ele>2739.9</ele><time>2026-04-05T09:56:12.000Z</time></trkpt>
<trkpt lat="42.183387" lon="23.588053"><ele>2739.9</ele><time>2026-04-05T09:56:13.000Z</time></trkpt>
<trkpt lat="42.18338" lon="23.588046"><ele>2740.3</ele><time>2026-04-05T09:56:14.000Z</time></trkpt>
<trkpt lat="42.183373" lon="23.588039"><ele>2740.3</ele><time>2026-04-05T09:56:15.000Z</time></trkpt>
<trkpt lat="42.183366" lon="23.588033"><ele>2740.3</ele><time>2026-04-05T09:56:16.000Z</time></trkpt>
<trkpt lat="42.183359" lon="23.588026"><ele>2740.3</ele><time>2026-04-05T09:56:17.000Z</time></trkpt>
<trkpt lat="42.183354" lon="23.588021"><ele>2740.3</ele><time>2026-04-05T09:56:18.000Z</time></trkpt>
<trkpt lat="42.18335" lon="23.588017"><ele>2740.6</ele><time>2026-04-05T09:56:19.000Z</time></trkpt>
<trkpt lat="42.183348" lon="23.588013"><ele>2740.6</ele><time>2026-04-05T09:56:20.000Z</time></trkpt>
<trkpt lat="42.183346" lon="23.588011"><ele>2740.6</ele><time>2026-04-05T09:56:21.000Z</time></trkpt>
<trkpt lat="42.183346" lon="23.58801"><ele>2740.6</ele><time>2026-04-05T09:56:22.000Z</time></trkpt>
<trkpt lat="42.183346" lon="23.58801"><ele>2740.6</ele><time>2026-04-05T09:56:23.000Z</time></trkpt>
<trkpt lat="42.183346" lon="23.58801"><ele>2741.2</ele><time>2026-04-05T09:56:24.000Z</time></trkpt>
<trkpt lat="42.183346" lon="23.58801"><ele>2741.2</ele><time>2026-04-05T09:56:25.000Z</time></trkpt>
<trkpt lat="42.183344" lon="23.588008"><ele>2741.2</ele><time>2026-04-05T09:56:26.000Z</time></trkpt>
<trkpt lat="42.18334" lon="23.588004"><ele>2741.2</ele><time>2026-04-05T09:56:27.000Z</time></trkpt>
<trkpt lat="42.183336" lon="23.587998"><ele>2741.2</ele><time>2026-04-05T09:56:28.000Z</time></trkpt>
<trkpt lat="42.183331" lon="23.58799"><ele>2741.7</ele><time>2026-04-05T09:56:29.000Z</time></trkpt>
<trkpt lat="42.183324" lon="23.58798"><ele>2741.7</ele><time>2026-04-05T09:56:30.000Z</time></trkpt>
<trkpt lat="42.183318" lon="23.587972"><ele>2741.7</ele><time>2026-04-05T09:56:31.000Z</time></trkpt>
<trkpt lat="42.183313" lon="23.587964"><ele>2741.7</ele><time>2026-04-05T09:56:32.000Z</time></trkpt>
<trkpt lat="42.183308" lon="23.587957"><ele>2741.7</ele><time>2026-04-05T09:56:33.000Z</time></trkpt>
<trkpt lat="42.183302" lon="23.58795"><ele>2742</ele><time>2026-04-05T09:56:34.000Z</time></trkpt>
<trkpt lat="42.183297" lon="23.587942"><ele>2742</ele><time>2026-04-05T09:56:35.000Z</time></trkpt>
<trkpt lat="42.183292" lon="23.587934"><ele>2742</ele><time>2026-04-05T09:56:36.000Z</time></trkpt>
<trkpt lat="42.183287" lon="23.587927"><ele>2742</ele><time>2026-04-05T09:56:37.000Z</time></trkpt>
<trkpt lat="42.183282" lon="23.587919"><ele>2742</ele><time>2026-04-05T09:56:38.000Z</time></trkpt>
<trkpt lat="42.183277" lon="23.58791"><ele>2742.3</ele><time>2026-04-05T09:56:39.000Z</time></trkpt>
<trkpt lat="42.183273" lon="23.587903"><ele>2742.3</ele><time>2026-04-05T09:56:40.000Z</time></trkpt>
<trkpt lat="42.183268" lon="23.587896"><ele>2742.3</ele><time>2026-04-05T09:56:41.000Z</time></trkpt>
<trkpt lat="42.183264" lon="23.587888"><ele>2742.3</ele><time>2026-04-05T09:56:42.000Z</time></trkpt>
<trkpt lat="42.183261" lon="23.587879"><ele>2742.3</ele><time>2026-04-05T09:56:43.000Z</time></trkpt>
<trkpt lat="42.183258" lon="23.587871"><ele>2742.7</ele><time>2026-04-05T09:56:44.000Z</time></trkpt>
<trkpt lat="42.183254" lon="23.587862"><ele>2742.7</ele><time>2026-04-05T09:56:45.000Z</time></trkpt>
<trkpt lat="42.183251" lon="23.587854"><ele>2742.7</ele><time>2026-04-05T09:56:46.000Z</time></trkpt>
<trkpt lat="42.183247" lon="23.587845"><ele>2742.7</ele><time>2026-04-05T09:56:47.000Z</time></trkpt>
<trkpt lat="42.183244" lon="23.587837"><ele>2742.7</ele><time>2026-04-05T09:56:48.000Z</time></trkpt>
<trkpt lat="42.18324" lon="23.587829"><ele>2742.9</ele><time>2026-04-05T09:56:49.000Z</time></trkpt>
<trkpt lat="42.183237" lon="23.58782"><ele>2742.9</ele><time>2026-04-05T09:56:50.000Z</time></trkpt>
<trkpt lat="42.183233" lon="23.587812"><ele>2742.9</ele><time>2026-04-05T09:56:51.000Z</time></trkpt>
<trkpt lat="42.183229" lon="23.587805"><ele>2742.9</ele><time>2026-04-05T09:56:52.000Z</time></trkpt>
<trkpt lat="42.183224" lon="23.587798"><ele>2742.9</ele><time>2026-04-05T09:56:53.000Z</time></trkpt>
<trkpt lat="42.18322" lon="23.587791"><ele>2743.4</ele><time>2026-04-05T09:56:54.000Z</time></trkpt>
<trkpt lat="42.183217" lon="23.587785"><ele>2743.4</ele><time>2026-04-05T09:56:55.000Z</time></trkpt>
<trkpt lat="42.183212" lon="23.587777"><ele>2743.4</ele><time>2026-04-05T09:56:56.000Z</time></trkpt>
<trkpt lat="42.183207" lon="23.58777"><ele>2743.4</ele><time>2026-04-05T09:56:57.000Z</time></trkpt>
<trkpt lat="42.183203" lon="23.587764"><ele>2743.4</ele><time>2026-04-05T09:56:58.000Z</time></trkpt>
<trkpt lat="42.183198" lon="23.587756"><ele>2744</ele><time>2026-04-05T09:56:59.000Z</time></trkpt>
<trkpt lat="42.183192" lon="23.587748"><ele>2744</ele><time>2026-04-05T09:57:00.000Z</time></trkpt>
<trkpt lat="42.183187" lon="23.587741"><ele>2744</ele><time>2026-04-05T09:57:01.000Z</time></trkpt>
<trkpt lat="42.183183" lon="23.587734"><ele>2744</ele><time>2026-04-05T09:57:02.000Z</time></trkpt>
<trkpt lat="42.183178" lon="23.587726"><ele>2744</ele><time>2026-04-05T09:57:03.000Z</time></trkpt>
<trkpt lat="42.183174" lon="23.587718"><ele>2744.2</ele><time>2026-04-05T09:57:04.000Z</time></trkpt>
<trkpt lat="42.183171" lon="23.587711"><ele>2744.2</ele><time>2026-04-05T09:57:05.000Z</time></trkpt>
<trkpt lat="42.183168" lon="23.587705"><ele>2744.2</ele><time>2026-04-05T09:57:06.000Z</time></trkpt>
<trkpt lat="42.183165" lon="23.587696"><ele>2744.2</ele><time>2026-04-05T09:57:07.000Z</time></trkpt>
<trkpt lat="42.183162" lon="23.58769"><ele>2744.2</ele><time>2026-04-05T09:57:08.000Z</time></trkpt>
<trkpt lat="42.18316" lon="23.587684"><ele>2744.8</ele><time>2026-04-05T09:57:09.000Z</time></trkpt>
<trkpt lat="42.183159" lon="23.587676"><ele>2744.8</ele><time>2026-04-05T09:57:10.000Z</time></trkpt>
<trkpt lat="42.183158" lon="23.587669"><ele>2744.8</ele><time>2026-04-05T09:57:11.000Z</time></trkpt>
<trkpt lat="42.183158" lon="23.587664"><ele>2744.8</ele><time>2026-04-05T09:57:12.000Z</time></trkpt>
<trkpt lat="42.183159" lon="23.587658"><ele>2744.8</ele><time>2026-04-05T09:57:13.000Z</time></trkpt>
<trkpt lat="42.183159" lon="23.587653"><ele>2745.5</ele><time>2026-04-05T09:57:14.000Z</time></trkpt>
<trkpt lat="42.183159" lon="23.587648"><ele>2745.5</ele><time>2026-04-05T09:57:15.000Z</time></trkpt>
<trkpt lat="42.183159" lon="23.587642"><ele>2745.5</ele><time>2026-04-05T09:57:16.000Z</time></trkpt>
<trkpt lat="42.183159" lon="23.587635"><ele>2745.5</ele><time>2026-04-05T09:57:17.000Z</time></trkpt>
<trkpt lat="42.183158" lon="23.587629"><ele>2745.5</ele><time>2026-04-05T09:57:18.000Z</time></trkpt>
<trkpt lat="42.183158" lon="23.587621"><ele>2745.8</ele><time>2026-04-05T09:57:19.000Z</time></trkpt>
<trkpt lat="42.183157" lon="23.587612"><ele>2745.8</ele><time>2026-04-05T09:57:20.000Z</time></trkpt>
<trkpt lat="42.183156" lon="23.587606"><ele>2745.8</ele><time>2026-04-05T09:57:21.000Z</time></trkpt>
<trkpt lat="42.183155" lon="23.587598"><ele>2745.8</ele><time>2026-04-05T09:57:22.000Z</time></trkpt>
<trkpt lat="42.183152" lon="23.587591"><ele>2745.8</ele><time>2026-04-05T09:57:23.000Z</time></trkpt>
<trkpt lat="42.18315" lon="23.587584"><ele>2746.7</ele><time>2026-04-05T09:57:24.000Z</time></trkpt>
<trkpt lat="42.183147" lon="23.587577"><ele>2746.7</ele><time>2026-04-05T09:57:25.000Z</time></trkpt>
<trkpt lat="42.183145" lon="23.58757"><ele>2746.7</ele><time>2026-04-05T09:57:26.000Z</time></trkpt>
<trkpt lat="42.183141" lon="23.587563"><ele>2746.7</ele><time>2026-04-05T09:57:27.000Z</time></trkpt>
<trkpt lat="42.183139" lon="23.587554"><ele>2746.7</ele><time>2026-04-05T09:57:28.000Z</time></trkpt>
<trkpt lat="42.183136" lon="23.587546"><ele>2747.4</ele><time>2026-04-05T09:57:29.000Z</time></trkpt>
<trkpt lat="42.183135" lon="23.587539"><ele>2747.4</ele><time>2026-04-05T09:57:30.000Z</time></trkpt>
<trkpt lat="42.183134" lon="23.58753"><ele>2747.4</ele><time>2026-04-05T09:57:31.000Z</time></trkpt>
<trkpt lat="42.183133" lon="23.587522"><ele>2747.4</ele><time>2026-04-05T09:57:32.000Z</time></trkpt>
<trkpt lat="42.183133" lon="23.587516"><ele>2747.4</ele><time>2026-04-05T09:57:33.000Z</time></trkpt>
<trkpt lat="42.183132" lon="23.587508"><ele>2747.7</ele><time>2026-04-05T09:57:34.000Z</time></trkpt>
<trkpt lat="42.183131" lon="23.587499"><ele>2747.7</ele><time>2026-04-05T09:57:35.000Z</time></trkpt>
<trkpt lat="42.18313" lon="23.587492"><ele>2747.7</ele><time>2026-04-05T09:57:36.000Z</time></trkpt>
<trkpt lat="42.183129" lon="23.587484"><ele>2747.7</ele><time>2026-04-05T09:57:37.000Z</time></trkpt>
<trkpt lat="42.183128" lon="23.587475"><ele>2747.7</ele><time>2026-04-05T09:57:38.000Z</time></trkpt>
<trkpt lat="42.183127" lon="23.587468"><ele>2748.6</ele><time>2026-04-05T09:57:39.000Z</time></trkpt>
<trkpt lat="42.183125" lon="23.587462"><ele>2748.6</ele><time>2026-04-05T09:57:40.000Z</time></trkpt>
<trkpt lat="42.183123" lon="23.587456"><ele>2748.6</ele><time>2026-04-05T09:57:41.000Z</time></trkpt>
<trkpt lat="42.18312" lon="23.587449"><ele>2748.6</ele><time>2026-04-05T09:57:42.000Z</time></trkpt>
<trkpt lat="42.183117" lon="23.587443"><ele>2748.6</ele><time>2026-04-05T09:57:43.000Z</time></trkpt>
<trkpt lat="42.183113" lon="23.587438"><ele>2749.6</ele><time>2026-04-05T09:57:44.000Z</time></trkpt>
<trkpt lat="42.183109" lon="23.587431"><ele>2749.6</ele><time>2026-04-05T09:57:45.000Z</time></trkpt>
<trkpt lat="42.183105" lon="23.587425"><ele>2749.6</ele><time>2026-04-05T09:57:46.000Z</time></trkpt>
<trkpt lat="42.183101" lon="23.58742"><ele>2749.6</ele><time>2026-04-05T09:57:47.000Z</time></trkpt>
<trkpt lat="42.183098" lon="23.587416"><ele>2749.6</ele><time>2026-04-05T09:57:48.000Z</time></trkpt>
<trkpt lat="42.183094" lon="23.58741"><ele>2750</ele><time>2026-04-05T09:57:49.000Z</time></trkpt>
<trkpt lat="42.183091" lon="23.587406"><ele>2750</ele><time>2026-04-05T09:57:50.000Z</time></trkpt>
<trkpt lat="42.183088" lon="23.5874"><ele>2750</ele><time>2026-04-05T09:57:51.000Z</time></trkpt>
<trkpt lat="42.183085" lon="23.587396"><ele>2750</ele><time>2026-04-05T09:57:52.000Z</time></trkpt>
<trkpt lat="42.183083" lon="23.587391"><ele>2750</ele><time>2026-04-05T09:57:53.000Z</time></trkpt>
<trkpt lat="42.18308" lon="23.587387"><ele>2750.7</ele><time>2026-04-05T09:57:54.000Z</time></trkpt>
<trkpt lat="42.183078" lon="23.587382"><ele>2750.7</ele><time>2026-04-05T09:57:55.000Z</time></trkpt>
<trkpt lat="42.183076" lon="23.587376"><ele>2750.7</ele><time>2026-04-05T09:57:56.000Z</time></trkpt>
<trkpt lat="42.183073" lon="23.58737"><ele>2750.7</ele><time>2026-04-05T09:57:57.000Z</time></trkpt>
<trkpt lat="42.183071" lon="23.587363"><ele>2750.7</ele><time>2026-04-05T09:57:58.000Z</time></trkpt>
<trkpt lat="42.183068" lon="23.587354"><ele>2751.3</ele><time>2026-04-05T09:57:59.000Z</time></trkpt>
<trkpt lat="42.183066" lon="23.587346"><ele>2751.3</ele><time>2026-04-05T09:58:00.000Z</time></trkpt>
<trkpt lat="42.183064" lon="23.587339"><ele>2751.3</ele><time>2026-04-05T09:58:01.000Z</time></trkpt>
<trkpt lat="42.183062" lon="23.58733"><ele>2751.3</ele><time>2026-04-05T09:58:02.000Z</time></trkpt>
<trkpt lat="42.18306" lon="23.587322"><ele>2751.3</ele><time>2026-04-05T09:58:03.000Z</time></trkpt>
<trkpt lat="42.183057" lon="23.587315"><ele>2751.7</ele><time>2026-04-05T09:58:04.000Z</time></trkpt>
<trkpt lat="42.183054" lon="23.587306"><ele>2751.7</ele><time>2026-04-05T09:58:05.000Z</time></trkpt>
<trkpt lat="42.18305" lon="23.587298"><ele>2751.7</ele><time>2026-04-05T09:58:06.000Z</time></trkpt>
<trkpt lat="42.183048" lon="23.587292"><ele>2751.7</ele><time>2026-04-05T09:58:07.000Z</time></trkpt>
<trkpt lat="42.183045" lon="23.587286"><ele>2751.7</ele><time>2026-04-05T09:58:08.000Z</time></trkpt>
<trkpt lat="42.183043" lon="23.587282"><ele>2752.4</ele><time>2026-04-05T09:58:09.000Z</time></trkpt>
<trkpt lat="42.183042" lon="23.58728"><ele>2752.4</ele><time>2026-04-05T09:58:10.000Z</time></trkpt>
<trkpt lat="42.183042" lon="23.58728"><ele>2752.4</ele><time>2026-04-05T09:58:11.000Z</time></trkpt>
<trkpt lat="42.183041" lon="23.587279"><ele>2752.4</ele><time>2026-04-05T09:58:12.000Z</time></trkpt>
<trkpt lat="42.183041" lon="23.587278"><ele>2752.4</ele><time>2026-04-05T09:58:13.000Z</time></trkpt>
<trkpt lat="42.183039" lon="23.587277"><ele>2753.1</ele><time>2026-04-05T09:58:14.000Z</time></trkpt>
<trkpt lat="42.183035" lon="23.587274"><ele>2753.1</ele><time>2026-04-05T09:58:15.000Z</time></trkpt>
<trkpt lat="42.183032" lon="23.587269"><ele>2753.1</ele><time>2026-04-05T09:58:16.000Z</time></trkpt>
<trkpt lat="42.183028" lon="23.587264"><ele>2753.1</ele><time>2026-04-05T09:58:17.000Z</time></trkpt>
<trkpt lat="42.183025" lon="23.587259"><ele>2753.1</ele><time>2026-04-05T09:58:18.000Z</time></trkpt>
<trkpt lat="42.183022" lon="23.587253"><ele>2753.5</ele><time>2026-04-05T09:58:19.000Z</time></trkpt>
<trkpt lat="42.183019" lon="23.587246"><ele>2753.5</ele><time>2026-04-05T09:58:20.000Z</time></trkpt>
<trkpt lat="42.183017" lon="23.58724"><ele>2753.5</ele><time>2026-04-05T09:58:21.000Z</time></trkpt>
<trkpt lat="42.183015" lon="23.587234"><ele>2753.5</ele><time>2026-04-05T09:58:22.000Z</time></trkpt>
<trkpt lat="42.183013" lon="23.587227"><ele>2753.5</ele><time>2026-04-05T09:58:23.000Z</time></trkpt>
<trkpt lat="42.183011" lon="23.58722"><ele>2754</ele><time>2026-04-05T09:58:24.000Z</time></trkpt>
<trkpt lat="42.18301" lon="23.587213"><ele>2754</ele><time>2026-04-05T09:58:25.000Z</time></trkpt>
<trkpt lat="42.183008" lon="23.587205"><ele>2754</ele><time>2026-04-05T09:58:26.000Z</time></trkpt>
<trkpt lat="42.183005" lon="23.587197"><ele>2754</ele><time>2026-04-05T09:58:27.000Z</time></trkpt>
<trkpt lat="42.183003" lon="23.587191"><ele>2754</ele><time>2026-04-05T09:58:28.000Z</time></trkpt>
<trkpt lat="42.183001" lon="23.587184"><ele>2754.5</ele><time>2026-04-05T09:58:29.000Z</time></trkpt>
<trkpt lat="42.182999" lon="23.587177"><ele>2754.5</ele><time>2026-04-05T09:58:30.000Z</time></trkpt>
<trkpt lat="42.182997" lon="23.587171"><ele>2754.5</ele><time>2026-04-05T09:58:31.000Z</time></trkpt>
<trkpt lat="42.182995" lon="23.587165"><ele>2754.5</ele><time>2026-04-05T09:58:32.000Z</time></trkpt>
<trkpt lat="42.182993" lon="23.587158"><ele>2754.5</ele><time>2026-04-05T09:58:33.000Z</time></trkpt>
<trkpt lat="42.18299" lon="23.587152"><ele>2754.8</ele><time>2026-04-05T09:58:34.000Z</time></trkpt>
<trkpt lat="42.182988" lon="23.587147"><ele>2754.8</ele><time>2026-04-05T09:58:35.000Z</time></trkpt>
<trkpt lat="42.182984" lon="23.587141"><ele>2754.8</ele><time>2026-04-05T09:58:36.000Z</time></trkpt>
<trkpt lat="42.182981" lon="23.587135"><ele>2754.8</ele><time>2026-04-05T09:58:37.000Z</time></trkpt>
<trkpt lat="42.182978" lon="23.587128"><ele>2754.8</ele><time>2026-04-05T09:58:38.000Z</time></trkpt>
<trkpt lat="42.182975" lon="23.587121"><ele>2755.7</ele><time>2026-04-05T09:58:39.000Z</time></trkpt>
<trkpt lat="42.182972" lon="23.587113"><ele>2755.7</ele><time>2026-04-05T09:58:40.000Z</time></trkpt>
<trkpt lat="42.182969" lon="23.587105"><ele>2755.7</ele><time>2026-04-05T09:58:41.000Z</time></trkpt>
<trkpt lat="42.182966" lon="23.587098"><ele>2755.7</ele><time>2026-04-05T09:58:42.000Z</time></trkpt>
<trkpt lat="42.182964" lon="23.587092"><ele>2755.7</ele><time>2026-04-05T09:58:43.000Z</time></trkpt>
<trkpt lat="42.182962" lon="23.587085"><ele>2756.7</ele><time>2026-04-05T09:58:44.000Z</time></trkpt>
<trkpt lat="42.182959" lon="23.587078"><ele>2756.7</ele><time>2026-04-05T09:58:45.000Z</time></trkpt>
<trkpt lat="42.182957" lon="23.587072"><ele>2756.7</ele><time>2026-04-05T09:58:46.000Z</time></trkpt>
<trkpt lat="42.182954" lon="23.587065"><ele>2756.7</ele><time>2026-04-05T09:58:47.000Z</time></trkpt>
<trkpt lat="42.182951" lon="23.587059"><ele>2756.7</ele><time>2026-04-05T09:58:48.000Z</time></trkpt>
<trkpt lat="42.182949" lon="23.587054"><ele>2757.3</ele><time>2026-04-05T09:58:49.000Z</time></trkpt>
<trkpt lat="42.182948" lon="23.587051"><ele>2757.3</ele><time>2026-04-05T09:58:50.000Z</time></trkpt>
<trkpt lat="42.182947" lon="23.587048"><ele>2757.3</ele><time>2026-04-05T09:58:51.000Z</time></trkpt>
<trkpt lat="42.182946" lon="23.587046"><ele>2757.3</ele><time>2026-04-05T09:58:52.000Z</time></trkpt>
<trkpt lat="42.182945" lon="23.587043"><ele>2757.3</ele><time>2026-04-05T09:58:53.000Z</time></trkpt>
<trkpt lat="42.182943" lon="23.58704"><ele>2758.4</ele><time>2026-04-05T09:58:54.000Z</time></trkpt>
<trkpt lat="42.182941" lon="23.587035"><ele>2758.4</ele><time>2026-04-05T09:58:55.000Z</time></trkpt>
<trkpt lat="42.18294" lon="23.587028"><ele>2758.4</ele><time>2026-04-05T09:58:56.000Z</time></trkpt>
<trkpt lat="42.182938" lon="23.58702"><ele>2758.4</ele><time>2026-04-05T09:58:57.000Z</time></trkpt>
<trkpt lat="42.182936" lon="23.587014"><ele>2758.4</ele><time>2026-04-05T09:58:58.000Z</time></trkpt>
<trkpt lat="42.182935" lon="23.587006"><ele>2759.3</ele><time>2026-04-05T09:58:59.000Z</time></trkpt>
<trkpt lat="42.182933" lon="23.586999"><ele>2759.3</ele><time>2026-04-05T09:59:00.000Z</time></trkpt>
<trkpt lat="42.182931" lon="23.586992"><ele>2759.3</ele><time>2026-04-05T09:59:01.000Z</time></trkpt>
<trkpt lat="42.18293" lon="23.586985"><ele>2759.3</ele><time>2026-04-05T09:59:02.000Z</time></trkpt>
<trkpt lat="42.182928" lon="23.586978"><ele>2759.3</ele><time>2026-04-05T09:59:03.000Z</time></trkpt>
<trkpt lat="42.182926" lon="23.586972"><ele>2759.7</ele><time>2026-04-05T09:59:04.000Z</time></trkpt>
<trkpt lat="42.182924" lon="23.586965"><ele>2759.7</ele><time>2026-04-05T09:59:05.000Z</time></trkpt>
<trkpt lat="42.182921" lon="23.586958"><ele>2759.7</ele><time>2026-04-05T09:59:06.000Z</time></trkpt>
<trkpt lat="42.182919" lon="23.586951"><ele>2759.7</ele><time>2026-04-05T09:59:07.000Z</time></trkpt>
<trkpt lat="42.182917" lon="23.586944"><ele>2759.7</ele><time>2026-04-05T09:59:08.000Z</time></trkpt>
<trkpt lat="42.182915" lon="23.586935"><ele>2760.3</ele><time>2026-04-05T09:59:09.000Z</time></trkpt>
<trkpt lat="42.182913" lon="23.586927"><ele>2760.3</ele><time>2026-04-05T09:59:10.000Z</time></trkpt>
<trkpt lat="42.182912" lon="23.58692"><ele>2760.3</ele><time>2026-04-05T09:59:11.000Z</time></trkpt>
<trkpt lat="42.18291" lon="23.586911"><ele>2760.3</ele><time>2026-04-05T09:59:12.000Z</time></trkpt>
<trkpt lat="42.182908" lon="23.586904"><ele>2760.3</ele><time>2026-04-05T09:59:13.000Z</time></trkpt>
<trkpt lat="42.182907" lon="23.5869"><ele>2761.1</ele><time>2026-04-05T09:59:14.000Z</time></trkpt>
<trkpt lat="42.182904" lon="23.586895"><ele>2761.1</ele><time>2026-04-05T09:59:15.000Z</time></trkpt>
<trkpt lat="42.182902" lon="23.58689"><ele>2761.1</ele><time>2026-04-05T09:59:16.000Z</time></trkpt>
<trkpt lat="42.1829" lon="23.586884"><ele>2761.1</ele><time>2026-04-05T09:59:17.000Z</time></trkpt>
<trkpt lat="42.182897" lon="23.586878"><ele>2761.1</ele><time>2026-04-05T09:59:18.000Z</time></trkpt>
<trkpt lat="42.182894" lon="23.58687"><ele>2761.6</ele><time>2026-04-05T09:59:19.000Z</time></trkpt>
<trkpt lat="42.182892" lon="23.586862"><ele>2761.6</ele><time>2026-04-05T09:59:20.000Z</time></trkpt>
<trkpt lat="42.182889" lon="23.586853"><ele>2761.6</ele><time>2026-04-05T09:59:21.000Z</time></trkpt>
<trkpt lat="42.182887" lon="23.586844"><ele>2761.6</ele><time>2026-04-05T09:59:22.000Z</time></trkpt>
<trkpt lat="42.182884" lon="23.586836"><ele>2761.6</ele><time>2026-04-05T09:59:23.000Z</time></trkpt>
<trkpt lat="42.182882" lon="23.586828"><ele>2762.6</ele><time>2026-04-05T09:59:24.000Z</time></trkpt>
<trkpt lat="42.182879" lon="23.586818"><ele>2762.6</ele><time>2026-04-05T09:59:25.000Z</time></trkpt>
<trkpt lat="42.182876" lon="23.586809"><ele>2762.6</ele><time>2026-04-05T09:59:26.000Z</time></trkpt>
<trkpt lat="42.182874" lon="23.586801"><ele>2762.6</ele><time>2026-04-05T09:59:27.000Z</time></trkpt>
<trkpt lat="42.182872" lon="23.586793"><ele>2762.6</ele><time>2026-04-05T09:59:28.000Z</time></trkpt>
<trkpt lat="42.18287" lon="23.586783"><ele>2763.5</ele><time>2026-04-05T09:59:29.000Z</time></trkpt>
<trkpt lat="42.182868" lon="23.586776"><ele>2763.5</ele><time>2026-04-05T09:59:30.000Z</time></trkpt>
<trkpt lat="42.182866" lon="23.58677"><ele>2763.5</ele><time>2026-04-05T09:59:31.000Z</time></trkpt>
<trkpt lat="42.182865" lon="23.586764"><ele>2763.5</ele><time>2026-04-05T09:59:32.000Z</time></trkpt>
<trkpt lat="42.182863" lon="23.586757"><ele>2763.5</ele><time>2026-04-05T09:59:33.000Z</time></trkpt>
<trkpt lat="42.182861" lon="23.58675"><ele>2763.9</ele><time>2026-04-05T09:59:34.000Z</time></trkpt>
<trkpt lat="42.182859" lon="23.586741"><ele>2763.9</ele><time>2026-04-05T09:59:35.000Z</time></trkpt>
<trkpt lat="42.182856" lon="23.586732"><ele>2763.9</ele><time>2026-04-05T09:59:36.000Z</time></trkpt>
<trkpt lat="42.182853" lon="23.586722"><ele>2763.9</ele><time>2026-04-05T09:59:37.000Z</time></trkpt>
<trkpt lat="42.18285" lon="23.586712"><ele>2763.9</ele><time>2026-04-05T09:59:38.000Z</time></trkpt>
<trkpt lat="42.182846" lon="23.586702"><ele>2764.7</ele><time>2026-04-05T09:59:39.000Z</time></trkpt>
<trkpt lat="42.182843" lon="23.586693"><ele>2764.7</ele><time>2026-04-05T09:59:40.000Z</time></trkpt>
<trkpt lat="42.18284" lon="23.586683"><ele>2764.7</ele><time>2026-04-05T09:59:41.000Z</time></trkpt>
<trkpt lat="42.182837" lon="23.586674"><ele>2764.7</ele><time>2026-04-05T09:59:42.000Z</time></trkpt>
<trkpt lat="42.182835" lon="23.586667"><ele>2764.7</ele><time>2026-04-05T09:59:43.000Z</time></trkpt>
<trkpt lat="42.182833" lon="23.586661"><ele>2765.5</ele><time>2026-04-05T09:59:44.000Z</time></trkpt>
<trkpt lat="42.182829" lon="23.586653"><ele>2765.5</ele><time>2026-04-05T09:59:45.000Z</time></trkpt>
<trkpt lat="42.182826" lon="23.586646"><ele>2765.5</ele><time>2026-04-05T09:59:46.000Z</time></trkpt>
<trkpt lat="42.182822" lon="23.586637"><ele>2765.5</ele><time>2026-04-05T09:59:47.000Z</time></trkpt>
<trkpt lat="42.182817" lon="23.586627"><ele>2765.5</ele><time>2026-04-05T09:59:48.000Z</time></trkpt>
<trkpt lat="42.182813" lon="23.586618"><ele>2765.9</ele><time>2026-04-05T09:59:49.000Z</time></trkpt>
<trkpt lat="42.182809" lon="23.58661"><ele>2765.9</ele><time>2026-04-05T09:59:50.000Z</time></trkpt>
<trkpt lat="42.182804" lon="23.5866"><ele>2765.9</ele><time>2026-04-05T09:59:51.000Z</time></trkpt>
<trkpt lat="42.1828" lon="23.586591"><ele>2765.9</ele><time>2026-04-05T09:59:52.000Z</time></trkpt>
<trkpt lat="42.182797" lon="23.586583"><ele>2765.9</ele><time>2026-04-05T09:59:53.000Z</time></trkpt>
<trkpt lat="42.182794" lon="23.586575"><ele>2766.6</ele><time>2026-04-05T09:59:54.000Z</time></trkpt>
<trkpt lat="42.182791" lon="23.586565"><ele>2766.6</ele><time>2026-04-05T09:59:55.000Z</time></trkpt>
<trkpt lat="42.182788" lon="23.586557"><ele>2766.6</ele><time>2026-04-05T09:59:56.000Z</time></trkpt>
<trkpt lat="42.182787" lon="23.58655"><ele>2766.6</ele><time>2026-04-05T09:59:57.000Z</time></trkpt>
<trkpt lat="42.182785" lon="23.586543"><ele>2766.6</ele><time>2026-04-05T09:59:58.000Z</time></trkpt>
<trkpt lat="42.182785" lon="23.586537"><ele>2767.2</ele><time>2026-04-05T09:59:59.000Z</time></trkpt>
<trkpt lat="42.182785" lon="23.586533"><ele>2767.2</ele><time>2026-04-05T10:00:00.000Z</time></trkpt>
<trkpt lat="42.182786" lon="23.58653"><ele>2767.2</ele><time>2026-04-05T10:00:01.000Z</time></trkpt>
<trkpt lat="42.182786" lon="23.586528"><ele>2767.2</ele><time>2026-04-05T10:00:02.000Z</time></trkpt>
<trkpt lat="42.182787" lon="23.586526"><ele>2767.2</ele><time>2026-04-05T10:00:03.000Z</time></trkpt>
<trkpt lat="42.182787" lon="23.586524"><ele>2767.4</ele><time>2026-04-05T10:00:04.000Z</time></trkpt>
<trkpt lat="42.182787" lon="23.586522"><ele>2767.4</ele><time>2026-04-05T10:00:05.000Z</time></trkpt>
<trkpt lat="42.182787" lon="23.586521"><ele>2767.4</ele><time>2026-04-05T10:00:06.000Z</time></trkpt>
<trkpt lat="42.182786" lon="23.58652"><ele>2767.4</ele><time>2026-04-05T10:00:07.000Z</time></trkpt>
<trkpt lat="42.182784" lon="23.586518"><ele>2767.4</ele><time>2026-04-05T10:00:08.000Z</time></trkpt>
<trkpt lat="42.182783" lon="23.586514"><ele>2768.1</ele><time>2026-04-05T10:00:09.000Z</time></trkpt>
<trkpt lat="42.182782" lon="23.586509"><ele>2768.1</ele><time>2026-04-05T10:00:10.000Z</time></trkpt>
<trkpt lat="42.18278" lon="23.586503"><ele>2768.1</ele><time>2026-04-05T10:00:11.000Z</time></trkpt>
<trkpt lat="42.182778" lon="23.586495"><ele>2768.1</ele><time>2026-04-05T10:00:12.000Z</time></trkpt>
<trkpt lat="42.182777" lon="23.586488"><ele>2768.1</ele><time>2026-04-05T10:00:13.000Z</time></trkpt>
<trkpt lat="42.182774" lon="23.586481"><ele>2768.6</ele><time>2026-04-05T10:00:14.000Z</time></trkpt>
<trkpt lat="42.18277" lon="23.586474"><ele>2768.6</ele><time>2026-04-05T10:00:15.000Z</time></trkpt>
<trkpt lat="42.182767" lon="23.586468"><ele>2768.6</ele><time>2026-04-05T10:00:16.000Z</time></trkpt>
<trkpt lat="42.182763" lon="23.586461"><ele>2768.6</ele><time>2026-04-05T10:00:17.000Z</time></trkpt>
<trkpt lat="42.18276" lon="23.586456"><ele>2768.6</ele><time>2026-04-05T10:00:18.000Z</time></trkpt>
<trkpt lat="42.182757" lon="23.586451"><ele>2768.8</ele><time>2026-04-05T10:00:19.000Z</time></trkpt>
<trkpt lat="42.182756" lon="23.586447"><ele>2768.8</ele><time>2026-04-05T10:00:20.000Z</time></trkpt>
<trkpt lat="42.182755" lon="23.586444"><ele>2768.8</ele><time>2026-04-05T10:00:21.000Z</time></trkpt>
<trkpt lat="42.182755" lon="23.586443"><ele>2768.8</ele><time>2026-04-05T10:00:22.000Z</time></trkpt>
<trkpt lat="42.182756" lon="23.586441"><ele>2768.8</ele><time>2026-04-05T10:00:23.000Z</time></trkpt>
<trkpt lat="42.182756" lon="23.586441"><ele>2769</ele><time>2026-04-05T10:00:24.000Z</time></trkpt>
<trkpt lat="42.182756" lon="23.586441"><ele>2769</ele><time>2026-04-05T10:00:25.000Z</time></trkpt>
<trkpt lat="42.182757" lon="23.586439"><ele>2769</ele><time>2026-04-05T10:00:26.000Z</time></trkpt>
<trkpt lat="42.182756" lon="23.586438"><ele>2769</ele><time>2026-04-05T10:00:27.000Z</time></trkpt>
<trkpt lat="42.182756" lon="23.586437"><ele>2769</ele><time>2026-04-05T10:00:28.000Z</time></trkpt>
<trkpt lat="42.182755" lon="23.586436"><ele>2769.2</ele><time>2026-04-05T10:00:29.000Z</time></trkpt>
<trkpt lat="42.182754" lon="23.586435"><ele>2769.2</ele><time>2026-04-05T10:00:30.000Z</time></trkpt>
<trkpt lat="42.182754" lon="23.586435"><ele>2769.2</ele><time>2026-04-05T10:00:31.000Z</time></trkpt>
<trkpt lat="42.182753" lon="23.586435"><ele>2769.2</ele><time>2026-04-05T10:00:32.000Z</time></trkpt>
<trkpt lat="42.182752" lon="23.586435"><ele>2769.2</ele><time>2026-04-05T10:00:33.000Z</time></trkpt>
<trkpt lat="42.182751" lon="23.586434"><ele>2769.4</ele><time>2026-04-05T10:00:34.000Z</time></trkpt>
<trkpt lat="42.18275" lon="23.586433"><ele>2769.4</ele><time>2026-04-05T10:00:35.000Z</time></trkpt>
<trkpt lat="42.182749" lon="23.586432"><ele>2769.4</ele><time>2026-04-05T10:00:36.000Z</time></trkpt>
<trkpt lat="42.182748" lon="23.586431"><ele>2769.4</ele><time>2026-04-05T10:00:37.000Z</time></trkpt>
<trkpt lat="42.182747" lon="23.58643"><ele>2769.4</ele><time>2026-04-05T10:00:38.000Z</time></trkpt>
<trkpt lat="42.182748" lon="23.58643"><ele>2769.6</ele><time>2026-04-05T10:00:39.000Z</time></trkpt>
<trkpt lat="42.182748" lon="23.58643"><ele>2769.6</ele><time>2026-04-05T10:00:40.000Z</time></trkpt>
<trkpt lat="42.182748" lon="23.58643"><ele>2769.6</ele><time>2026-04-05T10:00:41.000Z</time></trkpt>
<trkpt lat="42.182748" lon="23.586431"><ele>2769.6</ele><time>2026-04-05T10:00:42.000Z</time></trkpt>
<trkpt lat="42.182749" lon="23.586432"><ele>2769.6</ele><time>2026-04-05T10:00:43.000Z</time></trkpt>
<trkpt lat="42.182749" lon="23.586433"><ele>2769.7</ele><time>2026-04-05T10:00:44.000Z</time></trkpt>
<trkpt lat="42.182749" lon="23.586434"><ele>2769.7</ele><time>2026-04-05T10:00:45.000Z</time></trkpt>
<trkpt lat="42.182749" lon="23.586434"><ele>2769.7</ele><time>2026-04-05T10:00:46.000Z</time></trkpt>
<trkpt lat="42.18275" lon="23.586435"><ele>2769.7</ele><time>2026-04-05T10:00:47.000Z</time></trkpt>
<trkpt lat="42.18275" lon="23.586435"><ele>2769.7</ele><time>2026-04-05T10:00:48.000Z</time></trkpt>
<trkpt lat="42.18275" lon="23.586434"><ele>2769.8</ele><time>2026-04-05T10:00:49.000Z</time></trkpt>
<trkpt lat="42.18275" lon="23.586433"><ele>2769.8</ele><time>2026-04-05T10:00:50.000Z</time></trkpt>
<trkpt lat="42.18275" lon="23.586433"><ele>2769.8</ele><time>2026-04-05T10:00:51.000Z</time></trkpt>
<trkpt lat="42.18275" lon="23.586432"><ele>2769.8</ele><time>2026-04-05T10:00:52.000Z</time></trkpt>
<trkpt lat="42.18275" lon="23.586432"><ele>2769.8</ele><time>2026-04-05T10:00:53.000Z</time></trkpt>
<trkpt lat="42.18275" lon="23.586431"><ele>2769.8</ele><time>2026-04-05T10:00:54.000Z</time></trkpt>
<trkpt lat="42.18275" lon="23.586431"><ele>2769.8</ele><time>2026-04-05T10:00:55.000Z</time></trkpt>
<trkpt lat="42.182749" lon="23.58643"><ele>2769.8</ele><time>2026-04-05T10:00:56.000Z</time></trkpt>
<trkpt lat="42.182749" lon="23.58643"><ele>2769.8</ele><time>2026-04-05T10:00:57.000Z</time></trkpt>
<trkpt lat="42.182749" lon="23.58643"><ele>2769.8</ele><time>2026-04-05T10:00:58.000Z</time></trkpt>
<trkpt lat="42.182749" lon="23.586431"><ele>2769.9</ele><time>2026-04-05T10:00:59.000Z</time></trkpt>
<trkpt lat="42.182749" lon="23.586431"><ele>2769.9</ele><time>2026-04-05T10:01:00.000Z</time></trkpt>
<trkpt lat="42.182749" lon="23.586431"><ele>2769.9</ele><time>2026-04-05T10:01:01.000Z</time></trkpt>
<trkpt lat="42.182749" lon="23.586431"><ele>2769.9</ele><time>2026-04-05T10:01:02.000Z</time></trkpt>
<trkpt lat="42.182749" lon="23.586431"><ele>2769.9</ele><time>2026-04-05T10:01:03.000Z</time></trkpt>
<trkpt lat="42.182749" lon="23.586431"><ele>2769.8</ele><time>2026-04-05T10:01:04.000Z</time></trkpt>
<trkpt lat="42.182749" lon="23.586431"><ele>2769.8</ele><time>2026-04-05T10:01:05.000Z</time></trkpt>
<trkpt lat="42.182749" lon="23.586431"><ele>2769.8</ele><time>2026-04-05T10:01:06.000Z</time></trkpt>
<trkpt lat="42.182749" lon="23.586431"><ele>2769.8</ele><time>2026-04-05T10:01:07.000Z</time></trkpt>
<trkpt lat="42.182749" lon="23.586431"><ele>2769.8</ele><time>2026-04-05T10:01:08.000Z</time></trkpt>
<trkpt lat="42.182749" lon="23.58643"><ele>2769.7</ele><time>2026-04-05T10:01:09.000Z</time></trkpt>
<trkpt lat="42.182749" lon="23.58643"><ele>2769.7</ele><time>2026-04-05T10:01:10.000Z</time></trkpt>
<trkpt lat="42.182749" lon="23.586429"><ele>2769.7</ele><time>2026-04-05T10:01:11.000Z</time></trkpt>
<trkpt lat="42.182749" lon="23.586429"><ele>2769.7</ele><time>2026-04-05T10:01:12.000Z</time></trkpt>
<trkpt lat="42.18275" lon="23.586429"><ele>2769.7</ele><time>2026-04-05T10:01:13.000Z</time></trkpt>
<trkpt lat="42.182749" lon="23.586429"><ele>2769.6</ele><time>2026-04-05T10:01:14.000Z</time></trkpt>
<trkpt lat="42.182749" lon="23.586429"><ele>2769.6</ele><time>2026-04-05T10:01:15.000Z</time></trkpt>
<trkpt lat="42.182749" lon="23.586428"><ele>2769.6</ele><time>2026-04-05T10:01:16.000Z</time></trkpt>
<trkpt lat="42.182749" lon="23.586428"><ele>2769.6</ele><time>2026-04-05T10:01:17.000Z</time></trkpt>
<trkpt lat="42.182749" lon="23.586427"><ele>2769.6</ele><time>2026-04-05T10:01:18.000Z</time></trkpt>
<trkpt lat="42.182748" lon="23.586426"><ele>2769.6</ele><time>2026-04-05T10:01:19.000Z</time></trkpt>
<trkpt lat="42.182748" lon="23.586425"><ele>2769.6</ele><time>2026-04-05T10:01:20.000Z</time></trkpt>
<trkpt lat="42.182747" lon="23.586425"><ele>2769.6</ele><time>2026-04-05T10:01:21.000Z</time></trkpt>
<trkpt lat="42.182746" lon="23.586425"><ele>2769.6</ele><time>2026-04-05T10:01:22.000Z</time></trkpt>
<trkpt lat="42.182745" lon="23.586425"><ele>2769.6</ele><time>2026-04-05T10:01:23.000Z</time></trkpt>
<trkpt lat="42.182744" lon="23.586425"><ele>2769.7</ele><time>2026-04-05T10:01:24.000Z</time></trkpt>
<trkpt lat="42.182744" lon="23.586425"><ele>2769.7</ele><time>2026-04-05T10:01:25.000Z</time></trkpt>
<trkpt lat="42.182744" lon="23.586425"><ele>2769.7</ele><time>2026-04-05T10:01:26.000Z</time></trkpt>
<trkpt lat="42.182744" lon="23.586425"><ele>2769.7</ele><time>2026-04-05T10:01:27.000Z</time></trkpt>
<trkpt lat="42.182744" lon="23.586425"><ele>2769.7</ele><time>2026-04-05T10:01:28.000Z</time></trkpt>
<trkpt lat="42.182744" lon="23.586425"><ele>2769.7</ele><time>2026-04-05T10:01:29.000Z</time></trkpt>
<trkpt lat="42.182745" lon="23.586425"><ele>2769.7</ele><time>2026-04-05T10:01:30.000Z</time></trkpt>
<trkpt lat="42.182745" lon="23.586426"><ele>2769.7</ele><time>2026-04-05T10:01:31.000Z</time></trkpt>
<trkpt lat="42.182745" lon="23.586426"><ele>2769.7</ele><time>2026-04-05T10:01:32.000Z</time></trkpt>
<trkpt lat="42.182745" lon="23.586426"><ele>2769.7</ele><time>2026-04-05T10:01:33.000Z</time></trkpt>
<trkpt lat="42.182746" lon="23.586426"><ele>2769.7</ele><time>2026-04-05T10:01:34.000Z</time></trkpt>
<trkpt lat="42.182745" lon="23.586425"><ele>2769.7</ele><time>2026-04-05T10:01:35.000Z</time></trkpt>
<trkpt lat="42.182746" lon="23.586426"><ele>2769.7</ele><time>2026-04-05T10:01:36.000Z</time></trkpt>
<trkpt lat="42.182746" lon="23.586425"><ele>2769.7</ele><time>2026-04-05T10:01:37.000Z</time></trkpt>
<trkpt lat="42.182746" lon="23.586425"><ele>2769.7</ele><time>2026-04-05T10:01:38.000Z</time></trkpt>
<trkpt lat="42.182746" lon="23.586425"><ele>2769.7</ele><time>2026-04-05T10:01:39.000Z</time></trkpt>
<trkpt lat="42.182747" lon="23.586425"><ele>2769.7</ele><time>2026-04-05T10:01:40.000Z</time></trkpt>
<trkpt lat="42.182747" lon="23.586425"><ele>2769.7</ele><time>2026-04-05T10:01:41.000Z</time></trkpt>
<trkpt lat="42.182748" lon="23.586426"><ele>2769.7</ele><time>2026-04-05T10:01:42.000Z</time></trkpt>
<trkpt lat="42.182748" lon="23.586427"><ele>2769.7</ele><time>2026-04-05T10:01:43.000Z</time></trkpt>
<trkpt lat="42.182749" lon="23.586427"><ele>2769.8</ele><time>2026-04-05T10:01:44.000Z</time></trkpt>
<trkpt lat="42.18275" lon="23.586428"><ele>2769.8</ele><time>2026-04-05T10:01:45.000Z</time></trkpt>
<trkpt lat="42.18275" lon="23.586429"><ele>2769.8</ele><time>2026-04-05T10:01:46.000Z</time></trkpt>
<trkpt lat="42.18275" lon="23.58643"><ele>2769.8</ele><time>2026-04-05T10:01:47.000Z</time></trkpt>
<trkpt lat="42.18275" lon="23.586431"><ele>2769.8</ele><time>2026-04-05T10:01:48.000Z</time></trkpt>
<trkpt lat="42.182749" lon="23.586431"><ele>2769.9</ele><time>2026-04-05T10:01:49.000Z</time></trkpt>
<trkpt lat="42.182749" lon="23.586431"><ele>2769.9</ele><time>2026-04-05T10:01:50.000Z</time></trkpt>
<trkpt lat="42.182749" lon="23.586431"><ele>2769.9</ele><time>2026-04-05T10:01:51.000Z</time></trkpt>
<trkpt lat="42.18275" lon="23.586431"><ele>2769.9</ele><time>2026-04-05T10:01:52.000Z</time></trkpt>
<trkpt lat="42.18275" lon="23.586431"><ele>2769.9</ele><time>2026-04-05T10:01:53.000Z</time></trkpt>
<trkpt lat="42.18275" lon="23.586431"><ele>2770</ele><time>2026-04-05T10:01:54.000Z</time></trkpt>
<trkpt lat="42.18275" lon="23.586431"><ele>2770</ele><time>2026-04-05T10:01:55.000Z</time></trkpt>
<trkpt lat="42.182751" lon="23.58643"><ele>2770</ele><time>2026-04-05T10:01:56.000Z</time></trkpt>
<trkpt lat="42.182751" lon="23.58643"><ele>2770</ele><time>2026-04-05T10:01:57.000Z</time></trkpt>
<trkpt lat="42.182751" lon="23.586429"><ele>2770</ele><time>2026-04-05T10:01:58.000Z</time></trkpt>
<trkpt lat="42.182751" lon="23.586428"><ele>2769.7</ele><time>2026-04-05T10:01:59.000Z</time></trkpt>
<trkpt lat="42.182752" lon="23.586428"><ele>2769.7</ele><time>2026-04-05T10:02:00.000Z</time></trkpt>
<trkpt lat="42.182752" lon="23.586427"><ele>2769.7</ele><time>2026-04-05T10:02:01.000Z</time></trkpt>
<trkpt lat="42.182752" lon="23.586426"><ele>2769.7</ele><time>2026-04-05T10:02:02.000Z</time></trkpt>
<trkpt lat="42.182752" lon="23.586425"><ele>2769.7</ele><time>2026-04-05T10:02:03.000Z</time></trkpt>
<trkpt lat="42.182752" lon="23.586426"><ele>2769.6</ele><time>2026-04-05T10:02:04.000Z</time></trkpt>
<trkpt lat="42.182752" lon="23.586426"><ele>2769.6</ele><time>2026-04-05T10:02:05.000Z</time></trkpt>
<trkpt lat="42.182753" lon="23.586426"><ele>2769.6</ele><time>2026-04-05T10:02:06.000Z</time></trkpt>
<trkpt lat="42.182753" lon="23.586427"><ele>2769.6</ele><time>2026-04-05T10:02:07.000Z</time></trkpt>
<trkpt lat="42.182753" lon="23.586427"><ele>2769.6</ele><time>2026-04-05T10:02:08.000Z</time></trkpt>
<trkpt lat="42.182753" lon="23.586427"><ele>2769.6</ele><time>2026-04-05T10:02:09.000Z</time></trkpt>
<trkpt lat="42.182754" lon="23.586426"><ele>2769.6</ele><time>2026-04-05T10:02:10.000Z</time></trkpt>
<trkpt lat="42.182754" lon="23.586426"><ele>2769.6</ele><time>2026-04-05T10:02:11.000Z</time></trkpt>
<trkpt lat="42.182754" lon="23.586425"><ele>2769.6</ele><time>2026-04-05T10:02:12.000Z</time></trkpt>
<trkpt lat="42.182754" lon="23.586424"><ele>2769.6</ele><time>2026-04-05T10:02:13.000Z</time></trkpt>
<trkpt lat="42.182754" lon="23.586424"><ele>2769.6</ele><time>2026-04-05T10:02:14.000Z</time></trkpt>
<trkpt lat="42.182754" lon="23.586423"><ele>2769.6</ele><time>2026-04-05T10:02:15.000Z</time></trkpt>
<trkpt lat="42.182754" lon="23.586422"><ele>2769.6</ele><time>2026-04-05T10:02:16.000Z</time></trkpt>
<trkpt lat="42.182754" lon="23.586422"><ele>2769.6</ele><time>2026-04-05T10:02:17.000Z</time></trkpt>
<trkpt lat="42.182754" lon="23.586422"><ele>2769.6</ele><time>2026-04-05T10:02:18.000Z</time></trkpt>
<trkpt lat="42.182754" lon="23.586424"><ele>2769.7</ele><time>2026-04-05T10:02:19.000Z</time></trkpt>
<trkpt lat="42.182754" lon="23.586424"><ele>2769.7</ele><time>2026-04-05T10:02:20.000Z</time></trkpt>
<trkpt lat="42.182754" lon="23.586426"><ele>2769.7</ele><time>2026-04-05T10:02:21.000Z</time></trkpt>
<trkpt lat="42.182753" lon="23.586427"><ele>2769.7</ele><time>2026-04-05T10:02:22.000Z</time></trkpt>
<trkpt lat="42.182753" lon="23.586428"><ele>2769.7</ele><time>2026-04-05T10:02:23.000Z</time></trkpt>
<trkpt lat="42.182752" lon="23.586428"><ele>2769.7</ele><time>2026-04-05T10:02:24.000Z</time></trkpt>
<trkpt lat="42.182752" lon="23.586429"><ele>2769.7</ele><time>2026-04-05T10:02:25.000Z</time></trkpt>
<trkpt lat="42.182752" lon="23.58643"><ele>2769.7</ele><time>2026-04-05T10:02:26.000Z</time></trkpt>
<trkpt lat="42.182752" lon="23.586431"><ele>2769.7</ele><time>2026-04-05T10:02:27.000Z</time></trkpt>
<trkpt lat="42.182752" lon="23.586432"><ele>2769.7</ele><time>2026-04-05T10:02:28.000Z</time></trkpt>
<trkpt lat="42.182752" lon="23.586433"><ele>2769.7</ele><time>2026-04-05T10:02:29.000Z</time></trkpt>
<trkpt lat="42.182752" lon="23.586434"><ele>2769.7</ele><time>2026-04-05T10:02:30.000Z</time></trkpt>
<trkpt lat="42.182752" lon="23.586435"><ele>2769.7</ele><time>2026-04-05T10:02:31.000Z</time></trkpt>
<trkpt lat="42.182752" lon="23.586436"><ele>2769.7</ele><time>2026-04-05T10:02:32.000Z</time></trkpt>
<trkpt lat="42.182752" lon="23.586437"><ele>2769.7</ele><time>2026-04-05T10:02:33.000Z</time></trkpt>
<trkpt lat="42.182752" lon="23.586437"><ele>2769.7</ele><time>2026-04-05T10:02:34.000Z</time></trkpt>
<trkpt lat="42.182752" lon="23.586437"><ele>2769.7</ele><time>2026-04-05T10:02:35.000Z</time></trkpt>
<trkpt lat="42.182752" lon="23.586437"><ele>2769.7</ele><time>2026-04-05T10:02:36.000Z</time></trkpt>
<trkpt lat="42.182752" lon="23.586437"><ele>2769.7</ele><time>2026-04-05T10:02:37.000Z</time></trkpt>
<trkpt lat="42.182752" lon="23.586437"><ele>2769.7</ele><time>2026-04-05T10:02:38.000Z</time></trkpt>
<trkpt lat="42.182752" lon="23.586437"><ele>2769.8</ele><time>2026-04-05T10:02:39.000Z</time></trkpt>
<trkpt lat="42.182752" lon="23.586437"><ele>2769.8</ele><time>2026-04-05T10:02:40.000Z</time></trkpt>
<trkpt lat="42.182752" lon="23.586437"><ele>2769.8</ele><time>2026-04-05T10:02:41.000Z</time></trkpt>
<trkpt lat="42.182752" lon="23.586438"><ele>2769.8</ele><time>2026-04-05T10:02:42.000Z</time></trkpt>
<trkpt lat="42.182752" lon="23.586438"><ele>2769.8</ele><time>2026-04-05T10:02:43.000Z</time></trkpt>
<trkpt lat="42.182752" lon="23.586438"><ele>2769.9</ele><time>2026-04-05T10:02:44.000Z</time></trkpt>
<trkpt lat="42.182753" lon="23.586438"><ele>2769.9</ele><time>2026-04-05T10:02:45.000Z</time></trkpt>
<trkpt lat="42.182753" lon="23.586439"><ele>2769.9</ele><time>2026-04-05T10:02:46.000Z</time></trkpt>
<trkpt lat="42.182754" lon="23.586439"><ele>2769.9</ele><time>2026-04-05T10:02:47.000Z</time></trkpt>
<trkpt lat="42.182754" lon="23.586439"><ele>2769.9</ele><time>2026-04-05T10:02:48.000Z</time></trkpt>
<trkpt lat="42.182754" lon="23.586439"><ele>2769.9</ele><time>2026-04-05T10:02:49.000Z</time></trkpt>
<trkpt lat="42.182755" lon="23.586438"><ele>2769.9</ele><time>2026-04-05T10:02:50.000Z</time></trkpt>
<trkpt lat="42.182755" lon="23.586438"><ele>2769.9</ele><time>2026-04-05T10:02:51.000Z</time></trkpt>
<trkpt lat="42.182755" lon="23.586437"><ele>2769.9</ele><time>2026-04-05T10:02:52.000Z</time></trkpt>
<trkpt lat="42.182756" lon="23.586438"><ele>2769.9</ele><time>2026-04-05T10:02:53.000Z</time></trkpt>
<trkpt lat="42.182755" lon="23.586437"><ele>2769.9</ele><time>2026-04-05T10:02:54.000Z</time></trkpt>
<trkpt lat="42.182755" lon="23.586438"><ele>2769.9</ele><time>2026-04-05T10:02:55.000Z</time></trkpt>
<trkpt lat="42.182755" lon="23.586438"><ele>2769.9</ele><time>2026-04-05T10:02:56.000Z</time></trkpt>
<trkpt lat="42.182755" lon="23.586437"><ele>2769.9</ele><time>2026-04-05T10:02:57.000Z</time></trkpt>
<trkpt lat="42.182755" lon="23.586434"><ele>2769.9</ele><time>2026-04-05T10:02:58.000Z</time></trkpt>
<trkpt lat="42.182755" lon="23.586433"><ele>2770</ele><time>2026-04-05T10:02:59.000Z</time></trkpt>
<trkpt lat="42.182755" lon="23.586431"><ele>2770</ele><time>2026-04-05T10:03:00.000Z</time></trkpt>
<trkpt lat="42.182755" lon="23.586432"><ele>2770</ele><time>2026-04-05T10:03:01.000Z</time></trkpt>
<trkpt lat="42.182755" lon="23.586432"><ele>2770</ele><time>2026-04-05T10:03:02.000Z</time></trkpt>
<trkpt lat="42.182755" lon="23.586434"><ele>2770</ele><time>2026-04-05T10:03:03.000Z</time></trkpt>
<trkpt lat="42.182756" lon="23.586436"><ele>2770</ele><time>2026-04-05T10:03:04.000Z</time></trkpt>
<trkpt lat="42.182756" lon="23.586437"><ele>2770</ele><time>2026-04-05T10:03:05.000Z</time></trkpt>
<trkpt lat="42.182755" lon="23.586437"><ele>2770</ele><time>2026-04-05T10:03:06.000Z</time></trkpt>
<trkpt lat="42.182754" lon="23.586437"><ele>2770</ele><time>2026-04-05T10:03:07.000Z</time></trkpt>
<trkpt lat="42.182754" lon="23.586437"><ele>2770</ele><time>2026-04-05T10:03:08.000Z</time></trkpt>
<trkpt lat="42.182753" lon="23.586438"><ele>2770</ele><time>2026-04-05T10:03:09.000Z</time></trkpt>
<trkpt lat="42.182752" lon="23.586438"><ele>2770</ele><time>2026-04-05T10:03:10.000Z</time></trkpt>
<trkpt lat="42.182753" lon="23.586438"><ele>2770</ele><time>2026-04-05T10:03:11.000Z</time></trkpt>
<trkpt lat="42.182754" lon="23.586439"><ele>2770</ele><time>2026-04-05T10:03:12.000Z</time></trkpt>
<trkpt lat="42.182754" lon="23.586439"><ele>2770</ele><time>2026-04-05T10:03:13.000Z</time></trkpt>
<trkpt lat="42.182755" lon="23.586439"><ele>2770</ele><time>2026-04-05T10:03:14.000Z</time></trkpt>
<trkpt lat="42.182755" lon="23.58644"><ele>2770</ele><time>2026-04-05T10:03:15.000Z</time></trkpt>
<trkpt lat="42.182755" lon="23.58644"><ele>2770</ele><time>2026-04-05T10:03:16.000Z</time></trkpt>
<trkpt lat="42.182755" lon="23.58644"><ele>2770</ele><time>2026-04-05T10:03:17.000Z</time></trkpt>
<trkpt lat="42.182755" lon="23.58644"><ele>2770</ele><time>2026-04-05T10:03:18.000Z</time></trkpt>
<trkpt lat="42.182755" lon="23.58644"><ele>2770</ele><time>2026-04-05T10:03:19.000Z</time></trkpt>
<trkpt lat="42.182755" lon="23.58644"><ele>2770</ele><time>2026-04-05T10:03:20.000Z</time></trkpt>
<trkpt lat="42.182755" lon="23.58644"><ele>2770</ele><time>2026-04-05T10:03:21.000Z</time></trkpt>
<trkpt lat="42.182755" lon="23.58644"><ele>2770</ele><time>2026-04-05T10:03:22.000Z</time></trkpt>
<trkpt lat="42.182755" lon="23.58644"><ele>2770</ele><time>2026-04-05T10:03:23.000Z</time></trkpt>
<trkpt lat="42.182755" lon="23.58644"><ele>2769.8</ele><time>2026-04-05T10:03:24.000Z</time></trkpt>
<trkpt lat="42.182755" lon="23.58644"><ele>2769.8</ele><time>2026-04-05T10:03:25.000Z</time></trkpt>
<trkpt lat="42.182755" lon="23.58644"><ele>2769.8</ele><time>2026-04-05T10:03:26.000Z</time></trkpt>
<trkpt lat="42.182755" lon="23.586439"><ele>2769.8</ele><time>2026-04-05T10:03:27.000Z</time></trkpt>
<trkpt lat="42.182755" lon="23.586439"><ele>2769.8</ele><time>2026-04-05T10:03:28.000Z</time></trkpt>
<trkpt lat="42.182755" lon="23.586439"><ele>2769.5</ele><time>2026-04-05T10:03:29.000Z</time></trkpt>
<trkpt lat="42.182755" lon="23.586439"><ele>2769.5</ele><time>2026-04-05T10:03:30.000Z</time></trkpt>
<trkpt lat="42.182755" lon="23.586438"><ele>2769.5</ele><time>2026-04-05T10:03:31.000Z</time></trkpt>
<trkpt lat="42.182755" lon="23.586438"><ele>2769.5</ele><time>2026-04-05T10:03:32.000Z</time></trkpt>
<trkpt lat="42.182755" lon="23.586438"><ele>2769.5</ele><time>2026-04-05T10:03:33.000Z</time></trkpt>
<trkpt lat="42.182755" lon="23.586438"><ele>2769.4</ele><time>2026-04-05T10:03:34.000Z</time></trkpt>
<trkpt lat="42.182755" lon="23.586438"><ele>2769.4</ele><time>2026-04-05T10:03:35.000Z</time></trkpt>
<trkpt lat="42.182756" lon="23.586439"><ele>2769.4</ele><time>2026-04-05T10:03:36.000Z</time></trkpt>
<trkpt lat="42.182756" lon="23.586439"><ele>2769.4</ele><time>2026-04-05T10:03:37.000Z</time></trkpt>
<trkpt lat="42.182756" lon="23.586439"><ele>2769.4</ele><time>2026-04-05T10:03:38.000Z</time></trkpt>
<trkpt lat="42.182757" lon="23.586439"><ele>2769.5</ele><time>2026-04-05T10:03:39.000Z</time></trkpt>
<trkpt lat="42.182757" lon="23.58644"><ele>2769.5</ele><time>2026-04-05T10:03:40.000Z</time></trkpt>
<trkpt lat="42.182757" lon="23.58644"><ele>2769.5</ele><time>2026-04-05T10:03:41.000Z</time></trkpt>
<trkpt lat="42.182756" lon="23.58644"><ele>2769.5</ele><time>2026-04-05T10:03:42.000Z</time></trkpt>
<trkpt lat="42.182756" lon="23.58644"><ele>2769.5</ele><time>2026-04-05T10:03:43.000Z</time></trkpt>
<trkpt lat="42.182757" lon="23.58644"><ele>2769.6</ele><time>2026-04-05T10:03:44.000Z</time></trkpt>
<trkpt lat="42.182757" lon="23.58644"><ele>2769.6</ele><time>2026-04-05T10:03:45.000Z</time></trkpt>
<trkpt lat="42.182757" lon="23.58644"><ele>2769.6</ele><time>2026-04-05T10:03:46.000Z</time></trkpt>
<trkpt lat="42.182757" lon="23.58644"><ele>2769.6</ele><time>2026-04-05T10:03:47.000Z</time></trkpt>
<trkpt lat="42.182757" lon="23.586441"><ele>2769.6</ele><time>2026-04-05T10:03:48.000Z</time></trkpt>
<trkpt lat="42.182757" lon="23.586441"><ele>2769.6</ele><time>2026-04-05T10:03:49.000Z</time></trkpt>
<trkpt lat="42.182756" lon="23.586441"><ele>2769.6</ele><time>2026-04-05T10:03:50.000Z</time></trkpt>
<trkpt lat="42.182756" lon="23.586442"><ele>2769.6</ele><time>2026-04-05T10:03:51.000Z</time></trkpt>
<trkpt lat="42.182757" lon="23.586442"><ele>2769.6</ele><time>2026-04-05T10:03:52.000Z</time></trkpt>
<trkpt lat="42.182758" lon="23.586442"><ele>2769.6</ele><time>2026-04-05T10:03:53.000Z</time></trkpt>
<trkpt lat="42.182758" lon="23.586443"><ele>2769.8</ele><time>2026-04-05T10:03:54.000Z</time></trkpt>
<trkpt lat="42.182759" lon="23.586443"><ele>2769.8</ele><time>2026-04-05T10:03:55.000Z</time></trkpt>
<trkpt lat="42.182758" lon="23.586443"><ele>2769.8</ele><time>2026-04-05T10:03:56.000Z</time></trkpt>
<trkpt lat="42.182758" lon="23.586443"><ele>2769.8</ele><time>2026-04-05T10:03:57.000Z</time></trkpt>
<trkpt lat="42.182757" lon="23.586444"><ele>2769.8</ele><time>2026-04-05T10:03:58.000Z</time></trkpt>
<trkpt lat="42.182757" lon="23.586444"><ele>2770.1</ele><time>2026-04-05T10:03:59.000Z</time></trkpt>
<trkpt lat="42.182757" lon="23.586443"><ele>2770.1</ele><time>2026-04-05T10:04:00.000Z</time></trkpt>
<trkpt lat="42.182756" lon="23.586443"><ele>2770.1</ele><time>2026-04-05T10:04:01.000Z</time></trkpt>
<trkpt lat="42.182755" lon="23.586442"><ele>2770.1</ele><time>2026-04-05T10:04:02.000Z</time></trkpt>
<trkpt lat="42.182754" lon="23.586442"><ele>2770.1</ele><time>2026-04-05T10:04:03.000Z</time></trkpt>
<trkpt lat="42.182753" lon="23.586441"><ele>2770.1</ele><time>2026-04-05T10:04:04.000Z</time></trkpt>
<trkpt lat="42.182753" lon="23.586441"><ele>2770.1</ele><time>2026-04-05T10:04:05.000Z</time></trkpt>
<trkpt lat="42.182754" lon="23.586441"><ele>2770.1</ele><time>2026-04-05T10:04:06.000Z</time></trkpt>
<trkpt lat="42.182755" lon="23.586439"><ele>2770.1</ele><time>2026-04-05T10:04:07.000Z</time></trkpt>
<trkpt lat="42.182756" lon="23.586437"><ele>2770.1</ele><time>2026-04-05T10:04:08.000Z</time></trkpt>
<trkpt lat="42.182756" lon="23.586435"><ele>2770.1</ele><time>2026-04-05T10:04:09.000Z</time></trkpt>
<trkpt lat="42.182757" lon="23.586433"><ele>2770.1</ele><time>2026-04-05T10:04:10.000Z</time></trkpt>
<trkpt lat="42.182757" lon="23.586431"><ele>2770.1</ele><time>2026-04-05T10:04:11.000Z</time></trkpt>
<trkpt lat="42.182757" lon="23.58643"><ele>2770.1</ele><time>2026-04-05T10:04:12.000Z</time></trkpt>
<trkpt lat="42.182757" lon="23.586429"><ele>2770.1</ele><time>2026-04-05T10:04:13.000Z</time></trkpt>
<trkpt lat="42.182756" lon="23.586428"><ele>2769.8</ele><time>2026-04-05T10:04:14.000Z</time></trkpt>
<trkpt lat="42.182755" lon="23.586427"><ele>2769.8</ele><time>2026-04-05T10:04:15.000Z</time></trkpt>
<trkpt lat="42.182755" lon="23.586427"><ele>2769.8</ele><time>2026-04-05T10:04:16.000Z</time></trkpt>
<trkpt lat="42.182755" lon="23.586427"><ele>2769.8</ele><time>2026-04-05T10:04:17.000Z</time></trkpt>
<trkpt lat="42.182754" lon="23.586427"><ele>2769.8</ele><time>2026-04-05T10:04:18.000Z</time></trkpt>
<trkpt lat="42.182754" lon="23.586427"><ele>2769.7</ele><time>2026-04-05T10:04:19.000Z</time></trkpt>
<trkpt lat="42.182754" lon="23.586427"><ele>2769.7</ele><time>2026-04-05T10:04:20.000Z</time></trkpt>
<trkpt lat="42.182754" lon="23.586427"><ele>2769.7</ele><time>2026-04-05T10:04:21.000Z</time></trkpt>
<trkpt lat="42.182754" lon="23.586427"><ele>2769.7</ele><time>2026-04-05T10:04:22.000Z</time></trkpt>
<trkpt lat="42.182754" lon="23.586427"><ele>2769.7</ele><time>2026-04-05T10:04:23.000Z</time></trkpt>
<trkpt lat="42.182754" lon="23.586427"><ele>2769.5</ele><time>2026-04-05T10:04:24.000Z</time></trkpt>
<trkpt lat="42.182754" lon="23.586427"><ele>2769.5</ele><time>2026-04-05T10:04:25.000Z</time></trkpt>
<trkpt lat="42.182754" lon="23.586427"><ele>2769.5</ele><time>2026-04-05T10:04:26.000Z</time></trkpt>
<trkpt lat="42.182754" lon="23.586427"><ele>2769.5</ele><time>2026-04-05T10:04:27.000Z</time></trkpt>
<trkpt lat="42.182754" lon="23.586427"><ele>2769.5</ele><time>2026-04-05T10:04:28.000Z</time></trkpt>
<trkpt lat="42.182754" lon="23.586427"><ele>2769.4</ele><time>2026-04-05T10:04:29.000Z</time></trkpt>
<trkpt lat="42.182755" lon="23.586427"><ele>2769.4</ele><time>2026-04-05T10:04:30.000Z</time></trkpt>
<trkpt lat="42.182755" lon="23.586427"><ele>2769.4</ele><time>2026-04-05T10:04:31.000Z</time></trkpt>
<trkpt lat="42.182755" lon="23.586427"><ele>2769.4</ele><time>2026-04-05T10:04:32.000Z</time></trkpt>
<trkpt lat="42.182756" lon="23.586427"><ele>2769.4</ele><time>2026-04-05T10:04:33.000Z</time></trkpt>
<trkpt lat="42.182756" lon="23.586427"><ele>2769.5</ele><time>2026-04-05T10:04:34.000Z</time></trkpt>
<trkpt lat="42.182756" lon="23.586427"><ele>2769.5</ele><time>2026-04-05T10:04:35.000Z</time></trkpt>
<trkpt lat="42.182756" lon="23.586426"><ele>2769.5</ele><time>2026-04-05T10:04:36.000Z</time></trkpt>
<trkpt lat="42.182756" lon="23.586425"><ele>2769.5</ele><time>2026-04-05T10:04:37.000Z</time></trkpt>
<trkpt lat="42.182757" lon="23.586425"><ele>2769.5</ele><time>2026-04-05T10:04:38.000Z</time></trkpt>
<trkpt lat="42.182757" lon="23.586424"><ele>2769.6</ele><time>2026-04-05T10:04:39.000Z</time></trkpt>
<trkpt lat="42.182757" lon="23.586424"><ele>2769.6</ele><time>2026-04-05T10:04:40.000Z</time></trkpt>
<trkpt lat="42.182757" lon="23.586424"><ele>2769.6</ele><time>2026-04-05T10:04:41.000Z</time></trkpt>
<trkpt lat="42.182757" lon="23.586424"><ele>2769.6</ele><time>2026-04-05T10:04:42.000Z</time></trkpt>
<trkpt lat="42.182758" lon="23.586425"><ele>2769.6</ele><time>2026-04-05T10:04:43.000Z</time></trkpt>
<trkpt lat="42.182759" lon="23.586425"><ele>2769.8</ele><time>2026-04-05T10:04:44.000Z</time></trkpt>
<trkpt lat="42.182759" lon="23.586425"><ele>2769.8</ele><time>2026-04-05T10:04:45.000Z</time></trkpt>
<trkpt lat="42.182759" lon="23.586425"><ele>2769.8</ele><time>2026-04-05T10:04:46.000Z</time></trkpt>
<trkpt lat="42.182759" lon="23.586424"><ele>2769.8</ele><time>2026-04-05T10:04:47.000Z</time></trkpt>
<trkpt lat="42.182759" lon="23.586424"><ele>2769.8</ele><time>2026-04-05T10:04:48.000Z</time></trkpt>
<trkpt lat="42.182759" lon="23.586423"><ele>2769.8</ele><time>2026-04-05T10:04:49.000Z</time></trkpt>
<trkpt lat="42.182758" lon="23.586422"><ele>2769.8</ele><time>2026-04-05T10:04:50.000Z</time></trkpt>
<trkpt lat="42.182759" lon="23.586421"><ele>2769.8</ele><time>2026-04-05T10:04:51.000Z</time></trkpt>
<trkpt lat="42.18276" lon="23.58642"><ele>2769.8</ele><time>2026-04-05T10:04:52.000Z</time></trkpt>
<trkpt lat="42.18276" lon="23.586419"><ele>2769.8</ele><time>2026-04-05T10:04:53.000Z</time></trkpt>
<trkpt lat="42.182761" lon="23.586418"><ele>2769.7</ele><time>2026-04-05T10:04:54.000Z</time></trkpt>
<trkpt lat="42.182762" lon="23.586418"><ele>2769.7</ele><time>2026-04-05T10:04:55.000Z</time></trkpt>
<trkpt lat="42.182762" lon="23.586419"><ele>2769.7</ele><time>2026-04-05T10:04:56.000Z</time></trkpt>
<trkpt lat="42.182763" lon="23.586419"><ele>2769.7</ele><time>2026-04-05T10:04:57.000Z</time></trkpt>
<trkpt lat="42.182763" lon="23.58642"><ele>2769.7</ele><time>2026-04-05T10:04:58.000Z</time></trkpt>
<trkpt lat="42.182763" lon="23.58642"><ele>2769.5</ele><time>2026-04-05T10:04:59.000Z</time></trkpt>
<trkpt lat="42.182762" lon="23.586421"><ele>2769.5</ele><time>2026-04-05T10:05:00.000Z</time></trkpt>
<trkpt lat="42.182761" lon="23.586421"><ele>2769.5</ele><time>2026-04-05T10:05:01.000Z</time></trkpt>
<trkpt lat="42.18276" lon="23.586423"><ele>2769.5</ele><time>2026-04-05T10:05:02.000Z</time></trkpt>
<trkpt lat="42.182758" lon="23.586424"><ele>2769.5</ele><time>2026-04-05T10:05:03.000Z</time></trkpt>
<trkpt lat="42.182758" lon="23.586427"><ele>2769.4</ele><time>2026-04-05T10:05:04.000Z</time></trkpt>
<trkpt lat="42.182757" lon="23.586429"><ele>2769.4</ele><time>2026-04-05T10:05:05.000Z</time></trkpt>
<trkpt lat="42.182757" lon="23.586433"><ele>2769.4</ele><time>2026-04-05T10:05:06.000Z</time></trkpt>
<trkpt lat="42.182758" lon="23.586435"><ele>2769.4</ele><time>2026-04-05T10:05:07.000Z</time></trkpt>
<trkpt lat="42.182758" lon="23.586438"><ele>2769.4</ele><time>2026-04-05T10:05:08.000Z</time></trkpt>
<trkpt lat="42.182758" lon="23.58644"><ele>2769.4</ele><time>2026-04-05T10:05:09.000Z</time></trkpt>
<trkpt lat="42.182758" lon="23.586442"><ele>2769.4</ele><time>2026-04-05T10:05:10.000Z</time></trkpt>
<trkpt lat="42.182758" lon="23.586442"><ele>2769.4</ele><time>2026-04-05T10:05:11.000Z</time></trkpt>
<trkpt lat="42.182758" lon="23.586443"><ele>2769.4</ele><time>2026-04-05T10:05:12.000Z</time></trkpt>
<trkpt lat="42.182758" lon="23.586443"><ele>2769.4</ele><time>2026-04-05T10:05:13.000Z</time></trkpt>
<trkpt lat="42.182758" lon="23.586444"><ele>2769.4</ele><time>2026-04-05T10:05:14.000Z</time></trkpt>
<trkpt lat="42.182758" lon="23.586444"><ele>2769.4</ele><time>2026-04-05T10:05:15.000Z</time></trkpt>
<trkpt lat="42.182758" lon="23.586445"><ele>2769.4</ele><time>2026-04-05T10:05:16.000Z</time></trkpt>
<trkpt lat="42.182758" lon="23.586445"><ele>2769.4</ele><time>2026-04-05T10:05:17.000Z</time></trkpt>
<trkpt lat="42.182758" lon="23.586446"><ele>2769.4</ele><time>2026-04-05T10:05:18.000Z</time></trkpt>
<trkpt lat="42.182759" lon="23.586447"><ele>2769.4</ele><time>2026-04-05T10:05:19.000Z</time></trkpt>
<trkpt lat="42.182759" lon="23.586447"><ele>2769.4</ele><time>2026-04-05T10:05:20.000Z</time></trkpt>
<trkpt lat="42.182759" lon="23.586448"><ele>2769.4</ele><time>2026-04-05T10:05:21.000Z</time></trkpt>
<trkpt lat="42.182759" lon="23.586447"><ele>2769.4</ele><time>2026-04-05T10:05:22.000Z</time></trkpt>
<trkpt lat="42.182759" lon="23.586446"><ele>2769.4</ele><time>2026-04-05T10:05:23.000Z</time></trkpt>
<trkpt lat="42.182759" lon="23.586445"><ele>2769.5</ele><time>2026-04-05T10:05:24.000Z</time></trkpt>
<trkpt lat="42.18276" lon="23.586444"><ele>2769.5</ele><time>2026-04-05T10:05:25.000Z</time></trkpt>
<trkpt lat="42.18276" lon="23.586443"><ele>2769.5</ele><time>2026-04-05T10:05:26.000Z</time></trkpt>
<trkpt lat="42.18276" lon="23.586442"><ele>2769.5</ele><time>2026-04-05T10:05:27.000Z</time></trkpt>
<trkpt lat="42.182759" lon="23.586441"><ele>2769.5</ele><time>2026-04-05T10:05:28.000Z</time></trkpt>
<trkpt lat="42.182759" lon="23.586441"><ele>2769.5</ele><time>2026-04-05T10:05:29.000Z</time></trkpt>
<trkpt lat="42.182759" lon="23.586441"><ele>2769.5</ele><time>2026-04-05T10:05:30.000Z</time></trkpt>
<trkpt lat="42.182759" lon="23.586441"><ele>2769.5</ele><time>2026-04-05T10:05:31.000Z</time></trkpt>
<trkpt lat="42.182759" lon="23.586441"><ele>2769.5</ele><time>2026-04-05T10:05:32.000Z</time></trkpt>
<trkpt lat="42.182759" lon="23.586441"><ele>2769.5</ele><time>2026-04-05T10:05:33.000Z</time></trkpt>
<trkpt lat="42.182759" lon="23.586441"><ele>2769.4</ele><time>2026-04-05T10:05:34.000Z</time></trkpt>
<trkpt lat="42.182759" lon="23.586441"><ele>2769.4</ele><time>2026-04-05T10:05:35.000Z</time></trkpt>
<trkpt lat="42.182759" lon="23.586442"><ele>2769.4</ele><time>2026-04-05T10:05:36.000Z</time></trkpt>
<trkpt lat="42.182759" lon="23.586444"><ele>2769.4</ele><time>2026-04-05T10:05:37.000Z</time></trkpt>
<trkpt lat="42.182758" lon="23.586445"><ele>2769.4</ele><time>2026-04-05T10:05:38.000Z</time></trkpt>
<trkpt lat="42.182758" lon="23.586447"><ele>2769.4</ele><time>2026-04-05T10:05:39.000Z</time></trkpt>
<trkpt lat="42.182758" lon="23.586448"><ele>2769.4</ele><time>2026-04-05T10:05:40.000Z</time></trkpt>
<trkpt lat="42.182758" lon="23.586446"><ele>2769.4</ele><time>2026-04-05T10:05:41.000Z</time></trkpt>
<trkpt lat="42.182757" lon="23.586445"><ele>2769.4</ele><time>2026-04-05T10:05:42.000Z</time></trkpt>
<trkpt lat="42.182757" lon="23.586443"><ele>2769.4</ele><time>2026-04-05T10:05:43.000Z</time></trkpt>
<trkpt lat="42.182757" lon="23.586442"><ele>2769.5</ele><time>2026-04-05T10:05:44.000Z</time></trkpt>
<trkpt lat="42.182757" lon="23.586441"><ele>2769.5</ele><time>2026-04-05T10:05:45.000Z</time></trkpt>
<trkpt lat="42.182757" lon="23.586441"><ele>2769.5</ele><time>2026-04-05T10:05:46.000Z</time></trkpt>
<trkpt lat="42.182757" lon="23.586439"><ele>2769.5</ele><time>2026-04-05T10:05:47.000Z</time></trkpt>
<trkpt lat="42.182755" lon="23.586438"><ele>2769.5</ele><time>2026-04-05T10:05:48.000Z</time></trkpt>
<trkpt lat="42.182753" lon="23.586435"><ele>2769.5</ele><time>2026-04-05T10:05:49.000Z</time></trkpt>
<trkpt lat="42.18275" lon="23.58643"><ele>2769.5</ele><time>2026-04-05T10:05:50.000Z</time></trkpt>
<trkpt lat="42.182746" lon="23.586425"><ele>2769.5</ele><time>2026-04-05T10:05:51.000Z</time></trkpt>
<trkpt lat="42.182742" lon="23.58642"><ele>2769.5</ele><time>2026-04-05T10:05:52.000Z</time></trkpt>
<trkpt lat="42.182739" lon="23.586416"><ele>2769.5</ele><time>2026-04-05T10:05:53.000Z</time></trkpt>
<trkpt lat="42.182735" lon="23.586411"><ele>2769.3</ele><time>2026-04-05T10:05:54.000Z</time></trkpt>
<trkpt lat="42.182733" lon="23.586408"><ele>2769.3</ele><time>2026-04-05T10:05:55.000Z</time></trkpt>
<trkpt lat="42.182732" lon="23.586406"><ele>2769.3</ele><time>2026-04-05T10:05:56.000Z</time></trkpt>
<trkpt lat="42.182731" lon="23.586404"><ele>2769.3</ele><time>2026-04-05T10:05:57.000Z</time></trkpt>
<trkpt lat="42.182731" lon="23.586401"><ele>2769.3</ele><time>2026-04-05T10:05:58.000Z</time></trkpt>
<trkpt lat="42.182731" lon="23.5864"><ele>2769.1</ele><time>2026-04-05T10:05:59.000Z</time></trkpt>
<trkpt lat="42.182731" lon="23.5864"><ele>2769.1</ele><time>2026-04-05T10:06:00.000Z</time></trkpt>
<trkpt lat="42.182731" lon="23.5864"><ele>2769.1</ele><time>2026-04-05T10:06:01.000Z</time></trkpt>
<trkpt lat="42.182731" lon="23.5864"><ele>2769.1</ele><time>2026-04-05T10:06:02.000Z</time></trkpt>
<trkpt lat="42.182731" lon="23.5864"><ele>2769.1</ele><time>2026-04-05T10:06:03.000Z</time></trkpt>
<trkpt lat="42.18273" lon="23.5864"><ele>2769.2</ele><time>2026-04-05T10:06:04.000Z</time></trkpt>
<trkpt lat="42.182728" lon="23.586398"><ele>2769.2</ele><time>2026-04-05T10:06:05.000Z</time></trkpt>
<trkpt lat="42.182725" lon="23.586396"><ele>2769.2</ele><time>2026-04-05T10:06:06.000Z</time></trkpt>
<trkpt lat="42.182722" lon="23.586393"><ele>2769.2</ele><time>2026-04-05T10:06:07.000Z</time></trkpt>
<trkpt lat="42.182717" lon="23.586389"><ele>2769.2</ele><time>2026-04-05T10:06:08.000Z</time></trkpt>
<trkpt lat="42.182714" lon="23.586387"><ele>2769.4</ele><time>2026-04-05T10:06:09.000Z</time></trkpt>
<trkpt lat="42.182709" lon="23.586384"><ele>2769.4</ele><time>2026-04-05T10:06:10.000Z</time></trkpt>
<trkpt lat="42.182704" lon="23.586381"><ele>2769.4</ele><time>2026-04-05T10:06:11.000Z</time></trkpt>
<trkpt lat="42.1827" lon="23.586379"><ele>2769.4</ele><time>2026-04-05T10:06:12.000Z</time></trkpt>
<trkpt lat="42.182696" lon="23.586376"><ele>2769.4</ele><time>2026-04-05T10:06:13.000Z</time></trkpt>
<trkpt lat="42.182691" lon="23.586373"><ele>2769.7</ele><time>2026-04-05T10:06:14.000Z</time></trkpt>
<trkpt lat="42.182689" lon="23.586371"><ele>2769.7</ele><time>2026-04-05T10:06:15.000Z</time></trkpt>
<trkpt lat="42.182687" lon="23.58637"><ele>2769.7</ele><time>2026-04-05T10:06:16.000Z</time></trkpt>
<trkpt lat="42.182685" lon="23.586371"><ele>2769.7</ele><time>2026-04-05T10:06:17.000Z</time></trkpt>
<trkpt lat="42.182683" lon="23.586372"><ele>2769.7</ele><time>2026-04-05T10:06:18.000Z</time></trkpt>
<trkpt lat="42.182681" lon="23.586372"><ele>2769.8</ele><time>2026-04-05T10:06:19.000Z</time></trkpt>
<trkpt lat="42.182679" lon="23.58637"><ele>2769.8</ele><time>2026-04-05T10:06:20.000Z</time></trkpt>
<trkpt lat="42.182677" lon="23.586368"><ele>2769.8</ele><time>2026-04-05T10:06:21.000Z</time></trkpt>
<trkpt lat="42.182675" lon="23.586364"><ele>2769.8</ele><time>2026-04-05T10:06:22.000Z</time></trkpt>
<trkpt lat="42.182674" lon="23.586358"><ele>2769.8</ele><time>2026-04-05T10:06:23.000Z</time></trkpt>
<trkpt lat="42.182671" lon="23.586353"><ele>2770.1</ele><time>2026-04-05T10:06:24.000Z</time></trkpt>
<trkpt lat="42.182668" lon="23.586349"><ele>2770.1</ele><time>2026-04-05T10:06:25.000Z</time></trkpt>
<trkpt lat="42.182665" lon="23.586345"><ele>2770.1</ele><time>2026-04-05T10:06:26.000Z</time></trkpt>
<trkpt lat="42.182662" lon="23.58634"><ele>2770.1</ele><time>2026-04-05T10:06:27.000Z</time></trkpt>
<trkpt lat="42.182659" lon="23.586335"><ele>2770.1</ele><time>2026-04-05T10:06:28.000Z</time></trkpt>
<trkpt lat="42.182656" lon="23.58633"><ele>2770.3</ele><time>2026-04-05T10:06:29.000Z</time></trkpt>
<trkpt lat="42.182654" lon="23.586324"><ele>2770.3</ele><time>2026-04-05T10:06:30.000Z</time></trkpt>
<trkpt lat="42.182652" lon="23.58632"><ele>2770.3</ele><time>2026-04-05T10:06:31.000Z</time></trkpt>
<trkpt lat="42.182651" lon="23.586317"><ele>2770.3</ele><time>2026-04-05T10:06:32.000Z</time></trkpt>
<trkpt lat="42.182651" lon="23.586316"><ele>2770.3</ele><time>2026-04-05T10:06:33.000Z</time></trkpt>
<trkpt lat="42.182651" lon="23.586316"><ele>2770.3</ele><time>2026-04-05T10:06:34.000Z</time></trkpt>
<trkpt lat="42.182652" lon="23.586317"><ele>2770.3</ele><time>2026-04-05T10:06:35.000Z</time></trkpt>
<trkpt lat="42.182652" lon="23.586318"><ele>2770.3</ele><time>2026-04-05T10:06:36.000Z</time></trkpt>
<trkpt lat="42.182652" lon="23.586318"><ele>2770.3</ele><time>2026-04-05T10:06:37.000Z</time></trkpt>
<trkpt lat="42.182653" lon="23.586318"><ele>2770.3</ele><time>2026-04-05T10:06:38.000Z</time></trkpt>
<trkpt lat="42.182653" lon="23.586317"><ele>2770.7</ele><time>2026-04-05T10:06:39.000Z</time></trkpt>
<trkpt lat="42.182653" lon="23.586317"><ele>2770.7</ele><time>2026-04-05T10:06:40.000Z</time></trkpt>
<trkpt lat="42.182652" lon="23.586316"><ele>2770.7</ele><time>2026-04-05T10:06:41.000Z</time></trkpt>
<trkpt lat="42.182651" lon="23.586316"><ele>2770.7</ele><time>2026-04-05T10:06:42.000Z</time></trkpt>
<trkpt lat="42.182649" lon="23.586315"><ele>2770.7</ele><time>2026-04-05T10:06:43.000Z</time></trkpt>
<trkpt lat="42.182646" lon="23.586313"><ele>2771.2</ele><time>2026-04-05T10:06:44.000Z</time></trkpt>
<trkpt lat="42.182643" lon="23.586311"><ele>2771.2</ele><time>2026-04-05T10:06:45.000Z</time></trkpt>
<trkpt lat="42.18264" lon="23.586306"><ele>2771.2</ele><time>2026-04-05T10:06:46.000Z</time></trkpt>
<trkpt lat="42.182636" lon="23.5863"><ele>2771.2</ele><time>2026-04-05T10:06:47.000Z</time></trkpt>
<trkpt lat="42.182633" lon="23.586293"><ele>2771.2</ele><time>2026-04-05T10:06:48.000Z</time></trkpt>
<trkpt lat="42.18263" lon="23.586287"><ele>2771.3</ele><time>2026-04-05T10:06:49.000Z</time></trkpt>
<trkpt lat="42.182627" lon="23.586279"><ele>2771.3</ele><time>2026-04-05T10:06:50.000Z</time></trkpt>
<trkpt lat="42.182625" lon="23.586273"><ele>2771.3</ele><time>2026-04-05T10:06:51.000Z</time></trkpt>
<trkpt lat="42.182624" lon="23.586267"><ele>2771.3</ele><time>2026-04-05T10:06:52.000Z</time></trkpt>
<trkpt lat="42.182623" lon="23.58626"><ele>2771.3</ele><time>2026-04-05T10:06:53.000Z</time></trkpt>
<trkpt lat="42.182621" lon="23.586254"><ele>2771.5</ele><time>2026-04-05T10:06:54.000Z</time></trkpt>
<trkpt lat="42.18262" lon="23.586249"><ele>2771.5</ele><time>2026-04-05T10:06:55.000Z</time></trkpt>
<trkpt lat="42.182619" lon="23.586243"><ele>2771.5</ele><time>2026-04-05T10:06:56.000Z</time></trkpt>
<trkpt lat="42.182617" lon="23.586239"><ele>2771.5</ele><time>2026-04-05T10:06:57.000Z</time></trkpt>
<trkpt lat="42.182614" lon="23.586233"><ele>2771.5</ele><time>2026-04-05T10:06:58.000Z</time></trkpt>
<trkpt lat="42.182612" lon="23.586229"><ele>2772</ele><time>2026-04-05T10:06:59.000Z</time></trkpt>
<trkpt lat="42.18261" lon="23.586224"><ele>2772</ele><time>2026-04-05T10:07:00.000Z</time></trkpt>
<trkpt lat="42.182608" lon="23.58622"><ele>2772</ele><time>2026-04-05T10:07:01.000Z</time></trkpt>
<trkpt lat="42.182605" lon="23.586215"><ele>2772</ele><time>2026-04-05T10:07:02.000Z</time></trkpt>
<trkpt lat="42.182602" lon="23.58621"><ele>2772</ele><time>2026-04-05T10:07:03.000Z</time></trkpt>
<trkpt lat="42.182599" lon="23.586204"><ele>2772.5</ele><time>2026-04-05T10:07:04.000Z</time></trkpt>
<trkpt lat="42.182596" lon="23.586199"><ele>2772.5</ele><time>2026-04-05T10:07:05.000Z</time></trkpt>
<trkpt lat="42.182594" lon="23.586192"><ele>2772.5</ele><time>2026-04-05T10:07:06.000Z</time></trkpt>
<trkpt lat="42.182593" lon="23.586185"><ele>2772.5</ele><time>2026-04-05T10:07:07.000Z</time></trkpt>
<trkpt lat="42.182591" lon="23.586178"><ele>2772.5</ele><time>2026-04-05T10:07:08.000Z</time></trkpt>
<trkpt lat="42.18259" lon="23.586172"><ele>2773.7</ele><time>2026-04-05T10:07:09.000Z</time></trkpt>
<trkpt lat="42.182588" lon="23.586166"><ele>2773.7</ele><time>2026-04-05T10:07:10.000Z</time></trkpt>
<trkpt lat="42.182586" lon="23.586159"><ele>2773.7</ele><time>2026-04-05T10:07:11.000Z</time></trkpt>
<trkpt lat="42.182584" lon="23.586153"><ele>2773.7</ele><time>2026-04-05T10:07:12.000Z</time></trkpt>
<trkpt lat="42.182582" lon="23.586148"><ele>2773.7</ele><time>2026-04-05T10:07:13.000Z</time></trkpt>
<trkpt lat="42.18258" lon="23.586142"><ele>2775</ele><time>2026-04-05T10:07:14.000Z</time></trkpt>
<trkpt lat="42.182579" lon="23.586135"><ele>2775</ele><time>2026-04-05T10:07:15.000Z</time></trkpt>
<trkpt lat="42.182577" lon="23.586129"><ele>2775</ele><time>2026-04-05T10:07:16.000Z</time></trkpt>
<trkpt lat="42.182576" lon="23.586122"><ele>2775</ele><time>2026-04-05T10:07:17.000Z</time></trkpt>
<trkpt lat="42.182574" lon="23.586114"><ele>2775</ele><time>2026-04-05T10:07:18.000Z</time></trkpt>
<trkpt lat="42.182573" lon="23.586106"><ele>2775.6</ele><time>2026-04-05T10:07:19.000Z</time></trkpt>
<trkpt lat="42.182571" lon="23.586098"><ele>2775.6</ele><time>2026-04-05T10:07:20.000Z</time></trkpt>
<trkpt lat="42.182569" lon="23.586093"><ele>2775.6</ele><time>2026-04-05T10:07:21.000Z</time></trkpt>
<trkpt lat="42.182567" lon="23.586088"><ele>2775.6</ele><time>2026-04-05T10:07:22.000Z</time></trkpt>
<trkpt lat="42.182565" lon="23.586085"><ele>2775.6</ele><time>2026-04-05T10:07:23.000Z</time></trkpt>
<trkpt lat="42.182562" lon="23.586082"><ele>2776.9</ele><time>2026-04-05T10:07:24.000Z</time></trkpt>
<trkpt lat="42.182558" lon="23.58608"><ele>2776.9</ele><time>2026-04-05T10:07:25.000Z</time></trkpt>
<trkpt lat="42.182555" lon="23.586078"><ele>2776.9</ele><time>2026-04-05T10:07:26.000Z</time></trkpt>
<trkpt lat="42.182552" lon="23.586077"><ele>2776.9</ele><time>2026-04-05T10:07:27.000Z</time></trkpt>
<trkpt lat="42.182549" lon="23.586077"><ele>2776.9</ele><time>2026-04-05T10:07:28.000Z</time></trkpt>
<trkpt lat="42.182546" lon="23.586076"><ele>2778</ele><time>2026-04-05T10:07:29.000Z</time></trkpt>
<trkpt lat="42.182544" lon="23.586076"><ele>2778</ele><time>2026-04-05T10:07:30.000Z</time></trkpt>
<trkpt lat="42.182541" lon="23.586075"><ele>2778</ele><time>2026-04-05T10:07:31.000Z</time></trkpt>
<trkpt lat="42.182538" lon="23.586074"><ele>2778</ele><time>2026-04-05T10:07:32.000Z</time></trkpt>
<trkpt lat="42.182533" lon="23.586072"><ele>2778</ele><time>2026-04-05T10:07:33.000Z</time></trkpt>
<trkpt lat="42.182529" lon="23.586071"><ele>2778.5</ele><time>2026-04-05T10:07:34.000Z</time></trkpt>
<trkpt lat="42.182525" lon="23.586068"><ele>2778.5</ele><time>2026-04-05T10:07:35.000Z</time></trkpt>
<trkpt lat="42.18252" lon="23.586066"><ele>2778.5</ele><time>2026-04-05T10:07:36.000Z</time></trkpt>
<trkpt lat="42.182516" lon="23.586064"><ele>2778.5</ele><time>2026-04-05T10:07:37.000Z</time></trkpt>
<trkpt lat="42.182513" lon="23.586063"><ele>2778.5</ele><time>2026-04-05T10:07:38.000Z</time></trkpt>
<trkpt lat="42.182509" lon="23.586061"><ele>2779.1</ele><time>2026-04-05T10:07:39.000Z</time></trkpt>
<trkpt lat="42.182505" lon="23.586059"><ele>2779.1</ele><time>2026-04-05T10:07:40.000Z</time></trkpt>
<trkpt lat="42.182502" lon="23.586059"><ele>2779.1</ele><time>2026-04-05T10:07:41.000Z</time></trkpt>
<trkpt lat="42.182498" lon="23.586057"><ele>2779.1</ele><time>2026-04-05T10:07:42.000Z</time></trkpt>
<trkpt lat="42.182494" lon="23.586057"><ele>2779.1</ele><time>2026-04-05T10:07:43.000Z</time></trkpt>
<trkpt lat="42.18249" lon="23.586056"><ele>2779.7</ele><time>2026-04-05T10:07:44.000Z</time></trkpt>
<trkpt lat="42.182485" lon="23.586054"><ele>2779.7</ele><time>2026-04-05T10:07:45.000Z</time></trkpt>
<trkpt lat="42.182481" lon="23.586052"><ele>2779.7</ele><time>2026-04-05T10:07:46.000Z</time></trkpt>
<trkpt lat="42.182478" lon="23.58605"><ele>2779.7</ele><time>2026-04-05T10:07:47.000Z</time></trkpt>
<trkpt lat="42.182475" lon="23.586048"><ele>2779.7</ele><time>2026-04-05T10:07:48.000Z</time></trkpt>
<trkpt lat="42.182473" lon="23.586047"><ele>2780.1</ele><time>2026-04-05T10:07:49.000Z</time></trkpt>
<trkpt lat="42.18247" lon="23.586047"><ele>2780.1</ele><time>2026-04-05T10:07:50.000Z</time></trkpt>
<trkpt lat="42.182467" lon="23.586045"><ele>2780.1</ele><time>2026-04-05T10:07:51.000Z</time></trkpt>
<trkpt lat="42.182464" lon="23.586044"><ele>2780.1</ele><time>2026-04-05T10:07:52.000Z</time></trkpt>
<trkpt lat="42.182462" lon="23.586043"><ele>2780.1</ele><time>2026-04-05T10:07:53.000Z</time></trkpt>
<trkpt lat="42.182459" lon="23.58604"><ele>2781</ele><time>2026-04-05T10:07:54.000Z</time></trkpt>
<trkpt lat="42.182457" lon="23.586037"><ele>2781</ele><time>2026-04-05T10:07:55.000Z</time></trkpt>
<trkpt lat="42.182454" lon="23.586035"><ele>2781</ele><time>2026-04-05T10:07:56.000Z</time></trkpt>
<trkpt lat="42.182452" lon="23.586034"><ele>2781</ele><time>2026-04-05T10:07:57.000Z</time></trkpt>
<trkpt lat="42.182449" lon="23.586033"><ele>2781</ele><time>2026-04-05T10:07:58.000Z</time></trkpt>
<trkpt lat="42.182447" lon="23.586033"><ele>2781.9</ele><time>2026-04-05T10:07:59.000Z</time></trkpt>
<trkpt lat="42.182443" lon="23.586033"><ele>2781.9</ele><time>2026-04-05T10:08:00.000Z</time></trkpt>
<trkpt lat="42.182441" lon="23.586034"><ele>2781.9</ele><time>2026-04-05T10:08:01.000Z</time></trkpt>
<trkpt lat="42.182437" lon="23.586034"><ele>2781.9</ele><time>2026-04-05T10:08:02.000Z</time></trkpt>
<trkpt lat="42.182434" lon="23.586034"><ele>2781.9</ele><time>2026-04-05T10:08:03.000Z</time></trkpt>
<trkpt lat="42.18243" lon="23.586033"><ele>2782.4</ele><time>2026-04-05T10:08:04.000Z</time></trkpt>
<trkpt lat="42.182427" lon="23.586032"><ele>2782.4</ele><time>2026-04-05T10:08:05.000Z</time></trkpt>
<trkpt lat="42.182424" lon="23.58603"><ele>2782.4</ele><time>2026-04-05T10:08:06.000Z</time></trkpt>
<trkpt lat="42.182421" lon="23.586029"><ele>2782.4</ele><time>2026-04-05T10:08:07.000Z</time></trkpt>
<trkpt lat="42.182418" lon="23.586028"><ele>2782.4</ele><time>2026-04-05T10:08:08.000Z</time></trkpt>
<trkpt lat="42.182416" lon="23.586028"><ele>2783.5</ele><time>2026-04-05T10:08:09.000Z</time></trkpt>
<trkpt lat="42.182413" lon="23.586027"><ele>2783.5</ele><time>2026-04-05T10:08:10.000Z</time></trkpt>
<trkpt lat="42.182411" lon="23.586026"><ele>2783.5</ele><time>2026-04-05T10:08:11.000Z</time></trkpt>
<trkpt lat="42.18241" lon="23.586024"><ele>2783.5</ele><time>2026-04-05T10:08:12.000Z</time></trkpt>
<trkpt lat="42.18241" lon="23.586022"><ele>2783.5</ele><time>2026-04-05T10:08:13.000Z</time></trkpt>
<trkpt lat="42.18241" lon="23.586021"><ele>2784.4</ele><time>2026-04-05T10:08:14.000Z</time></trkpt>
<trkpt lat="42.182411" lon="23.58602"><ele>2784.4</ele><time>2026-04-05T10:08:15.000Z</time></trkpt>
<trkpt lat="42.182412" lon="23.586021"><ele>2784.4</ele><time>2026-04-05T10:08:16.000Z</time></trkpt>
<trkpt lat="42.182412" lon="23.586022"><ele>2784.4</ele><time>2026-04-05T10:08:17.000Z</time></trkpt>
<trkpt lat="42.182413" lon="23.586022"><ele>2784.4</ele><time>2026-04-05T10:08:18.000Z</time></trkpt>
<trkpt lat="42.182414" lon="23.586022"><ele>2784.9</ele><time>2026-04-05T10:08:19.000Z</time></trkpt>
<trkpt lat="42.182414" lon="23.586022"><ele>2784.9</ele><time>2026-04-05T10:08:20.000Z</time></trkpt>
<trkpt lat="42.182414" lon="23.586022"><ele>2784.9</ele><time>2026-04-05T10:08:21.000Z</time></trkpt>
<trkpt lat="42.182414" lon="23.586022"><ele>2784.9</ele><time>2026-04-05T10:08:22.000Z</time></trkpt>
<trkpt lat="42.182414" lon="23.586022"><ele>2784.9</ele><time>2026-04-05T10:08:23.000Z</time></trkpt>
<trkpt lat="42.182414" lon="23.586022"><ele>2785.5</ele><time>2026-04-05T10:08:24.000Z</time></trkpt>
<trkpt lat="42.182414" lon="23.586022"><ele>2785.5</ele><time>2026-04-05T10:08:25.000Z</time></trkpt>
<trkpt lat="42.182414" lon="23.586022"><ele>2785.5</ele><time>2026-04-05T10:08:26.000Z</time></trkpt>
<trkpt lat="42.182414" lon="23.586022"><ele>2785.5</ele><time>2026-04-05T10:08:27.000Z</time></trkpt>
<trkpt lat="42.182412" lon="23.586021"><ele>2785.5</ele><time>2026-04-05T10:08:28.000Z</time></trkpt>
<trkpt lat="42.18241" lon="23.586021"><ele>2785.8</ele><time>2026-04-05T10:08:29.000Z</time></trkpt>
<trkpt lat="42.182408" lon="23.586021"><ele>2785.8</ele><time>2026-04-05T10:08:30.000Z</time></trkpt>
<trkpt lat="42.182404" lon="23.586021"><ele>2785.8</ele><time>2026-04-05T10:08:31.000Z</time></trkpt>
<trkpt lat="42.1824" lon="23.586021"><ele>2785.8</ele><time>2026-04-05T10:08:32.000Z</time></trkpt>
<trkpt lat="42.182397" lon="23.586021"><ele>2785.8</ele><time>2026-04-05T10:08:33.000Z</time></trkpt>
<trkpt lat="42.182393" lon="23.586021"><ele>2785.8</ele><time>2026-04-05T10:08:34.000Z</time></trkpt>
<trkpt lat="42.182389" lon="23.58602"><ele>2785.8</ele><time>2026-04-05T10:08:35.000Z</time></trkpt>
<trkpt lat="42.182386" lon="23.58602"><ele>2785.8</ele><time>2026-04-05T10:08:36.000Z</time></trkpt>
<trkpt lat="42.182383" lon="23.58602"><ele>2785.8</ele><time>2026-04-05T10:08:37.000Z</time></trkpt>
<trkpt lat="42.182379" lon="23.586019"><ele>2785.8</ele><time>2026-04-05T10:08:38.000Z</time></trkpt>
<trkpt lat="42.182376" lon="23.586018"><ele>2786</ele><time>2026-04-05T10:08:39.000Z</time></trkpt>
<trkpt lat="42.182372" lon="23.586018"><ele>2786</ele><time>2026-04-05T10:08:40.000Z</time></trkpt>
<trkpt lat="42.182369" lon="23.586017"><ele>2786</ele><time>2026-04-05T10:08:41.000Z</time></trkpt>
<trkpt lat="42.182366" lon="23.586016"><ele>2786</ele><time>2026-04-05T10:08:42.000Z</time></trkpt>
<trkpt lat="42.182365" lon="23.586016"><ele>2786</ele><time>2026-04-05T10:08:43.000Z</time></trkpt>
<trkpt lat="42.182364" lon="23.586016"><ele>2786.6</ele><time>2026-04-05T10:08:44.000Z</time></trkpt>
<trkpt lat="42.182363" lon="23.586015"><ele>2786.6</ele><time>2026-04-05T10:08:45.000Z</time></trkpt>
<trkpt lat="42.182361" lon="23.586014"><ele>2786.6</ele><time>2026-04-05T10:08:46.000Z</time></trkpt>
<trkpt lat="42.182359" lon="23.586012"><ele>2786.6</ele><time>2026-04-05T10:08:47.000Z</time></trkpt>
<trkpt lat="42.182355" lon="23.58601"><ele>2786.6</ele><time>2026-04-05T10:08:48.000Z</time></trkpt>
<trkpt lat="42.182352" lon="23.586008"><ele>2787.1</ele><time>2026-04-05T10:08:49.000Z</time></trkpt>
<trkpt lat="42.182348" lon="23.586006"><ele>2787.1</ele><time>2026-04-05T10:08:50.000Z</time></trkpt>
<trkpt lat="42.182345" lon="23.586005"><ele>2787.1</ele><time>2026-04-05T10:08:51.000Z</time></trkpt>
<trkpt lat="42.182342" lon="23.586003"><ele>2787.1</ele><time>2026-04-05T10:08:52.000Z</time></trkpt>
<trkpt lat="42.182339" lon="23.586003"><ele>2787.1</ele><time>2026-04-05T10:08:53.000Z</time></trkpt>
<trkpt lat="42.182336" lon="23.586003"><ele>2788.1</ele><time>2026-04-05T10:08:54.000Z</time></trkpt>
<trkpt lat="42.182332" lon="23.586002"><ele>2788.1</ele><time>2026-04-05T10:08:55.000Z</time></trkpt>
<trkpt lat="42.182328" lon="23.586001"><ele>2788.1</ele><time>2026-04-05T10:08:56.000Z</time></trkpt>
<trkpt lat="42.182324" lon="23.586"><ele>2788.1</ele><time>2026-04-05T10:08:57.000Z</time></trkpt>
<trkpt lat="42.18232" lon="23.586001"><ele>2788.1</ele><time>2026-04-05T10:08:58.000Z</time></trkpt>
<trkpt lat="42.182315" lon="23.586"><ele>2789.1</ele><time>2026-04-05T10:08:59.000Z</time></trkpt>
<trkpt lat="42.182311" lon="23.586"><ele>2789.1</ele><time>2026-04-05T10:09:00.000Z</time></trkpt>
<trkpt lat="42.182307" lon="23.586"><ele>2789.1</ele><time>2026-04-05T10:09:01.000Z</time></trkpt>
<trkpt lat="42.182303" lon="23.586"><ele>2789.1</ele><time>2026-04-05T10:09:02.000Z</time></trkpt>
<trkpt lat="42.182299" lon="23.585999"><ele>2789.1</ele><time>2026-04-05T10:09:03.000Z</time></trkpt>
<trkpt lat="42.182295" lon="23.585998"><ele>2789.6</ele><time>2026-04-05T10:09:04.000Z</time></trkpt>
<trkpt lat="42.182291" lon="23.585997"><ele>2789.6</ele><time>2026-04-05T10:09:05.000Z</time></trkpt>
<trkpt lat="42.182288" lon="23.585996"><ele>2789.6</ele><time>2026-04-05T10:09:06.000Z</time></trkpt>
<trkpt lat="42.182287" lon="23.585995"><ele>2789.6</ele><time>2026-04-05T10:09:07.000Z</time></trkpt>
<trkpt lat="42.182286" lon="23.585994"><ele>2789.6</ele><time>2026-04-05T10:09:08.000Z</time></trkpt>
<trkpt lat="42.182286" lon="23.585994"><ele>2790.7</ele><time>2026-04-05T10:09:09.000Z</time></trkpt>
<trkpt lat="42.182287" lon="23.585993"><ele>2790.7</ele><time>2026-04-05T10:09:10.000Z</time></trkpt>
<trkpt lat="42.182287" lon="23.585992"><ele>2790.7</ele><time>2026-04-05T10:09:11.000Z</time></trkpt>
<trkpt lat="42.182287" lon="23.585993"><ele>2790.7</ele><time>2026-04-05T10:09:12.000Z</time></trkpt>
<trkpt lat="42.182286" lon="23.585992"><ele>2790.7</ele><time>2026-04-05T10:09:13.000Z</time></trkpt>
<trkpt lat="42.182286" lon="23.585993"><ele>2791.6</ele><time>2026-04-05T10:09:14.000Z</time></trkpt>
<trkpt lat="42.182285" lon="23.585993"><ele>2791.6</ele><time>2026-04-05T10:09:15.000Z</time></trkpt>
<trkpt lat="42.182285" lon="23.585993"><ele>2791.6</ele><time>2026-04-05T10:09:16.000Z</time></trkpt>
<trkpt lat="42.182285" lon="23.585993"><ele>2791.6</ele><time>2026-04-05T10:09:17.000Z</time></trkpt>
<trkpt lat="42.182285" lon="23.585993"><ele>2791.6</ele><time>2026-04-05T10:09:18.000Z</time></trkpt>
<trkpt lat="42.182285" lon="23.585993"><ele>2791.9</ele><time>2026-04-05T10:09:19.000Z</time></trkpt>
<trkpt lat="42.182285" lon="23.585993"><ele>2791.9</ele><time>2026-04-05T10:09:20.000Z</time></trkpt>
<trkpt lat="42.182285" lon="23.585993"><ele>2791.9</ele><time>2026-04-05T10:09:21.000Z</time></trkpt>
<trkpt lat="42.182284" lon="23.585992"><ele>2791.9</ele><time>2026-04-05T10:09:22.000Z</time></trkpt>
<trkpt lat="42.182283" lon="23.585992"><ele>2791.9</ele><time>2026-04-05T10:09:23.000Z</time></trkpt>
<trkpt lat="42.18228" lon="23.585991"><ele>2792.3</ele><time>2026-04-05T10:09:24.000Z</time></trkpt>
<trkpt lat="42.182276" lon="23.585989"><ele>2792.3</ele><time>2026-04-05T10:09:25.000Z</time></trkpt>
<trkpt lat="42.182272" lon="23.585987"><ele>2792.3</ele><time>2026-04-05T10:09:26.000Z</time></trkpt>
<trkpt lat="42.182268" lon="23.585986"><ele>2792.3</ele><time>2026-04-05T10:09:27.000Z</time></trkpt>
<trkpt lat="42.182265" lon="23.585984"><ele>2792.3</ele><time>2026-04-05T10:09:28.000Z</time></trkpt>
<trkpt lat="42.182262" lon="23.585983"><ele>2792.5</ele><time>2026-04-05T10:09:29.000Z</time></trkpt>
<trkpt lat="42.182258" lon="23.585984"><ele>2792.5</ele><time>2026-04-05T10:09:30.000Z</time></trkpt>
<trkpt lat="42.182254" lon="23.585985"><ele>2792.5</ele><time>2026-04-05T10:09:31.000Z</time></trkpt>
<trkpt lat="42.182249" lon="23.585985"><ele>2792.5</ele><time>2026-04-05T10:09:32.000Z</time></trkpt>
<trkpt lat="42.182244" lon="23.585986"><ele>2792.5</ele><time>2026-04-05T10:09:33.000Z</time></trkpt>
<trkpt lat="42.182239" lon="23.585987"><ele>2792.6</ele><time>2026-04-05T10:09:34.000Z</time></trkpt>
<trkpt lat="42.182235" lon="23.585986"><ele>2792.6</ele><time>2026-04-05T10:09:35.000Z</time></trkpt>
<trkpt lat="42.182232" lon="23.585986"><ele>2792.6</ele><time>2026-04-05T10:09:36.000Z</time></trkpt>
<trkpt lat="42.182229" lon="23.585986"><ele>2792.6</ele><time>2026-04-05T10:09:37.000Z</time></trkpt>
<trkpt lat="42.182226" lon="23.585986"><ele>2792.6</ele><time>2026-04-05T10:09:38.000Z</time></trkpt>
<trkpt lat="42.182223" lon="23.585985"><ele>2793.2</ele><time>2026-04-05T10:09:39.000Z</time></trkpt>
<trkpt lat="42.18222" lon="23.585985"><ele>2793.2</ele><time>2026-04-05T10:09:40.000Z</time></trkpt>
<trkpt lat="42.182217" lon="23.585985"><ele>2793.2</ele><time>2026-04-05T10:09:41.000Z</time></trkpt>
<trkpt lat="42.182214" lon="23.585985"><ele>2793.2</ele><time>2026-04-05T10:09:42.000Z</time></trkpt>
<trkpt lat="42.182211" lon="23.585984"><ele>2793.2</ele><time>2026-04-05T10:09:43.000Z</time></trkpt>
<trkpt lat="42.182208" lon="23.585984"><ele>2794.5</ele><time>2026-04-05T10:09:44.000Z</time></trkpt>
<trkpt lat="42.182207" lon="23.585984"><ele>2794.5</ele><time>2026-04-05T10:09:45.000Z</time></trkpt>
<trkpt lat="42.182205" lon="23.585984"><ele>2794.5</ele><time>2026-04-05T10:09:46.000Z</time></trkpt>
<trkpt lat="42.182205" lon="23.585985"><ele>2794.5</ele><time>2026-04-05T10:09:47.000Z</time></trkpt>
<trkpt lat="42.182205" lon="23.585985"><ele>2794.5</ele><time>2026-04-05T10:09:48.000Z</time></trkpt>
<trkpt lat="42.182204" lon="23.585985"><ele>2795.1</ele><time>2026-04-05T10:09:49.000Z</time></trkpt>
<trkpt lat="42.182203" lon="23.585986"><ele>2795.1</ele><time>2026-04-05T10:09:50.000Z</time></trkpt>
<trkpt lat="42.1822" lon="23.585987"><ele>2795.1</ele><time>2026-04-05T10:09:51.000Z</time></trkpt>
<trkpt lat="42.182197" lon="23.585987"><ele>2795.1</ele><time>2026-04-05T10:09:52.000Z</time></trkpt>
<trkpt lat="42.182193" lon="23.585987"><ele>2795.1</ele><time>2026-04-05T10:09:53.000Z</time></trkpt>
<trkpt lat="42.182188" lon="23.585987"><ele>2796.1</ele><time>2026-04-05T10:09:54.000Z</time></trkpt>
<trkpt lat="42.182184" lon="23.585986"><ele>2796.1</ele><time>2026-04-05T10:09:55.000Z</time></trkpt>
<trkpt lat="42.182181" lon="23.585985"><ele>2796.1</ele><time>2026-04-05T10:09:56.000Z</time></trkpt>
<trkpt lat="42.182177" lon="23.585984"><ele>2796.1</ele><time>2026-04-05T10:09:57.000Z</time></trkpt>
<trkpt lat="42.182175" lon="23.585982"><ele>2796.1</ele><time>2026-04-05T10:09:58.000Z</time></trkpt>
<trkpt lat="42.182173" lon="23.585981"><ele>2796.7</ele><time>2026-04-05T10:09:59.000Z</time></trkpt>
<trkpt lat="42.18217" lon="23.585979"><ele>2796.7</ele><time>2026-04-05T10:10:00.000Z</time></trkpt>
<trkpt lat="42.182169" lon="23.585977"><ele>2796.7</ele><time>2026-04-05T10:10:01.000Z</time></trkpt>
<trkpt lat="42.182166" lon="23.585975"><ele>2796.7</ele><time>2026-04-05T10:10:02.000Z</time></trkpt>
<trkpt lat="42.182164" lon="23.585972"><ele>2796.7</ele><time>2026-04-05T10:10:03.000Z</time></trkpt>
<trkpt lat="42.182161" lon="23.585969"><ele>2797.1</ele><time>2026-04-05T10:10:04.000Z</time></trkpt>
<trkpt lat="42.182158" lon="23.585966"><ele>2797.1</ele><time>2026-04-05T10:10:05.000Z</time></trkpt>
<trkpt lat="42.182155" lon="23.585963"><ele>2797.1</ele><time>2026-04-05T10:10:06.000Z</time></trkpt>
<trkpt lat="42.182152" lon="23.58596"><ele>2797.1</ele><time>2026-04-05T10:10:07.000Z</time></trkpt>
<trkpt lat="42.182148" lon="23.585958"><ele>2797.1</ele><time>2026-04-05T10:10:08.000Z</time></trkpt>
<trkpt lat="42.182145" lon="23.585956"><ele>2797.9</ele><time>2026-04-05T10:10:09.000Z</time></trkpt>
<trkpt lat="42.182143" lon="23.585956"><ele>2797.9</ele><time>2026-04-05T10:10:10.000Z</time></trkpt>
<trkpt lat="42.182142" lon="23.585956"><ele>2797.9</ele><time>2026-04-05T10:10:11.000Z</time></trkpt>
<trkpt lat="42.182141" lon="23.585957"><ele>2797.9</ele><time>2026-04-05T10:10:12.000Z</time></trkpt>
<trkpt lat="42.182142" lon="23.585958"><ele>2797.9</ele><time>2026-04-05T10:10:13.000Z</time></trkpt>
<trkpt lat="42.182142" lon="23.585958"><ele>2799</ele><time>2026-04-05T10:10:14.000Z</time></trkpt>
<trkpt lat="42.182142" lon="23.585958"><ele>2799</ele><time>2026-04-05T10:10:15.000Z</time></trkpt>
<trkpt lat="42.182142" lon="23.585958"><ele>2799</ele><time>2026-04-05T10:10:16.000Z</time></trkpt>
<trkpt lat="42.182142" lon="23.585958"><ele>2799</ele><time>2026-04-05T10:10:17.000Z</time></trkpt>
<trkpt lat="42.182142" lon="23.585958"><ele>2799</ele><time>2026-04-05T10:10:18.000Z</time></trkpt>
<trkpt lat="42.182142" lon="23.585958"><ele>2799.5</ele><time>2026-04-05T10:10:19.000Z</time></trkpt>
<trkpt lat="42.182142" lon="23.585958"><ele>2799.5</ele><time>2026-04-05T10:10:20.000Z</time></trkpt>
<trkpt lat="42.182141" lon="23.585958"><ele>2799.5</ele><time>2026-04-05T10:10:21.000Z</time></trkpt>
<trkpt lat="42.182141" lon="23.585958"><ele>2799.5</ele><time>2026-04-05T10:10:22.000Z</time></trkpt>
<trkpt lat="42.182141" lon="23.585959"><ele>2799.5</ele><time>2026-04-05T10:10:23.000Z</time></trkpt>
<trkpt lat="42.18214" lon="23.585959"><ele>2800.4</ele><time>2026-04-05T10:10:24.000Z</time></trkpt>
<trkpt lat="42.182139" lon="23.58596"><ele>2800.4</ele><time>2026-04-05T10:10:25.000Z</time></trkpt>
<trkpt lat="42.182139" lon="23.585961"><ele>2800.4</ele><time>2026-04-05T10:10:26.000Z</time></trkpt>
<trkpt lat="42.182139" lon="23.585961"><ele>2800.4</ele><time>2026-04-05T10:10:27.000Z</time></trkpt>
<trkpt lat="42.182139" lon="23.585962"><ele>2800.4</ele><time>2026-04-05T10:10:28.000Z</time></trkpt>
<trkpt lat="42.182139" lon="23.585962"><ele>2800.8</ele><time>2026-04-05T10:10:29.000Z</time></trkpt>
<trkpt lat="42.182138" lon="23.585961"><ele>2800.8</ele><time>2026-04-05T10:10:30.000Z</time></trkpt>
<trkpt lat="42.182135" lon="23.58596"><ele>2800.8</ele><time>2026-04-05T10:10:31.000Z</time></trkpt>
<trkpt lat="42.182132" lon="23.585958"><ele>2800.8</ele><time>2026-04-05T10:10:32.000Z</time></trkpt>
<trkpt lat="42.182129" lon="23.585956"><ele>2800.8</ele><time>2026-04-05T10:10:33.000Z</time></trkpt>
<trkpt lat="42.182125" lon="23.585954"><ele>2800.9</ele><time>2026-04-05T10:10:34.000Z</time></trkpt>
<trkpt lat="42.182122" lon="23.585953"><ele>2800.9</ele><time>2026-04-05T10:10:35.000Z</time></trkpt>
<trkpt lat="42.182119" lon="23.585951"><ele>2800.9</ele><time>2026-04-05T10:10:36.000Z</time></trkpt>
<trkpt lat="42.182116" lon="23.58595"><ele>2800.9</ele><time>2026-04-05T10:10:37.000Z</time></trkpt>
<trkpt lat="42.182113" lon="23.585949"><ele>2800.9</ele><time>2026-04-05T10:10:38.000Z</time></trkpt>
<trkpt lat="42.182109" lon="23.585948"><ele>2801.2</ele><time>2026-04-05T10:10:39.000Z</time></trkpt>
<trkpt lat="42.182105" lon="23.585947"><ele>2801.2</ele><time>2026-04-05T10:10:40.000Z</time></trkpt>
<trkpt lat="42.182101" lon="23.585945"><ele>2801.2</ele><time>2026-04-05T10:10:41.000Z</time></trkpt>
<trkpt lat="42.182098" lon="23.585944"><ele>2801.2</ele><time>2026-04-05T10:10:42.000Z</time></trkpt>
<trkpt lat="42.182094" lon="23.585943"><ele>2801.2</ele><time>2026-04-05T10:10:43.000Z</time></trkpt>
<trkpt lat="42.182091" lon="23.585942"><ele>2801.7</ele><time>2026-04-05T10:10:44.000Z</time></trkpt>
<trkpt lat="42.182089" lon="23.585943"><ele>2801.7</ele><time>2026-04-05T10:10:45.000Z</time></trkpt>
<trkpt lat="42.182085" lon="23.585944"><ele>2801.7</ele><time>2026-04-05T10:10:46.000Z</time></trkpt>
<trkpt lat="42.182081" lon="23.585945"><ele>2801.7</ele><time>2026-04-05T10:10:47.000Z</time></trkpt>
<trkpt lat="42.182078" lon="23.585945"><ele>2801.7</ele><time>2026-04-05T10:10:48.000Z</time></trkpt>
<trkpt lat="42.182075" lon="23.585945"><ele>2802.1</ele><time>2026-04-05T10:10:49.000Z</time></trkpt>
<trkpt lat="42.182071" lon="23.585945"><ele>2802.1</ele><time>2026-04-05T10:10:50.000Z</time></trkpt>
<trkpt lat="42.182068" lon="23.585945"><ele>2802.1</ele><time>2026-04-05T10:10:51.000Z</time></trkpt>
<trkpt lat="42.182065" lon="23.585945"><ele>2802.1</ele><time>2026-04-05T10:10:52.000Z</time></trkpt>
<trkpt lat="42.182062" lon="23.585945"><ele>2802.1</ele><time>2026-04-05T10:10:53.000Z</time></trkpt>
<trkpt lat="42.182058" lon="23.585944"><ele>2803.1</ele><time>2026-04-05T10:10:54.000Z</time></trkpt>
<trkpt lat="42.182056" lon="23.585944"><ele>2803.1</ele><time>2026-04-05T10:10:55.000Z</time></trkpt>
<trkpt lat="42.182053" lon="23.585942"><ele>2803.1</ele><time>2026-04-05T10:10:56.000Z</time></trkpt>
<trkpt lat="42.18205" lon="23.58594"><ele>2803.1</ele><time>2026-04-05T10:10:57.000Z</time></trkpt>
<trkpt lat="42.182047" lon="23.585939"><ele>2803.1</ele><time>2026-04-05T10:10:58.000Z</time></trkpt>
<trkpt lat="42.182045" lon="23.585938"><ele>2804.3</ele><time>2026-04-05T10:10:59.000Z</time></trkpt>
<trkpt lat="42.182042" lon="23.585937"><ele>2804.3</ele><time>2026-04-05T10:11:00.000Z</time></trkpt>
<trkpt lat="42.182039" lon="23.585935"><ele>2804.3</ele><time>2026-04-05T10:11:01.000Z</time></trkpt>
<trkpt lat="42.182036" lon="23.585932"><ele>2804.3</ele><time>2026-04-05T10:11:02.000Z</time></trkpt>
<trkpt lat="42.182034" lon="23.585929"><ele>2804.3</ele><time>2026-04-05T10:11:03.000Z</time></trkpt>
<trkpt lat="42.182032" lon="23.585924"><ele>2804.9</ele><time>2026-04-05T10:11:04.000Z</time></trkpt>
<trkpt lat="42.18203" lon="23.585919"><ele>2804.9</ele><time>2026-04-05T10:11:05.000Z</time></trkpt>
<trkpt lat="42.182027" lon="23.585916"><ele>2804.9</ele><time>2026-04-05T10:11:06.000Z</time></trkpt>
<trkpt lat="42.182024" lon="23.585914"><ele>2804.9</ele><time>2026-04-05T10:11:07.000Z</time></trkpt>
<trkpt lat="42.182022" lon="23.585913"><ele>2804.9</ele><time>2026-04-05T10:11:08.000Z</time></trkpt>
<trkpt lat="42.182018" lon="23.585912"><ele>2806</ele><time>2026-04-05T10:11:09.000Z</time></trkpt>
<trkpt lat="42.182015" lon="23.585911"><ele>2806</ele><time>2026-04-05T10:11:10.000Z</time></trkpt>
<trkpt lat="42.182012" lon="23.585909"><ele>2806</ele><time>2026-04-05T10:11:11.000Z</time></trkpt>
<trkpt lat="42.182008" lon="23.585909"><ele>2806</ele><time>2026-04-05T10:11:12.000Z</time></trkpt>
<trkpt lat="42.182003" lon="23.585908"><ele>2806</ele><time>2026-04-05T10:11:13.000Z</time></trkpt>
<trkpt lat="42.182" lon="23.585907"><ele>2807.2</ele><time>2026-04-05T10:11:14.000Z</time></trkpt>
<trkpt lat="42.181996" lon="23.585906"><ele>2807.2</ele><time>2026-04-05T10:11:15.000Z</time></trkpt>
<trkpt lat="42.181993" lon="23.585904"><ele>2807.2</ele><time>2026-04-05T10:11:16.000Z</time></trkpt>
<trkpt lat="42.181989" lon="23.585902"><ele>2807.2</ele><time>2026-04-05T10:11:17.000Z</time></trkpt>
<trkpt lat="42.181988" lon="23.585901"><ele>2807.2</ele><time>2026-04-05T10:11:18.000Z</time></trkpt>
<trkpt lat="42.181986" lon="23.5859"><ele>2807.7</ele><time>2026-04-05T10:11:19.000Z</time></trkpt>
<trkpt lat="42.181984" lon="23.5859"><ele>2807.7</ele><time>2026-04-05T10:11:20.000Z</time></trkpt>
<trkpt lat="42.181984" lon="23.585901"><ele>2807.7</ele><time>2026-04-05T10:11:21.000Z</time></trkpt>
<trkpt lat="42.181986" lon="23.585901"><ele>2807.7</ele><time>2026-04-05T10:11:22.000Z</time></trkpt>
<trkpt lat="42.181986" lon="23.585903"><ele>2807.7</ele><time>2026-04-05T10:11:23.000Z</time></trkpt>
<trkpt lat="42.181985" lon="23.585904"><ele>2808.8</ele><time>2026-04-05T10:11:24.000Z</time></trkpt>
<trkpt lat="42.181985" lon="23.585907"><ele>2808.8</ele><time>2026-04-05T10:11:25.000Z</time></trkpt>
<trkpt lat="42.181984" lon="23.585909"><ele>2808.8</ele><time>2026-04-05T10:11:26.000Z</time></trkpt>
<trkpt lat="42.181982" lon="23.585911"><ele>2808.8</ele><time>2026-04-05T10:11:27.000Z</time></trkpt>
<trkpt lat="42.181981" lon="23.585913"><ele>2808.8</ele><time>2026-04-05T10:11:28.000Z</time></trkpt>
<trkpt lat="42.181981" lon="23.585914"><ele>2809.7</ele><time>2026-04-05T10:11:29.000Z</time></trkpt>
<trkpt lat="42.181981" lon="23.585914"><ele>2809.7</ele><time>2026-04-05T10:11:30.000Z</time></trkpt>
<trkpt lat="42.181981" lon="23.585914"><ele>2809.7</ele><time>2026-04-05T10:11:31.000Z</time></trkpt>
<trkpt lat="42.181981" lon="23.585914"><ele>2809.7</ele><time>2026-04-05T10:11:32.000Z</time></trkpt>
<trkpt lat="42.181981" lon="23.585914"><ele>2809.7</ele><time>2026-04-05T10:11:33.000Z</time></trkpt>
<trkpt lat="42.181981" lon="23.585914"><ele>2810.1</ele><time>2026-04-05T10:11:34.000Z</time></trkpt>
<trkpt lat="42.181981" lon="23.585914"><ele>2810.1</ele><time>2026-04-05T10:11:35.000Z</time></trkpt>
<trkpt lat="42.181981" lon="23.585914"><ele>2810.1</ele><time>2026-04-05T10:11:36.000Z</time></trkpt>
<trkpt lat="42.181981" lon="23.585914"><ele>2810.1</ele><time>2026-04-05T10:11:37.000Z</time></trkpt>
<trkpt lat="42.181981" lon="23.585914"><ele>2810.1</ele><time>2026-04-05T10:11:38.000Z</time></trkpt>
<trkpt lat="42.181981" lon="23.585914"><ele>2810.4</ele><time>2026-04-05T10:11:39.000Z</time></trkpt>
<trkpt lat="42.18198" lon="23.585914"><ele>2810.4</ele><time>2026-04-05T10:11:40.000Z</time></trkpt>
<trkpt lat="42.18198" lon="23.585914"><ele>2810.4</ele><time>2026-04-05T10:11:41.000Z</time></trkpt>
<trkpt lat="42.18198" lon="23.585914"><ele>2810.4</ele><time>2026-04-05T10:11:42.000Z</time></trkpt>
<trkpt lat="42.181979" lon="23.585912"><ele>2810.4</ele><time>2026-04-05T10:11:43.000Z</time></trkpt>
<trkpt lat="42.181977" lon="23.585911"><ele>2810.3</ele><time>2026-04-05T10:11:44.000Z</time></trkpt>
<trkpt lat="42.181973" lon="23.585909"><ele>2810.3</ele><time>2026-04-05T10:11:45.000Z</time></trkpt>
<trkpt lat="42.18197" lon="23.585907"><ele>2810.3</ele><time>2026-04-05T10:11:46.000Z</time></trkpt>
<trkpt lat="42.181965" lon="23.585904"><ele>2810.3</ele><time>2026-04-05T10:11:47.000Z</time></trkpt>
<trkpt lat="42.181961" lon="23.585903"><ele>2810.3</ele><time>2026-04-05T10:11:48.000Z</time></trkpt>
<trkpt lat="42.181958" lon="23.585901"><ele>2810.2</ele><time>2026-04-05T10:11:49.000Z</time></trkpt>
<trkpt lat="42.181954" lon="23.5859"><ele>2810.2</ele><time>2026-04-05T10:11:50.000Z</time></trkpt>
<trkpt lat="42.181951" lon="23.5859"><ele>2810.2</ele><time>2026-04-05T10:11:51.000Z</time></trkpt>
<trkpt lat="42.181948" lon="23.5859"><ele>2810.2</ele><time>2026-04-05T10:11:52.000Z</time></trkpt>
<trkpt lat="42.181946" lon="23.585901"><ele>2810.2</ele><time>2026-04-05T10:11:53.000Z</time></trkpt>
<trkpt lat="42.181944" lon="23.585903"><ele>2810.3</ele><time>2026-04-05T10:11:54.000Z</time></trkpt>
<trkpt lat="42.181943" lon="23.585904"><ele>2810.3</ele><time>2026-04-05T10:11:55.000Z</time></trkpt>
<trkpt lat="42.181942" lon="23.585905"><ele>2810.3</ele><time>2026-04-05T10:11:56.000Z</time></trkpt>
<trkpt lat="42.181941" lon="23.585906"><ele>2810.3</ele><time>2026-04-05T10:11:57.000Z</time></trkpt>
<trkpt lat="42.18194" lon="23.585908"><ele>2810.3</ele><time>2026-04-05T10:11:58.000Z</time></trkpt>
<trkpt lat="42.181939" lon="23.585909"><ele>2811</ele><time>2026-04-05T10:11:59.000Z</time></trkpt>
<trkpt lat="42.181938" lon="23.58591"><ele>2811</ele><time>2026-04-05T10:12:00.000Z</time></trkpt>
<trkpt lat="42.181937" lon="23.585911"><ele>2811</ele><time>2026-04-05T10:12:01.000Z</time></trkpt>
<trkpt lat="42.181937" lon="23.585912"><ele>2811</ele><time>2026-04-05T10:12:02.000Z</time></trkpt>
<trkpt lat="42.181937" lon="23.585912"><ele>2811</ele><time>2026-04-05T10:12:03.000Z</time></trkpt>
<trkpt lat="42.181937" lon="23.585912"><ele>2811.4</ele><time>2026-04-05T10:12:04.000Z</time></trkpt>
<trkpt lat="42.181937" lon="23.585912"><ele>2811.4</ele><time>2026-04-05T10:12:05.000Z</time></trkpt>
<trkpt lat="42.181937" lon="23.585912"><ele>2811.4</ele><time>2026-04-05T10:12:06.000Z</time></trkpt>
<trkpt lat="42.181937" lon="23.585912"><ele>2811.4</ele><time>2026-04-05T10:12:07.000Z</time></trkpt>
<trkpt lat="42.181937" lon="23.585912"><ele>2811.4</ele><time>2026-04-05T10:12:08.000Z</time></trkpt>
<trkpt lat="42.181937" lon="23.585912"><ele>2812</ele><time>2026-04-05T10:12:09.000Z</time></trkpt>
<trkpt lat="42.181938" lon="23.585912"><ele>2812</ele><time>2026-04-05T10:12:10.000Z</time></trkpt>
<trkpt lat="42.181938" lon="23.585911"><ele>2812</ele><time>2026-04-05T10:12:11.000Z</time></trkpt>
<trkpt lat="42.181939" lon="23.585911"><ele>2812</ele><time>2026-04-05T10:12:12.000Z</time></trkpt>
<trkpt lat="42.181939" lon="23.58591"><ele>2812</ele><time>2026-04-05T10:12:13.000Z</time></trkpt>
<trkpt lat="42.181937" lon="23.585909"><ele>2812.1</ele><time>2026-04-05T10:12:14.000Z</time></trkpt>
<trkpt lat="42.181935" lon="23.585909"><ele>2812.1</ele><time>2026-04-05T10:12:15.000Z</time></trkpt>
<trkpt lat="42.181932" lon="23.585909"><ele>2812.1</ele><time>2026-04-05T10:12:16.000Z</time></trkpt>
<trkpt lat="42.181927" lon="23.585908"><ele>2812.1</ele><time>2026-04-05T10:12:17.000Z</time></trkpt>
<trkpt lat="42.181922" lon="23.585907"><ele>2812.1</ele><time>2026-04-05T10:12:18.000Z</time></trkpt>
<trkpt lat="42.181918" lon="23.585905"><ele>2812.1</ele><time>2026-04-05T10:12:19.000Z</time></trkpt>
<trkpt lat="42.181913" lon="23.585904"><ele>2812.1</ele><time>2026-04-05T10:12:20.000Z</time></trkpt>
<trkpt lat="42.181908" lon="23.585902"><ele>2812.1</ele><time>2026-04-05T10:12:21.000Z</time></trkpt>
<trkpt lat="42.181903" lon="23.585901"><ele>2812.1</ele><time>2026-04-05T10:12:22.000Z</time></trkpt>
<trkpt lat="42.181899" lon="23.585901"><ele>2812.1</ele><time>2026-04-05T10:12:23.000Z</time></trkpt>
<trkpt lat="42.181894" lon="23.585901"><ele>2812.2</ele><time>2026-04-05T10:12:24.000Z</time></trkpt>
<trkpt lat="42.18189" lon="23.585902"><ele>2812.2</ele><time>2026-04-05T10:12:25.000Z</time></trkpt>
<trkpt lat="42.181886" lon="23.585902"><ele>2812.2</ele><time>2026-04-05T10:12:26.000Z</time></trkpt>
<trkpt lat="42.181882" lon="23.585901"><ele>2812.2</ele><time>2026-04-05T10:12:27.000Z</time></trkpt>
<trkpt lat="42.181878" lon="23.585899"><ele>2812.2</ele><time>2026-04-05T10:12:28.000Z</time></trkpt>
<trkpt lat="42.181874" lon="23.585896"><ele>2812.8</ele><time>2026-04-05T10:12:29.000Z</time></trkpt>
<trkpt lat="42.181871" lon="23.585893"><ele>2812.8</ele><time>2026-04-05T10:12:30.000Z</time></trkpt>
<trkpt lat="42.181867" lon="23.58589"><ele>2812.8</ele><time>2026-04-05T10:12:31.000Z</time></trkpt>
<trkpt lat="42.181864" lon="23.585887"><ele>2812.8</ele><time>2026-04-05T10:12:32.000Z</time></trkpt>
<trkpt lat="42.181861" lon="23.585885"><ele>2812.8</ele><time>2026-04-05T10:12:33.000Z</time></trkpt>
<trkpt lat="42.181858" lon="23.585885"><ele>2813.4</ele><time>2026-04-05T10:12:34.000Z</time></trkpt>
<trkpt lat="42.181854" lon="23.585884"><ele>2813.4</ele><time>2026-04-05T10:12:35.000Z</time></trkpt>
<trkpt lat="42.181851" lon="23.585884"><ele>2813.4</ele><time>2026-04-05T10:12:36.000Z</time></trkpt>
<trkpt lat="42.181847" lon="23.585883"><ele>2813.4</ele><time>2026-04-05T10:12:37.000Z</time></trkpt>
<trkpt lat="42.181845" lon="23.585882"><ele>2813.4</ele><time>2026-04-05T10:12:38.000Z</time></trkpt>
<trkpt lat="42.181843" lon="23.585881"><ele>2814.8</ele><time>2026-04-05T10:12:39.000Z</time></trkpt>
<trkpt lat="42.18184" lon="23.58588"><ele>2814.8</ele><time>2026-04-05T10:12:40.000Z</time></trkpt>
<trkpt lat="42.181839" lon="23.585879"><ele>2814.8</ele><time>2026-04-05T10:12:41.000Z</time></trkpt>
<trkpt lat="42.181836" lon="23.585881"><ele>2814.8</ele><time>2026-04-05T10:12:42.000Z</time></trkpt>
<trkpt lat="42.181834" lon="23.585881"><ele>2814.8</ele><time>2026-04-05T10:12:43.000Z</time></trkpt>
<trkpt lat="42.181832" lon="23.585882"><ele>2816.4</ele><time>2026-04-05T10:12:44.000Z</time></trkpt>
<trkpt lat="42.181831" lon="23.585883"><ele>2816.4</ele><time>2026-04-05T10:12:45.000Z</time></trkpt>
<trkpt lat="42.18183" lon="23.585883"><ele>2816.4</ele><time>2026-04-05T10:12:46.000Z</time></trkpt>
<trkpt lat="42.181829" lon="23.585883"><ele>2816.4</ele><time>2026-04-05T10:12:47.000Z</time></trkpt>
<trkpt lat="42.181829" lon="23.585883"><ele>2816.4</ele><time>2026-04-05T10:12:48.000Z</time></trkpt>
<trkpt lat="42.181829" lon="23.585883"><ele>2817</ele><time>2026-04-05T10:12:49.000Z</time></trkpt>
<trkpt lat="42.181828" lon="23.585882"><ele>2817</ele><time>2026-04-05T10:12:50.000Z</time></trkpt>
<trkpt lat="42.181828" lon="23.585882"><ele>2817</ele><time>2026-04-05T10:12:51.000Z</time></trkpt>
<trkpt lat="42.181828" lon="23.585882"><ele>2817</ele><time>2026-04-05T10:12:52.000Z</time></trkpt>
<trkpt lat="42.181828" lon="23.585882"><ele>2817</ele><time>2026-04-05T10:12:53.000Z</time></trkpt>
<trkpt lat="42.181828" lon="23.585882"><ele>2817.9</ele><time>2026-04-05T10:12:54.000Z</time></trkpt>
<trkpt lat="42.181828" lon="23.585882"><ele>2817.9</ele><time>2026-04-05T10:12:55.000Z</time></trkpt>
<trkpt lat="42.181828" lon="23.585882"><ele>2817.9</ele><time>2026-04-05T10:12:56.000Z</time></trkpt>
<trkpt lat="42.181828" lon="23.585882"><ele>2817.9</ele><time>2026-04-05T10:12:57.000Z</time></trkpt>
<trkpt lat="42.181828" lon="23.585882"><ele>2817.9</ele><time>2026-04-05T10:12:58.000Z</time></trkpt>
<trkpt lat="42.181828" lon="23.585882"><ele>2818.2</ele><time>2026-04-05T10:12:59.000Z</time></trkpt>
<trkpt lat="42.181828" lon="23.585882"><ele>2818.2</ele><time>2026-04-05T10:13:00.000Z</time></trkpt>
<trkpt lat="42.181828" lon="23.585882"><ele>2818.2</ele><time>2026-04-05T10:13:01.000Z</time></trkpt>
<trkpt lat="42.181828" lon="23.585882"><ele>2818.2</ele><time>2026-04-05T10:13:02.000Z</time></trkpt>
<trkpt lat="42.181828" lon="23.585882"><ele>2818.2</ele><time>2026-04-05T10:13:03.000Z</time></trkpt>
<trkpt lat="42.181828" lon="23.585882"><ele>2818.2</ele><time>2026-04-05T10:13:04.000Z</time></trkpt>
<trkpt lat="42.181828" lon="23.585882"><ele>2818.2</ele><time>2026-04-05T10:13:05.000Z</time></trkpt>
<trkpt lat="42.181827" lon="23.585882"><ele>2818.2</ele><time>2026-04-05T10:13:06.000Z</time></trkpt>
<trkpt lat="42.181824" lon="23.585881"><ele>2818.2</ele><time>2026-04-05T10:13:07.000Z</time></trkpt>
<trkpt lat="42.181821" lon="23.585879"><ele>2818.2</ele><time>2026-04-05T10:13:08.000Z</time></trkpt>
<trkpt lat="42.181817" lon="23.585877"><ele>2818.3</ele><time>2026-04-05T10:13:09.000Z</time></trkpt>
<trkpt lat="42.181813" lon="23.585875"><ele>2818.3</ele><time>2026-04-05T10:13:10.000Z</time></trkpt>
<trkpt lat="42.181809" lon="23.585873"><ele>2818.3</ele><time>2026-04-05T10:13:11.000Z</time></trkpt>
<trkpt lat="42.181806" lon="23.58587"><ele>2818.3</ele><time>2026-04-05T10:13:12.000Z</time></trkpt>
<trkpt lat="42.181803" lon="23.585867"><ele>2818.3</ele><time>2026-04-05T10:13:13.000Z</time></trkpt>
<trkpt lat="42.181802" lon="23.585864"><ele>2818.5</ele><time>2026-04-05T10:13:14.000Z</time></trkpt>
<trkpt lat="42.1818" lon="23.585861"><ele>2818.5</ele><time>2026-04-05T10:13:15.000Z</time></trkpt>
<trkpt lat="42.181799" lon="23.585858"><ele>2818.5</ele><time>2026-04-05T10:13:16.000Z</time></trkpt>
<trkpt lat="42.181799" lon="23.585855"><ele>2818.5</ele><time>2026-04-05T10:13:17.000Z</time></trkpt>
<trkpt lat="42.181798" lon="23.585853"><ele>2818.5</ele><time>2026-04-05T10:13:18.000Z</time></trkpt>
<trkpt lat="42.181797" lon="23.585849"><ele>2818.8</ele><time>2026-04-05T10:13:19.000Z</time></trkpt>
<trkpt lat="42.181796" lon="23.585846"><ele>2818.8</ele><time>2026-04-05T10:13:20.000Z</time></trkpt>
<trkpt lat="42.181794" lon="23.585843"><ele>2818.8</ele><time>2026-04-05T10:13:21.000Z</time></trkpt>
<trkpt lat="42.181793" lon="23.58584"><ele>2818.8</ele><time>2026-04-05T10:13:22.000Z</time></trkpt>
<trkpt lat="42.181791" lon="23.585837"><ele>2818.8</ele><time>2026-04-05T10:13:23.000Z</time></trkpt>
<trkpt lat="42.181789" lon="23.585835"><ele>2819.8</ele><time>2026-04-05T10:13:24.000Z</time></trkpt>
<trkpt lat="42.181787" lon="23.585832"><ele>2819.8</ele><time>2026-04-05T10:13:25.000Z</time></trkpt>
<trkpt lat="42.181785" lon="23.585829"><ele>2819.8</ele><time>2026-04-05T10:13:26.000Z</time></trkpt>
<trkpt lat="42.181784" lon="23.585826"><ele>2819.8</ele><time>2026-04-05T10:13:27.000Z</time></trkpt>
<trkpt lat="42.181782" lon="23.585823"><ele>2819.8</ele><time>2026-04-05T10:13:28.000Z</time></trkpt>
<trkpt lat="42.181781" lon="23.585819"><ele>2820.9</ele><time>2026-04-05T10:13:29.000Z</time></trkpt>
<trkpt lat="42.18178" lon="23.585815"><ele>2820.9</ele><time>2026-04-05T10:13:30.000Z</time></trkpt>
<trkpt lat="42.181778" lon="23.58581"><ele>2820.9</ele><time>2026-04-05T10:13:31.000Z</time></trkpt>
<trkpt lat="42.181778" lon="23.585806"><ele>2820.9</ele><time>2026-04-05T10:13:32.000Z</time></trkpt>
<trkpt lat="42.181777" lon="23.585802"><ele>2820.9</ele><time>2026-04-05T10:13:33.000Z</time></trkpt>
<trkpt lat="42.181776" lon="23.585798"><ele>2821.5</ele><time>2026-04-05T10:13:34.000Z</time></trkpt>
<trkpt lat="42.181774" lon="23.585794"><ele>2821.5</ele><time>2026-04-05T10:13:35.000Z</time></trkpt>
<trkpt lat="42.181773" lon="23.585791"><ele>2821.5</ele><time>2026-04-05T10:13:36.000Z</time></trkpt>
<trkpt lat="42.181771" lon="23.585788"><ele>2821.5</ele><time>2026-04-05T10:13:37.000Z</time></trkpt>
<trkpt lat="42.181769" lon="23.585784"><ele>2821.5</ele><time>2026-04-05T10:13:38.000Z</time></trkpt>
<trkpt lat="42.181766" lon="23.585782"><ele>2822.8</ele><time>2026-04-05T10:13:39.000Z</time></trkpt>
<trkpt lat="42.181765" lon="23.585781"><ele>2822.8</ele><time>2026-04-05T10:13:40.000Z</time></trkpt>
<trkpt lat="42.181763" lon="23.58578"><ele>2822.8</ele><time>2026-04-05T10:13:41.000Z</time></trkpt>
<trkpt lat="42.18176" lon="23.585778"><ele>2822.8</ele><time>2026-04-05T10:13:42.000Z</time></trkpt>
<trkpt lat="42.181758" lon="23.585776"><ele>2822.8</ele><time>2026-04-05T10:13:43.000Z</time></trkpt>
<trkpt lat="42.181755" lon="23.585772"><ele>2823.9</ele><time>2026-04-05T10:13:44.000Z</time></trkpt>
<trkpt lat="42.181751" lon="23.585769"><ele>2823.9</ele><time>2026-04-05T10:13:45.000Z</time></trkpt>
<trkpt lat="42.181747" lon="23.585766"><ele>2823.9</ele><time>2026-04-05T10:13:46.000Z</time></trkpt>
<trkpt lat="42.181744" lon="23.585763"><ele>2823.9</ele><time>2026-04-05T10:13:47.000Z</time></trkpt>
<trkpt lat="42.181741" lon="23.585762"><ele>2823.9</ele><time>2026-04-05T10:13:48.000Z</time></trkpt>
<trkpt lat="42.181739" lon="23.585762"><ele>2824.4</ele><time>2026-04-05T10:13:49.000Z</time></trkpt>
<trkpt lat="42.181737" lon="23.585762"><ele>2824.4</ele><time>2026-04-05T10:13:50.000Z</time></trkpt>
<trkpt lat="42.181735" lon="23.585764"><ele>2824.4</ele><time>2026-04-05T10:13:51.000Z</time></trkpt>
<trkpt lat="42.181734" lon="23.585766"><ele>2824.4</ele><time>2026-04-05T10:13:52.000Z</time></trkpt>
<trkpt lat="42.181732" lon="23.585767"><ele>2824.4</ele><time>2026-04-05T10:13:53.000Z</time></trkpt>
<trkpt lat="42.18173" lon="23.585769"><ele>2825.3</ele><time>2026-04-05T10:13:54.000Z</time></trkpt>
<trkpt lat="42.181728" lon="23.585769"><ele>2825.3</ele><time>2026-04-05T10:13:55.000Z</time></trkpt>
<trkpt lat="42.181726" lon="23.585768"><ele>2825.3</ele><time>2026-04-05T10:13:56.000Z</time></trkpt>
<trkpt lat="42.181724" lon="23.585766"><ele>2825.3</ele><time>2026-04-05T10:13:57.000Z</time></trkpt>
<trkpt lat="42.181722" lon="23.585763"><ele>2825.3</ele><time>2026-04-05T10:13:58.000Z</time></trkpt>
<trkpt lat="42.18172" lon="23.585759"><ele>2826.3</ele><time>2026-04-05T10:13:59.000Z</time></trkpt>
<trkpt lat="42.181719" lon="23.585755"><ele>2826.3</ele><time>2026-04-05T10:14:00.000Z</time></trkpt>
<trkpt lat="42.181718" lon="23.585752"><ele>2826.3</ele><time>2026-04-05T10:14:01.000Z</time></trkpt>
<trkpt lat="42.181717" lon="23.58575"><ele>2826.3</ele><time>2026-04-05T10:14:02.000Z</time></trkpt>
<trkpt lat="42.181718" lon="23.585747"><ele>2826.3</ele><time>2026-04-05T10:14:03.000Z</time></trkpt>
<trkpt lat="42.181718" lon="23.585745"><ele>2826.9</ele><time>2026-04-05T10:14:04.000Z</time></trkpt>
<trkpt lat="42.181717" lon="23.585741"><ele>2826.9</ele><time>2026-04-05T10:14:05.000Z</time></trkpt>
<trkpt lat="42.181716" lon="23.585738"><ele>2826.9</ele><time>2026-04-05T10:14:06.000Z</time></trkpt>
<trkpt lat="42.181715" lon="23.585735"><ele>2826.9</ele><time>2026-04-05T10:14:07.000Z</time></trkpt>
<trkpt lat="42.181713" lon="23.585733"><ele>2826.9</ele><time>2026-04-05T10:14:08.000Z</time></trkpt>
<trkpt lat="42.181711" lon="23.585733"><ele>2828</ele><time>2026-04-05T10:14:09.000Z</time></trkpt>
<trkpt lat="42.18171" lon="23.585734"><ele>2828</ele><time>2026-04-05T10:14:10.000Z</time></trkpt>
<trkpt lat="42.181709" lon="23.585735"><ele>2828</ele><time>2026-04-05T10:14:11.000Z</time></trkpt>
<trkpt lat="42.181708" lon="23.585736"><ele>2828</ele><time>2026-04-05T10:14:12.000Z</time></trkpt>
<trkpt lat="42.181707" lon="23.585737"><ele>2828</ele><time>2026-04-05T10:14:13.000Z</time></trkpt>
<trkpt lat="42.181706" lon="23.585738"><ele>2829</ele><time>2026-04-05T10:14:14.000Z</time></trkpt>
<trkpt lat="42.181705" lon="23.585739"><ele>2829</ele><time>2026-04-05T10:14:15.000Z</time></trkpt>
<trkpt lat="42.181705" lon="23.585739"><ele>2829</ele><time>2026-04-05T10:14:16.000Z</time></trkpt>
<trkpt lat="42.181705" lon="23.58574"><ele>2829</ele><time>2026-04-05T10:14:17.000Z</time></trkpt>
<trkpt lat="42.181705" lon="23.58574"><ele>2829</ele><time>2026-04-05T10:14:18.000Z</time></trkpt>
<trkpt lat="42.181705" lon="23.58574"><ele>2829.4</ele><time>2026-04-05T10:14:19.000Z</time></trkpt>
<trkpt lat="42.181705" lon="23.58574"><ele>2829.4</ele><time>2026-04-05T10:14:20.000Z</time></trkpt>
<trkpt lat="42.181705" lon="23.585739"><ele>2829.4</ele><time>2026-04-05T10:14:21.000Z</time></trkpt>
<trkpt lat="42.181704" lon="23.585737"><ele>2829.4</ele><time>2026-04-05T10:14:22.000Z</time></trkpt>
<trkpt lat="42.181704" lon="23.585735"><ele>2829.4</ele><time>2026-04-05T10:14:23.000Z</time></trkpt>
<trkpt lat="42.181702" lon="23.585732"><ele>2829.9</ele><time>2026-04-05T10:14:24.000Z</time></trkpt>
<trkpt lat="42.181701" lon="23.585728"><ele>2829.9</ele><time>2026-04-05T10:14:25.000Z</time></trkpt>
<trkpt lat="42.181699" lon="23.585725"><ele>2829.9</ele><time>2026-04-05T10:14:26.000Z</time></trkpt>
<trkpt lat="42.181697" lon="23.585723"><ele>2829.9</ele><time>2026-04-05T10:14:27.000Z</time></trkpt>
<trkpt lat="42.181696" lon="23.585721"><ele>2829.9</ele><time>2026-04-05T10:14:28.000Z</time></trkpt>
<trkpt lat="42.181693" lon="23.58572"><ele>2830.1</ele><time>2026-04-05T10:14:29.000Z</time></trkpt>
<trkpt lat="42.181692" lon="23.585718"><ele>2830.1</ele><time>2026-04-05T10:14:30.000Z</time></trkpt>
<trkpt lat="42.18169" lon="23.585716"><ele>2830.1</ele><time>2026-04-05T10:14:31.000Z</time></trkpt>
<trkpt lat="42.181688" lon="23.585713"><ele>2830.1</ele><time>2026-04-05T10:14:32.000Z</time></trkpt>
<trkpt lat="42.181686" lon="23.585711"><ele>2830.1</ele><time>2026-04-05T10:14:33.000Z</time></trkpt>
<trkpt lat="42.181684" lon="23.585708"><ele>2830.2</ele><time>2026-04-05T10:14:34.000Z</time></trkpt>
<trkpt lat="42.181682" lon="23.585704"><ele>2830.2</ele><time>2026-04-05T10:14:35.000Z</time></trkpt>
<trkpt lat="42.181681" lon="23.5857"><ele>2830.2</ele><time>2026-04-05T10:14:36.000Z</time></trkpt>
<trkpt lat="42.181679" lon="23.585697"><ele>2830.2</ele><time>2026-04-05T10:14:37.000Z</time></trkpt>
<trkpt lat="42.181678" lon="23.585692"><ele>2830.2</ele><time>2026-04-05T10:14:38.000Z</time></trkpt>
<trkpt lat="42.181676" lon="23.585689"><ele>2830.8</ele><time>2026-04-05T10:14:39.000Z</time></trkpt>
<trkpt lat="42.181674" lon="23.585686"><ele>2830.8</ele><time>2026-04-05T10:14:40.000Z</time></trkpt>
<trkpt lat="42.181672" lon="23.585684"><ele>2830.8</ele><time>2026-04-05T10:14:41.000Z</time></trkpt>
<trkpt lat="42.18167" lon="23.585681"><ele>2830.8</ele><time>2026-04-05T10:14:42.000Z</time></trkpt>
<trkpt lat="42.181669" lon="23.585678"><ele>2830.8</ele><time>2026-04-05T10:14:43.000Z</time></trkpt>
<trkpt lat="42.181667" lon="23.585676"><ele>2832</ele><time>2026-04-05T10:14:44.000Z</time></trkpt>
<trkpt lat="42.181666" lon="23.585673"><ele>2832</ele><time>2026-04-05T10:14:45.000Z</time></trkpt>
<trkpt lat="42.181665" lon="23.585672"><ele>2832</ele><time>2026-04-05T10:14:46.000Z</time></trkpt>
<trkpt lat="42.181664" lon="23.585671"><ele>2832</ele><time>2026-04-05T10:14:47.000Z</time></trkpt>
<trkpt lat="42.181663" lon="23.58567"><ele>2832</ele><time>2026-04-05T10:14:48.000Z</time></trkpt>
<trkpt lat="42.181662" lon="23.58567"><ele>2832.7</ele><time>2026-04-05T10:14:49.000Z</time></trkpt>
<trkpt lat="42.181661" lon="23.585669"><ele>2832.7</ele><time>2026-04-05T10:14:50.000Z</time></trkpt>
<trkpt lat="42.18166" lon="23.585669"><ele>2832.7</ele><time>2026-04-05T10:14:51.000Z</time></trkpt>
<trkpt lat="42.18166" lon="23.585669"><ele>2832.7</ele><time>2026-04-05T10:14:52.000Z</time></trkpt>
<trkpt lat="42.18166" lon="23.585669"><ele>2832.7</ele><time>2026-04-05T10:14:53.000Z</time></trkpt>
<trkpt lat="42.18166" lon="23.585669"><ele>2834.1</ele><time>2026-04-05T10:14:54.000Z</time></trkpt>
<trkpt lat="42.18166" lon="23.585669"><ele>2834.1</ele><time>2026-04-05T10:14:55.000Z</time></trkpt>
<trkpt lat="42.18166" lon="23.585669"><ele>2834.1</ele><time>2026-04-05T10:14:56.000Z</time></trkpt>
<trkpt lat="42.18166" lon="23.585669"><ele>2834.1</ele><time>2026-04-05T10:14:57.000Z</time></trkpt>
<trkpt lat="42.18166" lon="23.585669"><ele>2834.1</ele><time>2026-04-05T10:14:58.000Z</time></trkpt>
<trkpt lat="42.18166" lon="23.585669"><ele>2834.9</ele><time>2026-04-05T10:14:59.000Z</time></trkpt>
<trkpt lat="42.18166" lon="23.585669"><ele>2834.9</ele><time>2026-04-05T10:15:00.000Z</time></trkpt>
<trkpt lat="42.18166" lon="23.585669"><ele>2834.9</ele><time>2026-04-05T10:15:01.000Z</time></trkpt>
<trkpt lat="42.18166" lon="23.585669"><ele>2834.9</ele><time>2026-04-05T10:15:02.000Z</time></trkpt>
<trkpt lat="42.18166" lon="23.585669"><ele>2834.9</ele><time>2026-04-05T10:15:03.000Z</time></trkpt>
<trkpt lat="42.18166" lon="23.585669"><ele>2835.1</ele><time>2026-04-05T10:15:04.000Z</time></trkpt>
<trkpt lat="42.18166" lon="23.58567"><ele>2835.1</ele><time>2026-04-05T10:15:05.000Z</time></trkpt>
<trkpt lat="42.181659" lon="23.585671"><ele>2835.1</ele><time>2026-04-05T10:15:06.000Z</time></trkpt>
<trkpt lat="42.181659" lon="23.585672"><ele>2835.1</ele><time>2026-04-05T10:15:07.000Z</time></trkpt>
<trkpt lat="42.181659" lon="23.585673"><ele>2835.1</ele><time>2026-04-05T10:15:08.000Z</time></trkpt>
<trkpt lat="42.18166" lon="23.585674"><ele>2835</ele><time>2026-04-05T10:15:09.000Z</time></trkpt>
<trkpt lat="42.18166" lon="23.585674"><ele>2835</ele><time>2026-04-05T10:15:10.000Z</time></trkpt>
<trkpt lat="42.18166" lon="23.585675"><ele>2835</ele><time>2026-04-05T10:15:11.000Z</time></trkpt>
<trkpt lat="42.18166" lon="23.585675"><ele>2835</ele><time>2026-04-05T10:15:12.000Z</time></trkpt>
<trkpt lat="42.181659" lon="23.585676"><ele>2835</ele><time>2026-04-05T10:15:13.000Z</time></trkpt>
<trkpt lat="42.181659" lon="23.585677"><ele>2834.9</ele><time>2026-04-05T10:15:14.000Z</time></trkpt>
<trkpt lat="42.181658" lon="23.585677"><ele>2834.9</ele><time>2026-04-05T10:15:15.000Z</time></trkpt>
<trkpt lat="42.181658" lon="23.585678"><ele>2834.9</ele><time>2026-04-05T10:15:16.000Z</time></trkpt>
<trkpt lat="42.181657" lon="23.585678"><ele>2834.9</ele><time>2026-04-05T10:15:17.000Z</time></trkpt>
<trkpt lat="42.181656" lon="23.585679"><ele>2834.9</ele><time>2026-04-05T10:15:18.000Z</time></trkpt>
<trkpt lat="42.181656" lon="23.58568"><ele>2834.8</ele><time>2026-04-05T10:15:19.000Z</time></trkpt>
<trkpt lat="42.181655" lon="23.58568"><ele>2834.8</ele><time>2026-04-05T10:15:20.000Z</time></trkpt>
<trkpt lat="42.181655" lon="23.58568"><ele>2834.8</ele><time>2026-04-05T10:15:21.000Z</time></trkpt>
<trkpt lat="42.181655" lon="23.58568"><ele>2834.8</ele><time>2026-04-05T10:15:22.000Z</time></trkpt>
<trkpt lat="42.181655" lon="23.585681"><ele>2834.8</ele><time>2026-04-05T10:15:23.000Z</time></trkpt>
<trkpt lat="42.181654" lon="23.585681"><ele>2834.9</ele><time>2026-04-05T10:15:24.000Z</time></trkpt>
<trkpt lat="42.181654" lon="23.585681"><ele>2834.9</ele><time>2026-04-05T10:15:25.000Z</time></trkpt>
<trkpt lat="42.181653" lon="23.585682"><ele>2834.9</ele><time>2026-04-05T10:15:26.000Z</time></trkpt>
<trkpt lat="42.181653" lon="23.585682"><ele>2834.9</ele><time>2026-04-05T10:15:27.000Z</time></trkpt>
<trkpt lat="42.181653" lon="23.585682"><ele>2834.9</ele><time>2026-04-05T10:15:28.000Z</time></trkpt>
<trkpt lat="42.181653" lon="23.585682"><ele>2834.9</ele><time>2026-04-05T10:15:29.000Z</time></trkpt>
<trkpt lat="42.181654" lon="23.585682"><ele>2834.9</ele><time>2026-04-05T10:15:30.000Z</time></trkpt>
<trkpt lat="42.181654" lon="23.585683"><ele>2834.9</ele><time>2026-04-05T10:15:31.000Z</time></trkpt>
<trkpt lat="42.181654" lon="23.585684"><ele>2834.9</ele><time>2026-04-05T10:15:32.000Z</time></trkpt>
<trkpt lat="42.181654" lon="23.585684"><ele>2834.9</ele><time>2026-04-05T10:15:33.000Z</time></trkpt>
<trkpt lat="42.181654" lon="23.585685"><ele>2835</ele><time>2026-04-05T10:15:34.000Z</time></trkpt>
<trkpt lat="42.181654" lon="23.585684"><ele>2835</ele><time>2026-04-05T10:15:35.000Z</time></trkpt>
<trkpt lat="42.181653" lon="23.585682"><ele>2835</ele><time>2026-04-05T10:15:36.000Z</time></trkpt>
<trkpt lat="42.181652" lon="23.585679"><ele>2835</ele><time>2026-04-05T10:15:37.000Z</time></trkpt>
<trkpt lat="42.18165" lon="23.585676"><ele>2835</ele><time>2026-04-05T10:15:38.000Z</time></trkpt>
<trkpt lat="42.181648" lon="23.585671"><ele>2835</ele><time>2026-04-05T10:15:39.000Z</time></trkpt>
<trkpt lat="42.181646" lon="23.585667"><ele>2835</ele><time>2026-04-05T10:15:40.000Z</time></trkpt>
<trkpt lat="42.181644" lon="23.585663"><ele>2835</ele><time>2026-04-05T10:15:41.000Z</time></trkpt>
<trkpt lat="42.181642" lon="23.585659"><ele>2835</ele><time>2026-04-05T10:15:42.000Z</time></trkpt>
<trkpt lat="42.181641" lon="23.585653"><ele>2835</ele><time>2026-04-05T10:15:43.000Z</time></trkpt>
<trkpt lat="42.181639" lon="23.585649"><ele>2835.1</ele><time>2026-04-05T10:15:44.000Z</time></trkpt>
<trkpt lat="42.181636" lon="23.585645"><ele>2835.1</ele><time>2026-04-05T10:15:45.000Z</time></trkpt>
<trkpt lat="42.181634" lon="23.58564"><ele>2835.1</ele><time>2026-04-05T10:15:46.000Z</time></trkpt>
<trkpt lat="42.181631" lon="23.585635"><ele>2835.1</ele><time>2026-04-05T10:15:47.000Z</time></trkpt>
<trkpt lat="42.181628" lon="23.58563"><ele>2835.1</ele><time>2026-04-05T10:15:48.000Z</time></trkpt>
<trkpt lat="42.181625" lon="23.585624"><ele>2835.2</ele><time>2026-04-05T10:15:49.000Z</time></trkpt>
<trkpt lat="42.181623" lon="23.585618"><ele>2835.2</ele><time>2026-04-05T10:15:50.000Z</time></trkpt>
<trkpt lat="42.18162" lon="23.585613"><ele>2835.2</ele><time>2026-04-05T10:15:51.000Z</time></trkpt>
<trkpt lat="42.181619" lon="23.585609"><ele>2835.2</ele><time>2026-04-05T10:15:52.000Z</time></trkpt>
<trkpt lat="42.181617" lon="23.585608"><ele>2835.2</ele><time>2026-04-05T10:15:53.000Z</time></trkpt>
<trkpt lat="42.181616" lon="23.585608"><ele>2835.9</ele><time>2026-04-05T10:15:54.000Z</time></trkpt>
<trkpt lat="42.181615" lon="23.585609"><ele>2835.9</ele><time>2026-04-05T10:15:55.000Z</time></trkpt>
<trkpt lat="42.181615" lon="23.58561"><ele>2835.9</ele><time>2026-04-05T10:15:56.000Z</time></trkpt>
<trkpt lat="42.181615" lon="23.58561"><ele>2835.9</ele><time>2026-04-05T10:15:57.000Z</time></trkpt>
<trkpt lat="42.181613" lon="23.585609"><ele>2835.9</ele><time>2026-04-05T10:15:58.000Z</time></trkpt>
<trkpt lat="42.181611" lon="23.585607"><ele>2836.9</ele><time>2026-04-05T10:15:59.000Z</time></trkpt>
<trkpt lat="42.181609" lon="23.585604"><ele>2836.9</ele><time>2026-04-05T10:16:00.000Z</time></trkpt>
<trkpt lat="42.181607" lon="23.5856"><ele>2836.9</ele><time>2026-04-05T10:16:01.000Z</time></trkpt>
<trkpt lat="42.181604" lon="23.585595"><ele>2836.9</ele><time>2026-04-05T10:16:02.000Z</time></trkpt>
<trkpt lat="42.181602" lon="23.585589"><ele>2836.9</ele><time>2026-04-05T10:16:03.000Z</time></trkpt>
<trkpt lat="42.181599" lon="23.585584"><ele>2837.5</ele><time>2026-04-05T10:16:04.000Z</time></trkpt>
<trkpt lat="42.181596" lon="23.585578"><ele>2837.5</ele><time>2026-04-05T10:16:05.000Z</time></trkpt>
<trkpt lat="42.181593" lon="23.585572"><ele>2837.5</ele><time>2026-04-05T10:16:06.000Z</time></trkpt>
<trkpt lat="42.18159" lon="23.585566"><ele>2837.5</ele><time>2026-04-05T10:16:07.000Z</time></trkpt>
<trkpt lat="42.181587" lon="23.58556"><ele>2837.5</ele><time>2026-04-05T10:16:08.000Z</time></trkpt>
<trkpt lat="42.181585" lon="23.585553"><ele>2838.5</ele><time>2026-04-05T10:16:09.000Z</time></trkpt>
<trkpt lat="42.181582" lon="23.585547"><ele>2838.5</ele><time>2026-04-05T10:16:10.000Z</time></trkpt>
<trkpt lat="42.181579" lon="23.585541"><ele>2838.5</ele><time>2026-04-05T10:16:11.000Z</time></trkpt>
<trkpt lat="42.181576" lon="23.585535"><ele>2838.5</ele><time>2026-04-05T10:16:12.000Z</time></trkpt>
<trkpt lat="42.181572" lon="23.58553"><ele>2838.5</ele><time>2026-04-05T10:16:13.000Z</time></trkpt>
<trkpt lat="42.181569" lon="23.585525"><ele>2839.6</ele><time>2026-04-05T10:16:14.000Z</time></trkpt>
<trkpt lat="42.181566" lon="23.585522"><ele>2839.6</ele><time>2026-04-05T10:16:15.000Z</time></trkpt>
<trkpt lat="42.181563" lon="23.585518"><ele>2839.6</ele><time>2026-04-05T10:16:16.000Z</time></trkpt>
<trkpt lat="42.181561" lon="23.585513"><ele>2839.6</ele><time>2026-04-05T10:16:17.000Z</time></trkpt>
<trkpt lat="42.181559" lon="23.58551"><ele>2839.6</ele><time>2026-04-05T10:16:18.000Z</time></trkpt>
<trkpt lat="42.181556" lon="23.585505"><ele>2840.3</ele><time>2026-04-05T10:16:19.000Z</time></trkpt>
<trkpt lat="42.181553" lon="23.5855"><ele>2840.3</ele><time>2026-04-05T10:16:20.000Z</time></trkpt>
<trkpt lat="42.181551" lon="23.585494"><ele>2840.3</ele><time>2026-04-05T10:16:21.000Z</time></trkpt>
<trkpt lat="42.181548" lon="23.58549"><ele>2840.3</ele><time>2026-04-05T10:16:22.000Z</time></trkpt>
<trkpt lat="42.181545" lon="23.585485"><ele>2840.3</ele><time>2026-04-05T10:16:23.000Z</time></trkpt>
<trkpt lat="42.181543" lon="23.585481"><ele>2841.8</ele><time>2026-04-05T10:16:24.000Z</time></trkpt>
<trkpt lat="42.181541" lon="23.585479"><ele>2841.8</ele><time>2026-04-05T10:16:25.000Z</time></trkpt>
<trkpt lat="42.181539" lon="23.585476"><ele>2841.8</ele><time>2026-04-05T10:16:26.000Z</time></trkpt>
<trkpt lat="42.181536" lon="23.585475"><ele>2841.8</ele><time>2026-04-05T10:16:27.000Z</time></trkpt>
<trkpt lat="42.181534" lon="23.585473"><ele>2841.8</ele><time>2026-04-05T10:16:28.000Z</time></trkpt>
<trkpt lat="42.181531" lon="23.585472"><ele>2843.1</ele><time>2026-04-05T10:16:29.000Z</time></trkpt>
<trkpt lat="42.181527" lon="23.58547"><ele>2843.1</ele><time>2026-04-05T10:16:30.000Z</time></trkpt>
<trkpt lat="42.181524" lon="23.585466"><ele>2843.1</ele><time>2026-04-05T10:16:31.000Z</time></trkpt>
<trkpt lat="42.181521" lon="23.585462"><ele>2843.1</ele><time>2026-04-05T10:16:32.000Z</time></trkpt>
<trkpt lat="42.181517" lon="23.585458"><ele>2843.1</ele><time>2026-04-05T10:16:33.000Z</time></trkpt>
<trkpt lat="42.181514" lon="23.585454"><ele>2843.7</ele><time>2026-04-05T10:16:34.000Z</time></trkpt>
<trkpt lat="42.18151" lon="23.585449"><ele>2843.7</ele><time>2026-04-05T10:16:35.000Z</time></trkpt>
<trkpt lat="42.181507" lon="23.585445"><ele>2843.7</ele><time>2026-04-05T10:16:36.000Z</time></trkpt>
<trkpt lat="42.181503" lon="23.58544"><ele>2843.7</ele><time>2026-04-05T10:16:37.000Z</time></trkpt>
<trkpt lat="42.181499" lon="23.585434"><ele>2843.7</ele><time>2026-04-05T10:16:38.000Z</time></trkpt>
<trkpt lat="42.181495" lon="23.585427"><ele>2844.5</ele><time>2026-04-05T10:16:39.000Z</time></trkpt>
<trkpt lat="42.181492" lon="23.585421"><ele>2844.5</ele><time>2026-04-05T10:16:40.000Z</time></trkpt>
<trkpt lat="42.181489" lon="23.585416"><ele>2844.5</ele><time>2026-04-05T10:16:41.000Z</time></trkpt>
<trkpt lat="42.181486" lon="23.58541"><ele>2844.5</ele><time>2026-04-05T10:16:42.000Z</time></trkpt>
<trkpt lat="42.181484" lon="23.585405"><ele>2844.5</ele><time>2026-04-05T10:16:43.000Z</time></trkpt>
<trkpt lat="42.181481" lon="23.585401"><ele>2845.3</ele><time>2026-04-05T10:16:44.000Z</time></trkpt>
<trkpt lat="42.181479" lon="23.585396"><ele>2845.3</ele><time>2026-04-05T10:16:45.000Z</time></trkpt>
<trkpt lat="42.181477" lon="23.585391"><ele>2845.3</ele><time>2026-04-05T10:16:46.000Z</time></trkpt>
<trkpt lat="42.181475" lon="23.585389"><ele>2845.3</ele><time>2026-04-05T10:16:47.000Z</time></trkpt>
<trkpt lat="42.181474" lon="23.585388"><ele>2845.3</ele><time>2026-04-05T10:16:48.000Z</time></trkpt>
<trkpt lat="42.181474" lon="23.585388"><ele>2845.7</ele><time>2026-04-05T10:16:49.000Z</time></trkpt>
<trkpt lat="42.181474" lon="23.585389"><ele>2845.7</ele><time>2026-04-05T10:16:50.000Z</time></trkpt>
<trkpt lat="42.181474" lon="23.58539"><ele>2845.7</ele><time>2026-04-05T10:16:51.000Z</time></trkpt>
<trkpt lat="42.181474" lon="23.585391"><ele>2845.7</ele><time>2026-04-05T10:16:52.000Z</time></trkpt>
<trkpt lat="42.181474" lon="23.585392"><ele>2845.7</ele><time>2026-04-05T10:16:53.000Z</time></trkpt>
<trkpt lat="42.181473" lon="23.585393"><ele>2846.5</ele><time>2026-04-05T10:16:54.000Z</time></trkpt>
<trkpt lat="42.181471" lon="23.585394"><ele>2846.5</ele><time>2026-04-05T10:16:55.000Z</time></trkpt>
<trkpt lat="42.18147" lon="23.585396"><ele>2846.5</ele><time>2026-04-05T10:16:56.000Z</time></trkpt>
<trkpt lat="42.181469" lon="23.585397"><ele>2846.5</ele><time>2026-04-05T10:16:57.000Z</time></trkpt>
<trkpt lat="42.181468" lon="23.585398"><ele>2846.5</ele><time>2026-04-05T10:16:58.000Z</time></trkpt>
<trkpt lat="42.181468" lon="23.585399"><ele>2847.1</ele><time>2026-04-05T10:16:59.000Z</time></trkpt>
<trkpt lat="42.181468" lon="23.585399"><ele>2847.1</ele><time>2026-04-05T10:17:00.000Z</time></trkpt>
<trkpt lat="42.181468" lon="23.585399"><ele>2847.1</ele><time>2026-04-05T10:17:01.000Z</time></trkpt>
<trkpt lat="42.181468" lon="23.5854"><ele>2847.1</ele><time>2026-04-05T10:17:02.000Z</time></trkpt>
<trkpt lat="42.181468" lon="23.585399"><ele>2847.1</ele><time>2026-04-05T10:17:03.000Z</time></trkpt>
<trkpt lat="42.181468" lon="23.585399"><ele>2847.2</ele><time>2026-04-05T10:17:04.000Z</time></trkpt>
<trkpt lat="42.181468" lon="23.585399"><ele>2847.2</ele><time>2026-04-05T10:17:05.000Z</time></trkpt>
<trkpt lat="42.181468" lon="23.585399"><ele>2847.2</ele><time>2026-04-05T10:17:06.000Z</time></trkpt>
<trkpt lat="42.181468" lon="23.585398"><ele>2847.2</ele><time>2026-04-05T10:17:07.000Z</time></trkpt>
<trkpt lat="42.181468" lon="23.585398"><ele>2847.2</ele><time>2026-04-05T10:17:08.000Z</time></trkpt>
<trkpt lat="42.181468" lon="23.585398"><ele>2847.2</ele><time>2026-04-05T10:17:09.000Z</time></trkpt>
<trkpt lat="42.181467" lon="23.585398"><ele>2847.2</ele><time>2026-04-05T10:17:10.000Z</time></trkpt>
<trkpt lat="42.181466" lon="23.585398"><ele>2847.2</ele><time>2026-04-05T10:17:11.000Z</time></trkpt>
<trkpt lat="42.181466" lon="23.585398"><ele>2847.2</ele><time>2026-04-05T10:17:12.000Z</time></trkpt>
<trkpt lat="42.181465" lon="23.585399"><ele>2847.2</ele><time>2026-04-05T10:17:13.000Z</time></trkpt>
<trkpt lat="42.181465" lon="23.585399"><ele>2847.2</ele><time>2026-04-05T10:17:14.000Z</time></trkpt>
<trkpt lat="42.181465" lon="23.585399"><ele>2847.2</ele><time>2026-04-05T10:17:15.000Z</time></trkpt>
<trkpt lat="42.181464" lon="23.585398"><ele>2847.2</ele><time>2026-04-05T10:17:16.000Z</time></trkpt>
<trkpt lat="42.181464" lon="23.585398"><ele>2847.2</ele><time>2026-04-05T10:17:17.000Z</time></trkpt>
<trkpt lat="42.181463" lon="23.585399"><ele>2847.2</ele><time>2026-04-05T10:17:18.000Z</time></trkpt>
<trkpt lat="42.181463" lon="23.585399"><ele>2847.3</ele><time>2026-04-05T10:17:19.000Z</time></trkpt>
<trkpt lat="42.181462" lon="23.585399"><ele>2847.3</ele><time>2026-04-05T10:17:20.000Z</time></trkpt>
<trkpt lat="42.181462" lon="23.585399"><ele>2847.3</ele><time>2026-04-05T10:17:21.000Z</time></trkpt>
<trkpt lat="42.181462" lon="23.585399"><ele>2847.3</ele><time>2026-04-05T10:17:22.000Z</time></trkpt>
<trkpt lat="42.181462" lon="23.585399"><ele>2847.3</ele><time>2026-04-05T10:17:23.000Z</time></trkpt>
<trkpt lat="42.181462" lon="23.585398"><ele>2847.3</ele><time>2026-04-05T10:17:24.000Z</time></trkpt>
<trkpt lat="42.181462" lon="23.585398"><ele>2847.3</ele><time>2026-04-05T10:17:25.000Z</time></trkpt>
<trkpt lat="42.181462" lon="23.585398"><ele>2847.3</ele><time>2026-04-05T10:17:26.000Z</time></trkpt>
<trkpt lat="42.181462" lon="23.585398"><ele>2847.3</ele><time>2026-04-05T10:17:27.000Z</time></trkpt>
<trkpt lat="42.181462" lon="23.585398"><ele>2847.3</ele><time>2026-04-05T10:17:28.000Z</time></trkpt>
<trkpt lat="42.181462" lon="23.585399"><ele>2847.4</ele><time>2026-04-05T10:17:29.000Z</time></trkpt>
<trkpt lat="42.181462" lon="23.585398"><ele>2847.4</ele><time>2026-04-05T10:17:30.000Z</time></trkpt>
<trkpt lat="42.181462" lon="23.585399"><ele>2847.4</ele><time>2026-04-05T10:17:31.000Z</time></trkpt>
<trkpt lat="42.181462" lon="23.585399"><ele>2847.4</ele><time>2026-04-05T10:17:32.000Z</time></trkpt>
<trkpt lat="42.181462" lon="23.5854"><ele>2847.4</ele><time>2026-04-05T10:17:33.000Z</time></trkpt>
<trkpt lat="42.181462" lon="23.585399"><ele>2847.4</ele><time>2026-04-05T10:17:34.000Z</time></trkpt>
<trkpt lat="42.181462" lon="23.5854"><ele>2847.4</ele><time>2026-04-05T10:17:35.000Z</time></trkpt>
<trkpt lat="42.181461" lon="23.5854"><ele>2847.4</ele><time>2026-04-05T10:17:36.000Z</time></trkpt>
<trkpt lat="42.181461" lon="23.585399"><ele>2847.4</ele><time>2026-04-05T10:17:37.000Z</time></trkpt>
<trkpt lat="42.181461" lon="23.585399"><ele>2847.4</ele><time>2026-04-05T10:17:38.000Z</time></trkpt>
<trkpt lat="42.181461" lon="23.585399"><ele>2847.4</ele><time>2026-04-05T10:17:39.000Z</time></trkpt>
<trkpt lat="42.181461" lon="23.585399"><ele>2847.4</ele><time>2026-04-05T10:17:40.000Z</time></trkpt>
<trkpt lat="42.181461" lon="23.585399"><ele>2847.4</ele><time>2026-04-05T10:17:41.000Z</time></trkpt>
<trkpt lat="42.181461" lon="23.585399"><ele>2847.4</ele><time>2026-04-05T10:17:42.000Z</time></trkpt>
<trkpt lat="42.181461" lon="23.585399"><ele>2847.4</ele><time>2026-04-05T10:17:43.000Z</time></trkpt>
<trkpt lat="42.181461" lon="23.585399"><ele>2847.5</ele><time>2026-04-05T10:17:44.000Z</time></trkpt>
<trkpt lat="42.181461" lon="23.585399"><ele>2847.5</ele><time>2026-04-05T10:17:45.000Z</time></trkpt>
<trkpt lat="42.181461" lon="23.5854"><ele>2847.5</ele><time>2026-04-05T10:17:46.000Z</time></trkpt>
<trkpt lat="42.181461" lon="23.5854"><ele>2847.5</ele><time>2026-04-05T10:17:47.000Z</time></trkpt>
<trkpt lat="42.181461" lon="23.585401"><ele>2847.5</ele><time>2026-04-05T10:17:48.000Z</time></trkpt>
<trkpt lat="42.18146" lon="23.585401"><ele>2847.6</ele><time>2026-04-05T10:17:49.000Z</time></trkpt>
<trkpt lat="42.18146" lon="23.585402"><ele>2847.6</ele><time>2026-04-05T10:17:50.000Z</time></trkpt>
<trkpt lat="42.18146" lon="23.585401"><ele>2847.6</ele><time>2026-04-05T10:17:51.000Z</time></trkpt>
<trkpt lat="42.181459" lon="23.585401"><ele>2847.6</ele><time>2026-04-05T10:17:52.000Z</time></trkpt>
<trkpt lat="42.181459" lon="23.5854"><ele>2847.6</ele><time>2026-04-05T10:17:53.000Z</time></trkpt>
<trkpt lat="42.181459" lon="23.5854"><ele>2847.6</ele><time>2026-04-05T10:17:54.000Z</time></trkpt>
<trkpt lat="42.181459" lon="23.5854"><ele>2847.6</ele><time>2026-04-05T10:17:55.000Z</time></trkpt>
<trkpt lat="42.181459" lon="23.5854"><ele>2847.6</ele><time>2026-04-05T10:17:56.000Z</time></trkpt>
<trkpt lat="42.181459" lon="23.5854"><ele>2847.6</ele><time>2026-04-05T10:17:57.000Z</time></trkpt>
<trkpt lat="42.181458" lon="23.5854"><ele>2847.6</ele><time>2026-04-05T10:17:58.000Z</time></trkpt>
<trkpt lat="42.181458" lon="23.585399"><ele>2847.7</ele><time>2026-04-05T10:17:59.000Z</time></trkpt>
<trkpt lat="42.181457" lon="23.585399"><ele>2847.7</ele><time>2026-04-05T10:18:00.000Z</time></trkpt>
<trkpt lat="42.181457" lon="23.585399"><ele>2847.7</ele><time>2026-04-05T10:18:01.000Z</time></trkpt>
<trkpt lat="42.181456" lon="23.585398"><ele>2847.7</ele><time>2026-04-05T10:18:02.000Z</time></trkpt>
<trkpt lat="42.181456" lon="23.585398"><ele>2847.7</ele><time>2026-04-05T10:18:03.000Z</time></trkpt>
<trkpt lat="42.181456" lon="23.585398"><ele>2847.7</ele><time>2026-04-05T10:18:04.000Z</time></trkpt>
<trkpt lat="42.181456" lon="23.585398"><ele>2847.7</ele><time>2026-04-05T10:18:05.000Z</time></trkpt>
<trkpt lat="42.181456" lon="23.585398"><ele>2847.7</ele><time>2026-04-05T10:18:06.000Z</time></trkpt>
<trkpt lat="42.181456" lon="23.585398"><ele>2847.7</ele><time>2026-04-05T10:18:07.000Z</time></trkpt>
<trkpt lat="42.181456" lon="23.585398"><ele>2847.7</ele><time>2026-04-05T10:18:08.000Z</time></trkpt>
<trkpt lat="42.181456" lon="23.585397"><ele>2847.7</ele><time>2026-04-05T10:18:09.000Z</time></trkpt>
<trkpt lat="42.181455" lon="23.585396"><ele>2847.7</ele><time>2026-04-05T10:18:10.000Z</time></trkpt>
<trkpt lat="42.181452" lon="23.585392"><ele>2847.7</ele><time>2026-04-05T10:18:11.000Z</time></trkpt>
<trkpt lat="42.181449" lon="23.585387"><ele>2847.7</ele><time>2026-04-05T10:18:12.000Z</time></trkpt>
<trkpt lat="42.181447" lon="23.585383"><ele>2847.7</ele><time>2026-04-05T10:18:13.000Z</time></trkpt>
<trkpt lat="42.181444" lon="23.585379"><ele>2847.6</ele><time>2026-04-05T10:18:14.000Z</time></trkpt>
<trkpt lat="42.181441" lon="23.585376"><ele>2847.6</ele><time>2026-04-05T10:18:15.000Z</time></trkpt>
<trkpt lat="42.181438" lon="23.585374"><ele>2847.6</ele><time>2026-04-05T10:18:16.000Z</time></trkpt>
<trkpt lat="42.181435" lon="23.585372"><ele>2847.6</ele><time>2026-04-05T10:18:17.000Z</time></trkpt>
<trkpt lat="42.18143" lon="23.585368"><ele>2847.6</ele><time>2026-04-05T10:18:18.000Z</time></trkpt>
<trkpt lat="42.181425" lon="23.585363"><ele>2847.7</ele><time>2026-04-05T10:18:19.000Z</time></trkpt>
<trkpt lat="42.18142" lon="23.585357"><ele>2847.7</ele><time>2026-04-05T10:18:20.000Z</time></trkpt>
<trkpt lat="42.181416" lon="23.585353"><ele>2847.7</ele><time>2026-04-05T10:18:21.000Z</time></trkpt>
<trkpt lat="42.181412" lon="23.585349"><ele>2847.7</ele><time>2026-04-05T10:18:22.000Z</time></trkpt>
<trkpt lat="42.181408" lon="23.585344"><ele>2847.7</ele><time>2026-04-05T10:18:23.000Z</time></trkpt>
<trkpt lat="42.181405" lon="23.58534"><ele>2848.3</ele><time>2026-04-05T10:18:24.000Z</time></trkpt>
<trkpt lat="42.181403" lon="23.585336"><ele>2848.3</ele><time>2026-04-05T10:18:25.000Z</time></trkpt>
<trkpt lat="42.1814" lon="23.585332"><ele>2848.3</ele><time>2026-04-05T10:18:26.000Z</time></trkpt>
<trkpt lat="42.181397" lon="23.585328"><ele>2848.3</ele><time>2026-04-05T10:18:27.000Z</time></trkpt>
<trkpt lat="42.181394" lon="23.585325"><ele>2848.3</ele><time>2026-04-05T10:18:28.000Z</time></trkpt>
<trkpt lat="42.18139" lon="23.585322"><ele>2849</ele><time>2026-04-05T10:18:29.000Z</time></trkpt>
<trkpt lat="42.181386" lon="23.58532"><ele>2849</ele><time>2026-04-05T10:18:30.000Z</time></trkpt>
<trkpt lat="42.181382" lon="23.585317"><ele>2849</ele><time>2026-04-05T10:18:31.000Z</time></trkpt>
<trkpt lat="42.181379" lon="23.585314"><ele>2849</ele><time>2026-04-05T10:18:32.000Z</time></trkpt>
<trkpt lat="42.181375" lon="23.58531"><ele>2849</ele><time>2026-04-05T10:18:33.000Z</time></trkpt>
<trkpt lat="42.181372" lon="23.585307"><ele>2849.4</ele><time>2026-04-05T10:18:34.000Z</time></trkpt>
<trkpt lat="42.18137" lon="23.585305"><ele>2849.4</ele><time>2026-04-05T10:18:35.000Z</time></trkpt>
<trkpt lat="42.181366" lon="23.585302"><ele>2849.4</ele><time>2026-04-05T10:18:36.000Z</time></trkpt>
<trkpt lat="42.181363" lon="23.585301"><ele>2849.4</ele><time>2026-04-05T10:18:37.000Z</time></trkpt>
<trkpt lat="42.18136" lon="23.585301"><ele>2849.4</ele><time>2026-04-05T10:18:38.000Z</time></trkpt>
<trkpt lat="42.181359" lon="23.585301"><ele>2850.3</ele><time>2026-04-05T10:18:39.000Z</time></trkpt>
<trkpt lat="42.181357" lon="23.585301"><ele>2850.3</ele><time>2026-04-05T10:18:40.000Z</time></trkpt>
<trkpt lat="42.181357" lon="23.585302"><ele>2850.3</ele><time>2026-04-05T10:18:41.000Z</time></trkpt>
<trkpt lat="42.181356" lon="23.585302"><ele>2850.3</ele><time>2026-04-05T10:18:42.000Z</time></trkpt>
<trkpt lat="42.181356" lon="23.585302"><ele>2850.3</ele><time>2026-04-05T10:18:43.000Z</time></trkpt>
<trkpt lat="42.181355" lon="23.585303"><ele>2851.4</ele><time>2026-04-05T10:18:44.000Z</time></trkpt>
<trkpt lat="42.181355" lon="23.585304"><ele>2851.4</ele><time>2026-04-05T10:18:45.000Z</time></trkpt>
<trkpt lat="42.181355" lon="23.585304"><ele>2851.4</ele><time>2026-04-05T10:18:46.000Z</time></trkpt>
<trkpt lat="42.181353" lon="23.585304"><ele>2851.4</ele><time>2026-04-05T10:18:47.000Z</time></trkpt>
<trkpt lat="42.181351" lon="23.585305"><ele>2851.4</ele><time>2026-04-05T10:18:48.000Z</time></trkpt>
<trkpt lat="42.181349" lon="23.585305"><ele>2851.8</ele><time>2026-04-05T10:18:49.000Z</time></trkpt>
<trkpt lat="42.181347" lon="23.585304"><ele>2851.8</ele><time>2026-04-05T10:18:50.000Z</time></trkpt>
<trkpt lat="42.181343" lon="23.585304"><ele>2851.8</ele><time>2026-04-05T10:18:51.000Z</time></trkpt>
<trkpt lat="42.181341" lon="23.585302"><ele>2851.8</ele><time>2026-04-05T10:18:52.000Z</time></trkpt>
<trkpt lat="42.181339" lon="23.5853"><ele>2851.8</ele><time>2026-04-05T10:18:53.000Z</time></trkpt>
<trkpt lat="42.181338" lon="23.585297"><ele>2852.6</ele><time>2026-04-05T10:18:54.000Z</time></trkpt>
<trkpt lat="42.181337" lon="23.585294"><ele>2852.6</ele><time>2026-04-05T10:18:55.000Z</time></trkpt>
<trkpt lat="42.181337" lon="23.585291"><ele>2852.6</ele><time>2026-04-05T10:18:56.000Z</time></trkpt>
<trkpt lat="42.181336" lon="23.585288"><ele>2852.6</ele><time>2026-04-05T10:18:57.000Z</time></trkpt>
<trkpt lat="42.181335" lon="23.585287"><ele>2852.6</ele><time>2026-04-05T10:18:58.000Z</time></trkpt>
<trkpt lat="42.181334" lon="23.585286"><ele>2853.3</ele><time>2026-04-05T10:18:59.000Z</time></trkpt>
<trkpt lat="42.181332" lon="23.585284"><ele>2853.3</ele><time>2026-04-05T10:19:00.000Z</time></trkpt>
<trkpt lat="42.181329" lon="23.585284"><ele>2853.3</ele><time>2026-04-05T10:19:01.000Z</time></trkpt>
<trkpt lat="42.181326" lon="23.585283"><ele>2853.3</ele><time>2026-04-05T10:19:02.000Z</time></trkpt>
<trkpt lat="42.181322" lon="23.585282"><ele>2853.3</ele><time>2026-04-05T10:19:03.000Z</time></trkpt>
<trkpt lat="42.181318" lon="23.585281"><ele>2853.7</ele><time>2026-04-05T10:19:04.000Z</time></trkpt>
<trkpt lat="42.181314" lon="23.585279"><ele>2853.7</ele><time>2026-04-05T10:19:05.000Z</time></trkpt>
<trkpt lat="42.18131" lon="23.585278"><ele>2853.7</ele><time>2026-04-05T10:19:06.000Z</time></trkpt>
<trkpt lat="42.181306" lon="23.585275"><ele>2853.7</ele><time>2026-04-05T10:19:07.000Z</time></trkpt>
<trkpt lat="42.181302" lon="23.585274"><ele>2853.7</ele><time>2026-04-05T10:19:08.000Z</time></trkpt>
<trkpt lat="42.181299" lon="23.585272"><ele>2854.8</ele><time>2026-04-05T10:19:09.000Z</time></trkpt>
<trkpt lat="42.181296" lon="23.585271"><ele>2854.8</ele><time>2026-04-05T10:19:10.000Z</time></trkpt>
<trkpt lat="42.181292" lon="23.585269"><ele>2854.8</ele><time>2026-04-05T10:19:11.000Z</time></trkpt>
<trkpt lat="42.181289" lon="23.585268"><ele>2854.8</ele><time>2026-04-05T10:19:12.000Z</time></trkpt>
<trkpt lat="42.181286" lon="23.585265"><ele>2854.8</ele><time>2026-04-05T10:19:13.000Z</time></trkpt>
<trkpt lat="42.181284" lon="23.585264"><ele>2855.9</ele><time>2026-04-05T10:19:14.000Z</time></trkpt>
<trkpt lat="42.181281" lon="23.585262"><ele>2855.9</ele><time>2026-04-05T10:19:15.000Z</time></trkpt>
<trkpt lat="42.181279" lon="23.58526"><ele>2855.9</ele><time>2026-04-05T10:19:16.000Z</time></trkpt>
<trkpt lat="42.181277" lon="23.585259"><ele>2855.9</ele><time>2026-04-05T10:19:17.000Z</time></trkpt>
<trkpt lat="42.181275" lon="23.585257"><ele>2855.9</ele><time>2026-04-05T10:19:18.000Z</time></trkpt>
<trkpt lat="42.181273" lon="23.585256"><ele>2856.5</ele><time>2026-04-05T10:19:19.000Z</time></trkpt>
<trkpt lat="42.18127" lon="23.585254"><ele>2856.5</ele><time>2026-04-05T10:19:20.000Z</time></trkpt>
<trkpt lat="42.181267" lon="23.585253"><ele>2856.5</ele><time>2026-04-05T10:19:21.000Z</time></trkpt>
<trkpt lat="42.181265" lon="23.585252"><ele>2856.5</ele><time>2026-04-05T10:19:22.000Z</time></trkpt>
<trkpt lat="42.181262" lon="23.585251"><ele>2856.5</ele><time>2026-04-05T10:19:23.000Z</time></trkpt>
<trkpt lat="42.181257" lon="23.58525"><ele>2857.5</ele><time>2026-04-05T10:19:24.000Z</time></trkpt>
<trkpt lat="42.181253" lon="23.585249"><ele>2857.5</ele><time>2026-04-05T10:19:25.000Z</time></trkpt>
<trkpt lat="42.181247" lon="23.585247"><ele>2857.5</ele><time>2026-04-05T10:19:26.000Z</time></trkpt>
<trkpt lat="42.181239" lon="23.585246"><ele>2857.5</ele><time>2026-04-05T10:19:27.000Z</time></trkpt>
<trkpt lat="42.181231" lon="23.585244"><ele>2857.5</ele><time>2026-04-05T10:19:28.000Z</time></trkpt>
<trkpt lat="42.181223" lon="23.585242"><ele>2858.2</ele><time>2026-04-05T10:19:29.000Z</time></trkpt>
<trkpt lat="42.181216" lon="23.58524"><ele>2858.2</ele><time>2026-04-05T10:19:30.000Z</time></trkpt>
<trkpt lat="42.181211" lon="23.585239"><ele>2858.2</ele><time>2026-04-05T10:19:31.000Z</time></trkpt>
<trkpt lat="42.181207" lon="23.585237"><ele>2858.2</ele><time>2026-04-05T10:19:32.000Z</time></trkpt>
<trkpt lat="42.181205" lon="23.585236"><ele>2858.2</ele><time>2026-04-05T10:19:33.000Z</time></trkpt>
<trkpt lat="42.181203" lon="23.585236"><ele>2858.4</ele><time>2026-04-05T10:19:34.000Z</time></trkpt>
<trkpt lat="42.1812" lon="23.585237"><ele>2858.4</ele><time>2026-04-05T10:19:35.000Z</time></trkpt>
<trkpt lat="42.181195" lon="23.585237"><ele>2858.4</ele><time>2026-04-05T10:19:36.000Z</time></trkpt>
<trkpt lat="42.181189" lon="23.585238"><ele>2858.4</ele><time>2026-04-05T10:19:37.000Z</time></trkpt>
<trkpt lat="42.181181" lon="23.585238"><ele>2858.4</ele><time>2026-04-05T10:19:38.000Z</time></trkpt>
<trkpt lat="42.181174" lon="23.585237"><ele>2858.8</ele><time>2026-04-05T10:19:39.000Z</time></trkpt>
<trkpt lat="42.181168" lon="23.585237"><ele>2858.8</ele><time>2026-04-05T10:19:40.000Z</time></trkpt>
<trkpt lat="42.181162" lon="23.585236"><ele>2858.8</ele><time>2026-04-05T10:19:41.000Z</time></trkpt>
<trkpt lat="42.181158" lon="23.585235"><ele>2858.8</ele><time>2026-04-05T10:19:42.000Z</time></trkpt>
<trkpt lat="42.181153" lon="23.585234"><ele>2858.8</ele><time>2026-04-05T10:19:43.000Z</time></trkpt>
<trkpt lat="42.181149" lon="23.585233"><ele>2859.2</ele><time>2026-04-05T10:19:44.000Z</time></trkpt>
<trkpt lat="42.181146" lon="23.585232"><ele>2859.2</ele><time>2026-04-05T10:19:45.000Z</time></trkpt>
<trkpt lat="42.181143" lon="23.585232"><ele>2859.2</ele><time>2026-04-05T10:19:46.000Z</time></trkpt>
<trkpt lat="42.18114" lon="23.585232"><ele>2859.2</ele><time>2026-04-05T10:19:47.000Z</time></trkpt>
<trkpt lat="42.181139" lon="23.585231"><ele>2859.2</ele><time>2026-04-05T10:19:48.000Z</time></trkpt>
<trkpt lat="42.181138" lon="23.585232"><ele>2859.5</ele><time>2026-04-05T10:19:49.000Z</time></trkpt>
<trkpt lat="42.181137" lon="23.585232"><ele>2859.5</ele><time>2026-04-05T10:19:50.000Z</time></trkpt>
<trkpt lat="42.181136" lon="23.585231"><ele>2859.5</ele><time>2026-04-05T10:19:51.000Z</time></trkpt>
<trkpt lat="42.181136" lon="23.585231"><ele>2859.5</ele><time>2026-04-05T10:19:52.000Z</time></trkpt>
<trkpt lat="42.181135" lon="23.585232"><ele>2859.5</ele><time>2026-04-05T10:19:53.000Z</time></trkpt>
<trkpt lat="42.181135" lon="23.585232"><ele>2860.2</ele><time>2026-04-05T10:19:54.000Z</time></trkpt>
<trkpt lat="42.181135" lon="23.585232"><ele>2860.2</ele><time>2026-04-05T10:19:55.000Z</time></trkpt>
<trkpt lat="42.181134" lon="23.585232"><ele>2860.2</ele><time>2026-04-05T10:19:56.000Z</time></trkpt>
<trkpt lat="42.181132" lon="23.58523"><ele>2860.2</ele><time>2026-04-05T10:19:57.000Z</time></trkpt>
<trkpt lat="42.181129" lon="23.585229"><ele>2860.2</ele><time>2026-04-05T10:19:58.000Z</time></trkpt>
<trkpt lat="42.181125" lon="23.585227"><ele>2860.8</ele><time>2026-04-05T10:19:59.000Z</time></trkpt>
<trkpt lat="42.181121" lon="23.585224"><ele>2860.8</ele><time>2026-04-05T10:20:00.000Z</time></trkpt>
<trkpt lat="42.181117" lon="23.585221"><ele>2860.8</ele><time>2026-04-05T10:20:01.000Z</time></trkpt>
<trkpt lat="42.181112" lon="23.585218"><ele>2860.8</ele><time>2026-04-05T10:20:02.000Z</time></trkpt>
<trkpt lat="42.181108" lon="23.585214"><ele>2860.8</ele><time>2026-04-05T10:20:03.000Z</time></trkpt>
<trkpt lat="42.181105" lon="23.585212"><ele>2861.2</ele><time>2026-04-05T10:20:04.000Z</time></trkpt>
<trkpt lat="42.181102" lon="23.585209"><ele>2861.2</ele><time>2026-04-05T10:20:05.000Z</time></trkpt>
<trkpt lat="42.181099" lon="23.585208"><ele>2861.2</ele><time>2026-04-05T10:20:06.000Z</time></trkpt>
<trkpt lat="42.181097" lon="23.585206"><ele>2861.2</ele><time>2026-04-05T10:20:07.000Z</time></trkpt>
<trkpt lat="42.181095" lon="23.585203"><ele>2861.2</ele><time>2026-04-05T10:20:08.000Z</time></trkpt>
<trkpt lat="42.181092" lon="23.5852"><ele>2862</ele><time>2026-04-05T10:20:09.000Z</time></trkpt>
<trkpt lat="42.181088" lon="23.585196"><ele>2862</ele><time>2026-04-05T10:20:10.000Z</time></trkpt>
<trkpt lat="42.181084" lon="23.585192"><ele>2862</ele><time>2026-04-05T10:20:11.000Z</time></trkpt>
<trkpt lat="42.18108" lon="23.585187"><ele>2862</ele><time>2026-04-05T10:20:12.000Z</time></trkpt>
<trkpt lat="42.181075" lon="23.585184"><ele>2862</ele><time>2026-04-05T10:20:13.000Z</time></trkpt>
<trkpt lat="42.18107" lon="23.585182"><ele>2863.1</ele><time>2026-04-05T10:20:14.000Z</time></trkpt>
<trkpt lat="42.181065" lon="23.58518"><ele>2863.1</ele><time>2026-04-05T10:20:15.000Z</time></trkpt>
<trkpt lat="42.18106" lon="23.58518"><ele>2863.1</ele><time>2026-04-05T10:20:16.000Z</time></trkpt>
<trkpt lat="42.181057" lon="23.58518"><ele>2863.1</ele><time>2026-04-05T10:20:17.000Z</time></trkpt>
<trkpt lat="42.181054" lon="23.585181"><ele>2863.1</ele><time>2026-04-05T10:20:18.000Z</time></trkpt>
<trkpt lat="42.181051" lon="23.58518"><ele>2863.6</ele><time>2026-04-05T10:20:19.000Z</time></trkpt>
<trkpt lat="42.181049" lon="23.585179"><ele>2863.6</ele><time>2026-04-05T10:20:20.000Z</time></trkpt>
<trkpt lat="42.181047" lon="23.585178"><ele>2863.6</ele><time>2026-04-05T10:20:21.000Z</time></trkpt>
<trkpt lat="42.181044" lon="23.585178"><ele>2863.6</ele><time>2026-04-05T10:20:22.000Z</time></trkpt>
<trkpt lat="42.181041" lon="23.585177"><ele>2863.6</ele><time>2026-04-05T10:20:23.000Z</time></trkpt>
<trkpt lat="42.181038" lon="23.585176"><ele>2864.6</ele><time>2026-04-05T10:20:24.000Z</time></trkpt>
<trkpt lat="42.181034" lon="23.585175"><ele>2864.6</ele><time>2026-04-05T10:20:25.000Z</time></trkpt>
<trkpt lat="42.18103" lon="23.585175"><ele>2864.6</ele><time>2026-04-05T10:20:26.000Z</time></trkpt>
<trkpt lat="42.181026" lon="23.585174"><ele>2864.6</ele><time>2026-04-05T10:20:27.000Z</time></trkpt>
<trkpt lat="42.181023" lon="23.585174"><ele>2864.6</ele><time>2026-04-05T10:20:28.000Z</time></trkpt>
<trkpt lat="42.181019" lon="23.585174"><ele>2865.5</ele><time>2026-04-05T10:20:29.000Z</time></trkpt>
<trkpt lat="42.181016" lon="23.585175"><ele>2865.5</ele><time>2026-04-05T10:20:30.000Z</time></trkpt>
<trkpt lat="42.181014" lon="23.585174"><ele>2865.5</ele><time>2026-04-05T10:20:31.000Z</time></trkpt>
<trkpt lat="42.181012" lon="23.585174"><ele>2865.5</ele><time>2026-04-05T10:20:32.000Z</time></trkpt>
<trkpt lat="42.18101" lon="23.585174"><ele>2865.5</ele><time>2026-04-05T10:20:33.000Z</time></trkpt>
<trkpt lat="42.181009" lon="23.585174"><ele>2866</ele><time>2026-04-05T10:20:34.000Z</time></trkpt>
<trkpt lat="42.181008" lon="23.585174"><ele>2866</ele><time>2026-04-05T10:20:35.000Z</time></trkpt>
<trkpt lat="42.181007" lon="23.585175"><ele>2866</ele><time>2026-04-05T10:20:36.000Z</time></trkpt>
<trkpt lat="42.181007" lon="23.585176"><ele>2866</ele><time>2026-04-05T10:20:37.000Z</time></trkpt>
<trkpt lat="42.181008" lon="23.585177"><ele>2866</ele><time>2026-04-05T10:20:38.000Z</time></trkpt>
<trkpt lat="42.181007" lon="23.585178"><ele>2867</ele><time>2026-04-05T10:20:39.000Z</time></trkpt>
<trkpt lat="42.181005" lon="23.585178"><ele>2867</ele><time>2026-04-05T10:20:40.000Z</time></trkpt>
<trkpt lat="42.181003" lon="23.585177"><ele>2867</ele><time>2026-04-05T10:20:41.000Z</time></trkpt>
<trkpt lat="42.181" lon="23.585175"><ele>2867</ele><time>2026-04-05T10:20:42.000Z</time></trkpt>
<trkpt lat="42.180996" lon="23.585172"><ele>2867</ele><time>2026-04-05T10:20:43.000Z</time></trkpt>
<trkpt lat="42.180993" lon="23.585169"><ele>2867.7</ele><time>2026-04-05T10:20:44.000Z</time></trkpt>
<trkpt lat="42.180991" lon="23.585167"><ele>2867.7</ele><time>2026-04-05T10:20:45.000Z</time></trkpt>
<trkpt lat="42.18099" lon="23.585165"><ele>2867.7</ele><time>2026-04-05T10:20:46.000Z</time></trkpt>
<trkpt lat="42.180989" lon="23.585163"><ele>2867.7</ele><time>2026-04-05T10:20:47.000Z</time></trkpt>
<trkpt lat="42.180989" lon="23.585161"><ele>2867.7</ele><time>2026-04-05T10:20:48.000Z</time></trkpt>
<trkpt lat="42.180989" lon="23.58516"><ele>2868</ele><time>2026-04-05T10:20:49.000Z</time></trkpt>
<trkpt lat="42.180988" lon="23.585159"><ele>2868</ele><time>2026-04-05T10:20:50.000Z</time></trkpt>
<trkpt lat="42.180987" lon="23.585159"><ele>2868</ele><time>2026-04-05T10:20:51.000Z</time></trkpt>
<trkpt lat="42.180985" lon="23.585158"><ele>2868</ele><time>2026-04-05T10:20:52.000Z</time></trkpt>
<trkpt lat="42.180983" lon="23.585157"><ele>2868</ele><time>2026-04-05T10:20:53.000Z</time></trkpt>
<trkpt lat="42.180981" lon="23.585154"><ele>2868.5</ele><time>2026-04-05T10:20:54.000Z</time></trkpt>
<trkpt lat="42.180978" lon="23.585152"><ele>2868.5</ele><time>2026-04-05T10:20:55.000Z</time></trkpt>
<trkpt lat="42.180974" lon="23.585149"><ele>2868.5</ele><time>2026-04-05T10:20:56.000Z</time></trkpt>
<trkpt lat="42.180971" lon="23.585146"><ele>2868.5</ele><time>2026-04-05T10:20:57.000Z</time></trkpt>
<trkpt lat="42.180968" lon="23.585145"><ele>2868.5</ele><time>2026-04-05T10:20:58.000Z</time></trkpt>
<trkpt lat="42.180964" lon="23.585144"><ele>2868.8</ele><time>2026-04-05T10:20:59.000Z</time></trkpt>
<trkpt lat="42.18096" lon="23.585143"><ele>2868.8</ele><time>2026-04-05T10:21:00.000Z</time></trkpt>
<trkpt lat="42.180957" lon="23.585142"><ele>2868.8</ele><time>2026-04-05T10:21:01.000Z</time></trkpt>
<trkpt lat="42.180955" lon="23.585142"><ele>2868.8</ele><time>2026-04-05T10:21:02.000Z</time></trkpt>
<trkpt lat="42.180952" lon="23.585142"><ele>2868.8</ele><time>2026-04-05T10:21:03.000Z</time></trkpt>
<trkpt lat="42.18095" lon="23.585143"><ele>2869</ele><time>2026-04-05T10:21:04.000Z</time></trkpt>
<trkpt lat="42.180949" lon="23.585144"><ele>2869</ele><time>2026-04-05T10:21:05.000Z</time></trkpt>
<trkpt lat="42.180948" lon="23.585145"><ele>2869</ele><time>2026-04-05T10:21:06.000Z</time></trkpt>
<trkpt lat="42.180948" lon="23.585147"><ele>2869</ele><time>2026-04-05T10:21:07.000Z</time></trkpt>
<trkpt lat="42.180948" lon="23.585148"><ele>2869</ele><time>2026-04-05T10:21:08.000Z</time></trkpt>
<trkpt lat="42.180948" lon="23.585148"><ele>2869.4</ele><time>2026-04-05T10:21:09.000Z</time></trkpt>
<trkpt lat="42.180948" lon="23.585148"><ele>2869.4</ele><time>2026-04-05T10:21:10.000Z</time></trkpt>
<trkpt lat="42.180948" lon="23.585149"><ele>2869.4</ele><time>2026-04-05T10:21:11.000Z</time></trkpt>
<trkpt lat="42.180949" lon="23.585149"><ele>2869.4</ele><time>2026-04-05T10:21:12.000Z</time></trkpt>
<trkpt lat="42.180949" lon="23.585149"><ele>2869.4</ele><time>2026-04-05T10:21:13.000Z</time></trkpt>
<trkpt lat="42.180949" lon="23.585149"><ele>2869.9</ele><time>2026-04-05T10:21:14.000Z</time></trkpt>
<trkpt lat="42.18095" lon="23.585149"><ele>2869.9</ele><time>2026-04-05T10:21:15.000Z</time></trkpt>
<trkpt lat="42.18095" lon="23.585149"><ele>2869.9</ele><time>2026-04-05T10:21:16.000Z</time></trkpt>
<trkpt lat="42.18095" lon="23.585149"><ele>2869.9</ele><time>2026-04-05T10:21:17.000Z</time></trkpt>
<trkpt lat="42.18095" lon="23.585149"><ele>2869.9</ele><time>2026-04-05T10:21:18.000Z</time></trkpt>
<trkpt lat="42.180949" lon="23.585149"><ele>2870.1</ele><time>2026-04-05T10:21:19.000Z</time></trkpt>
<trkpt lat="42.180949" lon="23.58515"><ele>2870.1</ele><time>2026-04-05T10:21:20.000Z</time></trkpt>
<trkpt lat="42.180949" lon="23.58515"><ele>2870.1</ele><time>2026-04-05T10:21:21.000Z</time></trkpt>
<trkpt lat="42.180949" lon="23.58515"><ele>2870.1</ele><time>2026-04-05T10:21:22.000Z</time></trkpt>
<trkpt lat="42.180949" lon="23.58515"><ele>2870.1</ele><time>2026-04-05T10:21:23.000Z</time></trkpt>
<trkpt lat="42.180949" lon="23.58515"><ele>2870.3</ele><time>2026-04-05T10:21:24.000Z</time></trkpt>
<trkpt lat="42.180949" lon="23.585151"><ele>2870.3</ele><time>2026-04-05T10:21:25.000Z</time></trkpt>
<trkpt lat="42.180948" lon="23.585151"><ele>2870.3</ele><time>2026-04-05T10:21:26.000Z</time></trkpt>
<trkpt lat="42.180947" lon="23.585151"><ele>2870.3</ele><time>2026-04-05T10:21:27.000Z</time></trkpt>
<trkpt lat="42.180945" lon="23.58515"><ele>2870.3</ele><time>2026-04-05T10:21:28.000Z</time></trkpt>
<trkpt lat="42.180943" lon="23.585148"><ele>2870.3</ele><time>2026-04-05T10:21:29.000Z</time></trkpt>
<trkpt lat="42.180939" lon="23.585144"><ele>2870.3</ele><time>2026-04-05T10:21:30.000Z</time></trkpt>
<trkpt lat="42.180935" lon="23.585139"><ele>2870.3</ele><time>2026-04-05T10:21:31.000Z</time></trkpt>
<trkpt lat="42.18093" lon="23.585133"><ele>2870.3</ele><time>2026-04-05T10:21:32.000Z</time></trkpt>
<trkpt lat="42.180926" lon="23.585128"><ele>2870.3</ele><time>2026-04-05T10:21:33.000Z</time></trkpt>
<trkpt lat="42.180921" lon="23.585122"><ele>2870.3</ele><time>2026-04-05T10:21:34.000Z</time></trkpt>
<trkpt lat="42.180917" lon="23.585117"><ele>2870.3</ele><time>2026-04-05T10:21:35.000Z</time></trkpt>
<trkpt lat="42.180912" lon="23.585112"><ele>2870.3</ele><time>2026-04-05T10:21:36.000Z</time></trkpt>
<trkpt lat="42.180908" lon="23.585109"><ele>2870.3</ele><time>2026-04-05T10:21:37.000Z</time></trkpt>
<trkpt lat="42.180904" lon="23.585105"><ele>2870.3</ele><time>2026-04-05T10:21:38.000Z</time></trkpt>
<trkpt lat="42.1809" lon="23.585101"><ele>2870.8</ele><time>2026-04-05T10:21:39.000Z</time></trkpt>
<trkpt lat="42.180895" lon="23.585097"><ele>2870.8</ele><time>2026-04-05T10:21:40.000Z</time></trkpt>
<trkpt lat="42.18089" lon="23.585096"><ele>2870.8</ele><time>2026-04-05T10:21:41.000Z</time></trkpt>
<trkpt lat="42.180885" lon="23.585096"><ele>2870.8</ele><time>2026-04-05T10:21:42.000Z</time></trkpt>
<trkpt lat="42.180881" lon="23.585096"><ele>2870.8</ele><time>2026-04-05T10:21:43.000Z</time></trkpt>
<trkpt lat="42.180878" lon="23.585097"><ele>2871.7</ele><time>2026-04-05T10:21:44.000Z</time></trkpt>
<trkpt lat="42.180876" lon="23.585099"><ele>2871.7</ele><time>2026-04-05T10:21:45.000Z</time></trkpt>
<trkpt lat="42.180875" lon="23.585099"><ele>2871.7</ele><time>2026-04-05T10:21:46.000Z</time></trkpt>
<trkpt lat="42.180874" lon="23.585098"><ele>2871.7</ele><time>2026-04-05T10:21:47.000Z</time></trkpt>
<trkpt lat="42.180872" lon="23.585096"><ele>2871.7</ele><time>2026-04-05T10:21:48.000Z</time></trkpt>
<trkpt lat="42.180871" lon="23.585094"><ele>2872.3</ele><time>2026-04-05T10:21:49.000Z</time></trkpt>
<trkpt lat="42.180868" lon="23.585092"><ele>2872.3</ele><time>2026-04-05T10:21:50.000Z</time></trkpt>
<trkpt lat="42.180865" lon="23.585088"><ele>2872.3</ele><time>2026-04-05T10:21:51.000Z</time></trkpt>
<trkpt lat="42.180863" lon="23.585086"><ele>2872.3</ele><time>2026-04-05T10:21:52.000Z</time></trkpt>
<trkpt lat="42.180859" lon="23.585084"><ele>2872.3</ele><time>2026-04-05T10:21:53.000Z</time></trkpt>
<trkpt lat="42.180856" lon="23.585082"><ele>2873.5</ele><time>2026-04-05T10:21:54.000Z</time></trkpt>
<trkpt lat="42.180854" lon="23.585081"><ele>2873.5</ele><time>2026-04-05T10:21:55.000Z</time></trkpt>
<trkpt lat="42.180852" lon="23.585081"><ele>2873.5</ele><time>2026-04-05T10:21:56.000Z</time></trkpt>
<trkpt lat="42.18085" lon="23.585079"><ele>2873.5</ele><time>2026-04-05T10:21:57.000Z</time></trkpt>
<trkpt lat="42.180849" lon="23.585078"><ele>2873.5</ele><time>2026-04-05T10:21:58.000Z</time></trkpt>
<trkpt lat="42.180848" lon="23.585076"><ele>2874.4</ele><time>2026-04-05T10:21:59.000Z</time></trkpt>
<trkpt lat="42.180846" lon="23.585072"><ele>2874.4</ele><time>2026-04-05T10:22:00.000Z</time></trkpt>
<trkpt lat="42.180845" lon="23.585069"><ele>2874.4</ele><time>2026-04-05T10:22:01.000Z</time></trkpt>
<trkpt lat="42.180844" lon="23.585065"><ele>2874.4</ele><time>2026-04-05T10:22:02.000Z</time></trkpt>
<trkpt lat="42.180842" lon="23.585061"><ele>2874.4</ele><time>2026-04-05T10:22:03.000Z</time></trkpt>
<trkpt lat="42.18084" lon="23.585058"><ele>2874.7</ele><time>2026-04-05T10:22:04.000Z</time></trkpt>
<trkpt lat="42.180839" lon="23.585056"><ele>2874.7</ele><time>2026-04-05T10:22:05.000Z</time></trkpt>
<trkpt lat="42.180839" lon="23.585055"><ele>2874.7</ele><time>2026-04-05T10:22:06.000Z</time></trkpt>
<trkpt lat="42.180837" lon="23.585054"><ele>2874.7</ele><time>2026-04-05T10:22:07.000Z</time></trkpt>
<trkpt lat="42.180837" lon="23.585054"><ele>2874.7</ele><time>2026-04-05T10:22:08.000Z</time></trkpt>
<trkpt lat="42.180836" lon="23.585053"><ele>2875.2</ele><time>2026-04-05T10:22:09.000Z</time></trkpt>
<trkpt lat="42.180834" lon="23.585054"><ele>2875.2</ele><time>2026-04-05T10:22:10.000Z</time></trkpt>
<trkpt lat="42.180834" lon="23.585055"><ele>2875.2</ele><time>2026-04-05T10:22:11.000Z</time></trkpt>
<trkpt lat="42.180833" lon="23.585057"><ele>2875.2</ele><time>2026-04-05T10:22:12.000Z</time></trkpt>
<trkpt lat="42.180832" lon="23.585059"><ele>2875.2</ele><time>2026-04-05T10:22:13.000Z</time></trkpt>
<trkpt lat="42.180831" lon="23.585061"><ele>2875.9</ele><time>2026-04-05T10:22:14.000Z</time></trkpt>
<trkpt lat="42.180831" lon="23.585062"><ele>2875.9</ele><time>2026-04-05T10:22:15.000Z</time></trkpt>
<trkpt lat="42.180831" lon="23.585062"><ele>2875.9</ele><time>2026-04-05T10:22:16.000Z</time></trkpt>
<trkpt lat="42.180831" lon="23.585062"><ele>2875.9</ele><time>2026-04-05T10:22:17.000Z</time></trkpt>
<trkpt lat="42.180831" lon="23.585063"><ele>2875.9</ele><time>2026-04-05T10:22:18.000Z</time></trkpt>
<trkpt lat="42.18083" lon="23.585062"><ele>2876.2</ele><time>2026-04-05T10:22:19.000Z</time></trkpt>
<trkpt lat="42.180828" lon="23.58506"><ele>2876.2</ele><time>2026-04-05T10:22:20.000Z</time></trkpt>
<trkpt lat="42.180826" lon="23.585059"><ele>2876.2</ele><time>2026-04-05T10:22:21.000Z</time></trkpt>
<trkpt lat="42.180824" lon="23.585057"><ele>2876.2</ele><time>2026-04-05T10:22:22.000Z</time></trkpt>
<trkpt lat="42.180822" lon="23.585054"><ele>2876.2</ele><time>2026-04-05T10:22:23.000Z</time></trkpt>
<trkpt lat="42.180821" lon="23.585051"><ele>2876.6</ele><time>2026-04-05T10:22:24.000Z</time></trkpt>
<trkpt lat="42.180819" lon="23.585049"><ele>2876.6</ele><time>2026-04-05T10:22:25.000Z</time></trkpt>
<trkpt lat="42.180819" lon="23.585047"><ele>2876.6</ele><time>2026-04-05T10:22:26.000Z</time></trkpt>
<trkpt lat="42.180818" lon="23.585044"><ele>2876.6</ele><time>2026-04-05T10:22:27.000Z</time></trkpt>
<trkpt lat="42.180818" lon="23.585043"><ele>2876.6</ele><time>2026-04-05T10:22:28.000Z</time></trkpt>
<trkpt lat="42.180817" lon="23.585043"><ele>2877</ele><time>2026-04-05T10:22:29.000Z</time></trkpt>
<trkpt lat="42.180817" lon="23.585043"><ele>2877</ele><time>2026-04-05T10:22:30.000Z</time></trkpt>
<trkpt lat="42.180817" lon="23.585043"><ele>2877</ele><time>2026-04-05T10:22:31.000Z</time></trkpt>
<trkpt lat="42.180817" lon="23.585045"><ele>2877</ele><time>2026-04-05T10:22:32.000Z</time></trkpt>
<trkpt lat="42.180817" lon="23.585046"><ele>2877</ele><time>2026-04-05T10:22:33.000Z</time></trkpt>
<trkpt lat="42.180817" lon="23.585046"><ele>2877.2</ele><time>2026-04-05T10:22:34.000Z</time></trkpt>
<trkpt lat="42.180817" lon="23.585047"><ele>2877.2</ele><time>2026-04-05T10:22:35.000Z</time></trkpt>
<trkpt lat="42.180817" lon="23.585047"><ele>2877.2</ele><time>2026-04-05T10:22:36.000Z</time></trkpt>
<trkpt lat="42.180816" lon="23.585047"><ele>2877.2</ele><time>2026-04-05T10:22:37.000Z</time></trkpt>
<trkpt lat="42.180816" lon="23.585047"><ele>2877.2</ele><time>2026-04-05T10:22:38.000Z</time></trkpt>
<trkpt lat="42.180816" lon="23.585047"><ele>2877.6</ele><time>2026-04-05T10:22:39.000Z</time></trkpt>
<trkpt lat="42.180815" lon="23.585048"><ele>2877.6</ele><time>2026-04-05T10:22:40.000Z</time></trkpt>
<trkpt lat="42.180814" lon="23.585048"><ele>2877.6</ele><time>2026-04-05T10:22:41.000Z</time></trkpt>
<trkpt lat="42.180813" lon="23.585048"><ele>2877.6</ele><time>2026-04-05T10:22:42.000Z</time></trkpt>
<trkpt lat="42.180812" lon="23.585048"><ele>2877.6</ele><time>2026-04-05T10:22:43.000Z</time></trkpt>
<trkpt lat="42.180812" lon="23.585048"><ele>2878</ele><time>2026-04-05T10:22:44.000Z</time></trkpt>
<trkpt lat="42.180811" lon="23.585048"><ele>2878</ele><time>2026-04-05T10:22:45.000Z</time></trkpt>
<trkpt lat="42.180811" lon="23.585048"><ele>2878</ele><time>2026-04-05T10:22:46.000Z</time></trkpt>
<trkpt lat="42.180811" lon="23.585048"><ele>2878</ele><time>2026-04-05T10:22:47.000Z</time></trkpt>
<trkpt lat="42.180811" lon="23.585048"><ele>2878</ele><time>2026-04-05T10:22:48.000Z</time></trkpt>
<trkpt lat="42.180811" lon="23.585048"><ele>2878.1</ele><time>2026-04-05T10:22:49.000Z</time></trkpt>
<trkpt lat="42.180811" lon="23.585048"><ele>2878.1</ele><time>2026-04-05T10:22:50.000Z</time></trkpt>
<trkpt lat="42.180811" lon="23.585048"><ele>2878.1</ele><time>2026-04-05T10:22:51.000Z</time></trkpt>
<trkpt lat="42.180811" lon="23.585048"><ele>2878.1</ele><time>2026-04-05T10:22:52.000Z</time></trkpt>
<trkpt lat="42.180811" lon="23.585048"><ele>2878.1</ele><time>2026-04-05T10:22:53.000Z</time></trkpt>
<trkpt lat="42.180811" lon="23.585048"><ele>2878.1</ele><time>2026-04-05T10:22:54.000Z</time></trkpt>
<trkpt lat="42.180811" lon="23.585048"><ele>2878.1</ele><time>2026-04-05T10:22:55.000Z</time></trkpt>
<trkpt lat="42.180811" lon="23.585048"><ele>2878.1</ele><time>2026-04-05T10:22:56.000Z</time></trkpt>
<trkpt lat="42.180811" lon="23.585049"><ele>2878.1</ele><time>2026-04-05T10:22:57.000Z</time></trkpt>
<trkpt lat="42.18081" lon="23.585049"><ele>2878.1</ele><time>2026-04-05T10:22:58.000Z</time></trkpt>
<trkpt lat="42.180809" lon="23.585049"><ele>2878</ele><time>2026-04-05T10:22:59.000Z</time></trkpt>
<trkpt lat="42.180808" lon="23.585049"><ele>2878</ele><time>2026-04-05T10:23:00.000Z</time></trkpt>
<trkpt lat="42.180807" lon="23.585049"><ele>2878</ele><time>2026-04-05T10:23:01.000Z</time></trkpt>
<trkpt lat="42.180807" lon="23.585049"><ele>2878</ele><time>2026-04-05T10:23:02.000Z</time></trkpt>
<trkpt lat="42.180806" lon="23.585049"><ele>2878</ele><time>2026-04-05T10:23:03.000Z</time></trkpt>
<trkpt lat="42.180806" lon="23.585049"><ele>2877.9</ele><time>2026-04-05T10:23:04.000Z</time></trkpt>
<trkpt lat="42.180806" lon="23.585049"><ele>2877.9</ele><time>2026-04-05T10:23:05.000Z</time></trkpt>
<trkpt lat="42.180806" lon="23.58505"><ele>2877.9</ele><time>2026-04-05T10:23:06.000Z</time></trkpt>
<trkpt lat="42.180806" lon="23.58505"><ele>2877.9</ele><time>2026-04-05T10:23:07.000Z</time></trkpt>
<trkpt lat="42.180805" lon="23.58505"><ele>2877.9</ele><time>2026-04-05T10:23:08.000Z</time></trkpt>
<trkpt lat="42.180803" lon="23.585049"><ele>2877.9</ele><time>2026-04-05T10:23:09.000Z</time></trkpt>
<trkpt lat="42.180801" lon="23.585047"><ele>2877.9</ele><time>2026-04-05T10:23:10.000Z</time></trkpt>
<trkpt lat="42.180799" lon="23.585046"><ele>2877.9</ele><time>2026-04-05T10:23:11.000Z</time></trkpt>
<trkpt lat="42.180797" lon="23.585043"><ele>2877.9</ele><time>2026-04-05T10:23:12.000Z</time></trkpt>
<trkpt lat="42.180795" lon="23.585041"><ele>2877.9</ele><time>2026-04-05T10:23:13.000Z</time></trkpt>
<trkpt lat="42.180793" lon="23.585039"><ele>2878.1</ele><time>2026-04-05T10:23:14.000Z</time></trkpt>
<trkpt lat="42.180792" lon="23.585038"><ele>2878.1</ele><time>2026-04-05T10:23:15.000Z</time></trkpt>
<trkpt lat="42.18079" lon="23.585036"><ele>2878.1</ele><time>2026-04-05T10:23:16.000Z</time></trkpt>
<trkpt lat="42.180788" lon="23.585034"><ele>2878.1</ele><time>2026-04-05T10:23:17.000Z</time></trkpt>
<trkpt lat="42.180787" lon="23.585031"><ele>2878.1</ele><time>2026-04-05T10:23:18.000Z</time></trkpt>
<trkpt lat="42.180787" lon="23.585029"><ele>2878.3</ele><time>2026-04-05T10:23:19.000Z</time></trkpt>
<trkpt lat="42.180786" lon="23.585028"><ele>2878.3</ele><time>2026-04-05T10:23:20.000Z</time></trkpt>
<trkpt lat="42.180786" lon="23.585028"><ele>2878.3</ele><time>2026-04-05T10:23:21.000Z</time></trkpt>
<trkpt lat="42.180785" lon="23.585027"><ele>2878.3</ele><time>2026-04-05T10:23:22.000Z</time></trkpt>
<trkpt lat="42.180783" lon="23.585027"><ele>2878.3</ele><time>2026-04-05T10:23:23.000Z</time></trkpt>
<trkpt lat="42.180781" lon="23.585027"><ele>2878.8</ele><time>2026-04-05T10:23:24.000Z</time></trkpt>
<trkpt lat="42.180779" lon="23.585026"><ele>2878.8</ele><time>2026-04-05T10:23:25.000Z</time></trkpt>
<trkpt lat="42.180777" lon="23.585024"><ele>2878.8</ele><time>2026-04-05T10:23:26.000Z</time></trkpt>
<trkpt lat="42.180776" lon="23.585022"><ele>2878.8</ele><time>2026-04-05T10:23:27.000Z</time></trkpt>
<trkpt lat="42.180774" lon="23.58502"><ele>2878.8</ele><time>2026-04-05T10:23:28.000Z</time></trkpt>
<trkpt lat="42.180773" lon="23.585018"><ele>2879.6</ele><time>2026-04-05T10:23:29.000Z</time></trkpt>
<trkpt lat="42.180772" lon="23.585017"><ele>2879.6</ele><time>2026-04-05T10:23:30.000Z</time></trkpt>
<trkpt lat="42.180771" lon="23.585016"><ele>2879.6</ele><time>2026-04-05T10:23:31.000Z</time></trkpt>
<trkpt lat="42.18077" lon="23.585015"><ele>2879.6</ele><time>2026-04-05T10:23:32.000Z</time></trkpt>
<trkpt lat="42.180769" lon="23.585014"><ele>2879.6</ele><time>2026-04-05T10:23:33.000Z</time></trkpt>
<trkpt lat="42.180769" lon="23.585014"><ele>2880</ele><time>2026-04-05T10:23:34.000Z</time></trkpt>
<trkpt lat="42.180768" lon="23.585012"><ele>2880</ele><time>2026-04-05T10:23:35.000Z</time></trkpt>
<trkpt lat="42.180767" lon="23.585011"><ele>2880</ele><time>2026-04-05T10:23:36.000Z</time></trkpt>
<trkpt lat="42.180766" lon="23.585011"><ele>2880</ele><time>2026-04-05T10:23:37.000Z</time></trkpt>
<trkpt lat="42.180765" lon="23.585011"><ele>2880</ele><time>2026-04-05T10:23:38.000Z</time></trkpt>
<trkpt lat="42.180764" lon="23.585011"><ele>2880.8</ele><time>2026-04-05T10:23:39.000Z</time></trkpt>
<trkpt lat="42.180764" lon="23.585011"><ele>2880.8</ele><time>2026-04-05T10:23:40.000Z</time></trkpt>
<trkpt lat="42.180763" lon="23.585011"><ele>2880.8</ele><time>2026-04-05T10:23:41.000Z</time></trkpt>
<trkpt lat="42.180762" lon="23.58501"><ele>2880.8</ele><time>2026-04-05T10:23:42.000Z</time></trkpt>
<trkpt lat="42.180761" lon="23.585009"><ele>2880.8</ele><time>2026-04-05T10:23:43.000Z</time></trkpt>
<trkpt lat="42.18076" lon="23.585008"><ele>2881.5</ele><time>2026-04-05T10:23:44.000Z</time></trkpt>
<trkpt lat="42.180758" lon="23.585007"><ele>2881.5</ele><time>2026-04-05T10:23:45.000Z</time></trkpt>
<trkpt lat="42.180757" lon="23.585007"><ele>2881.5</ele><time>2026-04-05T10:23:46.000Z</time></trkpt>
<trkpt lat="42.180757" lon="23.585007"><ele>2881.5</ele><time>2026-04-05T10:23:47.000Z</time></trkpt>
<trkpt lat="42.180756" lon="23.585008"><ele>2881.5</ele><time>2026-04-05T10:23:48.000Z</time></trkpt>
<trkpt lat="42.180756" lon="23.585009"><ele>2881.8</ele><time>2026-04-05T10:23:49.000Z</time></trkpt>
<trkpt lat="42.180755" lon="23.58501"><ele>2881.8</ele><time>2026-04-05T10:23:50.000Z</time></trkpt>
<trkpt lat="42.180755" lon="23.585011"><ele>2881.8</ele><time>2026-04-05T10:23:51.000Z</time></trkpt>
<trkpt lat="42.180755" lon="23.585011"><ele>2881.8</ele><time>2026-04-05T10:23:52.000Z</time></trkpt>
<trkpt lat="42.180754" lon="23.585011"><ele>2881.8</ele><time>2026-04-05T10:23:53.000Z</time></trkpt>
<trkpt lat="42.180753" lon="23.585011"><ele>2882.3</ele><time>2026-04-05T10:23:54.000Z</time></trkpt>
<trkpt lat="42.180752" lon="23.585011"><ele>2882.3</ele><time>2026-04-05T10:23:55.000Z</time></trkpt>
<trkpt lat="42.180751" lon="23.585011"><ele>2882.3</ele><time>2026-04-05T10:23:56.000Z</time></trkpt>
<trkpt lat="42.18075" lon="23.58501"><ele>2882.3</ele><time>2026-04-05T10:23:57.000Z</time></trkpt>
<trkpt lat="42.180749" lon="23.58501"><ele>2882.3</ele><time>2026-04-05T10:23:58.000Z</time></trkpt>
<trkpt lat="42.180748" lon="23.58501"><ele>2882.8</ele><time>2026-04-05T10:23:59.000Z</time></trkpt>
<trkpt lat="42.180747" lon="23.585009"><ele>2882.8</ele><time>2026-04-05T10:24:00.000Z</time></trkpt>
<trkpt lat="42.180746" lon="23.585009"><ele>2882.8</ele><time>2026-04-05T10:24:01.000Z</time></trkpt>
<trkpt lat="42.180745" lon="23.585008"><ele>2882.8</ele><time>2026-04-05T10:24:02.000Z</time></trkpt>
<trkpt lat="42.180744" lon="23.585008"><ele>2882.8</ele><time>2026-04-05T10:24:03.000Z</time></trkpt>
<trkpt lat="42.180742" lon="23.585007"><ele>2883</ele><time>2026-04-05T10:24:04.000Z</time></trkpt>
<trkpt lat="42.180741" lon="23.585007"><ele>2883</ele><time>2026-04-05T10:24:05.000Z</time></trkpt>
<trkpt lat="42.180741" lon="23.585007"><ele>2883</ele><time>2026-04-05T10:24:06.000Z</time></trkpt>
<trkpt lat="42.18074" lon="23.585007"><ele>2883</ele><time>2026-04-05T10:24:07.000Z</time></trkpt>
<trkpt lat="42.18074" lon="23.585006"><ele>2883</ele><time>2026-04-05T10:24:08.000Z</time></trkpt>
<trkpt lat="42.180739" lon="23.585006"><ele>2883.5</ele><time>2026-04-05T10:24:09.000Z</time></trkpt>
<trkpt lat="42.180739" lon="23.585005"><ele>2883.5</ele><time>2026-04-05T10:24:10.000Z</time></trkpt>
<trkpt lat="42.180738" lon="23.585006"><ele>2883.5</ele><time>2026-04-05T10:24:11.000Z</time></trkpt>
<trkpt lat="42.180738" lon="23.585008"><ele>2883.5</ele><time>2026-04-05T10:24:12.000Z</time></trkpt>
<trkpt lat="42.180737" lon="23.58501"><ele>2883.5</ele><time>2026-04-05T10:24:13.000Z</time></trkpt>
<trkpt lat="42.180737" lon="23.585013"><ele>2884.1</ele><time>2026-04-05T10:24:14.000Z</time></trkpt>
<trkpt lat="42.180737" lon="23.585016"><ele>2884.1</ele><time>2026-04-05T10:24:15.000Z</time></trkpt>
<trkpt lat="42.180737" lon="23.585017"><ele>2884.1</ele><time>2026-04-05T10:24:16.000Z</time></trkpt>
<trkpt lat="42.180737" lon="23.585018"><ele>2884.1</ele><time>2026-04-05T10:24:17.000Z</time></trkpt>
<trkpt lat="42.180737" lon="23.585018"><ele>2884.1</ele><time>2026-04-05T10:24:18.000Z</time></trkpt>
<trkpt lat="42.180737" lon="23.585018"><ele>2884.3</ele><time>2026-04-05T10:24:19.000Z</time></trkpt>
<trkpt lat="42.180737" lon="23.585018"><ele>2884.3</ele><time>2026-04-05T10:24:20.000Z</time></trkpt>
<trkpt lat="42.180736" lon="23.585018"><ele>2884.3</ele><time>2026-04-05T10:24:21.000Z</time></trkpt>
<trkpt lat="42.180736" lon="23.585018"><ele>2884.3</ele><time>2026-04-05T10:24:22.000Z</time></trkpt>
<trkpt lat="42.180736" lon="23.585018"><ele>2884.3</ele><time>2026-04-05T10:24:23.000Z</time></trkpt>
<trkpt lat="42.180736" lon="23.585018"><ele>2884.7</ele><time>2026-04-05T10:24:24.000Z</time></trkpt>
<trkpt lat="42.180736" lon="23.585018"><ele>2884.7</ele><time>2026-04-05T10:24:25.000Z</time></trkpt>
<trkpt lat="42.180736" lon="23.585018"><ele>2884.7</ele><time>2026-04-05T10:24:26.000Z</time></trkpt>
<trkpt lat="42.180736" lon="23.585018"><ele>2884.7</ele><time>2026-04-05T10:24:27.000Z</time></trkpt>
<trkpt lat="42.180736" lon="23.585017"><ele>2884.7</ele><time>2026-04-05T10:24:28.000Z</time></trkpt>
<trkpt lat="42.180736" lon="23.585017"><ele>2885</ele><time>2026-04-05T10:24:29.000Z</time></trkpt>
<trkpt lat="42.180736" lon="23.585016"><ele>2885</ele><time>2026-04-05T10:24:30.000Z</time></trkpt>
<trkpt lat="42.180736" lon="23.585015"><ele>2885</ele><time>2026-04-05T10:24:31.000Z</time></trkpt>
<trkpt lat="42.180736" lon="23.585014"><ele>2885</ele><time>2026-04-05T10:24:32.000Z</time></trkpt>
<trkpt lat="42.180736" lon="23.585013"><ele>2885</ele><time>2026-04-05T10:24:33.000Z</time></trkpt>
<trkpt lat="42.180736" lon="23.585012"><ele>2885.1</ele><time>2026-04-05T10:24:34.000Z</time></trkpt>
<trkpt lat="42.180736" lon="23.585012"><ele>2885.1</ele><time>2026-04-05T10:24:35.000Z</time></trkpt>
<trkpt lat="42.180736" lon="23.585012"><ele>2885.1</ele><time>2026-04-05T10:24:36.000Z</time></trkpt>
<trkpt lat="42.180736" lon="23.585012"><ele>2885.1</ele><time>2026-04-05T10:24:37.000Z</time></trkpt>
<trkpt lat="42.180736" lon="23.585012"><ele>2885.1</ele><time>2026-04-05T10:24:38.000Z</time></trkpt>
<trkpt lat="42.180736" lon="23.585012"><ele>2885.2</ele><time>2026-04-05T10:24:39.000Z</time></trkpt>
<trkpt lat="42.180736" lon="23.585011"><ele>2885.2</ele><time>2026-04-05T10:24:40.000Z</time></trkpt>
<trkpt lat="42.180736" lon="23.58501"><ele>2885.2</ele><time>2026-04-05T10:24:41.000Z</time></trkpt>
<trkpt lat="42.180735" lon="23.585008"><ele>2885.2</ele><time>2026-04-05T10:24:42.000Z</time></trkpt>
<trkpt lat="42.180734" lon="23.585006"><ele>2885.2</ele><time>2026-04-05T10:24:43.000Z</time></trkpt>
<trkpt lat="42.180733" lon="23.585003"><ele>2885.4</ele><time>2026-04-05T10:24:44.000Z</time></trkpt>
<trkpt lat="42.180732" lon="23.585001"><ele>2885.4</ele><time>2026-04-05T10:24:45.000Z</time></trkpt>
<trkpt lat="42.180731" lon="23.584999"><ele>2885.4</ele><time>2026-04-05T10:24:46.000Z</time></trkpt>
<trkpt lat="42.180729" lon="23.584997"><ele>2885.4</ele><time>2026-04-05T10:24:47.000Z</time></trkpt>
<trkpt lat="42.180727" lon="23.584995"><ele>2885.4</ele><time>2026-04-05T10:24:48.000Z</time></trkpt>
<trkpt lat="42.180725" lon="23.584993"><ele>2885.6</ele><time>2026-04-05T10:24:49.000Z</time></trkpt>
<trkpt lat="42.180722" lon="23.584991"><ele>2885.6</ele><time>2026-04-05T10:24:50.000Z</time></trkpt>
<trkpt lat="42.180719" lon="23.58499"><ele>2885.6</ele><time>2026-04-05T10:24:51.000Z</time></trkpt>
<trkpt lat="42.180717" lon="23.584989"><ele>2885.6</ele><time>2026-04-05T10:24:52.000Z</time></trkpt>
<trkpt lat="42.180716" lon="23.584988"><ele>2885.6</ele><time>2026-04-05T10:24:53.000Z</time></trkpt>
<trkpt lat="42.180714" lon="23.584988"><ele>2886.1</ele><time>2026-04-05T10:24:54.000Z</time></trkpt>
<trkpt lat="42.180713" lon="23.584988"><ele>2886.1</ele><time>2026-04-05T10:24:55.000Z</time></trkpt>
<trkpt lat="42.180713" lon="23.584988"><ele>2886.1</ele><time>2026-04-05T10:24:56.000Z</time></trkpt>
<trkpt lat="42.180712" lon="23.584988"><ele>2886.1</ele><time>2026-04-05T10:24:57.000Z</time></trkpt>
<trkpt lat="42.180712" lon="23.584987"><ele>2886.1</ele><time>2026-04-05T10:24:58.000Z</time></trkpt>
<trkpt lat="42.180711" lon="23.584986"><ele>2886.8</ele><time>2026-04-05T10:24:59.000Z</time></trkpt>
<trkpt lat="42.18071" lon="23.584984"><ele>2886.8</ele><time>2026-04-05T10:25:00.000Z</time></trkpt>
<trkpt lat="42.180709" lon="23.584982"><ele>2886.8</ele><time>2026-04-05T10:25:01.000Z</time></trkpt>
<trkpt lat="42.180708" lon="23.584979"><ele>2886.8</ele><time>2026-04-05T10:25:02.000Z</time></trkpt>
<trkpt lat="42.180707" lon="23.584978"><ele>2886.8</ele><time>2026-04-05T10:25:03.000Z</time></trkpt>
<trkpt lat="42.180707" lon="23.584978"><ele>2887.1</ele><time>2026-04-05T10:25:04.000Z</time></trkpt>
<trkpt lat="42.180707" lon="23.584978"><ele>2887.1</ele><time>2026-04-05T10:25:05.000Z</time></trkpt>
<trkpt lat="42.180708" lon="23.584978"><ele>2887.1</ele><time>2026-04-05T10:25:06.000Z</time></trkpt>
<trkpt lat="42.180708" lon="23.584978"><ele>2887.1</ele><time>2026-04-05T10:25:07.000Z</time></trkpt>
<trkpt lat="42.180708" lon="23.584978"><ele>2887.1</ele><time>2026-04-05T10:25:08.000Z</time></trkpt>
<trkpt lat="42.180708" lon="23.584978"><ele>2887.8</ele><time>2026-04-05T10:25:09.000Z</time></trkpt>
<trkpt lat="42.180707" lon="23.584977"><ele>2887.8</ele><time>2026-04-05T10:25:10.000Z</time></trkpt>
<trkpt lat="42.180707" lon="23.584976"><ele>2887.8</ele><time>2026-04-05T10:25:11.000Z</time></trkpt>
<trkpt lat="42.180706" lon="23.584975"><ele>2887.8</ele><time>2026-04-05T10:25:12.000Z</time></trkpt>
<trkpt lat="42.180705" lon="23.584974"><ele>2887.8</ele><time>2026-04-05T10:25:13.000Z</time></trkpt>
<trkpt lat="42.180704" lon="23.584974"><ele>2888.3</ele><time>2026-04-05T10:25:14.000Z</time></trkpt>
<trkpt lat="42.180703" lon="23.584973"><ele>2888.3</ele><time>2026-04-05T10:25:15.000Z</time></trkpt>
<trkpt lat="42.180703" lon="23.584973"><ele>2888.3</ele><time>2026-04-05T10:25:16.000Z</time></trkpt>
<trkpt lat="42.180702" lon="23.584972"><ele>2888.3</ele><time>2026-04-05T10:25:17.000Z</time></trkpt>
<trkpt lat="42.180702" lon="23.584971"><ele>2888.3</ele><time>2026-04-05T10:25:18.000Z</time></trkpt>
<trkpt lat="42.180701" lon="23.584969"><ele>2888.5</ele><time>2026-04-05T10:25:19.000Z</time></trkpt>
<trkpt lat="42.1807" lon="23.584967"><ele>2888.5</ele><time>2026-04-05T10:25:20.000Z</time></trkpt>
<trkpt lat="42.180699" lon="23.584966"><ele>2888.5</ele><time>2026-04-05T10:25:21.000Z</time></trkpt>
<trkpt lat="42.180698" lon="23.584964"><ele>2888.5</ele><time>2026-04-05T10:25:22.000Z</time></trkpt>
<trkpt lat="42.180697" lon="23.584963"><ele>2888.5</ele><time>2026-04-05T10:25:23.000Z</time></trkpt>
<trkpt lat="42.180696" lon="23.584962"><ele>2888.8</ele><time>2026-04-05T10:25:24.000Z</time></trkpt>
<trkpt lat="42.180696" lon="23.584962"><ele>2888.8</ele><time>2026-04-05T10:25:25.000Z</time></trkpt>
<trkpt lat="42.180695" lon="23.58496"><ele>2888.8</ele><time>2026-04-05T10:25:26.000Z</time></trkpt>
<trkpt lat="42.180695" lon="23.584958"><ele>2888.8</ele><time>2026-04-05T10:25:27.000Z</time></trkpt>
<trkpt lat="42.180695" lon="23.584957"><ele>2888.8</ele><time>2026-04-05T10:25:28.000Z</time></trkpt>
<trkpt lat="42.180694" lon="23.584955"><ele>2889.4</ele><time>2026-04-05T10:25:29.000Z</time></trkpt>
<trkpt lat="42.180693" lon="23.584953"><ele>2889.4</ele><time>2026-04-05T10:25:30.000Z</time></trkpt>
<trkpt lat="42.180692" lon="23.584952"><ele>2889.4</ele><time>2026-04-05T10:25:31.000Z</time></trkpt>
<trkpt lat="42.180691" lon="23.584951"><ele>2889.4</ele><time>2026-04-05T10:25:32.000Z</time></trkpt>
<trkpt lat="42.18069" lon="23.58495"><ele>2889.4</ele><time>2026-04-05T10:25:33.000Z</time></trkpt>
<trkpt lat="42.180689" lon="23.584949"><ele>2889.7</ele><time>2026-04-05T10:25:34.000Z</time></trkpt>
<trkpt lat="42.180688" lon="23.584948"><ele>2889.7</ele><time>2026-04-05T10:25:35.000Z</time></trkpt>
<trkpt lat="42.180687" lon="23.584947"><ele>2889.7</ele><time>2026-04-05T10:25:36.000Z</time></trkpt>
<trkpt lat="42.180687" lon="23.584947"><ele>2889.7</ele><time>2026-04-05T10:25:37.000Z</time></trkpt>
<trkpt lat="42.180687" lon="23.584947"><ele>2889.7</ele><time>2026-04-05T10:25:38.000Z</time></trkpt>
<trkpt lat="42.180687" lon="23.584947"><ele>2890.4</ele><time>2026-04-05T10:25:39.000Z</time></trkpt>
<trkpt lat="42.180687" lon="23.584947"><ele>2890.4</ele><time>2026-04-05T10:25:40.000Z</time></trkpt>
<trkpt lat="42.180686" lon="23.584947"><ele>2890.4</ele><time>2026-04-05T10:25:41.000Z</time></trkpt>
<trkpt lat="42.180685" lon="23.584948"><ele>2890.4</ele><time>2026-04-05T10:25:42.000Z</time></trkpt>
<trkpt lat="42.180684" lon="23.584948"><ele>2890.4</ele><time>2026-04-05T10:25:43.000Z</time></trkpt>
<trkpt lat="42.180684" lon="23.584948"><ele>2890.9</ele><time>2026-04-05T10:25:44.000Z</time></trkpt>
<trkpt lat="42.180683" lon="23.584948"><ele>2890.9</ele><time>2026-04-05T10:25:45.000Z</time></trkpt>
<trkpt lat="42.180683" lon="23.584948"><ele>2890.9</ele><time>2026-04-05T10:25:46.000Z</time></trkpt>
<trkpt lat="42.180682" lon="23.584948"><ele>2890.9</ele><time>2026-04-05T10:25:47.000Z</time></trkpt>
<trkpt lat="42.180683" lon="23.584948"><ele>2890.9</ele><time>2026-04-05T10:25:48.000Z</time></trkpt>
<trkpt lat="42.180683" lon="23.584947"><ele>2891.1</ele><time>2026-04-05T10:25:49.000Z</time></trkpt>
<trkpt lat="42.180683" lon="23.584945"><ele>2891.1</ele><time>2026-04-05T10:25:50.000Z</time></trkpt>
<trkpt lat="42.180683" lon="23.584944"><ele>2891.1</ele><time>2026-04-05T10:25:51.000Z</time></trkpt>
<trkpt lat="42.180683" lon="23.584942"><ele>2891.1</ele><time>2026-04-05T10:25:52.000Z</time></trkpt>
<trkpt lat="42.180682" lon="23.584941"><ele>2891.1</ele><time>2026-04-05T10:25:53.000Z</time></trkpt>
<trkpt lat="42.180682" lon="23.584941"><ele>2891.4</ele><time>2026-04-05T10:25:54.000Z</time></trkpt>
<trkpt lat="42.180682" lon="23.584941"><ele>2891.4</ele><time>2026-04-05T10:25:55.000Z</time></trkpt>
<trkpt lat="42.180682" lon="23.584941"><ele>2891.4</ele><time>2026-04-05T10:25:56.000Z</time></trkpt>
<trkpt lat="42.180682" lon="23.584942"><ele>2891.4</ele><time>2026-04-05T10:25:57.000Z</time></trkpt>
<trkpt lat="42.180681" lon="23.584943"><ele>2891.4</ele><time>2026-04-05T10:25:58.000Z</time></trkpt>
<trkpt lat="42.18068" lon="23.584943"><ele>2891.7</ele><time>2026-04-05T10:25:59.000Z</time></trkpt>
<trkpt lat="42.180679" lon="23.584943"><ele>2891.7</ele><time>2026-04-05T10:26:00.000Z</time></trkpt>
<trkpt lat="42.180677" lon="23.584944"><ele>2891.7</ele><time>2026-04-05T10:26:01.000Z</time></trkpt>
<trkpt lat="42.180677" lon="23.584944"><ele>2891.7</ele><time>2026-04-05T10:26:02.000Z</time></trkpt>
<trkpt lat="42.180677" lon="23.584945"><ele>2891.7</ele><time>2026-04-05T10:26:03.000Z</time></trkpt>
<trkpt lat="42.180676" lon="23.584946"><ele>2891.8</ele><time>2026-04-05T10:26:04.000Z</time></trkpt>
<trkpt lat="42.180676" lon="23.584946"><ele>2891.8</ele><time>2026-04-05T10:26:05.000Z</time></trkpt>
<trkpt lat="42.180676" lon="23.584947"><ele>2891.8</ele><time>2026-04-05T10:26:06.000Z</time></trkpt>
<trkpt lat="42.180676" lon="23.584947"><ele>2891.8</ele><time>2026-04-05T10:26:07.000Z</time></trkpt>
<trkpt lat="42.180676" lon="23.584947"><ele>2891.8</ele><time>2026-04-05T10:26:08.000Z</time></trkpt>
<trkpt lat="42.180675" lon="23.584947"><ele>2891.8</ele><time>2026-04-05T10:26:09.000Z</time></trkpt>
<trkpt lat="42.180673" lon="23.584946"><ele>2891.8</ele><time>2026-04-05T10:26:10.000Z</time></trkpt>
<trkpt lat="42.180672" lon="23.584945"><ele>2891.8</ele><time>2026-04-05T10:26:11.000Z</time></trkpt>
<trkpt lat="42.180671" lon="23.584945"><ele>2891.8</ele><time>2026-04-05T10:26:12.000Z</time></trkpt>
<trkpt lat="42.180669" lon="23.584944"><ele>2891.8</ele><time>2026-04-05T10:26:13.000Z</time></trkpt>
<trkpt lat="42.180668" lon="23.584943"><ele>2891.8</ele><time>2026-04-05T10:26:14.000Z</time></trkpt>
<trkpt lat="42.180668" lon="23.584944"><ele>2891.8</ele><time>2026-04-05T10:26:15.000Z</time></trkpt>
<trkpt lat="42.180668" lon="23.584945"><ele>2891.8</ele><time>2026-04-05T10:26:16.000Z</time></trkpt>
<trkpt lat="42.180668" lon="23.584945"><ele>2891.8</ele><time>2026-04-05T10:26:17.000Z</time></trkpt>
<trkpt lat="42.180667" lon="23.584946"><ele>2891.8</ele><time>2026-04-05T10:26:18.000Z</time></trkpt>
<trkpt lat="42.180667" lon="23.584946"><ele>2891.8</ele><time>2026-04-05T10:26:19.000Z</time></trkpt>
<trkpt lat="42.180667" lon="23.584946"><ele>2891.8</ele><time>2026-04-05T10:26:20.000Z</time></trkpt>
<trkpt lat="42.180667" lon="23.584947"><ele>2891.8</ele><time>2026-04-05T10:26:21.000Z</time></trkpt>
<trkpt lat="42.180666" lon="23.584947"><ele>2891.8</ele><time>2026-04-05T10:26:22.000Z</time></trkpt>
<trkpt lat="42.180665" lon="23.584947"><ele>2891.8</ele><time>2026-04-05T10:26:23.000Z</time></trkpt>
<trkpt lat="42.180665" lon="23.584947"><ele>2892.1</ele><time>2026-04-05T10:26:24.000Z</time></trkpt>
<trkpt lat="42.180664" lon="23.584946"><ele>2892.1</ele><time>2026-04-05T10:26:25.000Z</time></trkpt>
<trkpt lat="42.180663" lon="23.584945"><ele>2892.1</ele><time>2026-04-05T10:26:26.000Z</time></trkpt>
<trkpt lat="42.180663" lon="23.584944"><ele>2892.1</ele><time>2026-04-05T10:26:27.000Z</time></trkpt>
<trkpt lat="42.180662" lon="23.584944"><ele>2892.1</ele><time>2026-04-05T10:26:28.000Z</time></trkpt>
<trkpt lat="42.180661" lon="23.584944"><ele>2892.5</ele><time>2026-04-05T10:26:29.000Z</time></trkpt>
<trkpt lat="42.180659" lon="23.584943"><ele>2892.5</ele><time>2026-04-05T10:26:30.000Z</time></trkpt>
<trkpt lat="42.180658" lon="23.584943"><ele>2892.5</ele><time>2026-04-05T10:26:31.000Z</time></trkpt>
<trkpt lat="42.180657" lon="23.584944"><ele>2892.5</ele><time>2026-04-05T10:26:32.000Z</time></trkpt>
<trkpt lat="42.180657" lon="23.584944"><ele>2892.5</ele><time>2026-04-05T10:26:33.000Z</time></trkpt>
<trkpt lat="42.180656" lon="23.584944"><ele>2892.6</ele><time>2026-04-05T10:26:34.000Z</time></trkpt>
<trkpt lat="42.180656" lon="23.584944"><ele>2892.6</ele><time>2026-04-05T10:26:35.000Z</time></trkpt>
<trkpt lat="42.180656" lon="23.584944"><ele>2892.6</ele><time>2026-04-05T10:26:36.000Z</time></trkpt>
<trkpt lat="42.180656" lon="23.584944"><ele>2892.6</ele><time>2026-04-05T10:26:37.000Z</time></trkpt>
<trkpt lat="42.180656" lon="23.584944"><ele>2892.6</ele><time>2026-04-05T10:26:38.000Z</time></trkpt>
<trkpt lat="42.180656" lon="23.584944"><ele>2892.8</ele><time>2026-04-05T10:26:39.000Z</time></trkpt>
<trkpt lat="42.180656" lon="23.584944"><ele>2892.8</ele><time>2026-04-05T10:26:40.000Z</time></trkpt>
<trkpt lat="42.180656" lon="23.584944"><ele>2892.8</ele><time>2026-04-05T10:26:41.000Z</time></trkpt>
<trkpt lat="42.180656" lon="23.584943"><ele>2892.8</ele><time>2026-04-05T10:26:42.000Z</time></trkpt>
<trkpt lat="42.180656" lon="23.584943"><ele>2892.8</ele><time>2026-04-05T10:26:43.000Z</time></trkpt>
<trkpt lat="42.180655" lon="23.584942"><ele>2893.1</ele><time>2026-04-05T10:26:44.000Z</time></trkpt>
<trkpt lat="42.180654" lon="23.58494"><ele>2893.1</ele><time>2026-04-05T10:26:45.000Z</time></trkpt>
<trkpt lat="42.180653" lon="23.584938"><ele>2893.1</ele><time>2026-04-05T10:26:46.000Z</time></trkpt>
<trkpt lat="42.180651" lon="23.584936"><ele>2893.1</ele><time>2026-04-05T10:26:47.000Z</time></trkpt>
<trkpt lat="42.180649" lon="23.584934"><ele>2893.1</ele><time>2026-04-05T10:26:48.000Z</time></trkpt>
<trkpt lat="42.180648" lon="23.584932"><ele>2893.2</ele><time>2026-04-05T10:26:49.000Z</time></trkpt>
<trkpt lat="42.180647" lon="23.584931"><ele>2893.2</ele><time>2026-04-05T10:26:50.000Z</time></trkpt>
<trkpt lat="42.180646" lon="23.584931"><ele>2893.2</ele><time>2026-04-05T10:26:51.000Z</time></trkpt>
<trkpt lat="42.180645" lon="23.584931"><ele>2893.2</ele><time>2026-04-05T10:26:52.000Z</time></trkpt>
<trkpt lat="42.180645" lon="23.584933"><ele>2893.2</ele><time>2026-04-05T10:26:53.000Z</time></trkpt>
<trkpt lat="42.180644" lon="23.584934"><ele>2893.6</ele><time>2026-04-05T10:26:54.000Z</time></trkpt>
<trkpt lat="42.180644" lon="23.584936"><ele>2893.6</ele><time>2026-04-05T10:26:55.000Z</time></trkpt>
<trkpt lat="42.180644" lon="23.584937"><ele>2893.6</ele><time>2026-04-05T10:26:56.000Z</time></trkpt>
<trkpt lat="42.180644" lon="23.584938"><ele>2893.6</ele><time>2026-04-05T10:26:57.000Z</time></trkpt>
<trkpt lat="42.180644" lon="23.584937"><ele>2893.6</ele><time>2026-04-05T10:26:58.000Z</time></trkpt>
<trkpt lat="42.180644" lon="23.584937"><ele>2894.2</ele><time>2026-04-05T10:26:59.000Z</time></trkpt>
<trkpt lat="42.180644" lon="23.584937"><ele>2894.2</ele><time>2026-04-05T10:27:00.000Z</time></trkpt>
<trkpt lat="42.180644" lon="23.584937"><ele>2894.2</ele><time>2026-04-05T10:27:01.000Z</time></trkpt>
<trkpt lat="42.180644" lon="23.584937"><ele>2894.2</ele><time>2026-04-05T10:27:02.000Z</time></trkpt>
<trkpt lat="42.180644" lon="23.584937"><ele>2894.2</ele><time>2026-04-05T10:27:03.000Z</time></trkpt>
<trkpt lat="42.180644" lon="23.584937"><ele>2894.4</ele><time>2026-04-05T10:27:04.000Z</time></trkpt>
<trkpt lat="42.180644" lon="23.584937"><ele>2894.4</ele><time>2026-04-05T10:27:05.000Z</time></trkpt>
<trkpt lat="42.180644" lon="23.584937"><ele>2894.4</ele><time>2026-04-05T10:27:06.000Z</time></trkpt>
<trkpt lat="42.180644" lon="23.584937"><ele>2894.4</ele><time>2026-04-05T10:27:07.000Z</time></trkpt>
<trkpt lat="42.180644" lon="23.584936"><ele>2894.4</ele><time>2026-04-05T10:27:08.000Z</time></trkpt>
<trkpt lat="42.180645" lon="23.584935"><ele>2894.8</ele><time>2026-04-05T10:27:09.000Z</time></trkpt>
<trkpt lat="42.180646" lon="23.584935"><ele>2894.8</ele><time>2026-04-05T10:27:10.000Z</time></trkpt>
<trkpt lat="42.180646" lon="23.584934"><ele>2894.8</ele><time>2026-04-05T10:27:11.000Z</time></trkpt>
<trkpt lat="42.180647" lon="23.584934"><ele>2894.8</ele><time>2026-04-05T10:27:12.000Z</time></trkpt>
<trkpt lat="42.180648" lon="23.584935"><ele>2894.8</ele><time>2026-04-05T10:27:13.000Z</time></trkpt>
<trkpt lat="42.180648" lon="23.584935"><ele>2894.9</ele><time>2026-04-05T10:27:14.000Z</time></trkpt>
<trkpt lat="42.180648" lon="23.584935"><ele>2894.9</ele><time>2026-04-05T10:27:15.000Z</time></trkpt>
<trkpt lat="42.180648" lon="23.584935"><ele>2894.9</ele><time>2026-04-05T10:27:16.000Z</time></trkpt>
<trkpt lat="42.180648" lon="23.584935"><ele>2894.9</ele><time>2026-04-05T10:27:17.000Z</time></trkpt>
<trkpt lat="42.180647" lon="23.584935"><ele>2894.9</ele><time>2026-04-05T10:27:18.000Z</time></trkpt>
<trkpt lat="42.180647" lon="23.584934"><ele>2894.9</ele><time>2026-04-05T10:27:19.000Z</time></trkpt>
<trkpt lat="42.180646" lon="23.584934"><ele>2894.9</ele><time>2026-04-05T10:27:20.000Z</time></trkpt>
<trkpt lat="42.180645" lon="23.584933"><ele>2894.9</ele><time>2026-04-05T10:27:21.000Z</time></trkpt>
<trkpt lat="42.180643" lon="23.584931"><ele>2894.9</ele><time>2026-04-05T10:27:22.000Z</time></trkpt>
<trkpt lat="42.18064" lon="23.584929"><ele>2894.9</ele><time>2026-04-05T10:27:23.000Z</time></trkpt>
<trkpt lat="42.180638" lon="23.584927"><ele>2894.9</ele><time>2026-04-05T10:27:24.000Z</time></trkpt>
<trkpt lat="42.180636" lon="23.584924"><ele>2894.9</ele><time>2026-04-05T10:27:25.000Z</time></trkpt>
<trkpt lat="42.180634" lon="23.584922"><ele>2894.9</ele><time>2026-04-05T10:27:26.000Z</time></trkpt>
<trkpt lat="42.180631" lon="23.58492"><ele>2894.9</ele><time>2026-04-05T10:27:27.000Z</time></trkpt>
<trkpt lat="42.180628" lon="23.584918"><ele>2894.9</ele><time>2026-04-05T10:27:28.000Z</time></trkpt>
<trkpt lat="42.180625" lon="23.584916"><ele>2895.3</ele><time>2026-04-05T10:27:29.000Z</time></trkpt>
<trkpt lat="42.180622" lon="23.584914"><ele>2895.3</ele><time>2026-04-05T10:27:30.000Z</time></trkpt>
<trkpt lat="42.180618" lon="23.584911"><ele>2895.3</ele><time>2026-04-05T10:27:31.000Z</time></trkpt>
<trkpt lat="42.180615" lon="23.584909"><ele>2895.3</ele><time>2026-04-05T10:27:32.000Z</time></trkpt>
<trkpt lat="42.180612" lon="23.584905"><ele>2895.3</ele><time>2026-04-05T10:27:33.000Z</time></trkpt>
<trkpt lat="42.180609" lon="23.584902"><ele>2895.6</ele><time>2026-04-05T10:27:34.000Z</time></trkpt>
<trkpt lat="42.180606" lon="23.584899"><ele>2895.6</ele><time>2026-04-05T10:27:35.000Z</time></trkpt>
<trkpt lat="42.180603" lon="23.584897"><ele>2895.6</ele><time>2026-04-05T10:27:36.000Z</time></trkpt>
<trkpt lat="42.1806" lon="23.584895"><ele>2895.6</ele><time>2026-04-05T10:27:37.000Z</time></trkpt>
<trkpt lat="42.180598" lon="23.584895"><ele>2895.6</ele><time>2026-04-05T10:27:38.000Z</time></trkpt>
<trkpt lat="42.180596" lon="23.584896"><ele>2896.8</ele><time>2026-04-05T10:27:39.000Z</time></trkpt>
<trkpt lat="42.180594" lon="23.584897"><ele>2896.8</ele><time>2026-04-05T10:27:40.000Z</time></trkpt>
<trkpt lat="42.180592" lon="23.584898"><ele>2896.8</ele><time>2026-04-05T10:27:41.000Z</time></trkpt>
<trkpt lat="42.180588" lon="23.584897"><ele>2896.8</ele><time>2026-04-05T10:27:42.000Z</time></trkpt>
<trkpt lat="42.180584" lon="23.584895"><ele>2896.8</ele><time>2026-04-05T10:27:43.000Z</time></trkpt>
<trkpt lat="42.180582" lon="23.584891"><ele>2898.3</ele><time>2026-04-05T10:27:44.000Z</time></trkpt>
<trkpt lat="42.18058" lon="23.584888"><ele>2898.3</ele><time>2026-04-05T10:27:45.000Z</time></trkpt>
<trkpt lat="42.18058" lon="23.584886"><ele>2898.3</ele><time>2026-04-05T10:27:46.000Z</time></trkpt>
<trkpt lat="42.18058" lon="23.584885"><ele>2898.3</ele><time>2026-04-05T10:27:47.000Z</time></trkpt>
<trkpt lat="42.18058" lon="23.584886"><ele>2898.3</ele><time>2026-04-05T10:27:48.000Z</time></trkpt>
<trkpt lat="42.180579" lon="23.584887"><ele>2899.1</ele><time>2026-04-05T10:27:49.000Z</time></trkpt>
<trkpt lat="42.180576" lon="23.584887"><ele>2899.1</ele><time>2026-04-05T10:27:50.000Z</time></trkpt>
<trkpt lat="42.180573" lon="23.584887"><ele>2899.1</ele><time>2026-04-05T10:27:51.000Z</time></trkpt>
<trkpt lat="42.180571" lon="23.584887"><ele>2899.1</ele><time>2026-04-05T10:27:52.000Z</time></trkpt>
<trkpt lat="42.180568" lon="23.584885"><ele>2899.1</ele><time>2026-04-05T10:27:53.000Z</time></trkpt>
<trkpt lat="42.180567" lon="23.584885"><ele>2900.2</ele><time>2026-04-05T10:27:54.000Z</time></trkpt>
<trkpt lat="42.180567" lon="23.584885"><ele>2900.2</ele><time>2026-04-05T10:27:55.000Z</time></trkpt>
<trkpt lat="42.180566" lon="23.584885"><ele>2900.2</ele><time>2026-04-05T10:27:56.000Z</time></trkpt>
<trkpt lat="42.180565" lon="23.584884"><ele>2900.2</ele><time>2026-04-05T10:27:57.000Z</time></trkpt>
<trkpt lat="42.180565" lon="23.584884"><ele>2900.2</ele><time>2026-04-05T10:27:58.000Z</time></trkpt>
<trkpt lat="42.180564" lon="23.584884"><ele>2900.8</ele><time>2026-04-05T10:27:59.000Z</time></trkpt>
<trkpt lat="42.180563" lon="23.584884"><ele>2900.8</ele><time>2026-04-05T10:28:00.000Z</time></trkpt>
<trkpt lat="42.180562" lon="23.584885"><ele>2900.8</ele><time>2026-04-05T10:28:01.000Z</time></trkpt>
<trkpt lat="42.180562" lon="23.584885"><ele>2900.8</ele><time>2026-04-05T10:28:02.000Z</time></trkpt>
<trkpt lat="42.180561" lon="23.584887"><ele>2900.8</ele><time>2026-04-05T10:28:03.000Z</time></trkpt>
<trkpt lat="42.180559" lon="23.584888"><ele>2901</ele><time>2026-04-05T10:28:04.000Z</time></trkpt>
<trkpt lat="42.180558" lon="23.584889"><ele>2901</ele><time>2026-04-05T10:28:05.000Z</time></trkpt>
<trkpt lat="42.180557" lon="23.58489"><ele>2901</ele><time>2026-04-05T10:28:06.000Z</time></trkpt>
<trkpt lat="42.180555" lon="23.58489"><ele>2901</ele><time>2026-04-05T10:28:07.000Z</time></trkpt>
<trkpt lat="42.180554" lon="23.584891"><ele>2901</ele><time>2026-04-05T10:28:08.000Z</time></trkpt>
<trkpt lat="42.180554" lon="23.584891"><ele>2901.2</ele><time>2026-04-05T10:28:09.000Z</time></trkpt>
<trkpt lat="42.180553" lon="23.58489"><ele>2901.2</ele><time>2026-04-05T10:28:10.000Z</time></trkpt>
<trkpt lat="42.180551" lon="23.584889"><ele>2901.2</ele><time>2026-04-05T10:28:11.000Z</time></trkpt>
<trkpt lat="42.180548" lon="23.584889"><ele>2901.2</ele><time>2026-04-05T10:28:12.000Z</time></trkpt>
<trkpt lat="42.180543" lon="23.584888"><ele>2901.2</ele><time>2026-04-05T10:28:13.000Z</time></trkpt>
<trkpt lat="42.180538" lon="23.584887"><ele>2901.2</ele><time>2026-04-05T10:28:14.000Z</time></trkpt>
<trkpt lat="42.180533" lon="23.584887"><ele>2901.2</ele><time>2026-04-05T10:28:15.000Z</time></trkpt>
<trkpt lat="42.180527" lon="23.584886"><ele>2901.2</ele><time>2026-04-05T10:28:16.000Z</time></trkpt>
<trkpt lat="42.180522" lon="23.584885"><ele>2901.2</ele><time>2026-04-05T10:28:17.000Z</time></trkpt>
<trkpt lat="42.180517" lon="23.584884"><ele>2901.2</ele><time>2026-04-05T10:28:18.000Z</time></trkpt>
<trkpt lat="42.180511" lon="23.584882"><ele>2901.1</ele><time>2026-04-05T10:28:19.000Z</time></trkpt>
<trkpt lat="42.180505" lon="23.584882"><ele>2901.1</ele><time>2026-04-05T10:28:20.000Z</time></trkpt>
<trkpt lat="42.180499" lon="23.584881"><ele>2901.1</ele><time>2026-04-05T10:28:21.000Z</time></trkpt>
<trkpt lat="42.180493" lon="23.58488"><ele>2901.1</ele><time>2026-04-05T10:28:22.000Z</time></trkpt>
<trkpt lat="42.180488" lon="23.58488"><ele>2901.1</ele><time>2026-04-05T10:28:23.000Z</time></trkpt>
<trkpt lat="42.180482" lon="23.58488"><ele>2901.3</ele><time>2026-04-05T10:28:24.000Z</time></trkpt>
<trkpt lat="42.180476" lon="23.584881"><ele>2901.3</ele><time>2026-04-05T10:28:25.000Z</time></trkpt>
<trkpt lat="42.180471" lon="23.584882"><ele>2901.3</ele><time>2026-04-05T10:28:26.000Z</time></trkpt>
<trkpt lat="42.180466" lon="23.58488"><ele>2901.3</ele><time>2026-04-05T10:28:27.000Z</time></trkpt>
<trkpt lat="42.180463" lon="23.584879"><ele>2901.3</ele><time>2026-04-05T10:28:28.000Z</time></trkpt>
<trkpt lat="42.180462" lon="23.584879"><ele>2902.1</ele><time>2026-04-05T10:28:29.000Z</time></trkpt>
<trkpt lat="42.18046" lon="23.58488"><ele>2902.1</ele><time>2026-04-05T10:28:30.000Z</time></trkpt>
<trkpt lat="42.180461" lon="23.584878"><ele>2902.1</ele><time>2026-04-05T10:28:31.000Z</time></trkpt>
<trkpt lat="42.180461" lon="23.584879"><ele>2902.1</ele><time>2026-04-05T10:28:32.000Z</time></trkpt>
<trkpt lat="42.18046" lon="23.58488"><ele>2902.1</ele><time>2026-04-05T10:28:33.000Z</time></trkpt>
<trkpt lat="42.180459" lon="23.58488"><ele>2902.6</ele><time>2026-04-05T10:28:34.000Z</time></trkpt>
<trkpt lat="42.180459" lon="23.584879"><ele>2902.6</ele><time>2026-04-05T10:28:35.000Z</time></trkpt>
<trkpt lat="42.180458" lon="23.58488"><ele>2902.6</ele><time>2026-04-05T10:28:36.000Z</time></trkpt>
<trkpt lat="42.180457" lon="23.584881"><ele>2902.6</ele><time>2026-04-05T10:28:37.000Z</time></trkpt>
<trkpt lat="42.180457" lon="23.584882"><ele>2902.6</ele><time>2026-04-05T10:28:38.000Z</time></trkpt>
<trkpt lat="42.180456" lon="23.584882"><ele>2903.5</ele><time>2026-04-05T10:28:39.000Z</time></trkpt>
<trkpt lat="42.180456" lon="23.584882"><ele>2903.5</ele><time>2026-04-05T10:28:40.000Z</time></trkpt>
<trkpt lat="42.180456" lon="23.584883"><ele>2903.5</ele><time>2026-04-05T10:28:41.000Z</time></trkpt>
<trkpt lat="42.180454" lon="23.584883"><ele>2903.5</ele><time>2026-04-05T10:28:42.000Z</time></trkpt>
<trkpt lat="42.180452" lon="23.584884"><ele>2903.5</ele><time>2026-04-05T10:28:43.000Z</time></trkpt>
<trkpt lat="42.180448" lon="23.584885"><ele>2904</ele><time>2026-04-05T10:28:44.000Z</time></trkpt>
<trkpt lat="42.180443" lon="23.584886"><ele>2904</ele><time>2026-04-05T10:28:45.000Z</time></trkpt>
<trkpt lat="42.180437" lon="23.584886"><ele>2904</ele><time>2026-04-05T10:28:46.000Z</time></trkpt>
<trkpt lat="42.180431" lon="23.584886"><ele>2904</ele><time>2026-04-05T10:28:47.000Z</time></trkpt>
<trkpt lat="42.180425" lon="23.584887"><ele>2904</ele><time>2026-04-05T10:28:48.000Z</time></trkpt>
<trkpt lat="42.180419" lon="23.584888"><ele>2904.1</ele><time>2026-04-05T10:28:49.000Z</time></trkpt>
<trkpt lat="42.180414" lon="23.58489"><ele>2904.1</ele><time>2026-04-05T10:28:50.000Z</time></trkpt>
<trkpt lat="42.180408" lon="23.584891"><ele>2904.1</ele><time>2026-04-05T10:28:51.000Z</time></trkpt>
<trkpt lat="42.180404" lon="23.584892"><ele>2904.1</ele><time>2026-04-05T10:28:52.000Z</time></trkpt>
<trkpt lat="42.1804" lon="23.584892"><ele>2904.1</ele><time>2026-04-05T10:28:53.000Z</time></trkpt>
<trkpt lat="42.180397" lon="23.584894"><ele>2904.4</ele><time>2026-04-05T10:28:54.000Z</time></trkpt>
<trkpt lat="42.180394" lon="23.584895"><ele>2904.4</ele><time>2026-04-05T10:28:55.000Z</time></trkpt>
<trkpt lat="42.180393" lon="23.584898"><ele>2904.4</ele><time>2026-04-05T10:28:56.000Z</time></trkpt>
<trkpt lat="42.18039" lon="23.584901"><ele>2904.4</ele><time>2026-04-05T10:28:57.000Z</time></trkpt>
<trkpt lat="42.180387" lon="23.584904"><ele>2904.4</ele><time>2026-04-05T10:28:58.000Z</time></trkpt>
<trkpt lat="42.180384" lon="23.584904"><ele>2905.1</ele><time>2026-04-05T10:28:59.000Z</time></trkpt>
<trkpt lat="42.180382" lon="23.584904"><ele>2905.1</ele><time>2026-04-05T10:29:00.000Z</time></trkpt>
<trkpt lat="42.180381" lon="23.584905"><ele>2905.1</ele><time>2026-04-05T10:29:01.000Z</time></trkpt>
<trkpt lat="42.18038" lon="23.584904"><ele>2905.1</ele><time>2026-04-05T10:29:02.000Z</time></trkpt>
<trkpt lat="42.18038" lon="23.584904"><ele>2905.1</ele><time>2026-04-05T10:29:03.000Z</time></trkpt>
<trkpt lat="42.180381" lon="23.584905"><ele>2905.5</ele><time>2026-04-05T10:29:04.000Z</time></trkpt>
<trkpt lat="42.180381" lon="23.584906"><ele>2905.5</ele><time>2026-04-05T10:29:05.000Z</time></trkpt>
<trkpt lat="42.180382" lon="23.584906"><ele>2905.5</ele><time>2026-04-05T10:29:06.000Z</time></trkpt>
<trkpt lat="42.180382" lon="23.584907"><ele>2905.5</ele><time>2026-04-05T10:29:07.000Z</time></trkpt>
<trkpt lat="42.18038" lon="23.584906"><ele>2905.5</ele><time>2026-04-05T10:29:08.000Z</time></trkpt>
<trkpt lat="42.180378" lon="23.584904"><ele>2906.1</ele><time>2026-04-05T10:29:09.000Z</time></trkpt>
<trkpt lat="42.180376" lon="23.584903"><ele>2906.1</ele><time>2026-04-05T10:29:10.000Z</time></trkpt>
<trkpt lat="42.180374" lon="23.584902"><ele>2906.1</ele><time>2026-04-05T10:29:11.000Z</time></trkpt>
<trkpt lat="42.180372" lon="23.5849"><ele>2906.1</ele><time>2026-04-05T10:29:12.000Z</time></trkpt>
<trkpt lat="42.180372" lon="23.584901"><ele>2906.1</ele><time>2026-04-05T10:29:13.000Z</time></trkpt>
<trkpt lat="42.180371" lon="23.584903"><ele>2906.4</ele><time>2026-04-05T10:29:14.000Z</time></trkpt>
<trkpt lat="42.18037" lon="23.584904"><ele>2906.4</ele><time>2026-04-05T10:29:15.000Z</time></trkpt>
<trkpt lat="42.180369" lon="23.584906"><ele>2906.4</ele><time>2026-04-05T10:29:16.000Z</time></trkpt>
<trkpt lat="42.180368" lon="23.584908"><ele>2906.4</ele><time>2026-04-05T10:29:17.000Z</time></trkpt>
<trkpt lat="42.180368" lon="23.58491"><ele>2906.4</ele><time>2026-04-05T10:29:18.000Z</time></trkpt>
<trkpt lat="42.180367" lon="23.584911"><ele>2906.5</ele><time>2026-04-05T10:29:19.000Z</time></trkpt>
<trkpt lat="42.180366" lon="23.584911"><ele>2906.5</ele><time>2026-04-05T10:29:20.000Z</time></trkpt>
<trkpt lat="42.180365" lon="23.584911"><ele>2906.5</ele><time>2026-04-05T10:29:21.000Z</time></trkpt>
<trkpt lat="42.180365" lon="23.58491"><ele>2906.5</ele><time>2026-04-05T10:29:22.000Z</time></trkpt>
<trkpt lat="42.180364" lon="23.584909"><ele>2906.5</ele><time>2026-04-05T10:29:23.000Z</time></trkpt>
<trkpt lat="42.180363" lon="23.584908"><ele>2906.6</ele><time>2026-04-05T10:29:24.000Z</time></trkpt>
<trkpt lat="42.180363" lon="23.584906"><ele>2906.6</ele><time>2026-04-05T10:29:25.000Z</time></trkpt>
<trkpt lat="42.180364" lon="23.584905"><ele>2906.6</ele><time>2026-04-05T10:29:26.000Z</time></trkpt>
<trkpt lat="42.180364" lon="23.584905"><ele>2906.6</ele><time>2026-04-05T10:29:27.000Z</time></trkpt>
<trkpt lat="42.180364" lon="23.584904"><ele>2906.6</ele><time>2026-04-05T10:29:28.000Z</time></trkpt>
<trkpt lat="42.180364" lon="23.584903"><ele>2906.7</ele><time>2026-04-05T10:29:29.000Z</time></trkpt>
<trkpt lat="42.180364" lon="23.584903"><ele>2906.7</ele><time>2026-04-05T10:29:30.000Z</time></trkpt>
<trkpt lat="42.180364" lon="23.584903"><ele>2906.7</ele><time>2026-04-05T10:29:31.000Z</time></trkpt>
<trkpt lat="42.180363" lon="23.584903"><ele>2906.7</ele><time>2026-04-05T10:29:32.000Z</time></trkpt>
<trkpt lat="42.180363" lon="23.584903"><ele>2906.7</ele><time>2026-04-05T10:29:33.000Z</time></trkpt>
<trkpt lat="42.180363" lon="23.584903"><ele>2906.7</ele><time>2026-04-05T10:29:34.000Z</time></trkpt>
<trkpt lat="42.180363" lon="23.584903"><ele>2906.7</ele><time>2026-04-05T10:29:35.000Z</time></trkpt>
<trkpt lat="42.180363" lon="23.584904"><ele>2906.7</ele><time>2026-04-05T10:29:36.000Z</time></trkpt>
<trkpt lat="42.180362" lon="23.584906"><ele>2906.7</ele><time>2026-04-05T10:29:37.000Z</time></trkpt>
<trkpt lat="42.180361" lon="23.584908"><ele>2906.7</ele><time>2026-04-05T10:29:38.000Z</time></trkpt>
<trkpt lat="42.18036" lon="23.58491"><ele>2906.8</ele><time>2026-04-05T10:29:39.000Z</time></trkpt>
<trkpt lat="42.180358" lon="23.584913"><ele>2906.8</ele><time>2026-04-05T10:29:40.000Z</time></trkpt>
<trkpt lat="42.180357" lon="23.584914"><ele>2906.8</ele><time>2026-04-05T10:29:41.000Z</time></trkpt>
<trkpt lat="42.180357" lon="23.584915"><ele>2906.8</ele><time>2026-04-05T10:29:42.000Z</time></trkpt>
<trkpt lat="42.180357" lon="23.584915"><ele>2906.8</ele><time>2026-04-05T10:29:43.000Z</time></trkpt>
<trkpt lat="42.180357" lon="23.584916"><ele>2907.1</ele><time>2026-04-05T10:29:44.000Z</time></trkpt>
<trkpt lat="42.180357" lon="23.584916"><ele>2907.1</ele><time>2026-04-05T10:29:45.000Z</time></trkpt>
<trkpt lat="42.180357" lon="23.584917"><ele>2907.1</ele><time>2026-04-05T10:29:46.000Z</time></trkpt>
<trkpt lat="42.180358" lon="23.584918"><ele>2907.1</ele><time>2026-04-05T10:29:47.000Z</time></trkpt>
<trkpt lat="42.180358" lon="23.584919"><ele>2907.1</ele><time>2026-04-05T10:29:48.000Z</time></trkpt>
<trkpt lat="42.180359" lon="23.58492"><ele>2907.2</ele><time>2026-04-05T10:29:49.000Z</time></trkpt>
<trkpt lat="42.180359" lon="23.584921"><ele>2907.2</ele><time>2026-04-05T10:29:50.000Z</time></trkpt>
<trkpt lat="42.18036" lon="23.584922"><ele>2907.2</ele><time>2026-04-05T10:29:51.000Z</time></trkpt>
<trkpt lat="42.18036" lon="23.584922"><ele>2907.2</ele><time>2026-04-05T10:29:52.000Z</time></trkpt>
<trkpt lat="42.18036" lon="23.584922"><ele>2907.2</ele><time>2026-04-05T10:29:53.000Z</time></trkpt>
<trkpt lat="42.18036" lon="23.584923"><ele>2907.3</ele><time>2026-04-05T10:29:54.000Z</time></trkpt>
<trkpt lat="42.18036" lon="23.584923"><ele>2907.3</ele><time>2026-04-05T10:29:55.000Z</time></trkpt>
<trkpt lat="42.180359" lon="23.584924"><ele>2907.3</ele><time>2026-04-05T10:29:56.000Z</time></trkpt>
<trkpt lat="42.180357" lon="23.584923"><ele>2907.3</ele><time>2026-04-05T10:29:57.000Z</time></trkpt>
<trkpt lat="42.180353" lon="23.584922"><ele>2907.3</ele><time>2026-04-05T10:29:58.000Z</time></trkpt>
<trkpt lat="42.18035" lon="23.58492"><ele>2907.2</ele><time>2026-04-05T10:29:59.000Z</time></trkpt>
<trkpt lat="42.180345" lon="23.584918"><ele>2907.2</ele><time>2026-04-05T10:30:00.000Z</time></trkpt>
<trkpt lat="42.180338" lon="23.584915"><ele>2907.2</ele><time>2026-04-05T10:30:01.000Z</time></trkpt>
<trkpt lat="42.180331" lon="23.584911"><ele>2907.2</ele><time>2026-04-05T10:30:02.000Z</time></trkpt>
<trkpt lat="42.180323" lon="23.584907"><ele>2907.2</ele><time>2026-04-05T10:30:03.000Z</time></trkpt>
<trkpt lat="42.180314" lon="23.584902"><ele>2907.2</ele><time>2026-04-05T10:30:04.000Z</time></trkpt>
<trkpt lat="42.180305" lon="23.584897"><ele>2907.2</ele><time>2026-04-05T10:30:05.000Z</time></trkpt>
<trkpt lat="42.180298" lon="23.584893"><ele>2907.2</ele><time>2026-04-05T10:30:06.000Z</time></trkpt>
<trkpt lat="42.180291" lon="23.584889"><ele>2907.2</ele><time>2026-04-05T10:30:07.000Z</time></trkpt>
<trkpt lat="42.180285" lon="23.584884"><ele>2907.2</ele><time>2026-04-05T10:30:08.000Z</time></trkpt>
<trkpt lat="42.180279" lon="23.584879"><ele>2907.3</ele><time>2026-04-05T10:30:09.000Z</time></trkpt>
<trkpt lat="42.180274" lon="23.584877"><ele>2907.3</ele><time>2026-04-05T10:30:10.000Z</time></trkpt>
<trkpt lat="42.180267" lon="23.584874"><ele>2907.3</ele><time>2026-04-05T10:30:11.000Z</time></trkpt>
<trkpt lat="42.180259" lon="23.584871"><ele>2907.3</ele><time>2026-04-05T10:30:12.000Z</time></trkpt>
<trkpt lat="42.180251" lon="23.58487"><ele>2907.3</ele><time>2026-04-05T10:30:13.000Z</time></trkpt>
<trkpt lat="42.180244" lon="23.584869"><ele>2907.6</ele><time>2026-04-05T10:30:14.000Z</time></trkpt>
<trkpt lat="42.180235" lon="23.584867"><ele>2907.6</ele><time>2026-04-05T10:30:15.000Z</time></trkpt>
<trkpt lat="42.180227" lon="23.584865"><ele>2907.6</ele><time>2026-04-05T10:30:16.000Z</time></trkpt>
<trkpt lat="42.180218" lon="23.584865"><ele>2907.6</ele><time>2026-04-05T10:30:17.000Z</time></trkpt>
<trkpt lat="42.180211" lon="23.584863"><ele>2907.6</ele><time>2026-04-05T10:30:18.000Z</time></trkpt>
<trkpt lat="42.180203" lon="23.584862"><ele>2907.8</ele><time>2026-04-05T10:30:19.000Z</time></trkpt>
<trkpt lat="42.180194" lon="23.584861"><ele>2907.8</ele><time>2026-04-05T10:30:20.000Z</time></trkpt>
<trkpt lat="42.180187" lon="23.58486"><ele>2907.8</ele><time>2026-04-05T10:30:21.000Z</time></trkpt>
<trkpt lat="42.18018" lon="23.584858"><ele>2907.8</ele><time>2026-04-05T10:30:22.000Z</time></trkpt>
<trkpt lat="42.180173" lon="23.584855"><ele>2907.8</ele><time>2026-04-05T10:30:23.000Z</time></trkpt>
<trkpt lat="42.180167" lon="23.584853"><ele>2908.1</ele><time>2026-04-05T10:30:24.000Z</time></trkpt>
<trkpt lat="42.180162" lon="23.584852"><ele>2908.1</ele><time>2026-04-05T10:30:25.000Z</time></trkpt>
<trkpt lat="42.180157" lon="23.584852"><ele>2908.1</ele><time>2026-04-05T10:30:26.000Z</time></trkpt>
<trkpt lat="42.180151" lon="23.584852"><ele>2908.1</ele><time>2026-04-05T10:30:27.000Z</time></trkpt>
<trkpt lat="42.180145" lon="23.584854"><ele>2908.1</ele><time>2026-04-05T10:30:28.000Z</time></trkpt>
<trkpt lat="42.180139" lon="23.584855"><ele>2908.6</ele><time>2026-04-05T10:30:29.000Z</time></trkpt>
<trkpt lat="42.180132" lon="23.584854"><ele>2908.6</ele><time>2026-04-05T10:30:30.000Z</time></trkpt>
<trkpt lat="42.180126" lon="23.584853"><ele>2908.6</ele><time>2026-04-05T10:30:31.000Z</time></trkpt>
<trkpt lat="42.18012" lon="23.584851"><ele>2908.6</ele><time>2026-04-05T10:30:32.000Z</time></trkpt>
<trkpt lat="42.180115" lon="23.58485"><ele>2908.6</ele><time>2026-04-05T10:30:33.000Z</time></trkpt>
<trkpt lat="42.18011" lon="23.58485"><ele>2908.9</ele><time>2026-04-05T10:30:34.000Z</time></trkpt>
<trkpt lat="42.180105" lon="23.58485"><ele>2908.9</ele><time>2026-04-05T10:30:35.000Z</time></trkpt>
<trkpt lat="42.1801" lon="23.584853"><ele>2908.9</ele><time>2026-04-05T10:30:36.000Z</time></trkpt>
<trkpt lat="42.180094" lon="23.584857"><ele>2908.9</ele><time>2026-04-05T10:30:37.000Z</time></trkpt>
<trkpt lat="42.180089" lon="23.584861"><ele>2908.9</ele><time>2026-04-05T10:30:38.000Z</time></trkpt>
<trkpt lat="42.180082" lon="23.584864"><ele>2909.6</ele><time>2026-04-05T10:30:39.000Z</time></trkpt>
<trkpt lat="42.180076" lon="23.584867"><ele>2909.6</ele><time>2026-04-05T10:30:40.000Z</time></trkpt>
<trkpt lat="42.18007" lon="23.584868"><ele>2909.6</ele><time>2026-04-05T10:30:41.000Z</time></trkpt>
<trkpt lat="42.180065" lon="23.584868"><ele>2909.6</ele><time>2026-04-05T10:30:42.000Z</time></trkpt>
<trkpt lat="42.18006" lon="23.584869"><ele>2909.6</ele><time>2026-04-05T10:30:43.000Z</time></trkpt>
<trkpt lat="42.180055" lon="23.584869"><ele>2910.4</ele><time>2026-04-05T10:30:44.000Z</time></trkpt>
<trkpt lat="42.180051" lon="23.584869"><ele>2910.4</ele><time>2026-04-05T10:30:45.000Z</time></trkpt>
<trkpt lat="42.180046" lon="23.58487"><ele>2910.4</ele><time>2026-04-05T10:30:46.000Z</time></trkpt>
<trkpt lat="42.180041" lon="23.58487"><ele>2910.4</ele><time>2026-04-05T10:30:47.000Z</time></trkpt>
<trkpt lat="42.180035" lon="23.58487"><ele>2910.4</ele><time>2026-04-05T10:30:48.000Z</time></trkpt>
<trkpt lat="42.18003" lon="23.584869"><ele>2910.9</ele><time>2026-04-05T10:30:49.000Z</time></trkpt>
<trkpt lat="42.180026" lon="23.584867"><ele>2910.9</ele><time>2026-04-05T10:30:50.000Z</time></trkpt>
<trkpt lat="42.180023" lon="23.584867"><ele>2910.9</ele><time>2026-04-05T10:30:51.000Z</time></trkpt>
<trkpt lat="42.180021" lon="23.584866"><ele>2910.9</ele><time>2026-04-05T10:30:52.000Z</time></trkpt>
<trkpt lat="42.18002" lon="23.584866"><ele>2910.9</ele><time>2026-04-05T10:30:53.000Z</time></trkpt>
<trkpt lat="42.180018" lon="23.584869"><ele>2912</ele><time>2026-04-05T10:30:54.000Z</time></trkpt>
<trkpt lat="42.180015" lon="23.584873"><ele>2912</ele><time>2026-04-05T10:30:55.000Z</time></trkpt>
<trkpt lat="42.180011" lon="23.584876"><ele>2912</ele><time>2026-04-05T10:30:56.000Z</time></trkpt>
<trkpt lat="42.180007" lon="23.584879"><ele>2912</ele><time>2026-04-05T10:30:57.000Z</time></trkpt>
<trkpt lat="42.180001" lon="23.584881"><ele>2912</ele><time>2026-04-05T10:30:58.000Z</time></trkpt>
<trkpt lat="42.179995" lon="23.584882"><ele>2912.9</ele><time>2026-04-05T10:30:59.000Z</time></trkpt>
<trkpt lat="42.179988" lon="23.584882"><ele>2912.9</ele><time>2026-04-05T10:31:00.000Z</time></trkpt>
<trkpt lat="42.179981" lon="23.584881"><ele>2912.9</ele><time>2026-04-05T10:31:01.000Z</time></trkpt>
<trkpt lat="42.179974" lon="23.584882"><ele>2912.9</ele><time>2026-04-05T10:31:02.000Z</time></trkpt>
<trkpt lat="42.179968" lon="23.584883"><ele>2912.9</ele><time>2026-04-05T10:31:03.000Z</time></trkpt>
<trkpt lat="42.179963" lon="23.584883"><ele>2913.3</ele><time>2026-04-05T10:31:04.000Z</time></trkpt>
<trkpt lat="42.179958" lon="23.584883"><ele>2913.3</ele><time>2026-04-05T10:31:05.000Z</time></trkpt>
<trkpt lat="42.179953" lon="23.584883"><ele>2913.3</ele><time>2026-04-05T10:31:06.000Z</time></trkpt>
<trkpt lat="42.179947" lon="23.584883"><ele>2913.3</ele><time>2026-04-05T10:31:07.000Z</time></trkpt>
<trkpt lat="42.179943" lon="23.584883"><ele>2913.3</ele><time>2026-04-05T10:31:08.000Z</time></trkpt>
<trkpt lat="42.179938" lon="23.584883"><ele>2913.9</ele><time>2026-04-05T10:31:09.000Z</time></trkpt>
<trkpt lat="42.179933" lon="23.584883"><ele>2913.9</ele><time>2026-04-05T10:31:10.000Z</time></trkpt>
<trkpt lat="42.17993" lon="23.584881"><ele>2913.9</ele><time>2026-04-05T10:31:11.000Z</time></trkpt>
<trkpt lat="42.179927" lon="23.58488"><ele>2913.9</ele><time>2026-04-05T10:31:12.000Z</time></trkpt>
<trkpt lat="42.179924" lon="23.584879"><ele>2913.9</ele><time>2026-04-05T10:31:13.000Z</time></trkpt>
<trkpt lat="42.17992" lon="23.584878"><ele>2914.6</ele><time>2026-04-05T10:31:14.000Z</time></trkpt>
<trkpt lat="42.179915" lon="23.584878"><ele>2914.6</ele><time>2026-04-05T10:31:15.000Z</time></trkpt>
<trkpt lat="42.17991" lon="23.584878"><ele>2914.6</ele><time>2026-04-05T10:31:16.000Z</time></trkpt>
<trkpt lat="42.179905" lon="23.584877"><ele>2914.6</ele><time>2026-04-05T10:31:17.000Z</time></trkpt>
<trkpt lat="42.179899" lon="23.584875"><ele>2914.6</ele><time>2026-04-05T10:31:18.000Z</time></trkpt>
<trkpt lat="42.179893" lon="23.584874"><ele>2915</ele><time>2026-04-05T10:31:19.000Z</time></trkpt>
<trkpt lat="42.179889" lon="23.584875"><ele>2915</ele><time>2026-04-05T10:31:20.000Z</time></trkpt>
<trkpt lat="42.179883" lon="23.584875"><ele>2915</ele><time>2026-04-05T10:31:21.000Z</time></trkpt>
<trkpt lat="42.179877" lon="23.584876"><ele>2915</ele><time>2026-04-05T10:31:22.000Z</time></trkpt>
<trkpt lat="42.179873" lon="23.584876"><ele>2915</ele><time>2026-04-05T10:31:23.000Z</time></trkpt>
<trkpt lat="42.17987" lon="23.584877"><ele>2915.9</ele><time>2026-04-05T10:31:24.000Z</time></trkpt>
<trkpt lat="42.179867" lon="23.584878"><ele>2915.9</ele><time>2026-04-05T10:31:25.000Z</time></trkpt>
<trkpt lat="42.179864" lon="23.584879"><ele>2915.9</ele><time>2026-04-05T10:31:26.000Z</time></trkpt>
<trkpt lat="42.179861" lon="23.58488"><ele>2915.9</ele><time>2026-04-05T10:31:27.000Z</time></trkpt>
<trkpt lat="42.179856" lon="23.584883"><ele>2915.9</ele><time>2026-04-05T10:31:28.000Z</time></trkpt>
<trkpt lat="42.17985" lon="23.584884"><ele>2916.7</ele><time>2026-04-05T10:31:29.000Z</time></trkpt>
<trkpt lat="42.179843" lon="23.584886"><ele>2916.7</ele><time>2026-04-05T10:31:30.000Z</time></trkpt>
<trkpt lat="42.179836" lon="23.584888"><ele>2916.7</ele><time>2026-04-05T10:31:31.000Z</time></trkpt>
<trkpt lat="42.179829" lon="23.584892"><ele>2916.7</ele><time>2026-04-05T10:31:32.000Z</time></trkpt>
<trkpt lat="42.179823" lon="23.584894"><ele>2916.7</ele><time>2026-04-05T10:31:33.000Z</time></trkpt>
<trkpt lat="42.179817" lon="23.584896"><ele>2917</ele><time>2026-04-05T10:31:34.000Z</time></trkpt>
<trkpt lat="42.179811" lon="23.584898"><ele>2917</ele><time>2026-04-05T10:31:35.000Z</time></trkpt>
<trkpt lat="42.179805" lon="23.584899"><ele>2917</ele><time>2026-04-05T10:31:36.000Z</time></trkpt>
<trkpt lat="42.179799" lon="23.584901"><ele>2917</ele><time>2026-04-05T10:31:37.000Z</time></trkpt>
<trkpt lat="42.179791" lon="23.584904"><ele>2917</ele><time>2026-04-05T10:31:38.000Z</time></trkpt>
<trkpt lat="42.179784" lon="23.584907"><ele>2917.8</ele><time>2026-04-05T10:31:39.000Z</time></trkpt>
<trkpt lat="42.179778" lon="23.584909"><ele>2917.8</ele><time>2026-04-05T10:31:40.000Z</time></trkpt>
<trkpt lat="42.179772" lon="23.584912"><ele>2917.8</ele><time>2026-04-05T10:31:41.000Z</time></trkpt>
<trkpt lat="42.179767" lon="23.584915"><ele>2917.8</ele><time>2026-04-05T10:31:42.000Z</time></trkpt>
<trkpt lat="42.179762" lon="23.584916"><ele>2917.8</ele><time>2026-04-05T10:31:43.000Z</time></trkpt>
<trkpt lat="42.179757" lon="23.584918"><ele>2919</ele><time>2026-04-05T10:31:44.000Z</time></trkpt>
<trkpt lat="42.179751" lon="23.584919"><ele>2919</ele><time>2026-04-05T10:31:45.000Z</time></trkpt>
<trkpt lat="42.179745" lon="23.58492"><ele>2919</ele><time>2026-04-05T10:31:46.000Z</time></trkpt>
<trkpt lat="42.179739" lon="23.584922"><ele>2919</ele><time>2026-04-05T10:31:47.000Z</time></trkpt>
<trkpt lat="42.179733" lon="23.584924"><ele>2919</ele><time>2026-04-05T10:31:48.000Z</time></trkpt>
<trkpt lat="42.179727" lon="23.584926"><ele>2919.6</ele><time>2026-04-05T10:31:49.000Z</time></trkpt>
<trkpt lat="42.179721" lon="23.584929"><ele>2919.6</ele><time>2026-04-05T10:31:50.000Z</time></trkpt>
<trkpt lat="42.179716" lon="23.584933"><ele>2919.6</ele><time>2026-04-05T10:31:51.000Z</time></trkpt>
<trkpt lat="42.179709" lon="23.584938"><ele>2919.6</ele><time>2026-04-05T10:31:52.000Z</time></trkpt>
<trkpt lat="42.179702" lon="23.584944"><ele>2919.6</ele><time>2026-04-05T10:31:53.000Z</time></trkpt>
<trkpt lat="42.179696" lon="23.58495"><ele>2920.8</ele><time>2026-04-05T10:31:54.000Z</time></trkpt>
<trkpt lat="42.17969" lon="23.584955"><ele>2920.8</ele><time>2026-04-05T10:31:55.000Z</time></trkpt>
<trkpt lat="42.179684" lon="23.584961"><ele>2920.8</ele><time>2026-04-05T10:31:56.000Z</time></trkpt>
<trkpt lat="42.179678" lon="23.584965"><ele>2920.8</ele><time>2026-04-05T10:31:57.000Z</time></trkpt>
<trkpt lat="42.179673" lon="23.584969"><ele>2920.8</ele><time>2026-04-05T10:31:58.000Z</time></trkpt>
<trkpt lat="42.179668" lon="23.584972"><ele>2921.9</ele><time>2026-04-05T10:31:59.000Z</time></trkpt>
<trkpt lat="42.179663" lon="23.584974"><ele>2921.9</ele><time>2026-04-05T10:32:00.000Z</time></trkpt>
<trkpt lat="42.179659" lon="23.584975"><ele>2921.9</ele><time>2026-04-05T10:32:01.000Z</time></trkpt>
<trkpt lat="42.179655" lon="23.584977"><ele>2921.9</ele><time>2026-04-05T10:32:02.000Z</time></trkpt>
<trkpt lat="42.179652" lon="23.584979"><ele>2921.9</ele><time>2026-04-05T10:32:03.000Z</time></trkpt>
<trkpt lat="42.179649" lon="23.584982"><ele>2922.4</ele><time>2026-04-05T10:32:04.000Z</time></trkpt>
<trkpt lat="42.179646" lon="23.584984"><ele>2922.4</ele><time>2026-04-05T10:32:05.000Z</time></trkpt>
<trkpt lat="42.179645" lon="23.584987"><ele>2922.4</ele><time>2026-04-05T10:32:06.000Z</time></trkpt>
<trkpt lat="42.179643" lon="23.584989"><ele>2922.4</ele><time>2026-04-05T10:32:07.000Z</time></trkpt>
<trkpt lat="42.179643" lon="23.58499"><ele>2922.4</ele><time>2026-04-05T10:32:08.000Z</time></trkpt>
<trkpt lat="42.179643" lon="23.584991"><ele>2923.6</ele><time>2026-04-05T10:32:09.000Z</time></trkpt>
<trkpt lat="42.179643" lon="23.584992"><ele>2923.6</ele><time>2026-04-05T10:32:10.000Z</time></trkpt>
<trkpt lat="42.179642" lon="23.584993"><ele>2923.6</ele><time>2026-04-05T10:32:11.000Z</time></trkpt>
<trkpt lat="42.17964" lon="23.584995"><ele>2923.6</ele><time>2026-04-05T10:32:12.000Z</time></trkpt>
<trkpt lat="42.179637" lon="23.584997"><ele>2923.6</ele><time>2026-04-05T10:32:13.000Z</time></trkpt>
<trkpt lat="42.179633" lon="23.584998"><ele>2924.7</ele><time>2026-04-05T10:32:14.000Z</time></trkpt>
<trkpt lat="42.179629" lon="23.585"><ele>2924.7</ele><time>2026-04-05T10:32:15.000Z</time></trkpt>
<trkpt lat="42.179624" lon="23.585001"><ele>2924.7</ele><time>2026-04-05T10:32:16.000Z</time></trkpt>
<trkpt lat="42.179618" lon="23.585002"><ele>2924.7</ele><time>2026-04-05T10:32:17.000Z</time></trkpt>
<trkpt lat="42.179612" lon="23.585004"><ele>2924.7</ele><time>2026-04-05T10:32:18.000Z</time></trkpt>
<trkpt lat="42.179606" lon="23.585005"><ele>2925</ele><time>2026-04-05T10:32:19.000Z</time></trkpt>
<trkpt lat="42.179599" lon="23.585006"><ele>2925</ele><time>2026-04-05T10:32:20.000Z</time></trkpt>
<trkpt lat="42.179594" lon="23.585008"><ele>2925</ele><time>2026-04-05T10:32:21.000Z</time></trkpt>
<trkpt lat="42.179589" lon="23.58501"><ele>2925</ele><time>2026-04-05T10:32:22.000Z</time></trkpt>
<trkpt lat="42.179583" lon="23.585012"><ele>2925</ele><time>2026-04-05T10:32:23.000Z</time></trkpt>
<trkpt lat="42.179578" lon="23.585014"><ele>2925.6</ele><time>2026-04-05T10:32:24.000Z</time></trkpt>
<trkpt lat="42.179574" lon="23.585016"><ele>2925.6</ele><time>2026-04-05T10:32:25.000Z</time></trkpt>
<trkpt lat="42.179568" lon="23.585019"><ele>2925.6</ele><time>2026-04-05T10:32:26.000Z</time></trkpt>
<trkpt lat="42.179561" lon="23.585022"><ele>2925.6</ele><time>2026-04-05T10:32:27.000Z</time></trkpt>
<trkpt lat="42.179555" lon="23.585025"><ele>2925.6</ele><time>2026-04-05T10:32:28.000Z</time></trkpt>
<trkpt lat="42.179548" lon="23.585029"><ele>2926.3</ele><time>2026-04-05T10:32:29.000Z</time></trkpt>
<trkpt lat="42.17954" lon="23.585034"><ele>2926.3</ele><time>2026-04-05T10:32:30.000Z</time></trkpt>
<trkpt lat="42.179532" lon="23.585039"><ele>2926.3</ele><time>2026-04-05T10:32:31.000Z</time></trkpt>
<trkpt lat="42.179525" lon="23.585042"><ele>2926.3</ele><time>2026-04-05T10:32:32.000Z</time></trkpt>
<trkpt lat="42.179518" lon="23.585045"><ele>2926.3</ele><time>2026-04-05T10:32:33.000Z</time></trkpt>
<trkpt lat="42.179511" lon="23.585047"><ele>2926.9</ele><time>2026-04-05T10:32:34.000Z</time></trkpt>
<trkpt lat="42.179504" lon="23.585048"><ele>2926.9</ele><time>2026-04-05T10:32:35.000Z</time></trkpt>
<trkpt lat="42.179498" lon="23.58505"><ele>2926.9</ele><time>2026-04-05T10:32:36.000Z</time></trkpt>
<trkpt lat="42.179491" lon="23.585052"><ele>2926.9</ele><time>2026-04-05T10:32:37.000Z</time></trkpt>
<trkpt lat="42.179485" lon="23.585054"><ele>2926.9</ele><time>2026-04-05T10:32:38.000Z</time></trkpt>
<trkpt lat="42.179479" lon="23.585056"><ele>2928.2</ele><time>2026-04-05T10:32:39.000Z</time></trkpt>
<trkpt lat="42.179473" lon="23.585059"><ele>2928.2</ele><time>2026-04-05T10:32:40.000Z</time></trkpt>
<trkpt lat="42.179468" lon="23.585061"><ele>2928.2</ele><time>2026-04-05T10:32:41.000Z</time></trkpt>
<trkpt lat="42.179463" lon="23.585063"><ele>2928.2</ele><time>2026-04-05T10:32:42.000Z</time></trkpt>
<trkpt lat="42.179457" lon="23.585064"><ele>2928.2</ele><time>2026-04-05T10:32:43.000Z</time></trkpt>
<trkpt lat="42.179451" lon="23.585065"><ele>2929.6</ele><time>2026-04-05T10:32:44.000Z</time></trkpt>
<trkpt lat="42.179445" lon="23.585066"><ele>2929.6</ele><time>2026-04-05T10:32:45.000Z</time></trkpt>
<trkpt lat="42.179438" lon="23.585066"><ele>2929.6</ele><time>2026-04-05T10:32:46.000Z</time></trkpt>
<trkpt lat="42.179431" lon="23.585066"><ele>2929.6</ele><time>2026-04-05T10:32:47.000Z</time></trkpt>
<trkpt lat="42.179424" lon="23.585068"><ele>2929.6</ele><time>2026-04-05T10:32:48.000Z</time></trkpt>
<trkpt lat="42.179417" lon="23.58507"><ele>2930.3</ele><time>2026-04-05T10:32:49.000Z</time></trkpt>
<trkpt lat="42.179411" lon="23.585073"><ele>2930.3</ele><time>2026-04-05T10:32:50.000Z</time></trkpt>
<trkpt lat="42.179407" lon="23.585078"><ele>2930.3</ele><time>2026-04-05T10:32:51.000Z</time></trkpt>
<trkpt lat="42.179403" lon="23.585086"><ele>2930.3</ele><time>2026-04-05T10:32:52.000Z</time></trkpt>
<trkpt lat="42.179399" lon="23.585096"><ele>2930.3</ele><time>2026-04-05T10:32:53.000Z</time></trkpt>
<trkpt lat="42.179396" lon="23.585106"><ele>2931.5</ele><time>2026-04-05T10:32:54.000Z</time></trkpt>
<trkpt lat="42.179392" lon="23.585118"><ele>2931.5</ele><time>2026-04-05T10:32:55.000Z</time></trkpt>
<trkpt lat="42.179388" lon="23.585128"><ele>2931.5</ele><time>2026-04-05T10:32:56.000Z</time></trkpt>
<trkpt lat="42.179383" lon="23.585136"><ele>2931.5</ele><time>2026-04-05T10:32:57.000Z</time></trkpt>
<trkpt lat="42.179378" lon="23.585142"><ele>2931.5</ele><time>2026-04-05T10:32:58.000Z</time></trkpt>
<trkpt lat="42.179372" lon="23.585146"><ele>2932.1</ele><time>2026-04-05T10:32:59.000Z</time></trkpt>
<trkpt lat="42.179368" lon="23.585148"><ele>2932.1</ele><time>2026-04-05T10:33:00.000Z</time></trkpt>
<trkpt lat="42.179362" lon="23.585151"><ele>2932.1</ele><time>2026-04-05T10:33:01.000Z</time></trkpt>
<trkpt lat="42.179357" lon="23.585153"><ele>2932.1</ele><time>2026-04-05T10:33:02.000Z</time></trkpt>
<trkpt lat="42.179353" lon="23.585156"><ele>2932.1</ele><time>2026-04-05T10:33:03.000Z</time></trkpt>
<trkpt lat="42.17935" lon="23.585159"><ele>2932.3</ele><time>2026-04-05T10:33:04.000Z</time></trkpt>
<trkpt lat="42.179346" lon="23.585163"><ele>2932.3</ele><time>2026-04-05T10:33:05.000Z</time></trkpt>
<trkpt lat="42.179343" lon="23.585169"><ele>2932.3</ele><time>2026-04-05T10:33:06.000Z</time></trkpt>
<trkpt lat="42.179339" lon="23.585174"><ele>2932.3</ele><time>2026-04-05T10:33:07.000Z</time></trkpt>
<trkpt lat="42.179337" lon="23.585178"><ele>2932.3</ele><time>2026-04-05T10:33:08.000Z</time></trkpt>
<trkpt lat="42.179335" lon="23.585181"><ele>2932.7</ele><time>2026-04-05T10:33:09.000Z</time></trkpt>
<trkpt lat="42.179333" lon="23.585183"><ele>2932.7</ele><time>2026-04-05T10:33:10.000Z</time></trkpt>
<trkpt lat="42.179332" lon="23.585183"><ele>2932.7</ele><time>2026-04-05T10:33:11.000Z</time></trkpt>
<trkpt lat="42.179332" lon="23.585183"><ele>2932.7</ele><time>2026-04-05T10:33:12.000Z</time></trkpt>
<trkpt lat="42.179331" lon="23.585183"><ele>2932.7</ele><time>2026-04-05T10:33:13.000Z</time></trkpt>
<trkpt lat="42.179331" lon="23.585183"><ele>2933.7</ele><time>2026-04-05T10:33:14.000Z</time></trkpt>
<trkpt lat="42.179331" lon="23.585183"><ele>2933.7</ele><time>2026-04-05T10:33:15.000Z</time></trkpt>
<trkpt lat="42.17933" lon="23.585182"><ele>2933.7</ele><time>2026-04-05T10:33:16.000Z</time></trkpt>
<trkpt lat="42.179329" lon="23.585183"><ele>2933.7</ele><time>2026-04-05T10:33:17.000Z</time></trkpt>
<trkpt lat="42.179327" lon="23.585184"><ele>2933.7</ele><time>2026-04-05T10:33:18.000Z</time></trkpt>
<trkpt lat="42.179326" lon="23.585184"><ele>2934.3</ele><time>2026-04-05T10:33:19.000Z</time></trkpt>
<trkpt lat="42.179324" lon="23.585185"><ele>2934.3</ele><time>2026-04-05T10:33:20.000Z</time></trkpt>
<trkpt lat="42.179324" lon="23.585185"><ele>2934.3</ele><time>2026-04-05T10:33:21.000Z</time></trkpt>
<trkpt lat="42.179325" lon="23.585185"><ele>2934.3</ele><time>2026-04-05T10:33:22.000Z</time></trkpt>
<trkpt lat="42.179325" lon="23.585184"><ele>2934.3</ele><time>2026-04-05T10:33:23.000Z</time></trkpt>
<trkpt lat="42.179326" lon="23.585184"><ele>2935.4</ele><time>2026-04-05T10:33:24.000Z</time></trkpt>
<trkpt lat="42.179326" lon="23.585183"><ele>2935.4</ele><time>2026-04-05T10:33:25.000Z</time></trkpt>
<trkpt lat="42.179326" lon="23.585183"><ele>2935.4</ele><time>2026-04-05T10:33:26.000Z</time></trkpt>
<trkpt lat="42.179326" lon="23.585183"><ele>2935.4</ele><time>2026-04-05T10:33:27.000Z</time></trkpt>
<trkpt lat="42.179326" lon="23.585184"><ele>2935.4</ele><time>2026-04-05T10:33:28.000Z</time></trkpt>
<trkpt lat="42.179327" lon="23.585185"><ele>2935.8</ele><time>2026-04-05T10:33:29.000Z</time></trkpt>
<trkpt lat="42.179327" lon="23.585186"><ele>2935.8</ele><time>2026-04-05T10:33:30.000Z</time></trkpt>
<trkpt lat="42.179328" lon="23.585186"><ele>2935.8</ele><time>2026-04-05T10:33:31.000Z</time></trkpt>
<trkpt lat="42.179328" lon="23.585187"><ele>2935.8</ele><time>2026-04-05T10:33:32.000Z</time></trkpt>
<trkpt lat="42.179328" lon="23.585187"><ele>2935.8</ele><time>2026-04-05T10:33:33.000Z</time></trkpt>
<trkpt lat="42.179328" lon="23.585188"><ele>2935.8</ele><time>2026-04-05T10:33:34.000Z</time></trkpt>
<trkpt lat="42.179328" lon="23.585188"><ele>2935.8</ele><time>2026-04-05T10:33:35.000Z</time></trkpt>
<trkpt lat="42.179328" lon="23.585188"><ele>2935.8</ele><time>2026-04-05T10:33:36.000Z</time></trkpt>
<trkpt lat="42.179328" lon="23.585188"><ele>2935.8</ele><time>2026-04-05T10:33:37.000Z</time></trkpt>
<trkpt lat="42.179328" lon="23.585188"><ele>2935.8</ele><time>2026-04-05T10:33:38.000Z</time></trkpt>
<trkpt lat="42.179328" lon="23.58519"><ele>2935.7</ele><time>2026-04-05T10:33:39.000Z</time></trkpt>
<trkpt lat="42.179328" lon="23.585192"><ele>2935.7</ele><time>2026-04-05T10:33:40.000Z</time></trkpt>
<trkpt lat="42.179328" lon="23.585195"><ele>2935.7</ele><time>2026-04-05T10:33:41.000Z</time></trkpt>
<trkpt lat="42.179328" lon="23.585198"><ele>2935.7</ele><time>2026-04-05T10:33:42.000Z</time></trkpt>
<trkpt lat="42.179328" lon="23.5852"><ele>2935.7</ele><time>2026-04-05T10:33:43.000Z</time></trkpt>
<trkpt lat="42.179328" lon="23.585203"><ele>2935.9</ele><time>2026-04-05T10:33:44.000Z</time></trkpt>
<trkpt lat="42.179328" lon="23.585206"><ele>2935.9</ele><time>2026-04-05T10:33:45.000Z</time></trkpt>
<trkpt lat="42.179329" lon="23.585209"><ele>2935.9</ele><time>2026-04-05T10:33:46.000Z</time></trkpt>
<trkpt lat="42.17933" lon="23.585213"><ele>2935.9</ele><time>2026-04-05T10:33:47.000Z</time></trkpt>
<trkpt lat="42.179331" lon="23.585218"><ele>2935.9</ele><time>2026-04-05T10:33:48.000Z</time></trkpt>
<trkpt lat="42.179332" lon="23.585222"><ele>2936</ele><time>2026-04-05T10:33:49.000Z</time></trkpt>
<trkpt lat="42.179333" lon="23.585226"><ele>2936</ele><time>2026-04-05T10:33:50.000Z</time></trkpt>
<trkpt lat="42.179333" lon="23.585228"><ele>2936</ele><time>2026-04-05T10:33:51.000Z</time></trkpt>
<trkpt lat="42.179334" lon="23.58523"><ele>2936</ele><time>2026-04-05T10:33:52.000Z</time></trkpt>
<trkpt lat="42.179336" lon="23.58523"><ele>2936</ele><time>2026-04-05T10:33:53.000Z</time></trkpt>
<trkpt lat="42.179336" lon="23.585232"><ele>2936.2</ele><time>2026-04-05T10:33:54.000Z</time></trkpt>
<trkpt lat="42.179337" lon="23.585233"><ele>2936.2</ele><time>2026-04-05T10:33:55.000Z</time></trkpt>
<trkpt lat="42.179338" lon="23.585234"><ele>2936.2</ele><time>2026-04-05T10:33:56.000Z</time></trkpt>
<trkpt lat="42.179338" lon="23.585237"><ele>2936.2</ele><time>2026-04-05T10:33:57.000Z</time></trkpt>
<trkpt lat="42.179337" lon="23.58524"><ele>2936.2</ele><time>2026-04-05T10:33:58.000Z</time></trkpt>
<trkpt lat="42.179337" lon="23.585241"><ele>2936</ele><time>2026-04-05T10:33:59.000Z</time></trkpt>
<trkpt lat="42.179336" lon="23.585242"><ele>2936</ele><time>2026-04-05T10:34:00.000Z</time></trkpt>
<trkpt lat="42.179332" lon="23.585245"><ele>2936</ele><time>2026-04-05T10:34:01.000Z</time></trkpt>
<trkpt lat="42.179329" lon="23.585246"><ele>2936</ele><time>2026-04-05T10:34:02.000Z</time></trkpt>
<trkpt lat="42.179325" lon="23.585246"><ele>2936</ele><time>2026-04-05T10:34:03.000Z</time></trkpt>
<trkpt lat="42.17932" lon="23.585245"><ele>2935.8</ele><time>2026-04-05T10:34:04.000Z</time></trkpt>
<trkpt lat="42.179315" lon="23.585242"><ele>2935.8</ele><time>2026-04-05T10:34:05.000Z</time></trkpt>
<trkpt lat="42.17931" lon="23.585238"><ele>2935.8</ele><time>2026-04-05T10:34:06.000Z</time></trkpt>
<trkpt lat="42.179305" lon="23.585234"><ele>2935.8</ele><time>2026-04-05T10:34:07.000Z</time></trkpt>
<trkpt lat="42.1793" lon="23.585229"><ele>2935.8</ele><time>2026-04-05T10:34:08.000Z</time></trkpt>
<trkpt lat="42.179294" lon="23.585224"><ele>2935.5</ele><time>2026-04-05T10:34:09.000Z</time></trkpt>
<trkpt lat="42.179289" lon="23.585218"><ele>2935.5</ele><time>2026-04-05T10:34:10.000Z</time></trkpt>
<trkpt lat="42.179283" lon="23.585211"><ele>2935.5</ele><time>2026-04-05T10:34:11.000Z</time></trkpt>
<trkpt lat="42.179277" lon="23.585203"><ele>2935.5</ele><time>2026-04-05T10:34:12.000Z</time></trkpt>
<trkpt lat="42.179272" lon="23.585195"><ele>2935.5</ele><time>2026-04-05T10:34:13.000Z</time></trkpt>
<trkpt lat="42.179268" lon="23.585187"><ele>2935.2</ele><time>2026-04-05T10:34:14.000Z</time></trkpt>
<trkpt lat="42.179263" lon="23.585181"><ele>2935.2</ele><time>2026-04-05T10:34:15.000Z</time></trkpt>
<trkpt lat="42.179258" lon="23.585175"><ele>2935.2</ele><time>2026-04-05T10:34:16.000Z</time></trkpt>
<trkpt lat="42.179254" lon="23.585171"><ele>2935.2</ele><time>2026-04-05T10:34:17.000Z</time></trkpt>
<trkpt lat="42.179251" lon="23.585169"><ele>2935.2</ele><time>2026-04-05T10:34:18.000Z</time></trkpt>
<trkpt lat="42.179248" lon="23.585168"><ele>2935</ele><time>2026-04-05T10:34:19.000Z</time></trkpt>
<trkpt lat="42.179245" lon="23.585168"><ele>2935</ele><time>2026-04-05T10:34:20.000Z</time></trkpt>
<trkpt lat="42.179244" lon="23.585168"><ele>2935</ele><time>2026-04-05T10:34:21.000Z</time></trkpt>
<trkpt lat="42.179243" lon="23.585169"><ele>2935</ele><time>2026-04-05T10:34:22.000Z</time></trkpt>
<trkpt lat="42.179243" lon="23.585169"><ele>2935</ele><time>2026-04-05T10:34:23.000Z</time></trkpt>
<trkpt lat="42.179242" lon="23.585169"><ele>2934.6</ele><time>2026-04-05T10:34:24.000Z</time></trkpt>
<trkpt lat="42.179243" lon="23.585169"><ele>2934.6</ele><time>2026-04-05T10:34:25.000Z</time></trkpt>
<trkpt lat="42.179243" lon="23.585169"><ele>2934.6</ele><time>2026-04-05T10:34:26.000Z</time></trkpt>
<trkpt lat="42.179243" lon="23.585168"><ele>2934.6</ele><time>2026-04-05T10:34:27.000Z</time></trkpt>
<trkpt lat="42.179243" lon="23.585168"><ele>2934.6</ele><time>2026-04-05T10:34:28.000Z</time></trkpt>
<trkpt lat="42.179243" lon="23.585168"><ele>2934.3</ele><time>2026-04-05T10:34:29.000Z</time></trkpt>
<trkpt lat="42.179243" lon="23.585167"><ele>2934.3</ele><time>2026-04-05T10:34:30.000Z</time></trkpt>
<trkpt lat="42.179243" lon="23.585167"><ele>2934.3</ele><time>2026-04-05T10:34:31.000Z</time></trkpt>
<trkpt lat="42.179243" lon="23.585168"><ele>2934.3</ele><time>2026-04-05T10:34:32.000Z</time></trkpt>
<trkpt lat="42.179243" lon="23.585167"><ele>2934.3</ele><time>2026-04-05T10:34:33.000Z</time></trkpt>
<trkpt lat="42.179244" lon="23.585167"><ele>2934.2</ele><time>2026-04-05T10:34:34.000Z</time></trkpt>
<trkpt lat="42.179244" lon="23.585167"><ele>2934.2</ele><time>2026-04-05T10:34:35.000Z</time></trkpt>
<trkpt lat="42.179244" lon="23.585167"><ele>2934.2</ele><time>2026-04-05T10:34:36.000Z</time></trkpt>
<trkpt lat="42.179245" lon="23.585166"><ele>2934.2</ele><time>2026-04-05T10:34:37.000Z</time></trkpt>
<trkpt lat="42.179245" lon="23.585167"><ele>2934.2</ele><time>2026-04-05T10:34:38.000Z</time></trkpt>
<trkpt lat="42.179247" lon="23.585167"><ele>2934.1</ele><time>2026-04-05T10:34:39.000Z</time></trkpt>
<trkpt lat="42.179248" lon="23.585167"><ele>2934.1</ele><time>2026-04-05T10:34:40.000Z</time></trkpt>
<trkpt lat="42.179248" lon="23.585166"><ele>2934.1</ele><time>2026-04-05T10:34:41.000Z</time></trkpt>
<trkpt lat="42.179249" lon="23.585166"><ele>2934.1</ele><time>2026-04-05T10:34:42.000Z</time></trkpt>
<trkpt lat="42.179249" lon="23.585166"><ele>2934.1</ele><time>2026-04-05T10:34:43.000Z</time></trkpt>
<trkpt lat="42.179249" lon="23.585165"><ele>2934</ele><time>2026-04-05T10:34:44.000Z</time></trkpt>
<trkpt lat="42.179249" lon="23.585165"><ele>2934</ele><time>2026-04-05T10:34:45.000Z</time></trkpt>
<trkpt lat="42.179248" lon="23.585164"><ele>2934</ele><time>2026-04-05T10:34:46.000Z</time></trkpt>
<trkpt lat="42.179248" lon="23.585165"><ele>2934</ele><time>2026-04-05T10:34:47.000Z</time></trkpt>
<trkpt lat="42.179248" lon="23.585165"><ele>2934</ele><time>2026-04-05T10:34:48.000Z</time></trkpt>
<trkpt lat="42.179248" lon="23.585165"><ele>2934</ele><time>2026-04-05T10:34:49.000Z</time></trkpt>
<trkpt lat="42.179247" lon="23.585165"><ele>2934</ele><time>2026-04-05T10:34:50.000Z</time></trkpt>
<trkpt lat="42.179245" lon="23.585165"><ele>2934</ele><time>2026-04-05T10:34:51.000Z</time></trkpt>
<trkpt lat="42.179243" lon="23.585163"><ele>2934</ele><time>2026-04-05T10:34:52.000Z</time></trkpt>
<trkpt lat="42.179242" lon="23.585161"><ele>2934</ele><time>2026-04-05T10:34:53.000Z</time></trkpt>
<trkpt lat="42.179241" lon="23.585159"><ele>2934</ele><time>2026-04-05T10:34:54.000Z</time></trkpt>
<trkpt lat="42.179241" lon="23.585156"><ele>2934</ele><time>2026-04-05T10:34:55.000Z</time></trkpt>
<trkpt lat="42.179241" lon="23.585155"><ele>2934</ele><time>2026-04-05T10:34:56.000Z</time></trkpt>
<trkpt lat="42.179241" lon="23.585156"><ele>2934</ele><time>2026-04-05T10:34:57.000Z</time></trkpt>
<trkpt lat="42.17924" lon="23.585156"><ele>2934</ele><time>2026-04-05T10:34:58.000Z</time></trkpt>
<trkpt lat="42.179239" lon="23.585157"><ele>2934.1</ele><time>2026-04-05T10:34:59.000Z</time></trkpt>
<trkpt lat="42.179238" lon="23.585159"><ele>2934.1</ele><time>2026-04-05T10:35:00.000Z</time></trkpt>
<trkpt lat="42.179238" lon="23.58516"><ele>2934.1</ele><time>2026-04-05T10:35:01.000Z</time></trkpt>
<trkpt lat="42.179237" lon="23.58516"><ele>2934.1</ele><time>2026-04-05T10:35:02.000Z</time></trkpt>
<trkpt lat="42.179237" lon="23.585161"><ele>2934.1</ele><time>2026-04-05T10:35:03.000Z</time></trkpt>
<trkpt lat="42.179237" lon="23.585161"><ele>2934.1</ele><time>2026-04-05T10:35:04.000Z</time></trkpt>
<trkpt lat="42.179237" lon="23.585161"><ele>2934.1</ele><time>2026-04-05T10:35:05.000Z</time></trkpt>
<trkpt lat="42.179237" lon="23.585161"><ele>2934.1</ele><time>2026-04-05T10:35:06.000Z</time></trkpt>
<trkpt lat="42.179237" lon="23.585161"><ele>2934.1</ele><time>2026-04-05T10:35:07.000Z</time></trkpt>
<trkpt lat="42.179237" lon="23.585161"><ele>2934.1</ele><time>2026-04-05T10:35:08.000Z</time></trkpt>
<trkpt lat="42.179237" lon="23.585161"><ele>2933.9</ele><time>2026-04-05T10:35:09.000Z</time></trkpt>
<trkpt lat="42.179237" lon="23.585161"><ele>2933.9</ele><time>2026-04-05T10:35:10.000Z</time></trkpt>
<trkpt lat="42.179237" lon="23.585161"><ele>2933.9</ele><time>2026-04-05T10:35:11.000Z</time></trkpt>
<trkpt lat="42.179237" lon="23.585161"><ele>2933.9</ele><time>2026-04-05T10:35:12.000Z</time></trkpt>
<trkpt lat="42.179237" lon="23.585161"><ele>2933.9</ele><time>2026-04-05T10:35:13.000Z</time></trkpt>
<trkpt lat="42.179237" lon="23.585161"><ele>2933.8</ele><time>2026-04-05T10:35:14.000Z</time></trkpt>
<trkpt lat="42.179237" lon="23.585161"><ele>2933.8</ele><time>2026-04-05T10:35:15.000Z</time></trkpt>
<trkpt lat="42.179237" lon="23.585161"><ele>2933.8</ele><time>2026-04-05T10:35:16.000Z</time></trkpt>
<trkpt lat="42.179236" lon="23.585161"><ele>2933.8</ele><time>2026-04-05T10:35:17.000Z</time></trkpt>
<trkpt lat="42.179236" lon="23.585161"><ele>2933.8</ele><time>2026-04-05T10:35:18.000Z</time></trkpt>
<trkpt lat="42.179234" lon="23.585162"><ele>2933.7</ele><time>2026-04-05T10:35:19.000Z</time></trkpt>
<trkpt lat="42.17923" lon="23.585164"><ele>2933.7</ele><time>2026-04-05T10:35:20.000Z</time></trkpt>
<trkpt lat="42.179225" lon="23.585166"><ele>2933.7</ele><time>2026-04-05T10:35:21.000Z</time></trkpt>
<trkpt lat="42.179218" lon="23.585166"><ele>2933.7</ele><time>2026-04-05T10:35:22.000Z</time></trkpt>
<trkpt lat="42.179211" lon="23.585168"><ele>2933.7</ele><time>2026-04-05T10:35:23.000Z</time></trkpt>
<trkpt lat="42.179206" lon="23.585169"><ele>2933.7</ele><time>2026-04-05T10:35:24.000Z</time></trkpt>
<trkpt lat="42.179202" lon="23.58517"><ele>2933.7</ele><time>2026-04-05T10:35:25.000Z</time></trkpt>
<trkpt lat="42.179199" lon="23.585172"><ele>2933.7</ele><time>2026-04-05T10:35:26.000Z</time></trkpt>
<trkpt lat="42.179197" lon="23.585175"><ele>2933.7</ele><time>2026-04-05T10:35:27.000Z</time></trkpt>
<trkpt lat="42.179197" lon="23.585177"><ele>2933.7</ele><time>2026-04-05T10:35:28.000Z</time></trkpt>
<trkpt lat="42.179197" lon="23.585179"><ele>2933.8</ele><time>2026-04-05T10:35:29.000Z</time></trkpt>
<trkpt lat="42.179197" lon="23.58518"><ele>2933.8</ele><time>2026-04-05T10:35:30.000Z</time></trkpt>
<trkpt lat="42.179197" lon="23.58518"><ele>2933.8</ele><time>2026-04-05T10:35:31.000Z</time></trkpt>
<trkpt lat="42.179196" lon="23.585181"><ele>2933.8</ele><time>2026-04-05T10:35:32.000Z</time></trkpt>
<trkpt lat="42.179193" lon="23.585181"><ele>2933.8</ele><time>2026-04-05T10:35:33.000Z</time></trkpt>
<trkpt lat="42.179188" lon="23.58518"><ele>2933.9</ele><time>2026-04-05T10:35:34.000Z</time></trkpt>
<trkpt lat="42.179182" lon="23.585178"><ele>2933.9</ele><time>2026-04-05T10:35:35.000Z</time></trkpt>
<trkpt lat="42.179176" lon="23.585175"><ele>2933.9</ele><time>2026-04-05T10:35:36.000Z</time></trkpt>
<trkpt lat="42.17917" lon="23.585172"><ele>2933.9</ele><time>2026-04-05T10:35:37.000Z</time></trkpt>
<trkpt lat="42.179165" lon="23.58517"><ele>2933.9</ele><time>2026-04-05T10:35:38.000Z</time></trkpt>
<trkpt lat="42.179162" lon="23.585167"><ele>2933.7</ele><time>2026-04-05T10:35:39.000Z</time></trkpt>
<trkpt lat="42.17916" lon="23.585165"><ele>2933.7</ele><time>2026-04-05T10:35:40.000Z</time></trkpt>
<trkpt lat="42.179159" lon="23.585163"><ele>2933.7</ele><time>2026-04-05T10:35:41.000Z</time></trkpt>
<trkpt lat="42.179159" lon="23.585162"><ele>2933.7</ele><time>2026-04-05T10:35:42.000Z</time></trkpt>
<trkpt lat="42.179159" lon="23.585161"><ele>2933.7</ele><time>2026-04-05T10:35:43.000Z</time></trkpt>
<trkpt lat="42.179159" lon="23.58516"><ele>2933.4</ele><time>2026-04-05T10:35:44.000Z</time></trkpt>
<trkpt lat="42.17916" lon="23.58516"><ele>2933.4</ele><time>2026-04-05T10:35:45.000Z</time></trkpt>
<trkpt lat="42.179161" lon="23.585161"><ele>2933.4</ele><time>2026-04-05T10:35:46.000Z</time></trkpt>
<trkpt lat="42.179162" lon="23.585162"><ele>2933.4</ele><time>2026-04-05T10:35:47.000Z</time></trkpt>
<trkpt lat="42.179163" lon="23.585162"><ele>2933.4</ele><time>2026-04-05T10:35:48.000Z</time></trkpt>
<trkpt lat="42.179163" lon="23.585162"><ele>2933.3</ele><time>2026-04-05T10:35:49.000Z</time></trkpt>
<trkpt lat="42.179163" lon="23.585163"><ele>2933.3</ele><time>2026-04-05T10:35:50.000Z</time></trkpt>
<trkpt lat="42.179163" lon="23.585164"><ele>2933.3</ele><time>2026-04-05T10:35:51.000Z</time></trkpt>
<trkpt lat="42.179163" lon="23.585165"><ele>2933.3</ele><time>2026-04-05T10:35:52.000Z</time></trkpt>
<trkpt lat="42.179163" lon="23.585166"><ele>2933.3</ele><time>2026-04-05T10:35:53.000Z</time></trkpt>
<trkpt lat="42.179163" lon="23.585167"><ele>2933.1</ele><time>2026-04-05T10:35:54.000Z</time></trkpt>
<trkpt lat="42.179163" lon="23.585167"><ele>2933.1</ele><time>2026-04-05T10:35:55.000Z</time></trkpt>
<trkpt lat="42.179163" lon="23.585166"><ele>2933.1</ele><time>2026-04-05T10:35:56.000Z</time></trkpt>
<trkpt lat="42.179163" lon="23.585166"><ele>2933.1</ele><time>2026-04-05T10:35:57.000Z</time></trkpt>
<trkpt lat="42.179162" lon="23.585166"><ele>2933.1</ele><time>2026-04-05T10:35:58.000Z</time></trkpt>
<trkpt lat="42.179161" lon="23.585166"><ele>2933.1</ele><time>2026-04-05T10:35:59.000Z</time></trkpt>
<trkpt lat="42.179161" lon="23.585166"><ele>2933.1</ele><time>2026-04-05T10:36:00.000Z</time></trkpt>
<trkpt lat="42.17916" lon="23.585167"><ele>2933.1</ele><time>2026-04-05T10:36:01.000Z</time></trkpt>
<trkpt lat="42.17916" lon="23.585167"><ele>2933.1</ele><time>2026-04-05T10:36:02.000Z</time></trkpt>
<trkpt lat="42.17916" lon="23.585167"><ele>2933.1</ele><time>2026-04-05T10:36:03.000Z</time></trkpt>
<trkpt lat="42.17916" lon="23.585168"><ele>2933.1</ele><time>2026-04-05T10:36:04.000Z</time></trkpt>
<trkpt lat="42.179159" lon="23.585168"><ele>2933.1</ele><time>2026-04-05T10:36:05.000Z</time></trkpt>
<trkpt lat="42.179159" lon="23.585168"><ele>2933.1</ele><time>2026-04-05T10:36:06.000Z</time></trkpt>
<trkpt lat="42.17916" lon="23.585169"><ele>2933.1</ele><time>2026-04-05T10:36:07.000Z</time></trkpt>
<trkpt lat="42.17916" lon="23.585169"><ele>2933.1</ele><time>2026-04-05T10:36:08.000Z</time></trkpt>
<trkpt lat="42.17916" lon="23.585169"><ele>2933.4</ele><time>2026-04-05T10:36:09.000Z</time></trkpt>
<trkpt lat="42.17916" lon="23.585169"><ele>2933.4</ele><time>2026-04-05T10:36:10.000Z</time></trkpt>
<trkpt lat="42.17916" lon="23.585169"><ele>2933.4</ele><time>2026-04-05T10:36:11.000Z</time></trkpt>
<trkpt lat="42.17916" lon="23.585168"><ele>2933.4</ele><time>2026-04-05T10:36:12.000Z</time></trkpt>
<trkpt lat="42.17916" lon="23.585168"><ele>2933.4</ele><time>2026-04-05T10:36:13.000Z</time></trkpt>
<trkpt lat="42.17916" lon="23.585168"><ele>2933.6</ele><time>2026-04-05T10:36:14.000Z</time></trkpt>
<trkpt lat="42.17916" lon="23.585168"><ele>2933.6</ele><time>2026-04-05T10:36:15.000Z</time></trkpt>
<trkpt lat="42.17916" lon="23.585168"><ele>2933.6</ele><time>2026-04-05T10:36:16.000Z</time></trkpt>
<trkpt lat="42.17916" lon="23.585169"><ele>2933.6</ele><time>2026-04-05T10:36:17.000Z</time></trkpt>
<trkpt lat="42.17916" lon="23.58517"><ele>2933.6</ele><time>2026-04-05T10:36:18.000Z</time></trkpt>
<trkpt lat="42.17916" lon="23.585171"><ele>2933.6</ele><time>2026-04-05T10:36:19.000Z</time></trkpt>
<trkpt lat="42.17916" lon="23.585172"><ele>2933.6</ele><time>2026-04-05T10:36:20.000Z</time></trkpt>
<trkpt lat="42.179159" lon="23.585172"><ele>2933.6</ele><time>2026-04-05T10:36:21.000Z</time></trkpt>
<trkpt lat="42.179159" lon="23.585172"><ele>2933.6</ele><time>2026-04-05T10:36:22.000Z</time></trkpt>
<trkpt lat="42.179159" lon="23.585173"><ele>2933.6</ele><time>2026-04-05T10:36:23.000Z</time></trkpt>
<trkpt lat="42.179159" lon="23.585173"><ele>2933.4</ele><time>2026-04-05T10:36:24.000Z</time></trkpt>
<trkpt lat="42.179159" lon="23.585173"><ele>2933.4</ele><time>2026-04-05T10:36:25.000Z</time></trkpt>
<trkpt lat="42.179159" lon="23.585173"><ele>2933.4</ele><time>2026-04-05T10:36:26.000Z</time></trkpt>
<trkpt lat="42.179159" lon="23.585173"><ele>2933.4</ele><time>2026-04-05T10:36:27.000Z</time></trkpt>
<trkpt lat="42.179159" lon="23.585173"><ele>2933.4</ele><time>2026-04-05T10:36:28.000Z</time></trkpt>
<trkpt lat="42.179159" lon="23.585173"><ele>2933.3</ele><time>2026-04-05T10:36:29.000Z</time></trkpt>
<trkpt lat="42.179159" lon="23.585173"><ele>2933.3</ele><time>2026-04-05T10:36:30.000Z</time></trkpt>
<trkpt lat="42.179161" lon="23.585173"><ele>2933.3</ele><time>2026-04-05T10:36:31.000Z</time></trkpt>
<trkpt lat="42.179165" lon="23.585173"><ele>2933.3</ele><time>2026-04-05T10:36:32.000Z</time></trkpt>
<trkpt lat="42.17917" lon="23.585175"><ele>2933.3</ele><time>2026-04-05T10:36:33.000Z</time></trkpt>
<trkpt lat="42.179175" lon="23.585177"><ele>2933.2</ele><time>2026-04-05T10:36:34.000Z</time></trkpt>
<trkpt lat="42.17918" lon="23.58518"><ele>2933.2</ele><time>2026-04-05T10:36:35.000Z</time></trkpt>
<trkpt lat="42.179183" lon="23.585183"><ele>2933.2</ele><time>2026-04-05T10:36:36.000Z</time></trkpt>
<trkpt lat="42.179184" lon="23.585185"><ele>2933.2</ele><time>2026-04-05T10:36:37.000Z</time></trkpt>
<trkpt lat="42.179184" lon="23.585186"><ele>2933.2</ele><time>2026-04-05T10:36:38.000Z</time></trkpt>
<trkpt lat="42.179183" lon="23.585186"><ele>2933.2</ele><time>2026-04-05T10:36:39.000Z</time></trkpt>
<trkpt lat="42.179182" lon="23.585184"><ele>2933.2</ele><time>2026-04-05T10:36:40.000Z</time></trkpt>
<trkpt lat="42.179182" lon="23.585183"><ele>2933.2</ele><time>2026-04-05T10:36:41.000Z</time></trkpt>
<trkpt lat="42.179182" lon="23.585182"><ele>2933.2</ele><time>2026-04-05T10:36:42.000Z</time></trkpt>
<trkpt lat="42.179182" lon="23.585181"><ele>2933.2</ele><time>2026-04-05T10:36:43.000Z</time></trkpt>
<trkpt lat="42.179182" lon="23.58518"><ele>2933.2</ele><time>2026-04-05T10:36:44.000Z</time></trkpt>
<trkpt lat="42.179182" lon="23.585178"><ele>2933.2</ele><time>2026-04-05T10:36:45.000Z</time></trkpt>
<trkpt lat="42.179183" lon="23.585177"><ele>2933.2</ele><time>2026-04-05T10:36:46.000Z</time></trkpt>
<trkpt lat="42.179183" lon="23.585176"><ele>2933.2</ele><time>2026-04-05T10:36:47.000Z</time></trkpt>
<trkpt lat="42.179184" lon="23.585176"><ele>2933.2</ele><time>2026-04-05T10:36:48.000Z</time></trkpt>
<trkpt lat="42.179184" lon="23.585175"><ele>2933.2</ele><time>2026-04-05T10:36:49.000Z</time></trkpt>
<trkpt lat="42.179184" lon="23.585176"><ele>2933.2</ele><time>2026-04-05T10:36:50.000Z</time></trkpt>
<trkpt lat="42.179184" lon="23.585176"><ele>2933.2</ele><time>2026-04-05T10:36:51.000Z</time></trkpt>
<trkpt lat="42.179184" lon="23.585176"><ele>2933.2</ele><time>2026-04-05T10:36:52.000Z</time></trkpt>
<trkpt lat="42.179185" lon="23.585177"><ele>2933.2</ele><time>2026-04-05T10:36:53.000Z</time></trkpt>
<trkpt lat="42.179186" lon="23.585181"><ele>2933.1</ele><time>2026-04-05T10:36:54.000Z</time></trkpt>
<trkpt lat="42.179186" lon="23.585188"><ele>2933.1</ele><time>2026-04-05T10:36:55.000Z</time></trkpt>
<trkpt lat="42.179186" lon="23.585195"><ele>2933.1</ele><time>2026-04-05T10:36:56.000Z</time></trkpt>
<trkpt lat="42.179187" lon="23.585205"><ele>2933.1</ele><time>2026-04-05T10:36:57.000Z</time></trkpt>
<trkpt lat="42.179188" lon="23.585217"><ele>2933.1</ele><time>2026-04-05T10:36:58.000Z</time></trkpt>
<trkpt lat="42.179189" lon="23.585226"><ele>2933.2</ele><time>2026-04-05T10:36:59.000Z</time></trkpt>
<trkpt lat="42.179191" lon="23.585234"><ele>2933.2</ele><time>2026-04-05T10:37:00.000Z</time></trkpt>
<trkpt lat="42.179193" lon="23.585242"><ele>2933.2</ele><time>2026-04-05T10:37:01.000Z</time></trkpt>
<trkpt lat="42.179194" lon="23.585247"><ele>2933.2</ele><time>2026-04-05T10:37:02.000Z</time></trkpt>
<trkpt lat="42.179195" lon="23.585251"><ele>2933.2</ele><time>2026-04-05T10:37:03.000Z</time></trkpt>
<trkpt lat="42.179198" lon="23.585255"><ele>2933.2</ele><time>2026-04-05T10:37:04.000Z</time></trkpt>
<trkpt lat="42.1792" lon="23.585258"><ele>2933.2</ele><time>2026-04-05T10:37:05.000Z</time></trkpt>
<trkpt lat="42.179202" lon="23.58526"><ele>2933.2</ele><time>2026-04-05T10:37:06.000Z</time></trkpt>
<trkpt lat="42.179204" lon="23.585263"><ele>2933.2</ele><time>2026-04-05T10:37:07.000Z</time></trkpt>
<trkpt lat="42.179206" lon="23.585268"><ele>2933.2</ele><time>2026-04-05T10:37:08.000Z</time></trkpt>
<trkpt lat="42.179208" lon="23.585272"><ele>2933.1</ele><time>2026-04-05T10:37:09.000Z</time></trkpt>
<trkpt lat="42.17921" lon="23.585277"><ele>2933.1</ele><time>2026-04-05T10:37:10.000Z</time></trkpt>
<trkpt lat="42.179212" lon="23.585283"><ele>2933.1</ele><time>2026-04-05T10:37:11.000Z</time></trkpt>
<trkpt lat="42.179215" lon="23.58529"><ele>2933.1</ele><time>2026-04-05T10:37:12.000Z</time></trkpt>
<trkpt lat="42.179218" lon="23.585295"><ele>2933.1</ele><time>2026-04-05T10:37:13.000Z</time></trkpt>
<trkpt lat="42.179219" lon="23.585299"><ele>2932.7</ele><time>2026-04-05T10:37:14.000Z</time></trkpt>
<trkpt lat="42.179219" lon="23.585301"><ele>2932.7</ele><time>2026-04-05T10:37:15.000Z</time></trkpt>
<trkpt lat="42.179218" lon="23.585302"><ele>2932.7</ele><time>2026-04-05T10:37:16.000Z</time></trkpt>
<trkpt lat="42.179217" lon="23.585302"><ele>2932.7</ele><time>2026-04-05T10:37:17.000Z</time></trkpt>
<trkpt lat="42.179216" lon="23.585302"><ele>2932.7</ele><time>2026-04-05T10:37:18.000Z</time></trkpt>
<trkpt lat="42.179216" lon="23.585301"><ele>2932.5</ele><time>2026-04-05T10:37:19.000Z</time></trkpt>
<trkpt lat="42.179215" lon="23.585301"><ele>2932.5</ele><time>2026-04-05T10:37:20.000Z</time></trkpt>
<trkpt lat="42.179215" lon="23.585301"><ele>2932.5</ele><time>2026-04-05T10:37:21.000Z</time></trkpt>
<trkpt lat="42.179215" lon="23.585301"><ele>2932.5</ele><time>2026-04-05T10:37:22.000Z</time></trkpt>
<trkpt lat="42.179216" lon="23.585301"><ele>2932.5</ele><time>2026-04-05T10:37:23.000Z</time></trkpt>
<trkpt lat="42.179216" lon="23.585302"><ele>2932.4</ele><time>2026-04-05T10:37:24.000Z</time></trkpt>
<trkpt lat="42.179217" lon="23.585302"><ele>2932.4</ele><time>2026-04-05T10:37:25.000Z</time></trkpt>
<trkpt lat="42.179217" lon="23.585302"><ele>2932.4</ele><time>2026-04-05T10:37:26.000Z</time></trkpt>
<trkpt lat="42.179218" lon="23.585301"><ele>2932.4</ele><time>2026-04-05T10:37:27.000Z</time></trkpt>
<trkpt lat="42.179218" lon="23.585301"><ele>2932.4</ele><time>2026-04-05T10:37:28.000Z</time></trkpt>
<trkpt lat="42.179218" lon="23.5853"><ele>2932.5</ele><time>2026-04-05T10:37:29.000Z</time></trkpt>
<trkpt lat="42.179219" lon="23.5853"><ele>2932.5</ele><time>2026-04-05T10:37:30.000Z</time></trkpt>
<trkpt lat="42.17922" lon="23.585301"><ele>2932.5</ele><time>2026-04-05T10:37:31.000Z</time></trkpt>
<trkpt lat="42.179221" lon="23.585301"><ele>2932.5</ele><time>2026-04-05T10:37:32.000Z</time></trkpt>
<trkpt lat="42.179223" lon="23.585301"><ele>2932.5</ele><time>2026-04-05T10:37:33.000Z</time></trkpt>
<trkpt lat="42.179223" lon="23.585302"><ele>2932.6</ele><time>2026-04-05T10:37:34.000Z</time></trkpt>
<trkpt lat="42.179223" lon="23.585302"><ele>2932.6</ele><time>2026-04-05T10:37:35.000Z</time></trkpt>
<trkpt lat="42.179223" lon="23.585302"><ele>2932.6</ele><time>2026-04-05T10:37:36.000Z</time></trkpt>
<trkpt lat="42.179224" lon="23.585302"><ele>2932.6</ele><time>2026-04-05T10:37:37.000Z</time></trkpt>
<trkpt lat="42.179224" lon="23.585302"><ele>2932.6</ele><time>2026-04-05T10:37:38.000Z</time></trkpt>
<trkpt lat="42.179224" lon="23.585303"><ele>2932.9</ele><time>2026-04-05T10:37:39.000Z</time></trkpt>
<trkpt lat="42.179223" lon="23.585303"><ele>2932.9</ele><time>2026-04-05T10:37:40.000Z</time></trkpt>
<trkpt lat="42.179223" lon="23.585304"><ele>2932.9</ele><time>2026-04-05T10:37:41.000Z</time></trkpt>
<trkpt lat="42.179222" lon="23.585305"><ele>2932.9</ele><time>2026-04-05T10:37:42.000Z</time></trkpt>
<trkpt lat="42.179221" lon="23.585305"><ele>2932.9</ele><time>2026-04-05T10:37:43.000Z</time></trkpt>
<trkpt lat="42.179221" lon="23.585305"><ele>2933.2</ele><time>2026-04-05T10:37:44.000Z</time></trkpt>
<trkpt lat="42.179221" lon="23.585305"><ele>2933.2</ele><time>2026-04-05T10:37:45.000Z</time></trkpt>
<trkpt lat="42.179221" lon="23.585305"><ele>2933.2</ele><time>2026-04-05T10:37:46.000Z</time></trkpt>
<trkpt lat="42.179221" lon="23.585305"><ele>2933.2</ele><time>2026-04-05T10:37:47.000Z</time></trkpt>
<trkpt lat="42.17922" lon="23.585305"><ele>2933.2</ele><time>2026-04-05T10:37:48.000Z</time></trkpt>
<trkpt lat="42.17922" lon="23.585304"><ele>2933.1</ele><time>2026-04-05T10:37:49.000Z</time></trkpt>
<trkpt lat="42.17922" lon="23.585304"><ele>2933.1</ele><time>2026-04-05T10:37:50.000Z</time></trkpt>
<trkpt lat="42.17922" lon="23.585304"><ele>2933.1</ele><time>2026-04-05T10:37:51.000Z</time></trkpt>
<trkpt lat="42.17922" lon="23.585304"><ele>2933.1</ele><time>2026-04-05T10:37:52.000Z</time></trkpt>
<trkpt lat="42.179221" lon="23.585303"><ele>2933.1</ele><time>2026-04-05T10:37:53.000Z</time></trkpt>
<trkpt lat="42.179221" lon="23.585303"><ele>2932.9</ele><time>2026-04-05T10:37:54.000Z</time></trkpt>
<trkpt lat="42.179222" lon="23.585302"><ele>2932.9</ele><time>2026-04-05T10:37:55.000Z</time></trkpt>
<trkpt lat="42.179222" lon="23.585301"><ele>2932.9</ele><time>2026-04-05T10:37:56.000Z</time></trkpt>
<trkpt lat="42.179222" lon="23.585301"><ele>2932.9</ele><time>2026-04-05T10:37:57.000Z</time></trkpt>
<trkpt lat="42.179222" lon="23.585301"><ele>2932.9</ele><time>2026-04-05T10:37:58.000Z</time></trkpt>
<trkpt lat="42.179223" lon="23.585302"><ele>2932.7</ele><time>2026-04-05T10:37:59.000Z</time></trkpt>
<trkpt lat="42.179224" lon="23.585303"><ele>2932.7</ele><time>2026-04-05T10:38:00.000Z</time></trkpt>
<trkpt lat="42.179226" lon="23.585305"><ele>2932.7</ele><time>2026-04-05T10:38:01.000Z</time></trkpt>
<trkpt lat="42.179227" lon="23.585306"><ele>2932.7</ele><time>2026-04-05T10:38:02.000Z</time></trkpt>
<trkpt lat="42.179227" lon="23.585307"><ele>2932.7</ele><time>2026-04-05T10:38:03.000Z</time></trkpt>
<trkpt lat="42.179226" lon="23.585307"><ele>2932.6</ele><time>2026-04-05T10:38:04.000Z</time></trkpt>
<trkpt lat="42.179224" lon="23.585306"><ele>2932.6</ele><time>2026-04-05T10:38:05.000Z</time></trkpt>
<trkpt lat="42.179222" lon="23.585305"><ele>2932.6</ele><time>2026-04-05T10:38:06.000Z</time></trkpt>
<trkpt lat="42.179223" lon="23.585304"><ele>2932.6</ele><time>2026-04-05T10:38:07.000Z</time></trkpt>
<trkpt lat="42.179224" lon="23.585302"><ele>2932.6</ele><time>2026-04-05T10:38:08.000Z</time></trkpt>
<trkpt lat="42.179226" lon="23.585302"><ele>2932.6</ele><time>2026-04-05T10:38:09.000Z</time></trkpt>
<trkpt lat="42.179229" lon="23.585301"><ele>2932.6</ele><time>2026-04-05T10:38:10.000Z</time></trkpt>
<trkpt lat="42.179232" lon="23.585301"><ele>2932.6</ele><time>2026-04-05T10:38:11.000Z</time></trkpt>
<trkpt lat="42.179233" lon="23.5853"><ele>2932.6</ele><time>2026-04-05T10:38:12.000Z</time></trkpt>
<trkpt lat="42.179233" lon="23.5853"><ele>2932.6</ele><time>2026-04-05T10:38:13.000Z</time></trkpt>
<trkpt lat="42.179234" lon="23.585299"><ele>2932.7</ele><time>2026-04-05T10:38:14.000Z</time></trkpt>
<trkpt lat="42.179234" lon="23.585299"><ele>2932.7</ele><time>2026-04-05T10:38:15.000Z</time></trkpt>
<trkpt lat="42.179234" lon="23.585298"><ele>2932.7</ele><time>2026-04-05T10:38:16.000Z</time></trkpt>
<trkpt lat="42.179233" lon="23.585298"><ele>2932.7</ele><time>2026-04-05T10:38:17.000Z</time></trkpt>
<trkpt lat="42.179233" lon="23.585298"><ele>2932.7</ele><time>2026-04-05T10:38:18.000Z</time></trkpt>
<trkpt lat="42.179233" lon="23.585298"><ele>2932.7</ele><time>2026-04-05T10:38:19.000Z</time></trkpt>
<trkpt lat="42.179233" lon="23.585298"><ele>2932.7</ele><time>2026-04-05T10:38:20.000Z</time></trkpt>
<trkpt lat="42.179233" lon="23.585298"><ele>2932.7</ele><time>2026-04-05T10:38:21.000Z</time></trkpt>
<trkpt lat="42.179233" lon="23.585298"><ele>2932.7</ele><time>2026-04-05T10:38:22.000Z</time></trkpt>
<trkpt lat="42.179232" lon="23.585297"><ele>2932.7</ele><time>2026-04-05T10:38:23.000Z</time></trkpt>
<trkpt lat="42.179232" lon="23.585297"><ele>2932.7</ele><time>2026-04-05T10:38:24.000Z</time></trkpt>
<trkpt lat="42.179232" lon="23.585297"><ele>2932.7</ele><time>2026-04-05T10:38:25.000Z</time></trkpt>
<trkpt lat="42.179232" lon="23.585297"><ele>2932.7</ele><time>2026-04-05T10:38:26.000Z</time></trkpt>
<trkpt lat="42.179232" lon="23.585297"><ele>2932.7</ele><time>2026-04-05T10:38:27.000Z</time></trkpt>
<trkpt lat="42.179232" lon="23.585297"><ele>2932.7</ele><time>2026-04-05T10:38:28.000Z</time></trkpt>
<trkpt lat="42.179233" lon="23.585297"><ele>2932.8</ele><time>2026-04-05T10:38:29.000Z</time></trkpt>
<trkpt lat="42.179232" lon="23.585297"><ele>2932.8</ele><time>2026-04-05T10:38:30.000Z</time></trkpt>
<trkpt lat="42.179232" lon="23.585297"><ele>2932.8</ele><time>2026-04-05T10:38:31.000Z</time></trkpt>
<trkpt lat="42.17923" lon="23.585297"><ele>2932.8</ele><time>2026-04-05T10:38:32.000Z</time></trkpt>
<trkpt lat="42.179229" lon="23.585297"><ele>2932.8</ele><time>2026-04-05T10:38:33.000Z</time></trkpt>
<trkpt lat="42.179229" lon="23.585297"><ele>2932.8</ele><time>2026-04-05T10:38:34.000Z</time></trkpt>
<trkpt lat="42.17923" lon="23.585297"><ele>2932.8</ele><time>2026-04-05T10:38:35.000Z</time></trkpt>
<trkpt lat="42.179231" lon="23.585296"><ele>2932.8</ele><time>2026-04-05T10:38:36.000Z</time></trkpt>
<trkpt lat="42.179234" lon="23.585297"><ele>2932.8</ele><time>2026-04-05T10:38:37.000Z</time></trkpt>
<trkpt lat="42.179233" lon="23.585297"><ele>2932.8</ele><time>2026-04-05T10:38:38.000Z</time></trkpt>
<trkpt lat="42.179232" lon="23.585297"><ele>2932.9</ele><time>2026-04-05T10:38:39.000Z</time></trkpt>
<trkpt lat="42.179231" lon="23.585298"><ele>2932.9</ele><time>2026-04-05T10:38:40.000Z</time></trkpt>
<trkpt lat="42.17923" lon="23.585298"><ele>2932.9</ele><time>2026-04-05T10:38:41.000Z</time></trkpt>
<trkpt lat="42.179229" lon="23.585298"><ele>2932.9</ele><time>2026-04-05T10:38:42.000Z</time></trkpt>
<trkpt lat="42.179229" lon="23.585298"><ele>2932.9</ele><time>2026-04-05T10:38:43.000Z</time></trkpt>
<trkpt lat="42.179229" lon="23.585297"><ele>2932.9</ele><time>2026-04-05T10:38:44.000Z</time></trkpt>
<trkpt lat="42.179229" lon="23.585296"><ele>2932.9</ele><time>2026-04-05T10:38:45.000Z</time></trkpt>
<trkpt lat="42.17923" lon="23.585294"><ele>2932.9</ele><time>2026-04-05T10:38:46.000Z</time></trkpt>
<trkpt lat="42.179231" lon="23.585292"><ele>2932.9</ele><time>2026-04-05T10:38:47.000Z</time></trkpt>
<trkpt lat="42.179232" lon="23.585292"><ele>2932.9</ele><time>2026-04-05T10:38:48.000Z</time></trkpt>
<trkpt lat="42.179233" lon="23.585292"><ele>2932.9</ele><time>2026-04-05T10:38:49.000Z</time></trkpt>
<trkpt lat="42.179233" lon="23.585292"><ele>2932.9</ele><time>2026-04-05T10:38:50.000Z</time></trkpt>
<trkpt lat="42.179232" lon="23.585293"><ele>2932.9</ele><time>2026-04-05T10:38:51.000Z</time></trkpt>
<trkpt lat="42.179231" lon="23.585293"><ele>2932.9</ele><time>2026-04-05T10:38:52.000Z</time></trkpt>
<trkpt lat="42.179229" lon="23.585292"><ele>2932.9</ele><time>2026-04-05T10:38:53.000Z</time></trkpt>
<trkpt lat="42.179227" lon="23.585291"><ele>2932.9</ele><time>2026-04-05T10:38:54.000Z</time></trkpt>
<trkpt lat="42.179225" lon="23.585289"><ele>2932.9</ele><time>2026-04-05T10:38:55.000Z</time></trkpt>
<trkpt lat="42.179224" lon="23.585288"><ele>2932.9</ele><time>2026-04-05T10:38:56.000Z</time></trkpt>
<trkpt lat="42.179223" lon="23.585287"><ele>2932.9</ele><time>2026-04-05T10:38:57.000Z</time></trkpt>
<trkpt lat="42.179222" lon="23.585285"><ele>2932.9</ele><time>2026-04-05T10:38:58.000Z</time></trkpt>
<trkpt lat="42.179222" lon="23.585285"><ele>2932.9</ele><time>2026-04-05T10:38:59.000Z</time></trkpt>
<trkpt lat="42.179221" lon="23.585284"><ele>2932.9</ele><time>2026-04-05T10:39:00.000Z</time></trkpt>
<trkpt lat="42.179221" lon="23.585284"><ele>2932.9</ele><time>2026-04-05T10:39:01.000Z</time></trkpt>
<trkpt lat="42.179221" lon="23.585284"><ele>2932.9</ele><time>2026-04-05T10:39:02.000Z</time></trkpt>
<trkpt lat="42.179221" lon="23.585285"><ele>2932.9</ele><time>2026-04-05T10:39:03.000Z</time></trkpt>
<trkpt lat="42.179221" lon="23.585285"><ele>2932.9</ele><time>2026-04-05T10:39:04.000Z</time></trkpt>
<trkpt lat="42.179221" lon="23.585286"><ele>2932.9</ele><time>2026-04-05T10:39:05.000Z</time></trkpt>
<trkpt lat="42.179222" lon="23.585286"><ele>2932.9</ele><time>2026-04-05T10:39:06.000Z</time></trkpt>
<trkpt lat="42.179223" lon="23.585286"><ele>2932.9</ele><time>2026-04-05T10:39:07.000Z</time></trkpt>
<trkpt lat="42.179224" lon="23.585287"><ele>2932.9</ele><time>2026-04-05T10:39:08.000Z</time></trkpt>
<trkpt lat="42.179225" lon="23.585287"><ele>2932.8</ele><time>2026-04-05T10:39:09.000Z</time></trkpt>
<trkpt lat="42.179226" lon="23.585287"><ele>2932.8</ele><time>2026-04-05T10:39:10.000Z</time></trkpt>
<trkpt lat="42.179226" lon="23.585287"><ele>2932.8</ele><time>2026-04-05T10:39:11.000Z</time></trkpt>
<trkpt lat="42.179227" lon="23.585288"><ele>2932.8</ele><time>2026-04-05T10:39:12.000Z</time></trkpt>
<trkpt lat="42.179227" lon="23.585289"><ele>2932.8</ele><time>2026-04-05T10:39:13.000Z</time></trkpt>
<trkpt lat="42.179227" lon="23.58529"><ele>2932.7</ele><time>2026-04-05T10:39:14.000Z</time></trkpt>
<trkpt lat="42.179228" lon="23.585291"><ele>2932.7</ele><time>2026-04-05T10:39:15.000Z</time></trkpt>
<trkpt lat="42.179228" lon="23.585293"><ele>2932.7</ele><time>2026-04-05T10:39:16.000Z</time></trkpt>
<trkpt lat="42.179228" lon="23.585294"><ele>2932.7</ele><time>2026-04-05T10:39:17.000Z</time></trkpt>
<trkpt lat="42.179227" lon="23.585295"><ele>2932.7</ele><time>2026-04-05T10:39:18.000Z</time></trkpt>
<trkpt lat="42.179227" lon="23.585295"><ele>2932.7</ele><time>2026-04-05T10:39:19.000Z</time></trkpt>
<trkpt lat="42.179227" lon="23.585296"><ele>2932.7</ele><time>2026-04-05T10:39:20.000Z</time></trkpt>
<trkpt lat="42.179226" lon="23.585296"><ele>2932.7</ele><time>2026-04-05T10:39:21.000Z</time></trkpt>
<trkpt lat="42.179227" lon="23.585296"><ele>2932.7</ele><time>2026-04-05T10:39:22.000Z</time></trkpt>
<trkpt lat="42.179227" lon="23.585296"><ele>2932.7</ele><time>2026-04-05T10:39:23.000Z</time></trkpt>
<trkpt lat="42.179227" lon="23.585296"><ele>2932.6</ele><time>2026-04-05T10:39:24.000Z</time></trkpt>
<trkpt lat="42.179226" lon="23.585297"><ele>2932.6</ele><time>2026-04-05T10:39:25.000Z</time></trkpt>
<trkpt lat="42.179226" lon="23.585297"><ele>2932.6</ele><time>2026-04-05T10:39:26.000Z</time></trkpt>
<trkpt lat="42.179226" lon="23.585297"><ele>2932.6</ele><time>2026-04-05T10:39:27.000Z</time></trkpt>
<trkpt lat="42.179225" lon="23.585297"><ele>2932.6</ele><time>2026-04-05T10:39:28.000Z</time></trkpt>
<trkpt lat="42.179225" lon="23.585296"><ele>2932.5</ele><time>2026-04-05T10:39:29.000Z</time></trkpt>
<trkpt lat="42.179225" lon="23.585295"><ele>2932.5</ele><time>2026-04-05T10:39:30.000Z</time></trkpt>
<trkpt lat="42.179225" lon="23.585294"><ele>2932.5</ele><time>2026-04-05T10:39:31.000Z</time></trkpt>
<trkpt lat="42.179225" lon="23.585294"><ele>2932.5</ele><time>2026-04-05T10:39:32.000Z</time></trkpt>
<trkpt lat="42.179225" lon="23.585293"><ele>2932.5</ele><time>2026-04-05T10:39:33.000Z</time></trkpt>
<trkpt lat="42.179225" lon="23.585292"><ele>2932.5</ele><time>2026-04-05T10:39:34.000Z</time></trkpt>
<trkpt lat="42.179225" lon="23.585291"><ele>2932.5</ele><time>2026-04-05T10:39:35.000Z</time></trkpt>
<trkpt lat="42.179226" lon="23.585291"><ele>2932.5</ele><time>2026-04-05T10:39:36.000Z</time></trkpt>
<trkpt lat="42.179227" lon="23.585291"><ele>2932.5</ele><time>2026-04-05T10:39:37.000Z</time></trkpt>
<trkpt lat="42.179227" lon="23.585291"><ele>2932.5</ele><time>2026-04-05T10:39:38.000Z</time></trkpt>
<trkpt lat="42.179228" lon="23.58529"><ele>2932.6</ele><time>2026-04-05T10:39:39.000Z</time></trkpt>
<trkpt lat="42.179228" lon="23.58529"><ele>2932.6</ele><time>2026-04-05T10:39:40.000Z</time></trkpt>
<trkpt lat="42.179228" lon="23.58529"><ele>2932.6</ele><time>2026-04-05T10:39:41.000Z</time></trkpt>
<trkpt lat="42.179228" lon="23.58529"><ele>2932.6</ele><time>2026-04-05T10:39:42.000Z</time></trkpt>
<trkpt lat="42.179228" lon="23.58529"><ele>2932.6</ele><time>2026-04-05T10:39:43.000Z</time></trkpt>
<trkpt lat="42.179228" lon="23.585291"><ele>2932.7</ele><time>2026-04-05T10:39:44.000Z</time></trkpt>
<trkpt lat="42.179227" lon="23.585291"><ele>2932.7</ele><time>2026-04-05T10:39:45.000Z</time></trkpt>
<trkpt lat="42.179226" lon="23.585291"><ele>2932.7</ele><time>2026-04-05T10:39:46.000Z</time></trkpt>
<trkpt lat="42.179226" lon="23.585292"><ele>2932.7</ele><time>2026-04-05T10:39:47.000Z</time></trkpt>
<trkpt lat="42.179225" lon="23.585292"><ele>2932.7</ele><time>2026-04-05T10:39:48.000Z</time></trkpt>
<trkpt lat="42.179225" lon="23.585292"><ele>2932.8</ele><time>2026-04-05T10:39:49.000Z</time></trkpt>
<trkpt lat="42.179225" lon="23.585292"><ele>2932.8</ele><time>2026-04-05T10:39:50.000Z</time></trkpt>
<trkpt lat="42.179225" lon="23.585292"><ele>2932.8</ele><time>2026-04-05T10:39:51.000Z</time></trkpt>
<trkpt lat="42.179225" lon="23.585292"><ele>2932.8</ele><time>2026-04-05T10:39:52.000Z</time></trkpt>
<trkpt lat="42.179225" lon="23.585292"><ele>2932.8</ele><time>2026-04-05T10:39:53.000Z</time></trkpt>
<trkpt lat="42.179225" lon="23.585292"><ele>2933</ele><time>2026-04-05T10:39:54.000Z</time></trkpt>
<trkpt lat="42.179225" lon="23.585292"><ele>2933</ele><time>2026-04-05T10:39:55.000Z</time></trkpt>
<trkpt lat="42.179225" lon="23.585292"><ele>2933</ele><time>2026-04-05T10:39:56.000Z</time></trkpt>
<trkpt lat="42.179225" lon="23.585292"><ele>2933</ele><time>2026-04-05T10:39:57.000Z</time></trkpt>
<trkpt lat="42.179225" lon="23.585292"><ele>2933</ele><time>2026-04-05T10:39:58.000Z</time></trkpt>
<trkpt lat="42.179225" lon="23.585292"><ele>2932.9</ele><time>2026-04-05T10:39:59.000Z</time></trkpt>
<trkpt lat="42.179225" lon="23.585293"><ele>2932.9</ele><time>2026-04-05T10:40:00.000Z</time></trkpt>
<trkpt lat="42.179226" lon="23.585295"><ele>2932.9</ele><time>2026-04-05T10:40:01.000Z</time></trkpt>
<trkpt lat="42.179226" lon="23.585297"><ele>2932.9</ele><time>2026-04-05T10:40:02.000Z</time></trkpt>
<trkpt lat="42.179226" lon="23.585298"><ele>2932.9</ele><time>2026-04-05T10:40:03.000Z</time></trkpt>
<trkpt lat="42.179227" lon="23.585301"><ele>2932.8</ele><time>2026-04-05T10:40:04.000Z</time></trkpt>
<trkpt lat="42.179227" lon="23.585302"><ele>2932.8</ele><time>2026-04-05T10:40:05.000Z</time></trkpt>
<trkpt lat="42.179227" lon="23.585302"><ele>2932.8</ele><time>2026-04-05T10:40:06.000Z</time></trkpt>
<trkpt lat="42.179228" lon="23.585303"><ele>2932.8</ele><time>2026-04-05T10:40:07.000Z</time></trkpt>
<trkpt lat="42.179228" lon="23.585304"><ele>2932.8</ele><time>2026-04-05T10:40:08.000Z</time></trkpt>
<trkpt lat="42.179228" lon="23.585304"><ele>2932.8</ele><time>2026-04-05T10:40:09.000Z</time></trkpt>
<trkpt lat="42.179228" lon="23.585303"><ele>2932.8</ele><time>2026-04-05T10:40:10.000Z</time></trkpt>
<trkpt lat="42.179228" lon="23.585303"><ele>2932.8</ele><time>2026-04-05T10:40:11.000Z</time></trkpt>
<trkpt lat="42.179228" lon="23.585303"><ele>2932.8</ele><time>2026-04-05T10:40:12.000Z</time></trkpt>
<trkpt lat="42.179228" lon="23.585302"><ele>2932.8</ele><time>2026-04-05T10:40:13.000Z</time></trkpt>
<trkpt lat="42.179228" lon="23.585301"><ele>2932.9</ele><time>2026-04-05T10:40:14.000Z</time></trkpt>
<trkpt lat="42.179228" lon="23.585301"><ele>2932.9</ele><time>2026-04-05T10:40:15.000Z</time></trkpt>
<trkpt lat="42.179228" lon="23.5853"><ele>2932.9</ele><time>2026-04-05T10:40:16.000Z</time></trkpt>
<trkpt lat="42.179228" lon="23.5853"><ele>2932.9</ele><time>2026-04-05T10:40:17.000Z</time></trkpt>
<trkpt lat="42.179228" lon="23.5853"><ele>2932.9</ele><time>2026-04-05T10:40:18.000Z</time></trkpt>
<trkpt lat="42.179229" lon="23.585301"><ele>2933</ele><time>2026-04-05T10:40:19.000Z</time></trkpt>
<trkpt lat="42.17923" lon="23.585301"><ele>2933</ele><time>2026-04-05T10:40:20.000Z</time></trkpt>
<trkpt lat="42.17923" lon="23.585301"><ele>2933</ele><time>2026-04-05T10:40:21.000Z</time></trkpt>
<trkpt lat="42.17923" lon="23.585301"><ele>2933</ele><time>2026-04-05T10:40:22.000Z</time></trkpt>
<trkpt lat="42.17923" lon="23.585301"><ele>2933</ele><time>2026-04-05T10:40:23.000Z</time></trkpt>
<trkpt lat="42.17923" lon="23.585301"><ele>2933</ele><time>2026-04-05T10:40:24.000Z</time></trkpt>
<trkpt lat="42.17923" lon="23.585301"><ele>2933</ele><time>2026-04-05T10:40:25.000Z</time></trkpt>
<trkpt lat="42.179229" lon="23.585301"><ele>2933</ele><time>2026-04-05T10:40:26.000Z</time></trkpt>
<trkpt lat="42.179228" lon="23.585302"><ele>2933</ele><time>2026-04-05T10:40:27.000Z</time></trkpt>
<trkpt lat="42.179228" lon="23.585302"><ele>2933</ele><time>2026-04-05T10:40:28.000Z</time></trkpt>
<trkpt lat="42.179227" lon="23.585301"><ele>2932.8</ele><time>2026-04-05T10:40:29.000Z</time></trkpt>
<trkpt lat="42.179226" lon="23.5853"><ele>2932.8</ele><time>2026-04-05T10:40:30.000Z</time></trkpt>
<trkpt lat="42.179226" lon="23.585299"><ele>2932.8</ele><time>2026-04-05T10:40:31.000Z</time></trkpt>
<trkpt lat="42.179224" lon="23.585298"><ele>2932.8</ele><time>2026-04-05T10:40:32.000Z</time></trkpt>
<trkpt lat="42.179224" lon="23.585297"><ele>2932.8</ele><time>2026-04-05T10:40:33.000Z</time></trkpt>
<trkpt lat="42.179222" lon="23.585297"><ele>2932.8</ele><time>2026-04-05T10:40:34.000Z</time></trkpt>
<trkpt lat="42.179221" lon="23.585297"><ele>2932.8</ele><time>2026-04-05T10:40:35.000Z</time></trkpt>
<trkpt lat="42.179219" lon="23.585298"><ele>2932.8</ele><time>2026-04-05T10:40:36.000Z</time></trkpt>
<trkpt lat="42.179217" lon="23.585298"><ele>2932.8</ele><time>2026-04-05T10:40:37.000Z</time></trkpt>
<trkpt lat="42.179214" lon="23.585299"><ele>2932.8</ele><time>2026-04-05T10:40:38.000Z</time></trkpt>
<trkpt lat="42.179212" lon="23.585299"><ele>2932.7</ele><time>2026-04-05T10:40:39.000Z</time></trkpt>
<trkpt lat="42.179209" lon="23.585298"><ele>2932.7</ele><time>2026-04-05T10:40:40.000Z</time></trkpt>
<trkpt lat="42.179206" lon="23.585297"><ele>2932.7</ele><time>2026-04-05T10:40:41.000Z</time></trkpt>
<trkpt lat="42.179204" lon="23.585296"><ele>2932.7</ele><time>2026-04-05T10:40:42.000Z</time></trkpt>
<trkpt lat="42.179202" lon="23.585293"><ele>2932.7</ele><time>2026-04-05T10:40:43.000Z</time></trkpt>
<trkpt lat="42.179201" lon="23.585289"><ele>2932.5</ele><time>2026-04-05T10:40:44.000Z</time></trkpt>
<trkpt lat="42.179202" lon="23.585285"><ele>2932.5</ele><time>2026-04-05T10:40:45.000Z</time></trkpt>
<trkpt lat="42.179203" lon="23.585282"><ele>2932.5</ele><time>2026-04-05T10:40:46.000Z</time></trkpt>
<trkpt lat="42.179204" lon="23.58528"><ele>2932.5</ele><time>2026-04-05T10:40:47.000Z</time></trkpt>
<trkpt lat="42.179206" lon="23.585279"><ele>2932.5</ele><time>2026-04-05T10:40:48.000Z</time></trkpt>
<trkpt lat="42.179207" lon="23.585279"><ele>2932.3</ele><time>2026-04-05T10:40:49.000Z</time></trkpt>
<trkpt lat="42.179207" lon="23.58528"><ele>2932.3</ele><time>2026-04-05T10:40:50.000Z</time></trkpt>
<trkpt lat="42.179207" lon="23.585281"><ele>2932.3</ele><time>2026-04-05T10:40:51.000Z</time></trkpt>
<trkpt lat="42.179207" lon="23.585281"><ele>2932.3</ele><time>2026-04-05T10:40:52.000Z</time></trkpt>
<trkpt lat="42.179207" lon="23.585282"><ele>2932.3</ele><time>2026-04-05T10:40:53.000Z</time></trkpt>
<trkpt lat="42.179207" lon="23.585283"><ele>2932</ele><time>2026-04-05T10:40:54.000Z</time></trkpt>
<trkpt lat="42.179207" lon="23.585283"><ele>2932</ele><time>2026-04-05T10:40:55.000Z</time></trkpt>
<trkpt lat="42.179207" lon="23.585283"><ele>2932</ele><time>2026-04-05T10:40:56.000Z</time></trkpt>
<trkpt lat="42.179208" lon="23.585283"><ele>2932</ele><time>2026-04-05T10:40:57.000Z</time></trkpt>
<trkpt lat="42.179208" lon="23.585283"><ele>2932</ele><time>2026-04-05T10:40:58.000Z</time></trkpt>
<trkpt lat="42.179208" lon="23.585283"><ele>2931.8</ele><time>2026-04-05T10:40:59.000Z</time></trkpt>
<trkpt lat="42.179208" lon="23.585283"><ele>2931.8</ele><time>2026-04-05T10:41:00.000Z</time></trkpt>
<trkpt lat="42.179208" lon="23.585283"><ele>2931.8</ele><time>2026-04-05T10:41:01.000Z</time></trkpt>
<trkpt lat="42.179207" lon="23.585283"><ele>2931.8</ele><time>2026-04-05T10:41:02.000Z</time></trkpt>
<trkpt lat="42.179207" lon="23.585282"><ele>2931.8</ele><time>2026-04-05T10:41:03.000Z</time></trkpt>
<trkpt lat="42.179206" lon="23.585282"><ele>2931.8</ele><time>2026-04-05T10:41:04.000Z</time></trkpt>
<trkpt lat="42.179205" lon="23.585281"><ele>2931.8</ele><time>2026-04-05T10:41:05.000Z</time></trkpt>
<trkpt lat="42.179205" lon="23.585281"><ele>2931.8</ele><time>2026-04-05T10:41:06.000Z</time></trkpt>
<trkpt lat="42.179205" lon="23.585281"><ele>2931.8</ele><time>2026-04-05T10:41:07.000Z</time></trkpt>
<trkpt lat="42.179205" lon="23.585281"><ele>2931.8</ele><time>2026-04-05T10:41:08.000Z</time></trkpt>
<trkpt lat="42.179205" lon="23.585281"><ele>2932</ele><time>2026-04-05T10:41:09.000Z</time></trkpt>
<trkpt lat="42.179205" lon="23.585281"><ele>2932</ele><time>2026-04-05T10:41:10.000Z</time></trkpt>
<trkpt lat="42.179205" lon="23.585281"><ele>2932</ele><time>2026-04-05T10:41:11.000Z</time></trkpt>
<trkpt lat="42.179205" lon="23.585281"><ele>2932</ele><time>2026-04-05T10:41:12.000Z</time></trkpt>
<trkpt lat="42.179205" lon="23.585281"><ele>2932</ele><time>2026-04-05T10:41:13.000Z</time></trkpt>
<trkpt lat="42.179205" lon="23.585281"><ele>2932</ele><time>2026-04-05T10:41:14.000Z</time></trkpt>
<trkpt lat="42.179205" lon="23.585281"><ele>2932</ele><time>2026-04-05T10:41:15.000Z</time></trkpt>
<trkpt lat="42.179205" lon="23.585281"><ele>2932</ele><time>2026-04-05T10:41:16.000Z</time></trkpt>
<trkpt lat="42.179205" lon="23.585281"><ele>2932</ele><time>2026-04-05T10:41:17.000Z</time></trkpt>
<trkpt lat="42.179206" lon="23.585281"><ele>2932</ele><time>2026-04-05T10:41:18.000Z</time></trkpt>
<trkpt lat="42.179206" lon="23.585281"><ele>2932</ele><time>2026-04-05T10:41:19.000Z</time></trkpt>
<trkpt lat="42.179206" lon="23.58528"><ele>2932</ele><time>2026-04-05T10:41:20.000Z</time></trkpt>
<trkpt lat="42.179207" lon="23.58528"><ele>2932</ele><time>2026-04-05T10:41:21.000Z</time></trkpt>
<trkpt lat="42.179207" lon="23.58528"><ele>2932</ele><time>2026-04-05T10:41:22.000Z</time></trkpt>
<trkpt lat="42.179207" lon="23.58528"><ele>2932</ele><time>2026-04-05T10:41:23.000Z</time></trkpt>
<trkpt lat="42.179206" lon="23.58528"><ele>2932.1</ele><time>2026-04-05T10:41:24.000Z</time></trkpt>
<trkpt lat="42.179206" lon="23.58528"><ele>2932.1</ele><time>2026-04-05T10:41:25.000Z</time></trkpt>
<trkpt lat="42.179206" lon="23.585281"><ele>2932.1</ele><time>2026-04-05T10:41:26.000Z</time></trkpt>
<trkpt lat="42.179206" lon="23.585281"><ele>2932.1</ele><time>2026-04-05T10:41:27.000Z</time></trkpt>
<trkpt lat="42.179207" lon="23.585282"><ele>2932.1</ele><time>2026-04-05T10:41:28.000Z</time></trkpt>
<trkpt lat="42.179208" lon="23.585283"><ele>2932</ele><time>2026-04-05T10:41:29.000Z</time></trkpt>
<trkpt lat="42.179208" lon="23.585283"><ele>2932</ele><time>2026-04-05T10:41:30.000Z</time></trkpt>
<trkpt lat="42.179208" lon="23.585284"><ele>2932</ele><time>2026-04-05T10:41:31.000Z</time></trkpt>
<trkpt lat="42.179209" lon="23.585284"><ele>2932</ele><time>2026-04-05T10:41:32.000Z</time></trkpt>
<trkpt lat="42.179209" lon="23.585284"><ele>2932</ele><time>2026-04-05T10:41:33.000Z</time></trkpt>
<trkpt lat="42.179209" lon="23.585284"><ele>2932</ele><time>2026-04-05T10:41:34.000Z</time></trkpt>
<trkpt lat="42.179209" lon="23.585283"><ele>2932</ele><time>2026-04-05T10:41:35.000Z</time></trkpt>
<trkpt lat="42.17921" lon="23.585283"><ele>2932</ele><time>2026-04-05T10:41:36.000Z</time></trkpt>
<trkpt lat="42.17921" lon="23.585282"><ele>2932</ele><time>2026-04-05T10:41:37.000Z</time></trkpt>
<trkpt lat="42.179211" lon="23.585281"><ele>2932</ele><time>2026-04-05T10:41:38.000Z</time></trkpt>
<trkpt lat="42.179211" lon="23.585281"><ele>2931.9</ele><time>2026-04-05T10:41:39.000Z</time></trkpt>
<trkpt lat="42.179211" lon="23.585281"><ele>2931.9</ele><time>2026-04-05T10:41:40.000Z</time></trkpt>
<trkpt lat="42.179212" lon="23.585281"><ele>2931.9</ele><time>2026-04-05T10:41:41.000Z</time></trkpt>
<trkpt lat="42.179212" lon="23.58528"><ele>2931.9</ele><time>2026-04-05T10:41:42.000Z</time></trkpt>
<trkpt lat="42.179212" lon="23.58528"><ele>2931.9</ele><time>2026-04-05T10:41:43.000Z</time></trkpt>
<trkpt lat="42.179212" lon="23.585279"><ele>2932</ele><time>2026-04-05T10:41:44.000Z</time></trkpt>
<trkpt lat="42.179212" lon="23.585278"><ele>2932</ele><time>2026-04-05T10:41:45.000Z</time></trkpt>
<trkpt lat="42.179212" lon="23.585278"><ele>2932</ele><time>2026-04-05T10:41:46.000Z</time></trkpt>
<trkpt lat="42.179212" lon="23.585277"><ele>2932</ele><time>2026-04-05T10:41:47.000Z</time></trkpt>
<trkpt lat="42.179214" lon="23.585277"><ele>2932</ele><time>2026-04-05T10:41:48.000Z</time></trkpt>
<trkpt lat="42.179215" lon="23.585277"><ele>2932.1</ele><time>2026-04-05T10:41:49.000Z</time></trkpt>
<trkpt lat="42.179217" lon="23.585278"><ele>2932.1</ele><time>2026-04-05T10:41:50.000Z</time></trkpt>
<trkpt lat="42.179218" lon="23.585279"><ele>2932.1</ele><time>2026-04-05T10:41:51.000Z</time></trkpt>
<trkpt lat="42.17922" lon="23.585282"><ele>2932.1</ele><time>2026-04-05T10:41:52.000Z</time></trkpt>
<trkpt lat="42.17922" lon="23.585283"><ele>2932.1</ele><time>2026-04-05T10:41:53.000Z</time></trkpt>
<trkpt lat="42.179221" lon="23.585284"><ele>2932.2</ele><time>2026-04-05T10:41:54.000Z</time></trkpt>
<trkpt lat="42.179221" lon="23.585283"><ele>2932.2</ele><time>2026-04-05T10:41:55.000Z</time></trkpt>
<trkpt lat="42.179221" lon="23.585282"><ele>2932.2</ele><time>2026-04-05T10:41:56.000Z</time></trkpt>
<trkpt lat="42.179221" lon="23.585281"><ele>2932.2</ele><time>2026-04-05T10:41:57.000Z</time></trkpt>
<trkpt lat="42.17922" lon="23.58528"><ele>2932.2</ele><time>2026-04-05T10:41:58.000Z</time></trkpt>
<trkpt lat="42.17922" lon="23.585281"><ele>2932.4</ele><time>2026-04-05T10:41:59.000Z</time></trkpt>
<trkpt lat="42.17922" lon="23.585282"><ele>2932.4</ele><time>2026-04-05T10:42:00.000Z</time></trkpt>
<trkpt lat="42.17922" lon="23.585283"><ele>2932.4</ele><time>2026-04-05T10:42:01.000Z</time></trkpt>
<trkpt lat="42.179219" lon="23.585284"><ele>2932.4</ele><time>2026-04-05T10:42:02.000Z</time></trkpt>
<trkpt lat="42.179219" lon="23.585284"><ele>2932.4</ele><time>2026-04-05T10:42:03.000Z</time></trkpt>
<trkpt lat="42.179219" lon="23.585285"><ele>2932.5</ele><time>2026-04-05T10:42:04.000Z</time></trkpt>
<trkpt lat="42.179219" lon="23.585285"><ele>2932.5</ele><time>2026-04-05T10:42:05.000Z</time></trkpt>
<trkpt lat="42.179219" lon="23.585285"><ele>2932.5</ele><time>2026-04-05T10:42:06.000Z</time></trkpt>
<trkpt lat="42.179219" lon="23.585285"><ele>2932.5</ele><time>2026-04-05T10:42:07.000Z</time></trkpt>
<trkpt lat="42.179219" lon="23.585284"><ele>2932.5</ele><time>2026-04-05T10:42:08.000Z</time></trkpt>
<trkpt lat="42.179219" lon="23.585283"><ele>2932.8</ele><time>2026-04-05T10:42:09.000Z</time></trkpt>
<trkpt lat="42.179218" lon="23.585281"><ele>2932.8</ele><time>2026-04-05T10:42:10.000Z</time></trkpt>
<trkpt lat="42.179218" lon="23.58528"><ele>2932.8</ele><time>2026-04-05T10:42:11.000Z</time></trkpt>
<trkpt lat="42.179217" lon="23.58528"><ele>2932.8</ele><time>2026-04-05T10:42:12.000Z</time></trkpt>
<trkpt lat="42.179218" lon="23.585282"><ele>2932.8</ele><time>2026-04-05T10:42:13.000Z</time></trkpt>
<trkpt lat="42.179218" lon="23.585283"><ele>2932.6</ele><time>2026-04-05T10:42:14.000Z</time></trkpt>
<trkpt lat="42.179218" lon="23.585285"><ele>2932.6</ele><time>2026-04-05T10:42:15.000Z</time></trkpt>
<trkpt lat="42.179218" lon="23.585286"><ele>2932.6</ele><time>2026-04-05T10:42:16.000Z</time></trkpt>
<trkpt lat="42.179218" lon="23.585286"><ele>2932.6</ele><time>2026-04-05T10:42:17.000Z</time></trkpt>
<trkpt lat="42.179218" lon="23.585286"><ele>2932.6</ele><time>2026-04-05T10:42:18.000Z</time></trkpt>
<trkpt lat="42.179218" lon="23.585286"><ele>2932.5</ele><time>2026-04-05T10:42:19.000Z</time></trkpt>
<trkpt lat="42.179218" lon="23.585286"><ele>2932.5</ele><time>2026-04-05T10:42:20.000Z</time></trkpt>
<trkpt lat="42.179218" lon="23.585286"><ele>2932.5</ele><time>2026-04-05T10:42:21.000Z</time></trkpt>
<trkpt lat="42.179219" lon="23.585286"><ele>2932.5</ele><time>2026-04-05T10:42:22.000Z</time></trkpt>
<trkpt lat="42.179219" lon="23.585287"><ele>2932.5</ele><time>2026-04-05T10:42:23.000Z</time></trkpt>
<trkpt lat="42.179219" lon="23.585288"><ele>2932.5</ele><time>2026-04-05T10:42:24.000Z</time></trkpt>
<trkpt lat="42.17922" lon="23.585288"><ele>2932.5</ele><time>2026-04-05T10:42:25.000Z</time></trkpt>
<trkpt lat="42.17922" lon="23.585289"><ele>2932.5</ele><time>2026-04-05T10:42:26.000Z</time></trkpt>
<trkpt lat="42.17922" lon="23.585289"><ele>2932.5</ele><time>2026-04-05T10:42:27.000Z</time></trkpt>
<trkpt lat="42.17922" lon="23.585289"><ele>2932.5</ele><time>2026-04-05T10:42:28.000Z</time></trkpt>
<trkpt lat="42.17922" lon="23.585289"><ele>2932.6</ele><time>2026-04-05T10:42:29.000Z</time></trkpt>
<trkpt lat="42.17922" lon="23.585289"><ele>2932.6</ele><time>2026-04-05T10:42:30.000Z</time></trkpt>
<trkpt lat="42.179219" lon="23.585288"><ele>2932.6</ele><time>2026-04-05T10:42:31.000Z</time></trkpt>
<trkpt lat="42.179219" lon="23.585286"><ele>2932.6</ele><time>2026-04-05T10:42:32.000Z</time></trkpt>
<trkpt lat="42.179219" lon="23.585285"><ele>2932.6</ele><time>2026-04-05T10:42:33.000Z</time></trkpt>
<trkpt lat="42.179219" lon="23.585285"><ele>2932.6</ele><time>2026-04-05T10:42:34.000Z</time></trkpt>
<trkpt lat="42.179218" lon="23.585284"><ele>2932.6</ele><time>2026-04-05T10:42:35.000Z</time></trkpt>
<trkpt lat="42.179219" lon="23.585285"><ele>2932.6</ele><time>2026-04-05T10:42:36.000Z</time></trkpt>
<trkpt lat="42.179219" lon="23.585286"><ele>2932.6</ele><time>2026-04-05T10:42:37.000Z</time></trkpt>
<trkpt lat="42.179219" lon="23.585287"><ele>2932.6</ele><time>2026-04-05T10:42:38.000Z</time></trkpt>
<trkpt lat="42.179219" lon="23.585288"><ele>2932.5</ele><time>2026-04-05T10:42:39.000Z</time></trkpt>
<trkpt lat="42.17922" lon="23.585288"><ele>2932.5</ele><time>2026-04-05T10:42:40.000Z</time></trkpt>
<trkpt lat="42.17922" lon="23.585288"><ele>2932.5</ele><time>2026-04-05T10:42:41.000Z</time></trkpt>
<trkpt lat="42.17922" lon="23.585289"><ele>2932.5</ele><time>2026-04-05T10:42:42.000Z</time></trkpt>
<trkpt lat="42.17922" lon="23.585289"><ele>2932.5</ele><time>2026-04-05T10:42:43.000Z</time></trkpt>
<trkpt lat="42.17922" lon="23.58529"><ele>2932.5</ele><time>2026-04-05T10:42:44.000Z</time></trkpt>
<trkpt lat="42.17922" lon="23.585291"><ele>2932.5</ele><time>2026-04-05T10:42:45.000Z</time></trkpt>
<trkpt lat="42.179219" lon="23.585291"><ele>2932.5</ele><time>2026-04-05T10:42:46.000Z</time></trkpt>
<trkpt lat="42.179219" lon="23.585292"><ele>2932.5</ele><time>2026-04-05T10:42:47.000Z</time></trkpt>
<trkpt lat="42.179219" lon="23.585292"><ele>2932.5</ele><time>2026-04-05T10:42:48.000Z</time></trkpt>
<trkpt lat="42.179219" lon="23.585292"><ele>2932.6</ele><time>2026-04-05T10:42:49.000Z</time></trkpt>
<trkpt lat="42.179219" lon="23.585292"><ele>2932.6</ele><time>2026-04-05T10:42:50.000Z</time></trkpt>
<trkpt lat="42.179219" lon="23.585292"><ele>2932.6</ele><time>2026-04-05T10:42:51.000Z</time></trkpt>
<trkpt lat="42.179219" lon="23.585292"><ele>2932.6</ele><time>2026-04-05T10:42:52.000Z</time></trkpt>
<trkpt lat="42.179219" lon="23.585292"><ele>2932.6</ele><time>2026-04-05T10:42:53.000Z</time></trkpt>
<trkpt lat="42.179219" lon="23.585292"><ele>2932.7</ele><time>2026-04-05T10:42:54.000Z</time></trkpt>
<trkpt lat="42.179219" lon="23.585292"><ele>2932.7</ele><time>2026-04-05T10:42:55.000Z</time></trkpt>
<trkpt lat="42.179218" lon="23.585292"><ele>2932.7</ele><time>2026-04-05T10:42:56.000Z</time></trkpt>
<trkpt lat="42.179216" lon="23.585293"><ele>2932.7</ele><time>2026-04-05T10:42:57.000Z</time></trkpt>
<trkpt lat="42.179214" lon="23.585292"><ele>2932.7</ele><time>2026-04-05T10:42:58.000Z</time></trkpt>
<trkpt lat="42.17921" lon="23.58529"><ele>2932.8</ele><time>2026-04-05T10:42:59.000Z</time></trkpt>
<trkpt lat="42.179206" lon="23.585286"><ele>2932.8</ele><time>2026-04-05T10:43:00.000Z</time></trkpt>
<trkpt lat="42.179205" lon="23.585282"><ele>2932.8</ele><time>2026-04-05T10:43:01.000Z</time></trkpt>
<trkpt lat="42.179203" lon="23.585278"><ele>2932.8</ele><time>2026-04-05T10:43:02.000Z</time></trkpt>
<trkpt lat="42.179202" lon="23.585275"><ele>2932.8</ele><time>2026-04-05T10:43:03.000Z</time></trkpt>
<trkpt lat="42.179203" lon="23.585273"><ele>2932.8</ele><time>2026-04-05T10:43:04.000Z</time></trkpt>
<trkpt lat="42.179203" lon="23.585272"><ele>2932.8</ele><time>2026-04-05T10:43:05.000Z</time></trkpt>
<trkpt lat="42.179203" lon="23.585272"><ele>2932.8</ele><time>2026-04-05T10:43:06.000Z</time></trkpt>
<trkpt lat="42.179202" lon="23.585272"><ele>2932.8</ele><time>2026-04-05T10:43:07.000Z</time></trkpt>
<trkpt lat="42.179202" lon="23.585272"><ele>2932.8</ele><time>2026-04-05T10:43:08.000Z</time></trkpt>
<trkpt lat="42.179202" lon="23.585272"><ele>2932.5</ele><time>2026-04-05T10:43:09.000Z</time></trkpt>
<trkpt lat="42.179202" lon="23.585272"><ele>2932.5</ele><time>2026-04-05T10:43:10.000Z</time></trkpt>
<trkpt lat="42.179201" lon="23.585271"><ele>2932.5</ele><time>2026-04-05T10:43:11.000Z</time></trkpt>
<trkpt lat="42.179201" lon="23.585271"><ele>2932.5</ele><time>2026-04-05T10:43:12.000Z</time></trkpt>
<trkpt lat="42.1792" lon="23.585271"><ele>2932.5</ele><time>2026-04-05T10:43:13.000Z</time></trkpt>
<trkpt lat="42.1792" lon="23.585271"><ele>2932.3</ele><time>2026-04-05T10:43:14.000Z</time></trkpt>
<trkpt lat="42.1792" lon="23.585271"><ele>2932.3</ele><time>2026-04-05T10:43:15.000Z</time></trkpt>
<trkpt lat="42.179199" lon="23.585271"><ele>2932.3</ele><time>2026-04-05T10:43:16.000Z</time></trkpt>
<trkpt lat="42.179199" lon="23.585271"><ele>2932.3</ele><time>2026-04-05T10:43:17.000Z</time></trkpt>
<trkpt lat="42.1792" lon="23.585272"><ele>2932.3</ele><time>2026-04-05T10:43:18.000Z</time></trkpt>
<trkpt lat="42.1792" lon="23.585272"><ele>2932.3</ele><time>2026-04-05T10:43:19.000Z</time></trkpt>
<trkpt lat="42.1792" lon="23.585272"><ele>2932.3</ele><time>2026-04-05T10:43:20.000Z</time></trkpt>
<trkpt lat="42.179199" lon="23.585271"><ele>2932.3</ele><time>2026-04-05T10:43:21.000Z</time></trkpt>
<trkpt lat="42.179199" lon="23.585271"><ele>2932.3</ele><time>2026-04-05T10:43:22.000Z</time></trkpt>
<trkpt lat="42.179199" lon="23.585271"><ele>2932.3</ele><time>2026-04-05T10:43:23.000Z</time></trkpt>
<trkpt lat="42.179199" lon="23.585271"><ele>2932.4</ele><time>2026-04-05T10:43:24.000Z</time></trkpt>
<trkpt lat="42.179199" lon="23.585271"><ele>2932.4</ele><time>2026-04-05T10:43:25.000Z</time></trkpt>
<trkpt lat="42.179199" lon="23.585271"><ele>2932.4</ele><time>2026-04-05T10:43:26.000Z</time></trkpt>
<trkpt lat="42.179199" lon="23.585271"><ele>2932.4</ele><time>2026-04-05T10:43:27.000Z</time></trkpt>
<trkpt lat="42.179199" lon="23.585271"><ele>2932.4</ele><time>2026-04-05T10:43:28.000Z</time></trkpt>
<trkpt lat="42.179199" lon="23.585271"><ele>2932.3</ele><time>2026-04-05T10:43:29.000Z</time></trkpt>
<trkpt lat="42.179198" lon="23.585269"><ele>2932.3</ele><time>2026-04-05T10:43:30.000Z</time></trkpt>
<trkpt lat="42.179197" lon="23.585266"><ele>2932.3</ele><time>2026-04-05T10:43:31.000Z</time></trkpt>
<trkpt lat="42.179196" lon="23.585261"><ele>2932.3</ele><time>2026-04-05T10:43:32.000Z</time></trkpt>
<trkpt lat="42.179194" lon="23.585254"><ele>2932.3</ele><time>2026-04-05T10:43:33.000Z</time></trkpt>
<trkpt lat="42.179193" lon="23.585245"><ele>2932.2</ele><time>2026-04-05T10:43:34.000Z</time></trkpt>
<trkpt lat="42.179192" lon="23.585236"><ele>2932.2</ele><time>2026-04-05T10:43:35.000Z</time></trkpt>
<trkpt lat="42.179191" lon="23.585226"><ele>2932.2</ele><time>2026-04-05T10:43:36.000Z</time></trkpt>
<trkpt lat="42.179191" lon="23.585216"><ele>2932.2</ele><time>2026-04-05T10:43:37.000Z</time></trkpt>
<trkpt lat="42.17919" lon="23.585207"><ele>2932.2</ele><time>2026-04-05T10:43:38.000Z</time></trkpt>
<trkpt lat="42.179189" lon="23.585197"><ele>2931.8</ele><time>2026-04-05T10:43:39.000Z</time></trkpt>
<trkpt lat="42.179188" lon="23.585189"><ele>2931.8</ele><time>2026-04-05T10:43:40.000Z</time></trkpt>
<trkpt lat="42.179187" lon="23.585182"><ele>2931.8</ele><time>2026-04-05T10:43:41.000Z</time></trkpt>
<trkpt lat="42.179185" lon="23.585176"><ele>2931.8</ele><time>2026-04-05T10:43:42.000Z</time></trkpt>
<trkpt lat="42.179183" lon="23.585171"><ele>2931.8</ele><time>2026-04-05T10:43:43.000Z</time></trkpt>
<trkpt lat="42.17918" lon="23.585168"><ele>2931.9</ele><time>2026-04-05T10:43:44.000Z</time></trkpt>
<trkpt lat="42.179175" lon="23.585166"><ele>2931.9</ele><time>2026-04-05T10:43:45.000Z</time></trkpt>
<trkpt lat="42.179169" lon="23.585164"><ele>2931.9</ele><time>2026-04-05T10:43:46.000Z</time></trkpt>
<trkpt lat="42.179163" lon="23.585162"><ele>2931.9</ele><time>2026-04-05T10:43:47.000Z</time></trkpt>
<trkpt lat="42.179156" lon="23.585161"><ele>2931.9</ele><time>2026-04-05T10:43:48.000Z</time></trkpt>
<trkpt lat="42.179151" lon="23.585158"><ele>2932.1</ele><time>2026-04-05T10:43:49.000Z</time></trkpt>
<trkpt lat="42.179148" lon="23.585156"><ele>2932.1</ele><time>2026-04-05T10:43:50.000Z</time></trkpt>
<trkpt lat="42.179145" lon="23.585155"><ele>2932.1</ele><time>2026-04-05T10:43:51.000Z</time></trkpt>
<trkpt lat="42.179144" lon="23.585154"><ele>2932.1</ele><time>2026-04-05T10:43:52.000Z</time></trkpt>
<trkpt lat="42.179144" lon="23.585154"><ele>2932.1</ele><time>2026-04-05T10:43:53.000Z</time></trkpt>
<trkpt lat="42.179144" lon="23.585154"><ele>2932.4</ele><time>2026-04-05T10:43:54.000Z</time></trkpt>
<trkpt lat="42.179144" lon="23.585153"><ele>2932.4</ele><time>2026-04-05T10:43:55.000Z</time></trkpt>
<trkpt lat="42.179144" lon="23.585152"><ele>2932.4</ele><time>2026-04-05T10:43:56.000Z</time></trkpt>
<trkpt lat="42.179143" lon="23.585152"><ele>2932.4</ele><time>2026-04-05T10:43:57.000Z</time></trkpt>
<trkpt lat="42.179143" lon="23.585151"><ele>2932.4</ele><time>2026-04-05T10:43:58.000Z</time></trkpt>
<trkpt lat="42.179143" lon="23.585151"><ele>2932.5</ele><time>2026-04-05T10:43:59.000Z</time></trkpt>
<trkpt lat="42.179143" lon="23.585151"><ele>2932.5</ele><time>2026-04-05T10:44:00.000Z</time></trkpt>
<trkpt lat="42.179143" lon="23.585152"><ele>2932.5</ele><time>2026-04-05T10:44:01.000Z</time></trkpt>
<trkpt lat="42.179144" lon="23.585152"><ele>2932.5</ele><time>2026-04-05T10:44:02.000Z</time></trkpt>
<trkpt lat="42.179144" lon="23.585151"><ele>2932.5</ele><time>2026-04-05T10:44:03.000Z</time></trkpt>
<trkpt lat="42.179144" lon="23.585151"><ele>2932.6</ele><time>2026-04-05T10:44:04.000Z</time></trkpt>
<trkpt lat="42.179144" lon="23.58515"><ele>2932.6</ele><time>2026-04-05T10:44:05.000Z</time></trkpt>
<trkpt lat="42.179143" lon="23.585149"><ele>2932.6</ele><time>2026-04-05T10:44:06.000Z</time></trkpt>
<trkpt lat="42.179143" lon="23.585149"><ele>2932.6</ele><time>2026-04-05T10:44:07.000Z</time></trkpt>
<trkpt lat="42.179142" lon="23.585148"><ele>2932.6</ele><time>2026-04-05T10:44:08.000Z</time></trkpt>
<trkpt lat="42.179141" lon="23.585148"><ele>2932.7</ele><time>2026-04-05T10:44:09.000Z</time></trkpt>
<trkpt lat="42.179142" lon="23.585148"><ele>2932.7</ele><time>2026-04-05T10:44:10.000Z</time></trkpt>
<trkpt lat="42.179143" lon="23.585149"><ele>2932.7</ele><time>2026-04-05T10:44:11.000Z</time></trkpt>
<trkpt lat="42.179144" lon="23.58515"><ele>2932.7</ele><time>2026-04-05T10:44:12.000Z</time></trkpt>
<trkpt lat="42.179144" lon="23.58515"><ele>2932.7</ele><time>2026-04-05T10:44:13.000Z</time></trkpt>
<trkpt lat="42.179145" lon="23.585151"><ele>2932.7</ele><time>2026-04-05T10:44:14.000Z</time></trkpt>
<trkpt lat="42.179145" lon="23.585151"><ele>2932.7</ele><time>2026-04-05T10:44:15.000Z</time></trkpt>
<trkpt lat="42.179145" lon="23.585151"><ele>2932.7</ele><time>2026-04-05T10:44:16.000Z</time></trkpt>
<trkpt lat="42.179145" lon="23.585151"><ele>2932.7</ele><time>2026-04-05T10:44:17.000Z</time></trkpt>
<trkpt lat="42.179146" lon="23.585151"><ele>2932.7</ele><time>2026-04-05T10:44:18.000Z</time></trkpt>
<trkpt lat="42.179146" lon="23.585151"><ele>2932.7</ele><time>2026-04-05T10:44:19.000Z</time></trkpt>
<trkpt lat="42.179146" lon="23.58515"><ele>2932.7</ele><time>2026-04-05T10:44:20.000Z</time></trkpt>
<trkpt lat="42.179146" lon="23.58515"><ele>2932.7</ele><time>2026-04-05T10:44:21.000Z</time></trkpt>
<trkpt lat="42.179146" lon="23.58515"><ele>2932.7</ele><time>2026-04-05T10:44:22.000Z</time></trkpt>
<trkpt lat="42.179145" lon="23.58515"><ele>2932.7</ele><time>2026-04-05T10:44:23.000Z</time></trkpt>
<trkpt lat="42.179145" lon="23.58515"><ele>2932.9</ele><time>2026-04-05T10:44:24.000Z</time></trkpt>
<trkpt lat="42.179144" lon="23.58515"><ele>2932.9</ele><time>2026-04-05T10:44:25.000Z</time></trkpt>
<trkpt lat="42.179144" lon="23.585151"><ele>2932.9</ele><time>2026-04-05T10:44:26.000Z</time></trkpt>
<trkpt lat="42.179144" lon="23.585151"><ele>2932.9</ele><time>2026-04-05T10:44:27.000Z</time></trkpt>
<trkpt lat="42.179144" lon="23.585151"><ele>2932.9</ele><time>2026-04-05T10:44:28.000Z</time></trkpt>
<trkpt lat="42.179144" lon="23.585151"><ele>2933.4</ele><time>2026-04-05T10:44:29.000Z</time></trkpt>
<trkpt lat="42.179144" lon="23.585151"><ele>2933.4</ele><time>2026-04-05T10:44:30.000Z</time></trkpt>
<trkpt lat="42.179144" lon="23.585151"><ele>2933.4</ele><time>2026-04-05T10:44:31.000Z</time></trkpt>
<trkpt lat="42.179144" lon="23.585151"><ele>2933.4</ele><time>2026-04-05T10:44:32.000Z</time></trkpt>
<trkpt lat="42.179144" lon="23.585152"><ele>2933.4</ele><time>2026-04-05T10:44:33.000Z</time></trkpt>
<trkpt lat="42.179143" lon="23.585152"><ele>2933.6</ele><time>2026-04-05T10:44:34.000Z</time></trkpt>
<trkpt lat="42.179143" lon="23.585152"><ele>2933.6</ele><time>2026-04-05T10:44:35.000Z</time></trkpt>
<trkpt lat="42.179144" lon="23.585152"><ele>2933.6</ele><time>2026-04-05T10:44:36.000Z</time></trkpt>
<trkpt lat="42.179144" lon="23.585152"><ele>2933.6</ele><time>2026-04-05T10:44:37.000Z</time></trkpt>
<trkpt lat="42.179144" lon="23.585152"><ele>2933.6</ele><time>2026-04-05T10:44:38.000Z</time></trkpt>
<trkpt lat="42.179144" lon="23.585152"><ele>2933.7</ele><time>2026-04-05T10:44:39.000Z</time></trkpt>
<trkpt lat="42.179144" lon="23.585152"><ele>2933.7</ele><time>2026-04-05T10:44:40.000Z</time></trkpt>
<trkpt lat="42.179144" lon="23.585152"><ele>2933.7</ele><time>2026-04-05T10:44:41.000Z</time></trkpt>
<trkpt lat="42.179144" lon="23.585152"><ele>2933.7</ele><time>2026-04-05T10:44:42.000Z</time></trkpt>
<trkpt lat="42.179144" lon="23.585152"><ele>2933.7</ele><time>2026-04-05T10:44:43.000Z</time></trkpt>
<trkpt lat="42.179144" lon="23.585152"><ele>2933.5</ele><time>2026-04-05T10:44:44.000Z</time></trkpt>
<trkpt lat="42.179144" lon="23.585152"><ele>2933.5</ele><time>2026-04-05T10:44:45.000Z</time></trkpt>
<trkpt lat="42.179144" lon="23.585152"><ele>2933.5</ele><time>2026-04-05T10:44:46.000Z</time></trkpt>
<trkpt lat="42.179144" lon="23.585152"><ele>2933.5</ele><time>2026-04-05T10:44:47.000Z</time></trkpt>
<trkpt lat="42.179144" lon="23.585152"><ele>2933.5</ele><time>2026-04-05T10:44:48.000Z</time></trkpt>
<trkpt lat="42.179144" lon="23.585152"><ele>2933.3</ele><time>2026-04-05T10:44:49.000Z</time></trkpt>
<trkpt lat="42.179144" lon="23.585152"><ele>2933.3</ele><time>2026-04-05T10:44:50.000Z</time></trkpt>
<trkpt lat="42.179144" lon="23.585152"><ele>2933.3</ele><time>2026-04-05T10:44:51.000Z</time></trkpt>
<trkpt lat="42.179144" lon="23.585152"><ele>2933.3</ele><time>2026-04-05T10:44:52.000Z</time></trkpt>
<trkpt lat="42.179144" lon="23.585152"><ele>2933.3</ele><time>2026-04-05T10:44:53.000Z</time></trkpt>
<trkpt lat="42.179144" lon="23.585152"><ele>2933.2</ele><time>2026-04-05T10:44:54.000Z</time></trkpt>
<trkpt lat="42.179144" lon="23.585152"><ele>2933.2</ele><time>2026-04-05T10:44:55.000Z</time></trkpt>
<trkpt lat="42.179144" lon="23.585152"><ele>2933.2</ele><time>2026-04-05T10:44:56.000Z</time></trkpt>
<trkpt lat="42.179144" lon="23.585152"><ele>2933.2</ele><time>2026-04-05T10:44:57.000Z</time></trkpt>
<trkpt lat="42.179144" lon="23.585152"><ele>2933.2</ele><time>2026-04-05T10:44:58.000Z</time></trkpt>
<trkpt lat="42.179144" lon="23.585152"><ele>2933.2</ele><time>2026-04-05T10:44:59.000Z</time></trkpt>
<trkpt lat="42.179144" lon="23.585152"><ele>2933.2</ele><time>2026-04-05T10:45:00.000Z</time></trkpt>
<trkpt lat="42.179144" lon="23.585152"><ele>2933.2</ele><time>2026-04-05T10:45:01.000Z</time></trkpt>
<trkpt lat="42.179144" lon="23.585152"><ele>2933.2</ele><time>2026-04-05T10:45:02.000Z</time></trkpt>
<trkpt lat="42.179144" lon="23.585152"><ele>2933.2</ele><time>2026-04-05T10:45:03.000Z</time></trkpt>
<trkpt lat="42.179144" lon="23.585153"><ele>2933.2</ele><time>2026-04-05T10:45:04.000Z</time></trkpt>
<trkpt lat="42.179144" lon="23.585153"><ele>2933.2</ele><time>2026-04-05T10:45:05.000Z</time></trkpt>
<trkpt lat="42.179144" lon="23.585154"><ele>2933.2</ele><time>2026-04-05T10:45:06.000Z</time></trkpt>
<trkpt lat="42.179145" lon="23.585155"><ele>2933.2</ele><time>2026-04-05T10:45:07.000Z</time></trkpt>
<trkpt lat="42.179146" lon="23.585155"><ele>2933.2</ele><time>2026-04-05T10:45:08.000Z</time></trkpt>
<trkpt lat="42.179147" lon="23.585156"><ele>2933.1</ele><time>2026-04-05T10:45:09.000Z</time></trkpt>
<trkpt lat="42.179147" lon="23.585156"><ele>2933.1</ele><time>2026-04-05T10:45:10.000Z</time></trkpt>
<trkpt lat="42.179148" lon="23.585157"><ele>2933.1</ele><time>2026-04-05T10:45:11.000Z</time></trkpt>
<trkpt lat="42.179148" lon="23.585157"><ele>2933.1</ele><time>2026-04-05T10:45:12.000Z</time></trkpt>
<trkpt lat="42.179148" lon="23.585157"><ele>2933.1</ele><time>2026-04-05T10:45:13.000Z</time></trkpt>
<trkpt lat="42.179147" lon="23.585158"><ele>2932.8</ele><time>2026-04-05T10:45:14.000Z</time></trkpt>
<trkpt lat="42.179147" lon="23.585158"><ele>2932.8</ele><time>2026-04-05T10:45:15.000Z</time></trkpt>
<trkpt lat="42.179147" lon="23.585158"><ele>2932.8</ele><time>2026-04-05T10:45:16.000Z</time></trkpt>
<trkpt lat="42.179147" lon="23.585159"><ele>2932.8</ele><time>2026-04-05T10:45:17.000Z</time></trkpt>
<trkpt lat="42.179147" lon="23.585159"><ele>2932.8</ele><time>2026-04-05T10:45:18.000Z</time></trkpt>
<trkpt lat="42.179147" lon="23.585159"><ele>2932.6</ele><time>2026-04-05T10:45:19.000Z</time></trkpt>
<trkpt lat="42.179147" lon="23.585159"><ele>2932.6</ele><time>2026-04-05T10:45:20.000Z</time></trkpt>
<trkpt lat="42.179147" lon="23.585159"><ele>2932.6</ele><time>2026-04-05T10:45:21.000Z</time></trkpt>
<trkpt lat="42.179147" lon="23.585159"><ele>2932.6</ele><time>2026-04-05T10:45:22.000Z</time></trkpt>
<trkpt lat="42.179147" lon="23.585159"><ele>2932.6</ele><time>2026-04-05T10:45:23.000Z</time></trkpt>
<trkpt lat="42.179147" lon="23.585159"><ele>2932.5</ele><time>2026-04-05T10:45:24.000Z</time></trkpt>
<trkpt lat="42.179147" lon="23.585159"><ele>2932.5</ele><time>2026-04-05T10:45:25.000Z</time></trkpt>
<trkpt lat="42.179147" lon="23.585159"><ele>2932.5</ele><time>2026-04-05T10:45:26.000Z</time></trkpt>
<trkpt lat="42.179147" lon="23.585158"><ele>2932.5</ele><time>2026-04-05T10:45:27.000Z</time></trkpt>
<trkpt lat="42.179147" lon="23.585158"><ele>2932.5</ele><time>2026-04-05T10:45:28.000Z</time></trkpt>
<trkpt lat="42.179147" lon="23.585158"><ele>2932.6</ele><time>2026-04-05T10:45:29.000Z</time></trkpt>
<trkpt lat="42.179148" lon="23.585157"><ele>2932.6</ele><time>2026-04-05T10:45:30.000Z</time></trkpt>
<trkpt lat="42.179148" lon="23.585157"><ele>2932.6</ele><time>2026-04-05T10:45:31.000Z</time></trkpt>
<trkpt lat="42.179149" lon="23.585157"><ele>2932.6</ele><time>2026-04-05T10:45:32.000Z</time></trkpt>
<trkpt lat="42.179149" lon="23.585157"><ele>2932.6</ele><time>2026-04-05T10:45:33.000Z</time></trkpt>
<trkpt lat="42.179149" lon="23.585157"><ele>2932.6</ele><time>2026-04-05T10:45:34.000Z</time></trkpt>
<trkpt lat="42.179149" lon="23.585157"><ele>2932.6</ele><time>2026-04-05T10:45:35.000Z</time></trkpt>
<trkpt lat="42.179149" lon="23.585157"><ele>2932.6</ele><time>2026-04-05T10:45:36.000Z</time></trkpt>
<trkpt lat="42.179148" lon="23.585156"><ele>2932.6</ele><time>2026-04-05T10:45:37.000Z</time></trkpt>
<trkpt lat="42.179148" lon="23.585156"><ele>2932.6</ele><time>2026-04-05T10:45:38.000Z</time></trkpt>
<trkpt lat="42.179148" lon="23.585156"><ele>2932.7</ele><time>2026-04-05T10:45:39.000Z</time></trkpt>
<trkpt lat="42.179147" lon="23.585155"><ele>2932.7</ele><time>2026-04-05T10:45:40.000Z</time></trkpt>
<trkpt lat="42.179147" lon="23.585155"><ele>2932.7</ele><time>2026-04-05T10:45:41.000Z</time></trkpt>
<trkpt lat="42.179146" lon="23.585155"><ele>2932.7</ele><time>2026-04-05T10:45:42.000Z</time></trkpt>
<trkpt lat="42.179146" lon="23.585156"><ele>2932.7</ele><time>2026-04-05T10:45:43.000Z</time></trkpt>
<trkpt lat="42.179145" lon="23.585156"><ele>2932.7</ele><time>2026-04-05T10:45:44.000Z</time></trkpt>
<trkpt lat="42.179144" lon="23.585156"><ele>2932.7</ele><time>2026-04-05T10:45:45.000Z</time></trkpt>
<trkpt lat="42.179144" lon="23.585157"><ele>2932.7</ele><time>2026-04-05T10:45:46.000Z</time></trkpt>
<trkpt lat="42.179144" lon="23.585157"><ele>2932.7</ele><time>2026-04-05T10:45:47.000Z</time></trkpt>
<trkpt lat="42.179144" lon="23.585157"><ele>2932.7</ele><time>2026-04-05T10:45:48.000Z</time></trkpt>
<trkpt lat="42.179144" lon="23.585157"><ele>2932.6</ele><time>2026-04-05T10:45:49.000Z</time></trkpt>
<trkpt lat="42.179144" lon="23.585157"><ele>2932.6</ele><time>2026-04-05T10:45:50.000Z</time></trkpt>
<trkpt lat="42.179144" lon="23.585157"><ele>2932.6</ele><time>2026-04-05T10:45:51.000Z</time></trkpt>
<trkpt lat="42.179144" lon="23.585158"><ele>2932.6</ele><time>2026-04-05T10:45:52.000Z</time></trkpt>
<trkpt lat="42.179144" lon="23.585158"><ele>2932.6</ele><time>2026-04-05T10:45:53.000Z</time></trkpt>
<trkpt lat="42.179144" lon="23.585159"><ele>2932.2</ele><time>2026-04-05T10:45:54.000Z</time></trkpt>
<trkpt lat="42.179145" lon="23.585159"><ele>2932.2</ele><time>2026-04-05T10:45:55.000Z</time></trkpt>
<trkpt lat="42.179145" lon="23.58516"><ele>2932.2</ele><time>2026-04-05T10:45:56.000Z</time></trkpt>
<trkpt lat="42.179146" lon="23.58516"><ele>2932.2</ele><time>2026-04-05T10:45:57.000Z</time></trkpt>
<trkpt lat="42.179146" lon="23.58516"><ele>2932.2</ele><time>2026-04-05T10:45:58.000Z</time></trkpt>
<trkpt lat="42.179146" lon="23.585158"><ele>2932</ele><time>2026-04-05T10:45:59.000Z</time></trkpt>
<trkpt lat="42.179146" lon="23.585156"><ele>2932</ele><time>2026-04-05T10:46:00.000Z</time></trkpt>
<trkpt lat="42.179147" lon="23.585154"><ele>2932</ele><time>2026-04-05T10:46:01.000Z</time></trkpt>
<trkpt lat="42.179147" lon="23.585153"><ele>2932</ele><time>2026-04-05T10:46:02.000Z</time></trkpt>
<trkpt lat="42.179148" lon="23.585152"><ele>2932</ele><time>2026-04-05T10:46:03.000Z</time></trkpt>
<trkpt lat="42.179148" lon="23.585153"><ele>2932</ele><time>2026-04-05T10:46:04.000Z</time></trkpt>
<trkpt lat="42.179149" lon="23.585153"><ele>2932</ele><time>2026-04-05T10:46:05.000Z</time></trkpt>
<trkpt lat="42.179149" lon="23.585153"><ele>2932</ele><time>2026-04-05T10:46:06.000Z</time></trkpt>
<trkpt lat="42.17915" lon="23.585153"><ele>2932</ele><time>2026-04-05T10:46:07.000Z</time></trkpt>
<trkpt lat="42.17915" lon="23.585153"><ele>2932</ele><time>2026-04-05T10:46:08.000Z</time></trkpt>
<trkpt lat="42.17915" lon="23.585153"><ele>2932.4</ele><time>2026-04-05T10:46:09.000Z</time></trkpt>
<trkpt lat="42.17915" lon="23.585154"><ele>2932.4</ele><time>2026-04-05T10:46:10.000Z</time></trkpt>
<trkpt lat="42.17915" lon="23.585154"><ele>2932.4</ele><time>2026-04-05T10:46:11.000Z</time></trkpt>
<trkpt lat="42.17915" lon="23.585155"><ele>2932.4</ele><time>2026-04-05T10:46:12.000Z</time></trkpt>
<trkpt lat="42.17915" lon="23.585156"><ele>2932.4</ele><time>2026-04-05T10:46:13.000Z</time></trkpt>
<trkpt lat="42.17915" lon="23.585156"><ele>2932.8</ele><time>2026-04-05T10:46:14.000Z</time></trkpt>
<trkpt lat="42.179151" lon="23.585157"><ele>2932.8</ele><time>2026-04-05T10:46:15.000Z</time></trkpt>
<trkpt lat="42.179151" lon="23.585157"><ele>2932.8</ele><time>2026-04-05T10:46:16.000Z</time></trkpt>
<trkpt lat="42.179151" lon="23.585157"><ele>2932.8</ele><time>2026-04-05T10:46:17.000Z</time></trkpt>
<trkpt lat="42.179151" lon="23.585157"><ele>2932.8</ele><time>2026-04-05T10:46:18.000Z</time></trkpt>
<trkpt lat="42.179151" lon="23.585157"><ele>2933.1</ele><time>2026-04-05T10:46:19.000Z</time></trkpt>
<trkpt lat="42.179151" lon="23.585157"><ele>2933.1</ele><time>2026-04-05T10:46:20.000Z</time></trkpt>
<trkpt lat="42.179151" lon="23.585157"><ele>2933.1</ele><time>2026-04-05T10:46:21.000Z</time></trkpt>
<trkpt lat="42.179151" lon="23.585157"><ele>2933.1</ele><time>2026-04-05T10:46:22.000Z</time></trkpt>
<trkpt lat="42.179151" lon="23.585157"><ele>2933.1</ele><time>2026-04-05T10:46:23.000Z</time></trkpt>
<trkpt lat="42.179151" lon="23.585157"><ele>2933.3</ele><time>2026-04-05T10:46:24.000Z</time></trkpt>
<trkpt lat="42.179151" lon="23.585157"><ele>2933.3</ele><time>2026-04-05T10:46:25.000Z</time></trkpt>
<trkpt lat="42.179151" lon="23.585157"><ele>2933.3</ele><time>2026-04-05T10:46:26.000Z</time></trkpt>
<trkpt lat="42.179151" lon="23.585157"><ele>2933.3</ele><time>2026-04-05T10:46:27.000Z</time></trkpt>
<trkpt lat="42.179151" lon="23.585157"><ele>2933.3</ele><time>2026-04-05T10:46:28.000Z</time></trkpt>
<trkpt lat="42.179151" lon="23.585157"><ele>2933.3</ele><time>2026-04-05T10:46:29.000Z</time></trkpt>
<trkpt lat="42.179151" lon="23.585157"><ele>2933.3</ele><time>2026-04-05T10:46:30.000Z</time></trkpt>
<trkpt lat="42.179151" lon="23.585157"><ele>2933.3</ele><time>2026-04-05T10:46:31.000Z</time></trkpt>
<trkpt lat="42.179151" lon="23.585157"><ele>2933.3</ele><time>2026-04-05T10:46:32.000Z</time></trkpt>
<trkpt lat="42.179151" lon="23.585157"><ele>2933.3</ele><time>2026-04-05T10:46:33.000Z</time></trkpt>
<trkpt lat="42.179152" lon="23.585157"><ele>2933.3</ele><time>2026-04-05T10:46:34.000Z</time></trkpt>
<trkpt lat="42.179152" lon="23.585157"><ele>2933.3</ele><time>2026-04-05T10:46:35.000Z</time></trkpt>
<trkpt lat="42.179153" lon="23.585157"><ele>2933.3</ele><time>2026-04-05T10:46:36.000Z</time></trkpt>
<trkpt lat="42.179154" lon="23.585156"><ele>2933.3</ele><time>2026-04-05T10:46:37.000Z</time></trkpt>
<trkpt lat="42.179155" lon="23.585156"><ele>2933.3</ele><time>2026-04-05T10:46:38.000Z</time></trkpt>
<trkpt lat="42.179155" lon="23.585156"><ele>2933.2</ele><time>2026-04-05T10:46:39.000Z</time></trkpt>
<trkpt lat="42.179155" lon="23.585155"><ele>2933.2</ele><time>2026-04-05T10:46:40.000Z</time></trkpt>
<trkpt lat="42.179155" lon="23.585154"><ele>2933.2</ele><time>2026-04-05T10:46:41.000Z</time></trkpt>
<trkpt lat="42.179156" lon="23.585154"><ele>2933.2</ele><time>2026-04-05T10:46:42.000Z</time></trkpt>
<trkpt lat="42.179156" lon="23.585153"><ele>2933.2</ele><time>2026-04-05T10:46:43.000Z</time></trkpt>
<trkpt lat="42.179156" lon="23.585153"><ele>2933.2</ele><time>2026-04-05T10:46:44.000Z</time></trkpt>
<trkpt lat="42.179156" lon="23.585153"><ele>2933.2</ele><time>2026-04-05T10:46:45.000Z</time></trkpt>
<trkpt lat="42.179156" lon="23.585153"><ele>2933.2</ele><time>2026-04-05T10:46:46.000Z</time></trkpt>
<trkpt lat="42.179156" lon="23.585153"><ele>2933.2</ele><time>2026-04-05T10:46:47.000Z</time></trkpt>
<trkpt lat="42.179156" lon="23.585153"><ele>2933.2</ele><time>2026-04-05T10:46:48.000Z</time></trkpt>
<trkpt lat="42.179156" lon="23.585153"><ele>2933.1</ele><time>2026-04-05T10:46:49.000Z</time></trkpt>
<trkpt lat="42.179156" lon="23.585153"><ele>2933.1</ele><time>2026-04-05T10:46:50.000Z</time></trkpt>
<trkpt lat="42.179156" lon="23.585153"><ele>2933.1</ele><time>2026-04-05T10:46:51.000Z</time></trkpt>
<trkpt lat="42.179156" lon="23.585153"><ele>2933.1</ele><time>2026-04-05T10:46:52.000Z</time></trkpt>
<trkpt lat="42.179156" lon="23.585153"><ele>2933.1</ele><time>2026-04-05T10:46:53.000Z</time></trkpt>
<trkpt lat="42.179156" lon="23.585154"><ele>2933</ele><time>2026-04-05T10:46:54.000Z</time></trkpt>
<trkpt lat="42.179156" lon="23.585154"><ele>2933</ele><time>2026-04-05T10:46:55.000Z</time></trkpt>
<trkpt lat="42.179156" lon="23.585154"><ele>2933</ele><time>2026-04-05T10:46:56.000Z</time></trkpt>
<trkpt lat="42.179157" lon="23.585154"><ele>2933</ele><time>2026-04-05T10:46:57.000Z</time></trkpt>
<trkpt lat="42.179157" lon="23.585154"><ele>2933</ele><time>2026-04-05T10:46:58.000Z</time></trkpt>
<trkpt lat="42.179158" lon="23.585153"><ele>2932.9</ele><time>2026-04-05T10:46:59.000Z</time></trkpt>
<trkpt lat="42.179158" lon="23.585153"><ele>2932.9</ele><time>2026-04-05T10:47:00.000Z</time></trkpt>
<trkpt lat="42.179217" lon="23.585301"><ele>2933.1</ele><time>2026-04-05T11:08:19.000Z</time></trkpt>
<trkpt lat="42.179217" lon="23.585299"><ele>2933.2</ele><time>2026-04-05T11:08:20.000Z</time></trkpt>
<trkpt lat="42.179218" lon="23.5853"><ele>2933.1</ele><time>2026-04-05T11:08:21.000Z</time></trkpt>
<trkpt lat="42.179218" lon="23.585301"><ele>2932.9</ele><time>2026-04-05T11:08:22.000Z</time></trkpt>
<trkpt lat="42.179218" lon="23.585301"><ele>2932.5</ele><time>2026-04-05T11:08:23.000Z</time></trkpt>
<trkpt lat="42.179219" lon="23.5853"><ele>2932.2</ele><time>2026-04-05T11:08:24.000Z</time></trkpt>
<trkpt lat="42.17922" lon="23.585299"><ele>2932.3</ele><time>2026-04-05T11:08:25.000Z</time></trkpt>
<trkpt lat="42.179221" lon="23.585297"><ele>2932.7</ele><time>2026-04-05T11:08:26.000Z</time></trkpt>
<trkpt lat="42.179221" lon="23.585295"><ele>2933</ele><time>2026-04-05T11:08:27.000Z</time></trkpt>
<trkpt lat="42.179221" lon="23.585292"><ele>2933.1</ele><time>2026-04-05T11:08:28.000Z</time></trkpt>
<trkpt lat="42.179221" lon="23.58529"><ele>2933.1</ele><time>2026-04-05T11:08:29.000Z</time></trkpt>
<trkpt lat="42.17922" lon="23.585288"><ele>2933</ele><time>2026-04-05T11:08:30.000Z</time></trkpt>
<trkpt lat="42.17922" lon="23.585286"><ele>2932.9</ele><time>2026-04-05T11:08:31.000Z</time></trkpt>
<trkpt lat="42.179219" lon="23.585284"><ele>2932.9</ele><time>2026-04-05T11:08:32.000Z</time></trkpt>
<trkpt lat="42.179219" lon="23.585283"><ele>2933</ele><time>2026-04-05T11:08:33.000Z</time></trkpt>
<trkpt lat="42.179219" lon="23.585284"><ele>2933</ele><time>2026-04-05T11:08:34.000Z</time></trkpt>
<trkpt lat="42.179219" lon="23.585286"><ele>2932.7</ele><time>2026-04-05T11:08:35.000Z</time></trkpt>
<trkpt lat="42.179219" lon="23.58529"><ele>2932.1</ele><time>2026-04-05T11:08:36.000Z</time></trkpt>
<trkpt lat="42.179219" lon="23.585294"><ele>2931.9</ele><time>2026-04-05T11:08:37.000Z</time></trkpt>
<trkpt lat="42.17922" lon="23.585299"><ele>2931.8</ele><time>2026-04-05T11:08:38.000Z</time></trkpt>
<trkpt lat="42.17922" lon="23.585302"><ele>2931.9</ele><time>2026-04-05T11:08:39.000Z</time></trkpt>
<trkpt lat="42.17922" lon="23.585305"><ele>2932.1</ele><time>2026-04-05T11:08:40.000Z</time></trkpt>
<trkpt lat="42.179221" lon="23.585308"><ele>2932.4</ele><time>2026-04-05T11:08:41.000Z</time></trkpt>
<trkpt lat="42.179221" lon="23.585309"><ele>2932.8</ele><time>2026-04-05T11:08:42.000Z</time></trkpt>
<trkpt lat="42.179223" lon="23.585309"><ele>2932.9</ele><time>2026-04-05T11:08:43.000Z</time></trkpt>
<trkpt lat="42.179226" lon="23.585311"><ele>2932.9</ele><time>2026-04-05T11:08:44.000Z</time></trkpt>
<trkpt lat="42.179229" lon="23.585311"><ele>2933</ele><time>2026-04-05T11:08:45.000Z</time></trkpt>
<trkpt lat="42.179232" lon="23.585311"><ele>2933.1</ele><time>2026-04-05T11:08:46.000Z</time></trkpt>
<trkpt lat="42.179234" lon="23.585312"><ele>2933.5</ele><time>2026-04-05T11:08:47.000Z</time></trkpt>
<trkpt lat="42.179234" lon="23.585314"><ele>2933.8</ele><time>2026-04-05T11:08:48.000Z</time></trkpt>
<trkpt lat="42.179234" lon="23.585315"><ele>2933.9</ele><time>2026-04-05T11:08:49.000Z</time></trkpt>
<trkpt lat="42.179234" lon="23.585317"><ele>2933.9</ele><time>2026-04-05T11:08:50.000Z</time></trkpt>
<trkpt lat="42.179234" lon="23.585318"><ele>2933.9</ele><time>2026-04-05T11:08:51.000Z</time></trkpt>
<trkpt lat="42.179234" lon="23.585319"><ele>2934.1</ele><time>2026-04-05T11:08:52.000Z</time></trkpt>
<trkpt lat="42.179235" lon="23.585319"><ele>2934.5</ele><time>2026-04-05T11:08:53.000Z</time></trkpt>
<trkpt lat="42.179236" lon="23.585319"><ele>2935.2</ele><time>2026-04-05T11:08:54.000Z</time></trkpt>
<trkpt lat="42.179236" lon="23.585318"><ele>2935.5</ele><time>2026-04-05T11:08:55.000Z</time></trkpt>
<trkpt lat="42.179235" lon="23.585318"><ele>2935.3</ele><time>2026-04-05T11:08:56.000Z</time></trkpt>
<trkpt lat="42.179235" lon="23.585318"><ele>2934.1</ele><time>2026-04-05T11:08:57.000Z</time></trkpt>
<trkpt lat="42.179234" lon="23.585318"><ele>2933.3</ele><time>2026-04-05T11:08:58.000Z</time></trkpt>
<trkpt lat="42.179234" lon="23.585318"><ele>2932.3</ele><time>2026-04-05T11:08:59.000Z</time></trkpt>
<trkpt lat="42.179234" lon="23.585318"><ele>2931.8</ele><time>2026-04-05T11:09:00.000Z</time></trkpt>
<trkpt lat="42.179234" lon="23.585318"><ele>2931.6</ele><time>2026-04-05T11:09:01.000Z</time></trkpt>
<trkpt lat="42.179234" lon="23.585318"><ele>2930.8</ele><time>2026-04-05T11:09:02.000Z</time></trkpt>
<trkpt lat="42.179234" lon="23.585318"><ele>2929.4</ele><time>2026-04-05T11:09:03.000Z</time></trkpt>
<trkpt lat="42.179234" lon="23.585318"><ele>2928.7</ele><time>2026-04-05T11:09:04.000Z</time></trkpt>
<trkpt lat="42.179234" lon="23.585318"><ele>2927.1</ele><time>2026-04-05T11:09:05.000Z</time></trkpt>
<trkpt lat="42.179234" lon="23.585318"><ele>2925.4</ele><time>2026-04-05T11:09:06.000Z</time></trkpt>
<trkpt lat="42.179234" lon="23.585318"><ele>2924.5</ele><time>2026-04-05T11:09:07.000Z</time></trkpt>
<trkpt lat="42.179234" lon="23.585318"><ele>2922.9</ele><time>2026-04-05T11:09:08.000Z</time></trkpt>
<trkpt lat="42.179234" lon="23.585318"><ele>2921.2</ele><time>2026-04-05T11:09:09.000Z</time></trkpt>
<trkpt lat="42.179234" lon="23.585318"><ele>2920.3</ele><time>2026-04-05T11:09:10.000Z</time></trkpt>
<trkpt lat="42.179233" lon="23.585318"><ele>2918.6</ele><time>2026-04-05T11:09:11.000Z</time></trkpt>
<trkpt lat="42.179233" lon="23.585317"><ele>2917.1</ele><time>2026-04-05T11:09:12.000Z</time></trkpt>
<trkpt lat="42.179232" lon="23.585317"><ele>2916.5</ele><time>2026-04-05T11:09:13.000Z</time></trkpt>
<trkpt lat="42.179232" lon="23.585317"><ele>2915.1</ele><time>2026-04-05T11:09:14.000Z</time></trkpt>
<trkpt lat="42.179232" lon="23.585317"><ele>2913.6</ele><time>2026-04-05T11:09:15.000Z</time></trkpt>
<trkpt lat="42.179232" lon="23.585317"><ele>2912.8</ele><time>2026-04-05T11:09:16.000Z</time></trkpt>
<trkpt lat="42.179232" lon="23.585317"><ele>2911.5</ele><time>2026-04-05T11:09:17.000Z</time></trkpt>
<trkpt lat="42.179232" lon="23.585317"><ele>2910.5</ele><time>2026-04-05T11:09:18.000Z</time></trkpt>
<trkpt lat="42.179232" lon="23.585317"><ele>2910.1</ele><time>2026-04-05T11:09:19.000Z</time></trkpt>
<trkpt lat="42.179232" lon="23.585317"><ele>2909.5</ele><time>2026-04-05T11:09:20.000Z</time></trkpt>
<trkpt lat="42.179232" lon="23.585317"><ele>2908.8</ele><time>2026-04-05T11:09:21.000Z</time></trkpt>
<trkpt lat="42.179232" lon="23.585317"><ele>2908.3</ele><time>2026-04-05T11:09:22.000Z</time></trkpt>
<trkpt lat="42.179232" lon="23.585317"><ele>2907.3</ele><time>2026-04-05T11:09:23.000Z</time></trkpt>
<trkpt lat="42.179232" lon="23.585317"><ele>2906.1</ele><time>2026-04-05T11:09:24.000Z</time></trkpt>
<trkpt lat="42.179232" lon="23.585317"><ele>2905.5</ele><time>2026-04-05T11:09:25.000Z</time></trkpt>
<trkpt lat="42.179232" lon="23.585317"><ele>2904.3</ele><time>2026-04-05T11:09:26.000Z</time></trkpt>
<trkpt lat="42.179232" lon="23.585317"><ele>2903.4</ele><time>2026-04-05T11:09:27.000Z</time></trkpt>
<trkpt lat="42.179232" lon="23.585317"><ele>2903.1</ele><time>2026-04-05T11:09:28.000Z</time></trkpt>
<trkpt lat="42.179232" lon="23.585316"><ele>2902.5</ele><time>2026-04-05T11:09:29.000Z</time></trkpt>
<trkpt lat="42.17923" lon="23.585315"><ele>2902</ele><time>2026-04-05T11:09:30.000Z</time></trkpt>
<trkpt lat="42.179228" lon="23.585312"><ele>2901.9</ele><time>2026-04-05T11:09:31.000Z</time></trkpt>
<trkpt lat="42.179227" lon="23.58531"><ele>2902</ele><time>2026-04-05T11:09:32.000Z</time></trkpt>
<trkpt lat="42.179224" lon="23.585308"><ele>2902</ele><time>2026-04-05T11:09:33.000Z</time></trkpt>
<trkpt lat="42.179222" lon="23.585307"><ele>2902</ele><time>2026-04-05T11:09:34.000Z</time></trkpt>
<trkpt lat="42.179221" lon="23.585305"><ele>2901.9</ele><time>2026-04-05T11:09:35.000Z</time></trkpt>
<trkpt lat="42.179221" lon="23.585305"><ele>2901.4</ele><time>2026-04-05T11:09:36.000Z</time></trkpt>
<trkpt lat="42.17922" lon="23.585304"><ele>2901.1</ele><time>2026-04-05T11:09:37.000Z</time></trkpt>
<trkpt lat="42.17922" lon="23.585303"><ele>2900.5</ele><time>2026-04-05T11:09:38.000Z</time></trkpt>
<trkpt lat="42.179218" lon="23.5853"><ele>2900.3</ele><time>2026-04-05T11:09:39.000Z</time></trkpt>
<trkpt lat="42.179215" lon="23.585297"><ele>2900.4</ele><time>2026-04-05T11:09:40.000Z</time></trkpt>
<trkpt lat="42.17921" lon="23.585292"><ele>2900.6</ele><time>2026-04-05T11:09:41.000Z</time></trkpt>
<trkpt lat="42.179206" lon="23.585284"><ele>2900.7</ele><time>2026-04-05T11:09:42.000Z</time></trkpt>
<trkpt lat="42.1792" lon="23.585276"><ele>2900.7</ele><time>2026-04-05T11:09:43.000Z</time></trkpt>
<trkpt lat="42.179196" lon="23.585267"><ele>2900.4</ele><time>2026-04-05T11:09:44.000Z</time></trkpt>
<trkpt lat="42.179192" lon="23.585258"><ele>2900.4</ele><time>2026-04-05T11:09:45.000Z</time></trkpt>
<trkpt lat="42.179188" lon="23.585248"><ele>2900.4</ele><time>2026-04-05T11:09:46.000Z</time></trkpt>
<trkpt lat="42.179185" lon="23.585239"><ele>2900.4</ele><time>2026-04-05T11:09:47.000Z</time></trkpt>
<trkpt lat="42.179183" lon="23.585229"><ele>2900.4</ele><time>2026-04-05T11:09:48.000Z</time></trkpt>
<trkpt lat="42.179181" lon="23.585218"><ele>2900.4</ele><time>2026-04-05T11:09:49.000Z</time></trkpt>
<trkpt lat="42.179181" lon="23.585211"><ele>2900.4</ele><time>2026-04-05T11:09:50.000Z</time></trkpt>
<trkpt lat="42.179182" lon="23.585205"><ele>2900.4</ele><time>2026-04-05T11:09:51.000Z</time></trkpt>
<trkpt lat="42.179182" lon="23.585201"><ele>2900.4</ele><time>2026-04-05T11:09:52.000Z</time></trkpt>
<trkpt lat="42.179183" lon="23.585199"><ele>2900.4</ele><time>2026-04-05T11:09:53.000Z</time></trkpt>
<trkpt lat="42.179183" lon="23.585197"><ele>2900.4</ele><time>2026-04-05T11:09:54.000Z</time></trkpt>
<trkpt lat="42.179183" lon="23.585195"><ele>2900.4</ele><time>2026-04-05T11:09:55.000Z</time></trkpt>
<trkpt lat="42.179182" lon="23.585191"><ele>2900.4</ele><time>2026-04-05T11:09:56.000Z</time></trkpt>
<trkpt lat="42.179182" lon="23.585186"><ele>2900.4</ele><time>2026-04-05T11:09:57.000Z</time></trkpt>
<trkpt lat="42.179182" lon="23.58518"><ele>2900.4</ele><time>2026-04-05T11:09:58.000Z</time></trkpt>
<trkpt lat="42.179182" lon="23.585177"><ele>2900.4</ele><time>2026-04-05T11:09:59.000Z</time></trkpt>
<trkpt lat="42.179184" lon="23.585174"><ele>2900.4</ele><time>2026-04-05T11:10:00.000Z</time></trkpt>
<trkpt lat="42.179186" lon="23.585175"><ele>2900.4</ele><time>2026-04-05T11:10:01.000Z</time></trkpt>
<trkpt lat="42.179187" lon="23.585176"><ele>2900.4</ele><time>2026-04-05T11:10:02.000Z</time></trkpt>
<trkpt lat="42.179187" lon="23.585179"><ele>2900.4</ele><time>2026-04-05T11:10:03.000Z</time></trkpt>
<trkpt lat="42.179187" lon="23.585179"><ele>2900.4</ele><time>2026-04-05T11:10:04.000Z</time></trkpt>
<trkpt lat="42.179187" lon="23.585178"><ele>2900.4</ele><time>2026-04-05T11:10:05.000Z</time></trkpt>
<trkpt lat="42.179187" lon="23.585176"><ele>2900.4</ele><time>2026-04-05T11:10:06.000Z</time></trkpt>
<trkpt lat="42.179188" lon="23.585173"><ele>2900.4</ele><time>2026-04-05T11:10:07.000Z</time></trkpt>
<trkpt lat="42.179189" lon="23.585171"><ele>2900.4</ele><time>2026-04-05T11:10:08.000Z</time></trkpt>
<trkpt lat="42.179189" lon="23.58517"><ele>2900.4</ele><time>2026-04-05T11:10:09.000Z</time></trkpt>
<trkpt lat="42.179189" lon="23.585169"><ele>2900.4</ele><time>2026-04-05T11:10:10.000Z</time></trkpt>
<trkpt lat="42.179189" lon="23.585168"><ele>2900.4</ele><time>2026-04-05T11:10:11.000Z</time></trkpt>
<trkpt lat="42.179189" lon="23.585168"><ele>2900.4</ele><time>2026-04-05T11:10:12.000Z</time></trkpt>
<trkpt lat="42.179188" lon="23.585167"><ele>2900.4</ele><time>2026-04-05T11:10:13.000Z</time></trkpt>
<trkpt lat="42.17919" lon="23.585167"><ele>2900.4</ele><time>2026-04-05T11:10:14.000Z</time></trkpt>
<trkpt lat="42.179193" lon="23.585168"><ele>2900.4</ele><time>2026-04-05T11:10:15.000Z</time></trkpt>
<trkpt lat="42.179196" lon="23.585171"><ele>2900.4</ele><time>2026-04-05T11:10:16.000Z</time></trkpt>
<trkpt lat="42.179198" lon="23.585173"><ele>2900.4</ele><time>2026-04-05T11:10:17.000Z</time></trkpt>
<trkpt lat="42.1792" lon="23.585176"><ele>2900.4</ele><time>2026-04-05T11:10:18.000Z</time></trkpt>
<trkpt lat="42.179199" lon="23.585177"><ele>2900.4</ele><time>2026-04-05T11:10:19.000Z</time></trkpt>
<trkpt lat="42.179198" lon="23.585178"><ele>2900.4</ele><time>2026-04-05T11:10:20.000Z</time></trkpt>
<trkpt lat="42.179197" lon="23.585178"><ele>2900.4</ele><time>2026-04-05T11:10:21.000Z</time></trkpt>
<trkpt lat="42.179196" lon="23.585176"><ele>2900.4</ele><time>2026-04-05T11:10:22.000Z</time></trkpt>
<trkpt lat="42.179198" lon="23.585174"><ele>2900.4</ele><time>2026-04-05T11:10:23.000Z</time></trkpt>
<trkpt lat="42.1792" lon="23.585171"><ele>2900.4</ele><time>2026-04-05T11:10:24.000Z</time></trkpt>
<trkpt lat="42.179204" lon="23.585168"><ele>2900.4</ele><time>2026-04-05T11:10:25.000Z</time></trkpt>
<trkpt lat="42.179209" lon="23.585166"><ele>2900.4</ele><time>2026-04-05T11:10:26.000Z</time></trkpt>
<trkpt lat="42.179213" lon="23.585165"><ele>2900.4</ele><time>2026-04-05T11:10:27.000Z</time></trkpt>
<trkpt lat="42.179216" lon="23.585167"><ele>2900.4</ele><time>2026-04-05T11:10:28.000Z</time></trkpt>
<trkpt lat="42.179218" lon="23.58517"><ele>2900.4</ele><time>2026-04-05T11:10:29.000Z</time></trkpt>
<trkpt lat="42.17922" lon="23.585173"><ele>2900.4</ele><time>2026-04-05T11:10:30.000Z</time></trkpt>
<trkpt lat="42.179221" lon="23.585176"><ele>2900.4</ele><time>2026-04-05T11:10:31.000Z</time></trkpt>
<trkpt lat="42.179222" lon="23.585178"><ele>2900.4</ele><time>2026-04-05T11:10:32.000Z</time></trkpt>
<trkpt lat="42.179223" lon="23.58518"><ele>2900.4</ele><time>2026-04-05T11:10:33.000Z</time></trkpt>
<trkpt lat="42.179224" lon="23.585183"><ele>2900.4</ele><time>2026-04-05T11:10:34.000Z</time></trkpt>
<trkpt lat="42.179225" lon="23.585186"><ele>2900.4</ele><time>2026-04-05T11:10:35.000Z</time></trkpt>
<trkpt lat="42.179226" lon="23.585188"><ele>2900.4</ele><time>2026-04-05T11:10:36.000Z</time></trkpt>
<trkpt lat="42.179226" lon="23.58519"><ele>2900.4</ele><time>2026-04-05T11:10:37.000Z</time></trkpt>
<trkpt lat="42.179226" lon="23.585192"><ele>2900.4</ele><time>2026-04-05T11:10:38.000Z</time></trkpt>
<trkpt lat="42.179226" lon="23.585193"><ele>2900.4</ele><time>2026-04-05T11:10:39.000Z</time></trkpt>
<trkpt lat="42.179226" lon="23.585195"><ele>2900.4</ele><time>2026-04-05T11:10:40.000Z</time></trkpt>
<trkpt lat="42.179226" lon="23.585195"><ele>2900.4</ele><time>2026-04-05T11:10:41.000Z</time></trkpt>
<trkpt lat="42.179226" lon="23.585196"><ele>2900.4</ele><time>2026-04-05T11:10:42.000Z</time></trkpt>
<trkpt lat="42.179226" lon="23.585196"><ele>2900.4</ele><time>2026-04-05T11:10:43.000Z</time></trkpt>
<trkpt lat="42.179226" lon="23.585196"><ele>2900.4</ele><time>2026-04-05T11:10:44.000Z</time></trkpt>
<trkpt lat="42.179226" lon="23.585196"><ele>2900.4</ele><time>2026-04-05T11:10:45.000Z</time></trkpt>
<trkpt lat="42.179226" lon="23.585196"><ele>2900.4</ele><time>2026-04-05T11:10:46.000Z</time></trkpt>
<trkpt lat="42.179227" lon="23.585196"><ele>2900.4</ele><time>2026-04-05T11:10:47.000Z</time></trkpt>
<trkpt lat="42.179229" lon="23.585197"><ele>2900.4</ele><time>2026-04-05T11:10:48.000Z</time></trkpt>
<trkpt lat="42.179232" lon="23.585198"><ele>2900.4</ele><time>2026-04-05T11:10:49.000Z</time></trkpt>
<trkpt lat="42.179235" lon="23.585199"><ele>2900.4</ele><time>2026-04-05T11:10:50.000Z</time></trkpt>
<trkpt lat="42.179239" lon="23.585203"><ele>2900.4</ele><time>2026-04-05T11:10:51.000Z</time></trkpt>
<trkpt lat="42.179242" lon="23.585207"><ele>2900.4</ele><time>2026-04-05T11:10:52.000Z</time></trkpt>
<trkpt lat="42.179245" lon="23.585212"><ele>2900.4</ele><time>2026-04-05T11:10:53.000Z</time></trkpt>
<trkpt lat="42.179248" lon="23.585217"><ele>2900.4</ele><time>2026-04-05T11:10:54.000Z</time></trkpt>
<trkpt lat="42.179252" lon="23.585222"><ele>2900.4</ele><time>2026-04-05T11:10:55.000Z</time></trkpt>
<trkpt lat="42.179256" lon="23.585227"><ele>2900.4</ele><time>2026-04-05T11:10:56.000Z</time></trkpt>
<trkpt lat="42.179261" lon="23.585231"><ele>2900.4</ele><time>2026-04-05T11:10:57.000Z</time></trkpt>
<trkpt lat="42.179267" lon="23.585237"><ele>2900.4</ele><time>2026-04-05T11:10:58.000Z</time></trkpt>
<trkpt lat="42.179275" lon="23.585244"><ele>2900.4</ele><time>2026-04-05T11:10:59.000Z</time></trkpt>
<trkpt lat="42.179282" lon="23.585251"><ele>2900.4</ele><time>2026-04-05T11:11:00.000Z</time></trkpt>
<trkpt lat="42.179289" lon="23.585255"><ele>2900.4</ele><time>2026-04-05T11:11:01.000Z</time></trkpt>
<trkpt lat="42.179296" lon="23.585258"><ele>2900.4</ele><time>2026-04-05T11:11:02.000Z</time></trkpt>
<trkpt lat="42.179301" lon="23.585257"><ele>2900.4</ele><time>2026-04-05T11:11:03.000Z</time></trkpt>
<trkpt lat="42.179305" lon="23.585255"><ele>2900.4</ele><time>2026-04-05T11:11:04.000Z</time></trkpt>
<trkpt lat="42.179308" lon="23.58525"><ele>2900.4</ele><time>2026-04-05T11:11:05.000Z</time></trkpt>
<trkpt lat="42.17931" lon="23.585244"><ele>2900.4</ele><time>2026-04-05T11:11:06.000Z</time></trkpt>
<trkpt lat="42.179312" lon="23.585238"><ele>2900.4</ele><time>2026-04-05T11:11:07.000Z</time></trkpt>
<trkpt lat="42.179313" lon="23.585233"><ele>2900.4</ele><time>2026-04-05T11:11:08.000Z</time></trkpt>
<trkpt lat="42.179314" lon="23.585228"><ele>2900.4</ele><time>2026-04-05T11:11:09.000Z</time></trkpt>
<trkpt lat="42.179315" lon="23.585224"><ele>2900.4</ele><time>2026-04-05T11:11:10.000Z</time></trkpt>
<trkpt lat="42.179315" lon="23.585221"><ele>2900.4</ele><time>2026-04-05T11:11:11.000Z</time></trkpt>
<trkpt lat="42.179316" lon="23.585217"><ele>2900.4</ele><time>2026-04-05T11:11:12.000Z</time></trkpt>
<trkpt lat="42.179317" lon="23.585212"><ele>2900.4</ele><time>2026-04-05T11:11:13.000Z</time></trkpt>
<trkpt lat="42.179318" lon="23.585206"><ele>2900.4</ele><time>2026-04-05T11:11:14.000Z</time></trkpt>
<trkpt lat="42.17932" lon="23.5852"><ele>2900.4</ele><time>2026-04-05T11:11:15.000Z</time></trkpt>
<trkpt lat="42.179323" lon="23.585193"><ele>2900.4</ele><time>2026-04-05T11:11:16.000Z</time></trkpt>
<trkpt lat="42.179325" lon="23.585186"><ele>2900.4</ele><time>2026-04-05T11:11:17.000Z</time></trkpt>
<trkpt lat="42.179329" lon="23.58518"><ele>2900.4</ele><time>2026-04-05T11:11:18.000Z</time></trkpt>
<trkpt lat="42.179334" lon="23.585174"><ele>2900.4</ele><time>2026-04-05T11:11:19.000Z</time></trkpt>
<trkpt lat="42.179338" lon="23.58517"><ele>2900.4</ele><time>2026-04-05T11:11:20.000Z</time></trkpt>
<trkpt lat="42.179342" lon="23.585167"><ele>2900.4</ele><time>2026-04-05T11:11:21.000Z</time></trkpt>
<trkpt lat="42.179346" lon="23.585166"><ele>2900.4</ele><time>2026-04-05T11:11:22.000Z</time></trkpt>
<trkpt lat="42.17935" lon="23.585164"><ele>2900.4</ele><time>2026-04-05T11:11:23.000Z</time></trkpt>
<trkpt lat="42.179353" lon="23.585163"><ele>2900.4</ele><time>2026-04-05T11:11:24.000Z</time></trkpt>
<trkpt lat="42.179356" lon="23.585161"><ele>2900.4</ele><time>2026-04-05T11:11:25.000Z</time></trkpt>
<trkpt lat="42.179359" lon="23.585158"><ele>2900.4</ele><time>2026-04-05T11:11:26.000Z</time></trkpt>
<trkpt lat="42.179362" lon="23.585154"><ele>2900.4</ele><time>2026-04-05T11:11:27.000Z</time></trkpt>
<trkpt lat="42.179366" lon="23.585149"><ele>2900.4</ele><time>2026-04-05T11:11:28.000Z</time></trkpt>
<trkpt lat="42.179369" lon="23.585142"><ele>2900.4</ele><time>2026-04-05T11:11:29.000Z</time></trkpt>
<trkpt lat="42.179373" lon="23.585132"><ele>2900.4</ele><time>2026-04-05T11:11:30.000Z</time></trkpt>
<trkpt lat="42.179377" lon="23.585123"><ele>2900.4</ele><time>2026-04-05T11:11:31.000Z</time></trkpt>
<trkpt lat="42.179379" lon="23.585116"><ele>2900.4</ele><time>2026-04-05T11:11:32.000Z</time></trkpt>
<trkpt lat="42.17938" lon="23.585109"><ele>2900.4</ele><time>2026-04-05T11:11:33.000Z</time></trkpt>
<trkpt lat="42.179383" lon="23.585104"><ele>2900.4</ele><time>2026-04-05T11:11:34.000Z</time></trkpt>
<trkpt lat="42.179385" lon="23.585102"><ele>2900.4</ele><time>2026-04-05T11:11:35.000Z</time></trkpt>
<trkpt lat="42.179389" lon="23.5851"><ele>2900.4</ele><time>2026-04-05T11:11:36.000Z</time></trkpt>
<trkpt lat="42.179396" lon="23.585097"><ele>2900.4</ele><time>2026-04-05T11:11:37.000Z</time></trkpt>
<trkpt lat="42.179403" lon="23.585095"><ele>2900.4</ele><time>2026-04-05T11:11:38.000Z</time></trkpt>
<trkpt lat="42.17941" lon="23.585092"><ele>2900.4</ele><time>2026-04-05T11:11:39.000Z</time></trkpt>
<trkpt lat="42.179419" lon="23.58509"><ele>2900.4</ele><time>2026-04-05T11:11:40.000Z</time></trkpt>
<trkpt lat="42.179427" lon="23.585087"><ele>2900.4</ele><time>2026-04-05T11:11:41.000Z</time></trkpt>
<trkpt lat="42.179434" lon="23.585084"><ele>2900.4</ele><time>2026-04-05T11:11:42.000Z</time></trkpt>
<trkpt lat="42.179442" lon="23.585082"><ele>2900.4</ele><time>2026-04-05T11:11:43.000Z</time></trkpt>
<trkpt lat="42.17945" lon="23.585078"><ele>2900.4</ele><time>2026-04-05T11:11:44.000Z</time></trkpt>
<trkpt lat="42.179458" lon="23.585074"><ele>2900.4</ele><time>2026-04-05T11:11:45.000Z</time></trkpt>
<trkpt lat="42.179467" lon="23.58507"><ele>2900.4</ele><time>2026-04-05T11:11:46.000Z</time></trkpt>
<trkpt lat="42.179476" lon="23.585066"><ele>2900.4</ele><time>2026-04-05T11:11:47.000Z</time></trkpt>
<trkpt lat="42.179486" lon="23.585062"><ele>2900.4</ele><time>2026-04-05T11:11:48.000Z</time></trkpt>
<trkpt lat="42.179495" lon="23.585058"><ele>2900.4</ele><time>2026-04-05T11:11:49.000Z</time></trkpt>
<trkpt lat="42.179504" lon="23.585054"><ele>2900.4</ele><time>2026-04-05T11:11:50.000Z</time></trkpt>
<trkpt lat="42.179512" lon="23.585051"><ele>2900.4</ele><time>2026-04-05T11:11:51.000Z</time></trkpt>
<trkpt lat="42.179521" lon="23.585046"><ele>2900.4</ele><time>2026-04-05T11:11:52.000Z</time></trkpt>
<trkpt lat="42.179531" lon="23.585041"><ele>2900.4</ele><time>2026-04-05T11:11:53.000Z</time></trkpt>
<trkpt lat="42.179541" lon="23.585036"><ele>2900.4</ele><time>2026-04-05T11:11:54.000Z</time></trkpt>
<trkpt lat="42.179551" lon="23.585029"><ele>2900.4</ele><time>2026-04-05T11:11:55.000Z</time></trkpt>
<trkpt lat="42.17956" lon="23.585022"><ele>2900.4</ele><time>2026-04-05T11:11:56.000Z</time></trkpt>
<trkpt lat="42.179568" lon="23.585016"><ele>2900.4</ele><time>2026-04-05T11:11:57.000Z</time></trkpt>
<trkpt lat="42.179576" lon="23.585011"><ele>2900.4</ele><time>2026-04-05T11:11:58.000Z</time></trkpt>
<trkpt lat="42.179583" lon="23.585006"><ele>2900.4</ele><time>2026-04-05T11:11:59.000Z</time></trkpt>
<trkpt lat="42.179591" lon="23.585002"><ele>2900.4</ele><time>2026-04-05T11:12:00.000Z</time></trkpt>
<trkpt lat="42.179599" lon="23.584999"><ele>2900.4</ele><time>2026-04-05T11:12:01.000Z</time></trkpt>
<trkpt lat="42.179608" lon="23.584994"><ele>2900.4</ele><time>2026-04-05T11:12:02.000Z</time></trkpt>
<trkpt lat="42.179615" lon="23.58499"><ele>2900.4</ele><time>2026-04-05T11:12:03.000Z</time></trkpt>
<trkpt lat="42.179622" lon="23.584985"><ele>2900.4</ele><time>2026-04-05T11:12:04.000Z</time></trkpt>
<trkpt lat="42.17963" lon="23.58498"><ele>2900.4</ele><time>2026-04-05T11:12:05.000Z</time></trkpt>
<trkpt lat="42.179638" lon="23.584976"><ele>2900.4</ele><time>2026-04-05T11:12:06.000Z</time></trkpt>
<trkpt lat="42.179647" lon="23.584971"><ele>2900.4</ele><time>2026-04-05T11:12:07.000Z</time></trkpt>
<trkpt lat="42.179657" lon="23.584965"><ele>2900.4</ele><time>2026-04-05T11:12:08.000Z</time></trkpt>
<trkpt lat="42.179667" lon="23.584961"><ele>2900.4</ele><time>2026-04-05T11:12:09.000Z</time></trkpt>
<trkpt lat="42.179677" lon="23.584957"><ele>2900.4</ele><time>2026-04-05T11:12:10.000Z</time></trkpt>
<trkpt lat="42.179687" lon="23.584952"><ele>2900.4</ele><time>2026-04-05T11:12:11.000Z</time></trkpt>
<trkpt lat="42.179698" lon="23.584947"><ele>2900.4</ele><time>2026-04-05T11:12:12.000Z</time></trkpt>
<trkpt lat="42.179708" lon="23.584943"><ele>2900.4</ele><time>2026-04-05T11:12:13.000Z</time></trkpt>
<trkpt lat="42.179717" lon="23.584938"><ele>2900.4</ele><time>2026-04-05T11:12:14.000Z</time></trkpt>
<trkpt lat="42.179727" lon="23.584933"><ele>2900.4</ele><time>2026-04-05T11:12:15.000Z</time></trkpt>
<trkpt lat="42.179738" lon="23.584929"><ele>2900.4</ele><time>2026-04-05T11:12:16.000Z</time></trkpt>
<trkpt lat="42.179748" lon="23.584926"><ele>2900.4</ele><time>2026-04-05T11:12:17.000Z</time></trkpt>
<trkpt lat="42.179758" lon="23.584923"><ele>2900.4</ele><time>2026-04-05T11:12:18.000Z</time></trkpt>
<trkpt lat="42.179769" lon="23.58492"><ele>2900.4</ele><time>2026-04-05T11:12:19.000Z</time></trkpt>
<trkpt lat="42.179778" lon="23.584916"><ele>2900.4</ele><time>2026-04-05T11:12:20.000Z</time></trkpt>
<trkpt lat="42.179787" lon="23.584912"><ele>2900.4</ele><time>2026-04-05T11:12:21.000Z</time></trkpt>
<trkpt lat="42.179796" lon="23.584908"><ele>2900.4</ele><time>2026-04-05T11:12:22.000Z</time></trkpt>
<trkpt lat="42.179804" lon="23.584904"><ele>2900.4</ele><time>2026-04-05T11:12:23.000Z</time></trkpt>
<trkpt lat="42.179812" lon="23.5849"><ele>2900.4</ele><time>2026-04-05T11:12:24.000Z</time></trkpt>
<trkpt lat="42.179821" lon="23.584898"><ele>2900.4</ele><time>2026-04-05T11:12:25.000Z</time></trkpt>
<trkpt lat="42.17983" lon="23.584895"><ele>2900.4</ele><time>2026-04-05T11:12:26.000Z</time></trkpt>
<trkpt lat="42.179838" lon="23.584892"><ele>2900.4</ele><time>2026-04-05T11:12:27.000Z</time></trkpt>
<trkpt lat="42.179847" lon="23.58489"><ele>2900.4</ele><time>2026-04-05T11:12:28.000Z</time></trkpt>
<trkpt lat="42.179855" lon="23.584889"><ele>2900.4</ele><time>2026-04-05T11:12:29.000Z</time></trkpt>
<trkpt lat="42.179865" lon="23.584887"><ele>2900.4</ele><time>2026-04-05T11:12:30.000Z</time></trkpt>
<trkpt lat="42.179875" lon="23.584887"><ele>2900.4</ele><time>2026-04-05T11:12:31.000Z</time></trkpt>
<trkpt lat="42.179885" lon="23.584886"><ele>2900.4</ele><time>2026-04-05T11:12:32.000Z</time></trkpt>
<trkpt lat="42.179896" lon="23.584886"><ele>2900.4</ele><time>2026-04-05T11:12:33.000Z</time></trkpt>
<trkpt lat="42.179905" lon="23.584885"><ele>2900.4</ele><time>2026-04-05T11:12:34.000Z</time></trkpt>
<trkpt lat="42.179915" lon="23.584885"><ele>2900.4</ele><time>2026-04-05T11:12:35.000Z</time></trkpt>
<trkpt lat="42.179924" lon="23.584884"><ele>2900.4</ele><time>2026-04-05T11:12:36.000Z</time></trkpt>
<trkpt lat="42.179934" lon="23.584884"><ele>2900.4</ele><time>2026-04-05T11:12:37.000Z</time></trkpt>
<trkpt lat="42.179944" lon="23.584884"><ele>2900.4</ele><time>2026-04-05T11:12:38.000Z</time></trkpt>
<trkpt lat="42.179955" lon="23.584884"><ele>2900.4</ele><time>2026-04-05T11:12:39.000Z</time></trkpt>
<trkpt lat="42.179965" lon="23.584883"><ele>2900.4</ele><time>2026-04-05T11:12:40.000Z</time></trkpt>
<trkpt lat="42.179975" lon="23.584882"><ele>2900.4</ele><time>2026-04-05T11:12:41.000Z</time></trkpt>
<trkpt lat="42.179985" lon="23.584881"><ele>2900.4</ele><time>2026-04-05T11:12:42.000Z</time></trkpt>
<trkpt lat="42.179995" lon="23.584881"><ele>2900.4</ele><time>2026-04-05T11:12:43.000Z</time></trkpt>
<trkpt lat="42.180005" lon="23.584881"><ele>2900.4</ele><time>2026-04-05T11:12:44.000Z</time></trkpt>
<trkpt lat="42.180016" lon="23.584882"><ele>2900.4</ele><time>2026-04-05T11:12:45.000Z</time></trkpt>
<trkpt lat="42.180026" lon="23.584882"><ele>2900.4</ele><time>2026-04-05T11:12:46.000Z</time></trkpt>
<trkpt lat="42.180036" lon="23.584881"><ele>2900.4</ele><time>2026-04-05T11:12:47.000Z</time></trkpt>
<trkpt lat="42.180045" lon="23.584881"><ele>2900.4</ele><time>2026-04-05T11:12:48.000Z</time></trkpt>
<trkpt lat="42.180054" lon="23.584879"><ele>2900.4</ele><time>2026-04-05T11:12:49.000Z</time></trkpt>
<trkpt lat="42.180061" lon="23.584878"><ele>2900.4</ele><time>2026-04-05T11:12:50.000Z</time></trkpt>
<trkpt lat="42.180067" lon="23.584876"><ele>2900.4</ele><time>2026-04-05T11:12:51.000Z</time></trkpt>
<trkpt lat="42.180074" lon="23.584873"><ele>2900.4</ele><time>2026-04-05T11:12:52.000Z</time></trkpt>
<trkpt lat="42.180081" lon="23.584871"><ele>2900.4</ele><time>2026-04-05T11:12:53.000Z</time></trkpt>
<trkpt lat="42.180088" lon="23.584868"><ele>2900.4</ele><time>2026-04-05T11:12:54.000Z</time></trkpt>
<trkpt lat="42.180097" lon="23.584866"><ele>2900.4</ele><time>2026-04-05T11:12:55.000Z</time></trkpt>
<trkpt lat="42.180106" lon="23.584866"><ele>2900.4</ele><time>2026-04-05T11:12:56.000Z</time></trkpt>
<trkpt lat="42.180115" lon="23.584865"><ele>2900.4</ele><time>2026-04-05T11:12:57.000Z</time></trkpt>
<trkpt lat="42.180123" lon="23.584864"><ele>2900.4</ele><time>2026-04-05T11:12:58.000Z</time></trkpt>
<trkpt lat="42.180131" lon="23.584863"><ele>2900.4</ele><time>2026-04-05T11:12:59.000Z</time></trkpt>
<trkpt lat="42.180139" lon="23.584863"><ele>2900.4</ele><time>2026-04-05T11:13:00.000Z</time></trkpt>
<trkpt lat="42.180147" lon="23.584862"><ele>2900.4</ele><time>2026-04-05T11:13:01.000Z</time></trkpt>
<trkpt lat="42.180156" lon="23.584863"><ele>2900.4</ele><time>2026-04-05T11:13:02.000Z</time></trkpt>
<trkpt lat="42.180163" lon="23.584864"><ele>2900.4</ele><time>2026-04-05T11:13:03.000Z</time></trkpt>
<trkpt lat="42.18017" lon="23.584865"><ele>2900.4</ele><time>2026-04-05T11:13:04.000Z</time></trkpt>
<trkpt lat="42.180174" lon="23.584865"><ele>2900.4</ele><time>2026-04-05T11:13:05.000Z</time></trkpt>
<trkpt lat="42.180177" lon="23.584865"><ele>2900.4</ele><time>2026-04-05T11:13:06.000Z</time></trkpt>
<trkpt lat="42.180181" lon="23.584865"><ele>2900.4</ele><time>2026-04-05T11:13:07.000Z</time></trkpt>
<trkpt lat="42.180185" lon="23.584865"><ele>2900.4</ele><time>2026-04-05T11:13:08.000Z</time></trkpt>
<trkpt lat="42.18019" lon="23.584865"><ele>2900.4</ele><time>2026-04-05T11:13:09.000Z</time></trkpt>
<trkpt lat="42.180199" lon="23.584865"><ele>2900.4</ele><time>2026-04-05T11:13:10.000Z</time></trkpt>
<trkpt lat="42.180208" lon="23.584865"><ele>2900.4</ele><time>2026-04-05T11:13:11.000Z</time></trkpt>
<trkpt lat="42.180217" lon="23.584865"><ele>2900.4</ele><time>2026-04-05T11:13:12.000Z</time></trkpt>
<trkpt lat="42.180227" lon="23.584865"><ele>2900.4</ele><time>2026-04-05T11:13:13.000Z</time></trkpt>
<trkpt lat="42.180238" lon="23.584866"><ele>2900.4</ele><time>2026-04-05T11:13:14.000Z</time></trkpt>
<trkpt lat="42.180247" lon="23.584868"><ele>2900.4</ele><time>2026-04-05T11:13:15.000Z</time></trkpt>
<trkpt lat="42.180256" lon="23.584871"><ele>2900.4</ele><time>2026-04-05T11:13:16.000Z</time></trkpt>
<trkpt lat="42.180264" lon="23.584875"><ele>2900.4</ele><time>2026-04-05T11:13:17.000Z</time></trkpt>
<trkpt lat="42.180273" lon="23.58488"><ele>2900.4</ele><time>2026-04-05T11:13:18.000Z</time></trkpt>
<trkpt lat="42.180281" lon="23.584884"><ele>2900.4</ele><time>2026-04-05T11:13:19.000Z</time></trkpt>
<trkpt lat="42.18029" lon="23.584887"><ele>2900.4</ele><time>2026-04-05T11:13:20.000Z</time></trkpt>
<trkpt lat="42.180299" lon="23.58489"><ele>2900.4</ele><time>2026-04-05T11:13:21.000Z</time></trkpt>
<trkpt lat="42.180308" lon="23.584891"><ele>2900.4</ele><time>2026-04-05T11:13:22.000Z</time></trkpt>
<trkpt lat="42.180318" lon="23.584892"><ele>2900.4</ele><time>2026-04-05T11:13:23.000Z</time></trkpt>
<trkpt lat="42.180327" lon="23.584893"><ele>2900.4</ele><time>2026-04-05T11:13:24.000Z</time></trkpt>
<trkpt lat="42.180337" lon="23.584895"><ele>2900.4</ele><time>2026-04-05T11:13:25.000Z</time></trkpt>
<trkpt lat="42.180347" lon="23.584897"><ele>2900.4</ele><time>2026-04-05T11:13:26.000Z</time></trkpt>
<trkpt lat="42.180357" lon="23.584898"><ele>2900.4</ele><time>2026-04-05T11:13:27.000Z</time></trkpt>
<trkpt lat="42.180366" lon="23.584899"><ele>2900.4</ele><time>2026-04-05T11:13:28.000Z</time></trkpt>
<trkpt lat="42.180376" lon="23.5849"><ele>2900.4</ele><time>2026-04-05T11:13:29.000Z</time></trkpt>
<trkpt lat="42.180386" lon="23.5849"><ele>2900.4</ele><time>2026-04-05T11:13:30.000Z</time></trkpt>
<trkpt lat="42.180394" lon="23.5849"><ele>2900.4</ele><time>2026-04-05T11:13:31.000Z</time></trkpt>
<trkpt lat="42.180401" lon="23.584899"><ele>2900.4</ele><time>2026-04-05T11:13:32.000Z</time></trkpt>
<trkpt lat="42.180407" lon="23.584898"><ele>2900.4</ele><time>2026-04-05T11:13:33.000Z</time></trkpt>
<trkpt lat="42.180413" lon="23.584897"><ele>2900.4</ele><time>2026-04-05T11:13:34.000Z</time></trkpt>
<trkpt lat="42.18042" lon="23.584896"><ele>2900.4</ele><time>2026-04-05T11:13:35.000Z</time></trkpt>
<trkpt lat="42.180426" lon="23.584895"><ele>2900.4</ele><time>2026-04-05T11:13:36.000Z</time></trkpt>
<trkpt lat="42.180433" lon="23.584895"><ele>2900.4</ele><time>2026-04-05T11:13:37.000Z</time></trkpt>
<trkpt lat="42.180441" lon="23.584894"><ele>2900.4</ele><time>2026-04-05T11:13:38.000Z</time></trkpt>
<trkpt lat="42.180449" lon="23.584892"><ele>2900.4</ele><time>2026-04-05T11:13:39.000Z</time></trkpt>
<trkpt lat="42.180456" lon="23.58489"><ele>2900.4</ele><time>2026-04-05T11:13:40.000Z</time></trkpt>
<trkpt lat="42.180464" lon="23.584889"><ele>2900.4</ele><time>2026-04-05T11:13:41.000Z</time></trkpt>
<trkpt lat="42.180472" lon="23.584889"><ele>2900.4</ele><time>2026-04-05T11:13:42.000Z</time></trkpt>
<trkpt lat="42.18048" lon="23.58489"><ele>2900.4</ele><time>2026-04-05T11:13:43.000Z</time></trkpt>
<trkpt lat="42.180488" lon="23.584892"><ele>2900.4</ele><time>2026-04-05T11:13:44.000Z</time></trkpt>
<trkpt lat="42.180496" lon="23.584894"><ele>2900.4</ele><time>2026-04-05T11:13:45.000Z</time></trkpt>
<trkpt lat="42.180501" lon="23.584895"><ele>2900.4</ele><time>2026-04-05T11:13:46.000Z</time></trkpt>
<trkpt lat="42.180504" lon="23.584896"><ele>2900.4</ele><time>2026-04-05T11:13:47.000Z</time></trkpt>
<trkpt lat="42.180505" lon="23.584897"><ele>2900.4</ele><time>2026-04-05T11:13:48.000Z</time></trkpt>
<trkpt lat="42.180506" lon="23.584898"><ele>2900.4</ele><time>2026-04-05T11:13:49.000Z</time></trkpt>
<trkpt lat="42.180506" lon="23.584898"><ele>2900.4</ele><time>2026-04-05T11:13:50.000Z</time></trkpt>
<trkpt lat="42.180506" lon="23.584897"><ele>2900.4</ele><time>2026-04-05T11:13:51.000Z</time></trkpt>
<trkpt lat="42.180506" lon="23.584897"><ele>2900.4</ele><time>2026-04-05T11:13:52.000Z</time></trkpt>
<trkpt lat="42.180509" lon="23.584896"><ele>2900.4</ele><time>2026-04-05T11:13:53.000Z</time></trkpt>
<trkpt lat="42.180512" lon="23.584895"><ele>2900.4</ele><time>2026-04-05T11:13:54.000Z</time></trkpt>
<trkpt lat="42.180517" lon="23.584894"><ele>2900.4</ele><time>2026-04-05T11:13:55.000Z</time></trkpt>
<trkpt lat="42.180524" lon="23.584894"><ele>2900.4</ele><time>2026-04-05T11:13:56.000Z</time></trkpt>
<trkpt lat="42.180531" lon="23.584893"><ele>2900.4</ele><time>2026-04-05T11:13:57.000Z</time></trkpt>
<trkpt lat="42.180539" lon="23.584893"><ele>2900.4</ele><time>2026-04-05T11:13:58.000Z</time></trkpt>
<trkpt lat="42.180545" lon="23.584892"><ele>2900.4</ele><time>2026-04-05T11:13:59.000Z</time></trkpt>
<trkpt lat="42.180551" lon="23.584891"><ele>2900.4</ele><time>2026-04-05T11:14:00.000Z</time></trkpt>
<trkpt lat="42.180557" lon="23.584889"><ele>2900.4</ele><time>2026-04-05T11:14:01.000Z</time></trkpt>
<trkpt lat="42.180562" lon="23.584888"><ele>2900.4</ele><time>2026-04-05T11:14:02.000Z</time></trkpt>
<trkpt lat="42.180567" lon="23.584887"><ele>2900.4</ele><time>2026-04-05T11:14:03.000Z</time></trkpt>
<trkpt lat="42.180571" lon="23.584887"><ele>2900.4</ele><time>2026-04-05T11:14:04.000Z</time></trkpt>
<trkpt lat="42.180573" lon="23.584886"><ele>2900.4</ele><time>2026-04-05T11:14:05.000Z</time></trkpt>
<trkpt lat="42.180575" lon="23.584886"><ele>2900.4</ele><time>2026-04-05T11:14:06.000Z</time></trkpt>
<trkpt lat="42.180576" lon="23.584886"><ele>2900.4</ele><time>2026-04-05T11:14:07.000Z</time></trkpt>
<trkpt lat="42.180576" lon="23.584885"><ele>2900.4</ele><time>2026-04-05T11:14:08.000Z</time></trkpt>
<trkpt lat="42.180575" lon="23.584885"><ele>2900.4</ele><time>2026-04-05T11:14:09.000Z</time></trkpt>
<trkpt lat="42.180575" lon="23.584884"><ele>2900.4</ele><time>2026-04-05T11:14:10.000Z</time></trkpt>
<trkpt lat="42.180576" lon="23.584884"><ele>2900.4</ele><time>2026-04-05T11:14:11.000Z</time></trkpt>
<trkpt lat="42.180576" lon="23.584884"><ele>2900.4</ele><time>2026-04-05T11:14:12.000Z</time></trkpt>
<trkpt lat="42.180575" lon="23.584886"><ele>2900.4</ele><time>2026-04-05T11:14:13.000Z</time></trkpt>
<trkpt lat="42.180575" lon="23.584887"><ele>2900.4</ele><time>2026-04-05T11:14:14.000Z</time></trkpt>
<trkpt lat="42.180575" lon="23.584889"><ele>2900.4</ele><time>2026-04-05T11:14:15.000Z</time></trkpt>
<trkpt lat="42.180575" lon="23.58489"><ele>2900.4</ele><time>2026-04-05T11:14:16.000Z</time></trkpt>
<trkpt lat="42.180574" lon="23.584892"><ele>2900.4</ele><time>2026-04-05T11:14:17.000Z</time></trkpt>
<trkpt lat="42.180573" lon="23.584895"><ele>2900.4</ele><time>2026-04-05T11:14:18.000Z</time></trkpt>
<trkpt lat="42.180573" lon="23.584898"><ele>2900.4</ele><time>2026-04-05T11:14:19.000Z</time></trkpt>
<trkpt lat="42.180573" lon="23.584901"><ele>2900.4</ele><time>2026-04-05T11:14:20.000Z</time></trkpt>
<trkpt lat="42.180572" lon="23.584903"><ele>2900.4</ele><time>2026-04-05T11:14:21.000Z</time></trkpt>
<trkpt lat="42.180573" lon="23.584905"><ele>2900.4</ele><time>2026-04-05T11:14:22.000Z</time></trkpt>
<trkpt lat="42.180574" lon="23.584905"><ele>2900.4</ele><time>2026-04-05T11:14:23.000Z</time></trkpt>
<trkpt lat="42.180573" lon="23.584904"><ele>2900.4</ele><time>2026-04-05T11:14:24.000Z</time></trkpt>
<trkpt lat="42.180572" lon="23.584904"><ele>2900.4</ele><time>2026-04-05T11:14:25.000Z</time></trkpt>
<trkpt lat="42.180571" lon="23.584904"><ele>2900.4</ele><time>2026-04-05T11:14:26.000Z</time></trkpt>
<trkpt lat="42.180571" lon="23.584904"><ele>2900.4</ele><time>2026-04-05T11:14:27.000Z</time></trkpt>
<trkpt lat="42.180571" lon="23.584903"><ele>2900.4</ele><time>2026-04-05T11:14:28.000Z</time></trkpt>
<trkpt lat="42.180571" lon="23.584903"><ele>2900.4</ele><time>2026-04-05T11:14:29.000Z</time></trkpt>
<trkpt lat="42.180572" lon="23.584902"><ele>2900.4</ele><time>2026-04-05T11:14:30.000Z</time></trkpt>
<trkpt lat="42.180574" lon="23.584902"><ele>2900.4</ele><time>2026-04-05T11:14:31.000Z</time></trkpt>
<trkpt lat="42.180575" lon="23.584901"><ele>2900.4</ele><time>2026-04-05T11:14:32.000Z</time></trkpt>
<trkpt lat="42.180575" lon="23.584902"><ele>2900.4</ele><time>2026-04-05T11:14:33.000Z</time></trkpt>
<trkpt lat="42.180576" lon="23.584901"><ele>2900.4</ele><time>2026-04-05T11:14:34.000Z</time></trkpt>
<trkpt lat="42.180577" lon="23.5849"><ele>2900.4</ele><time>2026-04-05T11:14:35.000Z</time></trkpt>
<trkpt lat="42.180578" lon="23.584899"><ele>2900.4</ele><time>2026-04-05T11:14:36.000Z</time></trkpt>
<trkpt lat="42.18058" lon="23.584897"><ele>2900.4</ele><time>2026-04-05T11:14:37.000Z</time></trkpt>
<trkpt lat="42.180583" lon="23.584896"><ele>2900.4</ele><time>2026-04-05T11:14:38.000Z</time></trkpt>
<trkpt lat="42.180587" lon="23.584898"><ele>2900.4</ele><time>2026-04-05T11:14:39.000Z</time></trkpt>
<trkpt lat="42.18059" lon="23.584899"><ele>2900.4</ele><time>2026-04-05T11:14:40.000Z</time></trkpt>
<trkpt lat="42.180593" lon="23.584902"><ele>2900.4</ele><time>2026-04-05T11:14:41.000Z</time></trkpt>
<trkpt lat="42.180597" lon="23.584905"><ele>2900.4</ele><time>2026-04-05T11:14:42.000Z</time></trkpt>
<trkpt lat="42.180599" lon="23.584909"><ele>2900.4</ele><time>2026-04-05T11:14:43.000Z</time></trkpt>
<trkpt lat="42.180601" lon="23.584911"><ele>2900.4</ele><time>2026-04-05T11:14:44.000Z</time></trkpt>
<trkpt lat="42.180603" lon="23.584912"><ele>2900.4</ele><time>2026-04-05T11:14:45.000Z</time></trkpt>
<trkpt lat="42.180605" lon="23.584912"><ele>2900.4</ele><time>2026-04-05T11:14:46.000Z</time></trkpt>
<trkpt lat="42.180606" lon="23.584912"><ele>2900.4</ele><time>2026-04-05T11:14:47.000Z</time></trkpt>
<trkpt lat="42.180607" lon="23.584911"><ele>2900.4</ele><time>2026-04-05T11:14:48.000Z</time></trkpt>
<trkpt lat="42.180608" lon="23.58491"><ele>2900.4</ele><time>2026-04-05T11:14:49.000Z</time></trkpt>
<trkpt lat="42.180608" lon="23.584912"><ele>2900.4</ele><time>2026-04-05T11:14:50.000Z</time></trkpt>
<trkpt lat="42.180608" lon="23.584913"><ele>2900.4</ele><time>2026-04-05T11:14:51.000Z</time></trkpt>
<trkpt lat="42.180608" lon="23.584914"><ele>2900.4</ele><time>2026-04-05T11:14:52.000Z</time></trkpt>
<trkpt lat="42.180608" lon="23.584914"><ele>2900.4</ele><time>2026-04-05T11:14:53.000Z</time></trkpt>
<trkpt lat="42.180608" lon="23.584916"><ele>2900.4</ele><time>2026-04-05T11:14:54.000Z</time></trkpt>
<trkpt lat="42.180607" lon="23.584917"><ele>2900.4</ele><time>2026-04-05T11:14:55.000Z</time></trkpt>
<trkpt lat="42.180606" lon="23.584918"><ele>2900.4</ele><time>2026-04-05T11:14:56.000Z</time></trkpt>
<trkpt lat="42.180604" lon="23.58492"><ele>2900.4</ele><time>2026-04-05T11:14:57.000Z</time></trkpt>
<trkpt lat="42.180603" lon="23.584921"><ele>2900.4</ele><time>2026-04-05T11:14:58.000Z</time></trkpt>
<trkpt lat="42.180602" lon="23.584921"><ele>2900.4</ele><time>2026-04-05T11:14:59.000Z</time></trkpt>
<trkpt lat="42.180602" lon="23.58492"><ele>2900.4</ele><time>2026-04-05T11:15:00.000Z</time></trkpt>
<trkpt lat="42.180601" lon="23.58492"><ele>2900.4</ele><time>2026-04-05T11:15:01.000Z</time></trkpt>
<trkpt lat="42.180601" lon="23.584918"><ele>2900.4</ele><time>2026-04-05T11:15:02.000Z</time></trkpt>
<trkpt lat="42.180601" lon="23.584918"><ele>2900.4</ele><time>2026-04-05T11:15:03.000Z</time></trkpt>
<trkpt lat="42.180601" lon="23.584917"><ele>2900.4</ele><time>2026-04-05T11:15:04.000Z</time></trkpt>
<trkpt lat="42.180601" lon="23.584917"><ele>2900.4</ele><time>2026-04-05T11:15:05.000Z</time></trkpt>
<trkpt lat="42.180601" lon="23.584917"><ele>2900.4</ele><time>2026-04-05T11:15:06.000Z</time></trkpt>
<trkpt lat="42.1806" lon="23.584917"><ele>2900.4</ele><time>2026-04-05T11:15:07.000Z</time></trkpt>
<trkpt lat="42.1806" lon="23.584918"><ele>2900.4</ele><time>2026-04-05T11:15:08.000Z</time></trkpt>
<trkpt lat="42.1806" lon="23.584918"><ele>2900.4</ele><time>2026-04-05T11:15:09.000Z</time></trkpt>
<trkpt lat="42.180599" lon="23.58492"><ele>2900.4</ele><time>2026-04-05T11:15:10.000Z</time></trkpt>
<trkpt lat="42.180599" lon="23.58492"><ele>2900.4</ele><time>2026-04-05T11:15:11.000Z</time></trkpt>
<trkpt lat="42.1806" lon="23.584922"><ele>2900.4</ele><time>2026-04-05T11:15:12.000Z</time></trkpt>
<trkpt lat="42.180602" lon="23.584923"><ele>2900.4</ele><time>2026-04-05T11:15:13.000Z</time></trkpt>
<trkpt lat="42.180603" lon="23.584922"><ele>2900.4</ele><time>2026-04-05T11:15:14.000Z</time></trkpt>
<trkpt lat="42.180606" lon="23.584922"><ele>2900.4</ele><time>2026-04-05T11:15:15.000Z</time></trkpt>
<trkpt lat="42.180609" lon="23.584922"><ele>2900.4</ele><time>2026-04-05T11:15:16.000Z</time></trkpt>
<trkpt lat="42.180611" lon="23.584921"><ele>2900.4</ele><time>2026-04-05T11:15:17.000Z</time></trkpt>
<trkpt lat="42.180613" lon="23.584921"><ele>2900.4</ele><time>2026-04-05T11:15:18.000Z</time></trkpt>
<trkpt lat="42.180614" lon="23.584923"><ele>2900.4</ele><time>2026-04-05T11:15:19.000Z</time></trkpt>
<trkpt lat="42.180613" lon="23.584924"><ele>2900.4</ele><time>2026-04-05T11:15:20.000Z</time></trkpt>
<trkpt lat="42.180613" lon="23.584924"><ele>2900.4</ele><time>2026-04-05T11:15:21.000Z</time></trkpt>
<trkpt lat="42.180612" lon="23.584925"><ele>2900.4</ele><time>2026-04-05T11:15:22.000Z</time></trkpt>
<trkpt lat="42.180612" lon="23.584924"><ele>2900.4</ele><time>2026-04-05T11:15:23.000Z</time></trkpt>
<trkpt lat="42.180612" lon="23.584924"><ele>2900.4</ele><time>2026-04-05T11:15:24.000Z</time></trkpt>
<trkpt lat="42.180613" lon="23.584924"><ele>2900.4</ele><time>2026-04-05T11:15:25.000Z</time></trkpt>
<trkpt lat="42.180614" lon="23.584924"><ele>2900.4</ele><time>2026-04-05T11:15:26.000Z</time></trkpt>
<trkpt lat="42.180614" lon="23.584923"><ele>2900.4</ele><time>2026-04-05T11:15:27.000Z</time></trkpt>
<trkpt lat="42.180615" lon="23.584922"><ele>2900.4</ele><time>2026-04-05T11:15:28.000Z</time></trkpt>
<trkpt lat="42.180615" lon="23.584922"><ele>2900.4</ele><time>2026-04-05T11:15:29.000Z</time></trkpt>
<trkpt lat="42.180615" lon="23.584921"><ele>2900.4</ele><time>2026-04-05T11:15:30.000Z</time></trkpt>
<trkpt lat="42.180615" lon="23.58492"><ele>2900.4</ele><time>2026-04-05T11:15:31.000Z</time></trkpt>
<trkpt lat="42.180615" lon="23.58492"><ele>2899.8</ele><time>2026-04-05T11:15:32.000Z</time></trkpt>
<trkpt lat="42.180616" lon="23.584922"><ele>2899.8</ele><time>2026-04-05T11:15:33.000Z</time></trkpt>
<trkpt lat="42.180618" lon="23.584925"><ele>2899.8</ele><time>2026-04-05T11:15:34.000Z</time></trkpt>
<trkpt lat="42.180621" lon="23.584927"><ele>2899.8</ele><time>2026-04-05T11:15:35.000Z</time></trkpt>
<trkpt lat="42.180623" lon="23.58493"><ele>2899.8</ele><time>2026-04-05T11:15:36.000Z</time></trkpt>
<trkpt lat="42.180626" lon="23.584932"><ele>2899.5</ele><time>2026-04-05T11:15:37.000Z</time></trkpt>
<trkpt lat="42.180628" lon="23.584933"><ele>2899.5</ele><time>2026-04-05T11:15:38.000Z</time></trkpt>
<trkpt lat="42.18063" lon="23.584933"><ele>2899.5</ele><time>2026-04-05T11:15:39.000Z</time></trkpt>
<trkpt lat="42.180632" lon="23.584934"><ele>2899.5</ele><time>2026-04-05T11:15:40.000Z</time></trkpt>
<trkpt lat="42.180634" lon="23.584935"><ele>2899.5</ele><time>2026-04-05T11:15:41.000Z</time></trkpt>
<trkpt lat="42.180635" lon="23.584937"><ele>2898.8</ele><time>2026-04-05T11:15:42.000Z</time></trkpt>
<trkpt lat="42.180638" lon="23.584941"><ele>2898.8</ele><time>2026-04-05T11:15:43.000Z</time></trkpt>
<trkpt lat="42.180639" lon="23.584943"><ele>2898.8</ele><time>2026-04-05T11:15:44.000Z</time></trkpt>
<trkpt lat="42.18064" lon="23.584946"><ele>2898.8</ele><time>2026-04-05T11:15:45.000Z</time></trkpt>
<trkpt lat="42.18064" lon="23.584947"><ele>2898.8</ele><time>2026-04-05T11:15:46.000Z</time></trkpt>
<trkpt lat="42.18064" lon="23.584947"><ele>2897.9</ele><time>2026-04-05T11:15:47.000Z</time></trkpt>
<trkpt lat="42.180639" lon="23.584948"><ele>2897.9</ele><time>2026-04-05T11:15:48.000Z</time></trkpt>
<trkpt lat="42.180638" lon="23.584948"><ele>2897.9</ele><time>2026-04-05T11:15:49.000Z</time></trkpt>
<trkpt lat="42.180638" lon="23.584949"><ele>2897.9</ele><time>2026-04-05T11:15:50.000Z</time></trkpt>
<trkpt lat="42.180638" lon="23.58495"><ele>2897.9</ele><time>2026-04-05T11:15:51.000Z</time></trkpt>
<trkpt lat="42.180638" lon="23.584951"><ele>2897.4</ele><time>2026-04-05T11:15:52.000Z</time></trkpt>
<trkpt lat="42.180639" lon="23.584952"><ele>2897.4</ele><time>2026-04-05T11:15:53.000Z</time></trkpt>
<trkpt lat="42.180641" lon="23.584953"><ele>2897.4</ele><time>2026-04-05T11:15:54.000Z</time></trkpt>
<trkpt lat="42.180644" lon="23.584955"><ele>2897.4</ele><time>2026-04-05T11:15:55.000Z</time></trkpt>
<trkpt lat="42.180647" lon="23.584957"><ele>2897.4</ele><time>2026-04-05T11:15:56.000Z</time></trkpt>
<trkpt lat="42.18065" lon="23.584958"><ele>2896.8</ele><time>2026-04-05T11:15:57.000Z</time></trkpt>
<trkpt lat="42.180653" lon="23.584959"><ele>2896.8</ele><time>2026-04-05T11:15:58.000Z</time></trkpt>
<trkpt lat="42.180655" lon="23.584962"><ele>2896.8</ele><time>2026-04-05T11:15:59.000Z</time></trkpt>
<trkpt lat="42.180657" lon="23.584963"><ele>2896.8</ele><time>2026-04-05T11:16:00.000Z</time></trkpt>
<trkpt lat="42.180658" lon="23.584965"><ele>2896.8</ele><time>2026-04-05T11:16:01.000Z</time></trkpt>
<trkpt lat="42.180659" lon="23.584965"><ele>2896.1</ele><time>2026-04-05T11:16:02.000Z</time></trkpt>
<trkpt lat="42.18066" lon="23.584965"><ele>2896.1</ele><time>2026-04-05T11:16:03.000Z</time></trkpt>
<trkpt lat="42.180661" lon="23.584964"><ele>2896.1</ele><time>2026-04-05T11:16:04.000Z</time></trkpt>
<trkpt lat="42.180663" lon="23.584964"><ele>2896.1</ele><time>2026-04-05T11:16:05.000Z</time></trkpt>
<trkpt lat="42.180665" lon="23.584964"><ele>2896.1</ele><time>2026-04-05T11:16:06.000Z</time></trkpt>
<trkpt lat="42.180668" lon="23.584965"><ele>2895.7</ele><time>2026-04-05T11:16:07.000Z</time></trkpt>
<trkpt lat="42.180672" lon="23.584966"><ele>2895.7</ele><time>2026-04-05T11:16:08.000Z</time></trkpt>
<trkpt lat="42.180676" lon="23.584968"><ele>2895.7</ele><time>2026-04-05T11:16:09.000Z</time></trkpt>
<trkpt lat="42.18068" lon="23.58497"><ele>2895.7</ele><time>2026-04-05T11:16:10.000Z</time></trkpt>
<trkpt lat="42.180682" lon="23.584974"><ele>2895.7</ele><time>2026-04-05T11:16:11.000Z</time></trkpt>
<trkpt lat="42.180684" lon="23.584977"><ele>2894.3</ele><time>2026-04-05T11:16:12.000Z</time></trkpt>
<trkpt lat="42.180685" lon="23.584978"><ele>2894.3</ele><time>2026-04-05T11:16:13.000Z</time></trkpt>
<trkpt lat="42.180686" lon="23.58498"><ele>2894.3</ele><time>2026-04-05T11:16:14.000Z</time></trkpt>
<trkpt lat="42.180686" lon="23.58498"><ele>2894.3</ele><time>2026-04-05T11:16:15.000Z</time></trkpt>
<trkpt lat="42.180686" lon="23.584979"><ele>2894.3</ele><time>2026-04-05T11:16:16.000Z</time></trkpt>
<trkpt lat="42.180687" lon="23.58498"><ele>2892.9</ele><time>2026-04-05T11:16:17.000Z</time></trkpt>
<trkpt lat="42.180687" lon="23.584982"><ele>2892.9</ele><time>2026-04-05T11:16:18.000Z</time></trkpt>
<trkpt lat="42.180688" lon="23.584984"><ele>2892.9</ele><time>2026-04-05T11:16:19.000Z</time></trkpt>
<trkpt lat="42.180689" lon="23.584985"><ele>2892.9</ele><time>2026-04-05T11:16:20.000Z</time></trkpt>
<trkpt lat="42.18069" lon="23.584987"><ele>2892.9</ele><time>2026-04-05T11:16:21.000Z</time></trkpt>
<trkpt lat="42.180692" lon="23.584988"><ele>2892.3</ele><time>2026-04-05T11:16:22.000Z</time></trkpt>
<trkpt lat="42.180693" lon="23.584988"><ele>2892.3</ele><time>2026-04-05T11:16:23.000Z</time></trkpt>
<trkpt lat="42.180695" lon="23.584988"><ele>2892.3</ele><time>2026-04-05T11:16:24.000Z</time></trkpt>
<trkpt lat="42.180697" lon="23.584988"><ele>2892.3</ele><time>2026-04-05T11:16:25.000Z</time></trkpt>
<trkpt lat="42.180699" lon="23.584988"><ele>2892.3</ele><time>2026-04-05T11:16:26.000Z</time></trkpt>
<trkpt lat="42.180703" lon="23.584987"><ele>2891.2</ele><time>2026-04-05T11:16:27.000Z</time></trkpt>
<trkpt lat="42.180708" lon="23.584988"><ele>2891.2</ele><time>2026-04-05T11:16:28.000Z</time></trkpt>
<trkpt lat="42.180713" lon="23.584989"><ele>2891.2</ele><time>2026-04-05T11:16:29.000Z</time></trkpt>
<trkpt lat="42.18072" lon="23.58499"><ele>2891.2</ele><time>2026-04-05T11:16:30.000Z</time></trkpt>
<trkpt lat="42.180726" lon="23.584993"><ele>2891.2</ele><time>2026-04-05T11:16:31.000Z</time></trkpt>
<trkpt lat="42.180732" lon="23.584995"><ele>2890.1</ele><time>2026-04-05T11:16:32.000Z</time></trkpt>
<trkpt lat="42.180736" lon="23.584997"><ele>2890.1</ele><time>2026-04-05T11:16:33.000Z</time></trkpt>
<trkpt lat="42.180741" lon="23.584999"><ele>2890.1</ele><time>2026-04-05T11:16:34.000Z</time></trkpt>
<trkpt lat="42.180745" lon="23.585"><ele>2890.1</ele><time>2026-04-05T11:16:35.000Z</time></trkpt>
<trkpt lat="42.180747" lon="23.585001"><ele>2890.1</ele><time>2026-04-05T11:16:36.000Z</time></trkpt>
<trkpt lat="42.18075" lon="23.585003"><ele>2889.3</ele><time>2026-04-05T11:16:37.000Z</time></trkpt>
<trkpt lat="42.180752" lon="23.585004"><ele>2889.3</ele><time>2026-04-05T11:16:38.000Z</time></trkpt>
<trkpt lat="42.180754" lon="23.585005"><ele>2889.3</ele><time>2026-04-05T11:16:39.000Z</time></trkpt>
<trkpt lat="42.180756" lon="23.585005"><ele>2889.3</ele><time>2026-04-05T11:16:40.000Z</time></trkpt>
<trkpt lat="42.180758" lon="23.585007"><ele>2889.3</ele><time>2026-04-05T11:16:41.000Z</time></trkpt>
<trkpt lat="42.180761" lon="23.585009"><ele>2887.4</ele><time>2026-04-05T11:16:42.000Z</time></trkpt>
<trkpt lat="42.180762" lon="23.58501"><ele>2887.4</ele><time>2026-04-05T11:16:43.000Z</time></trkpt>
<trkpt lat="42.180764" lon="23.585012"><ele>2887.4</ele><time>2026-04-05T11:16:44.000Z</time></trkpt>
<trkpt lat="42.180767" lon="23.585014"><ele>2887.4</ele><time>2026-04-05T11:16:45.000Z</time></trkpt>
<trkpt lat="42.180769" lon="23.585017"><ele>2887.4</ele><time>2026-04-05T11:16:46.000Z</time></trkpt>
<trkpt lat="42.18077" lon="23.58502"><ele>2885.5</ele><time>2026-04-05T11:16:47.000Z</time></trkpt>
<trkpt lat="42.180772" lon="23.585022"><ele>2885.5</ele><time>2026-04-05T11:16:48.000Z</time></trkpt>
<trkpt lat="42.180773" lon="23.585024"><ele>2885.5</ele><time>2026-04-05T11:16:49.000Z</time></trkpt>
<trkpt lat="42.180774" lon="23.585027"><ele>2885.5</ele><time>2026-04-05T11:16:50.000Z</time></trkpt>
<trkpt lat="42.180775" lon="23.585028"><ele>2885.5</ele><time>2026-04-05T11:16:51.000Z</time></trkpt>
<trkpt lat="42.180775" lon="23.585029"><ele>2884.7</ele><time>2026-04-05T11:16:52.000Z</time></trkpt>
<trkpt lat="42.180775" lon="23.585031"><ele>2884.7</ele><time>2026-04-05T11:16:53.000Z</time></trkpt>
<trkpt lat="42.180776" lon="23.585031"><ele>2884.7</ele><time>2026-04-05T11:16:54.000Z</time></trkpt>
<trkpt lat="42.180776" lon="23.585032"><ele>2884.7</ele><time>2026-04-05T11:16:55.000Z</time></trkpt>
<trkpt lat="42.180776" lon="23.585032"><ele>2884.7</ele><time>2026-04-05T11:16:56.000Z</time></trkpt>
<trkpt lat="42.180776" lon="23.585032"><ele>2883.4</ele><time>2026-04-05T11:16:57.000Z</time></trkpt>
<trkpt lat="42.180776" lon="23.585033"><ele>2883.4</ele><time>2026-04-05T11:16:58.000Z</time></trkpt>
<trkpt lat="42.180777" lon="23.585034"><ele>2883.4</ele><time>2026-04-05T11:16:59.000Z</time></trkpt>
<trkpt lat="42.180778" lon="23.585035"><ele>2883.4</ele><time>2026-04-05T11:17:00.000Z</time></trkpt>
<trkpt lat="42.180778" lon="23.585036"><ele>2883.4</ele><time>2026-04-05T11:17:01.000Z</time></trkpt>
<trkpt lat="42.180779" lon="23.585036"><ele>2882.6</ele><time>2026-04-05T11:17:02.000Z</time></trkpt>
<trkpt lat="42.180779" lon="23.585037"><ele>2882.6</ele><time>2026-04-05T11:17:03.000Z</time></trkpt>
<trkpt lat="42.180779" lon="23.585037"><ele>2882.6</ele><time>2026-04-05T11:17:04.000Z</time></trkpt>
<trkpt lat="42.18078" lon="23.585037"><ele>2882.6</ele><time>2026-04-05T11:17:05.000Z</time></trkpt>
<trkpt lat="42.18078" lon="23.585037"><ele>2882.6</ele><time>2026-04-05T11:17:06.000Z</time></trkpt>
<trkpt lat="42.180781" lon="23.585037"><ele>2882.4</ele><time>2026-04-05T11:17:07.000Z</time></trkpt>
<trkpt lat="42.180781" lon="23.585036"><ele>2882.4</ele><time>2026-04-05T11:17:08.000Z</time></trkpt>
<trkpt lat="42.180781" lon="23.585036"><ele>2882.4</ele><time>2026-04-05T11:17:09.000Z</time></trkpt>
<trkpt lat="42.180781" lon="23.585037"><ele>2882.4</ele><time>2026-04-05T11:17:10.000Z</time></trkpt>
<trkpt lat="42.180781" lon="23.585038"><ele>2882.4</ele><time>2026-04-05T11:17:11.000Z</time></trkpt>
<trkpt lat="42.180782" lon="23.585038"><ele>2882.4</ele><time>2026-04-05T11:17:12.000Z</time></trkpt>
<trkpt lat="42.180782" lon="23.585038"><ele>2882.4</ele><time>2026-04-05T11:17:13.000Z</time></trkpt>
<trkpt lat="42.180783" lon="23.585039"><ele>2882.4</ele><time>2026-04-05T11:17:14.000Z</time></trkpt>
<trkpt lat="42.180784" lon="23.585039"><ele>2882.4</ele><time>2026-04-05T11:17:15.000Z</time></trkpt>
<trkpt lat="42.180785" lon="23.585038"><ele>2882.4</ele><time>2026-04-05T11:17:16.000Z</time></trkpt>
<trkpt lat="42.180785" lon="23.585039"><ele>2882.3</ele><time>2026-04-05T11:17:17.000Z</time></trkpt>
<trkpt lat="42.180786" lon="23.58504"><ele>2882.3</ele><time>2026-04-05T11:17:18.000Z</time></trkpt>
<trkpt lat="42.180788" lon="23.58504"><ele>2882.3</ele><time>2026-04-05T11:17:19.000Z</time></trkpt>
<trkpt lat="42.180789" lon="23.58504"><ele>2882.3</ele><time>2026-04-05T11:17:20.000Z</time></trkpt>
<trkpt lat="42.180791" lon="23.585041"><ele>2882.3</ele><time>2026-04-05T11:17:21.000Z</time></trkpt>
<trkpt lat="42.180793" lon="23.585041"><ele>2882.3</ele><time>2026-04-05T11:17:22.000Z</time></trkpt>
<trkpt lat="42.180795" lon="23.585041"><ele>2882.3</ele><time>2026-04-05T11:17:23.000Z</time></trkpt>
<trkpt lat="42.180797" lon="23.585041"><ele>2882.3</ele><time>2026-04-05T11:17:24.000Z</time></trkpt>
<trkpt lat="42.1808" lon="23.585042"><ele>2882.3</ele><time>2026-04-05T11:17:25.000Z</time></trkpt>
<trkpt lat="42.180803" lon="23.585042"><ele>2882.3</ele><time>2026-04-05T11:17:26.000Z</time></trkpt>
<trkpt lat="42.180806" lon="23.585044"><ele>2881.9</ele><time>2026-04-05T11:17:27.000Z</time></trkpt>
<trkpt lat="42.180809" lon="23.585047"><ele>2881.9</ele><time>2026-04-05T11:17:28.000Z</time></trkpt>
<trkpt lat="42.180812" lon="23.585051"><ele>2881.9</ele><time>2026-04-05T11:17:29.000Z</time></trkpt>
<trkpt lat="42.180814" lon="23.585054"><ele>2881.9</ele><time>2026-04-05T11:17:30.000Z</time></trkpt>
<trkpt lat="42.180817" lon="23.585057"><ele>2881.9</ele><time>2026-04-05T11:17:31.000Z</time></trkpt>
<trkpt lat="42.180819" lon="23.58506"><ele>2880.9</ele><time>2026-04-05T11:17:32.000Z</time></trkpt>
<trkpt lat="42.180821" lon="23.585061"><ele>2880.9</ele><time>2026-04-05T11:17:33.000Z</time></trkpt>
<trkpt lat="42.180825" lon="23.585062"><ele>2880.9</ele><time>2026-04-05T11:17:34.000Z</time></trkpt>
<trkpt lat="42.180828" lon="23.585063"><ele>2880.9</ele><time>2026-04-05T11:17:35.000Z</time></trkpt>
<trkpt lat="42.180832" lon="23.585064"><ele>2880.9</ele><time>2026-04-05T11:17:36.000Z</time></trkpt>
<trkpt lat="42.180836" lon="23.585066"><ele>2880.1</ele><time>2026-04-05T11:17:37.000Z</time></trkpt>
<trkpt lat="42.180839" lon="23.585068"><ele>2880.1</ele><time>2026-04-05T11:17:38.000Z</time></trkpt>
<trkpt lat="42.180842" lon="23.585069"><ele>2880.1</ele><time>2026-04-05T11:17:39.000Z</time></trkpt>
<trkpt lat="42.180844" lon="23.585071"><ele>2880.1</ele><time>2026-04-05T11:17:40.000Z</time></trkpt>
<trkpt lat="42.180847" lon="23.585073"><ele>2880.1</ele><time>2026-04-05T11:17:41.000Z</time></trkpt>
<trkpt lat="42.18085" lon="23.585074"><ele>2878.4</ele><time>2026-04-05T11:17:42.000Z</time></trkpt>
<trkpt lat="42.180854" lon="23.585076"><ele>2878.4</ele><time>2026-04-05T11:17:43.000Z</time></trkpt>
<trkpt lat="42.180859" lon="23.58508"><ele>2878.4</ele><time>2026-04-05T11:17:44.000Z</time></trkpt>
<trkpt lat="42.180865" lon="23.585086"><ele>2878.4</ele><time>2026-04-05T11:17:45.000Z</time></trkpt>
<trkpt lat="42.180873" lon="23.585092"><ele>2878.4</ele><time>2026-04-05T11:17:46.000Z</time></trkpt>
<trkpt lat="42.18088" lon="23.5851"><ele>2876.9</ele><time>2026-04-05T11:17:47.000Z</time></trkpt>
<trkpt lat="42.180887" lon="23.585108"><ele>2876.9</ele><time>2026-04-05T11:17:48.000Z</time></trkpt>
<trkpt lat="42.180893" lon="23.585114"><ele>2876.9</ele><time>2026-04-05T11:17:49.000Z</time></trkpt>
<trkpt lat="42.180899" lon="23.585121"><ele>2876.9</ele><time>2026-04-05T11:17:50.000Z</time></trkpt>
<trkpt lat="42.180903" lon="23.585127"><ele>2876.9</ele><time>2026-04-05T11:17:51.000Z</time></trkpt>
<trkpt lat="42.180908" lon="23.585131"><ele>2876.3</ele><time>2026-04-05T11:17:52.000Z</time></trkpt>
<trkpt lat="42.180912" lon="23.585137"><ele>2876.3</ele><time>2026-04-05T11:17:53.000Z</time></trkpt>
<trkpt lat="42.180917" lon="23.585142"><ele>2876.3</ele><time>2026-04-05T11:17:54.000Z</time></trkpt>
<trkpt lat="42.180922" lon="23.585145"><ele>2876.3</ele><time>2026-04-05T11:17:55.000Z</time></trkpt>
<trkpt lat="42.180926" lon="23.585147"><ele>2876.3</ele><time>2026-04-05T11:17:56.000Z</time></trkpt>
<trkpt lat="42.180929" lon="23.58515"><ele>2874.9</ele><time>2026-04-05T11:17:57.000Z</time></trkpt>
<trkpt lat="42.180934" lon="23.585152"><ele>2874.9</ele><time>2026-04-05T11:17:58.000Z</time></trkpt>
<trkpt lat="42.180938" lon="23.585154"><ele>2874.9</ele><time>2026-04-05T11:17:59.000Z</time></trkpt>
<trkpt lat="42.180942" lon="23.585156"><ele>2874.9</ele><time>2026-04-05T11:18:00.000Z</time></trkpt>
<trkpt lat="42.180945" lon="23.585157"><ele>2874.9</ele><time>2026-04-05T11:18:01.000Z</time></trkpt>
<trkpt lat="42.180948" lon="23.585158"><ele>2873.4</ele><time>2026-04-05T11:18:02.000Z</time></trkpt>
<trkpt lat="42.18095" lon="23.585158"><ele>2873.4</ele><time>2026-04-05T11:18:03.000Z</time></trkpt>
<trkpt lat="42.180953" lon="23.585159"><ele>2873.4</ele><time>2026-04-05T11:18:04.000Z</time></trkpt>
<trkpt lat="42.180956" lon="23.58516"><ele>2873.4</ele><time>2026-04-05T11:18:05.000Z</time></trkpt>
<trkpt lat="42.180962" lon="23.585162"><ele>2873.4</ele><time>2026-04-05T11:18:06.000Z</time></trkpt>
<trkpt lat="42.180967" lon="23.585163"><ele>2872.8</ele><time>2026-04-05T11:18:07.000Z</time></trkpt>
<trkpt lat="42.180971" lon="23.585164"><ele>2872.8</ele><time>2026-04-05T11:18:08.000Z</time></trkpt>
<trkpt lat="42.180974" lon="23.585165"><ele>2872.8</ele><time>2026-04-05T11:18:09.000Z</time></trkpt>
<trkpt lat="42.180976" lon="23.585165"><ele>2872.8</ele><time>2026-04-05T11:18:10.000Z</time></trkpt>
<trkpt lat="42.180977" lon="23.585166"><ele>2872.8</ele><time>2026-04-05T11:18:11.000Z</time></trkpt>
<trkpt lat="42.180978" lon="23.585167"><ele>2871.8</ele><time>2026-04-05T11:18:12.000Z</time></trkpt>
<trkpt lat="42.180979" lon="23.585167"><ele>2871.8</ele><time>2026-04-05T11:18:13.000Z</time></trkpt>
<trkpt lat="42.18098" lon="23.585168"><ele>2871.8</ele><time>2026-04-05T11:18:14.000Z</time></trkpt>
<trkpt lat="42.180981" lon="23.585168"><ele>2871.8</ele><time>2026-04-05T11:18:15.000Z</time></trkpt>
<trkpt lat="42.180981" lon="23.585169"><ele>2871.8</ele><time>2026-04-05T11:18:16.000Z</time></trkpt>
<trkpt lat="42.180981" lon="23.585169"><ele>2871</ele><time>2026-04-05T11:18:17.000Z</time></trkpt>
<trkpt lat="42.180981" lon="23.58517"><ele>2871</ele><time>2026-04-05T11:18:18.000Z</time></trkpt>
<trkpt lat="42.180981" lon="23.58517"><ele>2871</ele><time>2026-04-05T11:18:19.000Z</time></trkpt>
<trkpt lat="42.180981" lon="23.585171"><ele>2871</ele><time>2026-04-05T11:18:20.000Z</time></trkpt>
<trkpt lat="42.18098" lon="23.585171"><ele>2871</ele><time>2026-04-05T11:18:21.000Z</time></trkpt>
<trkpt lat="42.18098" lon="23.585171"><ele>2870.6</ele><time>2026-04-05T11:18:22.000Z</time></trkpt>
<trkpt lat="42.18098" lon="23.58517"><ele>2870.6</ele><time>2026-04-05T11:18:23.000Z</time></trkpt>
<trkpt lat="42.18098" lon="23.58517"><ele>2870.6</ele><time>2026-04-05T11:18:24.000Z</time></trkpt>
<trkpt lat="42.18098" lon="23.58517"><ele>2870.6</ele><time>2026-04-05T11:18:25.000Z</time></trkpt>
<trkpt lat="42.18098" lon="23.585172"><ele>2870.6</ele><time>2026-04-05T11:18:26.000Z</time></trkpt>
<trkpt lat="42.180981" lon="23.585173"><ele>2869.9</ele><time>2026-04-05T11:18:27.000Z</time></trkpt>
<trkpt lat="42.180981" lon="23.585175"><ele>2869.9</ele><time>2026-04-05T11:18:28.000Z</time></trkpt>
<trkpt lat="42.180982" lon="23.585176"><ele>2869.9</ele><time>2026-04-05T11:18:29.000Z</time></trkpt>
<trkpt lat="42.180985" lon="23.585179"><ele>2869.9</ele><time>2026-04-05T11:18:30.000Z</time></trkpt>
<trkpt lat="42.180988" lon="23.585181"><ele>2869.9</ele><time>2026-04-05T11:18:31.000Z</time></trkpt>
<trkpt lat="42.180992" lon="23.585182"><ele>2869.7</ele><time>2026-04-05T11:18:32.000Z</time></trkpt>
<trkpt lat="42.180998" lon="23.585185"><ele>2869.7</ele><time>2026-04-05T11:18:33.000Z</time></trkpt>
<trkpt lat="42.181003" lon="23.585187"><ele>2869.7</ele><time>2026-04-05T11:18:34.000Z</time></trkpt>
<trkpt lat="42.181007" lon="23.585189"><ele>2869.7</ele><time>2026-04-05T11:18:35.000Z</time></trkpt>
<trkpt lat="42.181011" lon="23.58519"><ele>2869.7</ele><time>2026-04-05T11:18:36.000Z</time></trkpt>
<trkpt lat="42.181016" lon="23.585192"><ele>2869.6</ele><time>2026-04-05T11:18:37.000Z</time></trkpt>
<trkpt lat="42.181021" lon="23.585194"><ele>2869.6</ele><time>2026-04-05T11:18:38.000Z</time></trkpt>
<trkpt lat="42.181026" lon="23.585195"><ele>2869.6</ele><time>2026-04-05T11:18:39.000Z</time></trkpt>
<trkpt lat="42.181033" lon="23.585196"><ele>2869.6</ele><time>2026-04-05T11:18:40.000Z</time></trkpt>
<trkpt lat="42.18104" lon="23.585198"><ele>2869.6</ele><time>2026-04-05T11:18:41.000Z</time></trkpt>
<trkpt lat="42.181047" lon="23.5852"><ele>2869</ele><time>2026-04-05T11:18:42.000Z</time></trkpt>
<trkpt lat="42.181053" lon="23.585202"><ele>2869</ele><time>2026-04-05T11:18:43.000Z</time></trkpt>
<trkpt lat="42.181058" lon="23.585205"><ele>2869</ele><time>2026-04-05T11:18:44.000Z</time></trkpt>
<trkpt lat="42.181062" lon="23.585206"><ele>2869</ele><time>2026-04-05T11:18:45.000Z</time></trkpt>
<trkpt lat="42.181066" lon="23.585207"><ele>2869</ele><time>2026-04-05T11:18:46.000Z</time></trkpt>
<trkpt lat="42.18107" lon="23.585209"><ele>2867.6</ele><time>2026-04-05T11:18:47.000Z</time></trkpt>
<trkpt lat="42.181073" lon="23.585211"><ele>2867.6</ele><time>2026-04-05T11:18:48.000Z</time></trkpt>
<trkpt lat="42.181077" lon="23.585212"><ele>2867.6</ele><time>2026-04-05T11:18:49.000Z</time></trkpt>
<trkpt lat="42.18108" lon="23.585214"><ele>2867.6</ele><time>2026-04-05T11:18:50.000Z</time></trkpt>
<trkpt lat="42.181083" lon="23.585216"><ele>2867.6</ele><time>2026-04-05T11:18:51.000Z</time></trkpt>
<trkpt lat="42.181086" lon="23.585218"><ele>2866.7</ele><time>2026-04-05T11:18:52.000Z</time></trkpt>
<trkpt lat="42.181088" lon="23.58522"><ele>2866.7</ele><time>2026-04-05T11:18:53.000Z</time></trkpt>
<trkpt lat="42.181092" lon="23.585222"><ele>2866.7</ele><time>2026-04-05T11:18:54.000Z</time></trkpt>
<trkpt lat="42.181097" lon="23.585225"><ele>2866.7</ele><time>2026-04-05T11:18:55.000Z</time></trkpt>
<trkpt lat="42.181101" lon="23.585227"><ele>2866.7</ele><time>2026-04-05T11:18:56.000Z</time></trkpt>
<trkpt lat="42.181106" lon="23.585229"><ele>2864.9</ele><time>2026-04-05T11:18:57.000Z</time></trkpt>
<trkpt lat="42.181112" lon="23.585232"><ele>2864.9</ele><time>2026-04-05T11:18:58.000Z</time></trkpt>
<trkpt lat="42.181119" lon="23.585234"><ele>2864.9</ele><time>2026-04-05T11:18:59.000Z</time></trkpt>
<trkpt lat="42.181127" lon="23.585235"><ele>2864.9</ele><time>2026-04-05T11:19:00.000Z</time></trkpt>
<trkpt lat="42.181137" lon="23.585238"><ele>2864.9</ele><time>2026-04-05T11:19:01.000Z</time></trkpt>
<trkpt lat="42.181147" lon="23.585239"><ele>2863.5</ele><time>2026-04-05T11:19:02.000Z</time></trkpt>
<trkpt lat="42.181158" lon="23.585241"><ele>2863.5</ele><time>2026-04-05T11:19:03.000Z</time></trkpt>
<trkpt lat="42.181168" lon="23.585242"><ele>2863.5</ele><time>2026-04-05T11:19:04.000Z</time></trkpt>
<trkpt lat="42.181177" lon="23.585244"><ele>2863.5</ele><time>2026-04-05T11:19:05.000Z</time></trkpt>
<trkpt lat="42.181185" lon="23.585245"><ele>2863.5</ele><time>2026-04-05T11:19:06.000Z</time></trkpt>
<trkpt lat="42.181191" lon="23.585247"><ele>2862.8</ele><time>2026-04-05T11:19:07.000Z</time></trkpt>
<trkpt lat="42.181195" lon="23.58525"><ele>2862.8</ele><time>2026-04-05T11:19:08.000Z</time></trkpt>
<trkpt lat="42.181199" lon="23.585251"><ele>2862.8</ele><time>2026-04-05T11:19:09.000Z</time></trkpt>
<trkpt lat="42.181202" lon="23.585254"><ele>2862.8</ele><time>2026-04-05T11:19:10.000Z</time></trkpt>
<trkpt lat="42.181205" lon="23.585256"><ele>2862.8</ele><time>2026-04-05T11:19:11.000Z</time></trkpt>
<trkpt lat="42.181208" lon="23.585257"><ele>2861.2</ele><time>2026-04-05T11:19:12.000Z</time></trkpt>
<trkpt lat="42.181212" lon="23.58526"><ele>2861.2</ele><time>2026-04-05T11:19:13.000Z</time></trkpt>
<trkpt lat="42.181215" lon="23.585263"><ele>2861.2</ele><time>2026-04-05T11:19:14.000Z</time></trkpt>
<trkpt lat="42.181219" lon="23.585265"><ele>2861.2</ele><time>2026-04-05T11:19:15.000Z</time></trkpt>
<trkpt lat="42.18122" lon="23.585267"><ele>2861.2</ele><time>2026-04-05T11:19:16.000Z</time></trkpt>
<trkpt lat="42.181222" lon="23.585269"><ele>2859.7</ele><time>2026-04-05T11:19:17.000Z</time></trkpt>
<trkpt lat="42.181223" lon="23.585268"><ele>2859.7</ele><time>2026-04-05T11:19:18.000Z</time></trkpt>
<trkpt lat="42.181225" lon="23.585269"><ele>2859.7</ele><time>2026-04-05T11:19:19.000Z</time></trkpt>
<trkpt lat="42.18123" lon="23.585269"><ele>2859.7</ele><time>2026-04-05T11:19:20.000Z</time></trkpt>
<trkpt lat="42.181235" lon="23.58527"><ele>2859.7</ele><time>2026-04-05T11:19:21.000Z</time></trkpt>
<trkpt lat="42.181242" lon="23.585272"><ele>2859.2</ele><time>2026-04-05T11:19:22.000Z</time></trkpt>
<trkpt lat="42.181249" lon="23.585275"><ele>2859.2</ele><time>2026-04-05T11:19:23.000Z</time></trkpt>
<trkpt lat="42.181255" lon="23.585277"><ele>2859.2</ele><time>2026-04-05T11:19:24.000Z</time></trkpt>
<trkpt lat="42.181259" lon="23.58528"><ele>2859.2</ele><time>2026-04-05T11:19:25.000Z</time></trkpt>
<trkpt lat="42.181262" lon="23.585281"><ele>2859.2</ele><time>2026-04-05T11:19:26.000Z</time></trkpt>
<trkpt lat="42.181265" lon="23.585283"><ele>2858.4</ele><time>2026-04-05T11:19:27.000Z</time></trkpt>
<trkpt lat="42.181267" lon="23.585284"><ele>2858.4</ele><time>2026-04-05T11:19:28.000Z</time></trkpt>
<trkpt lat="42.18127" lon="23.585285"><ele>2858.4</ele><time>2026-04-05T11:19:29.000Z</time></trkpt>
<trkpt lat="42.181274" lon="23.585286"><ele>2858.4</ele><time>2026-04-05T11:19:30.000Z</time></trkpt>
<trkpt lat="42.18128" lon="23.585288"><ele>2858.4</ele><time>2026-04-05T11:19:31.000Z</time></trkpt>
<trkpt lat="42.181286" lon="23.58529"><ele>2857.9</ele><time>2026-04-05T11:19:32.000Z</time></trkpt>
<trkpt lat="42.181291" lon="23.585291"><ele>2857.9</ele><time>2026-04-05T11:19:33.000Z</time></trkpt>
<trkpt lat="42.181295" lon="23.585291"><ele>2857.9</ele><time>2026-04-05T11:19:34.000Z</time></trkpt>
<trkpt lat="42.181299" lon="23.585292"><ele>2857.9</ele><time>2026-04-05T11:19:35.000Z</time></trkpt>
<trkpt lat="42.181302" lon="23.585292"><ele>2857.9</ele><time>2026-04-05T11:19:36.000Z</time></trkpt>
<trkpt lat="42.181304" lon="23.585291"><ele>2857.6</ele><time>2026-04-05T11:19:37.000Z</time></trkpt>
<trkpt lat="42.181307" lon="23.585292"><ele>2857.6</ele><time>2026-04-05T11:19:38.000Z</time></trkpt>
<trkpt lat="42.18131" lon="23.585293"><ele>2857.6</ele><time>2026-04-05T11:19:39.000Z</time></trkpt>
<trkpt lat="42.181313" lon="23.585294"><ele>2857.6</ele><time>2026-04-05T11:19:40.000Z</time></trkpt>
<trkpt lat="42.181316" lon="23.585294"><ele>2857.6</ele><time>2026-04-05T11:19:41.000Z</time></trkpt>
<trkpt lat="42.18132" lon="23.585295"><ele>2856.7</ele><time>2026-04-05T11:19:42.000Z</time></trkpt>
<trkpt lat="42.181322" lon="23.585296"><ele>2856.7</ele><time>2026-04-05T11:19:43.000Z</time></trkpt>
<trkpt lat="42.181325" lon="23.585298"><ele>2856.7</ele><time>2026-04-05T11:19:44.000Z</time></trkpt>
<trkpt lat="42.181328" lon="23.585299"><ele>2856.7</ele><time>2026-04-05T11:19:45.000Z</time></trkpt>
<trkpt lat="42.181331" lon="23.585301"><ele>2856.7</ele><time>2026-04-05T11:19:46.000Z</time></trkpt>
<trkpt lat="42.181334" lon="23.585303"><ele>2855.5</ele><time>2026-04-05T11:19:47.000Z</time></trkpt>
<trkpt lat="42.181335" lon="23.585305"><ele>2855.5</ele><time>2026-04-05T11:19:48.000Z</time></trkpt>
<trkpt lat="42.181336" lon="23.585307"><ele>2855.5</ele><time>2026-04-05T11:19:49.000Z</time></trkpt>
<trkpt lat="42.181336" lon="23.585309"><ele>2855.5</ele><time>2026-04-05T11:19:50.000Z</time></trkpt>
<trkpt lat="42.181336" lon="23.58531"><ele>2855.5</ele><time>2026-04-05T11:19:51.000Z</time></trkpt>
<trkpt lat="42.181335" lon="23.585312"><ele>2854.9</ele><time>2026-04-05T11:19:52.000Z</time></trkpt>
<trkpt lat="42.181336" lon="23.585315"><ele>2854.9</ele><time>2026-04-05T11:19:53.000Z</time></trkpt>
<trkpt lat="42.181336" lon="23.585319"><ele>2854.9</ele><time>2026-04-05T11:19:54.000Z</time></trkpt>
<trkpt lat="42.181336" lon="23.585322"><ele>2854.9</ele><time>2026-04-05T11:19:55.000Z</time></trkpt>
<trkpt lat="42.181336" lon="23.585326"><ele>2854.9</ele><time>2026-04-05T11:19:56.000Z</time></trkpt>
<trkpt lat="42.181336" lon="23.585328"><ele>2853.8</ele><time>2026-04-05T11:19:57.000Z</time></trkpt>
<trkpt lat="42.181335" lon="23.585329"><ele>2853.8</ele><time>2026-04-05T11:19:58.000Z</time></trkpt>
<trkpt lat="42.181337" lon="23.585328"><ele>2853.8</ele><time>2026-04-05T11:19:59.000Z</time></trkpt>
<trkpt lat="42.18134" lon="23.585326"><ele>2853.8</ele><time>2026-04-05T11:20:00.000Z</time></trkpt>
<trkpt lat="42.181344" lon="23.585325"><ele>2853.8</ele><time>2026-04-05T11:20:01.000Z</time></trkpt>
<trkpt lat="42.181349" lon="23.585325"><ele>2853</ele><time>2026-04-05T11:20:02.000Z</time></trkpt>
<trkpt lat="42.181356" lon="23.585324"><ele>2853</ele><time>2026-04-05T11:20:03.000Z</time></trkpt>
<trkpt lat="42.181362" lon="23.585325"><ele>2853</ele><time>2026-04-05T11:20:04.000Z</time></trkpt>
<trkpt lat="42.181367" lon="23.585326"><ele>2853</ele><time>2026-04-05T11:20:05.000Z</time></trkpt>
<trkpt lat="42.181373" lon="23.585327"><ele>2853</ele><time>2026-04-05T11:20:06.000Z</time></trkpt>
<trkpt lat="42.18138" lon="23.585328"><ele>2852.5</ele><time>2026-04-05T11:20:07.000Z</time></trkpt>
<trkpt lat="42.181387" lon="23.585332"><ele>2852.5</ele><time>2026-04-05T11:20:08.000Z</time></trkpt>
<trkpt lat="42.181394" lon="23.585335"><ele>2852.5</ele><time>2026-04-05T11:20:09.000Z</time></trkpt>
<trkpt lat="42.1814" lon="23.585339"><ele>2852.5</ele><time>2026-04-05T11:20:10.000Z</time></trkpt>
<trkpt lat="42.181406" lon="23.585344"><ele>2852.5</ele><time>2026-04-05T11:20:11.000Z</time></trkpt>
<trkpt lat="42.181413" lon="23.58535"><ele>2851.4</ele><time>2026-04-05T11:20:12.000Z</time></trkpt>
<trkpt lat="42.181419" lon="23.585355"><ele>2851.4</ele><time>2026-04-05T11:20:13.000Z</time></trkpt>
<trkpt lat="42.181427" lon="23.58536"><ele>2851.4</ele><time>2026-04-05T11:20:14.000Z</time></trkpt>
<trkpt lat="42.181435" lon="23.585367"><ele>2851.4</ele><time>2026-04-05T11:20:15.000Z</time></trkpt>
<trkpt lat="42.181443" lon="23.585376"><ele>2851.4</ele><time>2026-04-05T11:20:16.000Z</time></trkpt>
<trkpt lat="42.181451" lon="23.585383"><ele>2850.1</ele><time>2026-04-05T11:20:17.000Z</time></trkpt>
<trkpt lat="42.181457" lon="23.58539"><ele>2850.1</ele><time>2026-04-05T11:20:18.000Z</time></trkpt>
<trkpt lat="42.181462" lon="23.585396"><ele>2850.1</ele><time>2026-04-05T11:20:19.000Z</time></trkpt>
<trkpt lat="42.181465" lon="23.585402"><ele>2850.1</ele><time>2026-04-05T11:20:20.000Z</time></trkpt>
<trkpt lat="42.181468" lon="23.585407"><ele>2850.1</ele><time>2026-04-05T11:20:21.000Z</time></trkpt>
<trkpt lat="42.18147" lon="23.585411"><ele>2849.3</ele><time>2026-04-05T11:20:22.000Z</time></trkpt>
<trkpt lat="42.181472" lon="23.585415"><ele>2849.3</ele><time>2026-04-05T11:20:23.000Z</time></trkpt>
<trkpt lat="42.181475" lon="23.585418"><ele>2849.3</ele><time>2026-04-05T11:20:24.000Z</time></trkpt>
<trkpt lat="42.181477" lon="23.585421"><ele>2849.3</ele><time>2026-04-05T11:20:25.000Z</time></trkpt>
<trkpt lat="42.18148" lon="23.585424"><ele>2849.3</ele><time>2026-04-05T11:20:26.000Z</time></trkpt>
<trkpt lat="42.181484" lon="23.58543"><ele>2847.6</ele><time>2026-04-05T11:20:27.000Z</time></trkpt>
<trkpt lat="42.181488" lon="23.585435"><ele>2847.6</ele><time>2026-04-05T11:20:28.000Z</time></trkpt>
<trkpt lat="42.181492" lon="23.585441"><ele>2847.6</ele><time>2026-04-05T11:20:29.000Z</time></trkpt>
<trkpt lat="42.181495" lon="23.585446"><ele>2847.6</ele><time>2026-04-05T11:20:30.000Z</time></trkpt>
<trkpt lat="42.181497" lon="23.585448"><ele>2847.6</ele><time>2026-04-05T11:20:31.000Z</time></trkpt>
<trkpt lat="42.181499" lon="23.585449"><ele>2846.2</ele><time>2026-04-05T11:20:32.000Z</time></trkpt>
<trkpt lat="42.1815" lon="23.585448"><ele>2846.2</ele><time>2026-04-05T11:20:33.000Z</time></trkpt>
<trkpt lat="42.1815" lon="23.585448"><ele>2846.2</ele><time>2026-04-05T11:20:34.000Z</time></trkpt>
<trkpt lat="42.181501" lon="23.585447"><ele>2846.2</ele><time>2026-04-05T11:20:35.000Z</time></trkpt>
<trkpt lat="42.181502" lon="23.585447"><ele>2846.2</ele><time>2026-04-05T11:20:36.000Z</time></trkpt>
<trkpt lat="42.181502" lon="23.585448"><ele>2845.7</ele><time>2026-04-05T11:20:37.000Z</time></trkpt>
<trkpt lat="42.181503" lon="23.585451"><ele>2845.7</ele><time>2026-04-05T11:20:38.000Z</time></trkpt>
<trkpt lat="42.181503" lon="23.585453"><ele>2845.7</ele><time>2026-04-05T11:20:39.000Z</time></trkpt>
<trkpt lat="42.181504" lon="23.585457"><ele>2845.7</ele><time>2026-04-05T11:20:40.000Z</time></trkpt>
<trkpt lat="42.181506" lon="23.585463"><ele>2845.7</ele><time>2026-04-05T11:20:41.000Z</time></trkpt>
<trkpt lat="42.181509" lon="23.58547"><ele>2845.1</ele><time>2026-04-05T11:20:42.000Z</time></trkpt>
<trkpt lat="42.181512" lon="23.585477"><ele>2845.1</ele><time>2026-04-05T11:20:43.000Z</time></trkpt>
<trkpt lat="42.181517" lon="23.585485"><ele>2845.1</ele><time>2026-04-05T11:20:44.000Z</time></trkpt>
<trkpt lat="42.181522" lon="23.585493"><ele>2845.1</ele><time>2026-04-05T11:20:45.000Z</time></trkpt>
<trkpt lat="42.181526" lon="23.585499"><ele>2845.1</ele><time>2026-04-05T11:20:46.000Z</time></trkpt>
<trkpt lat="42.181531" lon="23.585505"><ele>2844.8</ele><time>2026-04-05T11:20:47.000Z</time></trkpt>
<trkpt lat="42.181536" lon="23.585511"><ele>2844.8</ele><time>2026-04-05T11:20:48.000Z</time></trkpt>
<trkpt lat="42.18154" lon="23.585516"><ele>2844.8</ele><time>2026-04-05T11:20:49.000Z</time></trkpt>
<trkpt lat="42.181545" lon="23.585521"><ele>2844.8</ele><time>2026-04-05T11:20:50.000Z</time></trkpt>
<trkpt lat="42.181548" lon="23.585527"><ele>2844.8</ele><time>2026-04-05T11:20:51.000Z</time></trkpt>
<trkpt lat="42.181552" lon="23.585532"><ele>2844.6</ele><time>2026-04-05T11:20:52.000Z</time></trkpt>
<trkpt lat="42.181556" lon="23.585537"><ele>2844.6</ele><time>2026-04-05T11:20:53.000Z</time></trkpt>
<trkpt lat="42.18156" lon="23.585543"><ele>2844.6</ele><time>2026-04-05T11:20:54.000Z</time></trkpt>
<trkpt lat="42.181565" lon="23.585549"><ele>2844.6</ele><time>2026-04-05T11:20:55.000Z</time></trkpt>
<trkpt lat="42.18157" lon="23.585554"><ele>2844.6</ele><time>2026-04-05T11:20:56.000Z</time></trkpt>
<trkpt lat="42.181575" lon="23.58556"><ele>2843.9</ele><time>2026-04-05T11:20:57.000Z</time></trkpt>
<trkpt lat="42.18158" lon="23.585566"><ele>2843.9</ele><time>2026-04-05T11:20:58.000Z</time></trkpt>
<trkpt lat="42.181586" lon="23.585572"><ele>2843.9</ele><time>2026-04-05T11:20:59.000Z</time></trkpt>
<trkpt lat="42.181592" lon="23.58558"><ele>2843.9</ele><time>2026-04-05T11:21:00.000Z</time></trkpt>
<trkpt lat="42.181597" lon="23.585588"><ele>2843.9</ele><time>2026-04-05T11:21:01.000Z</time></trkpt>
<trkpt lat="42.181602" lon="23.585596"><ele>2842.5</ele><time>2026-04-05T11:21:02.000Z</time></trkpt>
<trkpt lat="42.181606" lon="23.585605"><ele>2842.5</ele><time>2026-04-05T11:21:03.000Z</time></trkpt>
<trkpt lat="42.181608" lon="23.585613"><ele>2842.5</ele><time>2026-04-05T11:21:04.000Z</time></trkpt>
<trkpt lat="42.181611" lon="23.58562"><ele>2842.5</ele><time>2026-04-05T11:21:05.000Z</time></trkpt>
<trkpt lat="42.181614" lon="23.585626"><ele>2842.5</ele><time>2026-04-05T11:21:06.000Z</time></trkpt>
<trkpt lat="42.181616" lon="23.58563"><ele>2841.7</ele><time>2026-04-05T11:21:07.000Z</time></trkpt>
<trkpt lat="42.181617" lon="23.585636"><ele>2841.7</ele><time>2026-04-05T11:21:08.000Z</time></trkpt>
<trkpt lat="42.181617" lon="23.58564"><ele>2841.7</ele><time>2026-04-05T11:21:09.000Z</time></trkpt>
<trkpt lat="42.181618" lon="23.585642"><ele>2841.7</ele><time>2026-04-05T11:21:10.000Z</time></trkpt>
<trkpt lat="42.181618" lon="23.585644"><ele>2841.7</ele><time>2026-04-05T11:21:11.000Z</time></trkpt>
<trkpt lat="42.181618" lon="23.585645"><ele>2840</ele><time>2026-04-05T11:21:12.000Z</time></trkpt>
<trkpt lat="42.181618" lon="23.585644"><ele>2840</ele><time>2026-04-05T11:21:13.000Z</time></trkpt>
<trkpt lat="42.18162" lon="23.585644"><ele>2840</ele><time>2026-04-05T11:21:14.000Z</time></trkpt>
<trkpt lat="42.181621" lon="23.585647"><ele>2840</ele><time>2026-04-05T11:21:15.000Z</time></trkpt>
<trkpt lat="42.181623" lon="23.58565"><ele>2840</ele><time>2026-04-05T11:21:16.000Z</time></trkpt>
<trkpt lat="42.181624" lon="23.585652"><ele>2838.6</ele><time>2026-04-05T11:21:17.000Z</time></trkpt>
<trkpt lat="42.181626" lon="23.585655"><ele>2838.6</ele><time>2026-04-05T11:21:18.000Z</time></trkpt>
<trkpt lat="42.181627" lon="23.585656"><ele>2838.6</ele><time>2026-04-05T11:21:19.000Z</time></trkpt>
<trkpt lat="42.181629" lon="23.585657"><ele>2838.6</ele><time>2026-04-05T11:21:20.000Z</time></trkpt>
<trkpt lat="42.181631" lon="23.585657"><ele>2838.6</ele><time>2026-04-05T11:21:21.000Z</time></trkpt>
<trkpt lat="42.181633" lon="23.585659"><ele>2838.1</ele><time>2026-04-05T11:21:22.000Z</time></trkpt>
<trkpt lat="42.181635" lon="23.58566"><ele>2838.1</ele><time>2026-04-05T11:21:23.000Z</time></trkpt>
<trkpt lat="42.181636" lon="23.585661"><ele>2838.1</ele><time>2026-04-05T11:21:24.000Z</time></trkpt>
<trkpt lat="42.181636" lon="23.585661"><ele>2838.1</ele><time>2026-04-05T11:21:25.000Z</time></trkpt>
<trkpt lat="42.181636" lon="23.585662"><ele>2838.1</ele><time>2026-04-05T11:21:26.000Z</time></trkpt>
<trkpt lat="42.181637" lon="23.585662"><ele>2837.4</ele><time>2026-04-05T11:21:27.000Z</time></trkpt>
<trkpt lat="42.181637" lon="23.585662"><ele>2837.4</ele><time>2026-04-05T11:21:28.000Z</time></trkpt>
<trkpt lat="42.181637" lon="23.585662"><ele>2837.4</ele><time>2026-04-05T11:21:29.000Z</time></trkpt>
<trkpt lat="42.181637" lon="23.585662"><ele>2837.4</ele><time>2026-04-05T11:21:30.000Z</time></trkpt>
<trkpt lat="42.181637" lon="23.585662"><ele>2837.4</ele><time>2026-04-05T11:21:31.000Z</time></trkpt>
<trkpt lat="42.181637" lon="23.585662"><ele>2837.1</ele><time>2026-04-05T11:21:32.000Z</time></trkpt>
<trkpt lat="42.181637" lon="23.585662"><ele>2837.1</ele><time>2026-04-05T11:21:33.000Z</time></trkpt>
<trkpt lat="42.181637" lon="23.585664"><ele>2837.1</ele><time>2026-04-05T11:21:34.000Z</time></trkpt>
<trkpt lat="42.181639" lon="23.585666"><ele>2837.1</ele><time>2026-04-05T11:21:35.000Z</time></trkpt>
<trkpt lat="42.181641" lon="23.585671"><ele>2837.1</ele><time>2026-04-05T11:21:36.000Z</time></trkpt>
<trkpt lat="42.181644" lon="23.585676"><ele>2837</ele><time>2026-04-05T11:21:37.000Z</time></trkpt>
<trkpt lat="42.181648" lon="23.585682"><ele>2837</ele><time>2026-04-05T11:21:38.000Z</time></trkpt>
<trkpt lat="42.181651" lon="23.585686"><ele>2837</ele><time>2026-04-05T11:21:39.000Z</time></trkpt>
<trkpt lat="42.181654" lon="23.58569"><ele>2837</ele><time>2026-04-05T11:21:40.000Z</time></trkpt>
<trkpt lat="42.181657" lon="23.585693"><ele>2837</ele><time>2026-04-05T11:21:41.000Z</time></trkpt>
<trkpt lat="42.18166" lon="23.585696"><ele>2836.7</ele><time>2026-04-05T11:21:42.000Z</time></trkpt>
<trkpt lat="42.181662" lon="23.585699"><ele>2836.7</ele><time>2026-04-05T11:21:43.000Z</time></trkpt>
<trkpt lat="42.181664" lon="23.585703"><ele>2836.7</ele><time>2026-04-05T11:21:44.000Z</time></trkpt>
<trkpt lat="42.181666" lon="23.585706"><ele>2836.7</ele><time>2026-04-05T11:21:45.000Z</time></trkpt>
<trkpt lat="42.181667" lon="23.58571"><ele>2836.7</ele><time>2026-04-05T11:21:46.000Z</time></trkpt>
<trkpt lat="42.181668" lon="23.585713"><ele>2836</ele><time>2026-04-05T11:21:47.000Z</time></trkpt>
<trkpt lat="42.181668" lon="23.585715"><ele>2836</ele><time>2026-04-05T11:21:48.000Z</time></trkpt>
<trkpt lat="42.18167" lon="23.585717"><ele>2836</ele><time>2026-04-05T11:21:49.000Z</time></trkpt>
<trkpt lat="42.181671" lon="23.585718"><ele>2836</ele><time>2026-04-05T11:21:50.000Z</time></trkpt>
<trkpt lat="42.181671" lon="23.585717"><ele>2836</ele><time>2026-04-05T11:21:51.000Z</time></trkpt>
<trkpt lat="42.181672" lon="23.585717"><ele>2835.4</ele><time>2026-04-05T11:21:52.000Z</time></trkpt>
<trkpt lat="42.181673" lon="23.585718"><ele>2835.4</ele><time>2026-04-05T11:21:53.000Z</time></trkpt>
<trkpt lat="42.181674" lon="23.585719"><ele>2835.4</ele><time>2026-04-05T11:21:54.000Z</time></trkpt>
<trkpt lat="42.181676" lon="23.585721"><ele>2835.4</ele><time>2026-04-05T11:21:55.000Z</time></trkpt>
<trkpt lat="42.181678" lon="23.585725"><ele>2835.4</ele><time>2026-04-05T11:21:56.000Z</time></trkpt>
<trkpt lat="42.18168" lon="23.585727"><ele>2833.8</ele><time>2026-04-05T11:21:57.000Z</time></trkpt>
<trkpt lat="42.181682" lon="23.585729"><ele>2833.8</ele><time>2026-04-05T11:21:58.000Z</time></trkpt>
<trkpt lat="42.181685" lon="23.585731"><ele>2833.8</ele><time>2026-04-05T11:21:59.000Z</time></trkpt>
<trkpt lat="42.181687" lon="23.585735"><ele>2833.8</ele><time>2026-04-05T11:22:00.000Z</time></trkpt>
<trkpt lat="42.18169" lon="23.585736"><ele>2833.8</ele><time>2026-04-05T11:22:01.000Z</time></trkpt>
<trkpt lat="42.181693" lon="23.585739"><ele>2832.5</ele><time>2026-04-05T11:22:02.000Z</time></trkpt>
<trkpt lat="42.181695" lon="23.58574"><ele>2832.5</ele><time>2026-04-05T11:22:03.000Z</time></trkpt>
<trkpt lat="42.181697" lon="23.585742"><ele>2832.5</ele><time>2026-04-05T11:22:04.000Z</time></trkpt>
<trkpt lat="42.181699" lon="23.585744"><ele>2832.5</ele><time>2026-04-05T11:22:05.000Z</time></trkpt>
<trkpt lat="42.1817" lon="23.585746"><ele>2832.5</ele><time>2026-04-05T11:22:06.000Z</time></trkpt>
<trkpt lat="42.181701" lon="23.585749"><ele>2832</ele><time>2026-04-05T11:22:07.000Z</time></trkpt>
<trkpt lat="42.181703" lon="23.585753"><ele>2832</ele><time>2026-04-05T11:22:08.000Z</time></trkpt>
<trkpt lat="42.181705" lon="23.585757"><ele>2832</ele><time>2026-04-05T11:22:09.000Z</time></trkpt>
<trkpt lat="42.181707" lon="23.585761"><ele>2832</ele><time>2026-04-05T11:22:10.000Z</time></trkpt>
<trkpt lat="42.181709" lon="23.585763"><ele>2832</ele><time>2026-04-05T11:22:11.000Z</time></trkpt>
<trkpt lat="42.18171" lon="23.585766"><ele>2831.2</ele><time>2026-04-05T11:22:12.000Z</time></trkpt>
<trkpt lat="42.181711" lon="23.585768"><ele>2831.2</ele><time>2026-04-05T11:22:13.000Z</time></trkpt>
<trkpt lat="42.181711" lon="23.585771"><ele>2831.2</ele><time>2026-04-05T11:22:14.000Z</time></trkpt>
<trkpt lat="42.181711" lon="23.585774"><ele>2831.2</ele><time>2026-04-05T11:22:15.000Z</time></trkpt>
<trkpt lat="42.181711" lon="23.585779"><ele>2831.2</ele><time>2026-04-05T11:22:16.000Z</time></trkpt>
<trkpt lat="42.18171" lon="23.585783"><ele>2830.3</ele><time>2026-04-05T11:22:17.000Z</time></trkpt>
<trkpt lat="42.181711" lon="23.585788"><ele>2830.3</ele><time>2026-04-05T11:22:18.000Z</time></trkpt>
<trkpt lat="42.181712" lon="23.585792"><ele>2830.3</ele><time>2026-04-05T11:22:19.000Z</time></trkpt>
<trkpt lat="42.181713" lon="23.585795"><ele>2830.3</ele><time>2026-04-05T11:22:20.000Z</time></trkpt>
<trkpt lat="42.181714" lon="23.585796"><ele>2830.3</ele><time>2026-04-05T11:22:21.000Z</time></trkpt>
<trkpt lat="42.181716" lon="23.585798"><ele>2829.8</ele><time>2026-04-05T11:22:22.000Z</time></trkpt>
<trkpt lat="42.181719" lon="23.585799"><ele>2829.8</ele><time>2026-04-05T11:22:23.000Z</time></trkpt>
<trkpt lat="42.181721" lon="23.5858"><ele>2829.8</ele><time>2026-04-05T11:22:24.000Z</time></trkpt>
<trkpt lat="42.181725" lon="23.585801"><ele>2829.8</ele><time>2026-04-05T11:22:25.000Z</time></trkpt>
<trkpt lat="42.181728" lon="23.585802"><ele>2829.8</ele><time>2026-04-05T11:22:26.000Z</time></trkpt>
<trkpt lat="42.181732" lon="23.585803"><ele>2828.6</ele><time>2026-04-05T11:22:27.000Z</time></trkpt>
<trkpt lat="42.181736" lon="23.585804"><ele>2828.6</ele><time>2026-04-05T11:22:28.000Z</time></trkpt>
<trkpt lat="42.18174" lon="23.585806"><ele>2828.6</ele><time>2026-04-05T11:22:29.000Z</time></trkpt>
<trkpt lat="42.181743" lon="23.58581"><ele>2828.6</ele><time>2026-04-05T11:22:30.000Z</time></trkpt>
<trkpt lat="42.181746" lon="23.585813"><ele>2828.6</ele><time>2026-04-05T11:22:31.000Z</time></trkpt>
<trkpt lat="42.181747" lon="23.585817"><ele>2827.6</ele><time>2026-04-05T11:22:32.000Z</time></trkpt>
<trkpt lat="42.181751" lon="23.58582"><ele>2827.6</ele><time>2026-04-05T11:22:33.000Z</time></trkpt>
<trkpt lat="42.181755" lon="23.585823"><ele>2827.6</ele><time>2026-04-05T11:22:34.000Z</time></trkpt>
<trkpt lat="42.181758" lon="23.585828"><ele>2827.6</ele><time>2026-04-05T11:22:35.000Z</time></trkpt>
<trkpt lat="42.181762" lon="23.585832"><ele>2827.6</ele><time>2026-04-05T11:22:36.000Z</time></trkpt>
<trkpt lat="42.181765" lon="23.585837"><ele>2827.2</ele><time>2026-04-05T11:22:37.000Z</time></trkpt>
<trkpt lat="42.181766" lon="23.585843"><ele>2827.2</ele><time>2026-04-05T11:22:38.000Z</time></trkpt>
<trkpt lat="42.181767" lon="23.585848"><ele>2827.2</ele><time>2026-04-05T11:22:39.000Z</time></trkpt>
<trkpt lat="42.181769" lon="23.585853"><ele>2827.2</ele><time>2026-04-05T11:22:40.000Z</time></trkpt>
<trkpt lat="42.181771" lon="23.585859"><ele>2827.2</ele><time>2026-04-05T11:22:41.000Z</time></trkpt>
<trkpt lat="42.181775" lon="23.585865"><ele>2826.3</ele><time>2026-04-05T11:22:42.000Z</time></trkpt>
<trkpt lat="42.181779" lon="23.585872"><ele>2826.3</ele><time>2026-04-05T11:22:43.000Z</time></trkpt>
<trkpt lat="42.181782" lon="23.585879"><ele>2826.3</ele><time>2026-04-05T11:22:44.000Z</time></trkpt>
<trkpt lat="42.181785" lon="23.585885"><ele>2826.3</ele><time>2026-04-05T11:22:45.000Z</time></trkpt>
<trkpt lat="42.181787" lon="23.585891"><ele>2826.3</ele><time>2026-04-05T11:22:46.000Z</time></trkpt>
<trkpt lat="42.18179" lon="23.585895"><ele>2824.9</ele><time>2026-04-05T11:22:47.000Z</time></trkpt>
<trkpt lat="42.181793" lon="23.585899"><ele>2824.9</ele><time>2026-04-05T11:22:48.000Z</time></trkpt>
<trkpt lat="42.181796" lon="23.585903"><ele>2824.9</ele><time>2026-04-05T11:22:49.000Z</time></trkpt>
<trkpt lat="42.1818" lon="23.585904"><ele>2824.9</ele><time>2026-04-05T11:22:50.000Z</time></trkpt>
<trkpt lat="42.181804" lon="23.585905"><ele>2824.9</ele><time>2026-04-05T11:22:51.000Z</time></trkpt>
<trkpt lat="42.181807" lon="23.585905"><ele>2824.1</ele><time>2026-04-05T11:22:52.000Z</time></trkpt>
<trkpt lat="42.181812" lon="23.585905"><ele>2824.1</ele><time>2026-04-05T11:22:53.000Z</time></trkpt>
<trkpt lat="42.181818" lon="23.585904"><ele>2824.1</ele><time>2026-04-05T11:22:54.000Z</time></trkpt>
<trkpt lat="42.181822" lon="23.585904"><ele>2824.1</ele><time>2026-04-05T11:22:55.000Z</time></trkpt>
<trkpt lat="42.181827" lon="23.585904"><ele>2824.1</ele><time>2026-04-05T11:22:56.000Z</time></trkpt>
<trkpt lat="42.181831" lon="23.585903"><ele>2822.1</ele><time>2026-04-05T11:22:57.000Z</time></trkpt>
<trkpt lat="42.181834" lon="23.585902"><ele>2822.1</ele><time>2026-04-05T11:22:58.000Z</time></trkpt>
<trkpt lat="42.181838" lon="23.5859"><ele>2822.1</ele><time>2026-04-05T11:22:59.000Z</time></trkpt>
<trkpt lat="42.181841" lon="23.585898"><ele>2822.1</ele><time>2026-04-05T11:23:00.000Z</time></trkpt>
<trkpt lat="42.181844" lon="23.585897"><ele>2822.1</ele><time>2026-04-05T11:23:01.000Z</time></trkpt>
<trkpt lat="42.181847" lon="23.585897"><ele>2820.2</ele><time>2026-04-05T11:23:02.000Z</time></trkpt>
<trkpt lat="42.18185" lon="23.585896"><ele>2820.2</ele><time>2026-04-05T11:23:03.000Z</time></trkpt>
<trkpt lat="42.181852" lon="23.585896"><ele>2820.2</ele><time>2026-04-05T11:23:04.000Z</time></trkpt>
<trkpt lat="42.181855" lon="23.585896"><ele>2820.2</ele><time>2026-04-05T11:23:05.000Z</time></trkpt>
<trkpt lat="42.181859" lon="23.585897"><ele>2820.2</ele><time>2026-04-05T11:23:06.000Z</time></trkpt>
<trkpt lat="42.181865" lon="23.585897"><ele>2819.4</ele><time>2026-04-05T11:23:07.000Z</time></trkpt>
<trkpt lat="42.18187" lon="23.585898"><ele>2819.4</ele><time>2026-04-05T11:23:08.000Z</time></trkpt>
<trkpt lat="42.181876" lon="23.585898"><ele>2819.4</ele><time>2026-04-05T11:23:09.000Z</time></trkpt>
<trkpt lat="42.181881" lon="23.585899"><ele>2819.4</ele><time>2026-04-05T11:23:10.000Z</time></trkpt>
<trkpt lat="42.181885" lon="23.5859"><ele>2819.4</ele><time>2026-04-05T11:23:11.000Z</time></trkpt>
<trkpt lat="42.18189" lon="23.585901"><ele>2818.2</ele><time>2026-04-05T11:23:12.000Z</time></trkpt>
<trkpt lat="42.181895" lon="23.585903"><ele>2818.2</ele><time>2026-04-05T11:23:13.000Z</time></trkpt>
<trkpt lat="42.181899" lon="23.585904"><ele>2818.2</ele><time>2026-04-05T11:23:14.000Z</time></trkpt>
<trkpt lat="42.181902" lon="23.585905"><ele>2818.2</ele><time>2026-04-05T11:23:15.000Z</time></trkpt>
<trkpt lat="42.181904" lon="23.585905"><ele>2818.2</ele><time>2026-04-05T11:23:16.000Z</time></trkpt>
<trkpt lat="42.181907" lon="23.585905"><ele>2817.2</ele><time>2026-04-05T11:23:17.000Z</time></trkpt>
<trkpt lat="42.18191" lon="23.585905"><ele>2817.2</ele><time>2026-04-05T11:23:18.000Z</time></trkpt>
<trkpt lat="42.181913" lon="23.585905"><ele>2817.2</ele><time>2026-04-05T11:23:19.000Z</time></trkpt>
<trkpt lat="42.181918" lon="23.585906"><ele>2817.2</ele><time>2026-04-05T11:23:20.000Z</time></trkpt>
<trkpt lat="42.181924" lon="23.585907"><ele>2817.2</ele><time>2026-04-05T11:23:21.000Z</time></trkpt>
<trkpt lat="42.181928" lon="23.585909"><ele>2816.7</ele><time>2026-04-05T11:23:22.000Z</time></trkpt>
<trkpt lat="42.181931" lon="23.58591"><ele>2816.7</ele><time>2026-04-05T11:23:23.000Z</time></trkpt>
<trkpt lat="42.181934" lon="23.585912"><ele>2816.7</ele><time>2026-04-05T11:23:24.000Z</time></trkpt>
<trkpt lat="42.181935" lon="23.585913"><ele>2816.7</ele><time>2026-04-05T11:23:25.000Z</time></trkpt>
<trkpt lat="42.181936" lon="23.585914"><ele>2816.7</ele><time>2026-04-05T11:23:26.000Z</time></trkpt>
<trkpt lat="42.181937" lon="23.585915"><ele>2815.4</ele><time>2026-04-05T11:23:27.000Z</time></trkpt>
<trkpt lat="42.181936" lon="23.585916"><ele>2815.4</ele><time>2026-04-05T11:23:28.000Z</time></trkpt>
<trkpt lat="42.181936" lon="23.585916"><ele>2815.4</ele><time>2026-04-05T11:23:29.000Z</time></trkpt>
<trkpt lat="42.181936" lon="23.585916"><ele>2815.4</ele><time>2026-04-05T11:23:30.000Z</time></trkpt>
<trkpt lat="42.181936" lon="23.585917"><ele>2815.4</ele><time>2026-04-05T11:23:31.000Z</time></trkpt>
<trkpt lat="42.181936" lon="23.585917"><ele>2814.3</ele><time>2026-04-05T11:23:32.000Z</time></trkpt>
<trkpt lat="42.181936" lon="23.585917"><ele>2814.3</ele><time>2026-04-05T11:23:33.000Z</time></trkpt>
<trkpt lat="42.181936" lon="23.585917"><ele>2814.3</ele><time>2026-04-05T11:23:34.000Z</time></trkpt>
<trkpt lat="42.181936" lon="23.585917"><ele>2814.3</ele><time>2026-04-05T11:23:35.000Z</time></trkpt>
<trkpt lat="42.181936" lon="23.585916"><ele>2814.3</ele><time>2026-04-05T11:23:36.000Z</time></trkpt>
<trkpt lat="42.181936" lon="23.585916"><ele>2813.9</ele><time>2026-04-05T11:23:37.000Z</time></trkpt>
<trkpt lat="42.181936" lon="23.585916"><ele>2813.9</ele><time>2026-04-05T11:23:38.000Z</time></trkpt>
<trkpt lat="42.181936" lon="23.585916"><ele>2813.9</ele><time>2026-04-05T11:23:39.000Z</time></trkpt>
<trkpt lat="42.181936" lon="23.585916"><ele>2813.9</ele><time>2026-04-05T11:23:40.000Z</time></trkpt>
<trkpt lat="42.181936" lon="23.585916"><ele>2813.9</ele><time>2026-04-05T11:23:41.000Z</time></trkpt>
<trkpt lat="42.181936" lon="23.585916"><ele>2813.3</ele><time>2026-04-05T11:23:42.000Z</time></trkpt>
<trkpt lat="42.181936" lon="23.585916"><ele>2813.3</ele><time>2026-04-05T11:23:43.000Z</time></trkpt>
<trkpt lat="42.181936" lon="23.585916"><ele>2813.3</ele><time>2026-04-05T11:23:44.000Z</time></trkpt>
<trkpt lat="42.181936" lon="23.585916"><ele>2813.3</ele><time>2026-04-05T11:23:45.000Z</time></trkpt>
<trkpt lat="42.181936" lon="23.585916"><ele>2813.3</ele><time>2026-04-05T11:23:46.000Z</time></trkpt>
<trkpt lat="42.181936" lon="23.585916"><ele>2813.1</ele><time>2026-04-05T11:23:47.000Z</time></trkpt>
<trkpt lat="42.181936" lon="23.585916"><ele>2813.1</ele><time>2026-04-05T11:23:48.000Z</time></trkpt>
<trkpt lat="42.181936" lon="23.585916"><ele>2813.1</ele><time>2026-04-05T11:23:49.000Z</time></trkpt>
<trkpt lat="42.181936" lon="23.585916"><ele>2813.1</ele><time>2026-04-05T11:23:50.000Z</time></trkpt>
<trkpt lat="42.181936" lon="23.585916"><ele>2813.1</ele><time>2026-04-05T11:23:51.000Z</time></trkpt>
<trkpt lat="42.181936" lon="23.585916"><ele>2813.2</ele><time>2026-04-05T11:23:52.000Z</time></trkpt>
<trkpt lat="42.181936" lon="23.585916"><ele>2813.2</ele><time>2026-04-05T11:23:53.000Z</time></trkpt>
<trkpt lat="42.181936" lon="23.585916"><ele>2813.2</ele><time>2026-04-05T11:23:54.000Z</time></trkpt>
<trkpt lat="42.181936" lon="23.585916"><ele>2813.2</ele><time>2026-04-05T11:23:55.000Z</time></trkpt>
<trkpt lat="42.181936" lon="23.585917"><ele>2813.2</ele><time>2026-04-05T11:23:56.000Z</time></trkpt>
<trkpt lat="42.181936" lon="23.585917"><ele>2813.2</ele><time>2026-04-05T11:23:57.000Z</time></trkpt>
<trkpt lat="42.181936" lon="23.585918"><ele>2813.2</ele><time>2026-04-05T11:23:58.000Z</time></trkpt>
<trkpt lat="42.181936" lon="23.585919"><ele>2813.2</ele><time>2026-04-05T11:23:59.000Z</time></trkpt>
<trkpt lat="42.181936" lon="23.585919"><ele>2813.2</ele><time>2026-04-05T11:24:00.000Z</time></trkpt>
<trkpt lat="42.181936" lon="23.585919"><ele>2813.2</ele><time>2026-04-05T11:24:01.000Z</time></trkpt>
<trkpt lat="42.181936" lon="23.58592"><ele>2813.2</ele><time>2026-04-05T11:24:02.000Z</time></trkpt>
<trkpt lat="42.181936" lon="23.58592"><ele>2813.2</ele><time>2026-04-05T11:24:03.000Z</time></trkpt>
<trkpt lat="42.181936" lon="23.585921"><ele>2813.2</ele><time>2026-04-05T11:24:04.000Z</time></trkpt>
<trkpt lat="42.181936" lon="23.585921"><ele>2813.2</ele><time>2026-04-05T11:24:05.000Z</time></trkpt>
<trkpt lat="42.181936" lon="23.585922"><ele>2813.2</ele><time>2026-04-05T11:24:06.000Z</time></trkpt>
<trkpt lat="42.181937" lon="23.585922"><ele>2813.3</ele><time>2026-04-05T11:24:07.000Z</time></trkpt>
<trkpt lat="42.181937" lon="23.585922"><ele>2813.3</ele><time>2026-04-05T11:24:08.000Z</time></trkpt>
<trkpt lat="42.181937" lon="23.585922"><ele>2813.3</ele><time>2026-04-05T11:24:09.000Z</time></trkpt>
<trkpt lat="42.181937" lon="23.585922"><ele>2813.3</ele><time>2026-04-05T11:24:10.000Z</time></trkpt>
<trkpt lat="42.181937" lon="23.585922"><ele>2813.3</ele><time>2026-04-05T11:24:11.000Z</time></trkpt>
<trkpt lat="42.181937" lon="23.585922"><ele>2813.4</ele><time>2026-04-05T11:24:12.000Z</time></trkpt>
<trkpt lat="42.181937" lon="23.585922"><ele>2813.4</ele><time>2026-04-05T11:24:13.000Z</time></trkpt>
<trkpt lat="42.181936" lon="23.585922"><ele>2813.4</ele><time>2026-04-05T11:24:14.000Z</time></trkpt>
<trkpt lat="42.181936" lon="23.585922"><ele>2813.4</ele><time>2026-04-05T11:24:15.000Z</time></trkpt>
<trkpt lat="42.181937" lon="23.585922"><ele>2813.4</ele><time>2026-04-05T11:24:16.000Z</time></trkpt>
<trkpt lat="42.18194" lon="23.585923"><ele>2813.4</ele><time>2026-04-05T11:24:17.000Z</time></trkpt>
<trkpt lat="42.181943" lon="23.585924"><ele>2813.4</ele><time>2026-04-05T11:24:18.000Z</time></trkpt>
<trkpt lat="42.181947" lon="23.585925"><ele>2813.4</ele><time>2026-04-05T11:24:19.000Z</time></trkpt>
<trkpt lat="42.181953" lon="23.585926"><ele>2813.4</ele><time>2026-04-05T11:24:20.000Z</time></trkpt>
<trkpt lat="42.18196" lon="23.585927"><ele>2813.4</ele><time>2026-04-05T11:24:21.000Z</time></trkpt>
<trkpt lat="42.181965" lon="23.585928"><ele>2813.3</ele><time>2026-04-05T11:24:22.000Z</time></trkpt>
<trkpt lat="42.18197" lon="23.58593"><ele>2813.3</ele><time>2026-04-05T11:24:23.000Z</time></trkpt>
<trkpt lat="42.181976" lon="23.585931"><ele>2813.3</ele><time>2026-04-05T11:24:24.000Z</time></trkpt>
<trkpt lat="42.181981" lon="23.585933"><ele>2813.3</ele><time>2026-04-05T11:24:25.000Z</time></trkpt>
<trkpt lat="42.181985" lon="23.585934"><ele>2813.3</ele><time>2026-04-05T11:24:26.000Z</time></trkpt>
<trkpt lat="42.181991" lon="23.585935"><ele>2812.8</ele><time>2026-04-05T11:24:27.000Z</time></trkpt>
<trkpt lat="42.181996" lon="23.585938"><ele>2812.8</ele><time>2026-04-05T11:24:28.000Z</time></trkpt>
<trkpt lat="42.182001" lon="23.585939"><ele>2812.8</ele><time>2026-04-05T11:24:29.000Z</time></trkpt>
<trkpt lat="42.182006" lon="23.585941"><ele>2812.8</ele><time>2026-04-05T11:24:30.000Z</time></trkpt>
<trkpt lat="42.182011" lon="23.585943"><ele>2812.8</ele><time>2026-04-05T11:24:31.000Z</time></trkpt>
<trkpt lat="42.182016" lon="23.585944"><ele>2811.8</ele><time>2026-04-05T11:24:32.000Z</time></trkpt>
<trkpt lat="42.182023" lon="23.585944"><ele>2811.8</ele><time>2026-04-05T11:24:33.000Z</time></trkpt>
<trkpt lat="42.182028" lon="23.585945"><ele>2811.8</ele><time>2026-04-05T11:24:34.000Z</time></trkpt>
<trkpt lat="42.182033" lon="23.585948"><ele>2811.8</ele><time>2026-04-05T11:24:35.000Z</time></trkpt>
<trkpt lat="42.182039" lon="23.58595"><ele>2811.8</ele><time>2026-04-05T11:24:36.000Z</time></trkpt>
<trkpt lat="42.182043" lon="23.585952"><ele>2811.2</ele><time>2026-04-05T11:24:37.000Z</time></trkpt>
<trkpt lat="42.182046" lon="23.585954"><ele>2811.2</ele><time>2026-04-05T11:24:38.000Z</time></trkpt>
<trkpt lat="42.182049" lon="23.585956"><ele>2811.2</ele><time>2026-04-05T11:24:39.000Z</time></trkpt>
<trkpt lat="42.182052" lon="23.585956"><ele>2811.2</ele><time>2026-04-05T11:24:40.000Z</time></trkpt>
<trkpt lat="42.182054" lon="23.585956"><ele>2811.2</ele><time>2026-04-05T11:24:41.000Z</time></trkpt>
<trkpt lat="42.182058" lon="23.585956"><ele>2809.9</ele><time>2026-04-05T11:24:42.000Z</time></trkpt>
<trkpt lat="42.182061" lon="23.585955"><ele>2809.9</ele><time>2026-04-05T11:24:43.000Z</time></trkpt>
<trkpt lat="42.182065" lon="23.585955"><ele>2809.9</ele><time>2026-04-05T11:24:44.000Z</time></trkpt>
<trkpt lat="42.182069" lon="23.585956"><ele>2809.9</ele><time>2026-04-05T11:24:45.000Z</time></trkpt>
<trkpt lat="42.182073" lon="23.585956"><ele>2809.9</ele><time>2026-04-05T11:24:46.000Z</time></trkpt>
<trkpt lat="42.182077" lon="23.585957"><ele>2808.6</ele><time>2026-04-05T11:24:47.000Z</time></trkpt>
<trkpt lat="42.182081" lon="23.585957"><ele>2808.6</ele><time>2026-04-05T11:24:48.000Z</time></trkpt>
<trkpt lat="42.182086" lon="23.585958"><ele>2808.6</ele><time>2026-04-05T11:24:49.000Z</time></trkpt>
<trkpt lat="42.182091" lon="23.585959"><ele>2808.6</ele><time>2026-04-05T11:24:50.000Z</time></trkpt>
<trkpt lat="42.182096" lon="23.58596"><ele>2808.6</ele><time>2026-04-05T11:24:51.000Z</time></trkpt>
<trkpt lat="42.1821" lon="23.585962"><ele>2807.9</ele><time>2026-04-05T11:24:52.000Z</time></trkpt>
<trkpt lat="42.182105" lon="23.585965"><ele>2807.9</ele><time>2026-04-05T11:24:53.000Z</time></trkpt>
<trkpt lat="42.182109" lon="23.585966"><ele>2807.9</ele><time>2026-04-05T11:24:54.000Z</time></trkpt>
<trkpt lat="42.182113" lon="23.585967"><ele>2807.9</ele><time>2026-04-05T11:24:55.000Z</time></trkpt>
<trkpt lat="42.182117" lon="23.585967"><ele>2807.9</ele><time>2026-04-05T11:24:56.000Z</time></trkpt>
<trkpt lat="42.182121" lon="23.585967"><ele>2806.6</ele><time>2026-04-05T11:24:57.000Z</time></trkpt>
<trkpt lat="42.182125" lon="23.585966"><ele>2806.6</ele><time>2026-04-05T11:24:58.000Z</time></trkpt>
<trkpt lat="42.182129" lon="23.585967"><ele>2806.6</ele><time>2026-04-05T11:24:59.000Z</time></trkpt>
<trkpt lat="42.182133" lon="23.585969"><ele>2806.6</ele><time>2026-04-05T11:25:00.000Z</time></trkpt>
<trkpt lat="42.182138" lon="23.58597"><ele>2806.6</ele><time>2026-04-05T11:25:01.000Z</time></trkpt>
<trkpt lat="42.182144" lon="23.585972"><ele>2805.1</ele><time>2026-04-05T11:25:02.000Z</time></trkpt>
<trkpt lat="42.18215" lon="23.585976"><ele>2805.1</ele><time>2026-04-05T11:25:03.000Z</time></trkpt>
<trkpt lat="42.182156" lon="23.585979"><ele>2805.1</ele><time>2026-04-05T11:25:04.000Z</time></trkpt>
<trkpt lat="42.182162" lon="23.585982"><ele>2805.1</ele><time>2026-04-05T11:25:05.000Z</time></trkpt>
<trkpt lat="42.182167" lon="23.585987"><ele>2805.1</ele><time>2026-04-05T11:25:06.000Z</time></trkpt>
<trkpt lat="42.182171" lon="23.585991"><ele>2804.2</ele><time>2026-04-05T11:25:07.000Z</time></trkpt>
<trkpt lat="42.182175" lon="23.585992"><ele>2804.2</ele><time>2026-04-05T11:25:08.000Z</time></trkpt>
<trkpt lat="42.182179" lon="23.585994"><ele>2804.2</ele><time>2026-04-05T11:25:09.000Z</time></trkpt>
<trkpt lat="42.182182" lon="23.585994"><ele>2804.2</ele><time>2026-04-05T11:25:10.000Z</time></trkpt>
<trkpt lat="42.182186" lon="23.585992"><ele>2804.2</ele><time>2026-04-05T11:25:11.000Z</time></trkpt>
<trkpt lat="42.18219" lon="23.58599"><ele>2802.6</ele><time>2026-04-05T11:25:12.000Z</time></trkpt>
<trkpt lat="42.182194" lon="23.58599"><ele>2802.6</ele><time>2026-04-05T11:25:13.000Z</time></trkpt>
<trkpt lat="42.182199" lon="23.585989"><ele>2802.6</ele><time>2026-04-05T11:25:14.000Z</time></trkpt>
<trkpt lat="42.182203" lon="23.585989"><ele>2802.6</ele><time>2026-04-05T11:25:15.000Z</time></trkpt>
<trkpt lat="42.182207" lon="23.58599"><ele>2802.6</ele><time>2026-04-05T11:25:16.000Z</time></trkpt>
<trkpt lat="42.182211" lon="23.585991"><ele>2801.1</ele><time>2026-04-05T11:25:17.000Z</time></trkpt>
<trkpt lat="42.182213" lon="23.58599"><ele>2801.1</ele><time>2026-04-05T11:25:18.000Z</time></trkpt>
<trkpt lat="42.182215" lon="23.585991"><ele>2801.1</ele><time>2026-04-05T11:25:19.000Z</time></trkpt>
<trkpt lat="42.182219" lon="23.585993"><ele>2801.1</ele><time>2026-04-05T11:25:20.000Z</time></trkpt>
<trkpt lat="42.182222" lon="23.585993"><ele>2801.1</ele><time>2026-04-05T11:25:21.000Z</time></trkpt>
<trkpt lat="42.182225" lon="23.585994"><ele>2800.4</ele><time>2026-04-05T11:25:22.000Z</time></trkpt>
<trkpt lat="42.182229" lon="23.585996"><ele>2800.4</ele><time>2026-04-05T11:25:23.000Z</time></trkpt>
<trkpt lat="42.182232" lon="23.585998"><ele>2800.4</ele><time>2026-04-05T11:25:24.000Z</time></trkpt>
<trkpt lat="42.182235" lon="23.585999"><ele>2800.4</ele><time>2026-04-05T11:25:25.000Z</time></trkpt>
<trkpt lat="42.182238" lon="23.586002"><ele>2800.4</ele><time>2026-04-05T11:25:26.000Z</time></trkpt>
<trkpt lat="42.182239" lon="23.586004"><ele>2799.3</ele><time>2026-04-05T11:25:27.000Z</time></trkpt>
<trkpt lat="42.18224" lon="23.586006"><ele>2799.3</ele><time>2026-04-05T11:25:28.000Z</time></trkpt>
<trkpt lat="42.182242" lon="23.586007"><ele>2799.3</ele><time>2026-04-05T11:25:29.000Z</time></trkpt>
<trkpt lat="42.182244" lon="23.586007"><ele>2799.3</ele><time>2026-04-05T11:25:30.000Z</time></trkpt>
<trkpt lat="42.182246" lon="23.586006"><ele>2799.3</ele><time>2026-04-05T11:25:31.000Z</time></trkpt>
<trkpt lat="42.182249" lon="23.586006"><ele>2798</ele><time>2026-04-05T11:25:32.000Z</time></trkpt>
<trkpt lat="42.182253" lon="23.586006"><ele>2798</ele><time>2026-04-05T11:25:33.000Z</time></trkpt>
<trkpt lat="42.182257" lon="23.586007"><ele>2798</ele><time>2026-04-05T11:25:34.000Z</time></trkpt>
<trkpt lat="42.182261" lon="23.586006"><ele>2798</ele><time>2026-04-05T11:25:35.000Z</time></trkpt>
<trkpt lat="42.182265" lon="23.586007"><ele>2798</ele><time>2026-04-05T11:25:36.000Z</time></trkpt>
<trkpt lat="42.18227" lon="23.586008"><ele>2797.3</ele><time>2026-04-05T11:25:37.000Z</time></trkpt>
<trkpt lat="42.182275" lon="23.586009"><ele>2797.3</ele><time>2026-04-05T11:25:38.000Z</time></trkpt>
<trkpt lat="42.182279" lon="23.586009"><ele>2797.3</ele><time>2026-04-05T11:25:39.000Z</time></trkpt>
<trkpt lat="42.182282" lon="23.586009"><ele>2797.3</ele><time>2026-04-05T11:25:40.000Z</time></trkpt>
<trkpt lat="42.182284" lon="23.586012"><ele>2797.3</ele><time>2026-04-05T11:25:41.000Z</time></trkpt>
<trkpt lat="42.182285" lon="23.586014"><ele>2795.7</ele><time>2026-04-05T11:25:42.000Z</time></trkpt>
<trkpt lat="42.182286" lon="23.586017"><ele>2795.7</ele><time>2026-04-05T11:25:43.000Z</time></trkpt>
<trkpt lat="42.182287" lon="23.586021"><ele>2795.7</ele><time>2026-04-05T11:25:44.000Z</time></trkpt>
<trkpt lat="42.182291" lon="23.586025"><ele>2795.7</ele><time>2026-04-05T11:25:45.000Z</time></trkpt>
<trkpt lat="42.182295" lon="23.586026"><ele>2795.7</ele><time>2026-04-05T11:25:46.000Z</time></trkpt>
<trkpt lat="42.182299" lon="23.586026"><ele>2794.3</ele><time>2026-04-05T11:25:47.000Z</time></trkpt>
<trkpt lat="42.182305" lon="23.586027"><ele>2794.3</ele><time>2026-04-05T11:25:48.000Z</time></trkpt>
<trkpt lat="42.182309" lon="23.586028"><ele>2794.3</ele><time>2026-04-05T11:25:49.000Z</time></trkpt>
<trkpt lat="42.182314" lon="23.586029"><ele>2794.3</ele><time>2026-04-05T11:25:50.000Z</time></trkpt>
<trkpt lat="42.182318" lon="23.58603"><ele>2794.3</ele><time>2026-04-05T11:25:51.000Z</time></trkpt>
<trkpt lat="42.182323" lon="23.586031"><ele>2793.6</ele><time>2026-04-05T11:25:52.000Z</time></trkpt>
<trkpt lat="42.182327" lon="23.586032"><ele>2793.6</ele><time>2026-04-05T11:25:53.000Z</time></trkpt>
<trkpt lat="42.182332" lon="23.586033"><ele>2793.6</ele><time>2026-04-05T11:25:54.000Z</time></trkpt>
<trkpt lat="42.182336" lon="23.586035"><ele>2793.6</ele><time>2026-04-05T11:25:55.000Z</time></trkpt>
<trkpt lat="42.182341" lon="23.586037"><ele>2793.6</ele><time>2026-04-05T11:25:56.000Z</time></trkpt>
<trkpt lat="42.182345" lon="23.586038"><ele>2792.3</ele><time>2026-04-05T11:25:57.000Z</time></trkpt>
<trkpt lat="42.18235" lon="23.586039"><ele>2792.3</ele><time>2026-04-05T11:25:58.000Z</time></trkpt>
<trkpt lat="42.182355" lon="23.586039"><ele>2792.3</ele><time>2026-04-05T11:25:59.000Z</time></trkpt>
<trkpt lat="42.182359" lon="23.58604"><ele>2792.3</ele><time>2026-04-05T11:26:00.000Z</time></trkpt>
<trkpt lat="42.182364" lon="23.586041"><ele>2792.3</ele><time>2026-04-05T11:26:01.000Z</time></trkpt>
<trkpt lat="42.182368" lon="23.586041"><ele>2791</ele><time>2026-04-05T11:26:02.000Z</time></trkpt>
<trkpt lat="42.182371" lon="23.586041"><ele>2791</ele><time>2026-04-05T11:26:03.000Z</time></trkpt>
<trkpt lat="42.182373" lon="23.586042"><ele>2791</ele><time>2026-04-05T11:26:04.000Z</time></trkpt>
<trkpt lat="42.182374" lon="23.586041"><ele>2791</ele><time>2026-04-05T11:26:05.000Z</time></trkpt>
<trkpt lat="42.182375" lon="23.586041"><ele>2791</ele><time>2026-04-05T11:26:06.000Z</time></trkpt>
<trkpt lat="42.182376" lon="23.58604"><ele>2790.3</ele><time>2026-04-05T11:26:07.000Z</time></trkpt>
<trkpt lat="42.182378" lon="23.586041"><ele>2790.3</ele><time>2026-04-05T11:26:08.000Z</time></trkpt>
<trkpt lat="42.182382" lon="23.586042"><ele>2790.3</ele><time>2026-04-05T11:26:09.000Z</time></trkpt>
<trkpt lat="42.182386" lon="23.586042"><ele>2790.3</ele><time>2026-04-05T11:26:10.000Z</time></trkpt>
<trkpt lat="42.182391" lon="23.586043"><ele>2790.3</ele><time>2026-04-05T11:26:11.000Z</time></trkpt>
<trkpt lat="42.182396" lon="23.586043"><ele>2788.9</ele><time>2026-04-05T11:26:12.000Z</time></trkpt>
<trkpt lat="42.182401" lon="23.586043"><ele>2788.9</ele><time>2026-04-05T11:26:13.000Z</time></trkpt>
<trkpt lat="42.182406" lon="23.586043"><ele>2788.9</ele><time>2026-04-05T11:26:14.000Z</time></trkpt>
<trkpt lat="42.18241" lon="23.586044"><ele>2788.9</ele><time>2026-04-05T11:26:15.000Z</time></trkpt>
<trkpt lat="42.182415" lon="23.586046"><ele>2788.9</ele><time>2026-04-05T11:26:16.000Z</time></trkpt>
<trkpt lat="42.18242" lon="23.586048"><ele>2787.4</ele><time>2026-04-05T11:26:17.000Z</time></trkpt>
<trkpt lat="42.182424" lon="23.58605"><ele>2787.4</ele><time>2026-04-05T11:26:18.000Z</time></trkpt>
<trkpt lat="42.182429" lon="23.586052"><ele>2787.4</ele><time>2026-04-05T11:26:19.000Z</time></trkpt>
<trkpt lat="42.182433" lon="23.586053"><ele>2787.4</ele><time>2026-04-05T11:26:20.000Z</time></trkpt>
<trkpt lat="42.182437" lon="23.586054"><ele>2787.4</ele><time>2026-04-05T11:26:21.000Z</time></trkpt>
<trkpt lat="42.182441" lon="23.586054"><ele>2786.6</ele><time>2026-04-05T11:26:22.000Z</time></trkpt>
<trkpt lat="42.182446" lon="23.586053"><ele>2786.6</ele><time>2026-04-05T11:26:23.000Z</time></trkpt>
<trkpt lat="42.182451" lon="23.586053"><ele>2786.6</ele><time>2026-04-05T11:26:24.000Z</time></trkpt>
<trkpt lat="42.182457" lon="23.586055"><ele>2786.6</ele><time>2026-04-05T11:26:25.000Z</time></trkpt>
<trkpt lat="42.182462" lon="23.586057"><ele>2786.6</ele><time>2026-04-05T11:26:26.000Z</time></trkpt>
<trkpt lat="42.182466" lon="23.586059"><ele>2785.1</ele><time>2026-04-05T11:26:27.000Z</time></trkpt>
<trkpt lat="42.18247" lon="23.586062"><ele>2785.1</ele><time>2026-04-05T11:26:28.000Z</time></trkpt>
<trkpt lat="42.182475" lon="23.586065"><ele>2785.1</ele><time>2026-04-05T11:26:29.000Z</time></trkpt>
<trkpt lat="42.182479" lon="23.586066"><ele>2785.1</ele><time>2026-04-05T11:26:30.000Z</time></trkpt>
<trkpt lat="42.182483" lon="23.58607"><ele>2785.1</ele><time>2026-04-05T11:26:31.000Z</time></trkpt>
<trkpt lat="42.182487" lon="23.586073"><ele>2783.6</ele><time>2026-04-05T11:26:32.000Z</time></trkpt>
<trkpt lat="42.182491" lon="23.586075"><ele>2783.6</ele><time>2026-04-05T11:26:33.000Z</time></trkpt>
<trkpt lat="42.182496" lon="23.586079"><ele>2783.6</ele><time>2026-04-05T11:26:34.000Z</time></trkpt>
<trkpt lat="42.182502" lon="23.586083"><ele>2783.6</ele><time>2026-04-05T11:26:35.000Z</time></trkpt>
<trkpt lat="42.182509" lon="23.586086"><ele>2783.6</ele><time>2026-04-05T11:26:36.000Z</time></trkpt>
<trkpt lat="42.182517" lon="23.586088"><ele>2782.8</ele><time>2026-04-05T11:26:37.000Z</time></trkpt>
<trkpt lat="42.182527" lon="23.586092"><ele>2782.8</ele><time>2026-04-05T11:26:38.000Z</time></trkpt>
<trkpt lat="42.182536" lon="23.586096"><ele>2782.8</ele><time>2026-04-05T11:26:39.000Z</time></trkpt>
<trkpt lat="42.182543" lon="23.5861"><ele>2782.8</ele><time>2026-04-05T11:26:40.000Z</time></trkpt>
<trkpt lat="42.18255" lon="23.586104"><ele>2782.8</ele><time>2026-04-05T11:26:41.000Z</time></trkpt>
<trkpt lat="42.182556" lon="23.58611"><ele>2781.2</ele><time>2026-04-05T11:26:42.000Z</time></trkpt>
<trkpt lat="42.182559" lon="23.586116"><ele>2781.2</ele><time>2026-04-05T11:26:43.000Z</time></trkpt>
<trkpt lat="42.182563" lon="23.586123"><ele>2781.2</ele><time>2026-04-05T11:26:44.000Z</time></trkpt>
<trkpt lat="42.182567" lon="23.586131"><ele>2781.2</ele><time>2026-04-05T11:26:45.000Z</time></trkpt>
<trkpt lat="42.18257" lon="23.586139"><ele>2781.2</ele><time>2026-04-05T11:26:46.000Z</time></trkpt>
<trkpt lat="42.182575" lon="23.586147"><ele>2779.6</ele><time>2026-04-05T11:26:47.000Z</time></trkpt>
<trkpt lat="42.182579" lon="23.586156"><ele>2779.6</ele><time>2026-04-05T11:26:48.000Z</time></trkpt>
<trkpt lat="42.182584" lon="23.586165"><ele>2779.6</ele><time>2026-04-05T11:26:49.000Z</time></trkpt>
<trkpt lat="42.182589" lon="23.586173"><ele>2779.6</ele><time>2026-04-05T11:26:50.000Z</time></trkpt>
<trkpt lat="42.182594" lon="23.58618"><ele>2779.6</ele><time>2026-04-05T11:26:51.000Z</time></trkpt>
<trkpt lat="42.182598" lon="23.586187"><ele>2778.9</ele><time>2026-04-05T11:26:52.000Z</time></trkpt>
<trkpt lat="42.182602" lon="23.586192"><ele>2778.9</ele><time>2026-04-05T11:26:53.000Z</time></trkpt>
<trkpt lat="42.182605" lon="23.586198"><ele>2778.9</ele><time>2026-04-05T11:26:54.000Z</time></trkpt>
<trkpt lat="42.182608" lon="23.586203"><ele>2778.9</ele><time>2026-04-05T11:26:55.000Z</time></trkpt>
<trkpt lat="42.182611" lon="23.586208"><ele>2778.9</ele><time>2026-04-05T11:26:56.000Z</time></trkpt>
<trkpt lat="42.182615" lon="23.586214"><ele>2777.4</ele><time>2026-04-05T11:26:57.000Z</time></trkpt>
<trkpt lat="42.182619" lon="23.586221"><ele>2777.4</ele><time>2026-04-05T11:26:58.000Z</time></trkpt>
<trkpt lat="42.182623" lon="23.586228"><ele>2777.4</ele><time>2026-04-05T11:26:59.000Z</time></trkpt>
<trkpt lat="42.182627" lon="23.586236"><ele>2777.4</ele><time>2026-04-05T11:27:00.000Z</time></trkpt>
<trkpt lat="42.182632" lon="23.586243"><ele>2777.4</ele><time>2026-04-05T11:27:01.000Z</time></trkpt>
<trkpt lat="42.182635" lon="23.586249"><ele>2775.9</ele><time>2026-04-05T11:27:02.000Z</time></trkpt>
<trkpt lat="42.182638" lon="23.586254"><ele>2775.9</ele><time>2026-04-05T11:27:03.000Z</time></trkpt>
<trkpt lat="42.182642" lon="23.586258"><ele>2775.9</ele><time>2026-04-05T11:27:04.000Z</time></trkpt>
<trkpt lat="42.182645" lon="23.586264"><ele>2775.9</ele><time>2026-04-05T11:27:05.000Z</time></trkpt>
<trkpt lat="42.182647" lon="23.586272"><ele>2775.9</ele><time>2026-04-05T11:27:06.000Z</time></trkpt>
<trkpt lat="42.182651" lon="23.586281"><ele>2775.1</ele><time>2026-04-05T11:27:07.000Z</time></trkpt>
<trkpt lat="42.182655" lon="23.586292"><ele>2775.1</ele><time>2026-04-05T11:27:08.000Z</time></trkpt>
<trkpt lat="42.182658" lon="23.586303"><ele>2775.1</ele><time>2026-04-05T11:27:09.000Z</time></trkpt>
<trkpt lat="42.182662" lon="23.586314"><ele>2775.1</ele><time>2026-04-05T11:27:10.000Z</time></trkpt>
<trkpt lat="42.182665" lon="23.586325"><ele>2775.1</ele><time>2026-04-05T11:27:11.000Z</time></trkpt>
<trkpt lat="42.182668" lon="23.586334"><ele>2773.4</ele><time>2026-04-05T11:27:12.000Z</time></trkpt>
<trkpt lat="42.182672" lon="23.586341"><ele>2773.4</ele><time>2026-04-05T11:27:13.000Z</time></trkpt>
<trkpt lat="42.182676" lon="23.58635"><ele>2773.4</ele><time>2026-04-05T11:27:14.000Z</time></trkpt>
<trkpt lat="42.18268" lon="23.586361"><ele>2773.4</ele><time>2026-04-05T11:27:15.000Z</time></trkpt>
<trkpt lat="42.182684" lon="23.586372"><ele>2773.4</ele><time>2026-04-05T11:27:16.000Z</time></trkpt>
<trkpt lat="42.182689" lon="23.586387"><ele>2771.6</ele><time>2026-04-05T11:27:17.000Z</time></trkpt>
<trkpt lat="42.182694" lon="23.586403"><ele>2771.6</ele><time>2026-04-05T11:27:18.000Z</time></trkpt>
<trkpt lat="42.182698" lon="23.58642"><ele>2771.6</ele><time>2026-04-05T11:27:19.000Z</time></trkpt>
<trkpt lat="42.182702" lon="23.586436"><ele>2771.6</ele><time>2026-04-05T11:27:20.000Z</time></trkpt>
<trkpt lat="42.182706" lon="23.586452"><ele>2771.6</ele><time>2026-04-05T11:27:21.000Z</time></trkpt>
<trkpt lat="42.182709" lon="23.586465"><ele>2770.7</ele><time>2026-04-05T11:27:22.000Z</time></trkpt>
<trkpt lat="42.182712" lon="23.586475"><ele>2770.7</ele><time>2026-04-05T11:27:23.000Z</time></trkpt>
<trkpt lat="42.182715" lon="23.586485"><ele>2770.7</ele><time>2026-04-05T11:27:24.000Z</time></trkpt>
<trkpt lat="42.182719" lon="23.586495"><ele>2770.7</ele><time>2026-04-05T11:27:25.000Z</time></trkpt>
<trkpt lat="42.182722" lon="23.586506"><ele>2770.7</ele><time>2026-04-05T11:27:26.000Z</time></trkpt>
<trkpt lat="42.182723" lon="23.586517"><ele>2768.8</ele><time>2026-04-05T11:27:27.000Z</time></trkpt>
<trkpt lat="42.182724" lon="23.586527"><ele>2768.8</ele><time>2026-04-05T11:27:28.000Z</time></trkpt>
<trkpt lat="42.182724" lon="23.586535"><ele>2768.8</ele><time>2026-04-05T11:27:29.000Z</time></trkpt>
<trkpt lat="42.182723" lon="23.58654"><ele>2768.8</ele><time>2026-04-05T11:27:30.000Z</time></trkpt>
<trkpt lat="42.182721" lon="23.586542"><ele>2768.8</ele><time>2026-04-05T11:27:31.000Z</time></trkpt>
<trkpt lat="42.182721" lon="23.586542"><ele>2767.1</ele><time>2026-04-05T11:27:32.000Z</time></trkpt>
<trkpt lat="42.18272" lon="23.586542"><ele>2767.1</ele><time>2026-04-05T11:27:33.000Z</time></trkpt>
<trkpt lat="42.182719" lon="23.586541"><ele>2767.1</ele><time>2026-04-05T11:27:34.000Z</time></trkpt>
<trkpt lat="42.182718" lon="23.586542"><ele>2767.1</ele><time>2026-04-05T11:27:35.000Z</time></trkpt>
<trkpt lat="42.182718" lon="23.586543"><ele>2767.1</ele><time>2026-04-05T11:27:36.000Z</time></trkpt>
<trkpt lat="42.182717" lon="23.586544"><ele>2766.5</ele><time>2026-04-05T11:27:37.000Z</time></trkpt>
<trkpt lat="42.182717" lon="23.586545"><ele>2766.5</ele><time>2026-04-05T11:27:38.000Z</time></trkpt>
<trkpt lat="42.182717" lon="23.586546"><ele>2766.5</ele><time>2026-04-05T11:27:39.000Z</time></trkpt>
<trkpt lat="42.182717" lon="23.586546"><ele>2766.5</ele><time>2026-04-05T11:27:40.000Z</time></trkpt>
<trkpt lat="42.182717" lon="23.586546"><ele>2766.5</ele><time>2026-04-05T11:27:41.000Z</time></trkpt>
<trkpt lat="42.182717" lon="23.586546"><ele>2765.7</ele><time>2026-04-05T11:27:42.000Z</time></trkpt>
<trkpt lat="42.182717" lon="23.586546"><ele>2765.7</ele><time>2026-04-05T11:27:43.000Z</time></trkpt>
<trkpt lat="42.182717" lon="23.586546"><ele>2765.7</ele><time>2026-04-05T11:27:44.000Z</time></trkpt>
<trkpt lat="42.182717" lon="23.586546"><ele>2765.7</ele><time>2026-04-05T11:27:45.000Z</time></trkpt>
<trkpt lat="42.182717" lon="23.586548"><ele>2765.7</ele><time>2026-04-05T11:27:46.000Z</time></trkpt>
<trkpt lat="42.182718" lon="23.58655"><ele>2765.5</ele><time>2026-04-05T11:27:47.000Z</time></trkpt>
<trkpt lat="42.182719" lon="23.586554"><ele>2765.5</ele><time>2026-04-05T11:27:48.000Z</time></trkpt>
<trkpt lat="42.18272" lon="23.586558"><ele>2765.5</ele><time>2026-04-05T11:27:49.000Z</time></trkpt>
<trkpt lat="42.182721" lon="23.586565"><ele>2765.5</ele><time>2026-04-05T11:27:50.000Z</time></trkpt>
<trkpt lat="42.182722" lon="23.586571"><ele>2765.5</ele><time>2026-04-05T11:27:51.000Z</time></trkpt>
<trkpt lat="42.182723" lon="23.58658"><ele>2765.5</ele><time>2026-04-05T11:27:52.000Z</time></trkpt>
<trkpt lat="42.182725" lon="23.586589"><ele>2765.5</ele><time>2026-04-05T11:27:53.000Z</time></trkpt>
<trkpt lat="42.182728" lon="23.586599"><ele>2765.5</ele><time>2026-04-05T11:27:54.000Z</time></trkpt>
<trkpt lat="42.182731" lon="23.586607"><ele>2765.5</ele><time>2026-04-05T11:27:55.000Z</time></trkpt>
<trkpt lat="42.182735" lon="23.586612"><ele>2765.5</ele><time>2026-04-05T11:27:56.000Z</time></trkpt>
<trkpt lat="42.18274" lon="23.586616"><ele>2765.1</ele><time>2026-04-05T11:27:57.000Z</time></trkpt>
<trkpt lat="42.182743" lon="23.586617"><ele>2765.1</ele><time>2026-04-05T11:27:58.000Z</time></trkpt>
<trkpt lat="42.182749" lon="23.586617"><ele>2765.1</ele><time>2026-04-05T11:27:59.000Z</time></trkpt>
<trkpt lat="42.182754" lon="23.586616"><ele>2765.1</ele><time>2026-04-05T11:28:00.000Z</time></trkpt>
<trkpt lat="42.182759" lon="23.586616"><ele>2765.1</ele><time>2026-04-05T11:28:01.000Z</time></trkpt>
<trkpt lat="42.182767" lon="23.586618"><ele>2764.5</ele><time>2026-04-05T11:28:02.000Z</time></trkpt>
<trkpt lat="42.182774" lon="23.586622"><ele>2764.5</ele><time>2026-04-05T11:28:03.000Z</time></trkpt>
<trkpt lat="42.182781" lon="23.586627"><ele>2764.5</ele><time>2026-04-05T11:28:04.000Z</time></trkpt>
<trkpt lat="42.182788" lon="23.586636"><ele>2764.5</ele><time>2026-04-05T11:28:05.000Z</time></trkpt>
<trkpt lat="42.182792" lon="23.586646"><ele>2764.5</ele><time>2026-04-05T11:28:06.000Z</time></trkpt>
<trkpt lat="42.182793" lon="23.586656"><ele>2764.1</ele><time>2026-04-05T11:28:07.000Z</time></trkpt>
<trkpt lat="42.182793" lon="23.586664"><ele>2764.1</ele><time>2026-04-05T11:28:08.000Z</time></trkpt>
<trkpt lat="42.182793" lon="23.586671"><ele>2764.1</ele><time>2026-04-05T11:28:09.000Z</time></trkpt>
<trkpt lat="42.18279" lon="23.586676"><ele>2764.1</ele><time>2026-04-05T11:28:10.000Z</time></trkpt>
<trkpt lat="42.182789" lon="23.586679"><ele>2764.1</ele><time>2026-04-05T11:28:11.000Z</time></trkpt>
<trkpt lat="42.182789" lon="23.58668"><ele>2763.4</ele><time>2026-04-05T11:28:12.000Z</time></trkpt>
<trkpt lat="42.182789" lon="23.586681"><ele>2763.4</ele><time>2026-04-05T11:28:13.000Z</time></trkpt>
<trkpt lat="42.18279" lon="23.586681"><ele>2763.4</ele><time>2026-04-05T11:28:14.000Z</time></trkpt>
<trkpt lat="42.182791" lon="23.58668"><ele>2763.4</ele><time>2026-04-05T11:28:15.000Z</time></trkpt>
<trkpt lat="42.182791" lon="23.586678"><ele>2763.4</ele><time>2026-04-05T11:28:16.000Z</time></trkpt>
<trkpt lat="42.182791" lon="23.586677"><ele>2763</ele><time>2026-04-05T11:28:17.000Z</time></trkpt>
<trkpt lat="42.182791" lon="23.586676"><ele>2763</ele><time>2026-04-05T11:28:18.000Z</time></trkpt>
<trkpt lat="42.182791" lon="23.586675"><ele>2763</ele><time>2026-04-05T11:28:19.000Z</time></trkpt>
<trkpt lat="42.18279" lon="23.586675"><ele>2763</ele><time>2026-04-05T11:28:20.000Z</time></trkpt>
<trkpt lat="42.182789" lon="23.586674"><ele>2763</ele><time>2026-04-05T11:28:21.000Z</time></trkpt>
<trkpt lat="42.182788" lon="23.586674"><ele>2762.8</ele><time>2026-04-05T11:28:22.000Z</time></trkpt>
<trkpt lat="42.182787" lon="23.586674"><ele>2762.8</ele><time>2026-04-05T11:28:23.000Z</time></trkpt>
<trkpt lat="42.182787" lon="23.586674"><ele>2762.8</ele><time>2026-04-05T11:28:24.000Z</time></trkpt>
<trkpt lat="42.182787" lon="23.586674"><ele>2762.8</ele><time>2026-04-05T11:28:25.000Z</time></trkpt>
<trkpt lat="42.182786" lon="23.586674"><ele>2762.8</ele><time>2026-04-05T11:28:26.000Z</time></trkpt>
<trkpt lat="42.182786" lon="23.586674"><ele>2762.5</ele><time>2026-04-05T11:28:27.000Z</time></trkpt>
<trkpt lat="42.182786" lon="23.586674"><ele>2762.5</ele><time>2026-04-05T11:28:28.000Z</time></trkpt>
<trkpt lat="42.182786" lon="23.586675"><ele>2762.5</ele><time>2026-04-05T11:28:29.000Z</time></trkpt>
<trkpt lat="42.182786" lon="23.586675"><ele>2762.5</ele><time>2026-04-05T11:28:30.000Z</time></trkpt>
<trkpt lat="42.182785" lon="23.586676"><ele>2762.5</ele><time>2026-04-05T11:28:31.000Z</time></trkpt>
<trkpt lat="42.182785" lon="23.586677"><ele>2762.2</ele><time>2026-04-05T11:28:32.000Z</time></trkpt>
<trkpt lat="42.182784" lon="23.586678"><ele>2762.2</ele><time>2026-04-05T11:28:33.000Z</time></trkpt>
<trkpt lat="42.182782" lon="23.586679"><ele>2762.2</ele><time>2026-04-05T11:28:34.000Z</time></trkpt>
<trkpt lat="42.182781" lon="23.586679"><ele>2762.2</ele><time>2026-04-05T11:28:35.000Z</time></trkpt>
<trkpt lat="42.182781" lon="23.586679"><ele>2762.2</ele><time>2026-04-05T11:28:36.000Z</time></trkpt>
<trkpt lat="42.18278" lon="23.58668"><ele>2762</ele><time>2026-04-05T11:28:37.000Z</time></trkpt>
<trkpt lat="42.182781" lon="23.586681"><ele>2762</ele><time>2026-04-05T11:28:38.000Z</time></trkpt>
<trkpt lat="42.182782" lon="23.586682"><ele>2762</ele><time>2026-04-05T11:28:39.000Z</time></trkpt>
<trkpt lat="42.182785" lon="23.586684"><ele>2762</ele><time>2026-04-05T11:28:40.000Z</time></trkpt>
<trkpt lat="42.182787" lon="23.586685"><ele>2762</ele><time>2026-04-05T11:28:41.000Z</time></trkpt>
<trkpt lat="42.18279" lon="23.586686"><ele>2761.7</ele><time>2026-04-05T11:28:42.000Z</time></trkpt>
<trkpt lat="42.182792" lon="23.586687"><ele>2761.7</ele><time>2026-04-05T11:28:43.000Z</time></trkpt>
<trkpt lat="42.182794" lon="23.586686"><ele>2761.7</ele><time>2026-04-05T11:28:44.000Z</time></trkpt>
<trkpt lat="42.182795" lon="23.586686"><ele>2761.7</ele><time>2026-04-05T11:28:45.000Z</time></trkpt>
<trkpt lat="42.182796" lon="23.586686"><ele>2761.7</ele><time>2026-04-05T11:28:46.000Z</time></trkpt>
<trkpt lat="42.182796" lon="23.586686"><ele>2761.9</ele><time>2026-04-05T11:28:47.000Z</time></trkpt>
<trkpt lat="42.182797" lon="23.586687"><ele>2761.9</ele><time>2026-04-05T11:28:48.000Z</time></trkpt>
<trkpt lat="42.182797" lon="23.586687"><ele>2761.9</ele><time>2026-04-05T11:28:49.000Z</time></trkpt>
<trkpt lat="42.182797" lon="23.586687"><ele>2761.9</ele><time>2026-04-05T11:28:50.000Z</time></trkpt>
<trkpt lat="42.182798" lon="23.586688"><ele>2761.9</ele><time>2026-04-05T11:28:51.000Z</time></trkpt>
<trkpt lat="42.182798" lon="23.586687"><ele>2762</ele><time>2026-04-05T11:28:52.000Z</time></trkpt>
<trkpt lat="42.182799" lon="23.586686"><ele>2762</ele><time>2026-04-05T11:28:53.000Z</time></trkpt>
<trkpt lat="42.182799" lon="23.586685"><ele>2762</ele><time>2026-04-05T11:28:54.000Z</time></trkpt>
<trkpt lat="42.1828" lon="23.586684"><ele>2762</ele><time>2026-04-05T11:28:55.000Z</time></trkpt>
<trkpt lat="42.182802" lon="23.586684"><ele>2762</ele><time>2026-04-05T11:28:56.000Z</time></trkpt>
<trkpt lat="42.182803" lon="23.586684"><ele>2762.2</ele><time>2026-04-05T11:28:57.000Z</time></trkpt>
<trkpt lat="42.182803" lon="23.586684"><ele>2762.2</ele><time>2026-04-05T11:28:58.000Z</time></trkpt>
<trkpt lat="42.182804" lon="23.586684"><ele>2762.2</ele><time>2026-04-05T11:28:59.000Z</time></trkpt>
<trkpt lat="42.182805" lon="23.586683"><ele>2762.2</ele><time>2026-04-05T11:29:00.000Z</time></trkpt>
<trkpt lat="42.182804" lon="23.586682"><ele>2762.2</ele><time>2026-04-05T11:29:01.000Z</time></trkpt>
<trkpt lat="42.182804" lon="23.586681"><ele>2762.4</ele><time>2026-04-05T11:29:02.000Z</time></trkpt>
<trkpt lat="42.182804" lon="23.586681"><ele>2762.4</ele><time>2026-04-05T11:29:03.000Z</time></trkpt>
<trkpt lat="42.182803" lon="23.586681"><ele>2762.4</ele><time>2026-04-05T11:29:04.000Z</time></trkpt>
<trkpt lat="42.182803" lon="23.586681"><ele>2762.4</ele><time>2026-04-05T11:29:05.000Z</time></trkpt>
<trkpt lat="42.182803" lon="23.586681"><ele>2762.4</ele><time>2026-04-05T11:29:06.000Z</time></trkpt>
<trkpt lat="42.182803" lon="23.586681"><ele>2762.5</ele><time>2026-04-05T11:29:07.000Z</time></trkpt>
<trkpt lat="42.182803" lon="23.586681"><ele>2762.5</ele><time>2026-04-05T11:29:08.000Z</time></trkpt>
<trkpt lat="42.182802" lon="23.586682"><ele>2762.5</ele><time>2026-04-05T11:29:09.000Z</time></trkpt>
<trkpt lat="42.182802" lon="23.586682"><ele>2762.5</ele><time>2026-04-05T11:29:10.000Z</time></trkpt>
<trkpt lat="42.182802" lon="23.586683"><ele>2762.5</ele><time>2026-04-05T11:29:11.000Z</time></trkpt>
<trkpt lat="42.182802" lon="23.586683"><ele>2762.8</ele><time>2026-04-05T11:29:12.000Z</time></trkpt>
<trkpt lat="42.182802" lon="23.586683"><ele>2762.8</ele><time>2026-04-05T11:29:13.000Z</time></trkpt>
<trkpt lat="42.182802" lon="23.586683"><ele>2762.8</ele><time>2026-04-05T11:29:14.000Z</time></trkpt>
<trkpt lat="42.182802" lon="23.586683"><ele>2762.8</ele><time>2026-04-05T11:29:15.000Z</time></trkpt>
<trkpt lat="42.182801" lon="23.586684"><ele>2762.8</ele><time>2026-04-05T11:29:16.000Z</time></trkpt>
<trkpt lat="42.182801" lon="23.586684"><ele>2762.8</ele><time>2026-04-05T11:29:17.000Z</time></trkpt>
<trkpt lat="42.182801" lon="23.586684"><ele>2762.8</ele><time>2026-04-05T11:29:18.000Z</time></trkpt>
<trkpt lat="42.1828" lon="23.586684"><ele>2762.8</ele><time>2026-04-05T11:29:19.000Z</time></trkpt>
<trkpt lat="42.1828" lon="23.586684"><ele>2762.8</ele><time>2026-04-05T11:29:20.000Z</time></trkpt>
<trkpt lat="42.1828" lon="23.586685"><ele>2762.8</ele><time>2026-04-05T11:29:21.000Z</time></trkpt>
<trkpt lat="42.182801" lon="23.586685"><ele>2762.7</ele><time>2026-04-05T11:29:22.000Z</time></trkpt>
<trkpt lat="42.182801" lon="23.586685"><ele>2762.7</ele><time>2026-04-05T11:29:23.000Z</time></trkpt>
<trkpt lat="42.182801" lon="23.586685"><ele>2762.7</ele><time>2026-04-05T11:29:24.000Z</time></trkpt>
<trkpt lat="42.182802" lon="23.586686"><ele>2762.7</ele><time>2026-04-05T11:29:25.000Z</time></trkpt>
<trkpt lat="42.182802" lon="23.586686"><ele>2762.7</ele><time>2026-04-05T11:29:26.000Z</time></trkpt>
<trkpt lat="42.182802" lon="23.586686"><ele>2762.4</ele><time>2026-04-05T11:29:27.000Z</time></trkpt>
<trkpt lat="42.182803" lon="23.586686"><ele>2762.4</ele><time>2026-04-05T11:29:28.000Z</time></trkpt>
<trkpt lat="42.182803" lon="23.586686"><ele>2762.4</ele><time>2026-04-05T11:29:29.000Z</time></trkpt>
<trkpt lat="42.182803" lon="23.586686"><ele>2762.4</ele><time>2026-04-05T11:29:30.000Z</time></trkpt>
<trkpt lat="42.182803" lon="23.586686"><ele>2762.4</ele><time>2026-04-05T11:29:31.000Z</time></trkpt>
<trkpt lat="42.182803" lon="23.586686"><ele>2762.1</ele><time>2026-04-05T11:29:32.000Z</time></trkpt>
<trkpt lat="42.182803" lon="23.586686"><ele>2762.1</ele><time>2026-04-05T11:29:33.000Z</time></trkpt>
<trkpt lat="42.182803" lon="23.586686"><ele>2762.1</ele><time>2026-04-05T11:29:34.000Z</time></trkpt>
<trkpt lat="42.182803" lon="23.586686"><ele>2762.1</ele><time>2026-04-05T11:29:35.000Z</time></trkpt>
<trkpt lat="42.182803" lon="23.586687"><ele>2762.1</ele><time>2026-04-05T11:29:36.000Z</time></trkpt>
<trkpt lat="42.182802" lon="23.586687"><ele>2762.1</ele><time>2026-04-05T11:29:37.000Z</time></trkpt>
<trkpt lat="42.182802" lon="23.586687"><ele>2762.1</ele><time>2026-04-05T11:29:38.000Z</time></trkpt>
<trkpt lat="42.182802" lon="23.586687"><ele>2762.1</ele><time>2026-04-05T11:29:39.000Z</time></trkpt>
<trkpt lat="42.182803" lon="23.586686"><ele>2762.1</ele><time>2026-04-05T11:29:40.000Z</time></trkpt>
<trkpt lat="42.182803" lon="23.586686"><ele>2762.1</ele><time>2026-04-05T11:29:41.000Z</time></trkpt>
<trkpt lat="42.182803" lon="23.586685"><ele>2762</ele><time>2026-04-05T11:29:42.000Z</time></trkpt>
<trkpt lat="42.182803" lon="23.586685"><ele>2762</ele><time>2026-04-05T11:29:43.000Z</time></trkpt>
<trkpt lat="42.182803" lon="23.586685"><ele>2762</ele><time>2026-04-05T11:29:44.000Z</time></trkpt>
<trkpt lat="42.182803" lon="23.586685"><ele>2762</ele><time>2026-04-05T11:29:45.000Z</time></trkpt>
<trkpt lat="42.182803" lon="23.586685"><ele>2762</ele><time>2026-04-05T11:29:46.000Z</time></trkpt>
<trkpt lat="42.182803" lon="23.586685"><ele>2762</ele><time>2026-04-05T11:29:47.000Z</time></trkpt>
<trkpt lat="42.182803" lon="23.586685"><ele>2762</ele><time>2026-04-05T11:29:48.000Z</time></trkpt>
<trkpt lat="42.182803" lon="23.586685"><ele>2762</ele><time>2026-04-05T11:29:49.000Z</time></trkpt>
<trkpt lat="42.182803" lon="23.586685"><ele>2762</ele><time>2026-04-05T11:29:50.000Z</time></trkpt>
<trkpt lat="42.182803" lon="23.586685"><ele>2762</ele><time>2026-04-05T11:29:51.000Z</time></trkpt>
<trkpt lat="42.182803" lon="23.586685"><ele>2762.1</ele><time>2026-04-05T11:29:52.000Z</time></trkpt>
<trkpt lat="42.182803" lon="23.586685"><ele>2762.1</ele><time>2026-04-05T11:29:53.000Z</time></trkpt>
<trkpt lat="42.182803" lon="23.586685"><ele>2762.1</ele><time>2026-04-05T11:29:54.000Z</time></trkpt>
<trkpt lat="42.182803" lon="23.586685"><ele>2762.1</ele><time>2026-04-05T11:29:55.000Z</time></trkpt>
<trkpt lat="42.182803" lon="23.586685"><ele>2762.1</ele><time>2026-04-05T11:29:56.000Z</time></trkpt>
<trkpt lat="42.182803" lon="23.586685"><ele>2762.1</ele><time>2026-04-05T11:29:57.000Z</time></trkpt>
<trkpt lat="42.182803" lon="23.586685"><ele>2762.1</ele><time>2026-04-05T11:29:58.000Z</time></trkpt>
<trkpt lat="42.182803" lon="23.586685"><ele>2762.1</ele><time>2026-04-05T11:29:59.000Z</time></trkpt>
<trkpt lat="42.182803" lon="23.586685"><ele>2762.1</ele><time>2026-04-05T11:30:00.000Z</time></trkpt>
<trkpt lat="42.182803" lon="23.586685"><ele>2762.1</ele><time>2026-04-05T11:30:01.000Z</time></trkpt>
<trkpt lat="42.182803" lon="23.586685"><ele>2762.1</ele><time>2026-04-05T11:30:02.000Z</time></trkpt>
<trkpt lat="42.182803" lon="23.586685"><ele>2762.1</ele><time>2026-04-05T11:30:03.000Z</time></trkpt>
<trkpt lat="42.182803" lon="23.586685"><ele>2762.1</ele><time>2026-04-05T11:30:04.000Z</time></trkpt>
<trkpt lat="42.182803" lon="23.586686"><ele>2762.1</ele><time>2026-04-05T11:30:05.000Z</time></trkpt>
<trkpt lat="42.182802" lon="23.586686"><ele>2762.1</ele><time>2026-04-05T11:30:06.000Z</time></trkpt>
<trkpt lat="42.182802" lon="23.586687"><ele>2762.1</ele><time>2026-04-05T11:30:07.000Z</time></trkpt>
<trkpt lat="42.182801" lon="23.586688"><ele>2762.1</ele><time>2026-04-05T11:30:08.000Z</time></trkpt>
<trkpt lat="42.1828" lon="23.58669"><ele>2762.1</ele><time>2026-04-05T11:30:09.000Z</time></trkpt>
<trkpt lat="42.1828" lon="23.586691"><ele>2762.1</ele><time>2026-04-05T11:30:10.000Z</time></trkpt>
<trkpt lat="42.182799" lon="23.586692"><ele>2762.1</ele><time>2026-04-05T11:30:11.000Z</time></trkpt>
<trkpt lat="42.182799" lon="23.586693"><ele>2762.1</ele><time>2026-04-05T11:30:12.000Z</time></trkpt>
<trkpt lat="42.182799" lon="23.586694"><ele>2762.1</ele><time>2026-04-05T11:30:13.000Z</time></trkpt>
<trkpt lat="42.182798" lon="23.586694"><ele>2762.1</ele><time>2026-04-05T11:30:14.000Z</time></trkpt>
<trkpt lat="42.182798" lon="23.586694"><ele>2762.1</ele><time>2026-04-05T11:30:15.000Z</time></trkpt>
<trkpt lat="42.182797" lon="23.586695"><ele>2762.1</ele><time>2026-04-05T11:30:16.000Z</time></trkpt>
<trkpt lat="42.182797" lon="23.586695"><ele>2762.3</ele><time>2026-04-05T11:30:17.000Z</time></trkpt>
<trkpt lat="42.182797" lon="23.586695"><ele>2762.3</ele><time>2026-04-05T11:30:18.000Z</time></trkpt>
<trkpt lat="42.182797" lon="23.586695"><ele>2762.3</ele><time>2026-04-05T11:30:19.000Z</time></trkpt>
<trkpt lat="42.182797" lon="23.586695"><ele>2762.3</ele><time>2026-04-05T11:30:20.000Z</time></trkpt>
<trkpt lat="42.182798" lon="23.586695"><ele>2762.3</ele><time>2026-04-05T11:30:21.000Z</time></trkpt>
<trkpt lat="42.182798" lon="23.586695"><ele>2762.3</ele><time>2026-04-05T11:30:22.000Z</time></trkpt>
<trkpt lat="42.182798" lon="23.586695"><ele>2762.3</ele><time>2026-04-05T11:30:23.000Z</time></trkpt>
<trkpt lat="42.182798" lon="23.586695"><ele>2762.3</ele><time>2026-04-05T11:30:24.000Z</time></trkpt>
<trkpt lat="42.182798" lon="23.586695"><ele>2762.3</ele><time>2026-04-05T11:30:25.000Z</time></trkpt>
<trkpt lat="42.182798" lon="23.586695"><ele>2762.3</ele><time>2026-04-05T11:30:26.000Z</time></trkpt>
<trkpt lat="42.182798" lon="23.586695"><ele>2762.4</ele><time>2026-04-05T11:30:27.000Z</time></trkpt>
<trkpt lat="42.182798" lon="23.586695"><ele>2762.4</ele><time>2026-04-05T11:30:28.000Z</time></trkpt>
<trkpt lat="42.182797" lon="23.586696"><ele>2762.4</ele><time>2026-04-05T11:30:29.000Z</time></trkpt>
<trkpt lat="42.182797" lon="23.586697"><ele>2762.4</ele><time>2026-04-05T11:30:30.000Z</time></trkpt>
<trkpt lat="42.182796" lon="23.586697"><ele>2762.4</ele><time>2026-04-05T11:30:31.000Z</time></trkpt>
<trkpt lat="42.182795" lon="23.586697"><ele>2762.4</ele><time>2026-04-05T11:30:32.000Z</time></trkpt>
<trkpt lat="42.182795" lon="23.586697"><ele>2762.4</ele><time>2026-04-05T11:30:33.000Z</time></trkpt>
<trkpt lat="42.182795" lon="23.586697"><ele>2762.4</ele><time>2026-04-05T11:30:34.000Z</time></trkpt>
<trkpt lat="42.182795" lon="23.586697"><ele>2762.4</ele><time>2026-04-05T11:30:35.000Z</time></trkpt>
<trkpt lat="42.182796" lon="23.586698"><ele>2762.4</ele><time>2026-04-05T11:30:36.000Z</time></trkpt>
<trkpt lat="42.182796" lon="23.586699"><ele>2762.3</ele><time>2026-04-05T11:30:37.000Z</time></trkpt>
<trkpt lat="42.182797" lon="23.586699"><ele>2762.3</ele><time>2026-04-05T11:30:38.000Z</time></trkpt>
<trkpt lat="42.182797" lon="23.5867"><ele>2762.3</ele><time>2026-04-05T11:30:39.000Z</time></trkpt>
<trkpt lat="42.182797" lon="23.5867"><ele>2762.3</ele><time>2026-04-05T11:30:40.000Z</time></trkpt>
<trkpt lat="42.182797" lon="23.586701"><ele>2762.3</ele><time>2026-04-05T11:30:41.000Z</time></trkpt>
<trkpt lat="42.182798" lon="23.586701"><ele>2762.2</ele><time>2026-04-05T11:30:42.000Z</time></trkpt>
<trkpt lat="42.182798" lon="23.586701"><ele>2762.2</ele><time>2026-04-05T11:30:43.000Z</time></trkpt>
<trkpt lat="42.182799" lon="23.586701"><ele>2762.2</ele><time>2026-04-05T11:30:44.000Z</time></trkpt>
<trkpt lat="42.182799" lon="23.586701"><ele>2762.2</ele><time>2026-04-05T11:30:45.000Z</time></trkpt>
<trkpt lat="42.182799" lon="23.5867"><ele>2762.2</ele><time>2026-04-05T11:30:46.000Z</time></trkpt>
<trkpt lat="42.182799" lon="23.5867"><ele>2762</ele><time>2026-04-05T11:30:47.000Z</time></trkpt>
<trkpt lat="42.182799" lon="23.5867"><ele>2762</ele><time>2026-04-05T11:30:48.000Z</time></trkpt>
<trkpt lat="42.182799" lon="23.586699"><ele>2762</ele><time>2026-04-05T11:30:49.000Z</time></trkpt>
<trkpt lat="42.182799" lon="23.586699"><ele>2762</ele><time>2026-04-05T11:30:50.000Z</time></trkpt>
<trkpt lat="42.182799" lon="23.586699"><ele>2762</ele><time>2026-04-05T11:30:51.000Z</time></trkpt>
<trkpt lat="42.182799" lon="23.5867"><ele>2761.9</ele><time>2026-04-05T11:30:52.000Z</time></trkpt>
<trkpt lat="42.182799" lon="23.586701"><ele>2761.9</ele><time>2026-04-05T11:30:53.000Z</time></trkpt>
<trkpt lat="42.1828" lon="23.586702"><ele>2761.9</ele><time>2026-04-05T11:30:54.000Z</time></trkpt>
<trkpt lat="42.182801" lon="23.586703"><ele>2761.9</ele><time>2026-04-05T11:30:55.000Z</time></trkpt>
<trkpt lat="42.182801" lon="23.586704"><ele>2761.9</ele><time>2026-04-05T11:30:56.000Z</time></trkpt>
<trkpt lat="42.182802" lon="23.586705"><ele>2761.8</ele><time>2026-04-05T11:30:57.000Z</time></trkpt>
<trkpt lat="42.182802" lon="23.586705"><ele>2761.8</ele><time>2026-04-05T11:30:58.000Z</time></trkpt>
<trkpt lat="42.182802" lon="23.586705"><ele>2761.8</ele><time>2026-04-05T11:30:59.000Z</time></trkpt>
<trkpt lat="42.182802" lon="23.586705"><ele>2761.8</ele><time>2026-04-05T11:31:00.000Z</time></trkpt>
<trkpt lat="42.182801" lon="23.586705"><ele>2761.8</ele><time>2026-04-05T11:31:01.000Z</time></trkpt>
<trkpt lat="42.182801" lon="23.586705"><ele>2761.7</ele><time>2026-04-05T11:31:02.000Z</time></trkpt>
<trkpt lat="42.182801" lon="23.586706"><ele>2761.7</ele><time>2026-04-05T11:31:03.000Z</time></trkpt>
<trkpt lat="42.1828" lon="23.586706"><ele>2761.7</ele><time>2026-04-05T11:31:04.000Z</time></trkpt>
<trkpt lat="42.1828" lon="23.586707"><ele>2761.7</ele><time>2026-04-05T11:31:05.000Z</time></trkpt>
<trkpt lat="42.1828" lon="23.586707"><ele>2761.7</ele><time>2026-04-05T11:31:06.000Z</time></trkpt>
<trkpt lat="42.1828" lon="23.586707"><ele>2761.8</ele><time>2026-04-05T11:31:07.000Z</time></trkpt>
<trkpt lat="42.1828" lon="23.586707"><ele>2761.8</ele><time>2026-04-05T11:31:08.000Z</time></trkpt>
<trkpt lat="42.1828" lon="23.586707"><ele>2761.8</ele><time>2026-04-05T11:31:09.000Z</time></trkpt>
<trkpt lat="42.1828" lon="23.586707"><ele>2761.8</ele><time>2026-04-05T11:31:10.000Z</time></trkpt>
<trkpt lat="42.1828" lon="23.586707"><ele>2761.8</ele><time>2026-04-05T11:31:11.000Z</time></trkpt>
<trkpt lat="42.182801" lon="23.586708"><ele>2762</ele><time>2026-04-05T11:31:12.000Z</time></trkpt>
<trkpt lat="42.182803" lon="23.586709"><ele>2762</ele><time>2026-04-05T11:31:13.000Z</time></trkpt>
<trkpt lat="42.182806" lon="23.586713"><ele>2762</ele><time>2026-04-05T11:31:14.000Z</time></trkpt>
<trkpt lat="42.182809" lon="23.586718"><ele>2762</ele><time>2026-04-05T11:31:15.000Z</time></trkpt>
<trkpt lat="42.182814" lon="23.586726"><ele>2762</ele><time>2026-04-05T11:31:16.000Z</time></trkpt>
<trkpt lat="42.182818" lon="23.586735"><ele>2762.1</ele><time>2026-04-05T11:31:17.000Z</time></trkpt>
<trkpt lat="42.182823" lon="23.586744"><ele>2762.1</ele><time>2026-04-05T11:31:18.000Z</time></trkpt>
<trkpt lat="42.182827" lon="23.586753"><ele>2762.1</ele><time>2026-04-05T11:31:19.000Z</time></trkpt>
<trkpt lat="42.182831" lon="23.586762"><ele>2762.1</ele><time>2026-04-05T11:31:20.000Z</time></trkpt>
<trkpt lat="42.182835" lon="23.586772"><ele>2762.1</ele><time>2026-04-05T11:31:21.000Z</time></trkpt>
<trkpt lat="42.182839" lon="23.586784"><ele>2761.9</ele><time>2026-04-05T11:31:22.000Z</time></trkpt>
<trkpt lat="42.182843" lon="23.586798"><ele>2761.9</ele><time>2026-04-05T11:31:23.000Z</time></trkpt>
<trkpt lat="42.182847" lon="23.586811"><ele>2761.9</ele><time>2026-04-05T11:31:24.000Z</time></trkpt>
<trkpt lat="42.182852" lon="23.586822"><ele>2761.9</ele><time>2026-04-05T11:31:25.000Z</time></trkpt>
<trkpt lat="42.182856" lon="23.586832"><ele>2761.9</ele><time>2026-04-05T11:31:26.000Z</time></trkpt>
<trkpt lat="42.18286" lon="23.586841"><ele>2761.2</ele><time>2026-04-05T11:31:27.000Z</time></trkpt>
<trkpt lat="42.182863" lon="23.586848"><ele>2761.2</ele><time>2026-04-05T11:31:28.000Z</time></trkpt>
<trkpt lat="42.182865" lon="23.586856"><ele>2761.2</ele><time>2026-04-05T11:31:29.000Z</time></trkpt>
<trkpt lat="42.182866" lon="23.586863"><ele>2761.2</ele><time>2026-04-05T11:31:30.000Z</time></trkpt>
<trkpt lat="42.182868" lon="23.586871"><ele>2761.2</ele><time>2026-04-05T11:31:31.000Z</time></trkpt>
<trkpt lat="42.18287" lon="23.586878"><ele>2760.4</ele><time>2026-04-05T11:31:32.000Z</time></trkpt>
<trkpt lat="42.182873" lon="23.586885"><ele>2760.4</ele><time>2026-04-05T11:31:33.000Z</time></trkpt>
<trkpt lat="42.182875" lon="23.586893"><ele>2760.4</ele><time>2026-04-05T11:31:34.000Z</time></trkpt>
<trkpt lat="42.182877" lon="23.586902"><ele>2760.4</ele><time>2026-04-05T11:31:35.000Z</time></trkpt>
<trkpt lat="42.18288" lon="23.586912"><ele>2760.4</ele><time>2026-04-05T11:31:36.000Z</time></trkpt>
<trkpt lat="42.182882" lon="23.586921"><ele>2759.9</ele><time>2026-04-05T11:31:37.000Z</time></trkpt>
<trkpt lat="42.182884" lon="23.58693"><ele>2759.9</ele><time>2026-04-05T11:31:38.000Z</time></trkpt>
<trkpt lat="42.182887" lon="23.586939"><ele>2759.9</ele><time>2026-04-05T11:31:39.000Z</time></trkpt>
<trkpt lat="42.18289" lon="23.58695"><ele>2759.9</ele><time>2026-04-05T11:31:40.000Z</time></trkpt>
<trkpt lat="42.182892" lon="23.58696"><ele>2759.9</ele><time>2026-04-05T11:31:41.000Z</time></trkpt>
<trkpt lat="42.182894" lon="23.586968"><ele>2758.9</ele><time>2026-04-05T11:31:42.000Z</time></trkpt>
<trkpt lat="42.182895" lon="23.586974"><ele>2758.9</ele><time>2026-04-05T11:31:43.000Z</time></trkpt>
<trkpt lat="42.182895" lon="23.586979"><ele>2758.9</ele><time>2026-04-05T11:31:44.000Z</time></trkpt>
<trkpt lat="42.182894" lon="23.586982"><ele>2758.9</ele><time>2026-04-05T11:31:45.000Z</time></trkpt>
<trkpt lat="42.182893" lon="23.586982"><ele>2758.9</ele><time>2026-04-05T11:31:46.000Z</time></trkpt>
<trkpt lat="42.182893" lon="23.586983"><ele>2758</ele><time>2026-04-05T11:31:47.000Z</time></trkpt>
<trkpt lat="42.182893" lon="23.586985"><ele>2758</ele><time>2026-04-05T11:31:48.000Z</time></trkpt>
<trkpt lat="42.182895" lon="23.586989"><ele>2758</ele><time>2026-04-05T11:31:49.000Z</time></trkpt>
<trkpt lat="42.182898" lon="23.586995"><ele>2758</ele><time>2026-04-05T11:31:50.000Z</time></trkpt>
<trkpt lat="42.182901" lon="23.587001"><ele>2758</ele><time>2026-04-05T11:31:51.000Z</time></trkpt>
<trkpt lat="42.182904" lon="23.587008"><ele>2757.6</ele><time>2026-04-05T11:31:52.000Z</time></trkpt>
<trkpt lat="42.182909" lon="23.587017"><ele>2757.6</ele><time>2026-04-05T11:31:53.000Z</time></trkpt>
<trkpt lat="42.182913" lon="23.587025"><ele>2757.6</ele><time>2026-04-05T11:31:54.000Z</time></trkpt>
<trkpt lat="42.182916" lon="23.587034"><ele>2757.6</ele><time>2026-04-05T11:31:55.000Z</time></trkpt>
<trkpt lat="42.182921" lon="23.587044"><ele>2757.6</ele><time>2026-04-05T11:31:56.000Z</time></trkpt>
<trkpt lat="42.182925" lon="23.587054"><ele>2756.9</ele><time>2026-04-05T11:31:57.000Z</time></trkpt>
<trkpt lat="42.182929" lon="23.587065"><ele>2756.9</ele><time>2026-04-05T11:31:58.000Z</time></trkpt>
<trkpt lat="42.182933" lon="23.587077"><ele>2756.9</ele><time>2026-04-05T11:31:59.000Z</time></trkpt>
<trkpt lat="42.182937" lon="23.587089"><ele>2756.9</ele><time>2026-04-05T11:32:00.000Z</time></trkpt>
<trkpt lat="42.18294" lon="23.587101"><ele>2756.9</ele><time>2026-04-05T11:32:01.000Z</time></trkpt>
<trkpt lat="42.182944" lon="23.587113"><ele>2756.1</ele><time>2026-04-05T11:32:02.000Z</time></trkpt>
<trkpt lat="42.182947" lon="23.587123"><ele>2756.1</ele><time>2026-04-05T11:32:03.000Z</time></trkpt>
<trkpt lat="42.18295" lon="23.587134"><ele>2756.1</ele><time>2026-04-05T11:32:04.000Z</time></trkpt>
<trkpt lat="42.182953" lon="23.587144"><ele>2756.1</ele><time>2026-04-05T11:32:05.000Z</time></trkpt>
<trkpt lat="42.182957" lon="23.587153"><ele>2756.1</ele><time>2026-04-05T11:32:06.000Z</time></trkpt>
<trkpt lat="42.182962" lon="23.587162"><ele>2755.6</ele><time>2026-04-05T11:32:07.000Z</time></trkpt>
<trkpt lat="42.182967" lon="23.587171"><ele>2755.6</ele><time>2026-04-05T11:32:08.000Z</time></trkpt>
<trkpt lat="42.182971" lon="23.58718"><ele>2755.6</ele><time>2026-04-05T11:32:09.000Z</time></trkpt>
<trkpt lat="42.182975" lon="23.58719"><ele>2755.6</ele><time>2026-04-05T11:32:10.000Z</time></trkpt>
<trkpt lat="42.18298" lon="23.587201"><ele>2755.6</ele><time>2026-04-05T11:32:11.000Z</time></trkpt>
<trkpt lat="42.182984" lon="23.587212"><ele>2754.3</ele><time>2026-04-05T11:32:12.000Z</time></trkpt>
<trkpt lat="42.182988" lon="23.587224"><ele>2754.3</ele><time>2026-04-05T11:32:13.000Z</time></trkpt>
<trkpt lat="42.182993" lon="23.587234"><ele>2754.3</ele><time>2026-04-05T11:32:14.000Z</time></trkpt>
<trkpt lat="42.182997" lon="23.587243"><ele>2754.3</ele><time>2026-04-05T11:32:15.000Z</time></trkpt>
<trkpt lat="42.183002" lon="23.587253"><ele>2754.3</ele><time>2026-04-05T11:32:16.000Z</time></trkpt>
<trkpt lat="42.183007" lon="23.587263"><ele>2753</ele><time>2026-04-05T11:32:17.000Z</time></trkpt>
<trkpt lat="42.183012" lon="23.587274"><ele>2753</ele><time>2026-04-05T11:32:18.000Z</time></trkpt>
<trkpt lat="42.183018" lon="23.587284"><ele>2753</ele><time>2026-04-05T11:32:19.000Z</time></trkpt>
<trkpt lat="42.183022" lon="23.587296"><ele>2753</ele><time>2026-04-05T11:32:20.000Z</time></trkpt>
<trkpt lat="42.183026" lon="23.587307"><ele>2753</ele><time>2026-04-05T11:32:21.000Z</time></trkpt>
<trkpt lat="42.18303" lon="23.587319"><ele>2752.2</ele><time>2026-04-05T11:32:22.000Z</time></trkpt>
<trkpt lat="42.183035" lon="23.587333"><ele>2752.2</ele><time>2026-04-05T11:32:23.000Z</time></trkpt>
<trkpt lat="42.18304" lon="23.587347"><ele>2752.2</ele><time>2026-04-05T11:32:24.000Z</time></trkpt>
<trkpt lat="42.183045" lon="23.587362"><ele>2752.2</ele><time>2026-04-05T11:32:25.000Z</time></trkpt>
<trkpt lat="42.183051" lon="23.587376"><ele>2752.2</ele><time>2026-04-05T11:32:26.000Z</time></trkpt>
<trkpt lat="42.183057" lon="23.587391"><ele>2750.7</ele><time>2026-04-05T11:32:27.000Z</time></trkpt>
<trkpt lat="42.183064" lon="23.587405"><ele>2750.7</ele><time>2026-04-05T11:32:28.000Z</time></trkpt>
<trkpt lat="42.183071" lon="23.58742"><ele>2750.7</ele><time>2026-04-05T11:32:29.000Z</time></trkpt>
<trkpt lat="42.183077" lon="23.587435"><ele>2750.7</ele><time>2026-04-05T11:32:30.000Z</time></trkpt>
<trkpt lat="42.183082" lon="23.587451"><ele>2750.7</ele><time>2026-04-05T11:32:31.000Z</time></trkpt>
<trkpt lat="42.183087" lon="23.587467"><ele>2749</ele><time>2026-04-05T11:32:32.000Z</time></trkpt>
<trkpt lat="42.183091" lon="23.587483"><ele>2749</ele><time>2026-04-05T11:32:33.000Z</time></trkpt>
<trkpt lat="42.183094" lon="23.587498"><ele>2749</ele><time>2026-04-05T11:32:34.000Z</time></trkpt>
<trkpt lat="42.183098" lon="23.587514"><ele>2749</ele><time>2026-04-05T11:32:35.000Z</time></trkpt>
<trkpt lat="42.183104" lon="23.587529"><ele>2749</ele><time>2026-04-05T11:32:36.000Z</time></trkpt>
<trkpt lat="42.18311" lon="23.587543"><ele>2748.1</ele><time>2026-04-05T11:32:37.000Z</time></trkpt>
<trkpt lat="42.183116" lon="23.587558"><ele>2748.1</ele><time>2026-04-05T11:32:38.000Z</time></trkpt>
<trkpt lat="42.183121" lon="23.587573"><ele>2748.1</ele><time>2026-04-05T11:32:39.000Z</time></trkpt>
<trkpt lat="42.183126" lon="23.587589"><ele>2748.1</ele><time>2026-04-05T11:32:40.000Z</time></trkpt>
<trkpt lat="42.18313" lon="23.587605"><ele>2748.1</ele><time>2026-04-05T11:32:41.000Z</time></trkpt>
<trkpt lat="42.183135" lon="23.587622"><ele>2746.5</ele><time>2026-04-05T11:32:42.000Z</time></trkpt>
<trkpt lat="42.183139" lon="23.587639"><ele>2746.5</ele><time>2026-04-05T11:32:43.000Z</time></trkpt>
<trkpt lat="42.183145" lon="23.587656"><ele>2746.5</ele><time>2026-04-05T11:32:44.000Z</time></trkpt>
<trkpt lat="42.183151" lon="23.587669"><ele>2746.5</ele><time>2026-04-05T11:32:45.000Z</time></trkpt>
<trkpt lat="42.183156" lon="23.587681"><ele>2746.5</ele><time>2026-04-05T11:32:46.000Z</time></trkpt>
<trkpt lat="42.183161" lon="23.587693"><ele>2744.9</ele><time>2026-04-05T11:32:47.000Z</time></trkpt>
<trkpt lat="42.183166" lon="23.587705"><ele>2744.9</ele><time>2026-04-05T11:32:48.000Z</time></trkpt>
<trkpt lat="42.18317" lon="23.587716"><ele>2744.9</ele><time>2026-04-05T11:32:49.000Z</time></trkpt>
<trkpt lat="42.183174" lon="23.587728"><ele>2744.9</ele><time>2026-04-05T11:32:50.000Z</time></trkpt>
<trkpt lat="42.183177" lon="23.587737"><ele>2744.9</ele><time>2026-04-05T11:32:51.000Z</time></trkpt>
<trkpt lat="42.183182" lon="23.587746"><ele>2744</ele><time>2026-04-05T11:32:52.000Z</time></trkpt>
<trkpt lat="42.183187" lon="23.587755"><ele>2744</ele><time>2026-04-05T11:32:53.000Z</time></trkpt>
<trkpt lat="42.183193" lon="23.587764"><ele>2744</ele><time>2026-04-05T11:32:54.000Z</time></trkpt>
<trkpt lat="42.1832" lon="23.587774"><ele>2744</ele><time>2026-04-05T11:32:55.000Z</time></trkpt>
<trkpt lat="42.183207" lon="23.587786"><ele>2744</ele><time>2026-04-05T11:32:56.000Z</time></trkpt>
<trkpt lat="42.183214" lon="23.587797"><ele>2742.1</ele><time>2026-04-05T11:32:57.000Z</time></trkpt>
<trkpt lat="42.18322" lon="23.587807"><ele>2742.1</ele><time>2026-04-05T11:32:58.000Z</time></trkpt>
<trkpt lat="42.183226" lon="23.587816"><ele>2742.1</ele><time>2026-04-05T11:32:59.000Z</time></trkpt>
<trkpt lat="42.183232" lon="23.587826"><ele>2742.1</ele><time>2026-04-05T11:33:00.000Z</time></trkpt>
<trkpt lat="42.183239" lon="23.587835"><ele>2742.1</ele><time>2026-04-05T11:33:01.000Z</time></trkpt>
<trkpt lat="42.183244" lon="23.587843"><ele>2740.5</ele><time>2026-04-05T11:33:02.000Z</time></trkpt>
<trkpt lat="42.183249" lon="23.587851"><ele>2740.5</ele><time>2026-04-05T11:33:03.000Z</time></trkpt>
<trkpt lat="42.183254" lon="23.587859"><ele>2740.5</ele><time>2026-04-05T11:33:04.000Z</time></trkpt>
<trkpt lat="42.183256" lon="23.587863"><ele>2740.5</ele><time>2026-04-05T11:33:05.000Z</time></trkpt>
<trkpt lat="42.183258" lon="23.587867"><ele>2740.5</ele><time>2026-04-05T11:33:06.000Z</time></trkpt>
<trkpt lat="42.183258" lon="23.58787"><ele>2739.9</ele><time>2026-04-05T11:33:07.000Z</time></trkpt>
<trkpt lat="42.183259" lon="23.587872"><ele>2739.9</ele><time>2026-04-05T11:33:08.000Z</time></trkpt>
<trkpt lat="42.183258" lon="23.587873"><ele>2739.9</ele><time>2026-04-05T11:33:09.000Z</time></trkpt>
<trkpt lat="42.183257" lon="23.587874"><ele>2739.9</ele><time>2026-04-05T11:33:10.000Z</time></trkpt>
<trkpt lat="42.183256" lon="23.587874"><ele>2739.9</ele><time>2026-04-05T11:33:11.000Z</time></trkpt>
<trkpt lat="42.183256" lon="23.587874"><ele>2739.1</ele><time>2026-04-05T11:33:12.000Z</time></trkpt>
<trkpt lat="42.183255" lon="23.587875"><ele>2739.1</ele><time>2026-04-05T11:33:13.000Z</time></trkpt>
<trkpt lat="42.183255" lon="23.587876"><ele>2739.1</ele><time>2026-04-05T11:33:14.000Z</time></trkpt>
<trkpt lat="42.183256" lon="23.587877"><ele>2739.1</ele><time>2026-04-05T11:33:15.000Z</time></trkpt>
<trkpt lat="42.183256" lon="23.587879"><ele>2739.1</ele><time>2026-04-05T11:33:16.000Z</time></trkpt>
<trkpt lat="42.183257" lon="23.587882"><ele>2738.7</ele><time>2026-04-05T11:33:17.000Z</time></trkpt>
<trkpt lat="42.183259" lon="23.587887"><ele>2738.7</ele><time>2026-04-05T11:33:18.000Z</time></trkpt>
<trkpt lat="42.183263" lon="23.587892"><ele>2738.7</ele><time>2026-04-05T11:33:19.000Z</time></trkpt>
<trkpt lat="42.183268" lon="23.5879"><ele>2738.7</ele><time>2026-04-05T11:33:20.000Z</time></trkpt>
<trkpt lat="42.183274" lon="23.58791"><ele>2738.7</ele><time>2026-04-05T11:33:21.000Z</time></trkpt>
<trkpt lat="42.183281" lon="23.58792"><ele>2738.7</ele><time>2026-04-05T11:33:22.000Z</time></trkpt>
<trkpt lat="42.183288" lon="23.587932"><ele>2738.7</ele><time>2026-04-05T11:33:23.000Z</time></trkpt>
<trkpt lat="42.183296" lon="23.587945"><ele>2738.7</ele><time>2026-04-05T11:33:24.000Z</time></trkpt>
<trkpt lat="42.183304" lon="23.587959"><ele>2738.7</ele><time>2026-04-05T11:33:25.000Z</time></trkpt>
<trkpt lat="42.183312" lon="23.587972"><ele>2738.7</ele><time>2026-04-05T11:33:26.000Z</time></trkpt>
<trkpt lat="42.183318" lon="23.587985"><ele>2738.5</ele><time>2026-04-05T11:33:27.000Z</time></trkpt>
<trkpt lat="42.183325" lon="23.587996"><ele>2738.5</ele><time>2026-04-05T11:33:28.000Z</time></trkpt>
<trkpt lat="42.183332" lon="23.588005"><ele>2738.5</ele><time>2026-04-05T11:33:29.000Z</time></trkpt>
<trkpt lat="42.183339" lon="23.588014"><ele>2738.5</ele><time>2026-04-05T11:33:30.000Z</time></trkpt>
<trkpt lat="42.183347" lon="23.588023"><ele>2738.5</ele><time>2026-04-05T11:33:31.000Z</time></trkpt>
<trkpt lat="42.183356" lon="23.588033"><ele>2738.1</ele><time>2026-04-05T11:33:32.000Z</time></trkpt>
<trkpt lat="42.183365" lon="23.588042"><ele>2738.1</ele><time>2026-04-05T11:33:33.000Z</time></trkpt>
<trkpt lat="42.183373" lon="23.588052"><ele>2738.1</ele><time>2026-04-05T11:33:34.000Z</time></trkpt>
<trkpt lat="42.183382" lon="23.588061"><ele>2738.1</ele><time>2026-04-05T11:33:35.000Z</time></trkpt>
<trkpt lat="42.183391" lon="23.588071"><ele>2738.1</ele><time>2026-04-05T11:33:36.000Z</time></trkpt>
<trkpt lat="42.1834" lon="23.588082"><ele>2737.7</ele><time>2026-04-05T11:33:37.000Z</time></trkpt>
<trkpt lat="42.183409" lon="23.588094"><ele>2737.7</ele><time>2026-04-05T11:33:38.000Z</time></trkpt>
<trkpt lat="42.183417" lon="23.588108"><ele>2737.7</ele><time>2026-04-05T11:33:39.000Z</time></trkpt>
<trkpt lat="42.183425" lon="23.58812"><ele>2737.7</ele><time>2026-04-05T11:33:40.000Z</time></trkpt>
<trkpt lat="42.183432" lon="23.588132"><ele>2737.7</ele><time>2026-04-05T11:33:41.000Z</time></trkpt>
<trkpt lat="42.18344" lon="23.588144"><ele>2736.9</ele><time>2026-04-05T11:33:42.000Z</time></trkpt>
<trkpt lat="42.183447" lon="23.588155"><ele>2736.9</ele><time>2026-04-05T11:33:43.000Z</time></trkpt>
<trkpt lat="42.183455" lon="23.588165"><ele>2736.9</ele><time>2026-04-05T11:33:44.000Z</time></trkpt>
<trkpt lat="42.183464" lon="23.588177"><ele>2736.9</ele><time>2026-04-05T11:33:45.000Z</time></trkpt>
<trkpt lat="42.183472" lon="23.588189"><ele>2736.9</ele><time>2026-04-05T11:33:46.000Z</time></trkpt>
<trkpt lat="42.18348" lon="23.5882"><ele>2735.9</ele><time>2026-04-05T11:33:47.000Z</time></trkpt>
<trkpt lat="42.183487" lon="23.588212"><ele>2735.9</ele><time>2026-04-05T11:33:48.000Z</time></trkpt>
<trkpt lat="42.183493" lon="23.588225"><ele>2735.9</ele><time>2026-04-05T11:33:49.000Z</time></trkpt>
<trkpt lat="42.183499" lon="23.588237"><ele>2735.9</ele><time>2026-04-05T11:33:50.000Z</time></trkpt>
<trkpt lat="42.183502" lon="23.588249"><ele>2735.9</ele><time>2026-04-05T11:33:51.000Z</time></trkpt>
<trkpt lat="42.183506" lon="23.588259"><ele>2735.4</ele><time>2026-04-05T11:33:52.000Z</time></trkpt>
<trkpt lat="42.183508" lon="23.588267"><ele>2735.4</ele><time>2026-04-05T11:33:53.000Z</time></trkpt>
<trkpt lat="42.183509" lon="23.588276"><ele>2735.4</ele><time>2026-04-05T11:33:54.000Z</time></trkpt>
<trkpt lat="42.18351" lon="23.588284"><ele>2735.4</ele><time>2026-04-05T11:33:55.000Z</time></trkpt>
<trkpt lat="42.183511" lon="23.588291"><ele>2735.4</ele><time>2026-04-05T11:33:56.000Z</time></trkpt>
<trkpt lat="42.183512" lon="23.5883"><ele>2734.4</ele><time>2026-04-05T11:33:57.000Z</time></trkpt>
<trkpt lat="42.183513" lon="23.588309"><ele>2734.4</ele><time>2026-04-05T11:33:58.000Z</time></trkpt>
<trkpt lat="42.183514" lon="23.588316"><ele>2734.4</ele><time>2026-04-05T11:33:59.000Z</time></trkpt>
<trkpt lat="42.183515" lon="23.588322"><ele>2734.4</ele><time>2026-04-05T11:34:00.000Z</time></trkpt>
<trkpt lat="42.183516" lon="23.588327"><ele>2734.4</ele><time>2026-04-05T11:34:01.000Z</time></trkpt>
<trkpt lat="42.183517" lon="23.588329"><ele>2733.4</ele><time>2026-04-05T11:34:02.000Z</time></trkpt>
<trkpt lat="42.183517" lon="23.58833"><ele>2733.4</ele><time>2026-04-05T11:34:03.000Z</time></trkpt>
<trkpt lat="42.183518" lon="23.588329"><ele>2733.4</ele><time>2026-04-05T11:34:04.000Z</time></trkpt>
<trkpt lat="42.183519" lon="23.58833"><ele>2733.4</ele><time>2026-04-05T11:34:05.000Z</time></trkpt>
<trkpt lat="42.18352" lon="23.588334"><ele>2733.4</ele><time>2026-04-05T11:34:06.000Z</time></trkpt>
<trkpt lat="42.183522" lon="23.58834"><ele>2733</ele><time>2026-04-05T11:34:07.000Z</time></trkpt>
<trkpt lat="42.183524" lon="23.588349"><ele>2733</ele><time>2026-04-05T11:34:08.000Z</time></trkpt>
<trkpt lat="42.183527" lon="23.588361"><ele>2733</ele><time>2026-04-05T11:34:09.000Z</time></trkpt>
<trkpt lat="42.183529" lon="23.588372"><ele>2733</ele><time>2026-04-05T11:34:10.000Z</time></trkpt>
<trkpt lat="42.183531" lon="23.588383"><ele>2733</ele><time>2026-04-05T11:34:11.000Z</time></trkpt>
<trkpt lat="42.183532" lon="23.588396"><ele>2732.1</ele><time>2026-04-05T11:34:12.000Z</time></trkpt>
<trkpt lat="42.183533" lon="23.588409"><ele>2732.1</ele><time>2026-04-05T11:34:13.000Z</time></trkpt>
<trkpt lat="42.183533" lon="23.588421"><ele>2732.1</ele><time>2026-04-05T11:34:14.000Z</time></trkpt>
<trkpt lat="42.183532" lon="23.588434"><ele>2732.1</ele><time>2026-04-05T11:34:15.000Z</time></trkpt>
<trkpt lat="42.183531" lon="23.588447"><ele>2732.1</ele><time>2026-04-05T11:34:16.000Z</time></trkpt>
<trkpt lat="42.183529" lon="23.588457"><ele>2731.3</ele><time>2026-04-05T11:34:17.000Z</time></trkpt>
<trkpt lat="42.183528" lon="23.588463"><ele>2731.3</ele><time>2026-04-05T11:34:18.000Z</time></trkpt>
<trkpt lat="42.183526" lon="23.58847"><ele>2731.3</ele><time>2026-04-05T11:34:19.000Z</time></trkpt>
<trkpt lat="42.183525" lon="23.588475"><ele>2731.3</ele><time>2026-04-05T11:34:20.000Z</time></trkpt>
<trkpt lat="42.183522" lon="23.588481"><ele>2731.3</ele><time>2026-04-05T11:34:21.000Z</time></trkpt>
<trkpt lat="42.183519" lon="23.588489"><ele>2731</ele><time>2026-04-05T11:34:22.000Z</time></trkpt>
<trkpt lat="42.183516" lon="23.588499"><ele>2731</ele><time>2026-04-05T11:34:23.000Z</time></trkpt>
<trkpt lat="42.183511" lon="23.588507"><ele>2731</ele><time>2026-04-05T11:34:24.000Z</time></trkpt>
<trkpt lat="42.183504" lon="23.588517"><ele>2731</ele><time>2026-04-05T11:34:25.000Z</time></trkpt>
<trkpt lat="42.183498" lon="23.588524"><ele>2731</ele><time>2026-04-05T11:34:26.000Z</time></trkpt>
<trkpt lat="42.18349" lon="23.58853"><ele>2730.3</ele><time>2026-04-05T11:34:27.000Z</time></trkpt>
<trkpt lat="42.183482" lon="23.588535"><ele>2730.3</ele><time>2026-04-05T11:34:28.000Z</time></trkpt>
<trkpt lat="42.183475" lon="23.588539"><ele>2730.3</ele><time>2026-04-05T11:34:29.000Z</time></trkpt>
<trkpt lat="42.183467" lon="23.58854"><ele>2730.3</ele><time>2026-04-05T11:34:30.000Z</time></trkpt>
<trkpt lat="42.18346" lon="23.588541"><ele>2730.3</ele><time>2026-04-05T11:34:31.000Z</time></trkpt>
<trkpt lat="42.183454" lon="23.588543"><ele>2729.6</ele><time>2026-04-05T11:34:32.000Z</time></trkpt>
<trkpt lat="42.183449" lon="23.588544"><ele>2729.6</ele><time>2026-04-05T11:34:33.000Z</time></trkpt>
<trkpt lat="42.183446" lon="23.588546"><ele>2729.6</ele><time>2026-04-05T11:34:34.000Z</time></trkpt>
<trkpt lat="42.183445" lon="23.588548"><ele>2729.6</ele><time>2026-04-05T11:34:35.000Z</time></trkpt>
<trkpt lat="42.183444" lon="23.588549"><ele>2729.6</ele><time>2026-04-05T11:34:36.000Z</time></trkpt>
<trkpt lat="42.183444" lon="23.588551"><ele>2729.4</ele><time>2026-04-05T11:34:37.000Z</time></trkpt>
<trkpt lat="42.183444" lon="23.588552"><ele>2729.4</ele><time>2026-04-05T11:34:38.000Z</time></trkpt>
<trkpt lat="42.183444" lon="23.588552"><ele>2729.4</ele><time>2026-04-05T11:34:39.000Z</time></trkpt>
<trkpt lat="42.183445" lon="23.588553"><ele>2729.4</ele><time>2026-04-05T11:34:40.000Z</time></trkpt>
<trkpt lat="42.183445" lon="23.588553"><ele>2729.4</ele><time>2026-04-05T11:34:41.000Z</time></trkpt>
<trkpt lat="42.183446" lon="23.588554"><ele>2729.4</ele><time>2026-04-05T11:34:42.000Z</time></trkpt>
<trkpt lat="42.183447" lon="23.588555"><ele>2729.4</ele><time>2026-04-05T11:34:43.000Z</time></trkpt>
<trkpt lat="42.183448" lon="23.588556"><ele>2729.4</ele><time>2026-04-05T11:34:44.000Z</time></trkpt>
<trkpt lat="42.183448" lon="23.588557"><ele>2729.4</ele><time>2026-04-05T11:34:45.000Z</time></trkpt>
<trkpt lat="42.183447" lon="23.588559"><ele>2729.4</ele><time>2026-04-05T11:34:46.000Z</time></trkpt>
<trkpt lat="42.183444" lon="23.58856"><ele>2729.5</ele><time>2026-04-05T11:34:47.000Z</time></trkpt>
<trkpt lat="42.18344" lon="23.588562"><ele>2729.5</ele><time>2026-04-05T11:34:48.000Z</time></trkpt>
<trkpt lat="42.183436" lon="23.588564"><ele>2729.5</ele><time>2026-04-05T11:34:49.000Z</time></trkpt>
<trkpt lat="42.183434" lon="23.588566"><ele>2729.5</ele><time>2026-04-05T11:34:50.000Z</time></trkpt>
<trkpt lat="42.183431" lon="23.588567"><ele>2729.5</ele><time>2026-04-05T11:34:51.000Z</time></trkpt>
<trkpt lat="42.183429" lon="23.588568"><ele>2729.5</ele><time>2026-04-05T11:34:52.000Z</time></trkpt>
<trkpt lat="42.183428" lon="23.58857"><ele>2729.5</ele><time>2026-04-05T11:34:53.000Z</time></trkpt>
<trkpt lat="42.183427" lon="23.588572"><ele>2729.5</ele><time>2026-04-05T11:34:54.000Z</time></trkpt>
<trkpt lat="42.183426" lon="23.588576"><ele>2729.5</ele><time>2026-04-05T11:34:55.000Z</time></trkpt>
<trkpt lat="42.183425" lon="23.588581"><ele>2729.5</ele><time>2026-04-05T11:34:56.000Z</time></trkpt>
<trkpt lat="42.183423" lon="23.588589"><ele>2729.4</ele><time>2026-04-05T11:34:57.000Z</time></trkpt>
<trkpt lat="42.183421" lon="23.588596"><ele>2729.4</ele><time>2026-04-05T11:34:58.000Z</time></trkpt>
<trkpt lat="42.183419" lon="23.588604"><ele>2729.4</ele><time>2026-04-05T11:34:59.000Z</time></trkpt>
<trkpt lat="42.183419" lon="23.58861"><ele>2729.4</ele><time>2026-04-05T11:35:00.000Z</time></trkpt>
<trkpt lat="42.18342" lon="23.588614"><ele>2729.4</ele><time>2026-04-05T11:35:01.000Z</time></trkpt>
<trkpt lat="42.183421" lon="23.588616"><ele>2729</ele><time>2026-04-05T11:35:02.000Z</time></trkpt>
<trkpt lat="42.183421" lon="23.588618"><ele>2729</ele><time>2026-04-05T11:35:03.000Z</time></trkpt>
<trkpt lat="42.18342" lon="23.588619"><ele>2729</ele><time>2026-04-05T11:35:04.000Z</time></trkpt>
<trkpt lat="42.18342" lon="23.588621"><ele>2729</ele><time>2026-04-05T11:35:05.000Z</time></trkpt>
<trkpt lat="42.183419" lon="23.588625"><ele>2729</ele><time>2026-04-05T11:35:06.000Z</time></trkpt>
<trkpt lat="42.183419" lon="23.588629"><ele>2728.8</ele><time>2026-04-05T11:35:07.000Z</time></trkpt>
<trkpt lat="42.183419" lon="23.588635"><ele>2728.8</ele><time>2026-04-05T11:35:08.000Z</time></trkpt>
<trkpt lat="42.18342" lon="23.588639"><ele>2728.8</ele><time>2026-04-05T11:35:09.000Z</time></trkpt>
<trkpt lat="42.18342" lon="23.58864"><ele>2728.8</ele><time>2026-04-05T11:35:10.000Z</time></trkpt>
<trkpt lat="42.18342" lon="23.588641"><ele>2728.8</ele><time>2026-04-05T11:35:11.000Z</time></trkpt>
<trkpt lat="42.18342" lon="23.588641"><ele>2728.3</ele><time>2026-04-05T11:35:12.000Z</time></trkpt>
<trkpt lat="42.183419" lon="23.588641"><ele>2728.3</ele><time>2026-04-05T11:35:13.000Z</time></trkpt>
<trkpt lat="42.183418" lon="23.588642"><ele>2728.3</ele><time>2026-04-05T11:35:14.000Z</time></trkpt>
<trkpt lat="42.183417" lon="23.588645"><ele>2728.3</ele><time>2026-04-05T11:35:15.000Z</time></trkpt>
<trkpt lat="42.183416" lon="23.588648"><ele>2728.3</ele><time>2026-04-05T11:35:16.000Z</time></trkpt>
<trkpt lat="42.183416" lon="23.58865"><ele>2727.8</ele><time>2026-04-05T11:35:17.000Z</time></trkpt>
<trkpt lat="42.183416" lon="23.588651"><ele>2727.8</ele><time>2026-04-05T11:35:18.000Z</time></trkpt>
<trkpt lat="42.183416" lon="23.588651"><ele>2727.8</ele><time>2026-04-05T11:35:19.000Z</time></trkpt>
<trkpt lat="42.183417" lon="23.588651"><ele>2727.8</ele><time>2026-04-05T11:35:20.000Z</time></trkpt>
<trkpt lat="42.183417" lon="23.58865"><ele>2727.8</ele><time>2026-04-05T11:35:21.000Z</time></trkpt>
<trkpt lat="42.183418" lon="23.58865"><ele>2727.6</ele><time>2026-04-05T11:35:22.000Z</time></trkpt>
<trkpt lat="42.183418" lon="23.588649"><ele>2727.6</ele><time>2026-04-05T11:35:23.000Z</time></trkpt>
<trkpt lat="42.183418" lon="23.588649"><ele>2727.6</ele><time>2026-04-05T11:35:24.000Z</time></trkpt>
<trkpt lat="42.183417" lon="23.588649"><ele>2727.6</ele><time>2026-04-05T11:35:25.000Z</time></trkpt>
<trkpt lat="42.183417" lon="23.588649"><ele>2727.6</ele><time>2026-04-05T11:35:26.000Z</time></trkpt>
<trkpt lat="42.183417" lon="23.588649"><ele>2727.2</ele><time>2026-04-05T11:35:27.000Z</time></trkpt>
<trkpt lat="42.183417" lon="23.588649"><ele>2727.2</ele><time>2026-04-05T11:35:28.000Z</time></trkpt>
<trkpt lat="42.183417" lon="23.588649"><ele>2727.2</ele><time>2026-04-05T11:35:29.000Z</time></trkpt>
<trkpt lat="42.183417" lon="23.588649"><ele>2727.2</ele><time>2026-04-05T11:35:30.000Z</time></trkpt>
<trkpt lat="42.183417" lon="23.588649"><ele>2727.2</ele><time>2026-04-05T11:35:31.000Z</time></trkpt>
<trkpt lat="42.183417" lon="23.588649"><ele>2726.9</ele><time>2026-04-05T11:35:32.000Z</time></trkpt>
<trkpt lat="42.183418" lon="23.588649"><ele>2726.9</ele><time>2026-04-05T11:35:33.000Z</time></trkpt>
<trkpt lat="42.183418" lon="23.588649"><ele>2726.9</ele><time>2026-04-05T11:35:34.000Z</time></trkpt>
<trkpt lat="42.183418" lon="23.588649"><ele>2726.9</ele><time>2026-04-05T11:35:35.000Z</time></trkpt>
<trkpt lat="42.183419" lon="23.588649"><ele>2726.9</ele><time>2026-04-05T11:35:36.000Z</time></trkpt>
<trkpt lat="42.183419" lon="23.588649"><ele>2726.8</ele><time>2026-04-05T11:35:37.000Z</time></trkpt>
<trkpt lat="42.183418" lon="23.588649"><ele>2726.8</ele><time>2026-04-05T11:35:38.000Z</time></trkpt>
<trkpt lat="42.183418" lon="23.58865"><ele>2726.8</ele><time>2026-04-05T11:35:39.000Z</time></trkpt>
<trkpt lat="42.183418" lon="23.58865"><ele>2726.8</ele><time>2026-04-05T11:35:40.000Z</time></trkpt>
<trkpt lat="42.183418" lon="23.588651"><ele>2726.8</ele><time>2026-04-05T11:35:41.000Z</time></trkpt>
<trkpt lat="42.183417" lon="23.588651"><ele>2726.8</ele><time>2026-04-05T11:35:42.000Z</time></trkpt>
<trkpt lat="42.183417" lon="23.58865"><ele>2726.8</ele><time>2026-04-05T11:35:43.000Z</time></trkpt>
<trkpt lat="42.183416" lon="23.58865"><ele>2726.8</ele><time>2026-04-05T11:35:44.000Z</time></trkpt>
<trkpt lat="42.183416" lon="23.58865"><ele>2726.8</ele><time>2026-04-05T11:35:45.000Z</time></trkpt>
<trkpt lat="42.183414" lon="23.588649"><ele>2726.8</ele><time>2026-04-05T11:35:46.000Z</time></trkpt>
<trkpt lat="42.183413" lon="23.588648"><ele>2726.8</ele><time>2026-04-05T11:35:47.000Z</time></trkpt>
<trkpt lat="42.183412" lon="23.588646"><ele>2726.8</ele><time>2026-04-05T11:35:48.000Z</time></trkpt>
<trkpt lat="42.183411" lon="23.588642"><ele>2726.8</ele><time>2026-04-05T11:35:49.000Z</time></trkpt>
<trkpt lat="42.18341" lon="23.588638"><ele>2726.8</ele><time>2026-04-05T11:35:50.000Z</time></trkpt>
<trkpt lat="42.18341" lon="23.588631"><ele>2726.8</ele><time>2026-04-05T11:35:51.000Z</time></trkpt>
<trkpt lat="42.18341" lon="23.588624"><ele>2726.8</ele><time>2026-04-05T11:35:52.000Z</time></trkpt>
<trkpt lat="42.183409" lon="23.588617"><ele>2726.8</ele><time>2026-04-05T11:35:53.000Z</time></trkpt>
<trkpt lat="42.183409" lon="23.588609"><ele>2726.8</ele><time>2026-04-05T11:35:54.000Z</time></trkpt>
<trkpt lat="42.183408" lon="23.588602"><ele>2726.8</ele><time>2026-04-05T11:35:55.000Z</time></trkpt>
<trkpt lat="42.183409" lon="23.588594"><ele>2726.8</ele><time>2026-04-05T11:35:56.000Z</time></trkpt>
<trkpt lat="42.183409" lon="23.588586"><ele>2726.9</ele><time>2026-04-05T11:35:57.000Z</time></trkpt>
<trkpt lat="42.183412" lon="23.588577"><ele>2726.9</ele><time>2026-04-05T11:35:58.000Z</time></trkpt>
<trkpt lat="42.183413" lon="23.588569"><ele>2726.9</ele><time>2026-04-05T11:35:59.000Z</time></trkpt>
<trkpt lat="42.183415" lon="23.58856"><ele>2726.9</ele><time>2026-04-05T11:36:00.000Z</time></trkpt>
<trkpt lat="42.183417" lon="23.588553"><ele>2726.9</ele><time>2026-04-05T11:36:01.000Z</time></trkpt>
<trkpt lat="42.183419" lon="23.588546"><ele>2727.1</ele><time>2026-04-05T11:36:02.000Z</time></trkpt>
<trkpt lat="42.18342" lon="23.58854"><ele>2727.1</ele><time>2026-04-05T11:36:03.000Z</time></trkpt>
<trkpt lat="42.183423" lon="23.588534"><ele>2727.1</ele><time>2026-04-05T11:36:04.000Z</time></trkpt>
<trkpt lat="42.183425" lon="23.588527"><ele>2727.1</ele><time>2026-04-05T11:36:05.000Z</time></trkpt>
<trkpt lat="42.183428" lon="23.58852"><ele>2727.1</ele><time>2026-04-05T11:36:06.000Z</time></trkpt>
<trkpt lat="42.183431" lon="23.588514"><ele>2727.2</ele><time>2026-04-05T11:36:07.000Z</time></trkpt>
<trkpt lat="42.183434" lon="23.588509"><ele>2727.2</ele><time>2026-04-05T11:36:08.000Z</time></trkpt>
<trkpt lat="42.183435" lon="23.588506"><ele>2727.2</ele><time>2026-04-05T11:36:09.000Z</time></trkpt>
<trkpt lat="42.183435" lon="23.588506"><ele>2727.2</ele><time>2026-04-05T11:36:10.000Z</time></trkpt>
<trkpt lat="42.183436" lon="23.588505"><ele>2727.2</ele><time>2026-04-05T11:36:11.000Z</time></trkpt>
<trkpt lat="42.183435" lon="23.588505"><ele>2727.5</ele><time>2026-04-05T11:36:12.000Z</time></trkpt>
<trkpt lat="42.183435" lon="23.588506"><ele>2727.5</ele><time>2026-04-05T11:36:13.000Z</time></trkpt>
<trkpt lat="42.183435" lon="23.588507"><ele>2727.5</ele><time>2026-04-05T11:36:14.000Z</time></trkpt>
<trkpt lat="42.183435" lon="23.588507"><ele>2727.5</ele><time>2026-04-05T11:36:15.000Z</time></trkpt>
<trkpt lat="42.183435" lon="23.588508"><ele>2727.5</ele><time>2026-04-05T11:36:16.000Z</time></trkpt>
<trkpt lat="42.183435" lon="23.588509"><ele>2728</ele><time>2026-04-05T11:36:17.000Z</time></trkpt>
<trkpt lat="42.183435" lon="23.588509"><ele>2728</ele><time>2026-04-05T11:36:18.000Z</time></trkpt>
<trkpt lat="42.183435" lon="23.58851"><ele>2728</ele><time>2026-04-05T11:36:19.000Z</time></trkpt>
<trkpt lat="42.183435" lon="23.58851"><ele>2728</ele><time>2026-04-05T11:36:20.000Z</time></trkpt>
<trkpt lat="42.183436" lon="23.588511"><ele>2728</ele><time>2026-04-05T11:36:21.000Z</time></trkpt>
<trkpt lat="42.183435" lon="23.588511"><ele>2728.1</ele><time>2026-04-05T11:36:22.000Z</time></trkpt>
<trkpt lat="42.183435" lon="23.588511"><ele>2728.1</ele><time>2026-04-05T11:36:23.000Z</time></trkpt>
<trkpt lat="42.183435" lon="23.588511"><ele>2728.1</ele><time>2026-04-05T11:36:24.000Z</time></trkpt>
<trkpt lat="42.183435" lon="23.58851"><ele>2728.1</ele><time>2026-04-05T11:36:25.000Z</time></trkpt>
<trkpt lat="42.183434" lon="23.588509"><ele>2728.1</ele><time>2026-04-05T11:36:26.000Z</time></trkpt>
<trkpt lat="42.183434" lon="23.588507"><ele>2728.2</ele><time>2026-04-05T11:36:27.000Z</time></trkpt>
<trkpt lat="42.183433" lon="23.588505"><ele>2728.2</ele><time>2026-04-05T11:36:28.000Z</time></trkpt>
<trkpt lat="42.183433" lon="23.588503"><ele>2728.2</ele><time>2026-04-05T11:36:29.000Z</time></trkpt>
<trkpt lat="42.183434" lon="23.588502"><ele>2728.2</ele><time>2026-04-05T11:36:30.000Z</time></trkpt>
<trkpt lat="42.183435" lon="23.588501"><ele>2728.2</ele><time>2026-04-05T11:36:31.000Z</time></trkpt>
<trkpt lat="42.183435" lon="23.588501"><ele>2728</ele><time>2026-04-05T11:36:32.000Z</time></trkpt>
<trkpt lat="42.183436" lon="23.588501"><ele>2728</ele><time>2026-04-05T11:36:33.000Z</time></trkpt>
<trkpt lat="42.183436" lon="23.588502"><ele>2728</ele><time>2026-04-05T11:36:34.000Z</time></trkpt>
<trkpt lat="42.183436" lon="23.588502"><ele>2728</ele><time>2026-04-05T11:36:35.000Z</time></trkpt>
<trkpt lat="42.183436" lon="23.588503"><ele>2728</ele><time>2026-04-05T11:36:36.000Z</time></trkpt>
<trkpt lat="42.183436" lon="23.588503"><ele>2727.9</ele><time>2026-04-05T11:36:37.000Z</time></trkpt>
<trkpt lat="42.183436" lon="23.588503"><ele>2727.9</ele><time>2026-04-05T11:36:38.000Z</time></trkpt>
<trkpt lat="42.183436" lon="23.588503"><ele>2727.9</ele><time>2026-04-05T11:36:39.000Z</time></trkpt>
<trkpt lat="42.183436" lon="23.588503"><ele>2727.9</ele><time>2026-04-05T11:36:40.000Z</time></trkpt>
<trkpt lat="42.183436" lon="23.588504"><ele>2727.9</ele><time>2026-04-05T11:36:41.000Z</time></trkpt>
<trkpt lat="42.183436" lon="23.588505"><ele>2728.2</ele><time>2026-04-05T11:36:42.000Z</time></trkpt>
<trkpt lat="42.183435" lon="23.588506"><ele>2728.2</ele><time>2026-04-05T11:36:43.000Z</time></trkpt>
<trkpt lat="42.183435" lon="23.588507"><ele>2728.2</ele><time>2026-04-05T11:36:44.000Z</time></trkpt>
<trkpt lat="42.183434" lon="23.588507"><ele>2728.2</ele><time>2026-04-05T11:36:45.000Z</time></trkpt>
<trkpt lat="42.183433" lon="23.588508"><ele>2728.2</ele><time>2026-04-05T11:36:46.000Z</time></trkpt>
<trkpt lat="42.183433" lon="23.588507"><ele>2728.6</ele><time>2026-04-05T11:36:47.000Z</time></trkpt>
<trkpt lat="42.183435" lon="23.588506"><ele>2728.6</ele><time>2026-04-05T11:36:48.000Z</time></trkpt>
<trkpt lat="42.183438" lon="23.588506"><ele>2728.6</ele><time>2026-04-05T11:36:49.000Z</time></trkpt>
<trkpt lat="42.183443" lon="23.588505"><ele>2728.6</ele><time>2026-04-05T11:36:50.000Z</time></trkpt>
<trkpt lat="42.183451" lon="23.588504"><ele>2728.6</ele><time>2026-04-05T11:36:51.000Z</time></trkpt>
<trkpt lat="42.183461" lon="23.588503"><ele>2728.8</ele><time>2026-04-05T11:36:52.000Z</time></trkpt>
<trkpt lat="42.18347" lon="23.588501"><ele>2728.8</ele><time>2026-04-05T11:36:53.000Z</time></trkpt>
<trkpt lat="42.18348" lon="23.588498"><ele>2728.8</ele><time>2026-04-05T11:36:54.000Z</time></trkpt>
<trkpt lat="42.183491" lon="23.588496"><ele>2728.8</ele><time>2026-04-05T11:36:55.000Z</time></trkpt>
<trkpt lat="42.183501" lon="23.588492"><ele>2728.8</ele><time>2026-04-05T11:36:56.000Z</time></trkpt>
<trkpt lat="42.183509" lon="23.588489"><ele>2729</ele><time>2026-04-05T11:36:57.000Z</time></trkpt>
<trkpt lat="42.183518" lon="23.588485"><ele>2729</ele><time>2026-04-05T11:36:58.000Z</time></trkpt>
<trkpt lat="42.183525" lon="23.588481"><ele>2729</ele><time>2026-04-05T11:36:59.000Z</time></trkpt>
<trkpt lat="42.183528" lon="23.588475"><ele>2729</ele><time>2026-04-05T11:37:00.000Z</time></trkpt>
<trkpt lat="42.183531" lon="23.588469"><ele>2729</ele><time>2026-04-05T11:37:01.000Z</time></trkpt>
<trkpt lat="42.183532" lon="23.588462"><ele>2729.1</ele><time>2026-04-05T11:37:02.000Z</time></trkpt>
<trkpt lat="42.183532" lon="23.588456"><ele>2729.1</ele><time>2026-04-05T11:37:03.000Z</time></trkpt>
<trkpt lat="42.18353" lon="23.588449"><ele>2729.1</ele><time>2026-04-05T11:37:04.000Z</time></trkpt>
<trkpt lat="42.18353" lon="23.588444"><ele>2729.1</ele><time>2026-04-05T11:37:05.000Z</time></trkpt>
<trkpt lat="42.183529" lon="23.58844"><ele>2729.1</ele><time>2026-04-05T11:37:06.000Z</time></trkpt>
<trkpt lat="42.183528" lon="23.588439"><ele>2729.1</ele><time>2026-04-05T11:37:07.000Z</time></trkpt>
<trkpt lat="42.183528" lon="23.588437"><ele>2729.1</ele><time>2026-04-05T11:37:08.000Z</time></trkpt>
<trkpt lat="42.183528" lon="23.588437"><ele>2729.1</ele><time>2026-04-05T11:37:09.000Z</time></trkpt>
<trkpt lat="42.183529" lon="23.588439"><ele>2729.1</ele><time>2026-04-05T11:37:10.000Z</time></trkpt>
<trkpt lat="42.18353" lon="23.58844"><ele>2729.1</ele><time>2026-04-05T11:37:11.000Z</time></trkpt>
<trkpt lat="42.18353" lon="23.588439"><ele>2729.1</ele><time>2026-04-05T11:37:12.000Z</time></trkpt>
<trkpt lat="42.18353" lon="23.588438"><ele>2729.1</ele><time>2026-04-05T11:37:13.000Z</time></trkpt>
<trkpt lat="42.183529" lon="23.588437"><ele>2729.1</ele><time>2026-04-05T11:37:14.000Z</time></trkpt>
<trkpt lat="42.183528" lon="23.588437"><ele>2729.1</ele><time>2026-04-05T11:37:15.000Z</time></trkpt>
<trkpt lat="42.183528" lon="23.588436"><ele>2729.1</ele><time>2026-04-05T11:37:16.000Z</time></trkpt>
<trkpt lat="42.183527" lon="23.588436"><ele>2729.1</ele><time>2026-04-05T11:37:17.000Z</time></trkpt>
<trkpt lat="42.183526" lon="23.588435"><ele>2729.1</ele><time>2026-04-05T11:37:18.000Z</time></trkpt>
<trkpt lat="42.183526" lon="23.588434"><ele>2729.1</ele><time>2026-04-05T11:37:19.000Z</time></trkpt>
<trkpt lat="42.183525" lon="23.588432"><ele>2729.1</ele><time>2026-04-05T11:37:20.000Z</time></trkpt>
<trkpt lat="42.183525" lon="23.588431"><ele>2729.1</ele><time>2026-04-05T11:37:21.000Z</time></trkpt>
<trkpt lat="42.183525" lon="23.58843"><ele>2729</ele><time>2026-04-05T11:37:22.000Z</time></trkpt>
<trkpt lat="42.183525" lon="23.58843"><ele>2729</ele><time>2026-04-05T11:37:23.000Z</time></trkpt>
<trkpt lat="42.183526" lon="23.58843"><ele>2729</ele><time>2026-04-05T11:37:24.000Z</time></trkpt>
<trkpt lat="42.183526" lon="23.588432"><ele>2729</ele><time>2026-04-05T11:37:25.000Z</time></trkpt>
<trkpt lat="42.183527" lon="23.588433"><ele>2729</ele><time>2026-04-05T11:37:26.000Z</time></trkpt>
<trkpt lat="42.183527" lon="23.588434"><ele>2728.9</ele><time>2026-04-05T11:37:27.000Z</time></trkpt>
<trkpt lat="42.183527" lon="23.588435"><ele>2728.9</ele><time>2026-04-05T11:37:28.000Z</time></trkpt>
<trkpt lat="42.183527" lon="23.588436"><ele>2728.9</ele><time>2026-04-05T11:37:29.000Z</time></trkpt>
<trkpt lat="42.183527" lon="23.588436"><ele>2728.9</ele><time>2026-04-05T11:37:30.000Z</time></trkpt>
<trkpt lat="42.183526" lon="23.588436"><ele>2728.9</ele><time>2026-04-05T11:37:31.000Z</time></trkpt>
<trkpt lat="42.183526" lon="23.588436"><ele>2728.6</ele><time>2026-04-05T11:37:32.000Z</time></trkpt>
<trkpt lat="42.183526" lon="23.588436"><ele>2728.6</ele><time>2026-04-05T11:37:33.000Z</time></trkpt>
<trkpt lat="42.183526" lon="23.588437"><ele>2728.6</ele><time>2026-04-05T11:37:34.000Z</time></trkpt>
<trkpt lat="42.183526" lon="23.588437"><ele>2728.6</ele><time>2026-04-05T11:37:35.000Z</time></trkpt>
<trkpt lat="42.183526" lon="23.588437"><ele>2728.6</ele><time>2026-04-05T11:37:36.000Z</time></trkpt>
<trkpt lat="42.183526" lon="23.588437"><ele>2728.5</ele><time>2026-04-05T11:37:37.000Z</time></trkpt>
<trkpt lat="42.183525" lon="23.588436"><ele>2728.5</ele><time>2026-04-05T11:37:38.000Z</time></trkpt>
<trkpt lat="42.183525" lon="23.588436"><ele>2728.5</ele><time>2026-04-05T11:37:39.000Z</time></trkpt>
<trkpt lat="42.183524" lon="23.588436"><ele>2728.5</ele><time>2026-04-05T11:37:40.000Z</time></trkpt>
<trkpt lat="42.183523" lon="23.588436"><ele>2728.5</ele><time>2026-04-05T11:37:41.000Z</time></trkpt>
<trkpt lat="42.183522" lon="23.588436"><ele>2728.4</ele><time>2026-04-05T11:37:42.000Z</time></trkpt>
<trkpt lat="42.183521" lon="23.588436"><ele>2728.4</ele><time>2026-04-05T11:37:43.000Z</time></trkpt>
<trkpt lat="42.183521" lon="23.588437"><ele>2728.4</ele><time>2026-04-05T11:37:44.000Z</time></trkpt>
<trkpt lat="42.18352" lon="23.588438"><ele>2728.4</ele><time>2026-04-05T11:37:45.000Z</time></trkpt>
<trkpt lat="42.183519" lon="23.588439"><ele>2728.4</ele><time>2026-04-05T11:37:46.000Z</time></trkpt>
<trkpt lat="42.183518" lon="23.588439"><ele>2728.6</ele><time>2026-04-05T11:37:47.000Z</time></trkpt>
<trkpt lat="42.183518" lon="23.588438"><ele>2728.6</ele><time>2026-04-05T11:37:48.000Z</time></trkpt>
<trkpt lat="42.183517" lon="23.588436"><ele>2728.6</ele><time>2026-04-05T11:37:49.000Z</time></trkpt>
<trkpt lat="42.183517" lon="23.588435"><ele>2728.6</ele><time>2026-04-05T11:37:50.000Z</time></trkpt>
<trkpt lat="42.183517" lon="23.588434"><ele>2728.6</ele><time>2026-04-05T11:37:51.000Z</time></trkpt>
<trkpt lat="42.183517" lon="23.588433"><ele>2728.7</ele><time>2026-04-05T11:37:52.000Z</time></trkpt>
<trkpt lat="42.183517" lon="23.588433"><ele>2728.7</ele><time>2026-04-05T11:37:53.000Z</time></trkpt>
<trkpt lat="42.183517" lon="23.588433"><ele>2728.7</ele><time>2026-04-05T11:37:54.000Z</time></trkpt>
<trkpt lat="42.183517" lon="23.588434"><ele>2728.7</ele><time>2026-04-05T11:37:55.000Z</time></trkpt>
<trkpt lat="42.183517" lon="23.588434"><ele>2728.7</ele><time>2026-04-05T11:37:56.000Z</time></trkpt>
<trkpt lat="42.183517" lon="23.588435"><ele>2729</ele><time>2026-04-05T11:37:57.000Z</time></trkpt>
<trkpt lat="42.183517" lon="23.588436"><ele>2729</ele><time>2026-04-05T11:37:58.000Z</time></trkpt>
<trkpt lat="42.183516" lon="23.588436"><ele>2729</ele><time>2026-04-05T11:37:59.000Z</time></trkpt>
<trkpt lat="42.183514" lon="23.588437"><ele>2729</ele><time>2026-04-05T11:38:00.000Z</time></trkpt>
<trkpt lat="42.18351" lon="23.588438"><ele>2729</ele><time>2026-04-05T11:38:01.000Z</time></trkpt>
<trkpt lat="42.183506" lon="23.588439"><ele>2729</ele><time>2026-04-05T11:38:02.000Z</time></trkpt>
<trkpt lat="42.183502" lon="23.588442"><ele>2729</ele><time>2026-04-05T11:38:03.000Z</time></trkpt>
<trkpt lat="42.183499" lon="23.588444"><ele>2729</ele><time>2026-04-05T11:38:04.000Z</time></trkpt>
<trkpt lat="42.183497" lon="23.588445"><ele>2729</ele><time>2026-04-05T11:38:05.000Z</time></trkpt>
<trkpt lat="42.183499" lon="23.588445"><ele>2729</ele><time>2026-04-05T11:38:06.000Z</time></trkpt>
<trkpt lat="42.183504" lon="23.588447"><ele>2729</ele><time>2026-04-05T11:38:07.000Z</time></trkpt>
<trkpt lat="42.183507" lon="23.588447"><ele>2729</ele><time>2026-04-05T11:38:08.000Z</time></trkpt>
<trkpt lat="42.183511" lon="23.588448"><ele>2729</ele><time>2026-04-05T11:38:09.000Z</time></trkpt>
<trkpt lat="42.183514" lon="23.588452"><ele>2729</ele><time>2026-04-05T11:38:10.000Z</time></trkpt>
<trkpt lat="42.183514" lon="23.588456"><ele>2729</ele><time>2026-04-05T11:38:11.000Z</time></trkpt>
<trkpt lat="42.183513" lon="23.588458"><ele>2729</ele><time>2026-04-05T11:38:12.000Z</time></trkpt>
<trkpt lat="42.183513" lon="23.588459"><ele>2729</ele><time>2026-04-05T11:38:13.000Z</time></trkpt>
<trkpt lat="42.183514" lon="23.58846"><ele>2729</ele><time>2026-04-05T11:38:14.000Z</time></trkpt>
<trkpt lat="42.183516" lon="23.588458"><ele>2729</ele><time>2026-04-05T11:38:15.000Z</time></trkpt>
<trkpt lat="42.183518" lon="23.588454"><ele>2729</ele><time>2026-04-05T11:38:16.000Z</time></trkpt>
<trkpt lat="42.18352" lon="23.588452"><ele>2729</ele><time>2026-04-05T11:38:17.000Z</time></trkpt>
<trkpt lat="42.183521" lon="23.588449"><ele>2729</ele><time>2026-04-05T11:38:18.000Z</time></trkpt>
<trkpt lat="42.183521" lon="23.588445"><ele>2729</ele><time>2026-04-05T11:38:19.000Z</time></trkpt>
<trkpt lat="42.18352" lon="23.588443"><ele>2729</ele><time>2026-04-05T11:38:20.000Z</time></trkpt>
<trkpt lat="42.183518" lon="23.58844"><ele>2729</ele><time>2026-04-05T11:38:21.000Z</time></trkpt>
<trkpt lat="42.183516" lon="23.588438"><ele>2729</ele><time>2026-04-05T11:38:22.000Z</time></trkpt>
<trkpt lat="42.183515" lon="23.588436"><ele>2729</ele><time>2026-04-05T11:38:23.000Z</time></trkpt>
<trkpt lat="42.183514" lon="23.588434"><ele>2729</ele><time>2026-04-05T11:38:24.000Z</time></trkpt>
<trkpt lat="42.183514" lon="23.588433"><ele>2729</ele><time>2026-04-05T11:38:25.000Z</time></trkpt>
<trkpt lat="42.183515" lon="23.588433"><ele>2729</ele><time>2026-04-05T11:38:26.000Z</time></trkpt>
<trkpt lat="42.183516" lon="23.588433"><ele>2729</ele><time>2026-04-05T11:38:27.000Z</time></trkpt>
<trkpt lat="42.183517" lon="23.588432"><ele>2729</ele><time>2026-04-05T11:38:28.000Z</time></trkpt>
<trkpt lat="42.183518" lon="23.588431"><ele>2729</ele><time>2026-04-05T11:38:29.000Z</time></trkpt>
<trkpt lat="42.183518" lon="23.588431"><ele>2729</ele><time>2026-04-05T11:38:30.000Z</time></trkpt>
<trkpt lat="42.183518" lon="23.588429"><ele>2729</ele><time>2026-04-05T11:38:31.000Z</time></trkpt>
<trkpt lat="42.183519" lon="23.588429"><ele>2729</ele><time>2026-04-05T11:38:32.000Z</time></trkpt>
<trkpt lat="42.183519" lon="23.588428"><ele>2729</ele><time>2026-04-05T11:38:33.000Z</time></trkpt>
<trkpt lat="42.18352" lon="23.588428"><ele>2729</ele><time>2026-04-05T11:38:34.000Z</time></trkpt>
<trkpt lat="42.18352" lon="23.588428"><ele>2729</ele><time>2026-04-05T11:38:35.000Z</time></trkpt>
<trkpt lat="42.183521" lon="23.588428"><ele>2729</ele><time>2026-04-05T11:38:36.000Z</time></trkpt>
<trkpt lat="42.183521" lon="23.58843"><ele>2729.1</ele><time>2026-04-05T11:38:37.000Z</time></trkpt>
<trkpt lat="42.183522" lon="23.588432"><ele>2729.1</ele><time>2026-04-05T11:38:38.000Z</time></trkpt>
<trkpt lat="42.183523" lon="23.588433"><ele>2729.1</ele><time>2026-04-05T11:38:39.000Z</time></trkpt>
<trkpt lat="42.183524" lon="23.588435"><ele>2729.1</ele><time>2026-04-05T11:38:40.000Z</time></trkpt>
<trkpt lat="42.183524" lon="23.588436"><ele>2729.1</ele><time>2026-04-05T11:38:41.000Z</time></trkpt>
<trkpt lat="42.183524" lon="23.588436"><ele>2729.5</ele><time>2026-04-05T11:38:42.000Z</time></trkpt>
<trkpt lat="42.183524" lon="23.588436"><ele>2729.5</ele><time>2026-04-05T11:38:43.000Z</time></trkpt>
<trkpt lat="42.183524" lon="23.588436"><ele>2729.5</ele><time>2026-04-05T11:38:44.000Z</time></trkpt>
<trkpt lat="42.183525" lon="23.588436"><ele>2729.5</ele><time>2026-04-05T11:38:45.000Z</time></trkpt>
<trkpt lat="42.183525" lon="23.588437"><ele>2729.5</ele><time>2026-04-05T11:38:46.000Z</time></trkpt>
<trkpt lat="42.183525" lon="23.588437"><ele>2729.7</ele><time>2026-04-05T11:38:47.000Z</time></trkpt>
<trkpt lat="42.183525" lon="23.588436"><ele>2729.7</ele><time>2026-04-05T11:38:48.000Z</time></trkpt>
<trkpt lat="42.183524" lon="23.588436"><ele>2729.7</ele><time>2026-04-05T11:38:49.000Z</time></trkpt>
<trkpt lat="42.183524" lon="23.588436"><ele>2729.7</ele><time>2026-04-05T11:38:50.000Z</time></trkpt>
<trkpt lat="42.183523" lon="23.588435"><ele>2729.7</ele><time>2026-04-05T11:38:51.000Z</time></trkpt>
<trkpt lat="42.183523" lon="23.588435"><ele>2729.6</ele><time>2026-04-05T11:38:52.000Z</time></trkpt>
<trkpt lat="42.183524" lon="23.588436"><ele>2729.6</ele><time>2026-04-05T11:38:53.000Z</time></trkpt>
<trkpt lat="42.183524" lon="23.588437"><ele>2729.6</ele><time>2026-04-05T11:38:54.000Z</time></trkpt>
<trkpt lat="42.183525" lon="23.588438"><ele>2729.6</ele><time>2026-04-05T11:38:55.000Z</time></trkpt>
<trkpt lat="42.183526" lon="23.588439"><ele>2729.6</ele><time>2026-04-05T11:38:56.000Z</time></trkpt>
<trkpt lat="42.183527" lon="23.58844"><ele>2729.5</ele><time>2026-04-05T11:38:57.000Z</time></trkpt>
<trkpt lat="42.183529" lon="23.588441"><ele>2729.5</ele><time>2026-04-05T11:38:58.000Z</time></trkpt>
<trkpt lat="42.183529" lon="23.588441"><ele>2729.5</ele><time>2026-04-05T11:38:59.000Z</time></trkpt>
<trkpt lat="42.183529" lon="23.588441"><ele>2729.5</ele><time>2026-04-05T11:39:00.000Z</time></trkpt>
<trkpt lat="42.183529" lon="23.58844"><ele>2729.5</ele><time>2026-04-05T11:39:01.000Z</time></trkpt>
<trkpt lat="42.183528" lon="23.588439"><ele>2729.6</ele><time>2026-04-05T11:39:02.000Z</time></trkpt>
<trkpt lat="42.183527" lon="23.588438"><ele>2729.6</ele><time>2026-04-05T11:39:03.000Z</time></trkpt>
<trkpt lat="42.183527" lon="23.588437"><ele>2729.6</ele><time>2026-04-05T11:39:04.000Z</time></trkpt>
<trkpt lat="42.183526" lon="23.588435"><ele>2729.6</ele><time>2026-04-05T11:39:05.000Z</time></trkpt>
<trkpt lat="42.183526" lon="23.588434"><ele>2729.6</ele><time>2026-04-05T11:39:06.000Z</time></trkpt>
<trkpt lat="42.183525" lon="23.588432"><ele>2729.5</ele><time>2026-04-05T11:39:07.000Z</time></trkpt>
<trkpt lat="42.183525" lon="23.588432"><ele>2729.5</ele><time>2026-04-05T11:39:08.000Z</time></trkpt>
<trkpt lat="42.183525" lon="23.588431"><ele>2729.5</ele><time>2026-04-05T11:39:09.000Z</time></trkpt>
<trkpt lat="42.183526" lon="23.588431"><ele>2729.5</ele><time>2026-04-05T11:39:10.000Z</time></trkpt>
<trkpt lat="42.183526" lon="23.588431"><ele>2729.5</ele><time>2026-04-05T11:39:11.000Z</time></trkpt>
<trkpt lat="42.183527" lon="23.588431"><ele>2729.3</ele><time>2026-04-05T11:39:12.000Z</time></trkpt>
<trkpt lat="42.183527" lon="23.588431"><ele>2729.3</ele><time>2026-04-05T11:39:13.000Z</time></trkpt>
<trkpt lat="42.183527" lon="23.588431"><ele>2729.3</ele><time>2026-04-05T11:39:14.000Z</time></trkpt>
<trkpt lat="42.183527" lon="23.588431"><ele>2729.3</ele><time>2026-04-05T11:39:15.000Z</time></trkpt>
<trkpt lat="42.183527" lon="23.58843"><ele>2729.3</ele><time>2026-04-05T11:39:16.000Z</time></trkpt>
<trkpt lat="42.183527" lon="23.588429"><ele>2729.2</ele><time>2026-04-05T11:39:17.000Z</time></trkpt>
<trkpt lat="42.183526" lon="23.588428"><ele>2729.2</ele><time>2026-04-05T11:39:18.000Z</time></trkpt>
<trkpt lat="42.183525" lon="23.588427"><ele>2729.2</ele><time>2026-04-05T11:39:19.000Z</time></trkpt>
<trkpt lat="42.183525" lon="23.588427"><ele>2729.2</ele><time>2026-04-05T11:39:20.000Z</time></trkpt>
<trkpt lat="42.183525" lon="23.588427"><ele>2729.2</ele><time>2026-04-05T11:39:21.000Z</time></trkpt>
<trkpt lat="42.183524" lon="23.588427"><ele>2729.2</ele><time>2026-04-05T11:39:22.000Z</time></trkpt>
<trkpt lat="42.183524" lon="23.588427"><ele>2729.2</ele><time>2026-04-05T11:39:23.000Z</time></trkpt>
<trkpt lat="42.183524" lon="23.588428"><ele>2729.2</ele><time>2026-04-05T11:39:24.000Z</time></trkpt>
<trkpt lat="42.183524" lon="23.588427"><ele>2729.2</ele><time>2026-04-05T11:39:25.000Z</time></trkpt>
<trkpt lat="42.183523" lon="23.588427"><ele>2729.2</ele><time>2026-04-05T11:39:26.000Z</time></trkpt>
<trkpt lat="42.183523" lon="23.588427"><ele>2729.3</ele><time>2026-04-05T11:39:27.000Z</time></trkpt>
<trkpt lat="42.183523" lon="23.588427"><ele>2729.3</ele><time>2026-04-05T11:39:28.000Z</time></trkpt>
<trkpt lat="42.183523" lon="23.588427"><ele>2729.3</ele><time>2026-04-05T11:39:29.000Z</time></trkpt>
<trkpt lat="42.183523" lon="23.588427"><ele>2729.3</ele><time>2026-04-05T11:39:30.000Z</time></trkpt>
<trkpt lat="42.183523" lon="23.588427"><ele>2729.3</ele><time>2026-04-05T11:39:31.000Z</time></trkpt>
<trkpt lat="42.183523" lon="23.588427"><ele>2729.1</ele><time>2026-04-05T11:39:32.000Z</time></trkpt>
<trkpt lat="42.183523" lon="23.588428"><ele>2729.1</ele><time>2026-04-05T11:39:33.000Z</time></trkpt>
<trkpt lat="42.183523" lon="23.588429"><ele>2729.1</ele><time>2026-04-05T11:39:34.000Z</time></trkpt>
<trkpt lat="42.183523" lon="23.588429"><ele>2729.1</ele><time>2026-04-05T11:39:35.000Z</time></trkpt>
<trkpt lat="42.183523" lon="23.58843"><ele>2729.1</ele><time>2026-04-05T11:39:36.000Z</time></trkpt>
<trkpt lat="42.183524" lon="23.58843"><ele>2729</ele><time>2026-04-05T11:39:37.000Z</time></trkpt>
<trkpt lat="42.183524" lon="23.58843"><ele>2729</ele><time>2026-04-05T11:39:38.000Z</time></trkpt>
<trkpt lat="42.183524" lon="23.58843"><ele>2729</ele><time>2026-04-05T11:39:39.000Z</time></trkpt>
<trkpt lat="42.183524" lon="23.58843"><ele>2729</ele><time>2026-04-05T11:39:40.000Z</time></trkpt>
<trkpt lat="42.183525" lon="23.58843"><ele>2729</ele><time>2026-04-05T11:39:41.000Z</time></trkpt>
<trkpt lat="42.183525" lon="23.588432"><ele>2729</ele><time>2026-04-05T11:39:42.000Z</time></trkpt>
<trkpt lat="42.183525" lon="23.588434"><ele>2729</ele><time>2026-04-05T11:39:43.000Z</time></trkpt>
<trkpt lat="42.183524" lon="23.588436"><ele>2729</ele><time>2026-04-05T11:39:44.000Z</time></trkpt>
<trkpt lat="42.183524" lon="23.588438"><ele>2729</ele><time>2026-04-05T11:39:45.000Z</time></trkpt>
<trkpt lat="42.183524" lon="23.58844"><ele>2729</ele><time>2026-04-05T11:39:46.000Z</time></trkpt>
<trkpt lat="42.183524" lon="23.58844"><ele>2729.3</ele><time>2026-04-05T11:39:47.000Z</time></trkpt>
<trkpt lat="42.183524" lon="23.588441"><ele>2729.3</ele><time>2026-04-05T11:39:48.000Z</time></trkpt>
<trkpt lat="42.183524" lon="23.588441"><ele>2729.3</ele><time>2026-04-05T11:39:49.000Z</time></trkpt>
<trkpt lat="42.183524" lon="23.588442"><ele>2729.3</ele><time>2026-04-05T11:39:50.000Z</time></trkpt>
<trkpt lat="42.183524" lon="23.588442"><ele>2729.3</ele><time>2026-04-05T11:39:51.000Z</time></trkpt>
<trkpt lat="42.183524" lon="23.588442"><ele>2729.4</ele><time>2026-04-05T11:39:52.000Z</time></trkpt>
<trkpt lat="42.183524" lon="23.588442"><ele>2729.4</ele><time>2026-04-05T11:39:53.000Z</time></trkpt>
<trkpt lat="42.183525" lon="23.588442"><ele>2729.4</ele><time>2026-04-05T11:39:54.000Z</time></trkpt>
<trkpt lat="42.183525" lon="23.588442"><ele>2729.4</ele><time>2026-04-05T11:39:55.000Z</time></trkpt>
<trkpt lat="42.183525" lon="23.588443"><ele>2729.4</ele><time>2026-04-05T11:39:56.000Z</time></trkpt>
<trkpt lat="42.183525" lon="23.588443"><ele>2729.2</ele><time>2026-04-05T11:39:57.000Z</time></trkpt>
<trkpt lat="42.183526" lon="23.588443"><ele>2729.2</ele><time>2026-04-05T11:39:58.000Z</time></trkpt>
<trkpt lat="42.183526" lon="23.588444"><ele>2729.2</ele><time>2026-04-05T11:39:59.000Z</time></trkpt>
<trkpt lat="42.183526" lon="23.588444"><ele>2729.2</ele><time>2026-04-05T11:40:00.000Z</time></trkpt>
<trkpt lat="42.183527" lon="23.588444"><ele>2729.2</ele><time>2026-04-05T11:40:01.000Z</time></trkpt>
<trkpt lat="42.183527" lon="23.588445"><ele>2728.9</ele><time>2026-04-05T11:40:02.000Z</time></trkpt>
<trkpt lat="42.183527" lon="23.588445"><ele>2728.9</ele><time>2026-04-05T11:40:03.000Z</time></trkpt>
<trkpt lat="42.183527" lon="23.588446"><ele>2728.9</ele><time>2026-04-05T11:40:04.000Z</time></trkpt>
<trkpt lat="42.183527" lon="23.588447"><ele>2728.9</ele><time>2026-04-05T11:40:05.000Z</time></trkpt>
<trkpt lat="42.183526" lon="23.588448"><ele>2728.9</ele><time>2026-04-05T11:40:06.000Z</time></trkpt>
<trkpt lat="42.183526" lon="23.588449"><ele>2728.9</ele><time>2026-04-05T11:40:07.000Z</time></trkpt>
<trkpt lat="42.183525" lon="23.58845"><ele>2728.9</ele><time>2026-04-05T11:40:08.000Z</time></trkpt>
<trkpt lat="42.183524" lon="23.58845"><ele>2728.9</ele><time>2026-04-05T11:40:09.000Z</time></trkpt>
<trkpt lat="42.183523" lon="23.58845"><ele>2728.9</ele><time>2026-04-05T11:40:10.000Z</time></trkpt>
<trkpt lat="42.183523" lon="23.58845"><ele>2728.9</ele><time>2026-04-05T11:40:11.000Z</time></trkpt>
<trkpt lat="42.183523" lon="23.588449"><ele>2729</ele><time>2026-04-05T11:40:12.000Z</time></trkpt>
<trkpt lat="42.183523" lon="23.588449"><ele>2729</ele><time>2026-04-05T11:40:13.000Z</time></trkpt>
<trkpt lat="42.183523" lon="23.588449"><ele>2729</ele><time>2026-04-05T11:40:14.000Z</time></trkpt>
<trkpt lat="42.183523" lon="23.588449"><ele>2729</ele><time>2026-04-05T11:40:15.000Z</time></trkpt>
<trkpt lat="42.183523" lon="23.588449"><ele>2729</ele><time>2026-04-05T11:40:16.000Z</time></trkpt>
<trkpt lat="42.183523" lon="23.588449"><ele>2729</ele><time>2026-04-05T11:40:17.000Z</time></trkpt>
<trkpt lat="42.183523" lon="23.588449"><ele>2729</ele><time>2026-04-05T11:40:18.000Z</time></trkpt>
<trkpt lat="42.183523" lon="23.588448"><ele>2729</ele><time>2026-04-05T11:40:19.000Z</time></trkpt>
<trkpt lat="42.183523" lon="23.588448"><ele>2729</ele><time>2026-04-05T11:40:20.000Z</time></trkpt>
<trkpt lat="42.183523" lon="23.588448"><ele>2729</ele><time>2026-04-05T11:40:21.000Z</time></trkpt>
<trkpt lat="42.183523" lon="23.588447"><ele>2729</ele><time>2026-04-05T11:40:22.000Z</time></trkpt>
<trkpt lat="42.183523" lon="23.588447"><ele>2729</ele><time>2026-04-05T11:40:23.000Z</time></trkpt>
<trkpt lat="42.183523" lon="23.588447"><ele>2729</ele><time>2026-04-05T11:40:24.000Z</time></trkpt>
<trkpt lat="42.183523" lon="23.588447"><ele>2729</ele><time>2026-04-05T11:40:25.000Z</time></trkpt>
<trkpt lat="42.183523" lon="23.588447"><ele>2729</ele><time>2026-04-05T11:40:26.000Z</time></trkpt>
<trkpt lat="42.183524" lon="23.588446"><ele>2728.9</ele><time>2026-04-05T11:40:27.000Z</time></trkpt>
<trkpt lat="42.183524" lon="23.588445"><ele>2728.9</ele><time>2026-04-05T11:40:28.000Z</time></trkpt>
<trkpt lat="42.183524" lon="23.588444"><ele>2728.9</ele><time>2026-04-05T11:40:29.000Z</time></trkpt>
<trkpt lat="42.183525" lon="23.588444"><ele>2728.9</ele><time>2026-04-05T11:40:30.000Z</time></trkpt>
<trkpt lat="42.183525" lon="23.588444"><ele>2728.9</ele><time>2026-04-05T11:40:31.000Z</time></trkpt>
<trkpt lat="42.183526" lon="23.588444"><ele>2729</ele><time>2026-04-05T11:40:32.000Z</time></trkpt>
<trkpt lat="42.183526" lon="23.588444"><ele>2729</ele><time>2026-04-05T11:40:33.000Z</time></trkpt>
<trkpt lat="42.183527" lon="23.588445"><ele>2729</ele><time>2026-04-05T11:40:34.000Z</time></trkpt>
<trkpt lat="42.183527" lon="23.588445"><ele>2729</ele><time>2026-04-05T11:40:35.000Z</time></trkpt>
<trkpt lat="42.183527" lon="23.588446"><ele>2729</ele><time>2026-04-05T11:40:36.000Z</time></trkpt>
<trkpt lat="42.183528" lon="23.588446"><ele>2729</ele><time>2026-04-05T11:40:37.000Z</time></trkpt>
<trkpt lat="42.183528" lon="23.588447"><ele>2729</ele><time>2026-04-05T11:40:38.000Z</time></trkpt>
<trkpt lat="42.183528" lon="23.588447"><ele>2729</ele><time>2026-04-05T11:40:39.000Z</time></trkpt>
<trkpt lat="42.183529" lon="23.588447"><ele>2729</ele><time>2026-04-05T11:40:40.000Z</time></trkpt>
<trkpt lat="42.183529" lon="23.588448"><ele>2729</ele><time>2026-04-05T11:40:41.000Z</time></trkpt>
<trkpt lat="42.183529" lon="23.588449"><ele>2729.1</ele><time>2026-04-05T11:40:42.000Z</time></trkpt>
<trkpt lat="42.183529" lon="23.588449"><ele>2729.1</ele><time>2026-04-05T11:40:43.000Z</time></trkpt>
<trkpt lat="42.183529" lon="23.58845"><ele>2729.1</ele><time>2026-04-05T11:40:44.000Z</time></trkpt>
<trkpt lat="42.183528" lon="23.58845"><ele>2729.1</ele><time>2026-04-05T11:40:45.000Z</time></trkpt>
<trkpt lat="42.183527" lon="23.58845"><ele>2729.1</ele><time>2026-04-05T11:40:46.000Z</time></trkpt>
<trkpt lat="42.183527" lon="23.588451"><ele>2729.2</ele><time>2026-04-05T11:40:47.000Z</time></trkpt>
<trkpt lat="42.183527" lon="23.588451"><ele>2729.2</ele><time>2026-04-05T11:40:48.000Z</time></trkpt>
<trkpt lat="42.183527" lon="23.588452"><ele>2729.2</ele><time>2026-04-05T11:40:49.000Z</time></trkpt>
<trkpt lat="42.183527" lon="23.588453"><ele>2729.2</ele><time>2026-04-05T11:40:50.000Z</time></trkpt>
<trkpt lat="42.183528" lon="23.588454"><ele>2729.2</ele><time>2026-04-05T11:40:51.000Z</time></trkpt>
<trkpt lat="42.183528" lon="23.588453"><ele>2729.2</ele><time>2026-04-05T11:40:52.000Z</time></trkpt>
<trkpt lat="42.183528" lon="23.588452"><ele>2729.2</ele><time>2026-04-05T11:40:53.000Z</time></trkpt>
<trkpt lat="42.183528" lon="23.588451"><ele>2729.2</ele><time>2026-04-05T11:40:54.000Z</time></trkpt>
<trkpt lat="42.183528" lon="23.58845"><ele>2729.2</ele><time>2026-04-05T11:40:55.000Z</time></trkpt>
<trkpt lat="42.183528" lon="23.588449"><ele>2729.2</ele><time>2026-04-05T11:40:56.000Z</time></trkpt>
<trkpt lat="42.183528" lon="23.588449"><ele>2729.3</ele><time>2026-04-05T11:40:57.000Z</time></trkpt>
<trkpt lat="42.183527" lon="23.58845"><ele>2729.3</ele><time>2026-04-05T11:40:58.000Z</time></trkpt>
<trkpt lat="42.183527" lon="23.58845"><ele>2729.3</ele><time>2026-04-05T11:40:59.000Z</time></trkpt>
<trkpt lat="42.183527" lon="23.58845"><ele>2729.3</ele><time>2026-04-05T11:41:00.000Z</time></trkpt>
<trkpt lat="42.183527" lon="23.588449"><ele>2729.3</ele><time>2026-04-05T11:41:01.000Z</time></trkpt>
<trkpt lat="42.183526" lon="23.588448"><ele>2729.5</ele><time>2026-04-05T11:41:02.000Z</time></trkpt>
<trkpt lat="42.183526" lon="23.588447"><ele>2729.5</ele><time>2026-04-05T11:41:03.000Z</time></trkpt>
<trkpt lat="42.183526" lon="23.588446"><ele>2729.5</ele><time>2026-04-05T11:41:04.000Z</time></trkpt>
<trkpt lat="42.183526" lon="23.588446"><ele>2729.5</ele><time>2026-04-05T11:41:05.000Z</time></trkpt>
<trkpt lat="42.183526" lon="23.588445"><ele>2729.5</ele><time>2026-04-05T11:41:06.000Z</time></trkpt>
<trkpt lat="42.183526" lon="23.588445"><ele>2729.7</ele><time>2026-04-05T11:41:07.000Z</time></trkpt>
<trkpt lat="42.183526" lon="23.588445"><ele>2729.7</ele><time>2026-04-05T11:41:08.000Z</time></trkpt>
<trkpt lat="42.183526" lon="23.588445"><ele>2729.7</ele><time>2026-04-05T11:41:09.000Z</time></trkpt>
<trkpt lat="42.183527" lon="23.588446"><ele>2729.7</ele><time>2026-04-05T11:41:10.000Z</time></trkpt>
<trkpt lat="42.183528" lon="23.588447"><ele>2729.7</ele><time>2026-04-05T11:41:11.000Z</time></trkpt>
<trkpt lat="42.183529" lon="23.588448"><ele>2729.9</ele><time>2026-04-05T11:41:12.000Z</time></trkpt>
<trkpt lat="42.18353" lon="23.588449"><ele>2729.9</ele><time>2026-04-05T11:41:13.000Z</time></trkpt>
<trkpt lat="42.183531" lon="23.588449"><ele>2729.9</ele><time>2026-04-05T11:41:14.000Z</time></trkpt>
<trkpt lat="42.183531" lon="23.588449"><ele>2729.9</ele><time>2026-04-05T11:41:15.000Z</time></trkpt>
<trkpt lat="42.18353" lon="23.588448"><ele>2729.9</ele><time>2026-04-05T11:41:16.000Z</time></trkpt>
<trkpt lat="42.18353" lon="23.588448"><ele>2730</ele><time>2026-04-05T11:41:17.000Z</time></trkpt>
<trkpt lat="42.18353" lon="23.588448"><ele>2730</ele><time>2026-04-05T11:41:18.000Z</time></trkpt>
<trkpt lat="42.18353" lon="23.588448"><ele>2730</ele><time>2026-04-05T11:41:19.000Z</time></trkpt>
<trkpt lat="42.18353" lon="23.588448"><ele>2730</ele><time>2026-04-05T11:41:20.000Z</time></trkpt>
<trkpt lat="42.18353" lon="23.588448"><ele>2730</ele><time>2026-04-05T11:41:21.000Z</time></trkpt>
<trkpt lat="42.18353" lon="23.588448"><ele>2730.1</ele><time>2026-04-05T11:41:22.000Z</time></trkpt>
<trkpt lat="42.18353" lon="23.588448"><ele>2730.1</ele><time>2026-04-05T11:41:23.000Z</time></trkpt>
<trkpt lat="42.183531" lon="23.588447"><ele>2730.1</ele><time>2026-04-05T11:41:24.000Z</time></trkpt>
<trkpt lat="42.183531" lon="23.588446"><ele>2730.1</ele><time>2026-04-05T11:41:25.000Z</time></trkpt>
<trkpt lat="42.183531" lon="23.588444"><ele>2730.1</ele><time>2026-04-05T11:41:26.000Z</time></trkpt>
<trkpt lat="42.183531" lon="23.588443"><ele>2730.4</ele><time>2026-04-05T11:41:27.000Z</time></trkpt>
<trkpt lat="42.183531" lon="23.588441"><ele>2730.4</ele><time>2026-04-05T11:41:28.000Z</time></trkpt>
<trkpt lat="42.183531" lon="23.588441"><ele>2730.4</ele><time>2026-04-05T11:41:29.000Z</time></trkpt>
<trkpt lat="42.183531" lon="23.58844"><ele>2730.4</ele><time>2026-04-05T11:41:30.000Z</time></trkpt>
<trkpt lat="42.183531" lon="23.58844"><ele>2730.4</ele><time>2026-04-05T11:41:31.000Z</time></trkpt>
<trkpt lat="42.183532" lon="23.58844"><ele>2730.3</ele><time>2026-04-05T11:41:32.000Z</time></trkpt>
<trkpt lat="42.183531" lon="23.588439"><ele>2730.3</ele><time>2026-04-05T11:41:33.000Z</time></trkpt>
<trkpt lat="42.183531" lon="23.588439"><ele>2730.3</ele><time>2026-04-05T11:41:34.000Z</time></trkpt>
<trkpt lat="42.183531" lon="23.588439"><ele>2730.3</ele><time>2026-04-05T11:41:35.000Z</time></trkpt>
<trkpt lat="42.183531" lon="23.588438"><ele>2730.3</ele><time>2026-04-05T11:41:36.000Z</time></trkpt>
<trkpt lat="42.183531" lon="23.588438"><ele>2730.3</ele><time>2026-04-05T11:41:37.000Z</time></trkpt>
<trkpt lat="42.183531" lon="23.588438"><ele>2730.3</ele><time>2026-04-05T11:41:38.000Z</time></trkpt>
<trkpt lat="42.183531" lon="23.588438"><ele>2730.3</ele><time>2026-04-05T11:41:39.000Z</time></trkpt>
<trkpt lat="42.183531" lon="23.588438"><ele>2730.3</ele><time>2026-04-05T11:41:40.000Z</time></trkpt>
<trkpt lat="42.183531" lon="23.588438"><ele>2730.3</ele><time>2026-04-05T11:41:41.000Z</time></trkpt>
<trkpt lat="42.183531" lon="23.588438"><ele>2730.2</ele><time>2026-04-05T11:41:42.000Z</time></trkpt>
<trkpt lat="42.183531" lon="23.588438"><ele>2730.2</ele><time>2026-04-05T11:41:43.000Z</time></trkpt>
<trkpt lat="42.183531" lon="23.588438"><ele>2730.2</ele><time>2026-04-05T11:41:44.000Z</time></trkpt>
<trkpt lat="42.183531" lon="23.588438"><ele>2730.2</ele><time>2026-04-05T11:41:45.000Z</time></trkpt>
<trkpt lat="42.183531" lon="23.588438"><ele>2730.2</ele><time>2026-04-05T11:41:46.000Z</time></trkpt>
<trkpt lat="42.183531" lon="23.588438"><ele>2730.5</ele><time>2026-04-05T11:41:47.000Z</time></trkpt>
<trkpt lat="42.183531" lon="23.588439"><ele>2730.5</ele><time>2026-04-05T11:41:48.000Z</time></trkpt>
<trkpt lat="42.183531" lon="23.588439"><ele>2730.5</ele><time>2026-04-05T11:41:49.000Z</time></trkpt>
<trkpt lat="42.183531" lon="23.58844"><ele>2730.5</ele><time>2026-04-05T11:41:50.000Z</time></trkpt>
<trkpt lat="42.183531" lon="23.588441"><ele>2730.5</ele><time>2026-04-05T11:41:51.000Z</time></trkpt>
<trkpt lat="42.183532" lon="23.588442"><ele>2730.6</ele><time>2026-04-05T11:41:52.000Z</time></trkpt>
<trkpt lat="42.183532" lon="23.588443"><ele>2730.6</ele><time>2026-04-05T11:41:53.000Z</time></trkpt>
<trkpt lat="42.183532" lon="23.588444"><ele>2730.6</ele><time>2026-04-05T11:41:54.000Z</time></trkpt>
<trkpt lat="42.183531" lon="23.588445"><ele>2730.6</ele><time>2026-04-05T11:41:55.000Z</time></trkpt>
<trkpt lat="42.183531" lon="23.588446"><ele>2730.6</ele><time>2026-04-05T11:41:56.000Z</time></trkpt>
<trkpt lat="42.183531" lon="23.588447"><ele>2730.6</ele><time>2026-04-05T11:41:57.000Z</time></trkpt>
<trkpt lat="42.18353" lon="23.588448"><ele>2730.6</ele><time>2026-04-05T11:41:58.000Z</time></trkpt>
<trkpt lat="42.18353" lon="23.588449"><ele>2730.6</ele><time>2026-04-05T11:41:59.000Z</time></trkpt>
<trkpt lat="42.18353" lon="23.588449"><ele>2730.6</ele><time>2026-04-05T11:42:00.000Z</time></trkpt>
<trkpt lat="42.18353" lon="23.588449"><ele>2730.6</ele><time>2026-04-05T11:42:01.000Z</time></trkpt>
<trkpt lat="42.18353" lon="23.588449"><ele>2730.5</ele><time>2026-04-05T11:42:02.000Z</time></trkpt>
<trkpt lat="42.18353" lon="23.588449"><ele>2730.5</ele><time>2026-04-05T11:42:03.000Z</time></trkpt>
<trkpt lat="42.18353" lon="23.588449"><ele>2730.5</ele><time>2026-04-05T11:42:04.000Z</time></trkpt>
<trkpt lat="42.18353" lon="23.588449"><ele>2730.5</ele><time>2026-04-05T11:42:05.000Z</time></trkpt>
<trkpt lat="42.183531" lon="23.588449"><ele>2730.5</ele><time>2026-04-05T11:42:06.000Z</time></trkpt>
<trkpt lat="42.183531" lon="23.588449"><ele>2730.5</ele><time>2026-04-05T11:42:07.000Z</time></trkpt>
<trkpt lat="42.183532" lon="23.588449"><ele>2730.5</ele><time>2026-04-05T11:42:08.000Z</time></trkpt>
<trkpt lat="42.183533" lon="23.58845"><ele>2730.5</ele><time>2026-04-05T11:42:09.000Z</time></trkpt>
<trkpt lat="42.183534" lon="23.588451"><ele>2730.5</ele><time>2026-04-05T11:42:10.000Z</time></trkpt>
<trkpt lat="42.183534" lon="23.588451"><ele>2730.5</ele><time>2026-04-05T11:42:11.000Z</time></trkpt>
<trkpt lat="42.183534" lon="23.588451"><ele>2730.6</ele><time>2026-04-05T11:42:12.000Z</time></trkpt>
<trkpt lat="42.183535" lon="23.588451"><ele>2730.6</ele><time>2026-04-05T11:42:13.000Z</time></trkpt>
<trkpt lat="42.183535" lon="23.58845"><ele>2730.6</ele><time>2026-04-05T11:42:14.000Z</time></trkpt>
<trkpt lat="42.183536" lon="23.58845"><ele>2730.6</ele><time>2026-04-05T11:42:15.000Z</time></trkpt>
<trkpt lat="42.183539" lon="23.588451"><ele>2730.6</ele><time>2026-04-05T11:42:16.000Z</time></trkpt>
<trkpt lat="42.183542" lon="23.588453"><ele>2730.6</ele><time>2026-04-05T11:42:17.000Z</time></trkpt>
<trkpt lat="42.183546" lon="23.588456"><ele>2730.6</ele><time>2026-04-05T11:42:18.000Z</time></trkpt>
<trkpt lat="42.183549" lon="23.58846"><ele>2730.6</ele><time>2026-04-05T11:42:19.000Z</time></trkpt>
<trkpt lat="42.183552" lon="23.588464"><ele>2730.6</ele><time>2026-04-05T11:42:20.000Z</time></trkpt>
<trkpt lat="42.183555" lon="23.58847"><ele>2730.6</ele><time>2026-04-05T11:42:21.000Z</time></trkpt>
<trkpt lat="42.183558" lon="23.588477"><ele>2730.6</ele><time>2026-04-05T11:42:22.000Z</time></trkpt>
<trkpt lat="42.183562" lon="23.588485"><ele>2730.6</ele><time>2026-04-05T11:42:23.000Z</time></trkpt>
<trkpt lat="42.183567" lon="23.588493"><ele>2730.6</ele><time>2026-04-05T11:42:24.000Z</time></trkpt>
<trkpt lat="42.183571" lon="23.588502"><ele>2730.6</ele><time>2026-04-05T11:42:25.000Z</time></trkpt>
<trkpt lat="42.183577" lon="23.588509"><ele>2730.6</ele><time>2026-04-05T11:42:26.000Z</time></trkpt>
<trkpt lat="42.18358" lon="23.588514"><ele>2730.4</ele><time>2026-04-05T11:42:27.000Z</time></trkpt>
<trkpt lat="42.183583" lon="23.588519"><ele>2730.4</ele><time>2026-04-05T11:42:28.000Z</time></trkpt>
<trkpt lat="42.183585" lon="23.588523"><ele>2730.4</ele><time>2026-04-05T11:42:29.000Z</time></trkpt>
<trkpt lat="42.183586" lon="23.588526"><ele>2730.4</ele><time>2026-04-05T11:42:30.000Z</time></trkpt>
<trkpt lat="42.183588" lon="23.588529"><ele>2730.4</ele><time>2026-04-05T11:42:31.000Z</time></trkpt>
<trkpt lat="42.183591" lon="23.588533"><ele>2729.9</ele><time>2026-04-05T11:42:32.000Z</time></trkpt>
<trkpt lat="42.183595" lon="23.588538"><ele>2729.9</ele><time>2026-04-05T11:42:33.000Z</time></trkpt>
<trkpt lat="42.183599" lon="23.588543"><ele>2729.9</ele><time>2026-04-05T11:42:34.000Z</time></trkpt>
<trkpt lat="42.183604" lon="23.588547"><ele>2729.9</ele><time>2026-04-05T11:42:35.000Z</time></trkpt>
<trkpt lat="42.183608" lon="23.588549"><ele>2729.9</ele><time>2026-04-05T11:42:36.000Z</time></trkpt>
<trkpt lat="42.183614" lon="23.588551"><ele>2729.5</ele><time>2026-04-05T11:42:37.000Z</time></trkpt>
<trkpt lat="42.183621" lon="23.588553"><ele>2729.5</ele><time>2026-04-05T11:42:38.000Z</time></trkpt>
<trkpt lat="42.183627" lon="23.588554"><ele>2729.5</ele><time>2026-04-05T11:42:39.000Z</time></trkpt>
<trkpt lat="42.183633" lon="23.588556"><ele>2729.5</ele><time>2026-04-05T11:42:40.000Z</time></trkpt>
<trkpt lat="42.183638" lon="23.588559"><ele>2729.5</ele><time>2026-04-05T11:42:41.000Z</time></trkpt>
<trkpt lat="42.18364" lon="23.588561"><ele>2728.7</ele><time>2026-04-05T11:42:42.000Z</time></trkpt>
<trkpt lat="42.183642" lon="23.588562"><ele>2728.7</ele><time>2026-04-05T11:42:43.000Z</time></trkpt>
<trkpt lat="42.183643" lon="23.588564"><ele>2728.7</ele><time>2026-04-05T11:42:44.000Z</time></trkpt>
<trkpt lat="42.183644" lon="23.588564"><ele>2728.7</ele><time>2026-04-05T11:42:45.000Z</time></trkpt>
<trkpt lat="42.183645" lon="23.588564"><ele>2728.7</ele><time>2026-04-05T11:42:46.000Z</time></trkpt>
<trkpt lat="42.183645" lon="23.588564"><ele>2728</ele><time>2026-04-05T11:42:47.000Z</time></trkpt>
<trkpt lat="42.183645" lon="23.588563"><ele>2728</ele><time>2026-04-05T11:42:48.000Z</time></trkpt>
<trkpt lat="42.183645" lon="23.588563"><ele>2728</ele><time>2026-04-05T11:42:49.000Z</time></trkpt>
<trkpt lat="42.183645" lon="23.588562"><ele>2728</ele><time>2026-04-05T11:42:50.000Z</time></trkpt>
<trkpt lat="42.183646" lon="23.588563"><ele>2728</ele><time>2026-04-05T11:42:51.000Z</time></trkpt>
<trkpt lat="42.183648" lon="23.588565"><ele>2727.8</ele><time>2026-04-05T11:42:52.000Z</time></trkpt>
<trkpt lat="42.183648" lon="23.58857"><ele>2727.8</ele><time>2026-04-05T11:42:53.000Z</time></trkpt>
<trkpt lat="42.183648" lon="23.588576"><ele>2727.8</ele><time>2026-04-05T11:42:54.000Z</time></trkpt>
<trkpt lat="42.183648" lon="23.588585"><ele>2727.8</ele><time>2026-04-05T11:42:55.000Z</time></trkpt>
<trkpt lat="42.183647" lon="23.588596"><ele>2727.8</ele><time>2026-04-05T11:42:56.000Z</time></trkpt>
<trkpt lat="42.183645" lon="23.588607"><ele>2727.5</ele><time>2026-04-05T11:42:57.000Z</time></trkpt>
<trkpt lat="42.183644" lon="23.588616"><ele>2727.5</ele><time>2026-04-05T11:42:58.000Z</time></trkpt>
<trkpt lat="42.183642" lon="23.588626"><ele>2727.5</ele><time>2026-04-05T11:42:59.000Z</time></trkpt>
<trkpt lat="42.183641" lon="23.588636"><ele>2727.5</ele><time>2026-04-05T11:43:00.000Z</time></trkpt>
<trkpt lat="42.183639" lon="23.588645"><ele>2727.5</ele><time>2026-04-05T11:43:01.000Z</time></trkpt>
<trkpt lat="42.183637" lon="23.588655"><ele>2727.2</ele><time>2026-04-05T11:43:02.000Z</time></trkpt>
<trkpt lat="42.183635" lon="23.588665"><ele>2727.2</ele><time>2026-04-05T11:43:03.000Z</time></trkpt>
<trkpt lat="42.183634" lon="23.588675"><ele>2727.2</ele><time>2026-04-05T11:43:04.000Z</time></trkpt>
<trkpt lat="42.183634" lon="23.588686"><ele>2727.2</ele><time>2026-04-05T11:43:05.000Z</time></trkpt>
<trkpt lat="42.183633" lon="23.588696"><ele>2727.2</ele><time>2026-04-05T11:43:06.000Z</time></trkpt>
<trkpt lat="42.183635" lon="23.588708"><ele>2726.9</ele><time>2026-04-05T11:43:07.000Z</time></trkpt>
<trkpt lat="42.183636" lon="23.588719"><ele>2726.9</ele><time>2026-04-05T11:43:08.000Z</time></trkpt>
<trkpt lat="42.183639" lon="23.58873"><ele>2726.9</ele><time>2026-04-05T11:43:09.000Z</time></trkpt>
<trkpt lat="42.183643" lon="23.588741"><ele>2726.9</ele><time>2026-04-05T11:43:10.000Z</time></trkpt>
<trkpt lat="42.183648" lon="23.588753"><ele>2726.9</ele><time>2026-04-05T11:43:11.000Z</time></trkpt>
<trkpt lat="42.183653" lon="23.588764"><ele>2726</ele><time>2026-04-05T11:43:12.000Z</time></trkpt>
<trkpt lat="42.183659" lon="23.588776"><ele>2726</ele><time>2026-04-05T11:43:13.000Z</time></trkpt>
<trkpt lat="42.183665" lon="23.588789"><ele>2726</ele><time>2026-04-05T11:43:14.000Z</time></trkpt>
<trkpt lat="42.18367" lon="23.588801"><ele>2726</ele><time>2026-04-05T11:43:15.000Z</time></trkpt>
<trkpt lat="42.183675" lon="23.588812"><ele>2726</ele><time>2026-04-05T11:43:16.000Z</time></trkpt>
<trkpt lat="42.18368" lon="23.588822"><ele>2724.7</ele><time>2026-04-05T11:43:17.000Z</time></trkpt>
<trkpt lat="42.183684" lon="23.588832"><ele>2724.7</ele><time>2026-04-05T11:43:18.000Z</time></trkpt>
<trkpt lat="42.183688" lon="23.588841"><ele>2724.7</ele><time>2026-04-05T11:43:19.000Z</time></trkpt>
<trkpt lat="42.183694" lon="23.58885"><ele>2724.7</ele><time>2026-04-05T11:43:20.000Z</time></trkpt>
<trkpt lat="42.1837" lon="23.588858"><ele>2724.7</ele><time>2026-04-05T11:43:21.000Z</time></trkpt>
<trkpt lat="42.183706" lon="23.588866"><ele>2723.9</ele><time>2026-04-05T11:43:22.000Z</time></trkpt>
<trkpt lat="42.183712" lon="23.588873"><ele>2723.9</ele><time>2026-04-05T11:43:23.000Z</time></trkpt>
<trkpt lat="42.183717" lon="23.58888"><ele>2723.9</ele><time>2026-04-05T11:43:24.000Z</time></trkpt>
<trkpt lat="42.183721" lon="23.588889"><ele>2723.9</ele><time>2026-04-05T11:43:25.000Z</time></trkpt>
<trkpt lat="42.183726" lon="23.588897"><ele>2723.9</ele><time>2026-04-05T11:43:26.000Z</time></trkpt>
<trkpt lat="42.183731" lon="23.588906"><ele>2722.2</ele><time>2026-04-05T11:43:27.000Z</time></trkpt>
<trkpt lat="42.183737" lon="23.588916"><ele>2722.2</ele><time>2026-04-05T11:43:28.000Z</time></trkpt>
<trkpt lat="42.183744" lon="23.588923"><ele>2722.2</ele><time>2026-04-05T11:43:29.000Z</time></trkpt>
<trkpt lat="42.18375" lon="23.588929"><ele>2722.2</ele><time>2026-04-05T11:43:30.000Z</time></trkpt>
<trkpt lat="42.183756" lon="23.588935"><ele>2722.2</ele><time>2026-04-05T11:43:31.000Z</time></trkpt>
<trkpt lat="42.183762" lon="23.588942"><ele>2720.4</ele><time>2026-04-05T11:43:32.000Z</time></trkpt>
<trkpt lat="42.183768" lon="23.588949"><ele>2720.4</ele><time>2026-04-05T11:43:33.000Z</time></trkpt>
<trkpt lat="42.183773" lon="23.588958"><ele>2720.4</ele><time>2026-04-05T11:43:34.000Z</time></trkpt>
<trkpt lat="42.183781" lon="23.588968"><ele>2720.4</ele><time>2026-04-05T11:43:35.000Z</time></trkpt>
<trkpt lat="42.183789" lon="23.588977"><ele>2720.4</ele><time>2026-04-05T11:43:36.000Z</time></trkpt>
<trkpt lat="42.183799" lon="23.588985"><ele>2719.6</ele><time>2026-04-05T11:43:37.000Z</time></trkpt>
<trkpt lat="42.183808" lon="23.588992"><ele>2719.6</ele><time>2026-04-05T11:43:38.000Z</time></trkpt>
<trkpt lat="42.183818" lon="23.588996"><ele>2719.6</ele><time>2026-04-05T11:43:39.000Z</time></trkpt>
<trkpt lat="42.183828" lon="23.589"><ele>2719.6</ele><time>2026-04-05T11:43:40.000Z</time></trkpt>
<trkpt lat="42.183838" lon="23.589002"><ele>2719.6</ele><time>2026-04-05T11:43:41.000Z</time></trkpt>
<trkpt lat="42.183847" lon="23.589003"><ele>2718.1</ele><time>2026-04-05T11:43:42.000Z</time></trkpt>
<trkpt lat="42.183856" lon="23.589004"><ele>2718.1</ele><time>2026-04-05T11:43:43.000Z</time></trkpt>
<trkpt lat="42.183863" lon="23.589004"><ele>2718.1</ele><time>2026-04-05T11:43:44.000Z</time></trkpt>
<trkpt lat="42.183871" lon="23.589004"><ele>2718.1</ele><time>2026-04-05T11:43:45.000Z</time></trkpt>
<trkpt lat="42.18388" lon="23.589005"><ele>2718.1</ele><time>2026-04-05T11:43:46.000Z</time></trkpt>
<trkpt lat="42.183889" lon="23.589005"><ele>2716.7</ele><time>2026-04-05T11:43:47.000Z</time></trkpt>
<trkpt lat="42.183898" lon="23.589005"><ele>2716.7</ele><time>2026-04-05T11:43:48.000Z</time></trkpt>
<trkpt lat="42.183908" lon="23.589005"><ele>2716.7</ele><time>2026-04-05T11:43:49.000Z</time></trkpt>
<trkpt lat="42.183917" lon="23.589005"><ele>2716.7</ele><time>2026-04-05T11:43:50.000Z</time></trkpt>
<trkpt lat="42.183924" lon="23.589005"><ele>2716.7</ele><time>2026-04-05T11:43:51.000Z</time></trkpt>
<trkpt lat="42.183932" lon="23.589006"><ele>2716</ele><time>2026-04-05T11:43:52.000Z</time></trkpt>
<trkpt lat="42.18394" lon="23.589008"><ele>2716</ele><time>2026-04-05T11:43:53.000Z</time></trkpt>
<trkpt lat="42.183947" lon="23.58901"><ele>2716</ele><time>2026-04-05T11:43:54.000Z</time></trkpt>
<trkpt lat="42.183955" lon="23.589013"><ele>2716</ele><time>2026-04-05T11:43:55.000Z</time></trkpt>
<trkpt lat="42.183966" lon="23.589017"><ele>2716</ele><time>2026-04-05T11:43:56.000Z</time></trkpt>
<trkpt lat="42.183977" lon="23.58902"><ele>2714.8</ele><time>2026-04-05T11:43:57.000Z</time></trkpt>
<trkpt lat="42.183988" lon="23.589023"><ele>2714.8</ele><time>2026-04-05T11:43:58.000Z</time></trkpt>
<trkpt lat="42.183999" lon="23.589025"><ele>2714.8</ele><time>2026-04-05T11:43:59.000Z</time></trkpt>
<trkpt lat="42.184009" lon="23.589029"><ele>2714.8</ele><time>2026-04-05T11:44:00.000Z</time></trkpt>
<trkpt lat="42.184019" lon="23.589032"><ele>2714.8</ele><time>2026-04-05T11:44:01.000Z</time></trkpt>
<trkpt lat="42.184029" lon="23.589035"><ele>2713.6</ele><time>2026-04-05T11:44:02.000Z</time></trkpt>
<trkpt lat="42.184038" lon="23.589037"><ele>2713.6</ele><time>2026-04-05T11:44:03.000Z</time></trkpt>
<trkpt lat="42.184047" lon="23.58904"><ele>2713.6</ele><time>2026-04-05T11:44:04.000Z</time></trkpt>
<trkpt lat="42.184057" lon="23.589041"><ele>2713.6</ele><time>2026-04-05T11:44:05.000Z</time></trkpt>
<trkpt lat="42.184066" lon="23.589043"><ele>2713.6</ele><time>2026-04-05T11:44:06.000Z</time></trkpt>
<trkpt lat="42.184076" lon="23.589045"><ele>2712.9</ele><time>2026-04-05T11:44:07.000Z</time></trkpt>
<trkpt lat="42.184086" lon="23.589049"><ele>2712.9</ele><time>2026-04-05T11:44:08.000Z</time></trkpt>
<trkpt lat="42.184098" lon="23.589053"><ele>2712.9</ele><time>2026-04-05T11:44:09.000Z</time></trkpt>
<trkpt lat="42.184109" lon="23.589058"><ele>2712.9</ele><time>2026-04-05T11:44:10.000Z</time></trkpt>
<trkpt lat="42.184121" lon="23.589062"><ele>2712.9</ele><time>2026-04-05T11:44:11.000Z</time></trkpt>
<trkpt lat="42.184132" lon="23.589066"><ele>2711.5</ele><time>2026-04-05T11:44:12.000Z</time></trkpt>
<trkpt lat="42.184143" lon="23.589069"><ele>2711.5</ele><time>2026-04-05T11:44:13.000Z</time></trkpt>
<trkpt lat="42.184155" lon="23.589072"><ele>2711.5</ele><time>2026-04-05T11:44:14.000Z</time></trkpt>
<trkpt lat="42.184166" lon="23.589076"><ele>2711.5</ele><time>2026-04-05T11:44:15.000Z</time></trkpt>
<trkpt lat="42.184176" lon="23.589078"><ele>2711.5</ele><time>2026-04-05T11:44:16.000Z</time></trkpt>
<trkpt lat="42.184187" lon="23.589082"><ele>2709.9</ele><time>2026-04-05T11:44:17.000Z</time></trkpt>
<trkpt lat="42.184198" lon="23.589084"><ele>2709.9</ele><time>2026-04-05T11:44:18.000Z</time></trkpt>
<trkpt lat="42.184209" lon="23.589086"><ele>2709.9</ele><time>2026-04-05T11:44:19.000Z</time></trkpt>
<trkpt lat="42.18422" lon="23.589088"><ele>2709.9</ele><time>2026-04-05T11:44:20.000Z</time></trkpt>
<trkpt lat="42.18423" lon="23.589089"><ele>2709.9</ele><time>2026-04-05T11:44:21.000Z</time></trkpt>
<trkpt lat="42.18424" lon="23.589091"><ele>2709</ele><time>2026-04-05T11:44:22.000Z</time></trkpt>
<trkpt lat="42.18425" lon="23.589092"><ele>2709</ele><time>2026-04-05T11:44:23.000Z</time></trkpt>
<trkpt lat="42.184259" lon="23.589094"><ele>2709</ele><time>2026-04-05T11:44:24.000Z</time></trkpt>
<trkpt lat="42.184268" lon="23.589098"><ele>2709</ele><time>2026-04-05T11:44:25.000Z</time></trkpt>
<trkpt lat="42.184278" lon="23.589103"><ele>2709</ele><time>2026-04-05T11:44:26.000Z</time></trkpt>
<trkpt lat="42.184288" lon="23.589108"><ele>2707</ele><time>2026-04-05T11:44:27.000Z</time></trkpt>
<trkpt lat="42.184299" lon="23.589112"><ele>2707</ele><time>2026-04-05T11:44:28.000Z</time></trkpt>
<trkpt lat="42.184311" lon="23.589117"><ele>2707</ele><time>2026-04-05T11:44:29.000Z</time></trkpt>
<trkpt lat="42.184323" lon="23.58912"><ele>2707</ele><time>2026-04-05T11:44:30.000Z</time></trkpt>
<trkpt lat="42.184334" lon="23.589124"><ele>2707</ele><time>2026-04-05T11:44:31.000Z</time></trkpt>
<trkpt lat="42.184347" lon="23.589129"><ele>2705.4</ele><time>2026-04-05T11:44:32.000Z</time></trkpt>
<trkpt lat="42.184357" lon="23.589135"><ele>2705.4</ele><time>2026-04-05T11:44:33.000Z</time></trkpt>
<trkpt lat="42.184366" lon="23.589139"><ele>2705.4</ele><time>2026-04-05T11:44:34.000Z</time></trkpt>
<trkpt lat="42.184376" lon="23.589142"><ele>2705.4</ele><time>2026-04-05T11:44:35.000Z</time></trkpt>
<trkpt lat="42.184385" lon="23.589143"><ele>2705.4</ele><time>2026-04-05T11:44:36.000Z</time></trkpt>
<trkpt lat="42.184394" lon="23.589143"><ele>2704.8</ele><time>2026-04-05T11:44:37.000Z</time></trkpt>
<trkpt lat="42.184403" lon="23.589142"><ele>2704.8</ele><time>2026-04-05T11:44:38.000Z</time></trkpt>
<trkpt lat="42.184412" lon="23.589141"><ele>2704.8</ele><time>2026-04-05T11:44:39.000Z</time></trkpt>
<trkpt lat="42.18442" lon="23.589141"><ele>2704.8</ele><time>2026-04-05T11:44:40.000Z</time></trkpt>
<trkpt lat="42.184428" lon="23.589141"><ele>2704.8</ele><time>2026-04-05T11:44:41.000Z</time></trkpt>
<trkpt lat="42.184436" lon="23.58914"><ele>2703.6</ele><time>2026-04-05T11:44:42.000Z</time></trkpt>
<trkpt lat="42.184443" lon="23.589139"><ele>2703.6</ele><time>2026-04-05T11:44:43.000Z</time></trkpt>
<trkpt lat="42.18445" lon="23.58914"><ele>2703.6</ele><time>2026-04-05T11:44:44.000Z</time></trkpt>
<trkpt lat="42.184456" lon="23.589141"><ele>2703.6</ele><time>2026-04-05T11:44:45.000Z</time></trkpt>
<trkpt lat="42.184464" lon="23.589142"><ele>2703.6</ele><time>2026-04-05T11:44:46.000Z</time></trkpt>
<trkpt lat="42.184471" lon="23.589144"><ele>2702.1</ele><time>2026-04-05T11:44:47.000Z</time></trkpt>
<trkpt lat="42.18448" lon="23.589147"><ele>2702.1</ele><time>2026-04-05T11:44:48.000Z</time></trkpt>
<trkpt lat="42.184489" lon="23.589149"><ele>2702.1</ele><time>2026-04-05T11:44:49.000Z</time></trkpt>
<trkpt lat="42.184498" lon="23.589151"><ele>2702.1</ele><time>2026-04-05T11:44:50.000Z</time></trkpt>
<trkpt lat="42.184507" lon="23.589154"><ele>2702.1</ele><time>2026-04-05T11:44:51.000Z</time></trkpt>
<trkpt lat="42.184517" lon="23.589159"><ele>2701.2</ele><time>2026-04-05T11:44:52.000Z</time></trkpt>
<trkpt lat="42.184528" lon="23.589164"><ele>2701.2</ele><time>2026-04-05T11:44:53.000Z</time></trkpt>
<trkpt lat="42.184538" lon="23.58917"><ele>2701.2</ele><time>2026-04-05T11:44:54.000Z</time></trkpt>
<trkpt lat="42.184549" lon="23.589176"><ele>2701.2</ele><time>2026-04-05T11:44:55.000Z</time></trkpt>
<trkpt lat="42.184559" lon="23.589183"><ele>2701.2</ele><time>2026-04-05T11:44:56.000Z</time></trkpt>
<trkpt lat="42.18457" lon="23.589189"><ele>2699.3</ele><time>2026-04-05T11:44:57.000Z</time></trkpt>
<trkpt lat="42.18458" lon="23.589194"><ele>2699.3</ele><time>2026-04-05T11:44:58.000Z</time></trkpt>
<trkpt lat="42.18459" lon="23.589199"><ele>2699.3</ele><time>2026-04-05T11:44:59.000Z</time></trkpt>
<trkpt lat="42.1846" lon="23.589203"><ele>2699.3</ele><time>2026-04-05T11:45:00.000Z</time></trkpt>
<trkpt lat="42.184609" lon="23.589206"><ele>2699.3</ele><time>2026-04-05T11:45:01.000Z</time></trkpt>
<trkpt lat="42.184619" lon="23.589208"><ele>2697.6</ele><time>2026-04-05T11:45:02.000Z</time></trkpt>
<trkpt lat="42.184628" lon="23.589209"><ele>2697.6</ele><time>2026-04-05T11:45:03.000Z</time></trkpt>
<trkpt lat="42.184638" lon="23.58921"><ele>2697.6</ele><time>2026-04-05T11:45:04.000Z</time></trkpt>
<trkpt lat="42.184649" lon="23.589209"><ele>2697.6</ele><time>2026-04-05T11:45:05.000Z</time></trkpt>
<trkpt lat="42.18466" lon="23.589208"><ele>2697.6</ele><time>2026-04-05T11:45:06.000Z</time></trkpt>
<trkpt lat="42.18467" lon="23.589205"><ele>2697</ele><time>2026-04-05T11:45:07.000Z</time></trkpt>
<trkpt lat="42.184682" lon="23.589202"><ele>2697</ele><time>2026-04-05T11:45:08.000Z</time></trkpt>
<trkpt lat="42.184695" lon="23.589199"><ele>2697</ele><time>2026-04-05T11:45:09.000Z</time></trkpt>
<trkpt lat="42.184706" lon="23.589195"><ele>2697</ele><time>2026-04-05T11:45:10.000Z</time></trkpt>
<trkpt lat="42.184717" lon="23.589192"><ele>2697</ele><time>2026-04-05T11:45:11.000Z</time></trkpt>
<trkpt lat="42.184727" lon="23.589188"><ele>2695.8</ele><time>2026-04-05T11:45:12.000Z</time></trkpt>
<trkpt lat="42.184737" lon="23.589184"><ele>2695.8</ele><time>2026-04-05T11:45:13.000Z</time></trkpt>
<trkpt lat="42.184747" lon="23.589179"><ele>2695.8</ele><time>2026-04-05T11:45:14.000Z</time></trkpt>
<trkpt lat="42.184758" lon="23.589173"><ele>2695.8</ele><time>2026-04-05T11:45:15.000Z</time></trkpt>
<trkpt lat="42.18477" lon="23.589166"><ele>2695.8</ele><time>2026-04-05T11:45:16.000Z</time></trkpt>
<trkpt lat="42.184783" lon="23.589158"><ele>2694.4</ele><time>2026-04-05T11:45:17.000Z</time></trkpt>
<trkpt lat="42.184795" lon="23.58915"><ele>2694.4</ele><time>2026-04-05T11:45:18.000Z</time></trkpt>
<trkpt lat="42.184806" lon="23.589141"><ele>2694.4</ele><time>2026-04-05T11:45:19.000Z</time></trkpt>
<trkpt lat="42.184817" lon="23.589133"><ele>2694.4</ele><time>2026-04-05T11:45:20.000Z</time></trkpt>
<trkpt lat="42.184827" lon="23.589125"><ele>2694.4</ele><time>2026-04-05T11:45:21.000Z</time></trkpt>
<trkpt lat="42.184836" lon="23.589117"><ele>2693.6</ele><time>2026-04-05T11:45:22.000Z</time></trkpt>
<trkpt lat="42.184845" lon="23.589109"><ele>2693.6</ele><time>2026-04-05T11:45:23.000Z</time></trkpt>
<trkpt lat="42.184853" lon="23.589102"><ele>2693.6</ele><time>2026-04-05T11:45:24.000Z</time></trkpt>
<trkpt lat="42.184862" lon="23.589093"><ele>2693.6</ele><time>2026-04-05T11:45:25.000Z</time></trkpt>
<trkpt lat="42.184872" lon="23.589085"><ele>2693.6</ele><time>2026-04-05T11:45:26.000Z</time></trkpt>
<trkpt lat="42.184881" lon="23.589078"><ele>2691.7</ele><time>2026-04-05T11:45:27.000Z</time></trkpt>
<trkpt lat="42.18489" lon="23.589069"><ele>2691.7</ele><time>2026-04-05T11:45:28.000Z</time></trkpt>
<trkpt lat="42.184898" lon="23.589059"><ele>2691.7</ele><time>2026-04-05T11:45:29.000Z</time></trkpt>
<trkpt lat="42.184904" lon="23.589048"><ele>2691.7</ele><time>2026-04-05T11:45:30.000Z</time></trkpt>
<trkpt lat="42.18491" lon="23.589039"><ele>2691.7</ele><time>2026-04-05T11:45:31.000Z</time></trkpt>
<trkpt lat="42.184915" lon="23.589028"><ele>2689.6</ele><time>2026-04-05T11:45:32.000Z</time></trkpt>
<trkpt lat="42.18492" lon="23.589016"><ele>2689.6</ele><time>2026-04-05T11:45:33.000Z</time></trkpt>
<trkpt lat="42.184925" lon="23.589004"><ele>2689.6</ele><time>2026-04-05T11:45:34.000Z</time></trkpt>
<trkpt lat="42.184929" lon="23.588992"><ele>2689.6</ele><time>2026-04-05T11:45:35.000Z</time></trkpt>
<trkpt lat="42.184934" lon="23.588977"><ele>2689.6</ele><time>2026-04-05T11:45:36.000Z</time></trkpt>
<trkpt lat="42.184938" lon="23.588964"><ele>2688.6</ele><time>2026-04-05T11:45:37.000Z</time></trkpt>
<trkpt lat="42.184944" lon="23.588951"><ele>2688.6</ele><time>2026-04-05T11:45:38.000Z</time></trkpt>
<trkpt lat="42.184949" lon="23.588938"><ele>2688.6</ele><time>2026-04-05T11:45:39.000Z</time></trkpt>
<trkpt lat="42.184954" lon="23.588926"><ele>2688.6</ele><time>2026-04-05T11:45:40.000Z</time></trkpt>
<trkpt lat="42.184958" lon="23.588915"><ele>2688.6</ele><time>2026-04-05T11:45:41.000Z</time></trkpt>
<trkpt lat="42.184962" lon="23.588903"><ele>2686.5</ele><time>2026-04-05T11:45:42.000Z</time></trkpt>
<trkpt lat="42.184964" lon="23.58889"><ele>2686.5</ele><time>2026-04-05T11:45:43.000Z</time></trkpt>
<trkpt lat="42.184967" lon="23.588876"><ele>2686.5</ele><time>2026-04-05T11:45:44.000Z</time></trkpt>
<trkpt lat="42.18497" lon="23.588862"><ele>2686.5</ele><time>2026-04-05T11:45:45.000Z</time></trkpt>
<trkpt lat="42.184973" lon="23.588848"><ele>2686.5</ele><time>2026-04-05T11:45:46.000Z</time></trkpt>
<trkpt lat="42.184977" lon="23.588834"><ele>2684.3</ele><time>2026-04-05T11:45:47.000Z</time></trkpt>
<trkpt lat="42.184981" lon="23.588818"><ele>2684.3</ele><time>2026-04-05T11:45:48.000Z</time></trkpt>
<trkpt lat="42.184985" lon="23.588802"><ele>2684.3</ele><time>2026-04-05T11:45:49.000Z</time></trkpt>
<trkpt lat="42.184989" lon="23.588785"><ele>2684.3</ele><time>2026-04-05T11:45:50.000Z</time></trkpt>
<trkpt lat="42.184994" lon="23.588767"><ele>2684.3</ele><time>2026-04-05T11:45:51.000Z</time></trkpt>
<trkpt lat="42.184998" lon="23.588751"><ele>2683.2</ele><time>2026-04-05T11:45:52.000Z</time></trkpt>
<trkpt lat="42.185002" lon="23.588735"><ele>2683.2</ele><time>2026-04-05T11:45:53.000Z</time></trkpt>
<trkpt lat="42.185006" lon="23.58872"><ele>2683.2</ele><time>2026-04-05T11:45:54.000Z</time></trkpt>
<trkpt lat="42.185009" lon="23.588708"><ele>2683.2</ele><time>2026-04-05T11:45:55.000Z</time></trkpt>
<trkpt lat="42.185012" lon="23.588694"><ele>2683.2</ele><time>2026-04-05T11:45:56.000Z</time></trkpt>
<trkpt lat="42.185016" lon="23.588679"><ele>2681</ele><time>2026-04-05T11:45:57.000Z</time></trkpt>
<trkpt lat="42.18502" lon="23.588665"><ele>2681</ele><time>2026-04-05T11:45:58.000Z</time></trkpt>
<trkpt lat="42.185024" lon="23.588651"><ele>2681</ele><time>2026-04-05T11:45:59.000Z</time></trkpt>
<trkpt lat="42.185029" lon="23.588636"><ele>2681</ele><time>2026-04-05T11:46:00.000Z</time></trkpt>
<trkpt lat="42.185035" lon="23.588621"><ele>2681</ele><time>2026-04-05T11:46:01.000Z</time></trkpt>
<trkpt lat="42.18504" lon="23.588608"><ele>2678.9</ele><time>2026-04-05T11:46:02.000Z</time></trkpt>
<trkpt lat="42.185046" lon="23.588596"><ele>2678.9</ele><time>2026-04-05T11:46:03.000Z</time></trkpt>
<trkpt lat="42.185052" lon="23.588583"><ele>2678.9</ele><time>2026-04-05T11:46:04.000Z</time></trkpt>
<trkpt lat="42.185058" lon="23.588569"><ele>2678.9</ele><time>2026-04-05T11:46:05.000Z</time></trkpt>
<trkpt lat="42.185064" lon="23.588556"><ele>2678.9</ele><time>2026-04-05T11:46:06.000Z</time></trkpt>
<trkpt lat="42.18507" lon="23.588541"><ele>2678</ele><time>2026-04-05T11:46:07.000Z</time></trkpt>
<trkpt lat="42.185077" lon="23.588528"><ele>2678</ele><time>2026-04-05T11:46:08.000Z</time></trkpt>
<trkpt lat="42.185084" lon="23.588514"><ele>2678</ele><time>2026-04-05T11:46:09.000Z</time></trkpt>
<trkpt lat="42.185091" lon="23.588501"><ele>2678</ele><time>2026-04-05T11:46:10.000Z</time></trkpt>
<trkpt lat="42.185098" lon="23.588488"><ele>2678</ele><time>2026-04-05T11:46:11.000Z</time></trkpt>
<trkpt lat="42.185104" lon="23.588476"><ele>2676.1</ele><time>2026-04-05T11:46:12.000Z</time></trkpt>
<trkpt lat="42.18511" lon="23.588464"><ele>2676.1</ele><time>2026-04-05T11:46:13.000Z</time></trkpt>
<trkpt lat="42.185117" lon="23.588453"><ele>2676.1</ele><time>2026-04-05T11:46:14.000Z</time></trkpt>
<trkpt lat="42.185123" lon="23.588442"><ele>2676.1</ele><time>2026-04-05T11:46:15.000Z</time></trkpt>
<trkpt lat="42.185129" lon="23.588431"><ele>2676.1</ele><time>2026-04-05T11:46:16.000Z</time></trkpt>
<trkpt lat="42.185134" lon="23.58842"><ele>2674.1</ele><time>2026-04-05T11:46:17.000Z</time></trkpt>
<trkpt lat="42.185139" lon="23.58841"><ele>2674.1</ele><time>2026-04-05T11:46:18.000Z</time></trkpt>
<trkpt lat="42.185144" lon="23.588399"><ele>2674.1</ele><time>2026-04-05T11:46:19.000Z</time></trkpt>
<trkpt lat="42.185149" lon="23.588388"><ele>2674.1</ele><time>2026-04-05T11:46:20.000Z</time></trkpt>
<trkpt lat="42.185157" lon="23.588376"><ele>2674.1</ele><time>2026-04-05T11:46:21.000Z</time></trkpt>
<trkpt lat="42.185165" lon="23.588364"><ele>2673.1</ele><time>2026-04-05T11:46:22.000Z</time></trkpt>
<trkpt lat="42.185174" lon="23.588352"><ele>2673.1</ele><time>2026-04-05T11:46:23.000Z</time></trkpt>
<trkpt lat="42.185183" lon="23.588341"><ele>2673.1</ele><time>2026-04-05T11:46:24.000Z</time></trkpt>
<trkpt lat="42.185194" lon="23.588331"><ele>2673.1</ele><time>2026-04-05T11:46:25.000Z</time></trkpt>
<trkpt lat="42.185204" lon="23.588322"><ele>2673.1</ele><time>2026-04-05T11:46:26.000Z</time></trkpt>
<trkpt lat="42.185215" lon="23.588315"><ele>2671.1</ele><time>2026-04-05T11:46:27.000Z</time></trkpt>
<trkpt lat="42.185226" lon="23.588307"><ele>2671.1</ele><time>2026-04-05T11:46:28.000Z</time></trkpt>
<trkpt lat="42.185236" lon="23.588299"><ele>2671.1</ele><time>2026-04-05T11:46:29.000Z</time></trkpt>
<trkpt lat="42.185246" lon="23.588291"><ele>2671.1</ele><time>2026-04-05T11:46:30.000Z</time></trkpt>
<trkpt lat="42.185256" lon="23.588282"><ele>2671.1</ele><time>2026-04-05T11:46:31.000Z</time></trkpt>
<trkpt lat="42.185266" lon="23.588273"><ele>2669.3</ele><time>2026-04-05T11:46:32.000Z</time></trkpt>
<trkpt lat="42.185276" lon="23.588265"><ele>2669.3</ele><time>2026-04-05T11:46:33.000Z</time></trkpt>
<trkpt lat="42.185284" lon="23.588256"><ele>2669.3</ele><time>2026-04-05T11:46:34.000Z</time></trkpt>
<trkpt lat="42.185294" lon="23.588246"><ele>2669.3</ele><time>2026-04-05T11:46:35.000Z</time></trkpt>
<trkpt lat="42.185304" lon="23.588237"><ele>2669.3</ele><time>2026-04-05T11:46:36.000Z</time></trkpt>
<trkpt lat="42.185314" lon="23.588227"><ele>2668.5</ele><time>2026-04-05T11:46:37.000Z</time></trkpt>
<trkpt lat="42.185325" lon="23.588218"><ele>2668.5</ele><time>2026-04-05T11:46:38.000Z</time></trkpt>
<trkpt lat="42.185336" lon="23.588211"><ele>2668.5</ele><time>2026-04-05T11:46:39.000Z</time></trkpt>
<trkpt lat="42.185347" lon="23.588205"><ele>2668.5</ele><time>2026-04-05T11:46:40.000Z</time></trkpt>
<trkpt lat="42.185355" lon="23.588199"><ele>2668.5</ele><time>2026-04-05T11:46:41.000Z</time></trkpt>
<trkpt lat="42.185365" lon="23.588194"><ele>2667</ele><time>2026-04-05T11:46:42.000Z</time></trkpt>
<trkpt lat="42.185375" lon="23.588188"><ele>2667</ele><time>2026-04-05T11:46:43.000Z</time></trkpt>
<trkpt lat="42.185387" lon="23.588181"><ele>2667</ele><time>2026-04-05T11:46:44.000Z</time></trkpt>
<trkpt lat="42.185398" lon="23.588174"><ele>2667</ele><time>2026-04-05T11:46:45.000Z</time></trkpt>
<trkpt lat="42.185411" lon="23.588168"><ele>2667</ele><time>2026-04-05T11:46:46.000Z</time></trkpt>
<trkpt lat="42.185422" lon="23.588163"><ele>2665.7</ele><time>2026-04-05T11:46:47.000Z</time></trkpt>
<trkpt lat="42.185433" lon="23.58816"><ele>2665.7</ele><time>2026-04-05T11:46:48.000Z</time></trkpt>
<trkpt lat="42.185442" lon="23.588158"><ele>2665.7</ele><time>2026-04-05T11:46:49.000Z</time></trkpt>
<trkpt lat="42.185452" lon="23.588156"><ele>2665.7</ele><time>2026-04-05T11:46:50.000Z</time></trkpt>
<trkpt lat="42.185464" lon="23.588154"><ele>2665.7</ele><time>2026-04-05T11:46:51.000Z</time></trkpt>
<trkpt lat="42.185477" lon="23.588153"><ele>2665</ele><time>2026-04-05T11:46:52.000Z</time></trkpt>
<trkpt lat="42.185491" lon="23.588151"><ele>2665</ele><time>2026-04-05T11:46:53.000Z</time></trkpt>
<trkpt lat="42.185504" lon="23.588149"><ele>2665</ele><time>2026-04-05T11:46:54.000Z</time></trkpt>
<trkpt lat="42.185516" lon="23.588147"><ele>2665</ele><time>2026-04-05T11:46:55.000Z</time></trkpt>
<trkpt lat="42.185528" lon="23.588145"><ele>2665</ele><time>2026-04-05T11:46:56.000Z</time></trkpt>
<trkpt lat="42.185539" lon="23.588142"><ele>2663.9</ele><time>2026-04-05T11:46:57.000Z</time></trkpt>
<trkpt lat="42.18555" lon="23.588139"><ele>2663.9</ele><time>2026-04-05T11:46:58.000Z</time></trkpt>
<trkpt lat="42.185561" lon="23.588138"><ele>2663.9</ele><time>2026-04-05T11:46:59.000Z</time></trkpt>
<trkpt lat="42.185573" lon="23.588137"><ele>2663.9</ele><time>2026-04-05T11:47:00.000Z</time></trkpt>
<trkpt lat="42.185585" lon="23.588135"><ele>2663.9</ele><time>2026-04-05T11:47:01.000Z</time></trkpt>
<trkpt lat="42.185597" lon="23.588135"><ele>2662.9</ele><time>2026-04-05T11:47:02.000Z</time></trkpt>
<trkpt lat="42.185608" lon="23.588135"><ele>2662.9</ele><time>2026-04-05T11:47:03.000Z</time></trkpt>
<trkpt lat="42.185619" lon="23.588134"><ele>2662.9</ele><time>2026-04-05T11:47:04.000Z</time></trkpt>
<trkpt lat="42.185628" lon="23.588133"><ele>2662.9</ele><time>2026-04-05T11:47:05.000Z</time></trkpt>
<trkpt lat="42.185638" lon="23.588133"><ele>2662.9</ele><time>2026-04-05T11:47:06.000Z</time></trkpt>
<trkpt lat="42.185649" lon="23.588132"><ele>2662.3</ele><time>2026-04-05T11:47:07.000Z</time></trkpt>
<trkpt lat="42.185659" lon="23.588131"><ele>2662.3</ele><time>2026-04-05T11:47:08.000Z</time></trkpt>
<trkpt lat="42.185671" lon="23.588131"><ele>2662.3</ele><time>2026-04-05T11:47:09.000Z</time></trkpt>
<trkpt lat="42.185684" lon="23.58813"><ele>2662.3</ele><time>2026-04-05T11:47:10.000Z</time></trkpt>
<trkpt lat="42.185696" lon="23.588129"><ele>2662.3</ele><time>2026-04-05T11:47:11.000Z</time></trkpt>
<trkpt lat="42.185708" lon="23.588127"><ele>2661.2</ele><time>2026-04-05T11:47:12.000Z</time></trkpt>
<trkpt lat="42.185719" lon="23.588126"><ele>2661.2</ele><time>2026-04-05T11:47:13.000Z</time></trkpt>
<trkpt lat="42.18573" lon="23.588124"><ele>2661.2</ele><time>2026-04-05T11:47:14.000Z</time></trkpt>
<trkpt lat="42.185741" lon="23.588123"><ele>2661.2</ele><time>2026-04-05T11:47:15.000Z</time></trkpt>
<trkpt lat="42.185752" lon="23.588122"><ele>2661.2</ele><time>2026-04-05T11:47:16.000Z</time></trkpt>
<trkpt lat="42.185764" lon="23.588121"><ele>2660</ele><time>2026-04-05T11:47:17.000Z</time></trkpt>
<trkpt lat="42.185776" lon="23.588121"><ele>2660</ele><time>2026-04-05T11:47:18.000Z</time></trkpt>
<trkpt lat="42.185787" lon="23.58812"><ele>2660</ele><time>2026-04-05T11:47:19.000Z</time></trkpt>
<trkpt lat="42.185798" lon="23.58812"><ele>2660</ele><time>2026-04-05T11:47:20.000Z</time></trkpt>
<trkpt lat="42.185808" lon="23.588121"><ele>2660</ele><time>2026-04-05T11:47:21.000Z</time></trkpt>
<trkpt lat="42.185818" lon="23.588121"><ele>2659.5</ele><time>2026-04-05T11:47:22.000Z</time></trkpt>
<trkpt lat="42.185828" lon="23.588122"><ele>2659.5</ele><time>2026-04-05T11:47:23.000Z</time></trkpt>
<trkpt lat="42.185838" lon="23.588123"><ele>2659.5</ele><time>2026-04-05T11:47:24.000Z</time></trkpt>
<trkpt lat="42.185849" lon="23.588124"><ele>2659.5</ele><time>2026-04-05T11:47:25.000Z</time></trkpt>
<trkpt lat="42.185862" lon="23.588126"><ele>2659.5</ele><time>2026-04-05T11:47:26.000Z</time></trkpt>
<trkpt lat="42.185874" lon="23.588128"><ele>2658.5</ele><time>2026-04-05T11:47:27.000Z</time></trkpt>
<trkpt lat="42.185888" lon="23.588131"><ele>2658.5</ele><time>2026-04-05T11:47:28.000Z</time></trkpt>
<trkpt lat="42.185901" lon="23.588133"><ele>2658.5</ele><time>2026-04-05T11:47:29.000Z</time></trkpt>
<trkpt lat="42.185913" lon="23.588135"><ele>2658.5</ele><time>2026-04-05T11:47:30.000Z</time></trkpt>
<trkpt lat="42.185924" lon="23.588137"><ele>2658.5</ele><time>2026-04-05T11:47:31.000Z</time></trkpt>
<trkpt lat="42.185935" lon="23.588138"><ele>2657.4</ele><time>2026-04-05T11:47:32.000Z</time></trkpt>
<trkpt lat="42.185945" lon="23.588139"><ele>2657.4</ele><time>2026-04-05T11:47:33.000Z</time></trkpt>
<trkpt lat="42.185955" lon="23.588141"><ele>2657.4</ele><time>2026-04-05T11:47:34.000Z</time></trkpt>
<trkpt lat="42.185966" lon="23.588142"><ele>2657.4</ele><time>2026-04-05T11:47:35.000Z</time></trkpt>
<trkpt lat="42.185977" lon="23.588143"><ele>2657.4</ele><time>2026-04-05T11:47:36.000Z</time></trkpt>
<trkpt lat="42.18599" lon="23.588145"><ele>2656.8</ele><time>2026-04-05T11:47:37.000Z</time></trkpt>
<trkpt lat="42.186002" lon="23.588146"><ele>2656.8</ele><time>2026-04-05T11:47:38.000Z</time></trkpt>
<trkpt lat="42.186016" lon="23.588148"><ele>2656.8</ele><time>2026-04-05T11:47:39.000Z</time></trkpt>
<trkpt lat="42.186029" lon="23.58815"><ele>2656.8</ele><time>2026-04-05T11:47:40.000Z</time></trkpt>
<trkpt lat="42.186042" lon="23.588153"><ele>2656.8</ele><time>2026-04-05T11:47:41.000Z</time></trkpt>
<trkpt lat="42.186053" lon="23.588155"><ele>2655.5</ele><time>2026-04-05T11:47:42.000Z</time></trkpt>
<trkpt lat="42.186065" lon="23.588158"><ele>2655.5</ele><time>2026-04-05T11:47:43.000Z</time></trkpt>
<trkpt lat="42.186076" lon="23.58816"><ele>2655.5</ele><time>2026-04-05T11:47:44.000Z</time></trkpt>
<trkpt lat="42.186086" lon="23.588162"><ele>2655.5</ele><time>2026-04-05T11:47:45.000Z</time></trkpt>
<trkpt lat="42.186098" lon="23.588166"><ele>2655.5</ele><time>2026-04-05T11:47:46.000Z</time></trkpt>
<trkpt lat="42.18611" lon="23.588169"><ele>2654.3</ele><time>2026-04-05T11:47:47.000Z</time></trkpt>
<trkpt lat="42.186121" lon="23.588172"><ele>2654.3</ele><time>2026-04-05T11:47:48.000Z</time></trkpt>
<trkpt lat="42.186133" lon="23.588176"><ele>2654.3</ele><time>2026-04-05T11:47:49.000Z</time></trkpt>
<trkpt lat="42.186144" lon="23.588178"><ele>2654.3</ele><time>2026-04-05T11:47:50.000Z</time></trkpt>
<trkpt lat="42.186154" lon="23.588179"><ele>2654.3</ele><time>2026-04-05T11:47:51.000Z</time></trkpt>
<trkpt lat="42.186163" lon="23.588179"><ele>2653.6</ele><time>2026-04-05T11:47:52.000Z</time></trkpt>
<trkpt lat="42.186173" lon="23.588179"><ele>2653.6</ele><time>2026-04-05T11:47:53.000Z</time></trkpt>
<trkpt lat="42.186184" lon="23.588178"><ele>2653.6</ele><time>2026-04-05T11:47:54.000Z</time></trkpt>
<trkpt lat="42.186195" lon="23.588176"><ele>2653.6</ele><time>2026-04-05T11:47:55.000Z</time></trkpt>
<trkpt lat="42.186208" lon="23.588175"><ele>2653.6</ele><time>2026-04-05T11:47:56.000Z</time></trkpt>
<trkpt lat="42.186221" lon="23.588173"><ele>2652.6</ele><time>2026-04-05T11:47:57.000Z</time></trkpt>
<trkpt lat="42.186233" lon="23.588172"><ele>2652.6</ele><time>2026-04-05T11:47:58.000Z</time></trkpt>
<trkpt lat="42.186246" lon="23.58817"><ele>2652.6</ele><time>2026-04-05T11:47:59.000Z</time></trkpt>
<trkpt lat="42.18626" lon="23.588168"><ele>2652.6</ele><time>2026-04-05T11:48:00.000Z</time></trkpt>
<trkpt lat="42.186274" lon="23.588168"><ele>2652.6</ele><time>2026-04-05T11:48:01.000Z</time></trkpt>
<trkpt lat="42.186288" lon="23.588168"><ele>2651.6</ele><time>2026-04-05T11:48:02.000Z</time></trkpt>
<trkpt lat="42.186302" lon="23.588168"><ele>2651.6</ele><time>2026-04-05T11:48:03.000Z</time></trkpt>
<trkpt lat="42.186315" lon="23.58817"><ele>2651.6</ele><time>2026-04-05T11:48:04.000Z</time></trkpt>
<trkpt lat="42.186326" lon="23.588172"><ele>2651.6</ele><time>2026-04-05T11:48:05.000Z</time></trkpt>
<trkpt lat="42.186336" lon="23.588175"><ele>2651.6</ele><time>2026-04-05T11:48:06.000Z</time></trkpt>
<trkpt lat="42.186346" lon="23.588179"><ele>2651.1</ele><time>2026-04-05T11:48:07.000Z</time></trkpt>
<trkpt lat="42.186356" lon="23.588182"><ele>2651.1</ele><time>2026-04-05T11:48:08.000Z</time></trkpt>
<trkpt lat="42.186367" lon="23.588184"><ele>2651.1</ele><time>2026-04-05T11:48:09.000Z</time></trkpt>
<trkpt lat="42.186379" lon="23.588185"><ele>2651.1</ele><time>2026-04-05T11:48:10.000Z</time></trkpt>
<trkpt lat="42.18639" lon="23.588185"><ele>2651.1</ele><time>2026-04-05T11:48:11.000Z</time></trkpt>
<trkpt lat="42.186401" lon="23.588184"><ele>2650.1</ele><time>2026-04-05T11:48:12.000Z</time></trkpt>
<trkpt lat="42.186413" lon="23.588183"><ele>2650.1</ele><time>2026-04-05T11:48:13.000Z</time></trkpt>
<trkpt lat="42.186424" lon="23.588183"><ele>2650.1</ele><time>2026-04-05T11:48:14.000Z</time></trkpt>
<trkpt lat="42.186435" lon="23.588183"><ele>2650.1</ele><time>2026-04-05T11:48:15.000Z</time></trkpt>
<trkpt lat="42.186447" lon="23.588183"><ele>2650.1</ele><time>2026-04-05T11:48:16.000Z</time></trkpt>
<trkpt lat="42.18646" lon="23.588182"><ele>2649.3</ele><time>2026-04-05T11:48:17.000Z</time></trkpt>
<trkpt lat="42.186474" lon="23.588181"><ele>2649.3</ele><time>2026-04-05T11:48:18.000Z</time></trkpt>
<trkpt lat="42.186487" lon="23.588179"><ele>2649.3</ele><time>2026-04-05T11:48:19.000Z</time></trkpt>
<trkpt lat="42.1865" lon="23.588176"><ele>2649.3</ele><time>2026-04-05T11:48:20.000Z</time></trkpt>
<trkpt lat="42.186511" lon="23.588173"><ele>2649.3</ele><time>2026-04-05T11:48:21.000Z</time></trkpt>
<trkpt lat="42.186523" lon="23.588169"><ele>2649</ele><time>2026-04-05T11:48:22.000Z</time></trkpt>
<trkpt lat="42.186533" lon="23.588165"><ele>2649</ele><time>2026-04-05T11:48:23.000Z</time></trkpt>
<trkpt lat="42.186544" lon="23.588161"><ele>2649</ele><time>2026-04-05T11:48:24.000Z</time></trkpt>
<trkpt lat="42.186555" lon="23.588158"><ele>2649</ele><time>2026-04-05T11:48:25.000Z</time></trkpt>
<trkpt lat="42.186566" lon="23.588154"><ele>2649</ele><time>2026-04-05T11:48:26.000Z</time></trkpt>
<trkpt lat="42.186577" lon="23.588151"><ele>2648.3</ele><time>2026-04-05T11:48:27.000Z</time></trkpt>
<trkpt lat="42.186587" lon="23.588148"><ele>2648.3</ele><time>2026-04-05T11:48:28.000Z</time></trkpt>
<trkpt lat="42.186597" lon="23.588143"><ele>2648.3</ele><time>2026-04-05T11:48:29.000Z</time></trkpt>
<trkpt lat="42.186607" lon="23.588138"><ele>2648.3</ele><time>2026-04-05T11:48:30.000Z</time></trkpt>
<trkpt lat="42.186616" lon="23.588132"><ele>2648.3</ele><time>2026-04-05T11:48:31.000Z</time></trkpt>
<trkpt lat="42.186626" lon="23.588126"><ele>2647.3</ele><time>2026-04-05T11:48:32.000Z</time></trkpt>
<trkpt lat="42.186637" lon="23.588121"><ele>2647.3</ele><time>2026-04-05T11:48:33.000Z</time></trkpt>
<trkpt lat="42.186649" lon="23.588118"><ele>2647.3</ele><time>2026-04-05T11:48:34.000Z</time></trkpt>
<trkpt lat="42.186662" lon="23.588116"><ele>2647.3</ele><time>2026-04-05T11:48:35.000Z</time></trkpt>
<trkpt lat="42.186676" lon="23.588116"><ele>2647.3</ele><time>2026-04-05T11:48:36.000Z</time></trkpt>
<trkpt lat="42.186689" lon="23.588117"><ele>2646.7</ele><time>2026-04-05T11:48:37.000Z</time></trkpt>
<trkpt lat="42.186702" lon="23.588116"><ele>2646.7</ele><time>2026-04-05T11:48:38.000Z</time></trkpt>
<trkpt lat="42.186713" lon="23.588114"><ele>2646.7</ele><time>2026-04-05T11:48:39.000Z</time></trkpt>
<trkpt lat="42.186722" lon="23.588112"><ele>2646.7</ele><time>2026-04-05T11:48:40.000Z</time></trkpt>
<trkpt lat="42.186728" lon="23.588109"><ele>2646.7</ele><time>2026-04-05T11:48:41.000Z</time></trkpt>
<trkpt lat="42.186734" lon="23.588105"><ele>2645.4</ele><time>2026-04-05T11:48:42.000Z</time></trkpt>
<trkpt lat="42.186738" lon="23.588102"><ele>2645.4</ele><time>2026-04-05T11:48:43.000Z</time></trkpt>
<trkpt lat="42.186743" lon="23.588099"><ele>2645.4</ele><time>2026-04-05T11:48:44.000Z</time></trkpt>
<trkpt lat="42.186749" lon="23.588095"><ele>2645.4</ele><time>2026-04-05T11:48:45.000Z</time></trkpt>
<trkpt lat="42.186757" lon="23.58809"><ele>2645.4</ele><time>2026-04-05T11:48:46.000Z</time></trkpt>
<trkpt lat="42.186767" lon="23.588085"><ele>2644</ele><time>2026-04-05T11:48:47.000Z</time></trkpt>
<trkpt lat="42.186777" lon="23.588079"><ele>2644</ele><time>2026-04-05T11:48:48.000Z</time></trkpt>
<trkpt lat="42.186788" lon="23.588072"><ele>2644</ele><time>2026-04-05T11:48:49.000Z</time></trkpt>
<trkpt lat="42.186798" lon="23.588066"><ele>2644</ele><time>2026-04-05T11:48:50.000Z</time></trkpt>
<trkpt lat="42.186807" lon="23.588059"><ele>2644</ele><time>2026-04-05T11:48:51.000Z</time></trkpt>
<trkpt lat="42.186813" lon="23.588053"><ele>2643.3</ele><time>2026-04-05T11:48:52.000Z</time></trkpt>
<trkpt lat="42.186818" lon="23.588047"><ele>2643.3</ele><time>2026-04-05T11:48:53.000Z</time></trkpt>
<trkpt lat="42.186823" lon="23.588042"><ele>2643.3</ele><time>2026-04-05T11:48:54.000Z</time></trkpt>
<trkpt lat="42.186827" lon="23.588035"><ele>2643.3</ele><time>2026-04-05T11:48:55.000Z</time></trkpt>
<trkpt lat="42.186833" lon="23.588029"><ele>2643.3</ele><time>2026-04-05T11:48:56.000Z</time></trkpt>
<trkpt lat="42.18684" lon="23.588024"><ele>2641.7</ele><time>2026-04-05T11:48:57.000Z</time></trkpt>
<trkpt lat="42.186848" lon="23.588019"><ele>2641.7</ele><time>2026-04-05T11:48:58.000Z</time></trkpt>
<trkpt lat="42.186855" lon="23.588013"><ele>2641.7</ele><time>2026-04-05T11:48:59.000Z</time></trkpt>
<trkpt lat="42.186861" lon="23.588008"><ele>2641.7</ele><time>2026-04-05T11:49:00.000Z</time></trkpt>
<trkpt lat="42.186866" lon="23.588002"><ele>2641.7</ele><time>2026-04-05T11:49:01.000Z</time></trkpt>
<trkpt lat="42.186872" lon="23.587994"><ele>2640.2</ele><time>2026-04-05T11:49:02.000Z</time></trkpt>
<trkpt lat="42.186876" lon="23.587984"><ele>2640.2</ele><time>2026-04-05T11:49:03.000Z</time></trkpt>
<trkpt lat="42.18688" lon="23.587974"><ele>2640.2</ele><time>2026-04-05T11:49:04.000Z</time></trkpt>
<trkpt lat="42.186885" lon="23.587964"><ele>2640.2</ele><time>2026-04-05T11:49:05.000Z</time></trkpt>
<trkpt lat="42.186892" lon="23.587954"><ele>2640.2</ele><time>2026-04-05T11:49:06.000Z</time></trkpt>
<trkpt lat="42.186897" lon="23.587947"><ele>2639.4</ele><time>2026-04-05T11:49:07.000Z</time></trkpt>
<trkpt lat="42.186903" lon="23.58794"><ele>2639.4</ele><time>2026-04-05T11:49:08.000Z</time></trkpt>
<trkpt lat="42.186909" lon="23.587934"><ele>2639.4</ele><time>2026-04-05T11:49:09.000Z</time></trkpt>
<trkpt lat="42.186915" lon="23.587927"><ele>2639.4</ele><time>2026-04-05T11:49:10.000Z</time></trkpt>
<trkpt lat="42.186919" lon="23.58792"><ele>2639.4</ele><time>2026-04-05T11:49:11.000Z</time></trkpt>
<trkpt lat="42.186925" lon="23.58791"><ele>2637.7</ele><time>2026-04-05T11:49:12.000Z</time></trkpt>
<trkpt lat="42.18693" lon="23.587902"><ele>2637.7</ele><time>2026-04-05T11:49:13.000Z</time></trkpt>
<trkpt lat="42.186934" lon="23.587895"><ele>2637.7</ele><time>2026-04-05T11:49:14.000Z</time></trkpt>
<trkpt lat="42.186937" lon="23.58789"><ele>2637.7</ele><time>2026-04-05T11:49:15.000Z</time></trkpt>
<trkpt lat="42.186939" lon="23.587888"><ele>2637.7</ele><time>2026-04-05T11:49:16.000Z</time></trkpt>
<trkpt lat="42.186941" lon="23.587887"><ele>2636</ele><time>2026-04-05T11:49:17.000Z</time></trkpt>
<trkpt lat="42.186942" lon="23.587888"><ele>2636</ele><time>2026-04-05T11:49:18.000Z</time></trkpt>
<trkpt lat="42.186945" lon="23.587887"><ele>2636</ele><time>2026-04-05T11:49:19.000Z</time></trkpt>
<trkpt lat="42.186947" lon="23.587886"><ele>2636</ele><time>2026-04-05T11:49:20.000Z</time></trkpt>
<trkpt lat="42.186949" lon="23.587884"><ele>2636</ele><time>2026-04-05T11:49:21.000Z</time></trkpt>
<trkpt lat="42.186951" lon="23.587882"><ele>2635.3</ele><time>2026-04-05T11:49:22.000Z</time></trkpt>
<trkpt lat="42.186952" lon="23.587881"><ele>2635.3</ele><time>2026-04-05T11:49:23.000Z</time></trkpt>
<trkpt lat="42.186952" lon="23.58788"><ele>2635.3</ele><time>2026-04-05T11:49:24.000Z</time></trkpt>
<trkpt lat="42.186952" lon="23.58788"><ele>2635.3</ele><time>2026-04-05T11:49:25.000Z</time></trkpt>
<trkpt lat="42.186952" lon="23.58788"><ele>2635.3</ele><time>2026-04-05T11:49:26.000Z</time></trkpt>
<trkpt lat="42.186952" lon="23.58788"><ele>2634.3</ele><time>2026-04-05T11:49:27.000Z</time></trkpt>
<trkpt lat="42.186952" lon="23.58788"><ele>2634.3</ele><time>2026-04-05T11:49:28.000Z</time></trkpt>
<trkpt lat="42.186952" lon="23.58788"><ele>2634.3</ele><time>2026-04-05T11:49:29.000Z</time></trkpt>
<trkpt lat="42.186952" lon="23.58788"><ele>2634.3</ele><time>2026-04-05T11:49:30.000Z</time></trkpt>
<trkpt lat="42.186952" lon="23.58788"><ele>2634.3</ele><time>2026-04-05T11:49:31.000Z</time></trkpt>
<trkpt lat="42.186952" lon="23.58788"><ele>2633.8</ele><time>2026-04-05T11:49:32.000Z</time></trkpt>
<trkpt lat="42.186952" lon="23.58788"><ele>2633.8</ele><time>2026-04-05T11:49:33.000Z</time></trkpt>
<trkpt lat="42.186952" lon="23.58788"><ele>2633.8</ele><time>2026-04-05T11:49:34.000Z</time></trkpt>
<trkpt lat="42.186952" lon="23.58788"><ele>2633.8</ele><time>2026-04-05T11:49:35.000Z</time></trkpt>
<trkpt lat="42.186952" lon="23.58788"><ele>2633.8</ele><time>2026-04-05T11:49:36.000Z</time></trkpt>
<trkpt lat="42.186952" lon="23.58788"><ele>2633.6</ele><time>2026-04-05T11:49:37.000Z</time></trkpt>
<trkpt lat="42.186952" lon="23.58788"><ele>2633.6</ele><time>2026-04-05T11:49:38.000Z</time></trkpt>
<trkpt lat="42.186952" lon="23.58788"><ele>2633.6</ele><time>2026-04-05T11:49:39.000Z</time></trkpt>
<trkpt lat="42.186952" lon="23.58788"><ele>2633.6</ele><time>2026-04-05T11:49:40.000Z</time></trkpt>
<trkpt lat="42.186952" lon="23.58788"><ele>2633.6</ele><time>2026-04-05T11:49:41.000Z</time></trkpt>
<trkpt lat="42.186952" lon="23.58788"><ele>2633.4</ele><time>2026-04-05T11:49:42.000Z</time></trkpt>
<trkpt lat="42.186952" lon="23.58788"><ele>2633.4</ele><time>2026-04-05T11:49:43.000Z</time></trkpt>
<trkpt lat="42.186952" lon="23.58788"><ele>2633.4</ele><time>2026-04-05T11:49:44.000Z</time></trkpt>
<trkpt lat="42.186952" lon="23.58788"><ele>2633.4</ele><time>2026-04-05T11:49:45.000Z</time></trkpt>
<trkpt lat="42.186952" lon="23.58788"><ele>2633.4</ele><time>2026-04-05T11:49:46.000Z</time></trkpt>
<trkpt lat="42.186952" lon="23.58788"><ele>2633.3</ele><time>2026-04-05T11:49:47.000Z</time></trkpt>
<trkpt lat="42.186954" lon="23.587879"><ele>2633.3</ele><time>2026-04-05T11:49:48.000Z</time></trkpt>
<trkpt lat="42.186958" lon="23.587876"><ele>2633.3</ele><time>2026-04-05T11:49:49.000Z</time></trkpt>
<trkpt lat="42.186962" lon="23.587873"><ele>2633.3</ele><time>2026-04-05T11:49:50.000Z</time></trkpt>
<trkpt lat="42.186968" lon="23.587868"><ele>2633.3</ele><time>2026-04-05T11:49:51.000Z</time></trkpt>
<trkpt lat="42.186976" lon="23.587863"><ele>2633.2</ele><time>2026-04-05T11:49:52.000Z</time></trkpt>
<trkpt lat="42.186985" lon="23.587858"><ele>2633.2</ele><time>2026-04-05T11:49:53.000Z</time></trkpt>
<trkpt lat="42.186993" lon="23.587854"><ele>2633.2</ele><time>2026-04-05T11:49:54.000Z</time></trkpt>
<trkpt lat="42.187002" lon="23.587849"><ele>2633.2</ele><time>2026-04-05T11:49:55.000Z</time></trkpt>
<trkpt lat="42.187012" lon="23.587845"><ele>2633.2</ele><time>2026-04-05T11:49:56.000Z</time></trkpt>
<trkpt lat="42.187021" lon="23.58784"><ele>2632.9</ele><time>2026-04-05T11:49:57.000Z</time></trkpt>
<trkpt lat="42.187031" lon="23.587835"><ele>2632.9</ele><time>2026-04-05T11:49:58.000Z</time></trkpt>
<trkpt lat="42.18704" lon="23.58783"><ele>2632.9</ele><time>2026-04-05T11:49:59.000Z</time></trkpt>
<trkpt lat="42.18705" lon="23.587825"><ele>2632.9</ele><time>2026-04-05T11:50:00.000Z</time></trkpt>
<trkpt lat="42.187059" lon="23.587819"><ele>2632.9</ele><time>2026-04-05T11:50:01.000Z</time></trkpt>
<trkpt lat="42.187068" lon="23.587813"><ele>2632.4</ele><time>2026-04-05T11:50:02.000Z</time></trkpt>
<trkpt lat="42.187077" lon="23.587808"><ele>2632.4</ele><time>2026-04-05T11:50:03.000Z</time></trkpt>
<trkpt lat="42.187087" lon="23.587802"><ele>2632.4</ele><time>2026-04-05T11:50:04.000Z</time></trkpt>
<trkpt lat="42.187098" lon="23.587794"><ele>2632.4</ele><time>2026-04-05T11:50:05.000Z</time></trkpt>
<trkpt lat="42.187108" lon="23.587786"><ele>2632.4</ele><time>2026-04-05T11:50:06.000Z</time></trkpt>
<trkpt lat="42.187119" lon="23.587776"><ele>2632.1</ele><time>2026-04-05T11:50:07.000Z</time></trkpt>
<trkpt lat="42.187129" lon="23.587765"><ele>2632.1</ele><time>2026-04-05T11:50:08.000Z</time></trkpt>
<trkpt lat="42.187137" lon="23.587753"><ele>2632.1</ele><time>2026-04-05T11:50:09.000Z</time></trkpt>
<trkpt lat="42.187145" lon="23.587741"><ele>2632.1</ele><time>2026-04-05T11:50:10.000Z</time></trkpt>
<trkpt lat="42.187151" lon="23.587729"><ele>2632.1</ele><time>2026-04-05T11:50:11.000Z</time></trkpt>
<trkpt lat="42.187158" lon="23.587715"><ele>2631.4</ele><time>2026-04-05T11:50:12.000Z</time></trkpt>
<trkpt lat="42.187164" lon="23.587702"><ele>2631.4</ele><time>2026-04-05T11:50:13.000Z</time></trkpt>
<trkpt lat="42.18717" lon="23.587689"><ele>2631.4</ele><time>2026-04-05T11:50:14.000Z</time></trkpt>
<trkpt lat="42.187176" lon="23.587675"><ele>2631.4</ele><time>2026-04-05T11:50:15.000Z</time></trkpt>
<trkpt lat="42.187181" lon="23.587661"><ele>2631.4</ele><time>2026-04-05T11:50:16.000Z</time></trkpt>
<trkpt lat="42.187186" lon="23.587647"><ele>2630.6</ele><time>2026-04-05T11:50:17.000Z</time></trkpt>
<trkpt lat="42.187191" lon="23.587633"><ele>2630.6</ele><time>2026-04-05T11:50:18.000Z</time></trkpt>
<trkpt lat="42.187196" lon="23.587618"><ele>2630.6</ele><time>2026-04-05T11:50:19.000Z</time></trkpt>
<trkpt lat="42.1872" lon="23.587604"><ele>2630.6</ele><time>2026-04-05T11:50:20.000Z</time></trkpt>
<trkpt lat="42.187205" lon="23.587588"><ele>2630.6</ele><time>2026-04-05T11:50:21.000Z</time></trkpt>
<trkpt lat="42.18721" lon="23.587572"><ele>2630.1</ele><time>2026-04-05T11:50:22.000Z</time></trkpt>
<trkpt lat="42.187216" lon="23.587556"><ele>2630.1</ele><time>2026-04-05T11:50:23.000Z</time></trkpt>
<trkpt lat="42.187222" lon="23.587542"><ele>2630.1</ele><time>2026-04-05T11:50:24.000Z</time></trkpt>
<trkpt lat="42.187229" lon="23.587529"><ele>2630.1</ele><time>2026-04-05T11:50:25.000Z</time></trkpt>
<trkpt lat="42.187236" lon="23.587518"><ele>2630.1</ele><time>2026-04-05T11:50:26.000Z</time></trkpt>
<trkpt lat="42.187243" lon="23.587506"><ele>2628.9</ele><time>2026-04-05T11:50:27.000Z</time></trkpt>
<trkpt lat="42.18725" lon="23.587494"><ele>2628.9</ele><time>2026-04-05T11:50:28.000Z</time></trkpt>
<trkpt lat="42.187258" lon="23.587482"><ele>2628.9</ele><time>2026-04-05T11:50:29.000Z</time></trkpt>
<trkpt lat="42.187266" lon="23.587469"><ele>2628.9</ele><time>2026-04-05T11:50:30.000Z</time></trkpt>
<trkpt lat="42.187273" lon="23.587455"><ele>2628.9</ele><time>2026-04-05T11:50:31.000Z</time></trkpt>
<trkpt lat="42.187278" lon="23.587442"><ele>2627.5</ele><time>2026-04-05T11:50:32.000Z</time></trkpt>
<trkpt lat="42.187283" lon="23.58743"><ele>2627.5</ele><time>2026-04-05T11:50:33.000Z</time></trkpt>
<trkpt lat="42.187288" lon="23.587417"><ele>2627.5</ele><time>2026-04-05T11:50:34.000Z</time></trkpt>
<trkpt lat="42.187294" lon="23.587406"><ele>2627.5</ele><time>2026-04-05T11:50:35.000Z</time></trkpt>
<trkpt lat="42.187299" lon="23.587395"><ele>2627.5</ele><time>2026-04-05T11:50:36.000Z</time></trkpt>
<trkpt lat="42.187307" lon="23.587383"><ele>2627</ele><time>2026-04-05T11:50:37.000Z</time></trkpt>
<trkpt lat="42.187315" lon="23.587372"><ele>2627</ele><time>2026-04-05T11:50:38.000Z</time></trkpt>
<trkpt lat="42.187325" lon="23.587363"><ele>2627</ele><time>2026-04-05T11:50:39.000Z</time></trkpt>
<trkpt lat="42.187334" lon="23.587354"><ele>2627</ele><time>2026-04-05T11:50:40.000Z</time></trkpt>
<trkpt lat="42.187343" lon="23.587347"><ele>2627</ele><time>2026-04-05T11:50:41.000Z</time></trkpt>
<trkpt lat="42.187353" lon="23.587342"><ele>2626.2</ele><time>2026-04-05T11:50:42.000Z</time></trkpt>
<trkpt lat="42.187362" lon="23.587337"><ele>2626.2</ele><time>2026-04-05T11:50:43.000Z</time></trkpt>
<trkpt lat="42.187372" lon="23.587333"><ele>2626.2</ele><time>2026-04-05T11:50:44.000Z</time></trkpt>
<trkpt lat="42.187382" lon="23.587329"><ele>2626.2</ele><time>2026-04-05T11:50:45.000Z</time></trkpt>
<trkpt lat="42.187393" lon="23.587325"><ele>2626.2</ele><time>2026-04-05T11:50:46.000Z</time></trkpt>
<trkpt lat="42.187403" lon="23.58732"><ele>2625.3</ele><time>2026-04-05T11:50:47.000Z</time></trkpt>
<trkpt lat="42.187414" lon="23.587316"><ele>2625.3</ele><time>2026-04-05T11:50:48.000Z</time></trkpt>
<trkpt lat="42.187425" lon="23.587312"><ele>2625.3</ele><time>2026-04-05T11:50:49.000Z</time></trkpt>
<trkpt lat="42.187437" lon="23.587307"><ele>2625.3</ele><time>2026-04-05T11:50:50.000Z</time></trkpt>
<trkpt lat="42.187448" lon="23.587301"><ele>2625.3</ele><time>2026-04-05T11:50:51.000Z</time></trkpt>
<trkpt lat="42.18746" lon="23.587296"><ele>2624.9</ele><time>2026-04-05T11:50:52.000Z</time></trkpt>
<trkpt lat="42.18747" lon="23.587291"><ele>2624.9</ele><time>2026-04-05T11:50:53.000Z</time></trkpt>
<trkpt lat="42.18748" lon="23.587286"><ele>2624.9</ele><time>2026-04-05T11:50:54.000Z</time></trkpt>
<trkpt lat="42.18749" lon="23.587281"><ele>2624.9</ele><time>2026-04-05T11:50:55.000Z</time></trkpt>
<trkpt lat="42.187501" lon="23.587275"><ele>2624.9</ele><time>2026-04-05T11:50:56.000Z</time></trkpt>
<trkpt lat="42.187513" lon="23.587268"><ele>2624.1</ele><time>2026-04-05T11:50:57.000Z</time></trkpt>
<trkpt lat="42.187524" lon="23.587261"><ele>2624.1</ele><time>2026-04-05T11:50:58.000Z</time></trkpt>
<trkpt lat="42.187535" lon="23.587252"><ele>2624.1</ele><time>2026-04-05T11:50:59.000Z</time></trkpt>
<trkpt lat="42.187546" lon="23.587245"><ele>2624.1</ele><time>2026-04-05T11:51:00.000Z</time></trkpt>
<trkpt lat="42.187556" lon="23.587237"><ele>2624.1</ele><time>2026-04-05T11:51:01.000Z</time></trkpt>
<trkpt lat="42.187567" lon="23.58723"><ele>2623.8</ele><time>2026-04-05T11:51:02.000Z</time></trkpt>
<trkpt lat="42.187577" lon="23.587222"><ele>2623.8</ele><time>2026-04-05T11:51:03.000Z</time></trkpt>
<trkpt lat="42.187587" lon="23.587214"><ele>2623.8</ele><time>2026-04-05T11:51:04.000Z</time></trkpt>
<trkpt lat="42.187598" lon="23.587204"><ele>2623.8</ele><time>2026-04-05T11:51:05.000Z</time></trkpt>
<trkpt lat="42.187609" lon="23.587195"><ele>2623.8</ele><time>2026-04-05T11:51:06.000Z</time></trkpt>
<trkpt lat="42.18762" lon="23.587185"><ele>2623.7</ele><time>2026-04-05T11:51:07.000Z</time></trkpt>
<trkpt lat="42.187631" lon="23.587176"><ele>2623.7</ele><time>2026-04-05T11:51:08.000Z</time></trkpt>
<trkpt lat="42.187642" lon="23.587167"><ele>2623.7</ele><time>2026-04-05T11:51:09.000Z</time></trkpt>
<trkpt lat="42.187652" lon="23.58716"><ele>2623.7</ele><time>2026-04-05T11:51:10.000Z</time></trkpt>
<trkpt lat="42.187662" lon="23.587154"><ele>2623.7</ele><time>2026-04-05T11:51:11.000Z</time></trkpt>
<trkpt lat="42.187671" lon="23.587147"><ele>2623.6</ele><time>2026-04-05T11:51:12.000Z</time></trkpt>
<trkpt lat="42.187681" lon="23.587141"><ele>2623.6</ele><time>2026-04-05T11:51:13.000Z</time></trkpt>
<trkpt lat="42.187691" lon="23.587135"><ele>2623.6</ele><time>2026-04-05T11:51:14.000Z</time></trkpt>
<trkpt lat="42.187701" lon="23.587128"><ele>2623.6</ele><time>2026-04-05T11:51:15.000Z</time></trkpt>
<trkpt lat="42.187711" lon="23.587122"><ele>2623.6</ele><time>2026-04-05T11:51:16.000Z</time></trkpt>
<trkpt lat="42.187719" lon="23.587116"><ele>2623.2</ele><time>2026-04-05T11:51:17.000Z</time></trkpt>
<trkpt lat="42.187726" lon="23.587112"><ele>2623.2</ele><time>2026-04-05T11:51:18.000Z</time></trkpt>
<trkpt lat="42.187731" lon="23.587107"><ele>2623.2</ele><time>2026-04-05T11:51:19.000Z</time></trkpt>
<trkpt lat="42.187737" lon="23.587104"><ele>2623.2</ele><time>2026-04-05T11:51:20.000Z</time></trkpt>
<trkpt lat="42.187742" lon="23.587099"><ele>2623.2</ele><time>2026-04-05T11:51:21.000Z</time></trkpt>
<trkpt lat="42.187747" lon="23.587093"><ele>2622.9</ele><time>2026-04-05T11:51:22.000Z</time></trkpt>
<trkpt lat="42.187752" lon="23.587087"><ele>2622.9</ele><time>2026-04-05T11:51:23.000Z</time></trkpt>
<trkpt lat="42.187759" lon="23.58708"><ele>2622.9</ele><time>2026-04-05T11:51:24.000Z</time></trkpt>
<trkpt lat="42.187765" lon="23.587073"><ele>2622.9</ele><time>2026-04-05T11:51:25.000Z</time></trkpt>
<trkpt lat="42.187771" lon="23.587067"><ele>2622.9</ele><time>2026-04-05T11:51:26.000Z</time></trkpt>
<trkpt lat="42.187777" lon="23.587062"><ele>2622.4</ele><time>2026-04-05T11:51:27.000Z</time></trkpt>
<trkpt lat="42.187783" lon="23.587057"><ele>2622.4</ele><time>2026-04-05T11:51:28.000Z</time></trkpt>
<trkpt lat="42.187789" lon="23.587051"><ele>2622.4</ele><time>2026-04-05T11:51:29.000Z</time></trkpt>
<trkpt lat="42.187795" lon="23.587045"><ele>2622.4</ele><time>2026-04-05T11:51:30.000Z</time></trkpt>
<trkpt lat="42.187801" lon="23.587037"><ele>2622.4</ele><time>2026-04-05T11:51:31.000Z</time></trkpt>
<trkpt lat="42.187809" lon="23.587029"><ele>2621.9</ele><time>2026-04-05T11:51:32.000Z</time></trkpt>
<trkpt lat="42.187818" lon="23.587021"><ele>2621.9</ele><time>2026-04-05T11:51:33.000Z</time></trkpt>
<trkpt lat="42.187827" lon="23.587012"><ele>2621.9</ele><time>2026-04-05T11:51:34.000Z</time></trkpt>
<trkpt lat="42.187836" lon="23.587003"><ele>2621.9</ele><time>2026-04-05T11:51:35.000Z</time></trkpt>
<trkpt lat="42.187845" lon="23.586994"><ele>2621.9</ele><time>2026-04-05T11:51:36.000Z</time></trkpt>
<trkpt lat="42.187854" lon="23.586986"><ele>2621.6</ele><time>2026-04-05T11:51:37.000Z</time></trkpt>
<trkpt lat="42.187863" lon="23.586979"><ele>2621.6</ele><time>2026-04-05T11:51:38.000Z</time></trkpt>
<trkpt lat="42.187872" lon="23.586972"><ele>2621.6</ele><time>2026-04-05T11:51:39.000Z</time></trkpt>
<trkpt lat="42.18788" lon="23.586964"><ele>2621.6</ele><time>2026-04-05T11:51:40.000Z</time></trkpt>
<trkpt lat="42.187888" lon="23.586956"><ele>2621.6</ele><time>2026-04-05T11:51:41.000Z</time></trkpt>
<trkpt lat="42.187895" lon="23.586948"><ele>2621.1</ele><time>2026-04-05T11:51:42.000Z</time></trkpt>
<trkpt lat="42.187901" lon="23.586939"><ele>2621.1</ele><time>2026-04-05T11:51:43.000Z</time></trkpt>
<trkpt lat="42.187906" lon="23.586928"><ele>2621.1</ele><time>2026-04-05T11:51:44.000Z</time></trkpt>
<trkpt lat="42.187912" lon="23.586918"><ele>2621.1</ele><time>2026-04-05T11:51:45.000Z</time></trkpt>
<trkpt lat="42.187917" lon="23.586908"><ele>2621.1</ele><time>2026-04-05T11:51:46.000Z</time></trkpt>
<trkpt lat="42.187923" lon="23.586898"><ele>2620.3</ele><time>2026-04-05T11:51:47.000Z</time></trkpt>
<trkpt lat="42.18793" lon="23.586889"><ele>2620.3</ele><time>2026-04-05T11:51:48.000Z</time></trkpt>
<trkpt lat="42.187937" lon="23.586882"><ele>2620.3</ele><time>2026-04-05T11:51:49.000Z</time></trkpt>
<trkpt lat="42.187944" lon="23.586876"><ele>2620.3</ele><time>2026-04-05T11:51:50.000Z</time></trkpt>
<trkpt lat="42.187949" lon="23.58687"><ele>2620.3</ele><time>2026-04-05T11:51:51.000Z</time></trkpt>
<trkpt lat="42.187953" lon="23.586866"><ele>2619.9</ele><time>2026-04-05T11:51:52.000Z</time></trkpt>
<trkpt lat="42.187956" lon="23.586863"><ele>2619.9</ele><time>2026-04-05T11:51:53.000Z</time></trkpt>
<trkpt lat="42.187958" lon="23.586859"><ele>2619.9</ele><time>2026-04-05T11:51:54.000Z</time></trkpt>
<trkpt lat="42.18796" lon="23.586856"><ele>2619.9</ele><time>2026-04-05T11:51:55.000Z</time></trkpt>
<trkpt lat="42.187962" lon="23.586853"><ele>2619.9</ele><time>2026-04-05T11:51:56.000Z</time></trkpt>
<trkpt lat="42.187964" lon="23.586849"><ele>2618.9</ele><time>2026-04-05T11:51:57.000Z</time></trkpt>
<trkpt lat="42.187966" lon="23.586845"><ele>2618.9</ele><time>2026-04-05T11:51:58.000Z</time></trkpt>
<trkpt lat="42.18797" lon="23.586841"><ele>2618.9</ele><time>2026-04-05T11:51:59.000Z</time></trkpt>
<trkpt lat="42.187973" lon="23.586836"><ele>2618.9</ele><time>2026-04-05T11:52:00.000Z</time></trkpt>
<trkpt lat="42.187979" lon="23.58683"><ele>2618.9</ele><time>2026-04-05T11:52:01.000Z</time></trkpt>
<trkpt lat="42.187988" lon="23.586823"><ele>2618.2</ele><time>2026-04-05T11:52:02.000Z</time></trkpt>
<trkpt lat="42.187997" lon="23.586815"><ele>2618.2</ele><time>2026-04-05T11:52:03.000Z</time></trkpt>
<trkpt lat="42.188007" lon="23.586806"><ele>2618.2</ele><time>2026-04-05T11:52:04.000Z</time></trkpt>
<trkpt lat="42.188018" lon="23.586796"><ele>2618.2</ele><time>2026-04-05T11:52:05.000Z</time></trkpt>
<trkpt lat="42.188028" lon="23.586787"><ele>2618.2</ele><time>2026-04-05T11:52:06.000Z</time></trkpt>
<trkpt lat="42.188038" lon="23.586779"><ele>2617.9</ele><time>2026-04-05T11:52:07.000Z</time></trkpt>
<trkpt lat="42.188048" lon="23.586772"><ele>2617.9</ele><time>2026-04-05T11:52:08.000Z</time></trkpt>
<trkpt lat="42.188058" lon="23.586765"><ele>2617.9</ele><time>2026-04-05T11:52:09.000Z</time></trkpt>
<trkpt lat="42.188068" lon="23.586758"><ele>2617.9</ele><time>2026-04-05T11:52:10.000Z</time></trkpt>
<trkpt lat="42.188077" lon="23.586752"><ele>2617.9</ele><time>2026-04-05T11:52:11.000Z</time></trkpt>
<trkpt lat="42.188088" lon="23.586744"><ele>2617.5</ele><time>2026-04-05T11:52:12.000Z</time></trkpt>
<trkpt lat="42.188099" lon="23.586736"><ele>2617.5</ele><time>2026-04-05T11:52:13.000Z</time></trkpt>
<trkpt lat="42.18811" lon="23.586729"><ele>2617.5</ele><time>2026-04-05T11:52:14.000Z</time></trkpt>
<trkpt lat="42.188121" lon="23.586723"><ele>2617.5</ele><time>2026-04-05T11:52:15.000Z</time></trkpt>
<trkpt lat="42.188132" lon="23.586717"><ele>2617.5</ele><time>2026-04-05T11:52:16.000Z</time></trkpt>
<trkpt lat="42.188142" lon="23.586712"><ele>2617.1</ele><time>2026-04-05T11:52:17.000Z</time></trkpt>
<trkpt lat="42.188151" lon="23.586707"><ele>2617.1</ele><time>2026-04-05T11:52:18.000Z</time></trkpt>
<trkpt lat="42.18816" lon="23.586702"><ele>2617.1</ele><time>2026-04-05T11:52:19.000Z</time></trkpt>
<trkpt lat="42.188171" lon="23.586697"><ele>2617.1</ele><time>2026-04-05T11:52:20.000Z</time></trkpt>
<trkpt lat="42.188182" lon="23.586691"><ele>2617.1</ele><time>2026-04-05T11:52:21.000Z</time></trkpt>
<trkpt lat="42.188194" lon="23.586684"><ele>2616.8</ele><time>2026-04-05T11:52:22.000Z</time></trkpt>
<trkpt lat="42.188204" lon="23.586675"><ele>2616.8</ele><time>2026-04-05T11:52:23.000Z</time></trkpt>
<trkpt lat="42.188213" lon="23.586665"><ele>2616.8</ele><time>2026-04-05T11:52:24.000Z</time></trkpt>
<trkpt lat="42.188219" lon="23.586654"><ele>2616.8</ele><time>2026-04-05T11:52:25.000Z</time></trkpt>
<trkpt lat="42.188225" lon="23.586643"><ele>2616.8</ele><time>2026-04-05T11:52:26.000Z</time></trkpt>
<trkpt lat="42.188229" lon="23.586631"><ele>2616</ele><time>2026-04-05T11:52:27.000Z</time></trkpt>
<trkpt lat="42.188234" lon="23.586618"><ele>2616</ele><time>2026-04-05T11:52:28.000Z</time></trkpt>
<trkpt lat="42.188237" lon="23.586605"><ele>2616</ele><time>2026-04-05T11:52:29.000Z</time></trkpt>
<trkpt lat="42.188242" lon="23.586591"><ele>2616</ele><time>2026-04-05T11:52:30.000Z</time></trkpt>
<trkpt lat="42.188247" lon="23.586577"><ele>2616</ele><time>2026-04-05T11:52:31.000Z</time></trkpt>
<trkpt lat="42.188252" lon="23.586565"><ele>2615.3</ele><time>2026-04-05T11:52:32.000Z</time></trkpt>
<trkpt lat="42.188256" lon="23.586554"><ele>2615.3</ele><time>2026-04-05T11:52:33.000Z</time></trkpt>
<trkpt lat="42.188262" lon="23.586545"><ele>2615.3</ele><time>2026-04-05T11:52:34.000Z</time></trkpt>
<trkpt lat="42.188266" lon="23.586536"><ele>2615.3</ele><time>2026-04-05T11:52:35.000Z</time></trkpt>
<trkpt lat="42.188269" lon="23.586525"><ele>2615.3</ele><time>2026-04-05T11:52:36.000Z</time></trkpt>
<trkpt lat="42.188272" lon="23.586514"><ele>2615</ele><time>2026-04-05T11:52:37.000Z</time></trkpt>
<trkpt lat="42.188275" lon="23.586502"><ele>2615</ele><time>2026-04-05T11:52:38.000Z</time></trkpt>
<trkpt lat="42.18828" lon="23.586489"><ele>2615</ele><time>2026-04-05T11:52:39.000Z</time></trkpt>
<trkpt lat="42.188285" lon="23.586477"><ele>2615</ele><time>2026-04-05T11:52:40.000Z</time></trkpt>
<trkpt lat="42.188291" lon="23.586464"><ele>2615</ele><time>2026-04-05T11:52:41.000Z</time></trkpt>
<trkpt lat="42.188299" lon="23.586451"><ele>2614.3</ele><time>2026-04-05T11:52:42.000Z</time></trkpt>
<trkpt lat="42.188306" lon="23.586437"><ele>2614.3</ele><time>2026-04-05T11:52:43.000Z</time></trkpt>
<trkpt lat="42.188313" lon="23.586425"><ele>2614.3</ele><time>2026-04-05T11:52:44.000Z</time></trkpt>
<trkpt lat="42.18832" lon="23.586412"><ele>2614.3</ele><time>2026-04-05T11:52:45.000Z</time></trkpt>
<trkpt lat="42.188328" lon="23.586399"><ele>2614.3</ele><time>2026-04-05T11:52:46.000Z</time></trkpt>
<trkpt lat="42.188335" lon="23.586386"><ele>2613.5</ele><time>2026-04-05T11:52:47.000Z</time></trkpt>
<trkpt lat="42.188341" lon="23.586373"><ele>2613.5</ele><time>2026-04-05T11:52:48.000Z</time></trkpt>
<trkpt lat="42.188347" lon="23.58636"><ele>2613.5</ele><time>2026-04-05T11:52:49.000Z</time></trkpt>
<trkpt lat="42.188355" lon="23.586348"><ele>2613.5</ele><time>2026-04-05T11:52:50.000Z</time></trkpt>
<trkpt lat="42.188361" lon="23.58634"><ele>2613.5</ele><time>2026-04-05T11:52:51.000Z</time></trkpt>
<trkpt lat="42.188367" lon="23.586333"><ele>2613.1</ele><time>2026-04-05T11:52:52.000Z</time></trkpt>
<trkpt lat="42.188375" lon="23.586327"><ele>2613.1</ele><time>2026-04-05T11:52:53.000Z</time></trkpt>
<trkpt lat="42.188381" lon="23.58632"><ele>2613.1</ele><time>2026-04-05T11:52:54.000Z</time></trkpt>
<trkpt lat="42.188385" lon="23.586313"><ele>2613.1</ele><time>2026-04-05T11:52:55.000Z</time></trkpt>
<trkpt lat="42.18839" lon="23.586304"><ele>2613.1</ele><time>2026-04-05T11:52:56.000Z</time></trkpt>
<trkpt lat="42.188396" lon="23.586295"><ele>2612.6</ele><time>2026-04-05T11:52:57.000Z</time></trkpt>
<trkpt lat="42.188402" lon="23.586284"><ele>2612.6</ele><time>2026-04-05T11:52:58.000Z</time></trkpt>
<trkpt lat="42.188408" lon="23.586274"><ele>2612.6</ele><time>2026-04-05T11:52:59.000Z</time></trkpt>
<trkpt lat="42.188415" lon="23.586264"><ele>2612.6</ele><time>2026-04-05T11:53:00.000Z</time></trkpt>
<trkpt lat="42.18842" lon="23.586254"><ele>2612.6</ele><time>2026-04-05T11:53:01.000Z</time></trkpt>
<trkpt lat="42.188425" lon="23.586246"><ele>2612.7</ele><time>2026-04-05T11:53:02.000Z</time></trkpt>
<trkpt lat="42.188429" lon="23.586238"><ele>2612.7</ele><time>2026-04-05T11:53:03.000Z</time></trkpt>
<trkpt lat="42.188434" lon="23.586229"><ele>2612.7</ele><time>2026-04-05T11:53:04.000Z</time></trkpt>
<trkpt lat="42.188439" lon="23.58622"><ele>2612.7</ele><time>2026-04-05T11:53:05.000Z</time></trkpt>
<trkpt lat="42.188446" lon="23.586212"><ele>2612.7</ele><time>2026-04-05T11:53:06.000Z</time></trkpt>
<trkpt lat="42.188453" lon="23.586202"><ele>2613</ele><time>2026-04-05T11:53:07.000Z</time></trkpt>
<trkpt lat="42.18846" lon="23.586193"><ele>2613</ele><time>2026-04-05T11:53:08.000Z</time></trkpt>
<trkpt lat="42.188466" lon="23.586183"><ele>2613</ele><time>2026-04-05T11:53:09.000Z</time></trkpt>
<trkpt lat="42.188472" lon="23.586174"><ele>2613</ele><time>2026-04-05T11:53:10.000Z</time></trkpt>
<trkpt lat="42.188479" lon="23.586163"><ele>2613</ele><time>2026-04-05T11:53:11.000Z</time></trkpt>
<trkpt lat="42.188487" lon="23.586152"><ele>2613.8</ele><time>2026-04-05T11:53:12.000Z</time></trkpt>
<trkpt lat="42.188494" lon="23.586142"><ele>2613.8</ele><time>2026-04-05T11:53:13.000Z</time></trkpt>
<trkpt lat="42.188502" lon="23.586132"><ele>2613.8</ele><time>2026-04-05T11:53:14.000Z</time></trkpt>
<trkpt lat="42.188511" lon="23.586123"><ele>2613.8</ele><time>2026-04-05T11:53:15.000Z</time></trkpt>
<trkpt lat="42.188519" lon="23.586113"><ele>2613.8</ele><time>2026-04-05T11:53:16.000Z</time></trkpt>
<trkpt lat="42.188526" lon="23.586104"><ele>2614.3</ele><time>2026-04-05T11:53:17.000Z</time></trkpt>
<trkpt lat="42.188534" lon="23.586094"><ele>2614.3</ele><time>2026-04-05T11:53:18.000Z</time></trkpt>
<trkpt lat="42.188541" lon="23.586085"><ele>2614.3</ele><time>2026-04-05T11:53:19.000Z</time></trkpt>
<trkpt lat="42.188547" lon="23.586077"><ele>2614.3</ele><time>2026-04-05T11:53:20.000Z</time></trkpt>
<trkpt lat="42.188552" lon="23.586071"><ele>2614.3</ele><time>2026-04-05T11:53:21.000Z</time></trkpt>
<trkpt lat="42.188558" lon="23.586066"><ele>2614.4</ele><time>2026-04-05T11:53:22.000Z</time></trkpt>
<trkpt lat="42.188564" lon="23.586061"><ele>2614.4</ele><time>2026-04-05T11:53:23.000Z</time></trkpt>
<trkpt lat="42.188568" lon="23.586056"><ele>2614.4</ele><time>2026-04-05T11:53:24.000Z</time></trkpt>
<trkpt lat="42.188573" lon="23.586052"><ele>2614.4</ele><time>2026-04-05T11:53:25.000Z</time></trkpt>
<trkpt lat="42.18858" lon="23.586047"><ele>2614.4</ele><time>2026-04-05T11:53:26.000Z</time></trkpt>
<trkpt lat="42.188584" lon="23.586042"><ele>2614.5</ele><time>2026-04-05T11:53:27.000Z</time></trkpt>
<trkpt lat="42.188589" lon="23.586037"><ele>2614.5</ele><time>2026-04-05T11:53:28.000Z</time></trkpt>
<trkpt lat="42.188594" lon="23.586032"><ele>2614.5</ele><time>2026-04-05T11:53:29.000Z</time></trkpt>
<trkpt lat="42.188597" lon="23.586027"><ele>2614.5</ele><time>2026-04-05T11:53:30.000Z</time></trkpt>
<trkpt lat="42.1886" lon="23.586021"><ele>2614.5</ele><time>2026-04-05T11:53:31.000Z</time></trkpt>
<trkpt lat="42.188604" lon="23.586015"><ele>2614.9</ele><time>2026-04-05T11:53:32.000Z</time></trkpt>
<trkpt lat="42.188607" lon="23.586009"><ele>2614.9</ele><time>2026-04-05T11:53:33.000Z</time></trkpt>
<trkpt lat="42.188611" lon="23.586003"><ele>2614.9</ele><time>2026-04-05T11:53:34.000Z</time></trkpt>
<trkpt lat="42.188616" lon="23.585995"><ele>2614.9</ele><time>2026-04-05T11:53:35.000Z</time></trkpt>
<trkpt lat="42.18862" lon="23.585988"><ele>2614.9</ele><time>2026-04-05T11:53:36.000Z</time></trkpt>
<trkpt lat="42.188624" lon="23.585981"><ele>2615.3</ele><time>2026-04-05T11:53:37.000Z</time></trkpt>
<trkpt lat="42.188629" lon="23.585973"><ele>2615.3</ele><time>2026-04-05T11:53:38.000Z</time></trkpt>
<trkpt lat="42.188633" lon="23.585966"><ele>2615.3</ele><time>2026-04-05T11:53:39.000Z</time></trkpt>
<trkpt lat="42.188637" lon="23.585959"><ele>2615.3</ele><time>2026-04-05T11:53:40.000Z</time></trkpt>
<trkpt lat="42.188641" lon="23.585952"><ele>2615.3</ele><time>2026-04-05T11:53:41.000Z</time></trkpt>
<trkpt lat="42.188644" lon="23.585945"><ele>2616.2</ele><time>2026-04-05T11:53:42.000Z</time></trkpt>
<trkpt lat="42.188648" lon="23.585938"><ele>2616.2</ele><time>2026-04-05T11:53:43.000Z</time></trkpt>
<trkpt lat="42.188652" lon="23.58593"><ele>2616.2</ele><time>2026-04-05T11:53:44.000Z</time></trkpt>
<trkpt lat="42.188655" lon="23.585924"><ele>2616.2</ele><time>2026-04-05T11:53:45.000Z</time></trkpt>
<trkpt lat="42.18866" lon="23.585917"><ele>2616.2</ele><time>2026-04-05T11:53:46.000Z</time></trkpt>
<trkpt lat="42.188664" lon="23.585911"><ele>2617.3</ele><time>2026-04-05T11:53:47.000Z</time></trkpt>
<trkpt lat="42.188669" lon="23.585906"><ele>2617.3</ele><time>2026-04-05T11:53:48.000Z</time></trkpt>
<trkpt lat="42.188673" lon="23.5859"><ele>2617.3</ele><time>2026-04-05T11:53:49.000Z</time></trkpt>
<trkpt lat="42.188676" lon="23.585893"><ele>2617.3</ele><time>2026-04-05T11:53:50.000Z</time></trkpt>
<trkpt lat="42.188677" lon="23.585885"><ele>2617.3</ele><time>2026-04-05T11:53:51.000Z</time></trkpt>
<trkpt lat="42.188678" lon="23.585877"><ele>2617.8</ele><time>2026-04-05T11:53:52.000Z</time></trkpt>
<trkpt lat="42.188678" lon="23.585869"><ele>2617.8</ele><time>2026-04-05T11:53:53.000Z</time></trkpt>
<trkpt lat="42.188677" lon="23.58586"><ele>2617.8</ele><time>2026-04-05T11:53:54.000Z</time></trkpt>
<trkpt lat="42.188678" lon="23.585853"><ele>2617.8</ele><time>2026-04-05T11:53:55.000Z</time></trkpt>
<trkpt lat="42.188681" lon="23.585845"><ele>2617.8</ele><time>2026-04-05T11:53:56.000Z</time></trkpt>
<trkpt lat="42.188686" lon="23.585837"><ele>2618.9</ele><time>2026-04-05T11:53:57.000Z</time></trkpt>
<trkpt lat="42.188693" lon="23.58583"><ele>2618.9</ele><time>2026-04-05T11:53:58.000Z</time></trkpt>
<trkpt lat="42.1887" lon="23.585823"><ele>2618.9</ele><time>2026-04-05T11:53:59.000Z</time></trkpt>
<trkpt lat="42.188707" lon="23.585816"><ele>2618.9</ele><time>2026-04-05T11:54:00.000Z</time></trkpt>
<trkpt lat="42.188714" lon="23.585809"><ele>2618.9</ele><time>2026-04-05T11:54:01.000Z</time></trkpt>
<trkpt lat="42.188719" lon="23.585802"><ele>2619.9</ele><time>2026-04-05T11:54:02.000Z</time></trkpt>
<trkpt lat="42.188724" lon="23.585795"><ele>2619.9</ele><time>2026-04-05T11:54:03.000Z</time></trkpt>
<trkpt lat="42.188731" lon="23.585788"><ele>2619.9</ele><time>2026-04-05T11:54:04.000Z</time></trkpt>
<trkpt lat="42.188738" lon="23.585781"><ele>2619.9</ele><time>2026-04-05T11:54:05.000Z</time></trkpt>
<trkpt lat="42.188744" lon="23.585774"><ele>2619.9</ele><time>2026-04-05T11:54:06.000Z</time></trkpt>
<trkpt lat="42.188752" lon="23.585768"><ele>2620.3</ele><time>2026-04-05T11:54:07.000Z</time></trkpt>
<trkpt lat="42.188758" lon="23.585764"><ele>2620.3</ele><time>2026-04-05T11:54:08.000Z</time></trkpt>
<trkpt lat="42.188762" lon="23.585761"><ele>2620.3</ele><time>2026-04-05T11:54:09.000Z</time></trkpt>
<trkpt lat="42.188765" lon="23.585759"><ele>2620.3</ele><time>2026-04-05T11:54:10.000Z</time></trkpt>
<trkpt lat="42.188766" lon="23.585759"><ele>2620.3</ele><time>2026-04-05T11:54:11.000Z</time></trkpt>
<trkpt lat="42.188765" lon="23.58576"><ele>2621</ele><time>2026-04-05T11:54:12.000Z</time></trkpt>
<trkpt lat="42.188765" lon="23.585761"><ele>2621</ele><time>2026-04-05T11:54:13.000Z</time></trkpt>
<trkpt lat="42.188766" lon="23.585761"><ele>2621</ele><time>2026-04-05T11:54:14.000Z</time></trkpt>
<trkpt lat="42.188768" lon="23.585759"><ele>2621</ele><time>2026-04-05T11:54:15.000Z</time></trkpt>
<trkpt lat="42.188771" lon="23.585757"><ele>2621</ele><time>2026-04-05T11:54:16.000Z</time></trkpt>
<trkpt lat="42.188776" lon="23.585752"><ele>2621.3</ele><time>2026-04-05T11:54:17.000Z</time></trkpt>
<trkpt lat="42.188784" lon="23.585746"><ele>2621.3</ele><time>2026-04-05T11:54:18.000Z</time></trkpt>
<trkpt lat="42.188791" lon="23.58574"><ele>2621.3</ele><time>2026-04-05T11:54:19.000Z</time></trkpt>
<trkpt lat="42.1888" lon="23.585732"><ele>2621.3</ele><time>2026-04-05T11:54:20.000Z</time></trkpt>
<trkpt lat="42.188808" lon="23.585725"><ele>2621.3</ele><time>2026-04-05T11:54:21.000Z</time></trkpt>
<trkpt lat="42.188815" lon="23.585719"><ele>2621.4</ele><time>2026-04-05T11:54:22.000Z</time></trkpt>
<trkpt lat="42.188824" lon="23.585713"><ele>2621.4</ele><time>2026-04-05T11:54:23.000Z</time></trkpt>
<trkpt lat="42.188832" lon="23.585707"><ele>2621.4</ele><time>2026-04-05T11:54:24.000Z</time></trkpt>
<trkpt lat="42.18884" lon="23.585702"><ele>2621.4</ele><time>2026-04-05T11:54:25.000Z</time></trkpt>
<trkpt lat="42.188849" lon="23.585697"><ele>2621.4</ele><time>2026-04-05T11:54:26.000Z</time></trkpt>
<trkpt lat="42.188858" lon="23.585691"><ele>2621.4</ele><time>2026-04-05T11:54:27.000Z</time></trkpt>
<trkpt lat="42.188865" lon="23.585687"><ele>2621.4</ele><time>2026-04-05T11:54:28.000Z</time></trkpt>
<trkpt lat="42.188873" lon="23.585681"><ele>2621.4</ele><time>2026-04-05T11:54:29.000Z</time></trkpt>
<trkpt lat="42.18888" lon="23.585675"><ele>2621.4</ele><time>2026-04-05T11:54:30.000Z</time></trkpt>
<trkpt lat="42.188888" lon="23.585669"><ele>2621.4</ele><time>2026-04-05T11:54:31.000Z</time></trkpt>
<trkpt lat="42.188895" lon="23.585664"><ele>2621.2</ele><time>2026-04-05T11:54:32.000Z</time></trkpt>
<trkpt lat="42.188903" lon="23.585658"><ele>2621.2</ele><time>2026-04-05T11:54:33.000Z</time></trkpt>
<trkpt lat="42.188911" lon="23.585653"><ele>2621.2</ele><time>2026-04-05T11:54:34.000Z</time></trkpt>
<trkpt lat="42.188919" lon="23.58565"><ele>2621.2</ele><time>2026-04-05T11:54:35.000Z</time></trkpt>
<trkpt lat="42.188927" lon="23.585648"><ele>2621.2</ele><time>2026-04-05T11:54:36.000Z</time></trkpt>
<trkpt lat="42.188934" lon="23.585645"><ele>2621</ele><time>2026-04-05T11:54:37.000Z</time></trkpt>
<trkpt lat="42.188941" lon="23.585644"><ele>2621</ele><time>2026-04-05T11:54:38.000Z</time></trkpt>
<trkpt lat="42.188947" lon="23.585642"><ele>2621</ele><time>2026-04-05T11:54:39.000Z</time></trkpt>
<trkpt lat="42.188954" lon="23.585642"><ele>2621</ele><time>2026-04-05T11:54:40.000Z</time></trkpt>
<trkpt lat="42.18896" lon="23.585642"><ele>2621</ele><time>2026-04-05T11:54:41.000Z</time></trkpt>
<trkpt lat="42.188967" lon="23.585642"><ele>2620.1</ele><time>2026-04-05T11:54:42.000Z</time></trkpt>
<trkpt lat="42.188974" lon="23.585643"><ele>2620.1</ele><time>2026-04-05T11:54:43.000Z</time></trkpt>
<trkpt lat="42.188983" lon="23.585643"><ele>2620.1</ele><time>2026-04-05T11:54:44.000Z</time></trkpt>
<trkpt lat="42.188992" lon="23.585642"><ele>2620.1</ele><time>2026-04-05T11:54:45.000Z</time></trkpt>
<trkpt lat="42.189003" lon="23.58564"><ele>2620.1</ele><time>2026-04-05T11:54:46.000Z</time></trkpt>
<trkpt lat="42.189015" lon="23.585635"><ele>2618.7</ele><time>2026-04-05T11:54:47.000Z</time></trkpt>
<trkpt lat="42.189028" lon="23.585631"><ele>2618.7</ele><time>2026-04-05T11:54:48.000Z</time></trkpt>
<trkpt lat="42.189039" lon="23.585626"><ele>2618.7</ele><time>2026-04-05T11:54:49.000Z</time></trkpt>
<trkpt lat="42.189049" lon="23.58562"><ele>2618.7</ele><time>2026-04-05T11:54:50.000Z</time></trkpt>
<trkpt lat="42.189057" lon="23.585613"><ele>2618.7</ele><time>2026-04-05T11:54:51.000Z</time></trkpt>
<trkpt lat="42.189063" lon="23.585605"><ele>2617.9</ele><time>2026-04-05T11:54:52.000Z</time></trkpt>
<trkpt lat="42.189067" lon="23.585597"><ele>2617.9</ele><time>2026-04-05T11:54:53.000Z</time></trkpt>
<trkpt lat="42.189073" lon="23.585588"><ele>2617.9</ele><time>2026-04-05T11:54:54.000Z</time></trkpt>
<trkpt lat="42.189079" lon="23.585579"><ele>2617.9</ele><time>2026-04-05T11:54:55.000Z</time></trkpt>
<trkpt lat="42.189086" lon="23.585572"><ele>2617.9</ele><time>2026-04-05T11:54:56.000Z</time></trkpt>
<trkpt lat="42.189094" lon="23.585567"><ele>2616.6</ele><time>2026-04-05T11:54:57.000Z</time></trkpt>
<trkpt lat="42.189104" lon="23.585563"><ele>2616.6</ele><time>2026-04-05T11:54:58.000Z</time></trkpt>
<trkpt lat="42.189115" lon="23.58556"><ele>2616.6</ele><time>2026-04-05T11:54:59.000Z</time></trkpt>
<trkpt lat="42.189125" lon="23.585558"><ele>2616.6</ele><time>2026-04-05T11:55:00.000Z</time></trkpt>
<trkpt lat="42.189134" lon="23.585557"><ele>2616.6</ele><time>2026-04-05T11:55:01.000Z</time></trkpt>
<trkpt lat="42.189144" lon="23.585555"><ele>2615.7</ele><time>2026-04-05T11:55:02.000Z</time></trkpt>
<trkpt lat="42.189154" lon="23.585554"><ele>2615.7</ele><time>2026-04-05T11:55:03.000Z</time></trkpt>
<trkpt lat="42.189165" lon="23.585554"><ele>2615.7</ele><time>2026-04-05T11:55:04.000Z</time></trkpt>
<trkpt lat="42.189176" lon="23.585553"><ele>2615.7</ele><time>2026-04-05T11:55:05.000Z</time></trkpt>
<trkpt lat="42.189188" lon="23.585552"><ele>2615.7</ele><time>2026-04-05T11:55:06.000Z</time></trkpt>
<trkpt lat="42.1892" lon="23.585552"><ele>2615.5</ele><time>2026-04-05T11:55:07.000Z</time></trkpt>
<trkpt lat="42.189212" lon="23.585551"><ele>2615.5</ele><time>2026-04-05T11:55:08.000Z</time></trkpt>
<trkpt lat="42.189222" lon="23.585549"><ele>2615.5</ele><time>2026-04-05T11:55:09.000Z</time></trkpt>
<trkpt lat="42.189232" lon="23.585548"><ele>2615.5</ele><time>2026-04-05T11:55:10.000Z</time></trkpt>
<trkpt lat="42.189243" lon="23.585546"><ele>2615.5</ele><time>2026-04-05T11:55:11.000Z</time></trkpt>
<trkpt lat="42.189253" lon="23.585544"><ele>2615.3</ele><time>2026-04-05T11:55:12.000Z</time></trkpt>
<trkpt lat="42.189263" lon="23.585543"><ele>2615.3</ele><time>2026-04-05T11:55:13.000Z</time></trkpt>
<trkpt lat="42.189274" lon="23.585543"><ele>2615.3</ele><time>2026-04-05T11:55:14.000Z</time></trkpt>
<trkpt lat="42.189284" lon="23.585541"><ele>2615.3</ele><time>2026-04-05T11:55:15.000Z</time></trkpt>
<trkpt lat="42.189294" lon="23.585539"><ele>2615.3</ele><time>2026-04-05T11:55:16.000Z</time></trkpt>
<trkpt lat="42.189305" lon="23.585535"><ele>2615.4</ele><time>2026-04-05T11:55:17.000Z</time></trkpt>
<trkpt lat="42.189316" lon="23.58553"><ele>2615.4</ele><time>2026-04-05T11:55:18.000Z</time></trkpt>
<trkpt lat="42.189326" lon="23.585523"><ele>2615.4</ele><time>2026-04-05T11:55:19.000Z</time></trkpt>
<trkpt lat="42.189337" lon="23.585516"><ele>2615.4</ele><time>2026-04-05T11:55:20.000Z</time></trkpt>
<trkpt lat="42.189348" lon="23.58551"><ele>2615.4</ele><time>2026-04-05T11:55:21.000Z</time></trkpt>
<trkpt lat="42.189358" lon="23.585504"><ele>2615.4</ele><time>2026-04-05T11:55:22.000Z</time></trkpt>
<trkpt lat="42.189368" lon="23.585499"><ele>2615.4</ele><time>2026-04-05T11:55:23.000Z</time></trkpt>
<trkpt lat="42.189379" lon="23.585494"><ele>2615.4</ele><time>2026-04-05T11:55:24.000Z</time></trkpt>
<trkpt lat="42.189389" lon="23.58549"><ele>2615.4</ele><time>2026-04-05T11:55:25.000Z</time></trkpt>
<trkpt lat="42.1894" lon="23.585485"><ele>2615.4</ele><time>2026-04-05T11:55:26.000Z</time></trkpt>
<trkpt lat="42.18941" lon="23.585478"><ele>2615.3</ele><time>2026-04-05T11:55:27.000Z</time></trkpt>
<trkpt lat="42.189421" lon="23.585469"><ele>2615.3</ele><time>2026-04-05T11:55:28.000Z</time></trkpt>
<trkpt lat="42.189431" lon="23.58546"><ele>2615.3</ele><time>2026-04-05T11:55:29.000Z</time></trkpt>
<trkpt lat="42.189442" lon="23.585452"><ele>2615.3</ele><time>2026-04-05T11:55:30.000Z</time></trkpt>
<trkpt lat="42.189452" lon="23.585445"><ele>2615.3</ele><time>2026-04-05T11:55:31.000Z</time></trkpt>
<trkpt lat="42.189462" lon="23.585438"><ele>2614.8</ele><time>2026-04-05T11:55:32.000Z</time></trkpt>
<trkpt lat="42.189472" lon="23.585433"><ele>2614.8</ele><time>2026-04-05T11:55:33.000Z</time></trkpt>
<trkpt lat="42.189481" lon="23.585428"><ele>2614.8</ele><time>2026-04-05T11:55:34.000Z</time></trkpt>
<trkpt lat="42.189491" lon="23.585422"><ele>2614.8</ele><time>2026-04-05T11:55:35.000Z</time></trkpt>
<trkpt lat="42.1895" lon="23.585417"><ele>2614.8</ele><time>2026-04-05T11:55:36.000Z</time></trkpt>
<trkpt lat="42.189509" lon="23.585412"><ele>2614.4</ele><time>2026-04-05T11:55:37.000Z</time></trkpt>
<trkpt lat="42.189517" lon="23.585407"><ele>2614.4</ele><time>2026-04-05T11:55:38.000Z</time></trkpt>
<trkpt lat="42.189524" lon="23.585402"><ele>2614.4</ele><time>2026-04-05T11:55:39.000Z</time></trkpt>
<trkpt lat="42.18953" lon="23.585397"><ele>2614.4</ele><time>2026-04-05T11:55:40.000Z</time></trkpt>
<trkpt lat="42.189537" lon="23.585392"><ele>2614.4</ele><time>2026-04-05T11:55:41.000Z</time></trkpt>
<trkpt lat="42.189544" lon="23.585388"><ele>2613.6</ele><time>2026-04-05T11:55:42.000Z</time></trkpt>
<trkpt lat="42.18955" lon="23.585385"><ele>2613.6</ele><time>2026-04-05T11:55:43.000Z</time></trkpt>
<trkpt lat="42.189557" lon="23.585383"><ele>2613.6</ele><time>2026-04-05T11:55:44.000Z</time></trkpt>
<trkpt lat="42.189564" lon="23.585382"><ele>2613.6</ele><time>2026-04-05T11:55:45.000Z</time></trkpt>
<trkpt lat="42.189571" lon="23.58538"><ele>2613.6</ele><time>2026-04-05T11:55:46.000Z</time></trkpt>
<trkpt lat="42.189578" lon="23.585377"><ele>2612.8</ele><time>2026-04-05T11:55:47.000Z</time></trkpt>
<trkpt lat="42.189584" lon="23.585373"><ele>2612.8</ele><time>2026-04-05T11:55:48.000Z</time></trkpt>
<trkpt lat="42.18959" lon="23.585368"><ele>2612.8</ele><time>2026-04-05T11:55:49.000Z</time></trkpt>
<trkpt lat="42.189596" lon="23.585361"><ele>2612.8</ele><time>2026-04-05T11:55:50.000Z</time></trkpt>
<trkpt lat="42.189602" lon="23.585354"><ele>2612.8</ele><time>2026-04-05T11:55:51.000Z</time></trkpt>
<trkpt lat="42.189608" lon="23.585348"><ele>2612.2</ele><time>2026-04-05T11:55:52.000Z</time></trkpt>
<trkpt lat="42.189614" lon="23.585341"><ele>2612.2</ele><time>2026-04-05T11:55:53.000Z</time></trkpt>
<trkpt lat="42.18962" lon="23.585336"><ele>2612.2</ele><time>2026-04-05T11:55:54.000Z</time></trkpt>
<trkpt lat="42.189627" lon="23.585332"><ele>2612.2</ele><time>2026-04-05T11:55:55.000Z</time></trkpt>
<trkpt lat="42.189634" lon="23.585328"><ele>2612.2</ele><time>2026-04-05T11:55:56.000Z</time></trkpt>
<trkpt lat="42.189643" lon="23.585325"><ele>2610.9</ele><time>2026-04-05T11:55:57.000Z</time></trkpt>
<trkpt lat="42.189651" lon="23.585322"><ele>2610.9</ele><time>2026-04-05T11:55:58.000Z</time></trkpt>
<trkpt lat="42.18966" lon="23.585319"><ele>2610.9</ele><time>2026-04-05T11:55:59.000Z</time></trkpt>
<trkpt lat="42.18967" lon="23.585317"><ele>2610.9</ele><time>2026-04-05T11:56:00.000Z</time></trkpt>
<trkpt lat="42.18968" lon="23.585315"><ele>2610.9</ele><time>2026-04-05T11:56:01.000Z</time></trkpt>
<trkpt lat="42.18969" lon="23.585313"><ele>2609.4</ele><time>2026-04-05T11:56:02.000Z</time></trkpt>
<trkpt lat="42.189702" lon="23.585312"><ele>2609.4</ele><time>2026-04-05T11:56:03.000Z</time></trkpt>
<trkpt lat="42.189713" lon="23.585311"><ele>2609.4</ele><time>2026-04-05T11:56:04.000Z</time></trkpt>
<trkpt lat="42.189724" lon="23.585309"><ele>2609.4</ele><time>2026-04-05T11:56:05.000Z</time></trkpt>
<trkpt lat="42.189736" lon="23.585307"><ele>2609.4</ele><time>2026-04-05T11:56:06.000Z</time></trkpt>
<trkpt lat="42.189746" lon="23.585305"><ele>2608.7</ele><time>2026-04-05T11:56:07.000Z</time></trkpt>
<trkpt lat="42.189757" lon="23.585302"><ele>2608.7</ele><time>2026-04-05T11:56:08.000Z</time></trkpt>
<trkpt lat="42.189767" lon="23.585299"><ele>2608.7</ele><time>2026-04-05T11:56:09.000Z</time></trkpt>
<trkpt lat="42.189777" lon="23.585295"><ele>2608.7</ele><time>2026-04-05T11:56:10.000Z</time></trkpt>
<trkpt lat="42.189787" lon="23.585292"><ele>2608.7</ele><time>2026-04-05T11:56:11.000Z</time></trkpt>
<trkpt lat="42.189797" lon="23.585289"><ele>2607.3</ele><time>2026-04-05T11:56:12.000Z</time></trkpt>
<trkpt lat="42.189806" lon="23.585286"><ele>2607.3</ele><time>2026-04-05T11:56:13.000Z</time></trkpt>
<trkpt lat="42.189814" lon="23.585284"><ele>2607.3</ele><time>2026-04-05T11:56:14.000Z</time></trkpt>
<trkpt lat="42.189822" lon="23.585282"><ele>2607.3</ele><time>2026-04-05T11:56:15.000Z</time></trkpt>
<trkpt lat="42.18983" lon="23.58528"><ele>2607.3</ele><time>2026-04-05T11:56:16.000Z</time></trkpt>
<trkpt lat="42.189837" lon="23.585279"><ele>2606.1</ele><time>2026-04-05T11:56:17.000Z</time></trkpt>
<trkpt lat="42.189843" lon="23.585278"><ele>2606.1</ele><time>2026-04-05T11:56:18.000Z</time></trkpt>
<trkpt lat="42.189851" lon="23.585277"><ele>2606.1</ele><time>2026-04-05T11:56:19.000Z</time></trkpt>
<trkpt lat="42.189859" lon="23.585277"><ele>2606.1</ele><time>2026-04-05T11:56:20.000Z</time></trkpt>
<trkpt lat="42.189866" lon="23.585276"><ele>2606.1</ele><time>2026-04-05T11:56:21.000Z</time></trkpt>
<trkpt lat="42.189874" lon="23.585276"><ele>2605.5</ele><time>2026-04-05T11:56:22.000Z</time></trkpt>
<trkpt lat="42.189881" lon="23.585276"><ele>2605.5</ele><time>2026-04-05T11:56:23.000Z</time></trkpt>
<trkpt lat="42.189888" lon="23.585275"><ele>2605.5</ele><time>2026-04-05T11:56:24.000Z</time></trkpt>
<trkpt lat="42.189894" lon="23.585275"><ele>2605.5</ele><time>2026-04-05T11:56:25.000Z</time></trkpt>
<trkpt lat="42.189899" lon="23.585276"><ele>2605.5</ele><time>2026-04-05T11:56:26.000Z</time></trkpt>
<trkpt lat="42.189904" lon="23.585275"><ele>2604.4</ele><time>2026-04-05T11:56:27.000Z</time></trkpt>
<trkpt lat="42.189909" lon="23.585274"><ele>2604.4</ele><time>2026-04-05T11:56:28.000Z</time></trkpt>
<trkpt lat="42.189913" lon="23.585272"><ele>2604.4</ele><time>2026-04-05T11:56:29.000Z</time></trkpt>
<trkpt lat="42.189917" lon="23.585268"><ele>2604.4</ele><time>2026-04-05T11:56:30.000Z</time></trkpt>
<trkpt lat="42.189922" lon="23.585264"><ele>2604.4</ele><time>2026-04-05T11:56:31.000Z</time></trkpt>
<trkpt lat="42.189926" lon="23.585261"><ele>2603.2</ele><time>2026-04-05T11:56:32.000Z</time></trkpt>
<trkpt lat="42.189929" lon="23.585259"><ele>2603.2</ele><time>2026-04-05T11:56:33.000Z</time></trkpt>
<trkpt lat="42.189932" lon="23.585257"><ele>2603.2</ele><time>2026-04-05T11:56:34.000Z</time></trkpt>
<trkpt lat="42.189934" lon="23.585255"><ele>2603.2</ele><time>2026-04-05T11:56:35.000Z</time></trkpt>
<trkpt lat="42.189937" lon="23.585254"><ele>2603.2</ele><time>2026-04-05T11:56:36.000Z</time></trkpt>
<trkpt lat="42.18994" lon="23.585252"><ele>2602.5</ele><time>2026-04-05T11:56:37.000Z</time></trkpt>
<trkpt lat="42.189944" lon="23.585249"><ele>2602.5</ele><time>2026-04-05T11:56:38.000Z</time></trkpt>
<trkpt lat="42.189948" lon="23.585246"><ele>2602.5</ele><time>2026-04-05T11:56:39.000Z</time></trkpt>
<trkpt lat="42.189952" lon="23.585242"><ele>2602.5</ele><time>2026-04-05T11:56:40.000Z</time></trkpt>
<trkpt lat="42.189956" lon="23.585236"><ele>2602.5</ele><time>2026-04-05T11:56:41.000Z</time></trkpt>
<trkpt lat="42.189961" lon="23.585231"><ele>2601.2</ele><time>2026-04-05T11:56:42.000Z</time></trkpt>
<trkpt lat="42.189965" lon="23.585226"><ele>2601.2</ele><time>2026-04-05T11:56:43.000Z</time></trkpt>
<trkpt lat="42.189969" lon="23.585223"><ele>2601.2</ele><time>2026-04-05T11:56:44.000Z</time></trkpt>
<trkpt lat="42.189972" lon="23.58522"><ele>2601.2</ele><time>2026-04-05T11:56:45.000Z</time></trkpt>
<trkpt lat="42.189976" lon="23.585218"><ele>2601.2</ele><time>2026-04-05T11:56:46.000Z</time></trkpt>
<trkpt lat="42.189979" lon="23.585216"><ele>2600</ele><time>2026-04-05T11:56:47.000Z</time></trkpt>
<trkpt lat="42.189985" lon="23.585211"><ele>2600</ele><time>2026-04-05T11:56:48.000Z</time></trkpt>
<trkpt lat="42.189993" lon="23.585206"><ele>2600</ele><time>2026-04-05T11:56:49.000Z</time></trkpt>
<trkpt lat="42.190002" lon="23.585201"><ele>2600</ele><time>2026-04-05T11:56:50.000Z</time></trkpt>
<trkpt lat="42.190011" lon="23.585196"><ele>2600</ele><time>2026-04-05T11:56:51.000Z</time></trkpt>
<trkpt lat="42.190019" lon="23.585191"><ele>2599.5</ele><time>2026-04-05T11:56:52.000Z</time></trkpt>
<trkpt lat="42.190026" lon="23.585187"><ele>2599.5</ele><time>2026-04-05T11:56:53.000Z</time></trkpt>
<trkpt lat="42.190032" lon="23.585182"><ele>2599.5</ele><time>2026-04-05T11:56:54.000Z</time></trkpt>
<trkpt lat="42.190037" lon="23.585177"><ele>2599.5</ele><time>2026-04-05T11:56:55.000Z</time></trkpt>
<trkpt lat="42.190041" lon="23.58517"><ele>2599.5</ele><time>2026-04-05T11:56:56.000Z</time></trkpt>
<trkpt lat="42.190045" lon="23.585162"><ele>2598.5</ele><time>2026-04-05T11:56:57.000Z</time></trkpt>
<trkpt lat="42.190049" lon="23.585154"><ele>2598.5</ele><time>2026-04-05T11:56:58.000Z</time></trkpt>
<trkpt lat="42.190052" lon="23.585146"><ele>2598.5</ele><time>2026-04-05T11:56:59.000Z</time></trkpt>
<trkpt lat="42.190055" lon="23.585139"><ele>2598.5</ele><time>2026-04-05T11:57:00.000Z</time></trkpt>
<trkpt lat="42.190058" lon="23.585133"><ele>2598.5</ele><time>2026-04-05T11:57:01.000Z</time></trkpt>
<trkpt lat="42.190062" lon="23.58513"><ele>2597</ele><time>2026-04-05T11:57:02.000Z</time></trkpt>
<trkpt lat="42.190065" lon="23.585126"><ele>2597</ele><time>2026-04-05T11:57:03.000Z</time></trkpt>
<trkpt lat="42.19007" lon="23.585122"><ele>2597</ele><time>2026-04-05T11:57:04.000Z</time></trkpt>
<trkpt lat="42.190077" lon="23.58512"><ele>2597</ele><time>2026-04-05T11:57:05.000Z</time></trkpt>
<trkpt lat="42.190083" lon="23.585118"><ele>2597</ele><time>2026-04-05T11:57:06.000Z</time></trkpt>
<trkpt lat="42.19009" lon="23.585116"><ele>2596.2</ele><time>2026-04-05T11:57:07.000Z</time></trkpt>
<trkpt lat="42.190097" lon="23.585117"><ele>2596.2</ele><time>2026-04-05T11:57:08.000Z</time></trkpt>
<trkpt lat="42.190104" lon="23.58512"><ele>2596.2</ele><time>2026-04-05T11:57:09.000Z</time></trkpt>
<trkpt lat="42.190109" lon="23.585124"><ele>2596.2</ele><time>2026-04-05T11:57:10.000Z</time></trkpt>
<trkpt lat="42.190114" lon="23.585127"><ele>2596.2</ele><time>2026-04-05T11:57:11.000Z</time></trkpt>
<trkpt lat="42.190118" lon="23.585129"><ele>2594.6</ele><time>2026-04-05T11:57:12.000Z</time></trkpt>
<trkpt lat="42.190122" lon="23.585131"><ele>2594.6</ele><time>2026-04-05T11:57:13.000Z</time></trkpt>
<trkpt lat="42.190126" lon="23.585132"><ele>2594.6</ele><time>2026-04-05T11:57:14.000Z</time></trkpt>
<trkpt lat="42.190129" lon="23.585134"><ele>2594.6</ele><time>2026-04-05T11:57:15.000Z</time></trkpt>
<trkpt lat="42.190132" lon="23.585137"><ele>2594.6</ele><time>2026-04-05T11:57:16.000Z</time></trkpt>
<trkpt lat="42.190135" lon="23.585138"><ele>2593.2</ele><time>2026-04-05T11:57:17.000Z</time></trkpt>
<trkpt lat="42.190138" lon="23.585139"><ele>2593.2</ele><time>2026-04-05T11:57:18.000Z</time></trkpt>
<trkpt lat="42.190142" lon="23.585139"><ele>2593.2</ele><time>2026-04-05T11:57:19.000Z</time></trkpt>
<trkpt lat="42.190144" lon="23.585138"><ele>2593.2</ele><time>2026-04-05T11:57:20.000Z</time></trkpt>
<trkpt lat="42.190146" lon="23.585135"><ele>2593.2</ele><time>2026-04-05T11:57:21.000Z</time></trkpt>
<trkpt lat="42.190148" lon="23.585131"><ele>2592.6</ele><time>2026-04-05T11:57:22.000Z</time></trkpt>
<trkpt lat="42.19015" lon="23.585125"><ele>2592.6</ele><time>2026-04-05T11:57:23.000Z</time></trkpt>
<trkpt lat="42.190152" lon="23.585119"><ele>2592.6</ele><time>2026-04-05T11:57:24.000Z</time></trkpt>
<trkpt lat="42.190155" lon="23.585111"><ele>2592.6</ele><time>2026-04-05T11:57:25.000Z</time></trkpt>
<trkpt lat="42.190157" lon="23.585103"><ele>2592.6</ele><time>2026-04-05T11:57:26.000Z</time></trkpt>
<trkpt lat="42.19016" lon="23.585096"><ele>2591.5</ele><time>2026-04-05T11:57:27.000Z</time></trkpt>
<trkpt lat="42.190162" lon="23.585089"><ele>2591.5</ele><time>2026-04-05T11:57:28.000Z</time></trkpt>
<trkpt lat="42.190165" lon="23.585082"><ele>2591.5</ele><time>2026-04-05T11:57:29.000Z</time></trkpt>
<trkpt lat="42.190167" lon="23.585075"><ele>2591.5</ele><time>2026-04-05T11:57:30.000Z</time></trkpt>
<trkpt lat="42.190169" lon="23.585068"><ele>2591.5</ele><time>2026-04-05T11:57:31.000Z</time></trkpt>
<trkpt lat="42.190171" lon="23.585063"><ele>2590.4</ele><time>2026-04-05T11:57:32.000Z</time></trkpt>
<trkpt lat="42.190173" lon="23.585058"><ele>2590.4</ele><time>2026-04-05T11:57:33.000Z</time></trkpt>
<trkpt lat="42.190175" lon="23.585053"><ele>2590.4</ele><time>2026-04-05T11:57:34.000Z</time></trkpt>
<trkpt lat="42.190178" lon="23.585048"><ele>2590.4</ele><time>2026-04-05T11:57:35.000Z</time></trkpt>
<trkpt lat="42.19018" lon="23.585043"><ele>2590.4</ele><time>2026-04-05T11:57:36.000Z</time></trkpt>
<trkpt lat="42.190184" lon="23.585039"><ele>2589.8</ele><time>2026-04-05T11:57:37.000Z</time></trkpt>
<trkpt lat="42.190187" lon="23.585036"><ele>2589.8</ele><time>2026-04-05T11:57:38.000Z</time></trkpt>
<trkpt lat="42.19019" lon="23.585034"><ele>2589.8</ele><time>2026-04-05T11:57:39.000Z</time></trkpt>
<trkpt lat="42.190194" lon="23.585031"><ele>2589.8</ele><time>2026-04-05T11:57:40.000Z</time></trkpt>
<trkpt lat="42.190199" lon="23.585029"><ele>2589.8</ele><time>2026-04-05T11:57:41.000Z</time></trkpt>
<trkpt lat="42.190204" lon="23.585026"><ele>2588.3</ele><time>2026-04-05T11:57:42.000Z</time></trkpt>
<trkpt lat="42.190209" lon="23.585021"><ele>2588.3</ele><time>2026-04-05T11:57:43.000Z</time></trkpt>
<trkpt lat="42.190215" lon="23.585016"><ele>2588.3</ele><time>2026-04-05T11:57:44.000Z</time></trkpt>
<trkpt lat="42.19022" lon="23.585011"><ele>2588.3</ele><time>2026-04-05T11:57:45.000Z</time></trkpt>
<trkpt lat="42.190226" lon="23.585005"><ele>2588.3</ele><time>2026-04-05T11:57:46.000Z</time></trkpt>
<trkpt lat="42.190232" lon="23.585"><ele>2586.6</ele><time>2026-04-05T11:57:47.000Z</time></trkpt>
<trkpt lat="42.190238" lon="23.584994"><ele>2586.6</ele><time>2026-04-05T11:57:48.000Z</time></trkpt>
<trkpt lat="42.190244" lon="23.584988"><ele>2586.6</ele><time>2026-04-05T11:57:49.000Z</time></trkpt>
<trkpt lat="42.19025" lon="23.584982"><ele>2586.6</ele><time>2026-04-05T11:57:50.000Z</time></trkpt>
<trkpt lat="42.190255" lon="23.584976"><ele>2586.6</ele><time>2026-04-05T11:57:51.000Z</time></trkpt>
<trkpt lat="42.190259" lon="23.58497"><ele>2585.8</ele><time>2026-04-05T11:57:52.000Z</time></trkpt>
<trkpt lat="42.190264" lon="23.584964"><ele>2585.8</ele><time>2026-04-05T11:57:53.000Z</time></trkpt>
<trkpt lat="42.190268" lon="23.584961"><ele>2585.8</ele><time>2026-04-05T11:57:54.000Z</time></trkpt>
<trkpt lat="42.190272" lon="23.584956"><ele>2585.8</ele><time>2026-04-05T11:57:55.000Z</time></trkpt>
<trkpt lat="42.190277" lon="23.584951"><ele>2585.8</ele><time>2026-04-05T11:57:56.000Z</time></trkpt>
<trkpt lat="42.190283" lon="23.584946"><ele>2584.1</ele><time>2026-04-05T11:57:57.000Z</time></trkpt>
<trkpt lat="42.190288" lon="23.58494"><ele>2584.1</ele><time>2026-04-05T11:57:58.000Z</time></trkpt>
<trkpt lat="42.190294" lon="23.584932"><ele>2584.1</ele><time>2026-04-05T11:57:59.000Z</time></trkpt>
<trkpt lat="42.1903" lon="23.584924"><ele>2584.1</ele><time>2026-04-05T11:58:00.000Z</time></trkpt>
<trkpt lat="42.190305" lon="23.584915"><ele>2584.1</ele><time>2026-04-05T11:58:01.000Z</time></trkpt>
<trkpt lat="42.190312" lon="23.584906"><ele>2582.4</ele><time>2026-04-05T11:58:02.000Z</time></trkpt>
<trkpt lat="42.190317" lon="23.584896"><ele>2582.4</ele><time>2026-04-05T11:58:03.000Z</time></trkpt>
<trkpt lat="42.190322" lon="23.584885"><ele>2582.4</ele><time>2026-04-05T11:58:04.000Z</time></trkpt>
<trkpt lat="42.190328" lon="23.584876"><ele>2582.4</ele><time>2026-04-05T11:58:05.000Z</time></trkpt>
<trkpt lat="42.190334" lon="23.584867"><ele>2582.4</ele><time>2026-04-05T11:58:06.000Z</time></trkpt>
<trkpt lat="42.190339" lon="23.584858"><ele>2581.5</ele><time>2026-04-05T11:58:07.000Z</time></trkpt>
<trkpt lat="42.190346" lon="23.584849"><ele>2581.5</ele><time>2026-04-05T11:58:08.000Z</time></trkpt>
<trkpt lat="42.190352" lon="23.58484"><ele>2581.5</ele><time>2026-04-05T11:58:09.000Z</time></trkpt>
<trkpt lat="42.190358" lon="23.58483"><ele>2581.5</ele><time>2026-04-05T11:58:10.000Z</time></trkpt>
<trkpt lat="42.190364" lon="23.584819"><ele>2581.5</ele><time>2026-04-05T11:58:11.000Z</time></trkpt>
<trkpt lat="42.190371" lon="23.584808"><ele>2579.8</ele><time>2026-04-05T11:58:12.000Z</time></trkpt>
<trkpt lat="42.190377" lon="23.584798"><ele>2579.8</ele><time>2026-04-05T11:58:13.000Z</time></trkpt>
<trkpt lat="42.190383" lon="23.584788"><ele>2579.8</ele><time>2026-04-05T11:58:14.000Z</time></trkpt>
<trkpt lat="42.190389" lon="23.584777"><ele>2579.8</ele><time>2026-04-05T11:58:15.000Z</time></trkpt>
<trkpt lat="42.190395" lon="23.584767"><ele>2579.8</ele><time>2026-04-05T11:58:16.000Z</time></trkpt>
<trkpt lat="42.1904" lon="23.584759"><ele>2577.9</ele><time>2026-04-05T11:58:17.000Z</time></trkpt>
<trkpt lat="42.190406" lon="23.584751"><ele>2577.9</ele><time>2026-04-05T11:58:18.000Z</time></trkpt>
<trkpt lat="42.190412" lon="23.584743"><ele>2577.9</ele><time>2026-04-05T11:58:19.000Z</time></trkpt>
<trkpt lat="42.190418" lon="23.584736"><ele>2577.9</ele><time>2026-04-05T11:58:20.000Z</time></trkpt>
<trkpt lat="42.190425" lon="23.584729"><ele>2577.9</ele><time>2026-04-05T11:58:21.000Z</time></trkpt>
<trkpt lat="42.190432" lon="23.584721"><ele>2576.9</ele><time>2026-04-05T11:58:22.000Z</time></trkpt>
<trkpt lat="42.190439" lon="23.584712"><ele>2576.9</ele><time>2026-04-05T11:58:23.000Z</time></trkpt>
<trkpt lat="42.190446" lon="23.584702"><ele>2576.9</ele><time>2026-04-05T11:58:24.000Z</time></trkpt>
<trkpt lat="42.190453" lon="23.584691"><ele>2576.9</ele><time>2026-04-05T11:58:25.000Z</time></trkpt>
<trkpt lat="42.19046" lon="23.584679"><ele>2576.9</ele><time>2026-04-05T11:58:26.000Z</time></trkpt>
<trkpt lat="42.190469" lon="23.584667"><ele>2575.1</ele><time>2026-04-05T11:58:27.000Z</time></trkpt>
<trkpt lat="42.190478" lon="23.584654"><ele>2575.1</ele><time>2026-04-05T11:58:28.000Z</time></trkpt>
<trkpt lat="42.190487" lon="23.584642"><ele>2575.1</ele><time>2026-04-05T11:58:29.000Z</time></trkpt>
<trkpt lat="42.190497" lon="23.584631"><ele>2575.1</ele><time>2026-04-05T11:58:30.000Z</time></trkpt>
<trkpt lat="42.190506" lon="23.584621"><ele>2575.1</ele><time>2026-04-05T11:58:31.000Z</time></trkpt>
<trkpt lat="42.190514" lon="23.584611"><ele>2573.6</ele><time>2026-04-05T11:58:32.000Z</time></trkpt>
<trkpt lat="42.190522" lon="23.584601"><ele>2573.6</ele><time>2026-04-05T11:58:33.000Z</time></trkpt>
<trkpt lat="42.190531" lon="23.584592"><ele>2573.6</ele><time>2026-04-05T11:58:34.000Z</time></trkpt>
<trkpt lat="42.19054" lon="23.584581"><ele>2573.6</ele><time>2026-04-05T11:58:35.000Z</time></trkpt>
<trkpt lat="42.19055" lon="23.584571"><ele>2573.6</ele><time>2026-04-05T11:58:36.000Z</time></trkpt>
<trkpt lat="42.19056" lon="23.58456"><ele>2572.9</ele><time>2026-04-05T11:58:37.000Z</time></trkpt>
<trkpt lat="42.190571" lon="23.58455"><ele>2572.9</ele><time>2026-04-05T11:58:38.000Z</time></trkpt>
<trkpt lat="42.190582" lon="23.584541"><ele>2572.9</ele><time>2026-04-05T11:58:39.000Z</time></trkpt>
<trkpt lat="42.190593" lon="23.584531"><ele>2572.9</ele><time>2026-04-05T11:58:40.000Z</time></trkpt>
<trkpt lat="42.190603" lon="23.584521"><ele>2572.9</ele><time>2026-04-05T11:58:41.000Z</time></trkpt>
<trkpt lat="42.190613" lon="23.584512"><ele>2571.7</ele><time>2026-04-05T11:58:42.000Z</time></trkpt>
<trkpt lat="42.190621" lon="23.584502"><ele>2571.7</ele><time>2026-04-05T11:58:43.000Z</time></trkpt>
<trkpt lat="42.190628" lon="23.584491"><ele>2571.7</ele><time>2026-04-05T11:58:44.000Z</time></trkpt>
<trkpt lat="42.190635" lon="23.584482"><ele>2571.7</ele><time>2026-04-05T11:58:45.000Z</time></trkpt>
<trkpt lat="42.190641" lon="23.584471"><ele>2571.7</ele><time>2026-04-05T11:58:46.000Z</time></trkpt>
<trkpt lat="42.190649" lon="23.58446"><ele>2570.2</ele><time>2026-04-05T11:58:47.000Z</time></trkpt>
<trkpt lat="42.190657" lon="23.584449"><ele>2570.2</ele><time>2026-04-05T11:58:48.000Z</time></trkpt>
<trkpt lat="42.190665" lon="23.584438"><ele>2570.2</ele><time>2026-04-05T11:58:49.000Z</time></trkpt>
<trkpt lat="42.190675" lon="23.584427"><ele>2570.2</ele><time>2026-04-05T11:58:50.000Z</time></trkpt>
<trkpt lat="42.190685" lon="23.584416"><ele>2570.2</ele><time>2026-04-05T11:58:51.000Z</time></trkpt>
<trkpt lat="42.190694" lon="23.584406"><ele>2569.5</ele><time>2026-04-05T11:58:52.000Z</time></trkpt>
<trkpt lat="42.190704" lon="23.584397"><ele>2569.5</ele><time>2026-04-05T11:58:53.000Z</time></trkpt>
<trkpt lat="42.190712" lon="23.584387"><ele>2569.5</ele><time>2026-04-05T11:58:54.000Z</time></trkpt>
<trkpt lat="42.19072" lon="23.584379"><ele>2569.5</ele><time>2026-04-05T11:58:55.000Z</time></trkpt>
<trkpt lat="42.190726" lon="23.58437"><ele>2569.5</ele><time>2026-04-05T11:58:56.000Z</time></trkpt>
<trkpt lat="42.190733" lon="23.58436"><ele>2568</ele><time>2026-04-05T11:58:57.000Z</time></trkpt>
<trkpt lat="42.19074" lon="23.584349"><ele>2568</ele><time>2026-04-05T11:58:58.000Z</time></trkpt>
<trkpt lat="42.190746" lon="23.584338"><ele>2568</ele><time>2026-04-05T11:58:59.000Z</time></trkpt>
<trkpt lat="42.190752" lon="23.584327"><ele>2568</ele><time>2026-04-05T11:59:00.000Z</time></trkpt>
<trkpt lat="42.190758" lon="23.584315"><ele>2568</ele><time>2026-04-05T11:59:01.000Z</time></trkpt>
<trkpt lat="42.190763" lon="23.584304"><ele>2566.9</ele><time>2026-04-05T11:59:02.000Z</time></trkpt>
<trkpt lat="42.190768" lon="23.584292"><ele>2566.9</ele><time>2026-04-05T11:59:03.000Z</time></trkpt>
<trkpt lat="42.190775" lon="23.584281"><ele>2566.9</ele><time>2026-04-05T11:59:04.000Z</time></trkpt>
<trkpt lat="42.190782" lon="23.584272"><ele>2566.9</ele><time>2026-04-05T11:59:05.000Z</time></trkpt>
<trkpt lat="42.190791" lon="23.584263"><ele>2566.9</ele><time>2026-04-05T11:59:06.000Z</time></trkpt>
<trkpt lat="42.190802" lon="23.584256"><ele>2566.5</ele><time>2026-04-05T11:59:07.000Z</time></trkpt>
<trkpt lat="42.190813" lon="23.584248"><ele>2566.5</ele><time>2026-04-05T11:59:08.000Z</time></trkpt>
<trkpt lat="42.190825" lon="23.584241"><ele>2566.5</ele><time>2026-04-05T11:59:09.000Z</time></trkpt>
<trkpt lat="42.190838" lon="23.584234"><ele>2566.5</ele><time>2026-04-05T11:59:10.000Z</time></trkpt>
<trkpt lat="42.19085" lon="23.584227"><ele>2566.5</ele><time>2026-04-05T11:59:11.000Z</time></trkpt>
<trkpt lat="42.190862" lon="23.584221"><ele>2565.8</ele><time>2026-04-05T11:59:12.000Z</time></trkpt>
<trkpt lat="42.190874" lon="23.584217"><ele>2565.8</ele><time>2026-04-05T11:59:13.000Z</time></trkpt>
<trkpt lat="42.190886" lon="23.584213"><ele>2565.8</ele><time>2026-04-05T11:59:14.000Z</time></trkpt>
<trkpt lat="42.190898" lon="23.58421"><ele>2565.8</ele><time>2026-04-05T11:59:15.000Z</time></trkpt>
<trkpt lat="42.19091" lon="23.584207"><ele>2565.8</ele><time>2026-04-05T11:59:16.000Z</time></trkpt>
<trkpt lat="42.190922" lon="23.584205"><ele>2565.1</ele><time>2026-04-05T11:59:17.000Z</time></trkpt>
<trkpt lat="42.190935" lon="23.584203"><ele>2565.1</ele><time>2026-04-05T11:59:18.000Z</time></trkpt>
<trkpt lat="42.190947" lon="23.584201"><ele>2565.1</ele><time>2026-04-05T11:59:19.000Z</time></trkpt>
<trkpt lat="42.190959" lon="23.584198"><ele>2565.1</ele><time>2026-04-05T11:59:20.000Z</time></trkpt>
<trkpt lat="42.19097" lon="23.584197"><ele>2565.1</ele><time>2026-04-05T11:59:21.000Z</time></trkpt>
<trkpt lat="42.190982" lon="23.584195"><ele>2564.7</ele><time>2026-04-05T11:59:22.000Z</time></trkpt>
<trkpt lat="42.190993" lon="23.584195"><ele>2564.7</ele><time>2026-04-05T11:59:23.000Z</time></trkpt>
<trkpt lat="42.191004" lon="23.584196"><ele>2564.7</ele><time>2026-04-05T11:59:24.000Z</time></trkpt>
<trkpt lat="42.191015" lon="23.5842"><ele>2564.7</ele><time>2026-04-05T11:59:25.000Z</time></trkpt>
<trkpt lat="42.191025" lon="23.584204"><ele>2564.7</ele><time>2026-04-05T11:59:26.000Z</time></trkpt>
<trkpt lat="42.191034" lon="23.58421"><ele>2564</ele><time>2026-04-05T11:59:27.000Z</time></trkpt>
<trkpt lat="42.191043" lon="23.584217"><ele>2564</ele><time>2026-04-05T11:59:28.000Z</time></trkpt>
<trkpt lat="42.191051" lon="23.584225"><ele>2564</ele><time>2026-04-05T11:59:29.000Z</time></trkpt>
<trkpt lat="42.191059" lon="23.584234"><ele>2564</ele><time>2026-04-05T11:59:30.000Z</time></trkpt>
<trkpt lat="42.191068" lon="23.584245"><ele>2564</ele><time>2026-04-05T11:59:31.000Z</time></trkpt>
<trkpt lat="42.191076" lon="23.584256"><ele>2563.4</ele><time>2026-04-05T11:59:32.000Z</time></trkpt>
<trkpt lat="42.191083" lon="23.584267"><ele>2563.4</ele><time>2026-04-05T11:59:33.000Z</time></trkpt>
<trkpt lat="42.191091" lon="23.584278"><ele>2563.4</ele><time>2026-04-05T11:59:34.000Z</time></trkpt>
<trkpt lat="42.191099" lon="23.584289"><ele>2563.4</ele><time>2026-04-05T11:59:35.000Z</time></trkpt>
<trkpt lat="42.191106" lon="23.5843"><ele>2563.4</ele><time>2026-04-05T11:59:36.000Z</time></trkpt>
<trkpt lat="42.191115" lon="23.584311"><ele>2563.3</ele><time>2026-04-05T11:59:37.000Z</time></trkpt>
<trkpt lat="42.191123" lon="23.584322"><ele>2563.3</ele><time>2026-04-05T11:59:38.000Z</time></trkpt>
<trkpt lat="42.19113" lon="23.584332"><ele>2563.3</ele><time>2026-04-05T11:59:39.000Z</time></trkpt>
<trkpt lat="42.191137" lon="23.584342"><ele>2563.3</ele><time>2026-04-05T11:59:40.000Z</time></trkpt>
<trkpt lat="42.191143" lon="23.584351"><ele>2563.3</ele><time>2026-04-05T11:59:41.000Z</time></trkpt>
<trkpt lat="42.191149" lon="23.584362"><ele>2563.2</ele><time>2026-04-05T11:59:42.000Z</time></trkpt>
<trkpt lat="42.191155" lon="23.584374"><ele>2563.2</ele><time>2026-04-05T11:59:43.000Z</time></trkpt>
<trkpt lat="42.191161" lon="23.584388"><ele>2563.2</ele><time>2026-04-05T11:59:44.000Z</time></trkpt>
<trkpt lat="42.191167" lon="23.584401"><ele>2563.2</ele><time>2026-04-05T11:59:45.000Z</time></trkpt>
<trkpt lat="42.191174" lon="23.584414"><ele>2563.2</ele><time>2026-04-05T11:59:46.000Z</time></trkpt>
<trkpt lat="42.19118" lon="23.584426"><ele>2562.8</ele><time>2026-04-05T11:59:47.000Z</time></trkpt>
<trkpt lat="42.191186" lon="23.584435"><ele>2562.8</ele><time>2026-04-05T11:59:48.000Z</time></trkpt>
<trkpt lat="42.19119" lon="23.584443"><ele>2562.8</ele><time>2026-04-05T11:59:49.000Z</time></trkpt>
<trkpt lat="42.191194" lon="23.584449"><ele>2562.8</ele><time>2026-04-05T11:59:50.000Z</time></trkpt>
<trkpt lat="42.191197" lon="23.584455"><ele>2562.8</ele><time>2026-04-05T11:59:51.000Z</time></trkpt>
<trkpt lat="42.1912" lon="23.58446"><ele>2562.5</ele><time>2026-04-05T11:59:52.000Z</time></trkpt>
<trkpt lat="42.191204" lon="23.584467"><ele>2562.5</ele><time>2026-04-05T11:59:53.000Z</time></trkpt>
<trkpt lat="42.191207" lon="23.584475"><ele>2562.5</ele><time>2026-04-05T11:59:54.000Z</time></trkpt>
<trkpt lat="42.19121" lon="23.584484"><ele>2562.5</ele><time>2026-04-05T11:59:55.000Z</time></trkpt>
<trkpt lat="42.191214" lon="23.584492"><ele>2562.5</ele><time>2026-04-05T11:59:56.000Z</time></trkpt>
<trkpt lat="42.191217" lon="23.584501"><ele>2561.6</ele><time>2026-04-05T11:59:57.000Z</time></trkpt>
<trkpt lat="42.19122" lon="23.584511"><ele>2561.6</ele><time>2026-04-05T11:59:58.000Z</time></trkpt>
<trkpt lat="42.191224" lon="23.584519"><ele>2561.6</ele><time>2026-04-05T11:59:59.000Z</time></trkpt>
<trkpt lat="42.191228" lon="23.584528"><ele>2561.6</ele><time>2026-04-05T12:00:00.000Z</time></trkpt>
<trkpt lat="42.191232" lon="23.584538"><ele>2561.6</ele><time>2026-04-05T12:00:01.000Z</time></trkpt>
<trkpt lat="42.191236" lon="23.584547"><ele>2560.7</ele><time>2026-04-05T12:00:02.000Z</time></trkpt>
<trkpt lat="42.191239" lon="23.584555"><ele>2560.7</ele><time>2026-04-05T12:00:03.000Z</time></trkpt>
<trkpt lat="42.191242" lon="23.584564"><ele>2560.7</ele><time>2026-04-05T12:00:04.000Z</time></trkpt>
<trkpt lat="42.191244" lon="23.584573"><ele>2560.7</ele><time>2026-04-05T12:00:05.000Z</time></trkpt>
<trkpt lat="42.191247" lon="23.584583"><ele>2560.7</ele><time>2026-04-05T12:00:06.000Z</time></trkpt>
<trkpt lat="42.191249" lon="23.584592"><ele>2560.2</ele><time>2026-04-05T12:00:07.000Z</time></trkpt>
<trkpt lat="42.191252" lon="23.584601"><ele>2560.2</ele><time>2026-04-05T12:00:08.000Z</time></trkpt>
<trkpt lat="42.191254" lon="23.584611"><ele>2560.2</ele><time>2026-04-05T12:00:09.000Z</time></trkpt>
<trkpt lat="42.191257" lon="23.58462"><ele>2560.2</ele><time>2026-04-05T12:00:10.000Z</time></trkpt>
<trkpt lat="42.191259" lon="23.584629"><ele>2560.2</ele><time>2026-04-05T12:00:11.000Z</time></trkpt>
<trkpt lat="42.191262" lon="23.58464"><ele>2559.1</ele><time>2026-04-05T12:00:12.000Z</time></trkpt>
<trkpt lat="42.191265" lon="23.584649"><ele>2559.1</ele><time>2026-04-05T12:00:13.000Z</time></trkpt>
<trkpt lat="42.191267" lon="23.584658"><ele>2559.1</ele><time>2026-04-05T12:00:14.000Z</time></trkpt>
<trkpt lat="42.19127" lon="23.584666"><ele>2559.1</ele><time>2026-04-05T12:00:15.000Z</time></trkpt>
<trkpt lat="42.191272" lon="23.584676"><ele>2559.1</ele><time>2026-04-05T12:00:16.000Z</time></trkpt>
<trkpt lat="42.191273" lon="23.584687"><ele>2557.9</ele><time>2026-04-05T12:00:17.000Z</time></trkpt>
<trkpt lat="42.191274" lon="23.584698"><ele>2557.9</ele><time>2026-04-05T12:00:18.000Z</time></trkpt>
<trkpt lat="42.191276" lon="23.58471"><ele>2557.9</ele><time>2026-04-05T12:00:19.000Z</time></trkpt>
<trkpt lat="42.191277" lon="23.584722"><ele>2557.9</ele><time>2026-04-05T12:00:20.000Z</time></trkpt>
<trkpt lat="42.191279" lon="23.584733"><ele>2557.9</ele><time>2026-04-05T12:00:21.000Z</time></trkpt>
<trkpt lat="42.19128" lon="23.584742"><ele>2557.3</ele><time>2026-04-05T12:00:22.000Z</time></trkpt>
<trkpt lat="42.191282" lon="23.584749"><ele>2557.3</ele><time>2026-04-05T12:00:23.000Z</time></trkpt>
<trkpt lat="42.191284" lon="23.584757"><ele>2557.3</ele><time>2026-04-05T12:00:24.000Z</time></trkpt>
<trkpt lat="42.191286" lon="23.584765"><ele>2557.3</ele><time>2026-04-05T12:00:25.000Z</time></trkpt>
<trkpt lat="42.191287" lon="23.584772"><ele>2557.3</ele><time>2026-04-05T12:00:26.000Z</time></trkpt>
<trkpt lat="42.191289" lon="23.58478"><ele>2556</ele><time>2026-04-05T12:00:27.000Z</time></trkpt>
<trkpt lat="42.191291" lon="23.58479"><ele>2556</ele><time>2026-04-05T12:00:28.000Z</time></trkpt>
<trkpt lat="42.191293" lon="23.584799"><ele>2556</ele><time>2026-04-05T12:00:29.000Z</time></trkpt>
<trkpt lat="42.191297" lon="23.584809"><ele>2556</ele><time>2026-04-05T12:00:30.000Z</time></trkpt>
<trkpt lat="42.191302" lon="23.584821"><ele>2556</ele><time>2026-04-05T12:00:31.000Z</time></trkpt>
<trkpt lat="42.191308" lon="23.584835"><ele>2554.7</ele><time>2026-04-05T12:00:32.000Z</time></trkpt>
<trkpt lat="42.191315" lon="23.584849"><ele>2554.7</ele><time>2026-04-05T12:00:33.000Z</time></trkpt>
<trkpt lat="42.191321" lon="23.584862"><ele>2554.7</ele><time>2026-04-05T12:00:34.000Z</time></trkpt>
<trkpt lat="42.191326" lon="23.584873"><ele>2554.7</ele><time>2026-04-05T12:00:35.000Z</time></trkpt>
<trkpt lat="42.19133" lon="23.584883"><ele>2554.7</ele><time>2026-04-05T12:00:36.000Z</time></trkpt>
<trkpt lat="42.191333" lon="23.584892"><ele>2554</ele><time>2026-04-05T12:00:37.000Z</time></trkpt>
<trkpt lat="42.191336" lon="23.584899"><ele>2554</ele><time>2026-04-05T12:00:38.000Z</time></trkpt>
<trkpt lat="42.191339" lon="23.584908"><ele>2554</ele><time>2026-04-05T12:00:39.000Z</time></trkpt>
<trkpt lat="42.191341" lon="23.584916"><ele>2554</ele><time>2026-04-05T12:00:40.000Z</time></trkpt>
<trkpt lat="42.191342" lon="23.584922"><ele>2554</ele><time>2026-04-05T12:00:41.000Z</time></trkpt>
<trkpt lat="42.191344" lon="23.584931"><ele>2552.4</ele><time>2026-04-05T12:00:42.000Z</time></trkpt>
<trkpt lat="42.191346" lon="23.584939"><ele>2552.4</ele><time>2026-04-05T12:00:43.000Z</time></trkpt>
<trkpt lat="42.191348" lon="23.584946"><ele>2552.4</ele><time>2026-04-05T12:00:44.000Z</time></trkpt>
<trkpt lat="42.191351" lon="23.584953"><ele>2552.4</ele><time>2026-04-05T12:00:45.000Z</time></trkpt>
<trkpt lat="42.191354" lon="23.584959"><ele>2552.4</ele><time>2026-04-05T12:00:46.000Z</time></trkpt>
<trkpt lat="42.191357" lon="23.584965"><ele>2550.6</ele><time>2026-04-05T12:00:47.000Z</time></trkpt>
<trkpt lat="42.19136" lon="23.584971"><ele>2550.6</ele><time>2026-04-05T12:00:48.000Z</time></trkpt>
<trkpt lat="42.191363" lon="23.584979"><ele>2550.6</ele><time>2026-04-05T12:00:49.000Z</time></trkpt>
<trkpt lat="42.191367" lon="23.584987"><ele>2550.6</ele><time>2026-04-05T12:00:50.000Z</time></trkpt>
<trkpt lat="42.191371" lon="23.584995"><ele>2550.6</ele><time>2026-04-05T12:00:51.000Z</time></trkpt>
<trkpt lat="42.191375" lon="23.585003"><ele>2549.6</ele><time>2026-04-05T12:00:52.000Z</time></trkpt>
<trkpt lat="42.191379" lon="23.585011"><ele>2549.6</ele><time>2026-04-05T12:00:53.000Z</time></trkpt>
<trkpt lat="42.191383" lon="23.585017"><ele>2549.6</ele><time>2026-04-05T12:00:54.000Z</time></trkpt>
<trkpt lat="42.191386" lon="23.585022"><ele>2549.6</ele><time>2026-04-05T12:00:55.000Z</time></trkpt>
<trkpt lat="42.191389" lon="23.585029"><ele>2549.6</ele><time>2026-04-05T12:00:56.000Z</time></trkpt>
<trkpt lat="42.191392" lon="23.585035"><ele>2547.9</ele><time>2026-04-05T12:00:57.000Z</time></trkpt>
<trkpt lat="42.191394" lon="23.58504"><ele>2547.9</ele><time>2026-04-05T12:00:58.000Z</time></trkpt>
<trkpt lat="42.191396" lon="23.585048"><ele>2547.9</ele><time>2026-04-05T12:00:59.000Z</time></trkpt>
<trkpt lat="42.191399" lon="23.585055"><ele>2547.9</ele><time>2026-04-05T12:01:00.000Z</time></trkpt>
<trkpt lat="42.1914" lon="23.585062"><ele>2547.9</ele><time>2026-04-05T12:01:01.000Z</time></trkpt>
<trkpt lat="42.191402" lon="23.58507"><ele>2546.2</ele><time>2026-04-05T12:01:02.000Z</time></trkpt>
<trkpt lat="42.191405" lon="23.585077"><ele>2546.2</ele><time>2026-04-05T12:01:03.000Z</time></trkpt>
<trkpt lat="42.191407" lon="23.585083"><ele>2546.2</ele><time>2026-04-05T12:01:04.000Z</time></trkpt>
<trkpt lat="42.191408" lon="23.58509"><ele>2546.2</ele><time>2026-04-05T12:01:05.000Z</time></trkpt>
<trkpt lat="42.191409" lon="23.585097"><ele>2546.2</ele><time>2026-04-05T12:01:06.000Z</time></trkpt>
<trkpt lat="42.191411" lon="23.585104"><ele>2545.4</ele><time>2026-04-05T12:01:07.000Z</time></trkpt>
<trkpt lat="42.191412" lon="23.585111"><ele>2545.4</ele><time>2026-04-05T12:01:08.000Z</time></trkpt>
<trkpt lat="42.191414" lon="23.585119"><ele>2545.4</ele><time>2026-04-05T12:01:09.000Z</time></trkpt>
<trkpt lat="42.191416" lon="23.585126"><ele>2545.4</ele><time>2026-04-05T12:01:10.000Z</time></trkpt>
<trkpt lat="42.191418" lon="23.585132"><ele>2545.4</ele><time>2026-04-05T12:01:11.000Z</time></trkpt>
<trkpt lat="42.191419" lon="23.585136"><ele>2543.7</ele><time>2026-04-05T12:01:12.000Z</time></trkpt>
<trkpt lat="42.191421" lon="23.58514"><ele>2543.7</ele><time>2026-04-05T12:01:13.000Z</time></trkpt>
<trkpt lat="42.191422" lon="23.585141"><ele>2543.7</ele><time>2026-04-05T12:01:14.000Z</time></trkpt>
<trkpt lat="42.191424" lon="23.585142"><ele>2543.7</ele><time>2026-04-05T12:01:15.000Z</time></trkpt>
<trkpt lat="42.191425" lon="23.585145"><ele>2543.7</ele><time>2026-04-05T12:01:16.000Z</time></trkpt>
<trkpt lat="42.191427" lon="23.58515"><ele>2542</ele><time>2026-04-05T12:01:17.000Z</time></trkpt>
<trkpt lat="42.191429" lon="23.585157"><ele>2542</ele><time>2026-04-05T12:01:18.000Z</time></trkpt>
<trkpt lat="42.19143" lon="23.585164"><ele>2542</ele><time>2026-04-05T12:01:19.000Z</time></trkpt>
<trkpt lat="42.191431" lon="23.58517"><ele>2542</ele><time>2026-04-05T12:01:20.000Z</time></trkpt>
<trkpt lat="42.191432" lon="23.585175"><ele>2542</ele><time>2026-04-05T12:01:21.000Z</time></trkpt>
<trkpt lat="42.191434" lon="23.585179"><ele>2541.3</ele><time>2026-04-05T12:01:22.000Z</time></trkpt>
<trkpt lat="42.191435" lon="23.585182"><ele>2541.3</ele><time>2026-04-05T12:01:23.000Z</time></trkpt>
<trkpt lat="42.191437" lon="23.585185"><ele>2541.3</ele><time>2026-04-05T12:01:24.000Z</time></trkpt>
<trkpt lat="42.191439" lon="23.585189"><ele>2541.3</ele><time>2026-04-05T12:01:25.000Z</time></trkpt>
<trkpt lat="42.191442" lon="23.585193"><ele>2541.3</ele><time>2026-04-05T12:01:26.000Z</time></trkpt>
<trkpt lat="42.191445" lon="23.585197"><ele>2540.2</ele><time>2026-04-05T12:01:27.000Z</time></trkpt>
<trkpt lat="42.191448" lon="23.585202"><ele>2540.2</ele><time>2026-04-05T12:01:28.000Z</time></trkpt>
<trkpt lat="42.191451" lon="23.585206"><ele>2540.2</ele><time>2026-04-05T12:01:29.000Z</time></trkpt>
<trkpt lat="42.191453" lon="23.585209"><ele>2540.2</ele><time>2026-04-05T12:01:30.000Z</time></trkpt>
<trkpt lat="42.191455" lon="23.585213"><ele>2540.2</ele><time>2026-04-05T12:01:31.000Z</time></trkpt>
<trkpt lat="42.191457" lon="23.585217"><ele>2539.3</ele><time>2026-04-05T12:01:32.000Z</time></trkpt>
<trkpt lat="42.191459" lon="23.585221"><ele>2539.3</ele><time>2026-04-05T12:01:33.000Z</time></trkpt>
<trkpt lat="42.191463" lon="23.585228"><ele>2539.3</ele><time>2026-04-05T12:01:34.000Z</time></trkpt>
<trkpt lat="42.191468" lon="23.585234"><ele>2539.3</ele><time>2026-04-05T12:01:35.000Z</time></trkpt>
<trkpt lat="42.191471" lon="23.585242"><ele>2539.3</ele><time>2026-04-05T12:01:36.000Z</time></trkpt>
<trkpt lat="42.191474" lon="23.585247"><ele>2538.8</ele><time>2026-04-05T12:01:37.000Z</time></trkpt>
<trkpt lat="42.191475" lon="23.585252"><ele>2538.8</ele><time>2026-04-05T12:01:38.000Z</time></trkpt>
<trkpt lat="42.191476" lon="23.585256"><ele>2538.8</ele><time>2026-04-05T12:01:39.000Z</time></trkpt>
<trkpt lat="42.191476" lon="23.585259"><ele>2538.8</ele><time>2026-04-05T12:01:40.000Z</time></trkpt>
<trkpt lat="42.191477" lon="23.58526"><ele>2538.8</ele><time>2026-04-05T12:01:41.000Z</time></trkpt>
<trkpt lat="42.191477" lon="23.585261"><ele>2537.5</ele><time>2026-04-05T12:01:42.000Z</time></trkpt>
<trkpt lat="42.191477" lon="23.585262"><ele>2537.5</ele><time>2026-04-05T12:01:43.000Z</time></trkpt>
<trkpt lat="42.191478" lon="23.585265"><ele>2537.5</ele><time>2026-04-05T12:01:44.000Z</time></trkpt>
<trkpt lat="42.19148" lon="23.585267"><ele>2537.5</ele><time>2026-04-05T12:01:45.000Z</time></trkpt>
<trkpt lat="42.191483" lon="23.58527"><ele>2537.5</ele><time>2026-04-05T12:01:46.000Z</time></trkpt>
<trkpt lat="42.191488" lon="23.585275"><ele>2536.1</ele><time>2026-04-05T12:01:47.000Z</time></trkpt>
<trkpt lat="42.191494" lon="23.585281"><ele>2536.1</ele><time>2026-04-05T12:01:48.000Z</time></trkpt>
<trkpt lat="42.1915" lon="23.585289"><ele>2536.1</ele><time>2026-04-05T12:01:49.000Z</time></trkpt>
<trkpt lat="42.191505" lon="23.585298"><ele>2536.1</ele><time>2026-04-05T12:01:50.000Z</time></trkpt>
<trkpt lat="42.191511" lon="23.585309"><ele>2536.1</ele><time>2026-04-05T12:01:51.000Z</time></trkpt>
<trkpt lat="42.191517" lon="23.585321"><ele>2535.5</ele><time>2026-04-05T12:01:52.000Z</time></trkpt>
<trkpt lat="42.191522" lon="23.585333"><ele>2535.5</ele><time>2026-04-05T12:01:53.000Z</time></trkpt>
<trkpt lat="42.191527" lon="23.585344"><ele>2535.5</ele><time>2026-04-05T12:01:54.000Z</time></trkpt>
<trkpt lat="42.191532" lon="23.585354"><ele>2535.5</ele><time>2026-04-05T12:01:55.000Z</time></trkpt>
<trkpt lat="42.191536" lon="23.585363"><ele>2535.5</ele><time>2026-04-05T12:01:56.000Z</time></trkpt>
<trkpt lat="42.191539" lon="23.585371"><ele>2534.1</ele><time>2026-04-05T12:01:57.000Z</time></trkpt>
<trkpt lat="42.191543" lon="23.585379"><ele>2534.1</ele><time>2026-04-05T12:01:58.000Z</time></trkpt>
<trkpt lat="42.191547" lon="23.585389"><ele>2534.1</ele><time>2026-04-05T12:01:59.000Z</time></trkpt>
<trkpt lat="42.19155" lon="23.585398"><ele>2534.1</ele><time>2026-04-05T12:02:00.000Z</time></trkpt>
<trkpt lat="42.191555" lon="23.585406"><ele>2534.1</ele><time>2026-04-05T12:02:01.000Z</time></trkpt>
<trkpt lat="42.191559" lon="23.585415"><ele>2532.3</ele><time>2026-04-05T12:02:02.000Z</time></trkpt>
<trkpt lat="42.191564" lon="23.585424"><ele>2532.3</ele><time>2026-04-05T12:02:03.000Z</time></trkpt>
<trkpt lat="42.191569" lon="23.585431"><ele>2532.3</ele><time>2026-04-05T12:02:04.000Z</time></trkpt>
<trkpt lat="42.191575" lon="23.585439"><ele>2532.3</ele><time>2026-04-05T12:02:05.000Z</time></trkpt>
<trkpt lat="42.19158" lon="23.585447"><ele>2532.3</ele><time>2026-04-05T12:02:06.000Z</time></trkpt>
<trkpt lat="42.191586" lon="23.585455"><ele>2531.2</ele><time>2026-04-05T12:02:07.000Z</time></trkpt>
<trkpt lat="42.191591" lon="23.585462"><ele>2531.2</ele><time>2026-04-05T12:02:08.000Z</time></trkpt>
<trkpt lat="42.191595" lon="23.585468"><ele>2531.2</ele><time>2026-04-05T12:02:09.000Z</time></trkpt>
<trkpt lat="42.1916" lon="23.585474"><ele>2531.2</ele><time>2026-04-05T12:02:10.000Z</time></trkpt>
<trkpt lat="42.191605" lon="23.58548"><ele>2531.2</ele><time>2026-04-05T12:02:11.000Z</time></trkpt>
<trkpt lat="42.191609" lon="23.585486"><ele>2529</ele><time>2026-04-05T12:02:12.000Z</time></trkpt>
<trkpt lat="42.191613" lon="23.585492"><ele>2529</ele><time>2026-04-05T12:02:13.000Z</time></trkpt>
<trkpt lat="42.191617" lon="23.585499"><ele>2529</ele><time>2026-04-05T12:02:14.000Z</time></trkpt>
<trkpt lat="42.191621" lon="23.585505"><ele>2529</ele><time>2026-04-05T12:02:15.000Z</time></trkpt>
<trkpt lat="42.191624" lon="23.585512"><ele>2529</ele><time>2026-04-05T12:02:16.000Z</time></trkpt>
<trkpt lat="42.191628" lon="23.585518"><ele>2527</ele><time>2026-04-05T12:02:17.000Z</time></trkpt>
<trkpt lat="42.191632" lon="23.585525"><ele>2527</ele><time>2026-04-05T12:02:18.000Z</time></trkpt>
<trkpt lat="42.191637" lon="23.585533"><ele>2527</ele><time>2026-04-05T12:02:19.000Z</time></trkpt>
<trkpt lat="42.191641" lon="23.585541"><ele>2527</ele><time>2026-04-05T12:02:20.000Z</time></trkpt>
<trkpt lat="42.191645" lon="23.585548"><ele>2527</ele><time>2026-04-05T12:02:21.000Z</time></trkpt>
<trkpt lat="42.191651" lon="23.585554"><ele>2526.1</ele><time>2026-04-05T12:02:22.000Z</time></trkpt>
<trkpt lat="42.191656" lon="23.585562"><ele>2526.1</ele><time>2026-04-05T12:02:23.000Z</time></trkpt>
<trkpt lat="42.191662" lon="23.585568"><ele>2526.1</ele><time>2026-04-05T12:02:24.000Z</time></trkpt>
<trkpt lat="42.191667" lon="23.585574"><ele>2526.1</ele><time>2026-04-05T12:02:25.000Z</time></trkpt>
<trkpt lat="42.191672" lon="23.58558"><ele>2526.1</ele><time>2026-04-05T12:02:26.000Z</time></trkpt>
<trkpt lat="42.191677" lon="23.585587"><ele>2524.4</ele><time>2026-04-05T12:02:27.000Z</time></trkpt>
<trkpt lat="42.19168" lon="23.585593"><ele>2524.4</ele><time>2026-04-05T12:02:28.000Z</time></trkpt>
<trkpt lat="42.191682" lon="23.5856"><ele>2524.4</ele><time>2026-04-05T12:02:29.000Z</time></trkpt>
<trkpt lat="42.191684" lon="23.585607"><ele>2524.4</ele><time>2026-04-05T12:02:30.000Z</time></trkpt>
<trkpt lat="42.191686" lon="23.585616"><ele>2524.4</ele><time>2026-04-05T12:02:31.000Z</time></trkpt>
<trkpt lat="42.191688" lon="23.585624"><ele>2522.9</ele><time>2026-04-05T12:02:32.000Z</time></trkpt>
<trkpt lat="42.191691" lon="23.585631"><ele>2522.9</ele><time>2026-04-05T12:02:33.000Z</time></trkpt>
<trkpt lat="42.191695" lon="23.585638"><ele>2522.9</ele><time>2026-04-05T12:02:34.000Z</time></trkpt>
<trkpt lat="42.191699" lon="23.585644"><ele>2522.9</ele><time>2026-04-05T12:02:35.000Z</time></trkpt>
<trkpt lat="42.191703" lon="23.585648"><ele>2522.9</ele><time>2026-04-05T12:02:36.000Z</time></trkpt>
<trkpt lat="42.191706" lon="23.585653"><ele>2522.2</ele><time>2026-04-05T12:02:37.000Z</time></trkpt>
<trkpt lat="42.191709" lon="23.585657"><ele>2522.2</ele><time>2026-04-05T12:02:38.000Z</time></trkpt>
<trkpt lat="42.191711" lon="23.58566"><ele>2522.2</ele><time>2026-04-05T12:02:39.000Z</time></trkpt>
<trkpt lat="42.191712" lon="23.585663"><ele>2522.2</ele><time>2026-04-05T12:02:40.000Z</time></trkpt>
<trkpt lat="42.191715" lon="23.585667"><ele>2522.2</ele><time>2026-04-05T12:02:41.000Z</time></trkpt>
<trkpt lat="42.191717" lon="23.585671"><ele>2520.7</ele><time>2026-04-05T12:02:42.000Z</time></trkpt>
<trkpt lat="42.19172" lon="23.585675"><ele>2520.7</ele><time>2026-04-05T12:02:43.000Z</time></trkpt>
<trkpt lat="42.191724" lon="23.585682"><ele>2520.7</ele><time>2026-04-05T12:02:44.000Z</time></trkpt>
<trkpt lat="42.191729" lon="23.585689"><ele>2520.7</ele><time>2026-04-05T12:02:45.000Z</time></trkpt>
<trkpt lat="42.191735" lon="23.585696"><ele>2520.7</ele><time>2026-04-05T12:02:46.000Z</time></trkpt>
<trkpt lat="42.19174" lon="23.585703"><ele>2519.3</ele><time>2026-04-05T12:02:47.000Z</time></trkpt>
<trkpt lat="42.191746" lon="23.585711"><ele>2519.3</ele><time>2026-04-05T12:02:48.000Z</time></trkpt>
<trkpt lat="42.191751" lon="23.585719"><ele>2519.3</ele><time>2026-04-05T12:02:49.000Z</time></trkpt>
<trkpt lat="42.191757" lon="23.585728"><ele>2519.3</ele><time>2026-04-05T12:02:50.000Z</time></trkpt>
<trkpt lat="42.191763" lon="23.585736"><ele>2519.3</ele><time>2026-04-05T12:02:51.000Z</time></trkpt>
<trkpt lat="42.191768" lon="23.585745"><ele>2518.6</ele><time>2026-04-05T12:02:52.000Z</time></trkpt>
<trkpt lat="42.191774" lon="23.585751"><ele>2518.6</ele><time>2026-04-05T12:02:53.000Z</time></trkpt>
<trkpt lat="42.191781" lon="23.585758"><ele>2518.6</ele><time>2026-04-05T12:02:54.000Z</time></trkpt>
<trkpt lat="42.191787" lon="23.585764"><ele>2518.6</ele><time>2026-04-05T12:02:55.000Z</time></trkpt>
<trkpt lat="42.191792" lon="23.58577"><ele>2518.6</ele><time>2026-04-05T12:02:56.000Z</time></trkpt>
<trkpt lat="42.191798" lon="23.585775"><ele>2517.4</ele><time>2026-04-05T12:02:57.000Z</time></trkpt>
<trkpt lat="42.191803" lon="23.585781"><ele>2517.4</ele><time>2026-04-05T12:02:58.000Z</time></trkpt>
<trkpt lat="42.191807" lon="23.585785"><ele>2517.4</ele><time>2026-04-05T12:02:59.000Z</time></trkpt>
<trkpt lat="42.19181" lon="23.585788"><ele>2517.4</ele><time>2026-04-05T12:03:00.000Z</time></trkpt>
<trkpt lat="42.191815" lon="23.585793"><ele>2517.4</ele><time>2026-04-05T12:03:01.000Z</time></trkpt>
<trkpt lat="42.191817" lon="23.585796"><ele>2516.3</ele><time>2026-04-05T12:03:02.000Z</time></trkpt>
<trkpt lat="42.191819" lon="23.585801"><ele>2516.3</ele><time>2026-04-05T12:03:03.000Z</time></trkpt>
<trkpt lat="42.191821" lon="23.585806"><ele>2516.3</ele><time>2026-04-05T12:03:04.000Z</time></trkpt>
<trkpt lat="42.191823" lon="23.585811"><ele>2516.3</ele><time>2026-04-05T12:03:05.000Z</time></trkpt>
<trkpt lat="42.191824" lon="23.585816"><ele>2516.3</ele><time>2026-04-05T12:03:06.000Z</time></trkpt>
<trkpt lat="42.191826" lon="23.585823"><ele>2515.7</ele><time>2026-04-05T12:03:07.000Z</time></trkpt>
<trkpt lat="42.191829" lon="23.585828"><ele>2515.7</ele><time>2026-04-05T12:03:08.000Z</time></trkpt>
<trkpt lat="42.191832" lon="23.585833"><ele>2515.7</ele><time>2026-04-05T12:03:09.000Z</time></trkpt>
<trkpt lat="42.191834" lon="23.585837"><ele>2515.7</ele><time>2026-04-05T12:03:10.000Z</time></trkpt>
<trkpt lat="42.191839" lon="23.585842"><ele>2515.7</ele><time>2026-04-05T12:03:11.000Z</time></trkpt>
<trkpt lat="42.191843" lon="23.585846"><ele>2514.3</ele><time>2026-04-05T12:03:12.000Z</time></trkpt>
<trkpt lat="42.191846" lon="23.58585"><ele>2514.3</ele><time>2026-04-05T12:03:13.000Z</time></trkpt>
<trkpt lat="42.191851" lon="23.585856"><ele>2514.3</ele><time>2026-04-05T12:03:14.000Z</time></trkpt>
<trkpt lat="42.191856" lon="23.585861"><ele>2514.3</ele><time>2026-04-05T12:03:15.000Z</time></trkpt>
<trkpt lat="42.191859" lon="23.585866"><ele>2514.3</ele><time>2026-04-05T12:03:16.000Z</time></trkpt>
<trkpt lat="42.191862" lon="23.585872"><ele>2512.7</ele><time>2026-04-05T12:03:17.000Z</time></trkpt>
<trkpt lat="42.191866" lon="23.585879"><ele>2512.7</ele><time>2026-04-05T12:03:18.000Z</time></trkpt>
<trkpt lat="42.191869" lon="23.585885"><ele>2512.7</ele><time>2026-04-05T12:03:19.000Z</time></trkpt>
<trkpt lat="42.19187" lon="23.585891"><ele>2512.7</ele><time>2026-04-05T12:03:20.000Z</time></trkpt>
<trkpt lat="42.191873" lon="23.585898"><ele>2512.7</ele><time>2026-04-05T12:03:21.000Z</time></trkpt>
<trkpt lat="42.191876" lon="23.585903"><ele>2511.8</ele><time>2026-04-05T12:03:22.000Z</time></trkpt>
<trkpt lat="42.191878" lon="23.585908"><ele>2511.8</ele><time>2026-04-05T12:03:23.000Z</time></trkpt>
<trkpt lat="42.19188" lon="23.585912"><ele>2511.8</ele><time>2026-04-05T12:03:24.000Z</time></trkpt>
<trkpt lat="42.191882" lon="23.585915"><ele>2511.8</ele><time>2026-04-05T12:03:25.000Z</time></trkpt>
<trkpt lat="42.191884" lon="23.585918"><ele>2511.8</ele><time>2026-04-05T12:03:26.000Z</time></trkpt>
<trkpt lat="42.191885" lon="23.585921"><ele>2509.9</ele><time>2026-04-05T12:03:27.000Z</time></trkpt>
<trkpt lat="42.191887" lon="23.585925"><ele>2509.9</ele><time>2026-04-05T12:03:28.000Z</time></trkpt>
<trkpt lat="42.191888" lon="23.585931"><ele>2509.9</ele><time>2026-04-05T12:03:29.000Z</time></trkpt>
<trkpt lat="42.191888" lon="23.585938"><ele>2509.9</ele><time>2026-04-05T12:03:30.000Z</time></trkpt>
<trkpt lat="42.191888" lon="23.585947"><ele>2509.9</ele><time>2026-04-05T12:03:31.000Z</time></trkpt>
<trkpt lat="42.191888" lon="23.585955"><ele>2508</ele><time>2026-04-05T12:03:32.000Z</time></trkpt>
<trkpt lat="42.191888" lon="23.585963"><ele>2508</ele><time>2026-04-05T12:03:33.000Z</time></trkpt>
<trkpt lat="42.191888" lon="23.58597"><ele>2508</ele><time>2026-04-05T12:03:34.000Z</time></trkpt>
<trkpt lat="42.191888" lon="23.585978"><ele>2508</ele><time>2026-04-05T12:03:35.000Z</time></trkpt>
<trkpt lat="42.191889" lon="23.585986"><ele>2508</ele><time>2026-04-05T12:03:36.000Z</time></trkpt>
<trkpt lat="42.191889" lon="23.585995"><ele>2507.1</ele><time>2026-04-05T12:03:37.000Z</time></trkpt>
<trkpt lat="42.191888" lon="23.586002"><ele>2507.1</ele><time>2026-04-05T12:03:38.000Z</time></trkpt>
<trkpt lat="42.191888" lon="23.586007"><ele>2507.1</ele><time>2026-04-05T12:03:39.000Z</time></trkpt>
<trkpt lat="42.191888" lon="23.586009"><ele>2507.1</ele><time>2026-04-05T12:03:40.000Z</time></trkpt>
<trkpt lat="42.191888" lon="23.586011"><ele>2507.1</ele><time>2026-04-05T12:03:41.000Z</time></trkpt>
<trkpt lat="42.191889" lon="23.586011"><ele>2505.3</ele><time>2026-04-05T12:03:42.000Z</time></trkpt>
<trkpt lat="42.191891" lon="23.586013"><ele>2505.3</ele><time>2026-04-05T12:03:43.000Z</time></trkpt>
<trkpt lat="42.191892" lon="23.586017"><ele>2505.3</ele><time>2026-04-05T12:03:44.000Z</time></trkpt>
<trkpt lat="42.191893" lon="23.586022"><ele>2505.3</ele><time>2026-04-05T12:03:45.000Z</time></trkpt>
<trkpt lat="42.191894" lon="23.586029"><ele>2505.3</ele><time>2026-04-05T12:03:46.000Z</time></trkpt>
<trkpt lat="42.191895" lon="23.586036"><ele>2503.9</ele><time>2026-04-05T12:03:47.000Z</time></trkpt>
<trkpt lat="42.191896" lon="23.586044"><ele>2503.9</ele><time>2026-04-05T12:03:48.000Z</time></trkpt>
<trkpt lat="42.191897" lon="23.586052"><ele>2503.9</ele><time>2026-04-05T12:03:49.000Z</time></trkpt>
<trkpt lat="42.1919" lon="23.58606"><ele>2503.9</ele><time>2026-04-05T12:03:50.000Z</time></trkpt>
<trkpt lat="42.191903" lon="23.586069"><ele>2503.9</ele><time>2026-04-05T12:03:51.000Z</time></trkpt>
<trkpt lat="42.191906" lon="23.58608"><ele>2503.2</ele><time>2026-04-05T12:03:52.000Z</time></trkpt>
<trkpt lat="42.19191" lon="23.58609"><ele>2503.2</ele><time>2026-04-05T12:03:53.000Z</time></trkpt>
<trkpt lat="42.191914" lon="23.586103"><ele>2503.2</ele><time>2026-04-05T12:03:54.000Z</time></trkpt>
<trkpt lat="42.191919" lon="23.586114"><ele>2503.2</ele><time>2026-04-05T12:03:55.000Z</time></trkpt>
<trkpt lat="42.191923" lon="23.586126"><ele>2503.2</ele><time>2026-04-05T12:03:56.000Z</time></trkpt>
<trkpt lat="42.191926" lon="23.586137"><ele>2501.8</ele><time>2026-04-05T12:03:57.000Z</time></trkpt>
<trkpt lat="42.191928" lon="23.586147"><ele>2501.8</ele><time>2026-04-05T12:03:58.000Z</time></trkpt>
<trkpt lat="42.191931" lon="23.586158"><ele>2501.8</ele><time>2026-04-05T12:03:59.000Z</time></trkpt>
<trkpt lat="42.191934" lon="23.586169"><ele>2501.8</ele><time>2026-04-05T12:04:00.000Z</time></trkpt>
<trkpt lat="42.191937" lon="23.586182"><ele>2501.8</ele><time>2026-04-05T12:04:01.000Z</time></trkpt>
<trkpt lat="42.19194" lon="23.586194"><ele>2500.2</ele><time>2026-04-05T12:04:02.000Z</time></trkpt>
<trkpt lat="42.191944" lon="23.586207"><ele>2500.2</ele><time>2026-04-05T12:04:03.000Z</time></trkpt>
<trkpt lat="42.191947" lon="23.58622"><ele>2500.2</ele><time>2026-04-05T12:04:04.000Z</time></trkpt>
<trkpt lat="42.191951" lon="23.586233"><ele>2500.2</ele><time>2026-04-05T12:04:05.000Z</time></trkpt>
<trkpt lat="42.191954" lon="23.586244"><ele>2500.2</ele><time>2026-04-05T12:04:06.000Z</time></trkpt>
<trkpt lat="42.191958" lon="23.586256"><ele>2499.3</ele><time>2026-04-05T12:04:07.000Z</time></trkpt>
<trkpt lat="42.19196" lon="23.586264"><ele>2499.3</ele><time>2026-04-05T12:04:08.000Z</time></trkpt>
<trkpt lat="42.191962" lon="23.586272"><ele>2499.3</ele><time>2026-04-05T12:04:09.000Z</time></trkpt>
<trkpt lat="42.191963" lon="23.586278"><ele>2499.3</ele><time>2026-04-05T12:04:10.000Z</time></trkpt>
<trkpt lat="42.191965" lon="23.586285"><ele>2499.3</ele><time>2026-04-05T12:04:11.000Z</time></trkpt>
<trkpt lat="42.191967" lon="23.586292"><ele>2497.6</ele><time>2026-04-05T12:04:12.000Z</time></trkpt>
<trkpt lat="42.191969" lon="23.586304"><ele>2497.6</ele><time>2026-04-05T12:04:13.000Z</time></trkpt>
<trkpt lat="42.191972" lon="23.586315"><ele>2497.6</ele><time>2026-04-05T12:04:14.000Z</time></trkpt>
<trkpt lat="42.191975" lon="23.586326"><ele>2497.6</ele><time>2026-04-05T12:04:15.000Z</time></trkpt>
<trkpt lat="42.191978" lon="23.586338"><ele>2497.6</ele><time>2026-04-05T12:04:16.000Z</time></trkpt>
<trkpt lat="42.19198" lon="23.586348"><ele>2496</ele><time>2026-04-05T12:04:17.000Z</time></trkpt>
<trkpt lat="42.191981" lon="23.586357"><ele>2496</ele><time>2026-04-05T12:04:18.000Z</time></trkpt>
<trkpt lat="42.191983" lon="23.586364"><ele>2496</ele><time>2026-04-05T12:04:19.000Z</time></trkpt>
<trkpt lat="42.191984" lon="23.586373"><ele>2496</ele><time>2026-04-05T12:04:20.000Z</time></trkpt>
<trkpt lat="42.191984" lon="23.586382"><ele>2496</ele><time>2026-04-05T12:04:21.000Z</time></trkpt>
<trkpt lat="42.191984" lon="23.586391"><ele>2495.3</ele><time>2026-04-05T12:04:22.000Z</time></trkpt>
<trkpt lat="42.191984" lon="23.5864"><ele>2495.3</ele><time>2026-04-05T12:04:23.000Z</time></trkpt>
<trkpt lat="42.191984" lon="23.586411"><ele>2495.3</ele><time>2026-04-05T12:04:24.000Z</time></trkpt>
<trkpt lat="42.191984" lon="23.58642"><ele>2495.3</ele><time>2026-04-05T12:04:25.000Z</time></trkpt>
<trkpt lat="42.191984" lon="23.586428"><ele>2495.3</ele><time>2026-04-05T12:04:26.000Z</time></trkpt>
<trkpt lat="42.191984" lon="23.586437"><ele>2493.7</ele><time>2026-04-05T12:04:27.000Z</time></trkpt>
<trkpt lat="42.191984" lon="23.586447"><ele>2493.7</ele><time>2026-04-05T12:04:28.000Z</time></trkpt>
<trkpt lat="42.191985" lon="23.586457"><ele>2493.7</ele><time>2026-04-05T12:04:29.000Z</time></trkpt>
<trkpt lat="42.191985" lon="23.586466"><ele>2493.7</ele><time>2026-04-05T12:04:30.000Z</time></trkpt>
<trkpt lat="42.191985" lon="23.586475"><ele>2493.7</ele><time>2026-04-05T12:04:31.000Z</time></trkpt>
<trkpt lat="42.191986" lon="23.586485"><ele>2492</ele><time>2026-04-05T12:04:32.000Z</time></trkpt>
<trkpt lat="42.191986" lon="23.586496"><ele>2492</ele><time>2026-04-05T12:04:33.000Z</time></trkpt>
<trkpt lat="42.191987" lon="23.586506"><ele>2492</ele><time>2026-04-05T12:04:34.000Z</time></trkpt>
<trkpt lat="42.191989" lon="23.586518"><ele>2492</ele><time>2026-04-05T12:04:35.000Z</time></trkpt>
<trkpt lat="42.19199" lon="23.586529"><ele>2492</ele><time>2026-04-05T12:04:36.000Z</time></trkpt>
<trkpt lat="42.19199" lon="23.586538"><ele>2491.1</ele><time>2026-04-05T12:04:37.000Z</time></trkpt>
<trkpt lat="42.191991" lon="23.586545"><ele>2491.1</ele><time>2026-04-05T12:04:38.000Z</time></trkpt>
<trkpt lat="42.191992" lon="23.586552"><ele>2491.1</ele><time>2026-04-05T12:04:39.000Z</time></trkpt>
<trkpt lat="42.191993" lon="23.58656"><ele>2491.1</ele><time>2026-04-05T12:04:40.000Z</time></trkpt>
<trkpt lat="42.191995" lon="23.586567"><ele>2491.1</ele><time>2026-04-05T12:04:41.000Z</time></trkpt>
<trkpt lat="42.191998" lon="23.586575"><ele>2489.3</ele><time>2026-04-05T12:04:42.000Z</time></trkpt>
<trkpt lat="42.192003" lon="23.586582"><ele>2489.3</ele><time>2026-04-05T12:04:43.000Z</time></trkpt>
<trkpt lat="42.192008" lon="23.586588"><ele>2489.3</ele><time>2026-04-05T12:04:44.000Z</time></trkpt>
<trkpt lat="42.192012" lon="23.586595"><ele>2489.3</ele><time>2026-04-05T12:04:45.000Z</time></trkpt>
<trkpt lat="42.192016" lon="23.586603"><ele>2489.3</ele><time>2026-04-05T12:04:46.000Z</time></trkpt>
<trkpt lat="42.19202" lon="23.586612"><ele>2487.4</ele><time>2026-04-05T12:04:47.000Z</time></trkpt>
<trkpt lat="42.192024" lon="23.586621"><ele>2487.4</ele><time>2026-04-05T12:04:48.000Z</time></trkpt>
<trkpt lat="42.192028" lon="23.58663"><ele>2487.4</ele><time>2026-04-05T12:04:49.000Z</time></trkpt>
<trkpt lat="42.192033" lon="23.586638"><ele>2487.4</ele><time>2026-04-05T12:04:50.000Z</time></trkpt>
<trkpt lat="42.192037" lon="23.586647"><ele>2487.4</ele><time>2026-04-05T12:04:51.000Z</time></trkpt>
<trkpt lat="42.192041" lon="23.586653"><ele>2486.4</ele><time>2026-04-05T12:04:52.000Z</time></trkpt>
<trkpt lat="42.192045" lon="23.58666"><ele>2486.4</ele><time>2026-04-05T12:04:53.000Z</time></trkpt>
<trkpt lat="42.192049" lon="23.586666"><ele>2486.4</ele><time>2026-04-05T12:04:54.000Z</time></trkpt>
<trkpt lat="42.192054" lon="23.586672"><ele>2486.4</ele><time>2026-04-05T12:04:55.000Z</time></trkpt>
<trkpt lat="42.192059" lon="23.586677"><ele>2486.4</ele><time>2026-04-05T12:04:56.000Z</time></trkpt>
<trkpt lat="42.192065" lon="23.586683"><ele>2484.2</ele><time>2026-04-05T12:04:57.000Z</time></trkpt>
<trkpt lat="42.192071" lon="23.586689"><ele>2484.2</ele><time>2026-04-05T12:04:58.000Z</time></trkpt>
<trkpt lat="42.192077" lon="23.586697"><ele>2484.2</ele><time>2026-04-05T12:04:59.000Z</time></trkpt>
<trkpt lat="42.192081" lon="23.586704"><ele>2484.2</ele><time>2026-04-05T12:05:00.000Z</time></trkpt>
<trkpt lat="42.192085" lon="23.586713"><ele>2484.2</ele><time>2026-04-05T12:05:01.000Z</time></trkpt>
<trkpt lat="42.192088" lon="23.586723"><ele>2481.8</ele><time>2026-04-05T12:05:02.000Z</time></trkpt>
<trkpt lat="42.192092" lon="23.586733"><ele>2481.8</ele><time>2026-04-05T12:05:03.000Z</time></trkpt>
<trkpt lat="42.192098" lon="23.586741"><ele>2481.8</ele><time>2026-04-05T12:05:04.000Z</time></trkpt>
<trkpt lat="42.192107" lon="23.586748"><ele>2481.8</ele><time>2026-04-05T12:05:05.000Z</time></trkpt>
<trkpt lat="42.192115" lon="23.586752"><ele>2481.8</ele><time>2026-04-05T12:05:06.000Z</time></trkpt>
<trkpt lat="42.192124" lon="23.586754"><ele>2480.7</ele><time>2026-04-05T12:05:07.000Z</time></trkpt>
<trkpt lat="42.192134" lon="23.586756"><ele>2480.7</ele><time>2026-04-05T12:05:08.000Z</time></trkpt>
<trkpt lat="42.192143" lon="23.586759"><ele>2480.7</ele><time>2026-04-05T12:05:09.000Z</time></trkpt>
<trkpt lat="42.192151" lon="23.586764"><ele>2480.7</ele><time>2026-04-05T12:05:10.000Z</time></trkpt>
<trkpt lat="42.192158" lon="23.586771"><ele>2480.7</ele><time>2026-04-05T12:05:11.000Z</time></trkpt>
<trkpt lat="42.192165" lon="23.586779"><ele>2478.7</ele><time>2026-04-05T12:05:12.000Z</time></trkpt>
<trkpt lat="42.192169" lon="23.586789"><ele>2478.7</ele><time>2026-04-05T12:05:13.000Z</time></trkpt>
<trkpt lat="42.192173" lon="23.5868"><ele>2478.7</ele><time>2026-04-05T12:05:14.000Z</time></trkpt>
<trkpt lat="42.192179" lon="23.586811"><ele>2478.7</ele><time>2026-04-05T12:05:15.000Z</time></trkpt>
<trkpt lat="42.192184" lon="23.586822"><ele>2478.7</ele><time>2026-04-05T12:05:16.000Z</time></trkpt>
<trkpt lat="42.19219" lon="23.586833"><ele>2476.8</ele><time>2026-04-05T12:05:17.000Z</time></trkpt>
<trkpt lat="42.192197" lon="23.586842"><ele>2476.8</ele><time>2026-04-05T12:05:18.000Z</time></trkpt>
<trkpt lat="42.192202" lon="23.586852"><ele>2476.8</ele><time>2026-04-05T12:05:19.000Z</time></trkpt>
<trkpt lat="42.192206" lon="23.58686"><ele>2476.8</ele><time>2026-04-05T12:05:20.000Z</time></trkpt>
<trkpt lat="42.19221" lon="23.586871"><ele>2476.8</ele><time>2026-04-05T12:05:21.000Z</time></trkpt>
<trkpt lat="42.192214" lon="23.586883"><ele>2476</ele><time>2026-04-05T12:05:22.000Z</time></trkpt>
<trkpt lat="42.192218" lon="23.586896"><ele>2476</ele><time>2026-04-05T12:05:23.000Z</time></trkpt>
<trkpt lat="42.192222" lon="23.586908"><ele>2476</ele><time>2026-04-05T12:05:24.000Z</time></trkpt>
<trkpt lat="42.192227" lon="23.586922"><ele>2476</ele><time>2026-04-05T12:05:25.000Z</time></trkpt>
<trkpt lat="42.192231" lon="23.586934"><ele>2476</ele><time>2026-04-05T12:05:26.000Z</time></trkpt>
<trkpt lat="42.192235" lon="23.586946"><ele>2474.3</ele><time>2026-04-05T12:05:27.000Z</time></trkpt>
<trkpt lat="42.19224" lon="23.586958"><ele>2474.3</ele><time>2026-04-05T12:05:28.000Z</time></trkpt>
<trkpt lat="42.192246" lon="23.586968"><ele>2474.3</ele><time>2026-04-05T12:05:29.000Z</time></trkpt>
<trkpt lat="42.192251" lon="23.586978"><ele>2474.3</ele><time>2026-04-05T12:05:30.000Z</time></trkpt>
<trkpt lat="42.192257" lon="23.586988"><ele>2474.3</ele><time>2026-04-05T12:05:31.000Z</time></trkpt>
<trkpt lat="42.192263" lon="23.586999"><ele>2472.8</ele><time>2026-04-05T12:05:32.000Z</time></trkpt>
<trkpt lat="42.192269" lon="23.58701"><ele>2472.8</ele><time>2026-04-05T12:05:33.000Z</time></trkpt>
<trkpt lat="42.192276" lon="23.587023"><ele>2472.8</ele><time>2026-04-05T12:05:34.000Z</time></trkpt>
<trkpt lat="42.192282" lon="23.587036"><ele>2472.8</ele><time>2026-04-05T12:05:35.000Z</time></trkpt>
<trkpt lat="42.192289" lon="23.58705"><ele>2472.8</ele><time>2026-04-05T12:05:36.000Z</time></trkpt>
<trkpt lat="42.192295" lon="23.587062"><ele>2472</ele><time>2026-04-05T12:05:37.000Z</time></trkpt>
<trkpt lat="42.192301" lon="23.587076"><ele>2472</ele><time>2026-04-05T12:05:38.000Z</time></trkpt>
<trkpt lat="42.192306" lon="23.58709"><ele>2472</ele><time>2026-04-05T12:05:39.000Z</time></trkpt>
<trkpt lat="42.192311" lon="23.587103"><ele>2472</ele><time>2026-04-05T12:05:40.000Z</time></trkpt>
<trkpt lat="42.192316" lon="23.587115"><ele>2472</ele><time>2026-04-05T12:05:41.000Z</time></trkpt>
<trkpt lat="42.19232" lon="23.587128"><ele>2470.7</ele><time>2026-04-05T12:05:42.000Z</time></trkpt>
<trkpt lat="42.192325" lon="23.587142"><ele>2470.7</ele><time>2026-04-05T12:05:43.000Z</time></trkpt>
<trkpt lat="42.19233" lon="23.587155"><ele>2470.7</ele><time>2026-04-05T12:05:44.000Z</time></trkpt>
<trkpt lat="42.192336" lon="23.587168"><ele>2470.7</ele><time>2026-04-05T12:05:45.000Z</time></trkpt>
<trkpt lat="42.192341" lon="23.587182"><ele>2470.7</ele><time>2026-04-05T12:05:46.000Z</time></trkpt>
<trkpt lat="42.192346" lon="23.587196"><ele>2469.5</ele><time>2026-04-05T12:05:47.000Z</time></trkpt>
<trkpt lat="42.19235" lon="23.587207"><ele>2469.5</ele><time>2026-04-05T12:05:48.000Z</time></trkpt>
<trkpt lat="42.192355" lon="23.587219"><ele>2469.5</ele><time>2026-04-05T12:05:49.000Z</time></trkpt>
<trkpt lat="42.192358" lon="23.587231"><ele>2469.5</ele><time>2026-04-05T12:05:50.000Z</time></trkpt>
<trkpt lat="42.192361" lon="23.587244"><ele>2469.5</ele><time>2026-04-05T12:05:51.000Z</time></trkpt>
<trkpt lat="42.192364" lon="23.587257"><ele>2468.9</ele><time>2026-04-05T12:05:52.000Z</time></trkpt>
<trkpt lat="42.192365" lon="23.587269"><ele>2468.9</ele><time>2026-04-05T12:05:53.000Z</time></trkpt>
<trkpt lat="42.192366" lon="23.587281"><ele>2468.9</ele><time>2026-04-05T12:05:54.000Z</time></trkpt>
<trkpt lat="42.192366" lon="23.587293"><ele>2468.9</ele><time>2026-04-05T12:05:55.000Z</time></trkpt>
<trkpt lat="42.192366" lon="23.587303"><ele>2468.9</ele><time>2026-04-05T12:05:56.000Z</time></trkpt>
<trkpt lat="42.192367" lon="23.587312"><ele>2467.6</ele><time>2026-04-05T12:05:57.000Z</time></trkpt>
<trkpt lat="42.192368" lon="23.587323"><ele>2467.6</ele><time>2026-04-05T12:05:58.000Z</time></trkpt>
<trkpt lat="42.19237" lon="23.587334"><ele>2467.6</ele><time>2026-04-05T12:05:59.000Z</time></trkpt>
<trkpt lat="42.192371" lon="23.587345"><ele>2467.6</ele><time>2026-04-05T12:06:00.000Z</time></trkpt>
<trkpt lat="42.192373" lon="23.587355"><ele>2467.6</ele><time>2026-04-05T12:06:01.000Z</time></trkpt>
<trkpt lat="42.192375" lon="23.587366"><ele>2466.4</ele><time>2026-04-05T12:06:02.000Z</time></trkpt>
<trkpt lat="42.192377" lon="23.587377"><ele>2466.4</ele><time>2026-04-05T12:06:03.000Z</time></trkpt>
<trkpt lat="42.192379" lon="23.587387"><ele>2466.4</ele><time>2026-04-05T12:06:04.000Z</time></trkpt>
<trkpt lat="42.192382" lon="23.587398"><ele>2466.4</ele><time>2026-04-05T12:06:05.000Z</time></trkpt>
<trkpt lat="42.192384" lon="23.587408"><ele>2466.4</ele><time>2026-04-05T12:06:06.000Z</time></trkpt>
<trkpt lat="42.192386" lon="23.587419"><ele>2465.7</ele><time>2026-04-05T12:06:07.000Z</time></trkpt>
<trkpt lat="42.192388" lon="23.587427"><ele>2465.7</ele><time>2026-04-05T12:06:08.000Z</time></trkpt>
<trkpt lat="42.19239" lon="23.587436"><ele>2465.7</ele><time>2026-04-05T12:06:09.000Z</time></trkpt>
<trkpt lat="42.192392" lon="23.587445"><ele>2465.7</ele><time>2026-04-05T12:06:10.000Z</time></trkpt>
<trkpt lat="42.192393" lon="23.587456"><ele>2465.7</ele><time>2026-04-05T12:06:11.000Z</time></trkpt>
<trkpt lat="42.192395" lon="23.587466"><ele>2464.2</ele><time>2026-04-05T12:06:12.000Z</time></trkpt>
<trkpt lat="42.192395" lon="23.587477"><ele>2464.2</ele><time>2026-04-05T12:06:13.000Z</time></trkpt>
<trkpt lat="42.192396" lon="23.587488"><ele>2464.2</ele><time>2026-04-05T12:06:14.000Z</time></trkpt>
<trkpt lat="42.192396" lon="23.5875"><ele>2464.2</ele><time>2026-04-05T12:06:15.000Z</time></trkpt>
<trkpt lat="42.192396" lon="23.587513"><ele>2464.2</ele><time>2026-04-05T12:06:16.000Z</time></trkpt>
<trkpt lat="42.192395" lon="23.587527"><ele>2462.6</ele><time>2026-04-05T12:06:17.000Z</time></trkpt>
<trkpt lat="42.192394" lon="23.587541"><ele>2462.6</ele><time>2026-04-05T12:06:18.000Z</time></trkpt>
<trkpt lat="42.192392" lon="23.587554"><ele>2462.6</ele><time>2026-04-05T12:06:19.000Z</time></trkpt>
<trkpt lat="42.192389" lon="23.587567"><ele>2462.6</ele><time>2026-04-05T12:06:20.000Z</time></trkpt>
<trkpt lat="42.192386" lon="23.587578"><ele>2462.6</ele><time>2026-04-05T12:06:21.000Z</time></trkpt>
<trkpt lat="42.192383" lon="23.58759"><ele>2461.8</ele><time>2026-04-05T12:06:22.000Z</time></trkpt>
<trkpt lat="42.192379" lon="23.587602"><ele>2461.8</ele><time>2026-04-05T12:06:23.000Z</time></trkpt>
<trkpt lat="42.192377" lon="23.587614"><ele>2461.8</ele><time>2026-04-05T12:06:24.000Z</time></trkpt>
<trkpt lat="42.192375" lon="23.587625"><ele>2461.8</ele><time>2026-04-05T12:06:25.000Z</time></trkpt>
<trkpt lat="42.192374" lon="23.587636"><ele>2461.8</ele><time>2026-04-05T12:06:26.000Z</time></trkpt>
<trkpt lat="42.192375" lon="23.587646"><ele>2460.1</ele><time>2026-04-05T12:06:27.000Z</time></trkpt>
<trkpt lat="42.192377" lon="23.587658"><ele>2460.1</ele><time>2026-04-05T12:06:28.000Z</time></trkpt>
<trkpt lat="42.192378" lon="23.587669"><ele>2460.1</ele><time>2026-04-05T12:06:29.000Z</time></trkpt>
<trkpt lat="42.19238" lon="23.58768"><ele>2460.1</ele><time>2026-04-05T12:06:30.000Z</time></trkpt>
<trkpt lat="42.192382" lon="23.587691"><ele>2460.1</ele><time>2026-04-05T12:06:31.000Z</time></trkpt>
<trkpt lat="42.192384" lon="23.587701"><ele>2458.4</ele><time>2026-04-05T12:06:32.000Z</time></trkpt>
<trkpt lat="42.192386" lon="23.587712"><ele>2458.4</ele><time>2026-04-05T12:06:33.000Z</time></trkpt>
<trkpt lat="42.192388" lon="23.587724"><ele>2458.4</ele><time>2026-04-05T12:06:34.000Z</time></trkpt>
<trkpt lat="42.192389" lon="23.587736"><ele>2458.4</ele><time>2026-04-05T12:06:35.000Z</time></trkpt>
<trkpt lat="42.19239" lon="23.587747"><ele>2458.4</ele><time>2026-04-05T12:06:36.000Z</time></trkpt>
<trkpt lat="42.192391" lon="23.587759"><ele>2457.6</ele><time>2026-04-05T12:06:37.000Z</time></trkpt>
<trkpt lat="42.192392" lon="23.587772"><ele>2457.6</ele><time>2026-04-05T12:06:38.000Z</time></trkpt>
<trkpt lat="42.192394" lon="23.587784"><ele>2457.6</ele><time>2026-04-05T12:06:39.000Z</time></trkpt>
<trkpt lat="42.192396" lon="23.587797"><ele>2457.6</ele><time>2026-04-05T12:06:40.000Z</time></trkpt>
<trkpt lat="42.192398" lon="23.58781"><ele>2457.6</ele><time>2026-04-05T12:06:41.000Z</time></trkpt>
<trkpt lat="42.192402" lon="23.587823"><ele>2456</ele><time>2026-04-05T12:06:42.000Z</time></trkpt>
<trkpt lat="42.192406" lon="23.587836"><ele>2456</ele><time>2026-04-05T12:06:43.000Z</time></trkpt>
<trkpt lat="42.19241" lon="23.587849"><ele>2456</ele><time>2026-04-05T12:06:44.000Z</time></trkpt>
<trkpt lat="42.192413" lon="23.587861"><ele>2456</ele><time>2026-04-05T12:06:45.000Z</time></trkpt>
<trkpt lat="42.192417" lon="23.587872"><ele>2456</ele><time>2026-04-05T12:06:46.000Z</time></trkpt>
<trkpt lat="42.192421" lon="23.587882"><ele>2454</ele><time>2026-04-05T12:06:47.000Z</time></trkpt>
<trkpt lat="42.192425" lon="23.587893"><ele>2454</ele><time>2026-04-05T12:06:48.000Z</time></trkpt>
<trkpt lat="42.192428" lon="23.587903"><ele>2454</ele><time>2026-04-05T12:06:49.000Z</time></trkpt>
<trkpt lat="42.192432" lon="23.587914"><ele>2454</ele><time>2026-04-05T12:06:50.000Z</time></trkpt>
<trkpt lat="42.192436" lon="23.587925"><ele>2454</ele><time>2026-04-05T12:06:51.000Z</time></trkpt>
<trkpt lat="42.19244" lon="23.587935"><ele>2453</ele><time>2026-04-05T12:06:52.000Z</time></trkpt>
<trkpt lat="42.192444" lon="23.587943"><ele>2453</ele><time>2026-04-05T12:06:53.000Z</time></trkpt>
<trkpt lat="42.192451" lon="23.587951"><ele>2453</ele><time>2026-04-05T12:06:54.000Z</time></trkpt>
<trkpt lat="42.192457" lon="23.587959"><ele>2453</ele><time>2026-04-05T12:06:55.000Z</time></trkpt>
<trkpt lat="42.192464" lon="23.587967"><ele>2453</ele><time>2026-04-05T12:06:56.000Z</time></trkpt>
<trkpt lat="42.192471" lon="23.587977"><ele>2451</ele><time>2026-04-05T12:06:57.000Z</time></trkpt>
<trkpt lat="42.192477" lon="23.587987"><ele>2451</ele><time>2026-04-05T12:06:58.000Z</time></trkpt>
<trkpt lat="42.192481" lon="23.587998"><ele>2451</ele><time>2026-04-05T12:06:59.000Z</time></trkpt>
<trkpt lat="42.192484" lon="23.588011"><ele>2451</ele><time>2026-04-05T12:07:00.000Z</time></trkpt>
<trkpt lat="42.192486" lon="23.588024"><ele>2451</ele><time>2026-04-05T12:07:01.000Z</time></trkpt>
<trkpt lat="42.192488" lon="23.588037"><ele>2449.3</ele><time>2026-04-05T12:07:02.000Z</time></trkpt>
<trkpt lat="42.19249" lon="23.58805"><ele>2449.3</ele><time>2026-04-05T12:07:03.000Z</time></trkpt>
<trkpt lat="42.192492" lon="23.588064"><ele>2449.3</ele><time>2026-04-05T12:07:04.000Z</time></trkpt>
<trkpt lat="42.192493" lon="23.588077"><ele>2449.3</ele><time>2026-04-05T12:07:05.000Z</time></trkpt>
<trkpt lat="42.192494" lon="23.588091"><ele>2449.3</ele><time>2026-04-05T12:07:06.000Z</time></trkpt>
<trkpt lat="42.192496" lon="23.588105"><ele>2448.5</ele><time>2026-04-05T12:07:07.000Z</time></trkpt>
<trkpt lat="42.192497" lon="23.588119"><ele>2448.5</ele><time>2026-04-05T12:07:08.000Z</time></trkpt>
<trkpt lat="42.192499" lon="23.588133"><ele>2448.5</ele><time>2026-04-05T12:07:09.000Z</time></trkpt>
<trkpt lat="42.192502" lon="23.588145"><ele>2448.5</ele><time>2026-04-05T12:07:10.000Z</time></trkpt>
<trkpt lat="42.192507" lon="23.588155"><ele>2448.5</ele><time>2026-04-05T12:07:11.000Z</time></trkpt>
<trkpt lat="42.19251" lon="23.588165"><ele>2446.9</ele><time>2026-04-05T12:07:12.000Z</time></trkpt>
<trkpt lat="42.192514" lon="23.588175"><ele>2446.9</ele><time>2026-04-05T12:07:13.000Z</time></trkpt>
<trkpt lat="42.192517" lon="23.588183"><ele>2446.9</ele><time>2026-04-05T12:07:14.000Z</time></trkpt>
<trkpt lat="42.19252" lon="23.588191"><ele>2446.9</ele><time>2026-04-05T12:07:15.000Z</time></trkpt>
<trkpt lat="42.192522" lon="23.588199"><ele>2446.9</ele><time>2026-04-05T12:07:16.000Z</time></trkpt>
<trkpt lat="42.192525" lon="23.588207"><ele>2445.1</ele><time>2026-04-05T12:07:17.000Z</time></trkpt>
<trkpt lat="42.192528" lon="23.588215"><ele>2445.1</ele><time>2026-04-05T12:07:18.000Z</time></trkpt>
<trkpt lat="42.192533" lon="23.588224"><ele>2445.1</ele><time>2026-04-05T12:07:19.000Z</time></trkpt>
<trkpt lat="42.192538" lon="23.588233"><ele>2445.1</ele><time>2026-04-05T12:07:20.000Z</time></trkpt>
<trkpt lat="42.192542" lon="23.58824"><ele>2445.1</ele><time>2026-04-05T12:07:21.000Z</time></trkpt>
<trkpt lat="42.192547" lon="23.588248"><ele>2444.1</ele><time>2026-04-05T12:07:22.000Z</time></trkpt>
<trkpt lat="42.192553" lon="23.588256"><ele>2444.1</ele><time>2026-04-05T12:07:23.000Z</time></trkpt>
<trkpt lat="42.192558" lon="23.588264"><ele>2444.1</ele><time>2026-04-05T12:07:24.000Z</time></trkpt>
<trkpt lat="42.192564" lon="23.588274"><ele>2444.1</ele><time>2026-04-05T12:07:25.000Z</time></trkpt>
<trkpt lat="42.192569" lon="23.588284"><ele>2444.1</ele><time>2026-04-05T12:07:26.000Z</time></trkpt>
<trkpt lat="42.192574" lon="23.588295"><ele>2442.1</ele><time>2026-04-05T12:07:27.000Z</time></trkpt>
<trkpt lat="42.19258" lon="23.588305"><ele>2442.1</ele><time>2026-04-05T12:07:28.000Z</time></trkpt>
<trkpt lat="42.192585" lon="23.588317"><ele>2442.1</ele><time>2026-04-05T12:07:29.000Z</time></trkpt>
<trkpt lat="42.19259" lon="23.588328"><ele>2442.1</ele><time>2026-04-05T12:07:30.000Z</time></trkpt>
<trkpt lat="42.192596" lon="23.58834"><ele>2442.1</ele><time>2026-04-05T12:07:31.000Z</time></trkpt>
<trkpt lat="42.192601" lon="23.588352"><ele>2440.4</ele><time>2026-04-05T12:07:32.000Z</time></trkpt>
<trkpt lat="42.192605" lon="23.588365"><ele>2440.4</ele><time>2026-04-05T12:07:33.000Z</time></trkpt>
<trkpt lat="42.192609" lon="23.588376"><ele>2440.4</ele><time>2026-04-05T12:07:34.000Z</time></trkpt>
<trkpt lat="42.192613" lon="23.588386"><ele>2440.4</ele><time>2026-04-05T12:07:35.000Z</time></trkpt>
<trkpt lat="42.192617" lon="23.588396"><ele>2440.4</ele><time>2026-04-05T12:07:36.000Z</time></trkpt>
<trkpt lat="42.19262" lon="23.588406"><ele>2439.6</ele><time>2026-04-05T12:07:37.000Z</time></trkpt>
<trkpt lat="42.192624" lon="23.588415"><ele>2439.6</ele><time>2026-04-05T12:07:38.000Z</time></trkpt>
<trkpt lat="42.192628" lon="23.588423"><ele>2439.6</ele><time>2026-04-05T12:07:39.000Z</time></trkpt>
<trkpt lat="42.192632" lon="23.588431"><ele>2439.6</ele><time>2026-04-05T12:07:40.000Z</time></trkpt>
<trkpt lat="42.192635" lon="23.588439"><ele>2439.6</ele><time>2026-04-05T12:07:41.000Z</time></trkpt>
<trkpt lat="42.19264" lon="23.588448"><ele>2438.2</ele><time>2026-04-05T12:07:42.000Z</time></trkpt>
<trkpt lat="42.192644" lon="23.588459"><ele>2438.2</ele><time>2026-04-05T12:07:43.000Z</time></trkpt>
<trkpt lat="42.192648" lon="23.58847"><ele>2438.2</ele><time>2026-04-05T12:07:44.000Z</time></trkpt>
<trkpt lat="42.192653" lon="23.588482"><ele>2438.2</ele><time>2026-04-05T12:07:45.000Z</time></trkpt>
<trkpt lat="42.192657" lon="23.588494"><ele>2438.2</ele><time>2026-04-05T12:07:46.000Z</time></trkpt>
<trkpt lat="42.192662" lon="23.588507"><ele>2436.8</ele><time>2026-04-05T12:07:47.000Z</time></trkpt>
<trkpt lat="42.192666" lon="23.588518"><ele>2436.8</ele><time>2026-04-05T12:07:48.000Z</time></trkpt>
<trkpt lat="42.192671" lon="23.588528"><ele>2436.8</ele><time>2026-04-05T12:07:49.000Z</time></trkpt>
<trkpt lat="42.192677" lon="23.588538"><ele>2436.8</ele><time>2026-04-05T12:07:50.000Z</time></trkpt>
<trkpt lat="42.192683" lon="23.588548"><ele>2436.8</ele><time>2026-04-05T12:07:51.000Z</time></trkpt>
<trkpt lat="42.192689" lon="23.588559"><ele>2436.1</ele><time>2026-04-05T12:07:52.000Z</time></trkpt>
<trkpt lat="42.192695" lon="23.588571"><ele>2436.1</ele><time>2026-04-05T12:07:53.000Z</time></trkpt>
<trkpt lat="42.192702" lon="23.588582"><ele>2436.1</ele><time>2026-04-05T12:07:54.000Z</time></trkpt>
<trkpt lat="42.192709" lon="23.588593"><ele>2436.1</ele><time>2026-04-05T12:07:55.000Z</time></trkpt>
<trkpt lat="42.192716" lon="23.588603"><ele>2436.1</ele><time>2026-04-05T12:07:56.000Z</time></trkpt>
<trkpt lat="42.192725" lon="23.588612"><ele>2434.6</ele><time>2026-04-05T12:07:57.000Z</time></trkpt>
<trkpt lat="42.192734" lon="23.588619"><ele>2434.6</ele><time>2026-04-05T12:07:58.000Z</time></trkpt>
<trkpt lat="42.192742" lon="23.588627"><ele>2434.6</ele><time>2026-04-05T12:07:59.000Z</time></trkpt>
<trkpt lat="42.192751" lon="23.588634"><ele>2434.6</ele><time>2026-04-05T12:08:00.000Z</time></trkpt>
<trkpt lat="42.192759" lon="23.588641"><ele>2434.6</ele><time>2026-04-05T12:08:01.000Z</time></trkpt>
<trkpt lat="42.192767" lon="23.588648"><ele>2433.1</ele><time>2026-04-05T12:08:02.000Z</time></trkpt>
<trkpt lat="42.192775" lon="23.588655"><ele>2433.1</ele><time>2026-04-05T12:08:03.000Z</time></trkpt>
<trkpt lat="42.192784" lon="23.588664"><ele>2433.1</ele><time>2026-04-05T12:08:04.000Z</time></trkpt>
<trkpt lat="42.192793" lon="23.588672"><ele>2433.1</ele><time>2026-04-05T12:08:05.000Z</time></trkpt>
<trkpt lat="42.192802" lon="23.58868"><ele>2433.1</ele><time>2026-04-05T12:08:06.000Z</time></trkpt>
<trkpt lat="42.192811" lon="23.588688"><ele>2432.3</ele><time>2026-04-05T12:08:07.000Z</time></trkpt>
<trkpt lat="42.192821" lon="23.588695"><ele>2432.3</ele><time>2026-04-05T12:08:08.000Z</time></trkpt>
<trkpt lat="42.192832" lon="23.588702"><ele>2432.3</ele><time>2026-04-05T12:08:09.000Z</time></trkpt>
<trkpt lat="42.192842" lon="23.588709"><ele>2432.3</ele><time>2026-04-05T12:08:10.000Z</time></trkpt>
<trkpt lat="42.192852" lon="23.588714"><ele>2432.3</ele><time>2026-04-05T12:08:11.000Z</time></trkpt>
<trkpt lat="42.192862" lon="23.58872"><ele>2430.7</ele><time>2026-04-05T12:08:12.000Z</time></trkpt>
<trkpt lat="42.192871" lon="23.588725"><ele>2430.7</ele><time>2026-04-05T12:08:13.000Z</time></trkpt>
<trkpt lat="42.192881" lon="23.58873"><ele>2430.7</ele><time>2026-04-05T12:08:14.000Z</time></trkpt>
<trkpt lat="42.192891" lon="23.588734"><ele>2430.7</ele><time>2026-04-05T12:08:15.000Z</time></trkpt>
<trkpt lat="42.192902" lon="23.588738"><ele>2430.7</ele><time>2026-04-05T12:08:16.000Z</time></trkpt>
<trkpt lat="42.192913" lon="23.588741"><ele>2429.4</ele><time>2026-04-05T12:08:17.000Z</time></trkpt>
<trkpt lat="42.192924" lon="23.588743"><ele>2429.4</ele><time>2026-04-05T12:08:18.000Z</time></trkpt>
<trkpt lat="42.192936" lon="23.588744"><ele>2429.4</ele><time>2026-04-05T12:08:19.000Z</time></trkpt>
<trkpt lat="42.192947" lon="23.588745"><ele>2429.4</ele><time>2026-04-05T12:08:20.000Z</time></trkpt>
<trkpt lat="42.192958" lon="23.588747"><ele>2429.4</ele><time>2026-04-05T12:08:21.000Z</time></trkpt>
<trkpt lat="42.192969" lon="23.588749"><ele>2428.8</ele><time>2026-04-05T12:08:22.000Z</time></trkpt>
<trkpt lat="42.192979" lon="23.588751"><ele>2428.8</ele><time>2026-04-05T12:08:23.000Z</time></trkpt>
<trkpt lat="42.192988" lon="23.588753"><ele>2428.8</ele><time>2026-04-05T12:08:24.000Z</time></trkpt>
<trkpt lat="42.192998" lon="23.588755"><ele>2428.8</ele><time>2026-04-05T12:08:25.000Z</time></trkpt>
<trkpt lat="42.193008" lon="23.588756"><ele>2428.8</ele><time>2026-04-05T12:08:26.000Z</time></trkpt>
<trkpt lat="42.193019" lon="23.588755"><ele>2427.8</ele><time>2026-04-05T12:08:27.000Z</time></trkpt>
<trkpt lat="42.193031" lon="23.588754"><ele>2427.8</ele><time>2026-04-05T12:08:28.000Z</time></trkpt>
<trkpt lat="42.193043" lon="23.588753"><ele>2427.8</ele><time>2026-04-05T12:08:29.000Z</time></trkpt>
<trkpt lat="42.193054" lon="23.588751"><ele>2427.8</ele><time>2026-04-05T12:08:30.000Z</time></trkpt>
<trkpt lat="42.193065" lon="23.588749"><ele>2427.8</ele><time>2026-04-05T12:08:31.000Z</time></trkpt>
<trkpt lat="42.193076" lon="23.588748"><ele>2427.1</ele><time>2026-04-05T12:08:32.000Z</time></trkpt>
<trkpt lat="42.193087" lon="23.588747"><ele>2427.1</ele><time>2026-04-05T12:08:33.000Z</time></trkpt>
<trkpt lat="42.193097" lon="23.588747"><ele>2427.1</ele><time>2026-04-05T12:08:34.000Z</time></trkpt>
<trkpt lat="42.193107" lon="23.588747"><ele>2427.1</ele><time>2026-04-05T12:08:35.000Z</time></trkpt>
<trkpt lat="42.193118" lon="23.588747"><ele>2427.1</ele><time>2026-04-05T12:08:36.000Z</time></trkpt>
<trkpt lat="42.193128" lon="23.588745"><ele>2426.9</ele><time>2026-04-05T12:08:37.000Z</time></trkpt>
<trkpt lat="42.193139" lon="23.588745"><ele>2426.9</ele><time>2026-04-05T12:08:38.000Z</time></trkpt>
<trkpt lat="42.19315" lon="23.588743"><ele>2426.9</ele><time>2026-04-05T12:08:39.000Z</time></trkpt>
<trkpt lat="42.193161" lon="23.588742"><ele>2426.9</ele><time>2026-04-05T12:08:40.000Z</time></trkpt>
<trkpt lat="42.193171" lon="23.588741"><ele>2426.9</ele><time>2026-04-05T12:08:41.000Z</time></trkpt>
<trkpt lat="42.193181" lon="23.588739"><ele>2426.6</ele><time>2026-04-05T12:08:42.000Z</time></trkpt>
<trkpt lat="42.193192" lon="23.588737"><ele>2426.6</ele><time>2026-04-05T12:08:43.000Z</time></trkpt>
<trkpt lat="42.193202" lon="23.588736"><ele>2426.6</ele><time>2026-04-05T12:08:44.000Z</time></trkpt>
<trkpt lat="42.193212" lon="23.588735"><ele>2426.6</ele><time>2026-04-05T12:08:45.000Z</time></trkpt>
<trkpt lat="42.193223" lon="23.588735"><ele>2426.6</ele><time>2026-04-05T12:08:46.000Z</time></trkpt>
<trkpt lat="42.193232" lon="23.588736"><ele>2426.5</ele><time>2026-04-05T12:08:47.000Z</time></trkpt>
<trkpt lat="42.193242" lon="23.588738"><ele>2426.5</ele><time>2026-04-05T12:08:48.000Z</time></trkpt>
<trkpt lat="42.193253" lon="23.588739"><ele>2426.5</ele><time>2026-04-05T12:08:49.000Z</time></trkpt>
<trkpt lat="42.193263" lon="23.588741"><ele>2426.5</ele><time>2026-04-05T12:08:50.000Z</time></trkpt>
<trkpt lat="42.193273" lon="23.588742"><ele>2426.5</ele><time>2026-04-05T12:08:51.000Z</time></trkpt>
<trkpt lat="42.193282" lon="23.588742"><ele>2426.4</ele><time>2026-04-05T12:08:52.000Z</time></trkpt>
<trkpt lat="42.193291" lon="23.588742"><ele>2426.4</ele><time>2026-04-05T12:08:53.000Z</time></trkpt>
<trkpt lat="42.193299" lon="23.588741"><ele>2426.4</ele><time>2026-04-05T12:08:54.000Z</time></trkpt>
<trkpt lat="42.193309" lon="23.588743"><ele>2426.4</ele><time>2026-04-05T12:08:55.000Z</time></trkpt>
<trkpt lat="42.193321" lon="23.588746"><ele>2426.4</ele><time>2026-04-05T12:08:56.000Z</time></trkpt>
<trkpt lat="42.193334" lon="23.588749"><ele>2426.1</ele><time>2026-04-05T12:08:57.000Z</time></trkpt>
<trkpt lat="42.193346" lon="23.588753"><ele>2426.1</ele><time>2026-04-05T12:08:58.000Z</time></trkpt>
<trkpt lat="42.193357" lon="23.588757"><ele>2426.1</ele><time>2026-04-05T12:08:59.000Z</time></trkpt>
<trkpt lat="42.193367" lon="23.588759"><ele>2426.1</ele><time>2026-04-05T12:09:00.000Z</time></trkpt>
<trkpt lat="42.193376" lon="23.58876"><ele>2426.1</ele><time>2026-04-05T12:09:01.000Z</time></trkpt>
<trkpt lat="42.193385" lon="23.588762"><ele>2425.6</ele><time>2026-04-05T12:09:02.000Z</time></trkpt>
<trkpt lat="42.193394" lon="23.588764"><ele>2425.6</ele><time>2026-04-05T12:09:03.000Z</time></trkpt>
<trkpt lat="42.193405" lon="23.588767"><ele>2425.6</ele><time>2026-04-05T12:09:04.000Z</time></trkpt>
<trkpt lat="42.193416" lon="23.58877"><ele>2425.6</ele><time>2026-04-05T12:09:05.000Z</time></trkpt>
<trkpt lat="42.193427" lon="23.588773"><ele>2425.6</ele><time>2026-04-05T12:09:06.000Z</time></trkpt>
<trkpt lat="42.193438" lon="23.588777"><ele>2425.2</ele><time>2026-04-05T12:09:07.000Z</time></trkpt>
<trkpt lat="42.193449" lon="23.588779"><ele>2425.2</ele><time>2026-04-05T12:09:08.000Z</time></trkpt>
<trkpt lat="42.193458" lon="23.588782"><ele>2425.2</ele><time>2026-04-05T12:09:09.000Z</time></trkpt>
<trkpt lat="42.193468" lon="23.588784"><ele>2425.2</ele><time>2026-04-05T12:09:10.000Z</time></trkpt>
<trkpt lat="42.193479" lon="23.588787"><ele>2425.2</ele><time>2026-04-05T12:09:11.000Z</time></trkpt>
<trkpt lat="42.193488" lon="23.588791"><ele>2424.3</ele><time>2026-04-05T12:09:12.000Z</time></trkpt>
<trkpt lat="42.193497" lon="23.588794"><ele>2424.3</ele><time>2026-04-05T12:09:13.000Z</time></trkpt>
<trkpt lat="42.193505" lon="23.588798"><ele>2424.3</ele><time>2026-04-05T12:09:14.000Z</time></trkpt>
<trkpt lat="42.193513" lon="23.588802"><ele>2424.3</ele><time>2026-04-05T12:09:15.000Z</time></trkpt>
<trkpt lat="42.193521" lon="23.588805"><ele>2424.3</ele><time>2026-04-05T12:09:16.000Z</time></trkpt>
<trkpt lat="42.193529" lon="23.588809"><ele>2423.1</ele><time>2026-04-05T12:09:17.000Z</time></trkpt>
<trkpt lat="42.193539" lon="23.588812"><ele>2423.1</ele><time>2026-04-05T12:09:18.000Z</time></trkpt>
<trkpt lat="42.193549" lon="23.588816"><ele>2423.1</ele><time>2026-04-05T12:09:19.000Z</time></trkpt>
<trkpt lat="42.19356" lon="23.58882"><ele>2423.1</ele><time>2026-04-05T12:09:20.000Z</time></trkpt>
<trkpt lat="42.193569" lon="23.588823"><ele>2423.1</ele><time>2026-04-05T12:09:21.000Z</time></trkpt>
<trkpt lat="42.193578" lon="23.588826"><ele>2422.4</ele><time>2026-04-05T12:09:22.000Z</time></trkpt>
<trkpt lat="42.193588" lon="23.588829"><ele>2422.4</ele><time>2026-04-05T12:09:23.000Z</time></trkpt>
<trkpt lat="42.193597" lon="23.588832"><ele>2422.4</ele><time>2026-04-05T12:09:24.000Z</time></trkpt>
<trkpt lat="42.193608" lon="23.588835"><ele>2422.4</ele><time>2026-04-05T12:09:25.000Z</time></trkpt>
<trkpt lat="42.193619" lon="23.588839"><ele>2422.4</ele><time>2026-04-05T12:09:26.000Z</time></trkpt>
<trkpt lat="42.19363" lon="23.588842"><ele>2421.1</ele><time>2026-04-05T12:09:27.000Z</time></trkpt>
<trkpt lat="42.193641" lon="23.588846"><ele>2421.1</ele><time>2026-04-05T12:09:28.000Z</time></trkpt>
<trkpt lat="42.193651" lon="23.588849"><ele>2421.1</ele><time>2026-04-05T12:09:29.000Z</time></trkpt>
<trkpt lat="42.193661" lon="23.588854"><ele>2421.1</ele><time>2026-04-05T12:09:30.000Z</time></trkpt>
<trkpt lat="42.193672" lon="23.588859"><ele>2421.1</ele><time>2026-04-05T12:09:31.000Z</time></trkpt>
<trkpt lat="42.193683" lon="23.588864"><ele>2420.2</ele><time>2026-04-05T12:09:32.000Z</time></trkpt>
<trkpt lat="42.193694" lon="23.58887"><ele>2420.2</ele><time>2026-04-05T12:09:33.000Z</time></trkpt>
<trkpt lat="42.193705" lon="23.588875"><ele>2420.2</ele><time>2026-04-05T12:09:34.000Z</time></trkpt>
<trkpt lat="42.193715" lon="23.588878"><ele>2420.2</ele><time>2026-04-05T12:09:35.000Z</time></trkpt>
<trkpt lat="42.193724" lon="23.588882"><ele>2420.2</ele><time>2026-04-05T12:09:36.000Z</time></trkpt>
<trkpt lat="42.193734" lon="23.588885"><ele>2419.9</ele><time>2026-04-05T12:09:37.000Z</time></trkpt>
<trkpt lat="42.193744" lon="23.588888"><ele>2419.9</ele><time>2026-04-05T12:09:38.000Z</time></trkpt>
<trkpt lat="42.193755" lon="23.588891"><ele>2419.9</ele><time>2026-04-05T12:09:39.000Z</time></trkpt>
<trkpt lat="42.193766" lon="23.588895"><ele>2419.9</ele><time>2026-04-05T12:09:40.000Z</time></trkpt>
<trkpt lat="42.193778" lon="23.588899"><ele>2419.9</ele><time>2026-04-05T12:09:41.000Z</time></trkpt>
<trkpt lat="42.193789" lon="23.588904"><ele>2419.2</ele><time>2026-04-05T12:09:42.000Z</time></trkpt>
<trkpt lat="42.1938" lon="23.588907"><ele>2419.2</ele><time>2026-04-05T12:09:43.000Z</time></trkpt>
<trkpt lat="42.19381" lon="23.588911"><ele>2419.2</ele><time>2026-04-05T12:09:44.000Z</time></trkpt>
<trkpt lat="42.193819" lon="23.588914"><ele>2419.2</ele><time>2026-04-05T12:09:45.000Z</time></trkpt>
<trkpt lat="42.193829" lon="23.588916"><ele>2419.2</ele><time>2026-04-05T12:09:46.000Z</time></trkpt>
<trkpt lat="42.19384" lon="23.588918"><ele>2418.3</ele><time>2026-04-05T12:09:47.000Z</time></trkpt>
<trkpt lat="42.193852" lon="23.58892"><ele>2418.3</ele><time>2026-04-05T12:09:48.000Z</time></trkpt>
<trkpt lat="42.193864" lon="23.588923"><ele>2418.3</ele><time>2026-04-05T12:09:49.000Z</time></trkpt>
<trkpt lat="42.193875" lon="23.588926"><ele>2418.3</ele><time>2026-04-05T12:09:50.000Z</time></trkpt>
<trkpt lat="42.193886" lon="23.588929"><ele>2418.3</ele><time>2026-04-05T12:09:51.000Z</time></trkpt>
<trkpt lat="42.193895" lon="23.588933"><ele>2417.7</ele><time>2026-04-05T12:09:52.000Z</time></trkpt>
<trkpt lat="42.193904" lon="23.588937"><ele>2417.7</ele><time>2026-04-05T12:09:53.000Z</time></trkpt>
<trkpt lat="42.193913" lon="23.588942"><ele>2417.7</ele><time>2026-04-05T12:09:54.000Z</time></trkpt>
<trkpt lat="42.193923" lon="23.588946"><ele>2417.7</ele><time>2026-04-05T12:09:55.000Z</time></trkpt>
<trkpt lat="42.193932" lon="23.588951"><ele>2417.7</ele><time>2026-04-05T12:09:56.000Z</time></trkpt>
<trkpt lat="42.193942" lon="23.588956"><ele>2416.5</ele><time>2026-04-05T12:09:57.000Z</time></trkpt>
<trkpt lat="42.193952" lon="23.588961"><ele>2416.5</ele><time>2026-04-05T12:09:58.000Z</time></trkpt>
<trkpt lat="42.193961" lon="23.588966"><ele>2416.5</ele><time>2026-04-05T12:09:59.000Z</time></trkpt>
<trkpt lat="42.19397" lon="23.588971"><ele>2416.5</ele><time>2026-04-05T12:10:00.000Z</time></trkpt>
<trkpt lat="42.19398" lon="23.588975"><ele>2416.5</ele><time>2026-04-05T12:10:01.000Z</time></trkpt>
<trkpt lat="42.19399" lon="23.58898"><ele>2415.1</ele><time>2026-04-05T12:10:02.000Z</time></trkpt>
<trkpt lat="42.194" lon="23.588984"><ele>2415.1</ele><time>2026-04-05T12:10:03.000Z</time></trkpt>
<trkpt lat="42.194011" lon="23.588988"><ele>2415.1</ele><time>2026-04-05T12:10:04.000Z</time></trkpt>
<trkpt lat="42.194023" lon="23.588993"><ele>2415.1</ele><time>2026-04-05T12:10:05.000Z</time></trkpt>
<trkpt lat="42.194035" lon="23.588997"><ele>2415.1</ele><time>2026-04-05T12:10:06.000Z</time></trkpt>
<trkpt lat="42.194048" lon="23.589002"><ele>2414.4</ele><time>2026-04-05T12:10:07.000Z</time></trkpt>
<trkpt lat="42.19406" lon="23.589006"><ele>2414.4</ele><time>2026-04-05T12:10:08.000Z</time></trkpt>
<trkpt lat="42.194072" lon="23.58901"><ele>2414.4</ele><time>2026-04-05T12:10:09.000Z</time></trkpt>
<trkpt lat="42.194084" lon="23.589013"><ele>2414.4</ele><time>2026-04-05T12:10:10.000Z</time></trkpt>
<trkpt lat="42.194097" lon="23.589015"><ele>2414.4</ele><time>2026-04-05T12:10:11.000Z</time></trkpt>
<trkpt lat="42.194109" lon="23.589016"><ele>2413</ele><time>2026-04-05T12:10:12.000Z</time></trkpt>
<trkpt lat="42.194122" lon="23.589017"><ele>2413</ele><time>2026-04-05T12:10:13.000Z</time></trkpt>
<trkpt lat="42.194133" lon="23.589019"><ele>2413</ele><time>2026-04-05T12:10:14.000Z</time></trkpt>
<trkpt lat="42.194145" lon="23.589021"><ele>2413</ele><time>2026-04-05T12:10:15.000Z</time></trkpt>
<trkpt lat="42.194156" lon="23.589023"><ele>2413</ele><time>2026-04-05T12:10:16.000Z</time></trkpt>
<trkpt lat="42.194168" lon="23.589026"><ele>2412</ele><time>2026-04-05T12:10:17.000Z</time></trkpt>
<trkpt lat="42.194181" lon="23.589028"><ele>2412</ele><time>2026-04-05T12:10:18.000Z</time></trkpt>
<trkpt lat="42.194195" lon="23.589031"><ele>2412</ele><time>2026-04-05T12:10:19.000Z</time></trkpt>
<trkpt lat="42.194209" lon="23.589035"><ele>2412</ele><time>2026-04-05T12:10:20.000Z</time></trkpt>
<trkpt lat="42.194222" lon="23.58904"><ele>2412</ele><time>2026-04-05T12:10:21.000Z</time></trkpt>
<trkpt lat="42.194233" lon="23.589045"><ele>2411.5</ele><time>2026-04-05T12:10:22.000Z</time></trkpt>
<trkpt lat="42.194244" lon="23.58905"><ele>2411.5</ele><time>2026-04-05T12:10:23.000Z</time></trkpt>
<trkpt lat="42.194254" lon="23.589054"><ele>2411.5</ele><time>2026-04-05T12:10:24.000Z</time></trkpt>
<trkpt lat="42.194265" lon="23.589057"><ele>2411.5</ele><time>2026-04-05T12:10:25.000Z</time></trkpt>
<trkpt lat="42.194277" lon="23.589061"><ele>2411.5</ele><time>2026-04-05T12:10:26.000Z</time></trkpt>
<trkpt lat="42.194291" lon="23.589064"><ele>2410.6</ele><time>2026-04-05T12:10:27.000Z</time></trkpt>
<trkpt lat="42.194304" lon="23.589067"><ele>2410.6</ele><time>2026-04-05T12:10:28.000Z</time></trkpt>
<trkpt lat="42.194318" lon="23.589071"><ele>2410.6</ele><time>2026-04-05T12:10:29.000Z</time></trkpt>
<trkpt lat="42.194331" lon="23.589075"><ele>2410.6</ele><time>2026-04-05T12:10:30.000Z</time></trkpt>
<trkpt lat="42.194343" lon="23.589079"><ele>2410.6</ele><time>2026-04-05T12:10:31.000Z</time></trkpt>
<trkpt lat="42.194356" lon="23.589083"><ele>2409.8</ele><time>2026-04-05T12:10:32.000Z</time></trkpt>
<trkpt lat="42.194368" lon="23.589087"><ele>2409.8</ele><time>2026-04-05T12:10:33.000Z</time></trkpt>
<trkpt lat="42.194381" lon="23.589091"><ele>2409.8</ele><time>2026-04-05T12:10:34.000Z</time></trkpt>
<trkpt lat="42.194393" lon="23.589095"><ele>2409.8</ele><time>2026-04-05T12:10:35.000Z</time></trkpt>
<trkpt lat="42.194405" lon="23.589099"><ele>2409.8</ele><time>2026-04-05T12:10:36.000Z</time></trkpt>
<trkpt lat="42.194416" lon="23.589104"><ele>2409.4</ele><time>2026-04-05T12:10:37.000Z</time></trkpt>
<trkpt lat="42.194427" lon="23.589109"><ele>2409.4</ele><time>2026-04-05T12:10:38.000Z</time></trkpt>
<trkpt lat="42.194439" lon="23.589113"><ele>2409.4</ele><time>2026-04-05T12:10:39.000Z</time></trkpt>
<trkpt lat="42.194451" lon="23.589118"><ele>2409.4</ele><time>2026-04-05T12:10:40.000Z</time></trkpt>
<trkpt lat="42.194461" lon="23.589122"><ele>2409.4</ele><time>2026-04-05T12:10:41.000Z</time></trkpt>
<trkpt lat="42.194472" lon="23.589127"><ele>2408.9</ele><time>2026-04-05T12:10:42.000Z</time></trkpt>
<trkpt lat="42.194481" lon="23.589131"><ele>2408.9</ele><time>2026-04-05T12:10:43.000Z</time></trkpt>
<trkpt lat="42.19449" lon="23.589135"><ele>2408.9</ele><time>2026-04-05T12:10:44.000Z</time></trkpt>
<trkpt lat="42.194499" lon="23.589138"><ele>2408.9</ele><time>2026-04-05T12:10:45.000Z</time></trkpt>
<trkpt lat="42.19451" lon="23.589141"><ele>2408.9</ele><time>2026-04-05T12:10:46.000Z</time></trkpt>
<trkpt lat="42.194522" lon="23.589144"><ele>2408.3</ele><time>2026-04-05T12:10:47.000Z</time></trkpt>
<trkpt lat="42.194535" lon="23.589147"><ele>2408.3</ele><time>2026-04-05T12:10:48.000Z</time></trkpt>
<trkpt lat="42.194549" lon="23.589149"><ele>2408.3</ele><time>2026-04-05T12:10:49.000Z</time></trkpt>
<trkpt lat="42.194563" lon="23.589152"><ele>2408.3</ele><time>2026-04-05T12:10:50.000Z</time></trkpt>
<trkpt lat="42.194576" lon="23.589153"><ele>2408.3</ele><time>2026-04-05T12:10:51.000Z</time></trkpt>
<trkpt lat="42.194587" lon="23.589155"><ele>2408</ele><time>2026-04-05T12:10:52.000Z</time></trkpt>
<trkpt lat="42.194597" lon="23.589157"><ele>2408</ele><time>2026-04-05T12:10:53.000Z</time></trkpt>
<trkpt lat="42.194608" lon="23.589161"><ele>2408</ele><time>2026-04-05T12:10:54.000Z</time></trkpt>
<trkpt lat="42.19462" lon="23.589165"><ele>2408</ele><time>2026-04-05T12:10:55.000Z</time></trkpt>
<trkpt lat="42.194632" lon="23.58917"><ele>2408</ele><time>2026-04-05T12:10:56.000Z</time></trkpt>
<trkpt lat="42.194644" lon="23.589175"><ele>2407.2</ele><time>2026-04-05T12:10:57.000Z</time></trkpt>
<trkpt lat="42.194656" lon="23.58918"><ele>2407.2</ele><time>2026-04-05T12:10:58.000Z</time></trkpt>
<trkpt lat="42.194667" lon="23.589184"><ele>2407.2</ele><time>2026-04-05T12:10:59.000Z</time></trkpt>
<trkpt lat="42.194678" lon="23.589187"><ele>2407.2</ele><time>2026-04-05T12:11:00.000Z</time></trkpt>
<trkpt lat="42.194688" lon="23.589189"><ele>2407.2</ele><time>2026-04-05T12:11:01.000Z</time></trkpt>
<trkpt lat="42.194699" lon="23.589193"><ele>2406.4</ele><time>2026-04-05T12:11:02.000Z</time></trkpt>
<trkpt lat="42.19471" lon="23.589195"><ele>2406.4</ele><time>2026-04-05T12:11:03.000Z</time></trkpt>
<trkpt lat="42.194722" lon="23.589199"><ele>2406.4</ele><time>2026-04-05T12:11:04.000Z</time></trkpt>
<trkpt lat="42.194735" lon="23.589203"><ele>2406.4</ele><time>2026-04-05T12:11:05.000Z</time></trkpt>
<trkpt lat="42.194747" lon="23.589207"><ele>2406.4</ele><time>2026-04-05T12:11:06.000Z</time></trkpt>
<trkpt lat="42.194759" lon="23.589211"><ele>2406</ele><time>2026-04-05T12:11:07.000Z</time></trkpt>
<trkpt lat="42.194769" lon="23.589215"><ele>2406</ele><time>2026-04-05T12:11:08.000Z</time></trkpt>
<trkpt lat="42.194778" lon="23.58922"><ele>2406</ele><time>2026-04-05T12:11:09.000Z</time></trkpt>
<trkpt lat="42.194788" lon="23.589225"><ele>2406</ele><time>2026-04-05T12:11:10.000Z</time></trkpt>
<trkpt lat="42.194798" lon="23.58923"><ele>2406</ele><time>2026-04-05T12:11:11.000Z</time></trkpt>
<trkpt lat="42.194808" lon="23.589236"><ele>2405.4</ele><time>2026-04-05T12:11:12.000Z</time></trkpt>
<trkpt lat="42.19482" lon="23.589242"><ele>2405.4</ele><time>2026-04-05T12:11:13.000Z</time></trkpt>
<trkpt lat="42.194832" lon="23.589248"><ele>2405.4</ele><time>2026-04-05T12:11:14.000Z</time></trkpt>
<trkpt lat="42.194844" lon="23.589254"><ele>2405.4</ele><time>2026-04-05T12:11:15.000Z</time></trkpt>
<trkpt lat="42.194856" lon="23.589257"><ele>2405.4</ele><time>2026-04-05T12:11:16.000Z</time></trkpt>
<trkpt lat="42.194867" lon="23.58926"><ele>2404.7</ele><time>2026-04-05T12:11:17.000Z</time></trkpt>
<trkpt lat="42.194878" lon="23.589262"><ele>2404.7</ele><time>2026-04-05T12:11:18.000Z</time></trkpt>
<trkpt lat="42.194889" lon="23.589264"><ele>2404.7</ele><time>2026-04-05T12:11:19.000Z</time></trkpt>
<trkpt lat="42.194901" lon="23.589264"><ele>2404.7</ele><time>2026-04-05T12:11:20.000Z</time></trkpt>
<trkpt lat="42.194913" lon="23.589265"><ele>2404.7</ele><time>2026-04-05T12:11:21.000Z</time></trkpt>
<trkpt lat="42.194926" lon="23.589267"><ele>2404.3</ele><time>2026-04-05T12:11:22.000Z</time></trkpt>
<trkpt lat="42.194939" lon="23.589268"><ele>2404.3</ele><time>2026-04-05T12:11:23.000Z</time></trkpt>
<trkpt lat="42.19495" lon="23.589269"><ele>2404.3</ele><time>2026-04-05T12:11:24.000Z</time></trkpt>
<trkpt lat="42.194961" lon="23.589271"><ele>2404.3</ele><time>2026-04-05T12:11:25.000Z</time></trkpt>
<trkpt lat="42.194972" lon="23.589273"><ele>2404.3</ele><time>2026-04-05T12:11:26.000Z</time></trkpt>
<trkpt lat="42.194983" lon="23.589275"><ele>2403.6</ele><time>2026-04-05T12:11:27.000Z</time></trkpt>
<trkpt lat="42.194994" lon="23.589278"><ele>2403.6</ele><time>2026-04-05T12:11:28.000Z</time></trkpt>
<trkpt lat="42.195004" lon="23.58928"><ele>2403.6</ele><time>2026-04-05T12:11:29.000Z</time></trkpt>
<trkpt lat="42.195014" lon="23.589282"><ele>2403.6</ele><time>2026-04-05T12:11:30.000Z</time></trkpt>
<trkpt lat="42.195024" lon="23.589285"><ele>2403.6</ele><time>2026-04-05T12:11:31.000Z</time></trkpt>
<trkpt lat="42.195034" lon="23.589289"><ele>2403.2</ele><time>2026-04-05T12:11:32.000Z</time></trkpt>
<trkpt lat="42.195044" lon="23.589292"><ele>2403.2</ele><time>2026-04-05T12:11:33.000Z</time></trkpt>
<trkpt lat="42.195055" lon="23.589295"><ele>2403.2</ele><time>2026-04-05T12:11:34.000Z</time></trkpt>
<trkpt lat="42.195066" lon="23.589299"><ele>2403.2</ele><time>2026-04-05T12:11:35.000Z</time></trkpt>
<trkpt lat="42.195078" lon="23.589302"><ele>2403.2</ele><time>2026-04-05T12:11:36.000Z</time></trkpt>
<trkpt lat="42.195088" lon="23.589306"><ele>2403.1</ele><time>2026-04-05T12:11:37.000Z</time></trkpt>
<trkpt lat="42.195099" lon="23.589311"><ele>2403.1</ele><time>2026-04-05T12:11:38.000Z</time></trkpt>
<trkpt lat="42.195109" lon="23.589315"><ele>2403.1</ele><time>2026-04-05T12:11:39.000Z</time></trkpt>
<trkpt lat="42.195118" lon="23.58932"><ele>2403.1</ele><time>2026-04-05T12:11:40.000Z</time></trkpt>
<trkpt lat="42.195127" lon="23.589323"><ele>2403.1</ele><time>2026-04-05T12:11:41.000Z</time></trkpt>
<trkpt lat="42.195136" lon="23.589326"><ele>2403</ele><time>2026-04-05T12:11:42.000Z</time></trkpt>
<trkpt lat="42.195145" lon="23.589327"><ele>2403</ele><time>2026-04-05T12:11:43.000Z</time></trkpt>
<trkpt lat="42.195154" lon="23.589329"><ele>2403</ele><time>2026-04-05T12:11:44.000Z</time></trkpt>
<trkpt lat="42.195162" lon="23.589329"><ele>2403</ele><time>2026-04-05T12:11:45.000Z</time></trkpt>
<trkpt lat="42.195172" lon="23.58933"><ele>2403</ele><time>2026-04-05T12:11:46.000Z</time></trkpt>
<trkpt lat="42.195183" lon="23.58933"><ele>2403</ele><time>2026-04-05T12:11:47.000Z</time></trkpt>
<trkpt lat="42.195194" lon="23.58933"><ele>2403</ele><time>2026-04-05T12:11:48.000Z</time></trkpt>
<trkpt lat="42.195206" lon="23.589329"><ele>2403</ele><time>2026-04-05T12:11:49.000Z</time></trkpt>
<trkpt lat="42.195218" lon="23.589329"><ele>2403</ele><time>2026-04-05T12:11:50.000Z</time></trkpt>
<trkpt lat="42.195229" lon="23.589328"><ele>2403</ele><time>2026-04-05T12:11:51.000Z</time></trkpt>
<trkpt lat="42.195241" lon="23.589327"><ele>2403</ele><time>2026-04-05T12:11:52.000Z</time></trkpt>
<trkpt lat="42.195252" lon="23.589325"><ele>2403</ele><time>2026-04-05T12:11:53.000Z</time></trkpt>
<trkpt lat="42.195264" lon="23.589324"><ele>2403</ele><time>2026-04-05T12:11:54.000Z</time></trkpt>
<trkpt lat="42.195277" lon="23.589323"><ele>2403</ele><time>2026-04-05T12:11:55.000Z</time></trkpt>
<trkpt lat="42.19529" lon="23.589322"><ele>2403</ele><time>2026-04-05T12:11:56.000Z</time></trkpt>
<trkpt lat="42.195303" lon="23.589322"><ele>2403.1</ele><time>2026-04-05T12:11:57.000Z</time></trkpt>
<trkpt lat="42.195316" lon="23.589321"><ele>2403.1</ele><time>2026-04-05T12:11:58.000Z</time></trkpt>
<trkpt lat="42.195327" lon="23.58932"><ele>2403.1</ele><time>2026-04-05T12:11:59.000Z</time></trkpt>
<trkpt lat="42.195337" lon="23.589319"><ele>2403.1</ele><time>2026-04-05T12:12:00.000Z</time></trkpt>
<trkpt lat="42.195348" lon="23.589317"><ele>2403.1</ele><time>2026-04-05T12:12:01.000Z</time></trkpt>
<trkpt lat="42.195358" lon="23.589316"><ele>2403</ele><time>2026-04-05T12:12:02.000Z</time></trkpt>
<trkpt lat="42.195368" lon="23.589314"><ele>2403</ele><time>2026-04-05T12:12:03.000Z</time></trkpt>
<trkpt lat="42.195378" lon="23.589312"><ele>2403</ele><time>2026-04-05T12:12:04.000Z</time></trkpt>
<trkpt lat="42.195388" lon="23.58931"><ele>2403</ele><time>2026-04-05T12:12:05.000Z</time></trkpt>
<trkpt lat="42.195397" lon="23.589308"><ele>2403</ele><time>2026-04-05T12:12:06.000Z</time></trkpt>
<trkpt lat="42.195406" lon="23.589304"><ele>2402.9</ele><time>2026-04-05T12:12:07.000Z</time></trkpt>
<trkpt lat="42.195416" lon="23.589302"><ele>2402.9</ele><time>2026-04-05T12:12:08.000Z</time></trkpt>
<trkpt lat="42.195424" lon="23.589298"><ele>2402.9</ele><time>2026-04-05T12:12:09.000Z</time></trkpt>
<trkpt lat="42.195434" lon="23.589294"><ele>2402.9</ele><time>2026-04-05T12:12:10.000Z</time></trkpt>
<trkpt lat="42.195443" lon="23.58929"><ele>2402.9</ele><time>2026-04-05T12:12:11.000Z</time></trkpt>
<trkpt lat="42.195453" lon="23.589286"><ele>2402.6</ele><time>2026-04-05T12:12:12.000Z</time></trkpt>
<trkpt lat="42.195465" lon="23.589281"><ele>2402.6</ele><time>2026-04-05T12:12:13.000Z</time></trkpt>
<trkpt lat="42.195477" lon="23.589276"><ele>2402.6</ele><time>2026-04-05T12:12:14.000Z</time></trkpt>
<trkpt lat="42.195489" lon="23.589272"><ele>2402.6</ele><time>2026-04-05T12:12:15.000Z</time></trkpt>
<trkpt lat="42.1955" lon="23.589267"><ele>2402.6</ele><time>2026-04-05T12:12:16.000Z</time></trkpt>
<trkpt lat="42.195511" lon="23.589262"><ele>2402.3</ele><time>2026-04-05T12:12:17.000Z</time></trkpt>
<trkpt lat="42.195521" lon="23.589259"><ele>2402.3</ele><time>2026-04-05T12:12:18.000Z</time></trkpt>
<trkpt lat="42.195531" lon="23.589256"><ele>2402.3</ele><time>2026-04-05T12:12:19.000Z</time></trkpt>
<trkpt lat="42.195542" lon="23.589252"><ele>2402.3</ele><time>2026-04-05T12:12:20.000Z</time></trkpt>
<trkpt lat="42.195554" lon="23.589248"><ele>2402.3</ele><time>2026-04-05T12:12:21.000Z</time></trkpt>
<trkpt lat="42.195565" lon="23.589244"><ele>2402.1</ele><time>2026-04-05T12:12:22.000Z</time></trkpt>
<trkpt lat="42.195576" lon="23.589241"><ele>2402.1</ele><time>2026-04-05T12:12:23.000Z</time></trkpt>
<trkpt lat="42.195586" lon="23.589237"><ele>2402.1</ele><time>2026-04-05T12:12:24.000Z</time></trkpt>
<trkpt lat="42.195596" lon="23.589234"><ele>2402.1</ele><time>2026-04-05T12:12:25.000Z</time></trkpt>
<trkpt lat="42.195607" lon="23.589231"><ele>2402.1</ele><time>2026-04-05T12:12:26.000Z</time></trkpt>
<trkpt lat="42.195619" lon="23.589228"><ele>2401.6</ele><time>2026-04-05T12:12:27.000Z</time></trkpt>
<trkpt lat="42.195631" lon="23.589224"><ele>2401.6</ele><time>2026-04-05T12:12:28.000Z</time></trkpt>
<trkpt lat="42.195643" lon="23.589221"><ele>2401.6</ele><time>2026-04-05T12:12:29.000Z</time></trkpt>
<trkpt lat="42.195655" lon="23.589217"><ele>2401.6</ele><time>2026-04-05T12:12:30.000Z</time></trkpt>
<trkpt lat="42.195666" lon="23.589213"><ele>2401.6</ele><time>2026-04-05T12:12:31.000Z</time></trkpt>
<trkpt lat="42.195676" lon="23.589208"><ele>2401.2</ele><time>2026-04-05T12:12:32.000Z</time></trkpt>
<trkpt lat="42.195687" lon="23.589203"><ele>2401.2</ele><time>2026-04-05T12:12:33.000Z</time></trkpt>
<trkpt lat="42.195698" lon="23.589198"><ele>2401.2</ele><time>2026-04-05T12:12:34.000Z</time></trkpt>
<trkpt lat="42.195708" lon="23.589193"><ele>2401.2</ele><time>2026-04-05T12:12:35.000Z</time></trkpt>
<trkpt lat="42.195717" lon="23.589188"><ele>2401.2</ele><time>2026-04-05T12:12:36.000Z</time></trkpt>
<trkpt lat="42.195726" lon="23.589184"><ele>2401.1</ele><time>2026-04-05T12:12:37.000Z</time></trkpt>
<trkpt lat="42.195734" lon="23.589178"><ele>2401.1</ele><time>2026-04-05T12:12:38.000Z</time></trkpt>
<trkpt lat="42.195743" lon="23.589173"><ele>2401.1</ele><time>2026-04-05T12:12:39.000Z</time></trkpt>
<trkpt lat="42.195752" lon="23.589168"><ele>2401.1</ele><time>2026-04-05T12:12:40.000Z</time></trkpt>
<trkpt lat="42.195763" lon="23.589163"><ele>2401.1</ele><time>2026-04-05T12:12:41.000Z</time></trkpt>
<trkpt lat="42.195773" lon="23.589157"><ele>2400.8</ele><time>2026-04-05T12:12:42.000Z</time></trkpt>
<trkpt lat="42.195783" lon="23.589152"><ele>2400.8</ele><time>2026-04-05T12:12:43.000Z</time></trkpt>
<trkpt lat="42.195793" lon="23.589147"><ele>2400.8</ele><time>2026-04-05T12:12:44.000Z</time></trkpt>
<trkpt lat="42.195804" lon="23.589142"><ele>2400.8</ele><time>2026-04-05T12:12:45.000Z</time></trkpt>
<trkpt lat="42.195815" lon="23.589139"><ele>2400.8</ele><time>2026-04-05T12:12:46.000Z</time></trkpt>
<trkpt lat="42.195827" lon="23.589135"><ele>2400.2</ele><time>2026-04-05T12:12:47.000Z</time></trkpt>
<trkpt lat="42.195839" lon="23.589132"><ele>2400.2</ele><time>2026-04-05T12:12:48.000Z</time></trkpt>
<trkpt lat="42.195851" lon="23.589131"><ele>2400.2</ele><time>2026-04-05T12:12:49.000Z</time></trkpt>
<trkpt lat="42.195863" lon="23.589129"><ele>2400.2</ele><time>2026-04-05T12:12:50.000Z</time></trkpt>
<trkpt lat="42.195874" lon="23.589125"><ele>2400.2</ele><time>2026-04-05T12:12:51.000Z</time></trkpt>
<trkpt lat="42.195884" lon="23.589121"><ele>2399.8</ele><time>2026-04-05T12:12:52.000Z</time></trkpt>
<trkpt lat="42.195894" lon="23.589117"><ele>2399.8</ele><time>2026-04-05T12:12:53.000Z</time></trkpt>
<trkpt lat="42.195904" lon="23.589113"><ele>2399.8</ele><time>2026-04-05T12:12:54.000Z</time></trkpt>
<trkpt lat="42.195915" lon="23.589109"><ele>2399.8</ele><time>2026-04-05T12:12:55.000Z</time></trkpt>
<trkpt lat="42.195927" lon="23.589107"><ele>2399.8</ele><time>2026-04-05T12:12:56.000Z</time></trkpt>
<trkpt lat="42.195938" lon="23.589105"><ele>2399.1</ele><time>2026-04-05T12:12:57.000Z</time></trkpt>
<trkpt lat="42.195949" lon="23.589104"><ele>2399.1</ele><time>2026-04-05T12:12:58.000Z</time></trkpt>
<trkpt lat="42.195959" lon="23.589103"><ele>2399.1</ele><time>2026-04-05T12:12:59.000Z</time></trkpt>
<trkpt lat="42.195969" lon="23.589101"><ele>2399.1</ele><time>2026-04-05T12:13:00.000Z</time></trkpt>
<trkpt lat="42.195977" lon="23.589099"><ele>2399.1</ele><time>2026-04-05T12:13:01.000Z</time></trkpt>
<trkpt lat="42.195986" lon="23.589095"><ele>2398.7</ele><time>2026-04-05T12:13:02.000Z</time></trkpt>
<trkpt lat="42.195996" lon="23.589091"><ele>2398.7</ele><time>2026-04-05T12:13:03.000Z</time></trkpt>
<trkpt lat="42.196006" lon="23.589085"><ele>2398.7</ele><time>2026-04-05T12:13:04.000Z</time></trkpt>
<trkpt lat="42.196016" lon="23.58908"><ele>2398.7</ele><time>2026-04-05T12:13:05.000Z</time></trkpt>
<trkpt lat="42.196025" lon="23.589074"><ele>2398.7</ele><time>2026-04-05T12:13:06.000Z</time></trkpt>
<trkpt lat="42.196034" lon="23.589069"><ele>2398.5</ele><time>2026-04-05T12:13:07.000Z</time></trkpt>
<trkpt lat="42.196045" lon="23.589064"><ele>2398.5</ele><time>2026-04-05T12:13:08.000Z</time></trkpt>
<trkpt lat="42.196055" lon="23.589058"><ele>2398.5</ele><time>2026-04-05T12:13:09.000Z</time></trkpt>
<trkpt lat="42.196066" lon="23.589051"><ele>2398.5</ele><time>2026-04-05T12:13:10.000Z</time></trkpt>
<trkpt lat="42.196077" lon="23.589045"><ele>2398.5</ele><time>2026-04-05T12:13:11.000Z</time></trkpt>
<trkpt lat="42.196088" lon="23.58904"><ele>2398.3</ele><time>2026-04-05T12:13:12.000Z</time></trkpt>
<trkpt lat="42.196098" lon="23.589034"><ele>2398.3</ele><time>2026-04-05T12:13:13.000Z</time></trkpt>
<trkpt lat="42.196108" lon="23.589029"><ele>2398.3</ele><time>2026-04-05T12:13:14.000Z</time></trkpt>
<trkpt lat="42.196119" lon="23.589025"><ele>2398.3</ele><time>2026-04-05T12:13:15.000Z</time></trkpt>
<trkpt lat="42.19613" lon="23.589021"><ele>2398.3</ele><time>2026-04-05T12:13:16.000Z</time></trkpt>
<trkpt lat="42.196141" lon="23.589018"><ele>2398</ele><time>2026-04-05T12:13:17.000Z</time></trkpt>
<trkpt lat="42.196152" lon="23.589016"><ele>2398</ele><time>2026-04-05T12:13:18.000Z</time></trkpt>
<trkpt lat="42.196163" lon="23.589013"><ele>2398</ele><time>2026-04-05T12:13:19.000Z</time></trkpt>
<trkpt lat="42.196173" lon="23.589012"><ele>2398</ele><time>2026-04-05T12:13:20.000Z</time></trkpt>
<trkpt lat="42.196181" lon="23.58901"><ele>2398</ele><time>2026-04-05T12:13:21.000Z</time></trkpt>
<trkpt lat="42.19619" lon="23.589006"><ele>2397.9</ele><time>2026-04-05T12:13:22.000Z</time></trkpt>
<trkpt lat="42.196199" lon="23.589003"><ele>2397.9</ele><time>2026-04-05T12:13:23.000Z</time></trkpt>
<trkpt lat="42.196206" lon="23.588999"><ele>2397.9</ele><time>2026-04-05T12:13:24.000Z</time></trkpt>
<trkpt lat="42.196214" lon="23.588993"><ele>2397.9</ele><time>2026-04-05T12:13:25.000Z</time></trkpt>
<trkpt lat="42.196223" lon="23.588986"><ele>2397.9</ele><time>2026-04-05T12:13:26.000Z</time></trkpt>
<trkpt lat="42.196232" lon="23.588979"><ele>2397.7</ele><time>2026-04-05T12:13:27.000Z</time></trkpt>
<trkpt lat="42.196241" lon="23.588971"><ele>2397.7</ele><time>2026-04-05T12:13:28.000Z</time></trkpt>
<trkpt lat="42.196252" lon="23.588964"><ele>2397.7</ele><time>2026-04-05T12:13:29.000Z</time></trkpt>
<trkpt lat="42.196262" lon="23.588957"><ele>2397.7</ele><time>2026-04-05T12:13:30.000Z</time></trkpt>
<trkpt lat="42.19627" lon="23.588951"><ele>2397.7</ele><time>2026-04-05T12:13:31.000Z</time></trkpt>
<trkpt lat="42.196279" lon="23.588945"><ele>2397.5</ele><time>2026-04-05T12:13:32.000Z</time></trkpt>
<trkpt lat="42.196287" lon="23.588938"><ele>2397.5</ele><time>2026-04-05T12:13:33.000Z</time></trkpt>
<trkpt lat="42.196296" lon="23.588931"><ele>2397.5</ele><time>2026-04-05T12:13:34.000Z</time></trkpt>
<trkpt lat="42.196303" lon="23.588924"><ele>2397.5</ele><time>2026-04-05T12:13:35.000Z</time></trkpt>
<trkpt lat="42.196312" lon="23.588916"><ele>2397.5</ele><time>2026-04-05T12:13:36.000Z</time></trkpt>
<trkpt lat="42.19632" lon="23.588908"><ele>2397.4</ele><time>2026-04-05T12:13:37.000Z</time></trkpt>
<trkpt lat="42.196329" lon="23.588901"><ele>2397.4</ele><time>2026-04-05T12:13:38.000Z</time></trkpt>
<trkpt lat="42.196338" lon="23.588893"><ele>2397.4</ele><time>2026-04-05T12:13:39.000Z</time></trkpt>
<trkpt lat="42.196347" lon="23.588885"><ele>2397.4</ele><time>2026-04-05T12:13:40.000Z</time></trkpt>
<trkpt lat="42.196356" lon="23.588878"><ele>2397.4</ele><time>2026-04-05T12:13:41.000Z</time></trkpt>
<trkpt lat="42.196366" lon="23.588871"><ele>2397.1</ele><time>2026-04-05T12:13:42.000Z</time></trkpt>
<trkpt lat="42.196376" lon="23.588865"><ele>2397.1</ele><time>2026-04-05T12:13:43.000Z</time></trkpt>
<trkpt lat="42.196386" lon="23.588858"><ele>2397.1</ele><time>2026-04-05T12:13:44.000Z</time></trkpt>
<trkpt lat="42.196396" lon="23.588851"><ele>2397.1</ele><time>2026-04-05T12:13:45.000Z</time></trkpt>
<trkpt lat="42.196405" lon="23.588844"><ele>2397.1</ele><time>2026-04-05T12:13:46.000Z</time></trkpt>
<trkpt lat="42.196413" lon="23.58884"><ele>2396.8</ele><time>2026-04-05T12:13:47.000Z</time></trkpt>
<trkpt lat="42.196421" lon="23.588838"><ele>2396.8</ele><time>2026-04-05T12:13:48.000Z</time></trkpt>
<trkpt lat="42.196429" lon="23.588836"><ele>2396.8</ele><time>2026-04-05T12:13:49.000Z</time></trkpt>
<trkpt lat="42.196436" lon="23.588833"><ele>2396.8</ele><time>2026-04-05T12:13:50.000Z</time></trkpt>
<trkpt lat="42.196445" lon="23.58883"><ele>2396.8</ele><time>2026-04-05T12:13:51.000Z</time></trkpt>
<trkpt lat="42.196453" lon="23.588825"><ele>2396.7</ele><time>2026-04-05T12:13:52.000Z</time></trkpt>
<trkpt lat="42.196463" lon="23.58882"><ele>2396.7</ele><time>2026-04-05T12:13:53.000Z</time></trkpt>
<trkpt lat="42.196474" lon="23.588814"><ele>2396.7</ele><time>2026-04-05T12:13:54.000Z</time></trkpt>
<trkpt lat="42.196485" lon="23.588809"><ele>2396.7</ele><time>2026-04-05T12:13:55.000Z</time></trkpt>
<trkpt lat="42.196497" lon="23.588804"><ele>2396.7</ele><time>2026-04-05T12:13:56.000Z</time></trkpt>
<trkpt lat="42.196508" lon="23.588797"><ele>2396.5</ele><time>2026-04-05T12:13:57.000Z</time></trkpt>
<trkpt lat="42.196518" lon="23.588791"><ele>2396.5</ele><time>2026-04-05T12:13:58.000Z</time></trkpt>
<trkpt lat="42.196527" lon="23.588784"><ele>2396.5</ele><time>2026-04-05T12:13:59.000Z</time></trkpt>
<trkpt lat="42.196537" lon="23.588778"><ele>2396.5</ele><time>2026-04-05T12:14:00.000Z</time></trkpt>
<trkpt lat="42.196547" lon="23.588773"><ele>2396.5</ele><time>2026-04-05T12:14:01.000Z</time></trkpt>
<trkpt lat="42.196558" lon="23.588768"><ele>2396.3</ele><time>2026-04-05T12:14:02.000Z</time></trkpt>
<trkpt lat="42.19657" lon="23.588763"><ele>2396.3</ele><time>2026-04-05T12:14:03.000Z</time></trkpt>
<trkpt lat="42.19658" lon="23.588758"><ele>2396.3</ele><time>2026-04-05T12:14:04.000Z</time></trkpt>
<trkpt lat="42.196589" lon="23.588754"><ele>2396.3</ele><time>2026-04-05T12:14:05.000Z</time></trkpt>
<trkpt lat="42.196598" lon="23.588748"><ele>2396.3</ele><time>2026-04-05T12:14:06.000Z</time></trkpt>
<trkpt lat="42.196608" lon="23.588742"><ele>2396.3</ele><time>2026-04-05T12:14:07.000Z</time></trkpt>
<trkpt lat="42.196617" lon="23.588736"><ele>2396.3</ele><time>2026-04-05T12:14:08.000Z</time></trkpt>
<trkpt lat="42.196627" lon="23.588729"><ele>2396.3</ele><time>2026-04-05T12:14:09.000Z</time></trkpt>
<trkpt lat="42.196637" lon="23.58872"><ele>2396.3</ele><time>2026-04-05T12:14:10.000Z</time></trkpt>
<trkpt lat="42.196647" lon="23.588713"><ele>2396.3</ele><time>2026-04-05T12:14:11.000Z</time></trkpt>
<trkpt lat="42.196657" lon="23.588705"><ele>2396.2</ele><time>2026-04-05T12:14:12.000Z</time></trkpt>
<trkpt lat="42.196668" lon="23.588697"><ele>2396.2</ele><time>2026-04-05T12:14:13.000Z</time></trkpt>
<trkpt lat="42.196679" lon="23.58869"><ele>2396.2</ele><time>2026-04-05T12:14:14.000Z</time></trkpt>
<trkpt lat="42.196689" lon="23.588683"><ele>2396.2</ele><time>2026-04-05T12:14:15.000Z</time></trkpt>
<trkpt lat="42.196698" lon="23.588677"><ele>2396.2</ele><time>2026-04-05T12:14:16.000Z</time></trkpt>
<trkpt lat="42.196707" lon="23.588671"><ele>2396.2</ele><time>2026-04-05T12:14:17.000Z</time></trkpt>
<trkpt lat="42.196716" lon="23.588665"><ele>2396.2</ele><time>2026-04-05T12:14:18.000Z</time></trkpt>
<trkpt lat="42.196726" lon="23.588659"><ele>2396.2</ele><time>2026-04-05T12:14:19.000Z</time></trkpt>
<trkpt lat="42.196736" lon="23.588654"><ele>2396.2</ele><time>2026-04-05T12:14:20.000Z</time></trkpt>
<trkpt lat="42.196745" lon="23.588648"><ele>2396.2</ele><time>2026-04-05T12:14:21.000Z</time></trkpt>
<trkpt lat="42.196755" lon="23.588643"><ele>2396.1</ele><time>2026-04-05T12:14:22.000Z</time></trkpt>
<trkpt lat="42.196764" lon="23.588638"><ele>2396.1</ele><time>2026-04-05T12:14:23.000Z</time></trkpt>
<trkpt lat="42.196773" lon="23.588632"><ele>2396.1</ele><time>2026-04-05T12:14:24.000Z</time></trkpt>
<trkpt lat="42.196782" lon="23.588626"><ele>2396.1</ele><time>2026-04-05T12:14:25.000Z</time></trkpt>
<trkpt lat="42.196791" lon="23.588619"><ele>2396.1</ele><time>2026-04-05T12:14:26.000Z</time></trkpt>
<trkpt lat="42.196801" lon="23.588612"><ele>2396.2</ele><time>2026-04-05T12:14:27.000Z</time></trkpt>
<trkpt lat="42.196809" lon="23.588605"><ele>2396.2</ele><time>2026-04-05T12:14:28.000Z</time></trkpt>
<trkpt lat="42.196818" lon="23.588598"><ele>2396.2</ele><time>2026-04-05T12:14:29.000Z</time></trkpt>
<trkpt lat="42.196827" lon="23.588591"><ele>2396.2</ele><time>2026-04-05T12:14:30.000Z</time></trkpt>
<trkpt lat="42.196836" lon="23.588584"><ele>2396.2</ele><time>2026-04-05T12:14:31.000Z</time></trkpt>
<trkpt lat="42.196846" lon="23.588578"><ele>2396.2</ele><time>2026-04-05T12:14:32.000Z</time></trkpt>
<trkpt lat="42.196855" lon="23.588573"><ele>2396.2</ele><time>2026-04-05T12:14:33.000Z</time></trkpt>
<trkpt lat="42.196864" lon="23.588568"><ele>2396.2</ele><time>2026-04-05T12:14:34.000Z</time></trkpt>
<trkpt lat="42.196875" lon="23.588564"><ele>2396.2</ele><time>2026-04-05T12:14:35.000Z</time></trkpt>
<trkpt lat="42.196885" lon="23.58856"><ele>2396.2</ele><time>2026-04-05T12:14:36.000Z</time></trkpt>
<trkpt lat="42.196896" lon="23.588554"><ele>2396.2</ele><time>2026-04-05T12:14:37.000Z</time></trkpt>
<trkpt lat="42.196907" lon="23.588548"><ele>2396.2</ele><time>2026-04-05T12:14:38.000Z</time></trkpt>
<trkpt lat="42.196917" lon="23.588542"><ele>2396.2</ele><time>2026-04-05T12:14:39.000Z</time></trkpt>
<trkpt lat="42.196927" lon="23.588535"><ele>2396.2</ele><time>2026-04-05T12:14:40.000Z</time></trkpt>
<trkpt lat="42.196937" lon="23.588529"><ele>2396.2</ele><time>2026-04-05T12:14:41.000Z</time></trkpt>
<trkpt lat="42.196947" lon="23.588522"><ele>2396.3</ele><time>2026-04-05T12:14:42.000Z</time></trkpt>
<trkpt lat="42.196956" lon="23.588514"><ele>2396.3</ele><time>2026-04-05T12:14:43.000Z</time></trkpt>
<trkpt lat="42.196965" lon="23.588507"><ele>2396.3</ele><time>2026-04-05T12:14:44.000Z</time></trkpt>
<trkpt lat="42.196973" lon="23.5885"><ele>2396.3</ele><time>2026-04-05T12:14:45.000Z</time></trkpt>
<trkpt lat="42.196981" lon="23.588493"><ele>2396.3</ele><time>2026-04-05T12:14:46.000Z</time></trkpt>
<trkpt lat="42.196989" lon="23.588486"><ele>2396.4</ele><time>2026-04-05T12:14:47.000Z</time></trkpt>
<trkpt lat="42.196998" lon="23.588479"><ele>2396.4</ele><time>2026-04-05T12:14:48.000Z</time></trkpt>
<trkpt lat="42.197008" lon="23.588473"><ele>2396.4</ele><time>2026-04-05T12:14:49.000Z</time></trkpt>
<trkpt lat="42.197017" lon="23.588465"><ele>2396.4</ele><time>2026-04-05T12:14:50.000Z</time></trkpt>
<trkpt lat="42.197027" lon="23.588459"><ele>2396.4</ele><time>2026-04-05T12:14:51.000Z</time></trkpt>
<trkpt lat="42.197035" lon="23.588453"><ele>2396.4</ele><time>2026-04-05T12:14:52.000Z</time></trkpt>
<trkpt lat="42.197044" lon="23.588447"><ele>2396.4</ele><time>2026-04-05T12:14:53.000Z</time></trkpt>
<trkpt lat="42.197053" lon="23.588439"><ele>2396.4</ele><time>2026-04-05T12:14:54.000Z</time></trkpt>
<trkpt lat="42.197063" lon="23.588432"><ele>2396.4</ele><time>2026-04-05T12:14:55.000Z</time></trkpt>
<trkpt lat="42.197072" lon="23.588423"><ele>2396.4</ele><time>2026-04-05T12:14:56.000Z</time></trkpt>
<trkpt lat="42.197082" lon="23.588415"><ele>2396.5</ele><time>2026-04-05T12:14:57.000Z</time></trkpt>
<trkpt lat="42.197092" lon="23.588407"><ele>2396.5</ele><time>2026-04-05T12:14:58.000Z</time></trkpt>
<trkpt lat="42.197101" lon="23.588399"><ele>2396.5</ele><time>2026-04-05T12:14:59.000Z</time></trkpt>
<trkpt lat="42.19711" lon="23.588392"><ele>2396.5</ele><time>2026-04-05T12:15:00.000Z</time></trkpt>
<trkpt lat="42.19712" lon="23.588384"><ele>2396.5</ele><time>2026-04-05T12:15:01.000Z</time></trkpt>
<trkpt lat="42.197129" lon="23.588377"><ele>2396.6</ele><time>2026-04-05T12:15:02.000Z</time></trkpt>
<trkpt lat="42.197138" lon="23.588369"><ele>2396.6</ele><time>2026-04-05T12:15:03.000Z</time></trkpt>
<trkpt lat="42.197147" lon="23.588362"><ele>2396.6</ele><time>2026-04-05T12:15:04.000Z</time></trkpt>
<trkpt lat="42.197156" lon="23.588354"><ele>2396.6</ele><time>2026-04-05T12:15:05.000Z</time></trkpt>
<trkpt lat="42.197165" lon="23.588347"><ele>2396.6</ele><time>2026-04-05T12:15:06.000Z</time></trkpt>
<trkpt lat="42.197175" lon="23.588338"><ele>2396.6</ele><time>2026-04-05T12:15:07.000Z</time></trkpt>
<trkpt lat="42.197185" lon="23.588329"><ele>2396.6</ele><time>2026-04-05T12:15:08.000Z</time></trkpt>
<trkpt lat="42.197194" lon="23.588321"><ele>2396.6</ele><time>2026-04-05T12:15:09.000Z</time></trkpt>
<trkpt lat="42.197202" lon="23.588313"><ele>2396.6</ele><time>2026-04-05T12:15:10.000Z</time></trkpt>
<trkpt lat="42.19721" lon="23.588305"><ele>2396.6</ele><time>2026-04-05T12:15:11.000Z</time></trkpt>
<trkpt lat="42.197218" lon="23.588298"><ele>2396.5</ele><time>2026-04-05T12:15:12.000Z</time></trkpt>
<trkpt lat="42.197227" lon="23.588292"><ele>2396.5</ele><time>2026-04-05T12:15:13.000Z</time></trkpt>
<trkpt lat="42.197236" lon="23.588286"><ele>2396.5</ele><time>2026-04-05T12:15:14.000Z</time></trkpt>
<trkpt lat="42.197245" lon="23.588279"><ele>2396.5</ele><time>2026-04-05T12:15:15.000Z</time></trkpt>
<trkpt lat="42.197254" lon="23.588273"><ele>2396.5</ele><time>2026-04-05T12:15:16.000Z</time></trkpt>
<trkpt lat="42.197262" lon="23.588266"><ele>2396.4</ele><time>2026-04-05T12:15:17.000Z</time></trkpt>
<trkpt lat="42.197271" lon="23.588258"><ele>2396.4</ele><time>2026-04-05T12:15:18.000Z</time></trkpt>
<trkpt lat="42.19728" lon="23.588249"><ele>2396.4</ele><time>2026-04-05T12:15:19.000Z</time></trkpt>
<trkpt lat="42.197288" lon="23.58824"><ele>2396.4</ele><time>2026-04-05T12:15:20.000Z</time></trkpt>
<trkpt lat="42.197296" lon="23.588229"><ele>2396.4</ele><time>2026-04-05T12:15:21.000Z</time></trkpt>
<trkpt lat="42.197304" lon="23.588219"><ele>2396.4</ele><time>2026-04-05T12:15:22.000Z</time></trkpt>
<trkpt lat="42.197311" lon="23.58821"><ele>2396.4</ele><time>2026-04-05T12:15:23.000Z</time></trkpt>
<trkpt lat="42.197319" lon="23.5882"><ele>2396.4</ele><time>2026-04-05T12:15:24.000Z</time></trkpt>
<trkpt lat="42.197329" lon="23.58819"><ele>2396.4</ele><time>2026-04-05T12:15:25.000Z</time></trkpt>
<trkpt lat="42.197339" lon="23.588181"><ele>2396.4</ele><time>2026-04-05T12:15:26.000Z</time></trkpt>
<trkpt lat="42.197348" lon="23.588173"><ele>2396.4</ele><time>2026-04-05T12:15:27.000Z</time></trkpt>
<trkpt lat="42.197357" lon="23.588166"><ele>2396.4</ele><time>2026-04-05T12:15:28.000Z</time></trkpt>
<trkpt lat="42.197365" lon="23.58816"><ele>2396.4</ele><time>2026-04-05T12:15:29.000Z</time></trkpt>
<trkpt lat="42.197373" lon="23.588154"><ele>2396.4</ele><time>2026-04-05T12:15:30.000Z</time></trkpt>
<trkpt lat="42.19738" lon="23.588148"><ele>2396.4</ele><time>2026-04-05T12:15:31.000Z</time></trkpt>
<trkpt lat="42.197387" lon="23.588141"><ele>2396.5</ele><time>2026-04-05T12:15:32.000Z</time></trkpt>
<trkpt lat="42.197394" lon="23.588133"><ele>2396.5</ele><time>2026-04-05T12:15:33.000Z</time></trkpt>
<trkpt lat="42.197401" lon="23.588125"><ele>2396.5</ele><time>2026-04-05T12:15:34.000Z</time></trkpt>
<trkpt lat="42.197409" lon="23.588117"><ele>2396.5</ele><time>2026-04-05T12:15:35.000Z</time></trkpt>
<trkpt lat="42.197417" lon="23.588109"><ele>2396.5</ele><time>2026-04-05T12:15:36.000Z</time></trkpt>
<trkpt lat="42.197426" lon="23.588101"><ele>2396.7</ele><time>2026-04-05T12:15:37.000Z</time></trkpt>
<trkpt lat="42.197435" lon="23.588094"><ele>2396.7</ele><time>2026-04-05T12:15:38.000Z</time></trkpt>
<trkpt lat="42.197444" lon="23.588087"><ele>2396.7</ele><time>2026-04-05T12:15:39.000Z</time></trkpt>
<trkpt lat="42.197454" lon="23.588078"><ele>2396.7</ele><time>2026-04-05T12:15:40.000Z</time></trkpt>
<trkpt lat="42.197465" lon="23.58807"><ele>2396.7</ele><time>2026-04-05T12:15:41.000Z</time></trkpt>
<trkpt lat="42.197476" lon="23.588061"><ele>2396.9</ele><time>2026-04-05T12:15:42.000Z</time></trkpt>
<trkpt lat="42.197487" lon="23.588053"><ele>2396.9</ele><time>2026-04-05T12:15:43.000Z</time></trkpt>
<trkpt lat="42.197498" lon="23.588045"><ele>2396.9</ele><time>2026-04-05T12:15:44.000Z</time></trkpt>
<trkpt lat="42.197509" lon="23.588037"><ele>2396.9</ele><time>2026-04-05T12:15:45.000Z</time></trkpt>
<trkpt lat="42.197519" lon="23.588028"><ele>2396.9</ele><time>2026-04-05T12:15:46.000Z</time></trkpt>
<trkpt lat="42.197528" lon="23.58802"><ele>2397</ele><time>2026-04-05T12:15:47.000Z</time></trkpt>
<trkpt lat="42.197538" lon="23.588012"><ele>2397</ele><time>2026-04-05T12:15:48.000Z</time></trkpt>
<trkpt lat="42.197546" lon="23.588005"><ele>2397</ele><time>2026-04-05T12:15:49.000Z</time></trkpt>
<trkpt lat="42.197555" lon="23.587998"><ele>2397</ele><time>2026-04-05T12:15:50.000Z</time></trkpt>
<trkpt lat="42.197564" lon="23.587992"><ele>2397</ele><time>2026-04-05T12:15:51.000Z</time></trkpt>
<trkpt lat="42.197574" lon="23.587988"><ele>2397</ele><time>2026-04-05T12:15:52.000Z</time></trkpt>
<trkpt lat="42.197583" lon="23.587983"><ele>2397</ele><time>2026-04-05T12:15:53.000Z</time></trkpt>
<trkpt lat="42.197592" lon="23.587978"><ele>2397</ele><time>2026-04-05T12:15:54.000Z</time></trkpt>
<trkpt lat="42.1976" lon="23.587973"><ele>2397</ele><time>2026-04-05T12:15:55.000Z</time></trkpt>
<trkpt lat="42.197608" lon="23.587967"><ele>2397</ele><time>2026-04-05T12:15:56.000Z</time></trkpt>
<trkpt lat="42.197616" lon="23.58796"><ele>2397.2</ele><time>2026-04-05T12:15:57.000Z</time></trkpt>
<trkpt lat="42.197626" lon="23.587953"><ele>2397.2</ele><time>2026-04-05T12:15:58.000Z</time></trkpt>
<trkpt lat="42.197636" lon="23.587946"><ele>2397.2</ele><time>2026-04-05T12:15:59.000Z</time></trkpt>
<trkpt lat="42.197646" lon="23.587941"><ele>2397.2</ele><time>2026-04-05T12:16:00.000Z</time></trkpt>
<trkpt lat="42.197656" lon="23.587936"><ele>2397.2</ele><time>2026-04-05T12:16:01.000Z</time></trkpt>
<trkpt lat="42.197666" lon="23.58793"><ele>2397.4</ele><time>2026-04-05T12:16:02.000Z</time></trkpt>
<trkpt lat="42.197676" lon="23.587924"><ele>2397.4</ele><time>2026-04-05T12:16:03.000Z</time></trkpt>
<trkpt lat="42.197686" lon="23.587918"><ele>2397.4</ele><time>2026-04-05T12:16:04.000Z</time></trkpt>
<trkpt lat="42.197697" lon="23.587913"><ele>2397.4</ele><time>2026-04-05T12:16:05.000Z</time></trkpt>
<trkpt lat="42.197707" lon="23.587907"><ele>2397.4</ele><time>2026-04-05T12:16:06.000Z</time></trkpt>
<trkpt lat="42.197717" lon="23.587902"><ele>2397.5</ele><time>2026-04-05T12:16:07.000Z</time></trkpt>
<trkpt lat="42.197726" lon="23.587897"><ele>2397.5</ele><time>2026-04-05T12:16:08.000Z</time></trkpt>
<trkpt lat="42.197734" lon="23.587892"><ele>2397.5</ele><time>2026-04-05T12:16:09.000Z</time></trkpt>
<trkpt lat="42.197742" lon="23.587886"><ele>2397.5</ele><time>2026-04-05T12:16:10.000Z</time></trkpt>
<trkpt lat="42.197751" lon="23.587881"><ele>2397.5</ele><time>2026-04-05T12:16:11.000Z</time></trkpt>
<trkpt lat="42.197759" lon="23.587875"><ele>2397.6</ele><time>2026-04-05T12:16:12.000Z</time></trkpt>
<trkpt lat="42.197767" lon="23.587868"><ele>2397.6</ele><time>2026-04-05T12:16:13.000Z</time></trkpt>
<trkpt lat="42.197775" lon="23.587862"><ele>2397.6</ele><time>2026-04-05T12:16:14.000Z</time></trkpt>
<trkpt lat="42.197784" lon="23.587855"><ele>2397.6</ele><time>2026-04-05T12:16:15.000Z</time></trkpt>
<trkpt lat="42.197792" lon="23.587849"><ele>2397.6</ele><time>2026-04-05T12:16:16.000Z</time></trkpt>
<trkpt lat="42.197801" lon="23.587843"><ele>2398</ele><time>2026-04-05T12:16:17.000Z</time></trkpt>
<trkpt lat="42.19781" lon="23.587837"><ele>2398</ele><time>2026-04-05T12:16:18.000Z</time></trkpt>
<trkpt lat="42.197819" lon="23.587832"><ele>2398</ele><time>2026-04-05T12:16:19.000Z</time></trkpt>
<trkpt lat="42.197828" lon="23.587827"><ele>2398</ele><time>2026-04-05T12:16:20.000Z</time></trkpt>
<trkpt lat="42.197835" lon="23.587821"><ele>2398</ele><time>2026-04-05T12:16:21.000Z</time></trkpt>
<trkpt lat="42.197842" lon="23.587814"><ele>2398.2</ele><time>2026-04-05T12:16:22.000Z</time></trkpt>
<trkpt lat="42.197849" lon="23.587807"><ele>2398.2</ele><time>2026-04-05T12:16:23.000Z</time></trkpt>
<trkpt lat="42.197855" lon="23.587799"><ele>2398.2</ele><time>2026-04-05T12:16:24.000Z</time></trkpt>
<trkpt lat="42.19786" lon="23.587793"><ele>2398.2</ele><time>2026-04-05T12:16:25.000Z</time></trkpt>
<trkpt lat="42.197866" lon="23.587785"><ele>2398.2</ele><time>2026-04-05T12:16:26.000Z</time></trkpt>
<trkpt lat="42.197872" lon="23.587778"><ele>2398.8</ele><time>2026-04-05T12:16:27.000Z</time></trkpt>
<trkpt lat="42.197878" lon="23.587771"><ele>2398.8</ele><time>2026-04-05T12:16:28.000Z</time></trkpt>
<trkpt lat="42.197883" lon="23.587762"><ele>2398.8</ele><time>2026-04-05T12:16:29.000Z</time></trkpt>
<trkpt lat="42.197889" lon="23.587752"><ele>2398.8</ele><time>2026-04-05T12:16:30.000Z</time></trkpt>
<trkpt lat="42.197896" lon="23.587743"><ele>2398.8</ele><time>2026-04-05T12:16:31.000Z</time></trkpt>
<trkpt lat="42.197902" lon="23.587734"><ele>2399.4</ele><time>2026-04-05T12:16:32.000Z</time></trkpt>
<trkpt lat="42.197909" lon="23.587726"><ele>2399.4</ele><time>2026-04-05T12:16:33.000Z</time></trkpt>
<trkpt lat="42.197917" lon="23.587719"><ele>2399.4</ele><time>2026-04-05T12:16:34.000Z</time></trkpt>
<trkpt lat="42.197924" lon="23.587713"><ele>2399.4</ele><time>2026-04-05T12:16:35.000Z</time></trkpt>
<trkpt lat="42.19793" lon="23.587707"><ele>2399.4</ele><time>2026-04-05T12:16:36.000Z</time></trkpt>
<trkpt lat="42.197936" lon="23.587701"><ele>2399.7</ele><time>2026-04-05T12:16:37.000Z</time></trkpt>
<trkpt lat="42.197943" lon="23.587695"><ele>2399.7</ele><time>2026-04-05T12:16:38.000Z</time></trkpt>
<trkpt lat="42.197949" lon="23.587689"><ele>2399.7</ele><time>2026-04-05T12:16:39.000Z</time></trkpt>
<trkpt lat="42.197956" lon="23.587684"><ele>2399.7</ele><time>2026-04-05T12:16:40.000Z</time></trkpt>
<trkpt lat="42.197964" lon="23.587679"><ele>2399.7</ele><time>2026-04-05T12:16:41.000Z</time></trkpt>
<trkpt lat="42.197972" lon="23.587675"><ele>2400.7</ele><time>2026-04-05T12:16:42.000Z</time></trkpt>
<trkpt lat="42.197978" lon="23.58767"><ele>2400.7</ele><time>2026-04-05T12:16:43.000Z</time></trkpt>
<trkpt lat="42.197985" lon="23.587666"><ele>2400.7</ele><time>2026-04-05T12:16:44.000Z</time></trkpt>
<trkpt lat="42.197992" lon="23.587661"><ele>2400.7</ele><time>2026-04-05T12:16:45.000Z</time></trkpt>
<trkpt lat="42.197999" lon="23.587656"><ele>2400.7</ele><time>2026-04-05T12:16:46.000Z</time></trkpt>
<trkpt lat="42.198006" lon="23.58765"><ele>2401.9</ele><time>2026-04-05T12:16:47.000Z</time></trkpt>
<trkpt lat="42.198014" lon="23.587645"><ele>2401.9</ele><time>2026-04-05T12:16:48.000Z</time></trkpt>
<trkpt lat="42.198021" lon="23.587639"><ele>2401.9</ele><time>2026-04-05T12:16:49.000Z</time></trkpt>
<trkpt lat="42.198029" lon="23.587635"><ele>2401.9</ele><time>2026-04-05T12:16:50.000Z</time></trkpt>
<trkpt lat="42.198036" lon="23.587631"><ele>2401.9</ele><time>2026-04-05T12:16:51.000Z</time></trkpt>
<trkpt lat="42.198045" lon="23.587627"><ele>2402.4</ele><time>2026-04-05T12:16:52.000Z</time></trkpt>
<trkpt lat="42.198054" lon="23.587624"><ele>2402.4</ele><time>2026-04-05T12:16:53.000Z</time></trkpt>
<trkpt lat="42.198063" lon="23.587622"><ele>2402.4</ele><time>2026-04-05T12:16:54.000Z</time></trkpt>
<trkpt lat="42.198071" lon="23.587619"><ele>2402.4</ele><time>2026-04-05T12:16:55.000Z</time></trkpt>
<trkpt lat="42.198077" lon="23.587615"><ele>2402.4</ele><time>2026-04-05T12:16:56.000Z</time></trkpt>
<trkpt lat="42.198083" lon="23.587611"><ele>2403.2</ele><time>2026-04-05T12:16:57.000Z</time></trkpt>
<trkpt lat="42.198085" lon="23.587607"><ele>2403.2</ele><time>2026-04-05T12:16:58.000Z</time></trkpt>
<trkpt lat="42.198087" lon="23.587602"><ele>2403.2</ele><time>2026-04-05T12:16:59.000Z</time></trkpt>
<trkpt lat="42.198089" lon="23.587597"><ele>2403.2</ele><time>2026-04-05T12:17:00.000Z</time></trkpt>
<trkpt lat="42.198091" lon="23.587592"><ele>2403.2</ele><time>2026-04-05T12:17:01.000Z</time></trkpt>
<trkpt lat="42.198093" lon="23.587588"><ele>2403.8</ele><time>2026-04-05T12:17:02.000Z</time></trkpt>
<trkpt lat="42.198097" lon="23.587586"><ele>2403.8</ele><time>2026-04-05T12:17:03.000Z</time></trkpt>
<trkpt lat="42.198102" lon="23.587585"><ele>2403.8</ele><time>2026-04-05T12:17:04.000Z</time></trkpt>
<trkpt lat="42.198106" lon="23.587584"><ele>2403.8</ele><time>2026-04-05T12:17:05.000Z</time></trkpt>
<trkpt lat="42.198111" lon="23.587583"><ele>2403.8</ele><time>2026-04-05T12:17:06.000Z</time></trkpt>
<trkpt lat="42.198117" lon="23.587581"><ele>2403.9</ele><time>2026-04-05T12:17:07.000Z</time></trkpt>
<trkpt lat="42.198123" lon="23.587579"><ele>2403.9</ele><time>2026-04-05T12:17:08.000Z</time></trkpt>
<trkpt lat="42.198128" lon="23.587577"><ele>2403.9</ele><time>2026-04-05T12:17:09.000Z</time></trkpt>
<trkpt lat="42.198133" lon="23.587576"><ele>2403.9</ele><time>2026-04-05T12:17:10.000Z</time></trkpt>
<trkpt lat="42.198137" lon="23.587573"><ele>2403.9</ele><time>2026-04-05T12:17:11.000Z</time></trkpt>
<trkpt lat="42.198138" lon="23.587569"><ele>2404.1</ele><time>2026-04-05T12:17:12.000Z</time></trkpt>
<trkpt lat="42.198138" lon="23.587563"><ele>2404.1</ele><time>2026-04-05T12:17:13.000Z</time></trkpt>
<trkpt lat="42.198135" lon="23.587556"><ele>2404.1</ele><time>2026-04-05T12:17:14.000Z</time></trkpt>
<trkpt lat="42.198131" lon="23.587545"><ele>2404.1</ele><time>2026-04-05T12:17:15.000Z</time></trkpt>
<trkpt lat="42.198125" lon="23.587534"><ele>2404.1</ele><time>2026-04-05T12:17:16.000Z</time></trkpt>
<trkpt lat="42.19812" lon="23.587523"><ele>2403.8</ele><time>2026-04-05T12:17:17.000Z</time></trkpt>
<trkpt lat="42.198117" lon="23.587514"><ele>2403.8</ele><time>2026-04-05T12:17:18.000Z</time></trkpt>
<trkpt lat="42.198115" lon="23.587508"><ele>2403.8</ele><time>2026-04-05T12:17:19.000Z</time></trkpt>
<trkpt lat="42.198112" lon="23.587505"><ele>2403.8</ele><time>2026-04-05T12:17:20.000Z</time></trkpt>
<trkpt lat="42.19811" lon="23.587503"><ele>2403.8</ele><time>2026-04-05T12:17:21.000Z</time></trkpt>
<trkpt lat="42.198109" lon="23.587502"><ele>2403.5</ele><time>2026-04-05T12:17:22.000Z</time></trkpt>
<trkpt lat="42.198108" lon="23.587501"><ele>2403.5</ele><time>2026-04-05T12:17:23.000Z</time></trkpt>
<trkpt lat="42.198107" lon="23.587501"><ele>2403.5</ele><time>2026-04-05T12:17:24.000Z</time></trkpt>
<trkpt lat="42.198108" lon="23.587501"><ele>2403.5</ele><time>2026-04-05T12:17:25.000Z</time></trkpt>
<trkpt lat="42.198109" lon="23.5875"><ele>2403.5</ele><time>2026-04-05T12:17:26.000Z</time></trkpt>
<trkpt lat="42.198109" lon="23.587501"><ele>2403.1</ele><time>2026-04-05T12:17:27.000Z</time></trkpt>
<trkpt lat="42.198109" lon="23.587501"><ele>2403.1</ele><time>2026-04-05T12:17:28.000Z</time></trkpt>
<trkpt lat="42.19811" lon="23.587502"><ele>2403.1</ele><time>2026-04-05T12:17:29.000Z</time></trkpt>
<trkpt lat="42.198109" lon="23.587502"><ele>2403.1</ele><time>2026-04-05T12:17:30.000Z</time></trkpt>
<trkpt lat="42.198108" lon="23.587502"><ele>2403.1</ele><time>2026-04-05T12:17:31.000Z</time></trkpt>
<trkpt lat="42.198108" lon="23.587503"><ele>2402.9</ele><time>2026-04-05T12:17:32.000Z</time></trkpt>
<trkpt lat="42.198108" lon="23.587503"><ele>2402.9</ele><time>2026-04-05T12:17:33.000Z</time></trkpt>
<trkpt lat="42.198108" lon="23.587503"><ele>2402.9</ele><time>2026-04-05T12:17:34.000Z</time></trkpt>
<trkpt lat="42.19811" lon="23.587503"><ele>2402.9</ele><time>2026-04-05T12:17:35.000Z</time></trkpt>
<trkpt lat="42.198111" lon="23.587503"><ele>2402.9</ele><time>2026-04-05T12:17:36.000Z</time></trkpt>
<trkpt lat="42.19811" lon="23.587503"><ele>2403</ele><time>2026-04-05T12:17:37.000Z</time></trkpt>
<trkpt lat="42.198109" lon="23.587504"><ele>2403</ele><time>2026-04-05T12:17:38.000Z</time></trkpt>
<trkpt lat="42.19811" lon="23.587507"><ele>2403</ele><time>2026-04-05T12:17:39.000Z</time></trkpt>
<trkpt lat="42.198111" lon="23.58751"><ele>2403</ele><time>2026-04-05T12:17:40.000Z</time></trkpt>
<trkpt lat="42.198114" lon="23.587515"><ele>2403</ele><time>2026-04-05T12:17:41.000Z</time></trkpt>
<trkpt lat="42.198117" lon="23.587522"><ele>2403.1</ele><time>2026-04-05T12:17:42.000Z</time></trkpt>
<trkpt lat="42.198123" lon="23.587531"><ele>2403.1</ele><time>2026-04-05T12:17:43.000Z</time></trkpt>
<trkpt lat="42.198128" lon="23.587541"><ele>2403.1</ele><time>2026-04-05T12:17:44.000Z</time></trkpt>
<trkpt lat="42.198134" lon="23.58755"><ele>2403.1</ele><time>2026-04-05T12:17:45.000Z</time></trkpt>
<trkpt lat="42.19814" lon="23.587558"><ele>2403.1</ele><time>2026-04-05T12:17:46.000Z</time></trkpt>
<trkpt lat="42.198149" lon="23.587564"><ele>2403.1</ele><time>2026-04-05T12:17:47.000Z</time></trkpt>
<trkpt lat="42.198157" lon="23.587567"><ele>2403.1</ele><time>2026-04-05T12:17:48.000Z</time></trkpt>
<trkpt lat="42.198165" lon="23.587567"><ele>2403.1</ele><time>2026-04-05T12:17:49.000Z</time></trkpt>
<trkpt lat="42.198173" lon="23.587564"><ele>2403.1</ele><time>2026-04-05T12:17:50.000Z</time></trkpt>
<trkpt lat="42.198177" lon="23.587561"><ele>2403.1</ele><time>2026-04-05T12:17:51.000Z</time></trkpt>
<trkpt lat="42.198181" lon="23.587556"><ele>2403</ele><time>2026-04-05T12:17:52.000Z</time></trkpt>
<trkpt lat="42.198184" lon="23.587551"><ele>2403</ele><time>2026-04-05T12:17:53.000Z</time></trkpt>
<trkpt lat="42.198185" lon="23.587547"><ele>2403</ele><time>2026-04-05T12:17:54.000Z</time></trkpt>
<trkpt lat="42.198187" lon="23.587543"><ele>2403</ele><time>2026-04-05T12:17:55.000Z</time></trkpt>
<trkpt lat="42.19819" lon="23.587538"><ele>2403</ele><time>2026-04-05T12:17:56.000Z</time></trkpt>
<trkpt lat="42.198193" lon="23.587533"><ele>2402.8</ele><time>2026-04-05T12:17:57.000Z</time></trkpt>
<trkpt lat="42.198197" lon="23.587528"><ele>2402.8</ele><time>2026-04-05T12:17:58.000Z</time></trkpt>
<trkpt lat="42.198201" lon="23.587522"><ele>2402.8</ele><time>2026-04-05T12:17:59.000Z</time></trkpt>
<trkpt lat="42.198205" lon="23.587516"><ele>2402.8</ele><time>2026-04-05T12:18:00.000Z</time></trkpt>
<trkpt lat="42.19821" lon="23.587511"><ele>2402.8</ele><time>2026-04-05T12:18:01.000Z</time></trkpt>
<trkpt lat="42.198214" lon="23.587505"><ele>2402.6</ele><time>2026-04-05T12:18:02.000Z</time></trkpt>
<trkpt lat="42.198218" lon="23.5875"><ele>2402.6</ele><time>2026-04-05T12:18:03.000Z</time></trkpt>
<trkpt lat="42.198184" lon="23.587564"><ele>2402.5</ele><time>2026-04-05T12:18:11.000Z</time></trkpt>
<trkpt lat="42.198215" lon="23.587562"><ele>2402.5</ele><time>2026-04-05T12:18:12.000Z</time></trkpt>
<trkpt lat="42.198195" lon="23.587582"><ele>2402.5</ele><time>2026-04-05T12:18:13.000Z</time></trkpt>
<trkpt lat="42.198201" lon="23.587587"><ele>2402.5</ele><time>2026-04-05T12:18:14.000Z</time></trkpt>
<trkpt lat="42.198202" lon="23.587591"><ele>2402.5</ele><time>2026-04-05T12:18:15.000Z</time></trkpt>
<trkpt lat="42.19821" lon="23.587589"><ele>2402.5</ele><time>2026-04-05T12:18:16.000Z</time></trkpt>
<trkpt lat="42.198219" lon="23.587585"><ele>2402.5</ele><time>2026-04-05T12:18:17.000Z</time></trkpt>
<trkpt lat="42.198226" lon="23.587584"><ele>2402.5</ele><time>2026-04-05T12:18:18.000Z</time></trkpt>
<trkpt lat="42.198232" lon="23.587585"><ele>2402.5</ele><time>2026-04-05T12:18:19.000Z</time></trkpt>
<trkpt lat="42.198237" lon="23.587588"><ele>2402.5</ele><time>2026-04-05T12:18:20.000Z</time></trkpt>
<trkpt lat="42.198241" lon="23.587594"><ele>2402.5</ele><time>2026-04-05T12:18:21.000Z</time></trkpt>
<trkpt lat="42.198244" lon="23.587598"><ele>2402.5</ele><time>2026-04-05T12:18:22.000Z</time></trkpt>
<trkpt lat="42.198246" lon="23.5876"><ele>2402.5</ele><time>2026-04-05T12:18:23.000Z</time></trkpt>
<trkpt lat="42.198249" lon="23.587598"><ele>2402.5</ele><time>2026-04-05T12:18:24.000Z</time></trkpt>
<trkpt lat="42.198252" lon="23.587595"><ele>2402.5</ele><time>2026-04-05T12:18:25.000Z</time></trkpt>
<trkpt lat="42.198254" lon="23.587591"><ele>2402.5</ele><time>2026-04-05T12:18:26.000Z</time></trkpt>
<trkpt lat="42.198256" lon="23.587589"><ele>2402.6</ele><time>2026-04-05T12:18:27.000Z</time></trkpt>
<trkpt lat="42.198258" lon="23.587588"><ele>2402.6</ele><time>2026-04-05T12:18:28.000Z</time></trkpt>
<trkpt lat="42.198258" lon="23.587589"><ele>2402.6</ele><time>2026-04-05T12:18:29.000Z</time></trkpt>
<trkpt lat="42.198258" lon="23.587591"><ele>2402.6</ele><time>2026-04-05T12:18:30.000Z</time></trkpt>
<trkpt lat="42.198258" lon="23.587594"><ele>2402.6</ele><time>2026-04-05T12:18:31.000Z</time></trkpt>
<trkpt lat="42.198257" lon="23.587595"><ele>2402.5</ele><time>2026-04-05T12:18:32.000Z</time></trkpt>
<trkpt lat="42.198255" lon="23.587597"><ele>2402.5</ele><time>2026-04-05T12:18:33.000Z</time></trkpt>
<trkpt lat="42.198253" lon="23.5876"><ele>2402.5</ele><time>2026-04-05T12:18:34.000Z</time></trkpt>
<trkpt lat="42.198253" lon="23.587601"><ele>2402.5</ele><time>2026-04-05T12:18:35.000Z</time></trkpt>
<trkpt lat="42.198254" lon="23.587602"><ele>2402.5</ele><time>2026-04-05T12:18:36.000Z</time></trkpt>
<trkpt lat="42.198256" lon="23.587604"><ele>2402.4</ele><time>2026-04-05T12:18:37.000Z</time></trkpt>
<trkpt lat="42.198262" lon="23.587606"><ele>2402.4</ele><time>2026-04-05T12:18:38.000Z</time></trkpt>
<trkpt lat="42.198269" lon="23.587611"><ele>2402.4</ele><time>2026-04-05T12:18:39.000Z</time></trkpt>
<trkpt lat="42.198279" lon="23.587619"><ele>2402.4</ele><time>2026-04-05T12:18:40.000Z</time></trkpt>
<trkpt lat="42.198291" lon="23.587627"><ele>2402.4</ele><time>2026-04-05T12:18:41.000Z</time></trkpt>
<trkpt lat="42.198302" lon="23.587634"><ele>2402</ele><time>2026-04-05T12:18:42.000Z</time></trkpt>
<trkpt lat="42.19831" lon="23.587639"><ele>2402</ele><time>2026-04-05T12:18:43.000Z</time></trkpt>
<trkpt lat="42.198318" lon="23.58764"><ele>2402</ele><time>2026-04-05T12:18:44.000Z</time></trkpt>
<trkpt lat="42.198323" lon="23.587639"><ele>2402</ele><time>2026-04-05T12:18:45.000Z</time></trkpt>
<trkpt lat="42.198328" lon="23.587638"><ele>2402</ele><time>2026-04-05T12:18:46.000Z</time></trkpt>
<trkpt lat="42.19833" lon="23.587639"><ele>2401.6</ele><time>2026-04-05T12:18:47.000Z</time></trkpt>
<trkpt lat="42.198332" lon="23.58764"><ele>2401.6</ele><time>2026-04-05T12:18:48.000Z</time></trkpt>
<trkpt lat="42.198333" lon="23.587642"><ele>2401.6</ele><time>2026-04-05T12:18:49.000Z</time></trkpt>
<trkpt lat="42.198333" lon="23.587643"><ele>2401.6</ele><time>2026-04-05T12:18:50.000Z</time></trkpt>
<trkpt lat="42.198333" lon="23.587642"><ele>2401.6</ele><time>2026-04-05T12:18:51.000Z</time></trkpt>
<trkpt lat="42.198332" lon="23.58764"><ele>2401.5</ele><time>2026-04-05T12:18:52.000Z</time></trkpt>
<trkpt lat="42.198332" lon="23.587639"><ele>2401.5</ele><time>2026-04-05T12:18:53.000Z</time></trkpt>
<trkpt lat="42.19833" lon="23.58764"><ele>2401.5</ele><time>2026-04-05T12:18:54.000Z</time></trkpt>
<trkpt lat="42.198328" lon="23.587642"><ele>2401.5</ele><time>2026-04-05T12:18:55.000Z</time></trkpt>
<trkpt lat="42.198328" lon="23.587648"><ele>2401.5</ele><time>2026-04-05T12:18:56.000Z</time></trkpt>
<trkpt lat="42.198329" lon="23.587653"><ele>2401.1</ele><time>2026-04-05T12:18:57.000Z</time></trkpt>
<trkpt lat="42.198333" lon="23.58766"><ele>2401.1</ele><time>2026-04-05T12:18:58.000Z</time></trkpt>
<trkpt lat="42.198339" lon="23.587666"><ele>2401.1</ele><time>2026-04-05T12:18:59.000Z</time></trkpt>
<trkpt lat="42.198347" lon="23.587674"><ele>2401.1</ele><time>2026-04-05T12:19:00.000Z</time></trkpt>
<trkpt lat="42.198354" lon="23.587682"><ele>2401.1</ele><time>2026-04-05T12:19:01.000Z</time></trkpt>
<trkpt lat="42.198361" lon="23.587692"><ele>2400.8</ele><time>2026-04-05T12:19:02.000Z</time></trkpt>
<trkpt lat="42.198369" lon="23.587702"><ele>2400.8</ele><time>2026-04-05T12:19:03.000Z</time></trkpt>
<trkpt lat="42.198378" lon="23.587712"><ele>2400.8</ele><time>2026-04-05T12:19:04.000Z</time></trkpt>
<trkpt lat="42.198388" lon="23.58772"><ele>2400.8</ele><time>2026-04-05T12:19:05.000Z</time></trkpt>
<trkpt lat="42.1984" lon="23.587728"><ele>2400.8</ele><time>2026-04-05T12:19:06.000Z</time></trkpt>
<trkpt lat="42.198413" lon="23.587735"><ele>2400.8</ele><time>2026-04-05T12:19:07.000Z</time></trkpt>
<trkpt lat="42.198426" lon="23.587742"><ele>2400.8</ele><time>2026-04-05T12:19:08.000Z</time></trkpt>
<trkpt lat="42.198438" lon="23.587749"><ele>2400.8</ele><time>2026-04-05T12:19:09.000Z</time></trkpt>
<trkpt lat="42.198451" lon="23.587756"><ele>2400.8</ele><time>2026-04-05T12:19:10.000Z</time></trkpt>
<trkpt lat="42.198464" lon="23.587762"><ele>2400.8</ele><time>2026-04-05T12:19:11.000Z</time></trkpt>
<trkpt lat="42.198476" lon="23.587765"><ele>2400.6</ele><time>2026-04-05T12:19:12.000Z</time></trkpt>
<trkpt lat="42.198488" lon="23.587767"><ele>2400.6</ele><time>2026-04-05T12:19:13.000Z</time></trkpt>
<trkpt lat="42.198498" lon="23.587767"><ele>2400.6</ele><time>2026-04-05T12:19:14.000Z</time></trkpt>
<trkpt lat="42.198505" lon="23.587766"><ele>2400.6</ele><time>2026-04-05T12:19:15.000Z</time></trkpt>
<trkpt lat="42.19851" lon="23.587763"><ele>2400.6</ele><time>2026-04-05T12:19:16.000Z</time></trkpt>
<trkpt lat="42.198512" lon="23.587761"><ele>2399.7</ele><time>2026-04-05T12:19:17.000Z</time></trkpt>
<trkpt lat="42.198511" lon="23.587758"><ele>2399.7</ele><time>2026-04-05T12:19:18.000Z</time></trkpt>
<trkpt lat="42.19851" lon="23.587755"><ele>2399.7</ele><time>2026-04-05T12:19:19.000Z</time></trkpt>
<trkpt lat="42.198509" lon="23.587752"><ele>2399.7</ele><time>2026-04-05T12:19:20.000Z</time></trkpt>
<trkpt lat="42.198508" lon="23.58775"><ele>2399.7</ele><time>2026-04-05T12:19:21.000Z</time></trkpt>
<trkpt lat="42.198508" lon="23.58775"><ele>2399.1</ele><time>2026-04-05T12:19:22.000Z</time></trkpt>
<trkpt lat="42.198507" lon="23.587751"><ele>2399.1</ele><time>2026-04-05T12:19:23.000Z</time></trkpt>
<trkpt lat="42.198507" lon="23.587752"><ele>2399.1</ele><time>2026-04-05T12:19:24.000Z</time></trkpt>
<trkpt lat="42.198506" lon="23.587753"><ele>2399.1</ele><time>2026-04-05T12:19:25.000Z</time></trkpt>
<trkpt lat="42.198506" lon="23.587752"><ele>2399.1</ele><time>2026-04-05T12:19:26.000Z</time></trkpt>
<trkpt lat="42.198506" lon="23.587749"><ele>2398.1</ele><time>2026-04-05T12:19:27.000Z</time></trkpt>
<trkpt lat="42.198505" lon="23.587745"><ele>2398.1</ele><time>2026-04-05T12:19:28.000Z</time></trkpt>
<trkpt lat="42.198504" lon="23.587741"><ele>2398.1</ele><time>2026-04-05T12:19:29.000Z</time></trkpt>
<trkpt lat="42.198504" lon="23.587737"><ele>2398.1</ele><time>2026-04-05T12:19:30.000Z</time></trkpt>
<trkpt lat="42.198504" lon="23.587732"><ele>2398.1</ele><time>2026-04-05T12:19:31.000Z</time></trkpt>
<trkpt lat="42.198505" lon="23.587729"><ele>2397.8</ele><time>2026-04-05T12:19:32.000Z</time></trkpt>
<trkpt lat="42.198506" lon="23.587727"><ele>2397.8</ele><time>2026-04-05T12:19:33.000Z</time></trkpt>
<trkpt lat="42.198508" lon="23.587726"><ele>2397.8</ele><time>2026-04-05T12:19:34.000Z</time></trkpt>
<trkpt lat="42.198509" lon="23.587726"><ele>2397.8</ele><time>2026-04-05T12:19:35.000Z</time></trkpt>
<trkpt lat="42.198511" lon="23.587726"><ele>2397.8</ele><time>2026-04-05T12:19:36.000Z</time></trkpt>
<trkpt lat="42.198512" lon="23.587726"><ele>2397.8</ele><time>2026-04-05T12:19:37.000Z</time></trkpt>
<trkpt lat="42.198514" lon="23.587726"><ele>2397.8</ele><time>2026-04-05T12:19:38.000Z</time></trkpt>
<trkpt lat="42.198516" lon="23.587726"><ele>2397.8</ele><time>2026-04-05T12:19:39.000Z</time></trkpt>
<trkpt lat="42.198517" lon="23.587726"><ele>2397.8</ele><time>2026-04-05T12:19:40.000Z</time></trkpt>
<trkpt lat="42.198519" lon="23.587726"><ele>2397.8</ele><time>2026-04-05T12:19:41.000Z</time></trkpt>
<trkpt lat="42.19852" lon="23.587726"><ele>2397.7</ele><time>2026-04-05T12:19:42.000Z</time></trkpt>
<trkpt lat="42.198521" lon="23.587727"><ele>2397.7</ele><time>2026-04-05T12:19:43.000Z</time></trkpt>
<trkpt lat="42.198521" lon="23.587728"><ele>2397.7</ele><time>2026-04-05T12:19:44.000Z</time></trkpt>
<trkpt lat="42.198521" lon="23.587728"><ele>2397.7</ele><time>2026-04-05T12:19:45.000Z</time></trkpt>
<trkpt lat="42.198521" lon="23.587729"><ele>2397.7</ele><time>2026-04-05T12:19:46.000Z</time></trkpt>
<trkpt lat="42.19852" lon="23.587729"><ele>2397.6</ele><time>2026-04-05T12:19:47.000Z</time></trkpt>
<trkpt lat="42.19852" lon="23.587729"><ele>2397.6</ele><time>2026-04-05T12:19:48.000Z</time></trkpt>
<trkpt lat="42.19852" lon="23.587729"><ele>2397.6</ele><time>2026-04-05T12:19:49.000Z</time></trkpt>
<trkpt lat="42.19852" lon="23.587729"><ele>2397.6</ele><time>2026-04-05T12:19:50.000Z</time></trkpt>
<trkpt lat="42.198519" lon="23.587729"><ele>2397.6</ele><time>2026-04-05T12:19:51.000Z</time></trkpt>
<trkpt lat="42.198518" lon="23.58773"><ele>2397.6</ele><time>2026-04-05T12:19:52.000Z</time></trkpt>
<trkpt lat="42.198517" lon="23.587731"><ele>2397.6</ele><time>2026-04-05T12:19:53.000Z</time></trkpt>
<trkpt lat="42.198516" lon="23.587732"><ele>2397.6</ele><time>2026-04-05T12:19:54.000Z</time></trkpt>
<trkpt lat="42.198515" lon="23.587734"><ele>2397.6</ele><time>2026-04-05T12:19:55.000Z</time></trkpt>
<trkpt lat="42.198515" lon="23.587735"><ele>2397.6</ele><time>2026-04-05T12:19:56.000Z</time></trkpt>
<trkpt lat="42.198515" lon="23.587736"><ele>2397.5</ele><time>2026-04-05T12:19:57.000Z</time></trkpt>
<trkpt lat="42.198516" lon="23.587736"><ele>2397.5</ele><time>2026-04-05T12:19:58.000Z</time></trkpt>
<trkpt lat="42.198516" lon="23.587737"><ele>2397.5</ele><time>2026-04-05T12:19:59.000Z</time></trkpt>
<trkpt lat="42.198516" lon="23.587737"><ele>2397.5</ele><time>2026-04-05T12:20:00.000Z</time></trkpt>
<trkpt lat="42.198516" lon="23.587738"><ele>2397.5</ele><time>2026-04-05T12:20:01.000Z</time></trkpt>
<trkpt lat="42.198515" lon="23.587738"><ele>2397.5</ele><time>2026-04-05T12:20:02.000Z</time></trkpt>
<trkpt lat="42.198515" lon="23.587738"><ele>2397.5</ele><time>2026-04-05T12:20:03.000Z</time></trkpt>
<trkpt lat="42.198514" lon="23.587738"><ele>2397.5</ele><time>2026-04-05T12:20:04.000Z</time></trkpt>
<trkpt lat="42.198514" lon="23.587738"><ele>2397.5</ele><time>2026-04-05T12:20:05.000Z</time></trkpt>
<trkpt lat="42.198515" lon="23.587738"><ele>2397.5</ele><time>2026-04-05T12:20:06.000Z</time></trkpt>
<trkpt lat="42.198517" lon="23.587736"><ele>2397.4</ele><time>2026-04-05T12:20:07.000Z</time></trkpt>
<trkpt lat="42.198518" lon="23.587735"><ele>2397.4</ele><time>2026-04-05T12:20:08.000Z</time></trkpt>
<trkpt lat="42.19852" lon="23.587733"><ele>2397.4</ele><time>2026-04-05T12:20:09.000Z</time></trkpt>
<trkpt lat="42.19852" lon="23.587732"><ele>2397.4</ele><time>2026-04-05T12:20:10.000Z</time></trkpt>
<trkpt lat="42.19852" lon="23.587731"><ele>2397.4</ele><time>2026-04-05T12:20:11.000Z</time></trkpt>
<trkpt lat="42.198519" lon="23.587731"><ele>2397.6</ele><time>2026-04-05T12:20:12.000Z</time></trkpt>
<trkpt lat="42.198519" lon="23.587731"><ele>2397.6</ele><time>2026-04-05T12:20:13.000Z</time></trkpt>
<trkpt lat="42.198519" lon="23.587731"><ele>2397.6</ele><time>2026-04-05T12:20:14.000Z</time></trkpt>
<trkpt lat="42.198519" lon="23.587731"><ele>2397.6</ele><time>2026-04-05T12:20:15.000Z</time></trkpt>
<trkpt lat="42.198519" lon="23.587732"><ele>2397.6</ele><time>2026-04-05T12:20:16.000Z</time></trkpt>
<trkpt lat="42.19852" lon="23.587733"><ele>2397.8</ele><time>2026-04-05T12:20:17.000Z</time></trkpt>
<trkpt lat="42.198522" lon="23.587734"><ele>2397.8</ele><time>2026-04-05T12:20:18.000Z</time></trkpt>
<trkpt lat="42.198522" lon="23.587735"><ele>2397.8</ele><time>2026-04-05T12:20:19.000Z</time></trkpt>
<trkpt lat="42.198523" lon="23.587737"><ele>2397.8</ele><time>2026-04-05T12:20:20.000Z</time></trkpt>
<trkpt lat="42.198524" lon="23.587739"><ele>2397.8</ele><time>2026-04-05T12:20:21.000Z</time></trkpt>
<trkpt lat="42.198523" lon="23.587741"><ele>2397.9</ele><time>2026-04-05T12:20:22.000Z</time></trkpt>
<trkpt lat="42.198522" lon="23.587742"><ele>2397.9</ele><time>2026-04-05T12:20:23.000Z</time></trkpt>
<trkpt lat="42.198521" lon="23.587742"><ele>2397.9</ele><time>2026-04-05T12:20:24.000Z</time></trkpt>
<trkpt lat="42.19852" lon="23.587742"><ele>2397.9</ele><time>2026-04-05T12:20:25.000Z</time></trkpt>
<trkpt lat="42.19852" lon="23.587743"><ele>2397.9</ele><time>2026-04-05T12:20:26.000Z</time></trkpt>
<trkpt lat="42.198519" lon="23.587747"><ele>2398</ele><time>2026-04-05T12:20:27.000Z</time></trkpt>
<trkpt lat="42.198517" lon="23.587751"><ele>2398</ele><time>2026-04-05T12:20:28.000Z</time></trkpt>
<trkpt lat="42.198512" lon="23.587756"><ele>2398</ele><time>2026-04-05T12:20:29.000Z</time></trkpt>
<trkpt lat="42.198506" lon="23.587762"><ele>2398</ele><time>2026-04-05T12:20:30.000Z</time></trkpt>
<trkpt lat="42.198498" lon="23.587767"><ele>2398</ele><time>2026-04-05T12:20:31.000Z</time></trkpt>
<trkpt lat="42.198488" lon="23.587769"><ele>2398</ele><time>2026-04-05T12:20:32.000Z</time></trkpt>
<trkpt lat="42.198479" lon="23.587771"><ele>2398</ele><time>2026-04-05T12:20:33.000Z</time></trkpt>
<trkpt lat="42.19847" lon="23.587772"><ele>2398</ele><time>2026-04-05T12:20:34.000Z</time></trkpt>
<trkpt lat="42.198462" lon="23.58777"><ele>2398</ele><time>2026-04-05T12:20:35.000Z</time></trkpt>
<trkpt lat="42.198453" lon="23.587767"><ele>2398</ele><time>2026-04-05T12:20:36.000Z</time></trkpt>
<trkpt lat="42.198444" lon="23.587762"><ele>2398</ele><time>2026-04-05T12:20:37.000Z</time></trkpt>
<trkpt lat="42.198436" lon="23.587758"><ele>2398</ele><time>2026-04-05T12:20:38.000Z</time></trkpt>
<trkpt lat="42.198428" lon="23.587753"><ele>2398</ele><time>2026-04-05T12:20:39.000Z</time></trkpt>
<trkpt lat="42.19842" lon="23.587749"><ele>2398</ele><time>2026-04-05T12:20:40.000Z</time></trkpt>
<trkpt lat="42.198413" lon="23.587745"><ele>2398</ele><time>2026-04-05T12:20:41.000Z</time></trkpt>
<trkpt lat="42.198407" lon="23.587742"><ele>2398.1</ele><time>2026-04-05T12:20:42.000Z</time></trkpt>
<trkpt lat="42.198399" lon="23.587739"><ele>2398.1</ele><time>2026-04-05T12:20:43.000Z</time></trkpt>
<trkpt lat="42.19839" lon="23.587735"><ele>2398.1</ele><time>2026-04-05T12:20:44.000Z</time></trkpt>
<trkpt lat="42.198382" lon="23.587732"><ele>2398.1</ele><time>2026-04-05T12:20:45.000Z</time></trkpt>
<trkpt lat="42.198373" lon="23.587727"><ele>2398.1</ele><time>2026-04-05T12:20:46.000Z</time></trkpt>
<trkpt lat="42.198363" lon="23.587721"><ele>2398.5</ele><time>2026-04-05T12:20:47.000Z</time></trkpt>
<trkpt lat="42.198356" lon="23.587713"><ele>2398.5</ele><time>2026-04-05T12:20:48.000Z</time></trkpt>
<trkpt lat="42.19835" lon="23.587705"><ele>2398.5</ele><time>2026-04-05T12:20:49.000Z</time></trkpt>
<trkpt lat="42.198345" lon="23.587697"><ele>2398.5</ele><time>2026-04-05T12:20:50.000Z</time></trkpt>
<trkpt lat="42.198341" lon="23.587688"><ele>2398.5</ele><time>2026-04-05T12:20:51.000Z</time></trkpt>
<trkpt lat="42.198338" lon="23.58768"><ele>2398.8</ele><time>2026-04-05T12:20:52.000Z</time></trkpt>
<trkpt lat="42.198334" lon="23.587673"><ele>2398.8</ele><time>2026-04-05T12:20:53.000Z</time></trkpt>
<trkpt lat="42.19833" lon="23.587665"><ele>2398.8</ele><time>2026-04-05T12:20:54.000Z</time></trkpt>
<trkpt lat="42.198323" lon="23.587657"><ele>2398.8</ele><time>2026-04-05T12:20:55.000Z</time></trkpt>
<trkpt lat="42.198315" lon="23.58765"><ele>2398.8</ele><time>2026-04-05T12:20:56.000Z</time></trkpt>
<trkpt lat="42.198306" lon="23.587642"><ele>2399.7</ele><time>2026-04-05T12:20:57.000Z</time></trkpt>
<trkpt lat="42.198296" lon="23.587637"><ele>2399.7</ele><time>2026-04-05T12:20:58.000Z</time></trkpt>
<trkpt lat="42.198286" lon="23.587633"><ele>2399.7</ele><time>2026-04-05T12:20:59.000Z</time></trkpt>
<trkpt lat="42.198277" lon="23.587628"><ele>2399.7</ele><time>2026-04-05T12:21:00.000Z</time></trkpt>
<trkpt lat="42.198268" lon="23.587623"><ele>2399.7</ele><time>2026-04-05T12:21:01.000Z</time></trkpt>
<trkpt lat="42.198261" lon="23.587618"><ele>2400.4</ele><time>2026-04-05T12:21:02.000Z</time></trkpt>
<trkpt lat="42.198255" lon="23.58761"><ele>2400.4</ele><time>2026-04-05T12:21:03.000Z</time></trkpt>
<trkpt lat="42.19825" lon="23.587603"><ele>2400.4</ele><time>2026-04-05T12:21:04.000Z</time></trkpt>
<trkpt lat="42.198246" lon="23.587596"><ele>2400.4</ele><time>2026-04-05T12:21:05.000Z</time></trkpt>
<trkpt lat="42.198243" lon="23.587587"><ele>2400.4</ele><time>2026-04-05T12:21:06.000Z</time></trkpt>
<trkpt lat="42.19824" lon="23.587578"><ele>2400.7</ele><time>2026-04-05T12:21:07.000Z</time></trkpt>
<trkpt lat="42.198237" lon="23.587571"><ele>2400.7</ele><time>2026-04-05T12:21:08.000Z</time></trkpt>
<trkpt lat="42.198234" lon="23.587562"><ele>2400.7</ele><time>2026-04-05T12:21:09.000Z</time></trkpt>
<trkpt lat="42.19823" lon="23.587556"><ele>2400.7</ele><time>2026-04-05T12:21:10.000Z</time></trkpt>
<trkpt lat="42.198225" lon="23.587552"><ele>2400.7</ele><time>2026-04-05T12:21:11.000Z</time></trkpt>
<trkpt lat="42.198218" lon="23.587549"><ele>2401.1</ele><time>2026-04-05T12:21:12.000Z</time></trkpt>
<trkpt lat="42.198211" lon="23.587547"><ele>2401.1</ele><time>2026-04-05T12:21:13.000Z</time></trkpt>
<trkpt lat="42.198202" lon="23.587546"><ele>2401.1</ele><time>2026-04-05T12:21:14.000Z</time></trkpt>
<trkpt lat="42.198192" lon="23.587544"><ele>2401.1</ele><time>2026-04-05T12:21:15.000Z</time></trkpt>
<trkpt lat="42.198183" lon="23.587545"><ele>2401.1</ele><time>2026-04-05T12:21:16.000Z</time></trkpt>
<trkpt lat="42.198173" lon="23.587546"><ele>2401.6</ele><time>2026-04-05T12:21:17.000Z</time></trkpt>
<trkpt lat="42.198163" lon="23.587547"><ele>2401.6</ele><time>2026-04-05T12:21:18.000Z</time></trkpt>
<trkpt lat="42.198154" lon="23.587547"><ele>2401.6</ele><time>2026-04-05T12:21:19.000Z</time></trkpt>
<trkpt lat="42.198144" lon="23.587547"><ele>2401.6</ele><time>2026-04-05T12:21:20.000Z</time></trkpt>
<trkpt lat="42.198135" lon="23.587546"><ele>2401.6</ele><time>2026-04-05T12:21:21.000Z</time></trkpt>
<trkpt lat="42.198127" lon="23.587541"><ele>2401.9</ele><time>2026-04-05T12:21:22.000Z</time></trkpt>
<trkpt lat="42.19812" lon="23.587535"><ele>2401.9</ele><time>2026-04-05T12:21:23.000Z</time></trkpt>
<trkpt lat="42.198114" lon="23.587528"><ele>2401.9</ele><time>2026-04-05T12:21:24.000Z</time></trkpt>
<trkpt lat="42.198109" lon="23.58752"><ele>2401.9</ele><time>2026-04-05T12:21:25.000Z</time></trkpt>
<trkpt lat="42.198105" lon="23.587511"><ele>2401.9</ele><time>2026-04-05T12:21:26.000Z</time></trkpt>
<trkpt lat="42.198102" lon="23.587503"><ele>2402.1</ele><time>2026-04-05T12:21:27.000Z</time></trkpt>
<trkpt lat="42.1981" lon="23.587497"><ele>2402.1</ele><time>2026-04-05T12:21:28.000Z</time></trkpt>
<trkpt lat="42.1981" lon="23.587496"><ele>2402.1</ele><time>2026-04-05T12:21:29.000Z</time></trkpt>
<trkpt lat="42.198101" lon="23.587498"><ele>2402.1</ele><time>2026-04-05T12:21:30.000Z</time></trkpt>
<trkpt lat="42.198103" lon="23.587501"><ele>2402.1</ele><time>2026-04-05T12:21:31.000Z</time></trkpt>
<trkpt lat="42.198104" lon="23.587506"><ele>2402</ele><time>2026-04-05T12:21:32.000Z</time></trkpt>
<trkpt lat="42.198105" lon="23.58751"><ele>2402</ele><time>2026-04-05T12:21:33.000Z</time></trkpt>
<trkpt lat="42.198106" lon="23.587513"><ele>2402</ele><time>2026-04-05T12:21:34.000Z</time></trkpt>
<trkpt lat="42.198106" lon="23.587514"><ele>2402</ele><time>2026-04-05T12:21:35.000Z</time></trkpt>
<trkpt lat="42.198107" lon="23.587516"><ele>2402</ele><time>2026-04-05T12:21:36.000Z</time></trkpt>
<trkpt lat="42.198107" lon="23.587518"><ele>2402.1</ele><time>2026-04-05T12:21:37.000Z</time></trkpt>
<trkpt lat="42.198109" lon="23.587519"><ele>2402.1</ele><time>2026-04-05T12:21:38.000Z</time></trkpt>
<trkpt lat="42.19811" lon="23.587518"><ele>2402.1</ele><time>2026-04-05T12:21:39.000Z</time></trkpt>
<trkpt lat="42.198111" lon="23.587517"><ele>2402.1</ele><time>2026-04-05T12:21:40.000Z</time></trkpt>
<trkpt lat="42.198113" lon="23.587516"><ele>2402.1</ele><time>2026-04-05T12:21:41.000Z</time></trkpt>
<trkpt lat="42.198114" lon="23.587515"><ele>2402.2</ele><time>2026-04-05T12:21:42.000Z</time></trkpt>
<trkpt lat="42.198114" lon="23.587515"><ele>2402.2</ele><time>2026-04-05T12:21:43.000Z</time></trkpt>
<trkpt lat="42.198115" lon="23.587515"><ele>2402.2</ele><time>2026-04-05T12:21:44.000Z</time></trkpt>
<trkpt lat="42.198115" lon="23.587515"><ele>2402.2</ele><time>2026-04-05T12:21:45.000Z</time></trkpt>
<trkpt lat="42.198115" lon="23.587515"><ele>2402.2</ele><time>2026-04-05T12:21:46.000Z</time></trkpt>
<trkpt lat="42.198115" lon="23.587515"><ele>2402.3</ele><time>2026-04-05T12:21:47.000Z</time></trkpt>
<trkpt lat="42.198115" lon="23.587515"><ele>2402.3</ele><time>2026-04-05T12:21:48.000Z</time></trkpt>
<trkpt lat="42.198115" lon="23.587515"><ele>2402.3</ele><time>2026-04-05T12:21:49.000Z</time></trkpt>
<trkpt lat="42.198115" lon="23.587515"><ele>2402.3</ele><time>2026-04-05T12:21:50.000Z</time></trkpt>
<trkpt lat="42.198115" lon="23.587515"><ele>2402.3</ele><time>2026-04-05T12:21:51.000Z</time></trkpt>
<trkpt lat="42.198116" lon="23.587514"><ele>2402.2</ele><time>2026-04-05T12:21:52.000Z</time></trkpt>
<trkpt lat="42.198117" lon="23.587513"><ele>2402.2</ele><time>2026-04-05T12:21:53.000Z</time></trkpt>
<trkpt lat="42.198119" lon="23.58751"><ele>2402.2</ele><time>2026-04-05T12:21:54.000Z</time></trkpt>
<trkpt lat="42.19812" lon="23.587508"><ele>2402.2</ele><time>2026-04-05T12:21:55.000Z</time></trkpt>
<trkpt lat="42.198122" lon="23.587505"><ele>2402.2</ele><time>2026-04-05T12:21:56.000Z</time></trkpt>
<trkpt lat="42.198123" lon="23.587503"><ele>2402</ele><time>2026-04-05T12:21:57.000Z</time></trkpt>
<trkpt lat="42.198123" lon="23.587501"><ele>2402</ele><time>2026-04-05T12:21:58.000Z</time></trkpt>
<trkpt lat="42.198123" lon="23.587501"><ele>2402</ele><time>2026-04-05T12:21:59.000Z</time></trkpt>
<trkpt lat="42.198124" lon="23.587501"><ele>2402</ele><time>2026-04-05T12:22:00.000Z</time></trkpt>
<trkpt lat="42.198125" lon="23.587502"><ele>2402</ele><time>2026-04-05T12:22:01.000Z</time></trkpt>
<trkpt lat="42.198126" lon="23.587503"><ele>2402</ele><time>2026-04-05T12:22:02.000Z</time></trkpt>
<trkpt lat="42.198127" lon="23.587503"><ele>2402</ele><time>2026-04-05T12:22:03.000Z</time></trkpt>
<trkpt lat="42.198129" lon="23.587503"><ele>2402</ele><time>2026-04-05T12:22:04.000Z</time></trkpt>
<trkpt lat="42.19813" lon="23.587502"><ele>2402</ele><time>2026-04-05T12:22:05.000Z</time></trkpt>
<trkpt lat="42.198131" lon="23.587501"><ele>2402</ele><time>2026-04-05T12:22:06.000Z</time></trkpt>
<trkpt lat="42.198132" lon="23.5875"><ele>2402.1</ele><time>2026-04-05T12:22:07.000Z</time></trkpt>
<trkpt lat="42.198133" lon="23.5875"><ele>2402.1</ele><time>2026-04-05T12:22:08.000Z</time></trkpt>
<trkpt lat="42.198133" lon="23.587499"><ele>2402.1</ele><time>2026-04-05T12:22:09.000Z</time></trkpt>
<trkpt lat="42.198133" lon="23.587499"><ele>2402.1</ele><time>2026-04-05T12:22:10.000Z</time></trkpt>
<trkpt lat="42.198133" lon="23.587499"><ele>2402.1</ele><time>2026-04-05T12:22:11.000Z</time></trkpt>
<trkpt lat="42.198133" lon="23.587499"><ele>2402.1</ele><time>2026-04-05T12:22:12.000Z</time></trkpt>
<trkpt lat="42.198133" lon="23.587499"><ele>2402.1</ele><time>2026-04-05T12:22:13.000Z</time></trkpt>
<trkpt lat="42.198133" lon="23.5875"><ele>2402.1</ele><time>2026-04-05T12:22:14.000Z</time></trkpt>
<trkpt lat="42.198133" lon="23.5875"><ele>2402.1</ele><time>2026-04-05T12:22:15.000Z</time></trkpt>
<trkpt lat="42.198133" lon="23.5875"><ele>2402.1</ele><time>2026-04-05T12:22:16.000Z</time></trkpt>
<trkpt lat="42.198133" lon="23.5875"><ele>2402</ele><time>2026-04-05T12:22:17.000Z</time></trkpt>
<trkpt lat="42.198133" lon="23.587501"><ele>2402</ele><time>2026-04-05T12:22:18.000Z</time></trkpt>
<trkpt lat="42.198133" lon="23.587501"><ele>2402</ele><time>2026-04-05T12:22:19.000Z</time></trkpt>
<trkpt lat="42.198133" lon="23.587501"><ele>2402</ele><time>2026-04-05T12:22:20.000Z</time></trkpt>
<trkpt lat="42.198133" lon="23.587501"><ele>2402</ele><time>2026-04-05T12:22:21.000Z</time></trkpt>
<trkpt lat="42.198133" lon="23.587501"><ele>2401.9</ele><time>2026-04-05T12:22:22.000Z</time></trkpt>
<trkpt lat="42.198133" lon="23.587501"><ele>2401.9</ele><time>2026-04-05T12:22:23.000Z</time></trkpt>
<trkpt lat="42.198133" lon="23.587502"><ele>2401.9</ele><time>2026-04-05T12:22:24.000Z</time></trkpt>
<trkpt lat="42.198133" lon="23.587502"><ele>2401.9</ele><time>2026-04-05T12:22:25.000Z</time></trkpt>
<trkpt lat="42.198133" lon="23.587503"><ele>2401.9</ele><time>2026-04-05T12:22:26.000Z</time></trkpt>
<trkpt lat="42.198134" lon="23.587505"><ele>2402</ele><time>2026-04-05T12:22:27.000Z</time></trkpt>
<trkpt lat="42.198134" lon="23.587506"><ele>2402</ele><time>2026-04-05T12:22:28.000Z</time></trkpt>
<trkpt lat="42.198134" lon="23.587507"><ele>2402</ele><time>2026-04-05T12:22:29.000Z</time></trkpt>
<trkpt lat="42.198134" lon="23.587508"><ele>2402</ele><time>2026-04-05T12:22:30.000Z</time></trkpt>
<trkpt lat="42.198134" lon="23.587507"><ele>2402</ele><time>2026-04-05T12:22:31.000Z</time></trkpt>
<trkpt lat="42.198133" lon="23.587507"><ele>2402.3</ele><time>2026-04-05T12:22:32.000Z</time></trkpt>
<trkpt lat="42.198133" lon="23.587507"><ele>2402.3</ele><time>2026-04-05T12:22:33.000Z</time></trkpt>
<trkpt lat="42.198133" lon="23.587507"><ele>2402.3</ele><time>2026-04-05T12:22:34.000Z</time></trkpt>
<trkpt lat="42.198133" lon="23.587505"><ele>2402.3</ele><time>2026-04-05T12:22:35.000Z</time></trkpt>
<trkpt lat="42.198134" lon="23.587504"><ele>2402.3</ele><time>2026-04-05T12:22:36.000Z</time></trkpt>
<trkpt lat="42.198134" lon="23.587501"><ele>2402.4</ele><time>2026-04-05T12:22:37.000Z</time></trkpt>
<trkpt lat="42.198135" lon="23.587499"><ele>2402.4</ele><time>2026-04-05T12:22:38.000Z</time></trkpt>
<trkpt lat="42.198136" lon="23.587498"><ele>2402.4</ele><time>2026-04-05T12:22:39.000Z</time></trkpt>
<trkpt lat="42.198136" lon="23.587497"><ele>2402.4</ele><time>2026-04-05T12:22:40.000Z</time></trkpt>
<trkpt lat="42.198137" lon="23.587497"><ele>2402.4</ele><time>2026-04-05T12:22:41.000Z</time></trkpt>
<trkpt lat="42.198137" lon="23.587498"><ele>2402.5</ele><time>2026-04-05T12:22:42.000Z</time></trkpt>
<trkpt lat="42.198138" lon="23.587498"><ele>2402.5</ele><time>2026-04-05T12:22:43.000Z</time></trkpt>
<trkpt lat="42.198138" lon="23.587498"><ele>2402.5</ele><time>2026-04-05T12:22:44.000Z</time></trkpt>
<trkpt lat="42.198139" lon="23.587497"><ele>2402.5</ele><time>2026-04-05T12:22:45.000Z</time></trkpt>
<trkpt lat="42.198139" lon="23.587497"><ele>2402.5</ele><time>2026-04-05T12:22:46.000Z</time></trkpt>
<trkpt lat="42.198139" lon="23.587496"><ele>2402.5</ele><time>2026-04-05T12:22:47.000Z</time></trkpt>
<trkpt lat="42.198139" lon="23.587496"><ele>2402.5</ele><time>2026-04-05T12:22:48.000Z</time></trkpt>
<trkpt lat="42.198139" lon="23.587495"><ele>2402.5</ele><time>2026-04-05T12:22:49.000Z</time></trkpt>
<trkpt lat="42.198139" lon="23.587495"><ele>2402.5</ele><time>2026-04-05T12:22:50.000Z</time></trkpt>
<trkpt lat="42.198139" lon="23.587495"><ele>2402.5</ele><time>2026-04-05T12:22:51.000Z</time></trkpt>
<trkpt lat="42.198139" lon="23.587494"><ele>2402.5</ele><time>2026-04-05T12:22:52.000Z</time></trkpt>
<trkpt lat="42.198138" lon="23.587494"><ele>2402.5</ele><time>2026-04-05T12:22:53.000Z</time></trkpt>
<trkpt lat="42.198138" lon="23.587494"><ele>2402.5</ele><time>2026-04-05T12:22:54.000Z</time></trkpt>
<trkpt lat="42.198137" lon="23.587494"><ele>2402.5</ele><time>2026-04-05T12:22:55.000Z</time></trkpt>
<trkpt lat="42.198137" lon="23.587495"><ele>2402.5</ele><time>2026-04-05T12:22:56.000Z</time></trkpt>
<trkpt lat="42.198136" lon="23.587496"><ele>2402.4</ele><time>2026-04-05T12:22:57.000Z</time></trkpt>
<trkpt lat="42.198136" lon="23.587496"><ele>2402.4</ele><time>2026-04-05T12:22:58.000Z</time></trkpt>
<trkpt lat="42.198136" lon="23.587495"><ele>2402.4</ele><time>2026-04-05T12:22:59.000Z</time></trkpt>
<trkpt lat="42.198136" lon="23.587495"><ele>2402.4</ele><time>2026-04-05T12:23:00.000Z</time></trkpt>
<trkpt lat="42.198136" lon="23.587494"><ele>2402.4</ele><time>2026-04-05T12:23:01.000Z</time></trkpt>
<trkpt lat="42.198136" lon="23.587493"><ele>2402.3</ele><time>2026-04-05T12:23:02.000Z</time></trkpt>
<trkpt lat="42.198136" lon="23.587493"><ele>2402.3</ele><time>2026-04-05T12:23:03.000Z</time></trkpt>
<trkpt lat="42.198137" lon="23.587493"><ele>2402.3</ele><time>2026-04-05T12:23:04.000Z</time></trkpt>
<trkpt lat="42.198137" lon="23.587492"><ele>2402.3</ele><time>2026-04-05T12:23:05.000Z</time></trkpt>
<trkpt lat="42.198138" lon="23.587492"><ele>2402.3</ele><time>2026-04-05T12:23:06.000Z</time></trkpt>
<trkpt lat="42.198137" lon="23.587492"><ele>2402.3</ele><time>2026-04-05T12:23:07.000Z</time></trkpt>
<trkpt lat="42.198137" lon="23.587491"><ele>2402.3</ele><time>2026-04-05T12:23:08.000Z</time></trkpt>
<trkpt lat="42.198137" lon="23.587491"><ele>2402.3</ele><time>2026-04-05T12:23:09.000Z</time></trkpt>
<trkpt lat="42.198137" lon="23.58749"><ele>2402.3</ele><time>2026-04-05T12:23:10.000Z</time></trkpt>
<trkpt lat="42.198136" lon="23.587489"><ele>2402.3</ele><time>2026-04-05T12:23:11.000Z</time></trkpt>
<trkpt lat="42.198136" lon="23.587487"><ele>2402.5</ele><time>2026-04-05T12:23:12.000Z</time></trkpt>
<trkpt lat="42.198136" lon="23.587486"><ele>2402.5</ele><time>2026-04-05T12:23:13.000Z</time></trkpt>
<trkpt lat="42.198136" lon="23.587484"><ele>2402.5</ele><time>2026-04-05T12:23:14.000Z</time></trkpt>
<trkpt lat="42.198137" lon="23.587483"><ele>2402.5</ele><time>2026-04-05T12:23:15.000Z</time></trkpt>
<trkpt lat="42.198138" lon="23.587482"><ele>2402.5</ele><time>2026-04-05T12:23:16.000Z</time></trkpt>
<trkpt lat="42.198139" lon="23.587481"><ele>2402.8</ele><time>2026-04-05T12:23:17.000Z</time></trkpt>
<trkpt lat="42.198139" lon="23.58748"><ele>2402.8</ele><time>2026-04-05T12:23:18.000Z</time></trkpt>
<trkpt lat="42.19814" lon="23.587479"><ele>2402.8</ele><time>2026-04-05T12:23:19.000Z</time></trkpt>
<trkpt lat="42.198141" lon="23.587478"><ele>2402.8</ele><time>2026-04-05T12:23:20.000Z</time></trkpt>
<trkpt lat="42.198141" lon="23.587477"><ele>2402.8</ele><time>2026-04-05T12:23:21.000Z</time></trkpt>
<trkpt lat="42.198142" lon="23.587477"><ele>2402.8</ele><time>2026-04-05T12:23:22.000Z</time></trkpt>
<trkpt lat="42.198143" lon="23.587476"><ele>2402.8</ele><time>2026-04-05T12:23:23.000Z</time></trkpt>
<trkpt lat="42.198143" lon="23.587476"><ele>2402.8</ele><time>2026-04-05T12:23:24.000Z</time></trkpt>
<trkpt lat="42.198143" lon="23.587477"><ele>2402.8</ele><time>2026-04-05T12:23:25.000Z</time></trkpt>
<trkpt lat="42.198143" lon="23.587477"><ele>2402.8</ele><time>2026-04-05T12:23:26.000Z</time></trkpt>
<trkpt lat="42.198143" lon="23.587478"><ele>2402.9</ele><time>2026-04-05T12:23:27.000Z</time></trkpt>
<trkpt lat="42.198142" lon="23.58748"><ele>2402.9</ele><time>2026-04-05T12:23:28.000Z</time></trkpt>
<trkpt lat="42.198142" lon="23.587482"><ele>2402.9</ele><time>2026-04-05T12:23:29.000Z</time></trkpt>
<trkpt lat="42.198142" lon="23.587484"><ele>2402.9</ele><time>2026-04-05T12:23:30.000Z</time></trkpt>
<trkpt lat="42.198141" lon="23.587487"><ele>2402.9</ele><time>2026-04-05T12:23:31.000Z</time></trkpt>
<trkpt lat="42.19814" lon="23.587489"><ele>2402.8</ele><time>2026-04-05T12:23:32.000Z</time></trkpt>
<trkpt lat="42.19814" lon="23.58749"><ele>2402.8</ele><time>2026-04-05T12:23:33.000Z</time></trkpt>
<trkpt lat="42.198141" lon="23.58749"><ele>2402.8</ele><time>2026-04-05T12:23:34.000Z</time></trkpt>
<trkpt lat="42.198142" lon="23.58749"><ele>2402.8</ele><time>2026-04-05T12:23:35.000Z</time></trkpt>
<trkpt lat="42.198143" lon="23.587489"><ele>2402.8</ele><time>2026-04-05T12:23:36.000Z</time></trkpt>
<trkpt lat="42.198144" lon="23.587489"><ele>2402.8</ele><time>2026-04-05T12:23:37.000Z</time></trkpt>
<trkpt lat="42.198145" lon="23.587489"><ele>2402.8</ele><time>2026-04-05T12:23:38.000Z</time></trkpt>
<trkpt lat="42.198146" lon="23.587489"><ele>2402.8</ele><time>2026-04-05T12:23:39.000Z</time></trkpt>
<trkpt lat="42.198146" lon="23.587489"><ele>2402.8</ele><time>2026-04-05T12:23:40.000Z</time></trkpt>
<trkpt lat="42.198147" lon="23.58749"><ele>2402.8</ele><time>2026-04-05T12:23:41.000Z</time></trkpt>
<trkpt lat="42.198148" lon="23.58749"><ele>2402.7</ele><time>2026-04-05T12:23:42.000Z</time></trkpt>
<trkpt lat="42.198148" lon="23.58749"><ele>2402.7</ele><time>2026-04-05T12:23:43.000Z</time></trkpt>
<trkpt lat="42.198148" lon="23.58749"><ele>2402.7</ele><time>2026-04-05T12:23:44.000Z</time></trkpt>
<trkpt lat="42.198148" lon="23.587491"><ele>2402.7</ele><time>2026-04-05T12:23:45.000Z</time></trkpt>
<trkpt lat="42.198148" lon="23.587491"><ele>2402.7</ele><time>2026-04-05T12:23:46.000Z</time></trkpt>
<trkpt lat="42.198148" lon="23.587492"><ele>2402.8</ele><time>2026-04-05T12:23:47.000Z</time></trkpt>
<trkpt lat="42.198148" lon="23.587492"><ele>2402.8</ele><time>2026-04-05T12:23:48.000Z</time></trkpt>
<trkpt lat="42.198148" lon="23.587492"><ele>2402.8</ele><time>2026-04-05T12:23:49.000Z</time></trkpt>
<trkpt lat="42.198149" lon="23.587491"><ele>2402.8</ele><time>2026-04-05T12:23:50.000Z</time></trkpt>
<trkpt lat="42.19815" lon="23.587491"><ele>2402.8</ele><time>2026-04-05T12:23:51.000Z</time></trkpt>
<trkpt lat="42.19815" lon="23.587492"><ele>2402.8</ele><time>2026-04-05T12:23:52.000Z</time></trkpt>
<trkpt lat="42.19815" lon="23.587492"><ele>2402.8</ele><time>2026-04-05T12:23:53.000Z</time></trkpt>
<trkpt lat="42.19815" lon="23.587492"><ele>2402.8</ele><time>2026-04-05T12:23:54.000Z</time></trkpt>
<trkpt lat="42.198149" lon="23.587493"><ele>2402.8</ele><time>2026-04-05T12:23:55.000Z</time></trkpt>
<trkpt lat="42.198149" lon="23.587494"><ele>2402.8</ele><time>2026-04-05T12:23:56.000Z</time></trkpt>
<trkpt lat="42.198149" lon="23.587494"><ele>2403.1</ele><time>2026-04-05T12:23:57.000Z</time></trkpt>
<trkpt lat="42.198149" lon="23.587494"><ele>2403.1</ele><time>2026-04-05T12:23:58.000Z</time></trkpt>
<trkpt lat="42.198149" lon="23.587494"><ele>2403.1</ele><time>2026-04-05T12:23:59.000Z</time></trkpt>
<trkpt lat="42.198148" lon="23.587495"><ele>2403.1</ele><time>2026-04-05T12:24:00.000Z</time></trkpt>
<trkpt lat="42.198147" lon="23.587495"><ele>2403.1</ele><time>2026-04-05T12:24:01.000Z</time></trkpt>
<trkpt lat="42.198147" lon="23.587495"><ele>2403.1</ele><time>2026-04-05T12:24:02.000Z</time></trkpt>
<trkpt lat="42.198146" lon="23.587495"><ele>2403.1</ele><time>2026-04-05T12:24:03.000Z</time></trkpt>
<trkpt lat="42.198146" lon="23.587496"><ele>2403.1</ele><time>2026-04-05T12:24:04.000Z</time></trkpt>
<trkpt lat="42.198145" lon="23.587497"><ele>2403.1</ele><time>2026-04-05T12:24:05.000Z</time></trkpt>
<trkpt lat="42.198144" lon="23.587498"><ele>2403.1</ele><time>2026-04-05T12:24:06.000Z</time></trkpt>
<trkpt lat="42.198142" lon="23.587498"><ele>2403.1</ele><time>2026-04-05T12:24:07.000Z</time></trkpt>
<trkpt lat="42.198142" lon="23.587499"><ele>2403.1</ele><time>2026-04-05T12:24:08.000Z</time></trkpt>
<trkpt lat="42.198141" lon="23.587498"><ele>2403.1</ele><time>2026-04-05T12:24:09.000Z</time></trkpt>
<trkpt lat="42.19814" lon="23.587498"><ele>2403.1</ele><time>2026-04-05T12:24:10.000Z</time></trkpt>
<trkpt lat="42.19814" lon="23.587498"><ele>2403.1</ele><time>2026-04-05T12:24:11.000Z</time></trkpt>
<trkpt lat="42.198141" lon="23.587498"><ele>2402.8</ele><time>2026-04-05T12:24:12.000Z</time></trkpt>
<trkpt lat="42.198142" lon="23.5875"><ele>2402.8</ele><time>2026-04-05T12:24:13.000Z</time></trkpt>
<trkpt lat="42.198143" lon="23.587505"><ele>2402.8</ele><time>2026-04-05T12:24:14.000Z</time></trkpt>
<trkpt lat="42.198145" lon="23.587509"><ele>2402.8</ele><time>2026-04-05T12:24:15.000Z</time></trkpt>
<trkpt lat="42.198148" lon="23.587515"><ele>2402.8</ele><time>2026-04-05T12:24:16.000Z</time></trkpt>
<trkpt lat="42.19815" lon="23.587519"><ele>2402.6</ele><time>2026-04-05T12:24:17.000Z</time></trkpt>
<trkpt lat="42.198152" lon="23.587521"><ele>2402.6</ele><time>2026-04-05T12:24:18.000Z</time></trkpt>
<trkpt lat="42.198154" lon="23.587522"><ele>2402.6</ele><time>2026-04-05T12:24:19.000Z</time></trkpt>
<trkpt lat="42.198155" lon="23.587523"><ele>2402.6</ele><time>2026-04-05T12:24:20.000Z</time></trkpt>
<trkpt lat="42.198156" lon="23.587523"><ele>2402.6</ele><time>2026-04-05T12:24:21.000Z</time></trkpt>
<trkpt lat="42.198157" lon="23.587524"><ele>2402.6</ele><time>2026-04-05T12:24:22.000Z</time></trkpt>
<trkpt lat="42.198157" lon="23.587525"><ele>2402.6</ele><time>2026-04-05T12:24:23.000Z</time></trkpt>
<trkpt lat="42.198157" lon="23.587527"><ele>2402.6</ele><time>2026-04-05T12:24:24.000Z</time></trkpt>
<trkpt lat="42.198157" lon="23.587528"><ele>2402.6</ele><time>2026-04-05T12:24:25.000Z</time></trkpt>
<trkpt lat="42.198157" lon="23.587529"><ele>2402.6</ele><time>2026-04-05T12:24:26.000Z</time></trkpt>
<trkpt lat="42.198156" lon="23.58753"><ele>2402.7</ele><time>2026-04-05T12:24:27.000Z</time></trkpt>
<trkpt lat="42.198155" lon="23.587531"><ele>2402.7</ele><time>2026-04-05T12:24:28.000Z</time></trkpt>
<trkpt lat="42.198154" lon="23.587532"><ele>2402.7</ele><time>2026-04-05T12:24:29.000Z</time></trkpt>
<trkpt lat="42.198152" lon="23.587533"><ele>2402.7</ele><time>2026-04-05T12:24:30.000Z</time></trkpt>
<trkpt lat="42.19815" lon="23.587535"><ele>2402.7</ele><time>2026-04-05T12:24:31.000Z</time></trkpt>
<trkpt lat="42.19815" lon="23.587535"><ele>2403</ele><time>2026-04-05T12:24:32.000Z</time></trkpt>
<trkpt lat="42.198149" lon="23.587536"><ele>2403</ele><time>2026-04-05T12:24:33.000Z</time></trkpt>
<trkpt lat="42.198148" lon="23.587537"><ele>2403</ele><time>2026-04-05T12:24:34.000Z</time></trkpt>
<trkpt lat="42.198147" lon="23.587537"><ele>2403</ele><time>2026-04-05T12:24:35.000Z</time></trkpt>
<trkpt lat="42.198145" lon="23.587538"><ele>2403</ele><time>2026-04-05T12:24:36.000Z</time></trkpt>
<trkpt lat="42.198144" lon="23.58754"><ele>2403.1</ele><time>2026-04-05T12:24:37.000Z</time></trkpt>
<trkpt lat="42.198142" lon="23.587541"><ele>2403.1</ele><time>2026-04-05T12:24:38.000Z</time></trkpt>
<trkpt lat="42.19814" lon="23.587541"><ele>2403.1</ele><time>2026-04-05T12:24:39.000Z</time></trkpt>
<trkpt lat="42.198138" lon="23.587541"><ele>2403.1</ele><time>2026-04-05T12:24:40.000Z</time></trkpt>
<trkpt lat="42.198137" lon="23.587538"><ele>2403.1</ele><time>2026-04-05T12:24:41.000Z</time></trkpt>
<trkpt lat="42.198137" lon="23.587536"><ele>2403.1</ele><time>2026-04-05T12:24:42.000Z</time></trkpt>
<trkpt lat="42.198137" lon="23.587535"><ele>2403.1</ele><time>2026-04-05T12:24:43.000Z</time></trkpt>
<trkpt lat="42.198136" lon="23.587537"><ele>2403.1</ele><time>2026-04-05T12:24:44.000Z</time></trkpt>
<trkpt lat="42.198135" lon="23.587538"><ele>2403.1</ele><time>2026-04-05T12:24:45.000Z</time></trkpt>
<trkpt lat="42.198135" lon="23.587539"><ele>2403.1</ele><time>2026-04-05T12:24:46.000Z</time></trkpt>
<trkpt lat="42.198134" lon="23.587541"><ele>2402.9</ele><time>2026-04-05T12:24:47.000Z</time></trkpt>
<trkpt lat="42.198133" lon="23.587542"><ele>2402.9</ele><time>2026-04-05T12:24:48.000Z</time></trkpt>
<trkpt lat="42.198134" lon="23.587543"><ele>2402.9</ele><time>2026-04-05T12:24:49.000Z</time></trkpt>
<trkpt lat="42.198134" lon="23.587544"><ele>2402.9</ele><time>2026-04-05T12:24:50.000Z</time></trkpt>
<trkpt lat="42.198133" lon="23.587546"><ele>2402.9</ele><time>2026-04-05T12:24:51.000Z</time></trkpt>
<trkpt lat="42.198133" lon="23.587547"><ele>2402.8</ele><time>2026-04-05T12:24:52.000Z</time></trkpt>
<trkpt lat="42.198133" lon="23.587549"><ele>2402.8</ele><time>2026-04-05T12:24:53.000Z</time></trkpt>
<trkpt lat="42.198133" lon="23.587549"><ele>2402.8</ele><time>2026-04-05T12:24:54.000Z</time></trkpt>
<trkpt lat="42.198133" lon="23.58755"><ele>2402.8</ele><time>2026-04-05T12:24:55.000Z</time></trkpt>
<trkpt lat="42.198133" lon="23.58755"><ele>2402.8</ele><time>2026-04-05T12:24:56.000Z</time></trkpt>
<trkpt lat="42.198133" lon="23.58755"><ele>2402.5</ele><time>2026-04-05T12:24:57.000Z</time></trkpt>
<trkpt lat="42.198133" lon="23.58755"><ele>2402.5</ele><time>2026-04-05T12:24:58.000Z</time></trkpt>
<trkpt lat="42.198133" lon="23.58755"><ele>2402.5</ele><time>2026-04-05T12:24:59.000Z</time></trkpt>
<trkpt lat="42.198133" lon="23.58755"><ele>2402.5</ele><time>2026-04-05T12:25:00.000Z</time></trkpt>
<trkpt lat="42.198133" lon="23.58755"><ele>2402.5</ele><time>2026-04-05T12:25:01.000Z</time></trkpt>
<trkpt lat="42.198133" lon="23.58755"><ele>2402.5</ele><time>2026-04-05T12:25:02.000Z</time></trkpt>
<trkpt lat="42.198133" lon="23.58755"><ele>2402.5</ele><time>2026-04-05T12:25:03.000Z</time></trkpt>
<trkpt lat="42.198133" lon="23.58755"><ele>2402.5</ele><time>2026-04-05T12:25:04.000Z</time></trkpt>
<trkpt lat="42.198133" lon="23.587551"><ele>2402.5</ele><time>2026-04-05T12:25:05.000Z</time></trkpt>
<trkpt lat="42.198132" lon="23.587551"><ele>2402.5</ele><time>2026-04-05T12:25:06.000Z</time></trkpt>
<trkpt lat="42.198132" lon="23.587551"><ele>2402.5</ele><time>2026-04-05T12:25:07.000Z</time></trkpt>
<trkpt lat="42.198132" lon="23.587552"><ele>2402.5</ele><time>2026-04-05T12:25:08.000Z</time></trkpt>
<trkpt lat="42.198132" lon="23.587552"><ele>2402.5</ele><time>2026-04-05T12:25:09.000Z</time></trkpt>
<trkpt lat="42.198132" lon="23.587552"><ele>2402.5</ele><time>2026-04-05T12:25:10.000Z</time></trkpt>
<trkpt lat="42.198131" lon="23.587552"><ele>2402.5</ele><time>2026-04-05T12:25:11.000Z</time></trkpt>
<trkpt lat="42.198131" lon="23.587552"><ele>2402.6</ele><time>2026-04-05T12:25:12.000Z</time></trkpt>
<trkpt lat="42.198131" lon="23.587552"><ele>2402.6</ele><time>2026-04-05T12:25:13.000Z</time></trkpt>
<trkpt lat="42.198131" lon="23.587552"><ele>2402.6</ele><time>2026-04-05T12:25:14.000Z</time></trkpt>
<trkpt lat="42.198131" lon="23.587552"><ele>2402.6</ele><time>2026-04-05T12:25:15.000Z</time></trkpt>
<trkpt lat="42.198131" lon="23.587552"><ele>2402.6</ele><time>2026-04-05T12:25:16.000Z</time></trkpt>
<trkpt lat="42.198131" lon="23.587552"><ele>2402.7</ele><time>2026-04-05T12:25:17.000Z</time></trkpt>
<trkpt lat="42.198131" lon="23.587552"><ele>2402.7</ele><time>2026-04-05T12:25:18.000Z</time></trkpt>
<trkpt lat="42.198131" lon="23.587552"><ele>2402.7</ele><time>2026-04-05T12:25:19.000Z</time></trkpt>
<trkpt lat="42.198131" lon="23.587552"><ele>2402.7</ele><time>2026-04-05T12:25:20.000Z</time></trkpt>
<trkpt lat="42.198131" lon="23.587552"><ele>2402.7</ele><time>2026-04-05T12:25:21.000Z</time></trkpt>
<trkpt lat="42.198131" lon="23.587552"><ele>2402.7</ele><time>2026-04-05T12:25:22.000Z</time></trkpt>
<trkpt lat="42.198131" lon="23.587552"><ele>2402.7</ele><time>2026-04-05T12:25:23.000Z</time></trkpt>
<trkpt lat="42.19813" lon="23.587552"><ele>2402.7</ele><time>2026-04-05T12:25:24.000Z</time></trkpt>
<trkpt lat="42.19813" lon="23.58755"><ele>2402.7</ele><time>2026-04-05T12:25:25.000Z</time></trkpt>
<trkpt lat="42.198131" lon="23.587548"><ele>2402.7</ele><time>2026-04-05T12:25:26.000Z</time></trkpt>
<trkpt lat="42.19813" lon="23.587547"><ele>2402.7</ele><time>2026-04-05T12:25:27.000Z</time></trkpt>
<trkpt lat="42.198131" lon="23.587545"><ele>2402.7</ele><time>2026-04-05T12:25:28.000Z</time></trkpt>
<trkpt lat="42.198131" lon="23.587543"><ele>2402.7</ele><time>2026-04-05T12:25:29.000Z</time></trkpt>
<trkpt lat="42.198131" lon="23.587542"><ele>2402.7</ele><time>2026-04-05T12:25:30.000Z</time></trkpt>
<trkpt lat="42.198131" lon="23.587542"><ele>2402.7</ele><time>2026-04-05T12:25:31.000Z</time></trkpt>
<trkpt lat="42.198131" lon="23.587541"><ele>2402.6</ele><time>2026-04-05T12:25:32.000Z</time></trkpt>
<trkpt lat="42.198131" lon="23.587541"><ele>2402.6</ele><time>2026-04-05T12:25:33.000Z</time></trkpt>
<trkpt lat="42.19813" lon="23.587541"><ele>2402.6</ele><time>2026-04-05T12:25:34.000Z</time></trkpt>
<trkpt lat="42.19813" lon="23.587541"><ele>2402.6</ele><time>2026-04-05T12:25:35.000Z</time></trkpt>
<trkpt lat="42.198129" lon="23.587541"><ele>2402.6</ele><time>2026-04-05T12:25:36.000Z</time></trkpt>
<trkpt lat="42.198129" lon="23.587541"><ele>2402.6</ele><time>2026-04-05T12:25:37.000Z</time></trkpt>
<trkpt lat="42.198129" lon="23.587541"><ele>2402.6</ele><time>2026-04-05T12:25:38.000Z</time></trkpt>
<trkpt lat="42.198129" lon="23.587541"><ele>2402.6</ele><time>2026-04-05T12:25:39.000Z</time></trkpt>
<trkpt lat="42.198129" lon="23.587541"><ele>2402.6</ele><time>2026-04-05T12:25:40.000Z</time></trkpt>
<trkpt lat="42.198129" lon="23.587541"><ele>2402.6</ele><time>2026-04-05T12:25:41.000Z</time></trkpt>
<trkpt lat="42.198129" lon="23.587542"><ele>2402.5</ele><time>2026-04-05T12:25:42.000Z</time></trkpt>
<trkpt lat="42.198129" lon="23.587542"><ele>2402.5</ele><time>2026-04-05T12:25:43.000Z</time></trkpt>
<trkpt lat="42.198129" lon="23.587542"><ele>2402.5</ele><time>2026-04-05T12:25:44.000Z</time></trkpt>
<trkpt lat="42.198129" lon="23.587542"><ele>2402.5</ele><time>2026-04-05T12:25:45.000Z</time></trkpt>
<trkpt lat="42.198129" lon="23.587542"><ele>2402.5</ele><time>2026-04-05T12:25:46.000Z</time></trkpt>
<trkpt lat="42.198129" lon="23.587542"><ele>2402.6</ele><time>2026-04-05T12:25:47.000Z</time></trkpt>
<trkpt lat="42.198129" lon="23.587542"><ele>2402.6</ele><time>2026-04-05T12:25:48.000Z</time></trkpt>
<trkpt lat="42.198129" lon="23.587542"><ele>2402.6</ele><time>2026-04-05T12:25:49.000Z</time></trkpt>
<trkpt lat="42.198129" lon="23.587542"><ele>2402.6</ele><time>2026-04-05T12:25:50.000Z</time></trkpt>
<trkpt lat="42.198129" lon="23.587542"><ele>2402.6</ele><time>2026-04-05T12:25:51.000Z</time></trkpt>
<trkpt lat="42.19813" lon="23.587542"><ele>2402.6</ele><time>2026-04-05T12:25:52.000Z</time></trkpt>
<trkpt lat="42.19813" lon="23.587542"><ele>2402.6</ele><time>2026-04-05T12:25:53.000Z</time></trkpt>
<trkpt lat="42.19813" lon="23.587542"><ele>2402.6</ele><time>2026-04-05T12:25:54.000Z</time></trkpt>
<trkpt lat="42.198131" lon="23.587542"><ele>2402.6</ele><time>2026-04-05T12:25:55.000Z</time></trkpt>
<trkpt lat="42.198131" lon="23.587542"><ele>2402.6</ele><time>2026-04-05T12:25:56.000Z</time></trkpt>
<trkpt lat="42.198131" lon="23.587542"><ele>2402.9</ele><time>2026-04-05T12:25:57.000Z</time></trkpt>
<trkpt lat="42.198131" lon="23.587542"><ele>2402.9</ele><time>2026-04-05T12:25:58.000Z</time></trkpt>
<trkpt lat="42.198131" lon="23.587542"><ele>2402.9</ele><time>2026-04-05T12:25:59.000Z</time></trkpt>
<trkpt lat="42.198131" lon="23.587542"><ele>2402.9</ele><time>2026-04-05T12:26:00.000Z</time></trkpt>
<trkpt lat="42.198131" lon="23.587542"><ele>2402.9</ele><time>2026-04-05T12:26:01.000Z</time></trkpt>
<trkpt lat="42.198131" lon="23.587542"><ele>2403.1</ele><time>2026-04-05T12:26:02.000Z</time></trkpt>
<trkpt lat="42.19813" lon="23.587543"><ele>2403.1</ele><time>2026-04-05T12:26:03.000Z</time></trkpt>
<trkpt lat="42.19813" lon="23.587543"><ele>2403.1</ele><time>2026-04-05T12:26:04.000Z</time></trkpt>
<trkpt lat="42.19813" lon="23.587543"><ele>2403.1</ele><time>2026-04-05T12:26:05.000Z</time></trkpt>
<trkpt lat="42.19813" lon="23.587543"><ele>2403.1</ele><time>2026-04-05T12:26:06.000Z</time></trkpt>
<trkpt lat="42.19813" lon="23.587543"><ele>2403.2</ele><time>2026-04-05T12:26:07.000Z</time></trkpt>
<trkpt lat="42.19813" lon="23.587543"><ele>2403.2</ele><time>2026-04-05T12:26:08.000Z</time></trkpt>
<trkpt lat="42.19813" lon="23.587543"><ele>2403.2</ele><time>2026-04-05T12:26:09.000Z</time></trkpt>
<trkpt lat="42.19813" lon="23.587543"><ele>2403.2</ele><time>2026-04-05T12:26:10.000Z</time></trkpt>
<trkpt lat="42.198129" lon="23.587544"><ele>2403.2</ele><time>2026-04-05T12:26:11.000Z</time></trkpt>
<trkpt lat="42.198129" lon="23.587544"><ele>2403.4</ele><time>2026-04-05T12:26:12.000Z</time></trkpt>
<trkpt lat="42.198129" lon="23.587545"><ele>2403.4</ele><time>2026-04-05T12:26:13.000Z</time></trkpt>
<trkpt lat="42.198128" lon="23.587545"><ele>2403.4</ele><time>2026-04-05T12:26:14.000Z</time></trkpt>
<trkpt lat="42.198128" lon="23.587545"><ele>2403.4</ele><time>2026-04-05T12:26:15.000Z</time></trkpt>
<trkpt lat="42.198128" lon="23.587545"><ele>2403.4</ele><time>2026-04-05T12:26:16.000Z</time></trkpt>
<trkpt lat="42.198128" lon="23.587545"><ele>2403.4</ele><time>2026-04-05T12:26:17.000Z</time></trkpt>
<trkpt lat="42.198128" lon="23.587545"><ele>2403.4</ele><time>2026-04-05T12:26:18.000Z</time></trkpt>
<trkpt lat="42.198128" lon="23.587545"><ele>2403.4</ele><time>2026-04-05T12:26:19.000Z</time></trkpt>
<trkpt lat="42.198128" lon="23.587545"><ele>2403.4</ele><time>2026-04-05T12:26:20.000Z</time></trkpt>
<trkpt lat="42.198128" lon="23.587546"><ele>2403.4</ele><time>2026-04-05T12:26:21.000Z</time></trkpt>
<trkpt lat="42.198128" lon="23.587546"><ele>2403.4</ele><time>2026-04-05T12:26:22.000Z</time></trkpt>
<trkpt lat="42.198128" lon="23.587546"><ele>2403.4</ele><time>2026-04-05T12:26:23.000Z</time></trkpt>
<trkpt lat="42.198128" lon="23.587547"><ele>2403.4</ele><time>2026-04-05T12:26:24.000Z</time></trkpt>
<trkpt lat="42.198128" lon="23.587547"><ele>2403.4</ele><time>2026-04-05T12:26:25.000Z</time></trkpt>
<trkpt lat="42.198128" lon="23.587548"><ele>2403.4</ele><time>2026-04-05T12:26:26.000Z</time></trkpt>
<trkpt lat="42.198128" lon="23.587548"><ele>2403.3</ele><time>2026-04-05T12:26:27.000Z</time></trkpt>
<trkpt lat="42.198128" lon="23.587549"><ele>2403.3</ele><time>2026-04-05T12:26:28.000Z</time></trkpt>
<trkpt lat="42.198128" lon="23.587549"><ele>2403.3</ele><time>2026-04-05T12:26:29.000Z</time></trkpt>
<trkpt lat="42.198128" lon="23.58755"><ele>2403.3</ele><time>2026-04-05T12:26:30.000Z</time></trkpt>
<trkpt lat="42.198128" lon="23.58755"><ele>2403.3</ele><time>2026-04-05T12:26:31.000Z</time></trkpt>
<trkpt lat="42.198128" lon="23.58755"><ele>2403.3</ele><time>2026-04-05T12:26:32.000Z</time></trkpt>
<trkpt lat="42.198128" lon="23.58755"><ele>2403.3</ele><time>2026-04-05T12:26:33.000Z</time></trkpt>
<trkpt lat="42.198128" lon="23.58755"><ele>2403.3</ele><time>2026-04-05T12:26:34.000Z</time></trkpt>
<trkpt lat="42.198128" lon="23.58755"><ele>2403.3</ele><time>2026-04-05T12:26:35.000Z</time></trkpt>
<trkpt lat="42.198129" lon="23.58755"><ele>2403.3</ele><time>2026-04-05T12:26:36.000Z</time></trkpt>
<trkpt lat="42.198129" lon="23.58755"><ele>2403.3</ele><time>2026-04-05T12:26:37.000Z</time></trkpt>
<trkpt lat="42.198129" lon="23.58755"><ele>2403.3</ele><time>2026-04-05T12:26:38.000Z</time></trkpt>
<trkpt lat="42.19813" lon="23.58755"><ele>2403.3</ele><time>2026-04-05T12:26:39.000Z</time></trkpt>
<trkpt lat="42.19813" lon="23.58755"><ele>2403.3</ele><time>2026-04-05T12:26:40.000Z</time></trkpt>
<trkpt lat="42.19813" lon="23.58755"><ele>2403.3</ele><time>2026-04-05T12:26:41.000Z</time></trkpt>
<trkpt lat="42.19813" lon="23.58755"><ele>2403.3</ele><time>2026-04-05T12:26:42.000Z</time></trkpt>
<trkpt lat="42.19813" lon="23.58755"><ele>2403.3</ele><time>2026-04-05T12:26:43.000Z</time></trkpt>
<trkpt lat="42.19813" lon="23.587551"><ele>2403.3</ele><time>2026-04-05T12:26:44.000Z</time></trkpt>
<trkpt lat="42.198129" lon="23.587551"><ele>2403.3</ele><time>2026-04-05T12:26:45.000Z</time></trkpt>
<trkpt lat="42.198129" lon="23.587552"><ele>2403.3</ele><time>2026-04-05T12:26:46.000Z</time></trkpt>
<trkpt lat="42.198129" lon="23.587552"><ele>2403.3</ele><time>2026-04-05T12:26:47.000Z</time></trkpt>
<trkpt lat="42.198128" lon="23.587553"><ele>2403.3</ele><time>2026-04-05T12:26:48.000Z</time></trkpt>
<trkpt lat="42.198128" lon="23.587553"><ele>2403.3</ele><time>2026-04-05T12:26:49.000Z</time></trkpt>
<trkpt lat="42.198128" lon="23.587553"><ele>2403.3</ele><time>2026-04-05T12:26:50.000Z</time></trkpt>
<trkpt lat="42.198128" lon="23.587553"><ele>2403.3</ele><time>2026-04-05T12:26:51.000Z</time></trkpt>
<trkpt lat="42.198128" lon="23.587553"><ele>2403.3</ele><time>2026-04-05T12:26:52.000Z</time></trkpt>
<trkpt lat="42.198128" lon="23.587554"><ele>2403.3</ele><time>2026-04-05T12:26:53.000Z</time></trkpt>
<trkpt lat="42.198128" lon="23.587554"><ele>2403.3</ele><time>2026-04-05T12:26:54.000Z</time></trkpt>
<trkpt lat="42.198128" lon="23.587554"><ele>2403.3</ele><time>2026-04-05T12:26:55.000Z</time></trkpt>
<trkpt lat="42.198128" lon="23.587554"><ele>2403.3</ele><time>2026-04-05T12:26:56.000Z</time></trkpt>
<trkpt lat="42.198128" lon="23.587554"><ele>2403.3</ele><time>2026-04-05T12:26:57.000Z</time></trkpt>
<trkpt lat="42.198128" lon="23.587554"><ele>2403.3</ele><time>2026-04-05T12:26:58.000Z</time></trkpt>
<trkpt lat="42.198128" lon="23.587554"><ele>2403.3</ele><time>2026-04-05T12:26:59.000Z</time></trkpt>
<trkpt lat="42.198127" lon="23.587555"><ele>2403.3</ele><time>2026-04-05T12:27:00.000Z</time></trkpt>
<trkpt lat="42.198127" lon="23.587555"><ele>2403.3</ele><time>2026-04-05T12:27:01.000Z</time></trkpt>
<trkpt lat="42.198126" lon="23.587555"><ele>2403.2</ele><time>2026-04-05T12:27:02.000Z</time></trkpt>
<trkpt lat="42.198126" lon="23.587555"><ele>2403.2</ele><time>2026-04-05T12:27:03.000Z</time></trkpt>
<trkpt lat="42.198126" lon="23.587555"><ele>2403.2</ele><time>2026-04-05T12:27:04.000Z</time></trkpt>
<trkpt lat="42.198126" lon="23.587555"><ele>2403.2</ele><time>2026-04-05T12:27:05.000Z</time></trkpt>
<trkpt lat="42.198126" lon="23.587555"><ele>2403.2</ele><time>2026-04-05T12:27:06.000Z</time></trkpt>
<trkpt lat="42.198126" lon="23.587555"><ele>2403.2</ele><time>2026-04-05T12:27:07.000Z</time></trkpt>
<trkpt lat="42.198126" lon="23.587555"><ele>2403.2</ele><time>2026-04-05T12:27:08.000Z</time></trkpt>
<trkpt lat="42.198126" lon="23.587555"><ele>2403.2</ele><time>2026-04-05T12:27:09.000Z</time></trkpt>
<trkpt lat="42.198126" lon="23.587555"><ele>2403.2</ele><time>2026-04-05T12:27:10.000Z</time></trkpt>
<trkpt lat="42.198126" lon="23.587555"><ele>2403.2</ele><time>2026-04-05T12:27:11.000Z</time></trkpt>
<trkpt lat="42.198126" lon="23.587554"><ele>2403</ele><time>2026-04-05T12:27:12.000Z</time></trkpt>
<trkpt lat="42.198127" lon="23.587554"><ele>2403</ele><time>2026-04-05T12:27:13.000Z</time></trkpt>
<trkpt lat="42.198127" lon="23.587553"><ele>2403</ele><time>2026-04-05T12:27:14.000Z</time></trkpt>
<trkpt lat="42.198127" lon="23.587552"><ele>2403</ele><time>2026-04-05T12:27:15.000Z</time></trkpt>
<trkpt lat="42.198128" lon="23.587552"><ele>2403</ele><time>2026-04-05T12:27:16.000Z</time></trkpt>
<trkpt lat="42.198128" lon="23.587552"><ele>2402.9</ele><time>2026-04-05T12:27:17.000Z</time></trkpt>
<trkpt lat="42.198128" lon="23.587552"><ele>2402.9</ele><time>2026-04-05T12:27:18.000Z</time></trkpt>
<trkpt lat="42.198128" lon="23.587552"><ele>2402.9</ele><time>2026-04-05T12:27:19.000Z</time></trkpt>
<trkpt lat="42.198128" lon="23.587552"><ele>2402.9</ele><time>2026-04-05T12:27:20.000Z</time></trkpt>
<trkpt lat="42.198129" lon="23.587551"><ele>2402.9</ele><time>2026-04-05T12:27:21.000Z</time></trkpt>
<trkpt lat="42.198129" lon="23.587551"><ele>2402.9</ele><time>2026-04-05T12:27:22.000Z</time></trkpt>
<trkpt lat="42.19813" lon="23.587551"><ele>2402.9</ele><time>2026-04-05T12:27:23.000Z</time></trkpt>
<trkpt lat="42.19813" lon="23.58755"><ele>2402.9</ele><time>2026-04-05T12:27:24.000Z</time></trkpt>
<trkpt lat="42.19813" lon="23.58755"><ele>2402.9</ele><time>2026-04-05T12:27:25.000Z</time></trkpt>
<trkpt lat="42.19813" lon="23.587551"><ele>2402.9</ele><time>2026-04-05T12:27:26.000Z</time></trkpt>
<trkpt lat="42.198129" lon="23.587551"><ele>2403</ele><time>2026-04-05T12:27:27.000Z</time></trkpt>
<trkpt lat="42.198129" lon="23.587552"><ele>2403</ele><time>2026-04-05T12:27:28.000Z</time></trkpt>
<trkpt lat="42.198128" lon="23.587553"><ele>2403</ele><time>2026-04-05T12:27:29.000Z</time></trkpt>
<trkpt lat="42.198127" lon="23.587554"><ele>2403</ele><time>2026-04-05T12:27:30.000Z</time></trkpt>
<trkpt lat="42.198127" lon="23.587554"><ele>2403</ele><time>2026-04-05T12:27:31.000Z</time></trkpt>
<trkpt lat="42.198127" lon="23.587555"><ele>2403.1</ele><time>2026-04-05T12:27:32.000Z</time></trkpt>
<trkpt lat="42.198127" lon="23.587555"><ele>2403.1</ele><time>2026-04-05T12:27:33.000Z</time></trkpt>
<trkpt lat="42.198126" lon="23.587556"><ele>2403.1</ele><time>2026-04-05T12:27:34.000Z</time></trkpt>
<trkpt lat="42.198126" lon="23.587556"><ele>2403.1</ele><time>2026-04-05T12:27:35.000Z</time></trkpt>
<trkpt lat="42.198126" lon="23.587556"><ele>2403.1</ele><time>2026-04-05T12:27:36.000Z</time></trkpt>
<trkpt lat="42.198126" lon="23.587556"><ele>2403.2</ele><time>2026-04-05T12:27:37.000Z</time></trkpt>
<trkpt lat="42.198126" lon="23.587556"><ele>2403.2</ele><time>2026-04-05T12:27:38.000Z</time></trkpt>
<trkpt lat="42.198126" lon="23.587556"><ele>2403.2</ele><time>2026-04-05T12:27:39.000Z</time></trkpt>
<trkpt lat="42.198126" lon="23.587556"><ele>2403.2</ele><time>2026-04-05T12:27:40.000Z</time></trkpt>
<trkpt lat="42.198126" lon="23.587556"><ele>2403.2</ele><time>2026-04-05T12:27:41.000Z</time></trkpt>
<trkpt lat="42.198126" lon="23.587556"><ele>2403.2</ele><time>2026-04-05T12:27:42.000Z</time></trkpt>
<trkpt lat="42.198127" lon="23.587556"><ele>2403.2</ele><time>2026-04-05T12:27:43.000Z</time></trkpt>
<trkpt lat="42.198127" lon="23.587556"><ele>2403.2</ele><time>2026-04-05T12:27:44.000Z</time></trkpt>
<trkpt lat="42.198127" lon="23.587557"><ele>2403.2</ele><time>2026-04-05T12:27:45.000Z</time></trkpt>
<trkpt lat="42.198128" lon="23.58756"><ele>2403.2</ele><time>2026-04-05T12:27:46.000Z</time></trkpt>
<trkpt lat="42.198129" lon="23.587563"><ele>2403.2</ele><time>2026-04-05T12:27:47.000Z</time></trkpt>
<trkpt lat="42.198129" lon="23.587566"><ele>2403.2</ele><time>2026-04-05T12:27:48.000Z</time></trkpt>
<trkpt lat="42.198129" lon="23.587569"><ele>2403.2</ele><time>2026-04-05T12:27:49.000Z</time></trkpt>
<trkpt lat="42.198128" lon="23.587571"><ele>2403.2</ele><time>2026-04-05T12:27:50.000Z</time></trkpt>
<trkpt lat="42.198126" lon="23.587572"><ele>2403.2</ele><time>2026-04-05T12:27:51.000Z</time></trkpt>
<trkpt lat="42.198125" lon="23.587571"><ele>2403.2</ele><time>2026-04-05T12:27:52.000Z</time></trkpt>
<trkpt lat="42.198125" lon="23.587571"><ele>2403.2</ele><time>2026-04-05T12:27:53.000Z</time></trkpt>
<trkpt lat="42.198124" lon="23.587572"><ele>2403.2</ele><time>2026-04-05T12:27:54.000Z</time></trkpt>
<trkpt lat="42.198123" lon="23.587571"><ele>2403.2</ele><time>2026-04-05T12:27:55.000Z</time></trkpt>
<trkpt lat="42.198122" lon="23.587571"><ele>2403.2</ele><time>2026-04-05T12:27:56.000Z</time></trkpt>
<trkpt lat="42.198122" lon="23.587572"><ele>2403.3</ele><time>2026-04-05T12:27:57.000Z</time></trkpt>
<trkpt lat="42.198121" lon="23.587572"><ele>2403.3</ele><time>2026-04-05T12:27:58.000Z</time></trkpt>
<trkpt lat="42.19812" lon="23.587573"><ele>2403.3</ele><time>2026-04-05T12:27:59.000Z</time></trkpt>
<trkpt lat="42.198119" lon="23.587573"><ele>2403.3</ele><time>2026-04-05T12:28:00.000Z</time></trkpt>
<trkpt lat="42.198118" lon="23.587573"><ele>2403.3</ele><time>2026-04-05T12:28:01.000Z</time></trkpt>
<trkpt lat="42.198118" lon="23.587573"><ele>2403.5</ele><time>2026-04-05T12:28:02.000Z</time></trkpt>
<trkpt lat="42.198117" lon="23.587575"><ele>2403.5</ele><time>2026-04-05T12:28:03.000Z</time></trkpt>
<trkpt lat="42.198118" lon="23.587577"><ele>2403.5</ele><time>2026-04-05T12:28:04.000Z</time></trkpt>
<trkpt lat="42.198119" lon="23.587578"><ele>2403.5</ele><time>2026-04-05T12:28:05.000Z</time></trkpt>
<trkpt lat="42.198119" lon="23.58758"><ele>2403.5</ele><time>2026-04-05T12:28:06.000Z</time></trkpt>
<trkpt lat="42.19812" lon="23.587582"><ele>2403.5</ele><time>2026-04-05T12:28:07.000Z</time></trkpt>
<trkpt lat="42.198121" lon="23.587583"><ele>2403.5</ele><time>2026-04-05T12:28:08.000Z</time></trkpt>
<trkpt lat="42.198121" lon="23.587582"><ele>2403.5</ele><time>2026-04-05T12:28:09.000Z</time></trkpt>
<trkpt lat="42.198122" lon="23.587582"><ele>2403.5</ele><time>2026-04-05T12:28:10.000Z</time></trkpt>
<trkpt lat="42.198123" lon="23.587582"><ele>2403.5</ele><time>2026-04-05T12:28:11.000Z</time></trkpt>
<trkpt lat="42.198123" lon="23.587583"><ele>2403.6</ele><time>2026-04-05T12:28:12.000Z</time></trkpt>
<trkpt lat="42.198124" lon="23.587583"><ele>2403.6</ele><time>2026-04-05T12:28:13.000Z</time></trkpt>
<trkpt lat="42.198124" lon="23.587583"><ele>2403.6</ele><time>2026-04-05T12:28:14.000Z</time></trkpt>
<trkpt lat="42.198124" lon="23.587584"><ele>2403.6</ele><time>2026-04-05T12:28:15.000Z</time></trkpt>
<trkpt lat="42.198123" lon="23.587584"><ele>2403.6</ele><time>2026-04-05T12:28:16.000Z</time></trkpt>
<trkpt lat="42.198122" lon="23.587584"><ele>2403.5</ele><time>2026-04-05T12:28:17.000Z</time></trkpt>
<trkpt lat="42.198121" lon="23.587584"><ele>2403.5</ele><time>2026-04-05T12:28:18.000Z</time></trkpt>
<trkpt lat="42.19812" lon="23.587584"><ele>2403.5</ele><time>2026-04-05T12:28:19.000Z</time></trkpt>
<trkpt lat="42.198119" lon="23.587584"><ele>2403.5</ele><time>2026-04-05T12:28:20.000Z</time></trkpt>
<trkpt lat="42.198119" lon="23.587584"><ele>2403.5</ele><time>2026-04-05T12:28:21.000Z</time></trkpt>
<trkpt lat="42.198119" lon="23.587584"><ele>2403.5</ele><time>2026-04-05T12:28:22.000Z</time></trkpt>
<trkpt lat="42.198119" lon="23.587584"><ele>2403.5</ele><time>2026-04-05T12:28:23.000Z</time></trkpt>
<trkpt lat="42.198119" lon="23.587584"><ele>2403.5</ele><time>2026-04-05T12:28:24.000Z</time></trkpt>
<trkpt lat="42.198119" lon="23.587584"><ele>2403.5</ele><time>2026-04-05T12:28:25.000Z</time></trkpt>
<trkpt lat="42.198119" lon="23.587584"><ele>2403.5</ele><time>2026-04-05T12:28:26.000Z</time></trkpt>
<trkpt lat="42.198119" lon="23.587584"><ele>2403.3</ele><time>2026-04-05T12:28:27.000Z</time></trkpt>
<trkpt lat="42.198119" lon="23.587584"><ele>2403.3</ele><time>2026-04-05T12:28:28.000Z</time></trkpt>
<trkpt lat="42.198118" lon="23.587585"><ele>2403.3</ele><time>2026-04-05T12:28:29.000Z</time></trkpt>
<trkpt lat="42.198117" lon="23.587587"><ele>2403.3</ele><time>2026-04-05T12:28:30.000Z</time></trkpt>
<trkpt lat="42.198117" lon="23.587591"><ele>2403.3</ele><time>2026-04-05T12:28:31.000Z</time></trkpt>
<trkpt lat="42.198116" lon="23.587597"><ele>2403.2</ele><time>2026-04-05T12:28:32.000Z</time></trkpt>
<trkpt lat="42.198116" lon="23.587603"><ele>2403.2</ele><time>2026-04-05T12:28:33.000Z</time></trkpt>
<trkpt lat="42.198116" lon="23.587607"><ele>2403.2</ele><time>2026-04-05T12:28:34.000Z</time></trkpt>
<trkpt lat="42.198114" lon="23.587613"><ele>2403.2</ele><time>2026-04-05T12:28:35.000Z</time></trkpt>
<trkpt lat="42.198112" lon="23.587617"><ele>2403.2</ele><time>2026-04-05T12:28:36.000Z</time></trkpt>
<trkpt lat="42.19811" lon="23.58762"><ele>2403.3</ele><time>2026-04-05T12:28:37.000Z</time></trkpt>
<trkpt lat="42.198109" lon="23.587625"><ele>2403.3</ele><time>2026-04-05T12:28:38.000Z</time></trkpt>
<trkpt lat="42.198112" lon="23.587632"><ele>2403.3</ele><time>2026-04-05T12:28:39.000Z</time></trkpt>
<trkpt lat="42.198116" lon="23.587639"><ele>2403.3</ele><time>2026-04-05T12:28:40.000Z</time></trkpt>
<trkpt lat="42.198124" lon="23.587648"><ele>2403.3</ele><time>2026-04-05T12:28:41.000Z</time></trkpt>
<trkpt lat="42.198133" lon="23.587657"><ele>2403.6</ele><time>2026-04-05T12:28:42.000Z</time></trkpt>
<trkpt lat="42.198143" lon="23.587667"><ele>2403.6</ele><time>2026-04-05T12:28:43.000Z</time></trkpt>
<trkpt lat="42.198153" lon="23.587677"><ele>2403.6</ele><time>2026-04-05T12:28:44.000Z</time></trkpt>
<trkpt lat="42.198163" lon="23.587686"><ele>2403.6</ele><time>2026-04-05T12:28:45.000Z</time></trkpt>
<trkpt lat="42.198173" lon="23.587693"><ele>2403.6</ele><time>2026-04-05T12:28:46.000Z</time></trkpt>
<trkpt lat="42.198182" lon="23.587701"><ele>2404.1</ele><time>2026-04-05T12:28:47.000Z</time></trkpt>
<trkpt lat="42.198191" lon="23.587708"><ele>2404.1</ele><time>2026-04-05T12:28:48.000Z</time></trkpt>
<trkpt lat="42.1982" lon="23.587715"><ele>2404.1</ele><time>2026-04-05T12:28:49.000Z</time></trkpt>
<trkpt lat="42.198209" lon="23.587722"><ele>2404.1</ele><time>2026-04-05T12:28:50.000Z</time></trkpt>
<trkpt lat="42.198218" lon="23.58773"><ele>2404.1</ele><time>2026-04-05T12:28:51.000Z</time></trkpt>
<trkpt lat="42.198226" lon="23.587737"><ele>2404.1</ele><time>2026-04-05T12:28:52.000Z</time></trkpt>
<trkpt lat="42.198235" lon="23.587745"><ele>2404.1</ele><time>2026-04-05T12:28:53.000Z</time></trkpt>
<trkpt lat="42.198242" lon="23.587752"><ele>2404.1</ele><time>2026-04-05T12:28:54.000Z</time></trkpt>
<trkpt lat="42.19825" lon="23.58776"><ele>2404.1</ele><time>2026-04-05T12:28:55.000Z</time></trkpt>
<trkpt lat="42.198258" lon="23.587769"><ele>2404.1</ele><time>2026-04-05T12:28:56.000Z</time></trkpt>
<trkpt lat="42.198266" lon="23.587779"><ele>2403.9</ele><time>2026-04-05T12:28:57.000Z</time></trkpt>
<trkpt lat="42.198275" lon="23.587789"><ele>2403.9</ele><time>2026-04-05T12:28:58.000Z</time></trkpt>
<trkpt lat="42.198284" lon="23.5878"><ele>2403.9</ele><time>2026-04-05T12:28:59.000Z</time></trkpt>
<trkpt lat="42.198292" lon="23.587812"><ele>2403.9</ele><time>2026-04-05T12:29:00.000Z</time></trkpt>
<trkpt lat="42.1983" lon="23.587824"><ele>2403.9</ele><time>2026-04-05T12:29:01.000Z</time></trkpt>
<trkpt lat="42.198308" lon="23.587836"><ele>2403</ele><time>2026-04-05T12:29:02.000Z</time></trkpt>
<trkpt lat="42.198316" lon="23.587847"><ele>2403</ele><time>2026-04-05T12:29:03.000Z</time></trkpt>
<trkpt lat="42.198324" lon="23.587858"><ele>2403</ele><time>2026-04-05T12:29:04.000Z</time></trkpt>
<trkpt lat="42.198333" lon="23.587869"><ele>2403</ele><time>2026-04-05T12:29:05.000Z</time></trkpt>
<trkpt lat="42.198341" lon="23.587879"><ele>2403</ele><time>2026-04-05T12:29:06.000Z</time></trkpt>
<trkpt lat="42.19835" lon="23.58789"><ele>2402.4</ele><time>2026-04-05T12:29:07.000Z</time></trkpt>
<trkpt lat="42.198359" lon="23.587902"><ele>2402.4</ele><time>2026-04-05T12:29:08.000Z</time></trkpt>
<trkpt lat="42.198368" lon="23.587913"><ele>2402.4</ele><time>2026-04-05T12:29:09.000Z</time></trkpt>
<trkpt lat="42.198376" lon="23.587923"><ele>2402.4</ele><time>2026-04-05T12:29:10.000Z</time></trkpt>
<trkpt lat="42.198384" lon="23.587932"><ele>2402.4</ele><time>2026-04-05T12:29:11.000Z</time></trkpt>
<trkpt lat="42.198391" lon="23.58794"><ele>2401</ele><time>2026-04-05T12:29:12.000Z</time></trkpt>
<trkpt lat="42.198398" lon="23.587949"><ele>2401</ele><time>2026-04-05T12:29:13.000Z</time></trkpt>
<trkpt lat="42.198406" lon="23.587957"><ele>2401</ele><time>2026-04-05T12:29:14.000Z</time></trkpt>
<trkpt lat="42.198413" lon="23.587967"><ele>2401</ele><time>2026-04-05T12:29:15.000Z</time></trkpt>
<trkpt lat="42.198421" lon="23.587977"><ele>2401</ele><time>2026-04-05T12:29:16.000Z</time></trkpt>
<trkpt lat="42.198429" lon="23.587986"><ele>2399.1</ele><time>2026-04-05T12:29:17.000Z</time></trkpt>
<trkpt lat="42.198436" lon="23.587996"><ele>2399.1</ele><time>2026-04-05T12:29:18.000Z</time></trkpt>
<trkpt lat="42.198444" lon="23.588006"><ele>2399.1</ele><time>2026-04-05T12:29:19.000Z</time></trkpt>
<trkpt lat="42.198451" lon="23.588016"><ele>2399.1</ele><time>2026-04-05T12:29:20.000Z</time></trkpt>
<trkpt lat="42.198459" lon="23.588026"><ele>2399.1</ele><time>2026-04-05T12:29:21.000Z</time></trkpt>
<trkpt lat="42.198467" lon="23.588037"><ele>2398.2</ele><time>2026-04-05T12:29:22.000Z</time></trkpt>
<trkpt lat="42.198475" lon="23.588048"><ele>2398.2</ele><time>2026-04-05T12:29:23.000Z</time></trkpt>
<trkpt lat="42.198484" lon="23.588059"><ele>2398.2</ele><time>2026-04-05T12:29:24.000Z</time></trkpt>
<trkpt lat="42.198493" lon="23.58807"><ele>2398.2</ele><time>2026-04-05T12:29:25.000Z</time></trkpt>
<trkpt lat="42.198502" lon="23.588081"><ele>2398.2</ele><time>2026-04-05T12:29:26.000Z</time></trkpt>
<trkpt lat="42.19851" lon="23.588092"><ele>2396.4</ele><time>2026-04-05T12:29:27.000Z</time></trkpt>
<trkpt lat="42.19852" lon="23.588103"><ele>2396.4</ele><time>2026-04-05T12:29:28.000Z</time></trkpt>
<trkpt lat="42.198528" lon="23.588114"><ele>2396.4</ele><time>2026-04-05T12:29:29.000Z</time></trkpt>
<trkpt lat="42.198538" lon="23.588124"><ele>2396.4</ele><time>2026-04-05T12:29:30.000Z</time></trkpt>
<trkpt lat="42.198547" lon="23.588132"><ele>2396.4</ele><time>2026-04-05T12:29:31.000Z</time></trkpt>
<trkpt lat="42.198556" lon="23.58814"><ele>2394.6</ele><time>2026-04-05T12:29:32.000Z</time></trkpt>
<trkpt lat="42.198565" lon="23.588148"><ele>2394.6</ele><time>2026-04-05T12:29:33.000Z</time></trkpt>
<trkpt lat="42.198575" lon="23.588157"><ele>2394.6</ele><time>2026-04-05T12:29:34.000Z</time></trkpt>
<trkpt lat="42.198584" lon="23.588167"><ele>2394.6</ele><time>2026-04-05T12:29:35.000Z</time></trkpt>
<trkpt lat="42.198593" lon="23.588179"><ele>2394.6</ele><time>2026-04-05T12:29:36.000Z</time></trkpt>
<trkpt lat="42.198602" lon="23.588191"><ele>2393.8</ele><time>2026-04-05T12:29:37.000Z</time></trkpt>
<trkpt lat="42.19861" lon="23.588202"><ele>2393.8</ele><time>2026-04-05T12:29:38.000Z</time></trkpt>
<trkpt lat="42.198619" lon="23.588212"><ele>2393.8</ele><time>2026-04-05T12:29:39.000Z</time></trkpt>
<trkpt lat="42.198628" lon="23.588221"><ele>2393.8</ele><time>2026-04-05T12:29:40.000Z</time></trkpt>
<trkpt lat="42.198637" lon="23.58823"><ele>2393.8</ele><time>2026-04-05T12:29:41.000Z</time></trkpt>
<trkpt lat="42.198645" lon="23.588239"><ele>2392.2</ele><time>2026-04-05T12:29:42.000Z</time></trkpt>
<trkpt lat="42.198654" lon="23.588249"><ele>2392.2</ele><time>2026-04-05T12:29:43.000Z</time></trkpt>
<trkpt lat="42.198664" lon="23.58826"><ele>2392.2</ele><time>2026-04-05T12:29:44.000Z</time></trkpt>
<trkpt lat="42.198673" lon="23.58827"><ele>2392.2</ele><time>2026-04-05T12:29:45.000Z</time></trkpt>
<trkpt lat="42.198683" lon="23.58828"><ele>2392.2</ele><time>2026-04-05T12:29:46.000Z</time></trkpt>
<trkpt lat="42.198694" lon="23.588291"><ele>2390.7</ele><time>2026-04-05T12:29:47.000Z</time></trkpt>
<trkpt lat="42.198704" lon="23.588301"><ele>2390.7</ele><time>2026-04-05T12:29:48.000Z</time></trkpt>
<trkpt lat="42.198714" lon="23.588311"><ele>2390.7</ele><time>2026-04-05T12:29:49.000Z</time></trkpt>
<trkpt lat="42.198722" lon="23.588321"><ele>2390.7</ele><time>2026-04-05T12:29:50.000Z</time></trkpt>
<trkpt lat="42.198731" lon="23.588331"><ele>2390.7</ele><time>2026-04-05T12:29:51.000Z</time></trkpt>
<trkpt lat="42.198739" lon="23.588342"><ele>2389.9</ele><time>2026-04-05T12:29:52.000Z</time></trkpt>
<trkpt lat="42.198747" lon="23.588353"><ele>2389.9</ele><time>2026-04-05T12:29:53.000Z</time></trkpt>
<trkpt lat="42.198755" lon="23.588363"><ele>2389.9</ele><time>2026-04-05T12:29:54.000Z</time></trkpt>
<trkpt lat="42.198764" lon="23.588374"><ele>2389.9</ele><time>2026-04-05T12:29:55.000Z</time></trkpt>
<trkpt lat="42.198774" lon="23.588385"><ele>2389.9</ele><time>2026-04-05T12:29:56.000Z</time></trkpt>
<trkpt lat="42.198785" lon="23.588395"><ele>2388.3</ele><time>2026-04-05T12:29:57.000Z</time></trkpt>
<trkpt lat="42.198795" lon="23.588404"><ele>2388.3</ele><time>2026-04-05T12:29:58.000Z</time></trkpt>
<trkpt lat="42.198806" lon="23.588413"><ele>2388.3</ele><time>2026-04-05T12:29:59.000Z</time></trkpt>
<trkpt lat="42.198816" lon="23.588421"><ele>2388.3</ele><time>2026-04-05T12:30:00.000Z</time></trkpt>
<trkpt lat="42.198825" lon="23.58843"><ele>2388.3</ele><time>2026-04-05T12:30:01.000Z</time></trkpt>
<trkpt lat="42.198834" lon="23.588437"><ele>2386.8</ele><time>2026-04-05T12:30:02.000Z</time></trkpt>
<trkpt lat="42.198843" lon="23.588446"><ele>2386.8</ele><time>2026-04-05T12:30:03.000Z</time></trkpt>
<trkpt lat="42.198851" lon="23.588455"><ele>2386.8</ele><time>2026-04-05T12:30:04.000Z</time></trkpt>
<trkpt lat="42.19886" lon="23.588465"><ele>2386.8</ele><time>2026-04-05T12:30:05.000Z</time></trkpt>
<trkpt lat="42.198869" lon="23.588475"><ele>2386.8</ele><time>2026-04-05T12:30:06.000Z</time></trkpt>
<trkpt lat="42.198878" lon="23.588486"><ele>2386.1</ele><time>2026-04-05T12:30:07.000Z</time></trkpt>
<trkpt lat="42.198889" lon="23.588496"><ele>2386.1</ele><time>2026-04-05T12:30:08.000Z</time></trkpt>
<trkpt lat="42.198899" lon="23.588506"><ele>2386.1</ele><time>2026-04-05T12:30:09.000Z</time></trkpt>
<trkpt lat="42.198909" lon="23.588516"><ele>2386.1</ele><time>2026-04-05T12:30:10.000Z</time></trkpt>
<trkpt lat="42.198919" lon="23.588525"><ele>2386.1</ele><time>2026-04-05T12:30:11.000Z</time></trkpt>
<trkpt lat="42.198929" lon="23.588534"><ele>2384.8</ele><time>2026-04-05T12:30:12.000Z</time></trkpt>
<trkpt lat="42.19894" lon="23.588545"><ele>2384.8</ele><time>2026-04-05T12:30:13.000Z</time></trkpt>
<trkpt lat="42.198949" lon="23.588556"><ele>2384.8</ele><time>2026-04-05T12:30:14.000Z</time></trkpt>
<trkpt lat="42.198959" lon="23.588566"><ele>2384.8</ele><time>2026-04-05T12:30:15.000Z</time></trkpt>
<trkpt lat="42.198968" lon="23.588578"><ele>2384.8</ele><time>2026-04-05T12:30:16.000Z</time></trkpt>
<trkpt lat="42.198976" lon="23.588591"><ele>2383.7</ele><time>2026-04-05T12:30:17.000Z</time></trkpt>
<trkpt lat="42.198983" lon="23.588603"><ele>2383.7</ele><time>2026-04-05T12:30:18.000Z</time></trkpt>
<trkpt lat="42.19899" lon="23.588615"><ele>2383.7</ele><time>2026-04-05T12:30:19.000Z</time></trkpt>
<trkpt lat="42.198997" lon="23.588627"><ele>2383.7</ele><time>2026-04-05T12:30:20.000Z</time></trkpt>
<trkpt lat="42.199004" lon="23.58864"><ele>2383.7</ele><time>2026-04-05T12:30:21.000Z</time></trkpt>
<trkpt lat="42.199011" lon="23.588652"><ele>2383.1</ele><time>2026-04-05T12:30:22.000Z</time></trkpt>
<trkpt lat="42.199018" lon="23.588665"><ele>2383.1</ele><time>2026-04-05T12:30:23.000Z</time></trkpt>
<trkpt lat="42.199024" lon="23.588678"><ele>2383.1</ele><time>2026-04-05T12:30:24.000Z</time></trkpt>
<trkpt lat="42.19903" lon="23.58869"><ele>2383.1</ele><time>2026-04-05T12:30:25.000Z</time></trkpt>
<trkpt lat="42.199035" lon="23.588702"><ele>2383.1</ele><time>2026-04-05T12:30:26.000Z</time></trkpt>
<trkpt lat="42.19904" lon="23.588714"><ele>2382</ele><time>2026-04-05T12:30:27.000Z</time></trkpt>
<trkpt lat="42.199046" lon="23.588726"><ele>2382</ele><time>2026-04-05T12:30:28.000Z</time></trkpt>
<trkpt lat="42.199052" lon="23.588738"><ele>2382</ele><time>2026-04-05T12:30:29.000Z</time></trkpt>
<trkpt lat="42.199059" lon="23.58875"><ele>2382</ele><time>2026-04-05T12:30:30.000Z</time></trkpt>
<trkpt lat="42.199065" lon="23.588762"><ele>2382</ele><time>2026-04-05T12:30:31.000Z</time></trkpt>
<trkpt lat="42.199072" lon="23.588772"><ele>2381.3</ele><time>2026-04-05T12:30:32.000Z</time></trkpt>
<trkpt lat="42.199079" lon="23.588784"><ele>2381.3</ele><time>2026-04-05T12:30:33.000Z</time></trkpt>
<trkpt lat="42.199086" lon="23.588796"><ele>2381.3</ele><time>2026-04-05T12:30:34.000Z</time></trkpt>
<trkpt lat="42.199092" lon="23.58881"><ele>2381.3</ele><time>2026-04-05T12:30:35.000Z</time></trkpt>
<trkpt lat="42.199098" lon="23.588823"><ele>2381.3</ele><time>2026-04-05T12:30:36.000Z</time></trkpt>
<trkpt lat="42.199104" lon="23.588836"><ele>2380.9</ele><time>2026-04-05T12:30:37.000Z</time></trkpt>
<trkpt lat="42.199109" lon="23.58885"><ele>2380.9</ele><time>2026-04-05T12:30:38.000Z</time></trkpt>
<trkpt lat="42.199113" lon="23.588862"><ele>2380.9</ele><time>2026-04-05T12:30:39.000Z</time></trkpt>
<trkpt lat="42.199118" lon="23.588873"><ele>2380.9</ele><time>2026-04-05T12:30:40.000Z</time></trkpt>
<trkpt lat="42.199123" lon="23.588884"><ele>2380.9</ele><time>2026-04-05T12:30:41.000Z</time></trkpt>
<trkpt lat="42.199128" lon="23.588895"><ele>2380</ele><time>2026-04-05T12:30:42.000Z</time></trkpt>
<trkpt lat="42.199132" lon="23.588905"><ele>2380</ele><time>2026-04-05T12:30:43.000Z</time></trkpt>
<trkpt lat="42.199138" lon="23.588916"><ele>2380</ele><time>2026-04-05T12:30:44.000Z</time></trkpt>
<trkpt lat="42.199144" lon="23.588927"><ele>2380</ele><time>2026-04-05T12:30:45.000Z</time></trkpt>
<trkpt lat="42.19915" lon="23.588939"><ele>2380</ele><time>2026-04-05T12:30:46.000Z</time></trkpt>
<trkpt lat="42.199157" lon="23.588951"><ele>2378.9</ele><time>2026-04-05T12:30:47.000Z</time></trkpt>
<trkpt lat="42.199163" lon="23.588962"><ele>2378.9</ele><time>2026-04-05T12:30:48.000Z</time></trkpt>
<trkpt lat="42.199169" lon="23.588974"><ele>2378.9</ele><time>2026-04-05T12:30:49.000Z</time></trkpt>
<trkpt lat="42.199175" lon="23.588985"><ele>2378.9</ele><time>2026-04-05T12:30:50.000Z</time></trkpt>
<trkpt lat="42.19918" lon="23.588997"><ele>2378.9</ele><time>2026-04-05T12:30:51.000Z</time></trkpt>
<trkpt lat="42.199185" lon="23.589008"><ele>2378.4</ele><time>2026-04-05T12:30:52.000Z</time></trkpt>
<trkpt lat="42.199191" lon="23.589019"><ele>2378.4</ele><time>2026-04-05T12:30:53.000Z</time></trkpt>
<trkpt lat="42.199195" lon="23.589031"><ele>2378.4</ele><time>2026-04-05T12:30:54.000Z</time></trkpt>
<trkpt lat="42.1992" lon="23.589042"><ele>2378.4</ele><time>2026-04-05T12:30:55.000Z</time></trkpt>
<trkpt lat="42.199204" lon="23.589052"><ele>2378.4</ele><time>2026-04-05T12:30:56.000Z</time></trkpt>
<trkpt lat="42.199208" lon="23.589064"><ele>2377</ele><time>2026-04-05T12:30:57.000Z</time></trkpt>
<trkpt lat="42.199212" lon="23.589077"><ele>2377</ele><time>2026-04-05T12:30:58.000Z</time></trkpt>
<trkpt lat="42.199217" lon="23.58909"><ele>2377</ele><time>2026-04-05T12:30:59.000Z</time></trkpt>
<trkpt lat="42.199223" lon="23.589102"><ele>2377</ele><time>2026-04-05T12:31:00.000Z</time></trkpt>
<trkpt lat="42.199229" lon="23.589114"><ele>2377</ele><time>2026-04-05T12:31:01.000Z</time></trkpt>
<trkpt lat="42.199234" lon="23.589127"><ele>2375.3</ele><time>2026-04-05T12:31:02.000Z</time></trkpt>
<trkpt lat="42.199239" lon="23.589138"><ele>2375.3</ele><time>2026-04-05T12:31:03.000Z</time></trkpt>
<trkpt lat="42.199244" lon="23.589149"><ele>2375.3</ele><time>2026-04-05T12:31:04.000Z</time></trkpt>
<trkpt lat="42.199249" lon="23.589161"><ele>2375.3</ele><time>2026-04-05T12:31:05.000Z</time></trkpt>
<trkpt lat="42.199254" lon="23.589171"><ele>2375.3</ele><time>2026-04-05T12:31:06.000Z</time></trkpt>
<trkpt lat="42.19926" lon="23.589182"><ele>2374.3</ele><time>2026-04-05T12:31:07.000Z</time></trkpt>
<trkpt lat="42.199266" lon="23.589193"><ele>2374.3</ele><time>2026-04-05T12:31:08.000Z</time></trkpt>
<trkpt lat="42.199273" lon="23.589205"><ele>2374.3</ele><time>2026-04-05T12:31:09.000Z</time></trkpt>
<trkpt lat="42.199279" lon="23.589217"><ele>2374.3</ele><time>2026-04-05T12:31:10.000Z</time></trkpt>
<trkpt lat="42.199284" lon="23.589229"><ele>2374.3</ele><time>2026-04-05T12:31:11.000Z</time></trkpt>
<trkpt lat="42.19929" lon="23.589242"><ele>2372.5</ele><time>2026-04-05T12:31:12.000Z</time></trkpt>
<trkpt lat="42.199296" lon="23.589256"><ele>2372.5</ele><time>2026-04-05T12:31:13.000Z</time></trkpt>
<trkpt lat="42.199301" lon="23.589268"><ele>2372.5</ele><time>2026-04-05T12:31:14.000Z</time></trkpt>
<trkpt lat="42.199308" lon="23.589281"><ele>2372.5</ele><time>2026-04-05T12:31:15.000Z</time></trkpt>
<trkpt lat="42.199315" lon="23.589292"><ele>2372.5</ele><time>2026-04-05T12:31:16.000Z</time></trkpt>
<trkpt lat="42.199322" lon="23.589304"><ele>2370.6</ele><time>2026-04-05T12:31:17.000Z</time></trkpt>
<trkpt lat="42.199329" lon="23.589315"><ele>2370.6</ele><time>2026-04-05T12:31:18.000Z</time></trkpt>
<trkpt lat="42.199337" lon="23.589326"><ele>2370.6</ele><time>2026-04-05T12:31:19.000Z</time></trkpt>
<trkpt lat="42.199344" lon="23.589338"><ele>2370.6</ele><time>2026-04-05T12:31:20.000Z</time></trkpt>
<trkpt lat="42.19935" lon="23.58935"><ele>2370.6</ele><time>2026-04-05T12:31:21.000Z</time></trkpt>
<trkpt lat="42.199356" lon="23.589361"><ele>2369.6</ele><time>2026-04-05T12:31:22.000Z</time></trkpt>
<trkpt lat="42.199363" lon="23.589372"><ele>2369.6</ele><time>2026-04-05T12:31:23.000Z</time></trkpt>
<trkpt lat="42.199369" lon="23.589383"><ele>2369.6</ele><time>2026-04-05T12:31:24.000Z</time></trkpt>
<trkpt lat="42.199375" lon="23.589395"><ele>2369.6</ele><time>2026-04-05T12:31:25.000Z</time></trkpt>
<trkpt lat="42.199382" lon="23.589406"><ele>2369.6</ele><time>2026-04-05T12:31:26.000Z</time></trkpt>
<trkpt lat="42.19939" lon="23.589418"><ele>2367.5</ele><time>2026-04-05T12:31:27.000Z</time></trkpt>
<trkpt lat="42.199397" lon="23.58943"><ele>2367.5</ele><time>2026-04-05T12:31:28.000Z</time></trkpt>
<trkpt lat="42.199405" lon="23.589443"><ele>2367.5</ele><time>2026-04-05T12:31:29.000Z</time></trkpt>
<trkpt lat="42.199412" lon="23.589455"><ele>2367.5</ele><time>2026-04-05T12:31:30.000Z</time></trkpt>
<trkpt lat="42.19942" lon="23.589467"><ele>2367.5</ele><time>2026-04-05T12:31:31.000Z</time></trkpt>
<trkpt lat="42.199428" lon="23.589479"><ele>2365.6</ele><time>2026-04-05T12:31:32.000Z</time></trkpt>
<trkpt lat="42.199436" lon="23.589491"><ele>2365.6</ele><time>2026-04-05T12:31:33.000Z</time></trkpt>
<trkpt lat="42.199444" lon="23.589502"><ele>2365.6</ele><time>2026-04-05T12:31:34.000Z</time></trkpt>
<trkpt lat="42.199452" lon="23.589513"><ele>2365.6</ele><time>2026-04-05T12:31:35.000Z</time></trkpt>
<trkpt lat="42.199461" lon="23.589524"><ele>2365.6</ele><time>2026-04-05T12:31:36.000Z</time></trkpt>
<trkpt lat="42.199469" lon="23.589535"><ele>2364.8</ele><time>2026-04-05T12:31:37.000Z</time></trkpt>
<trkpt lat="42.199477" lon="23.589545"><ele>2364.8</ele><time>2026-04-05T12:31:38.000Z</time></trkpt>
<trkpt lat="42.199484" lon="23.589557"><ele>2364.8</ele><time>2026-04-05T12:31:39.000Z</time></trkpt>
<trkpt lat="42.19949" lon="23.589568"><ele>2364.8</ele><time>2026-04-05T12:31:40.000Z</time></trkpt>
<trkpt lat="42.199497" lon="23.589579"><ele>2364.8</ele><time>2026-04-05T12:31:41.000Z</time></trkpt>
<trkpt lat="42.199503" lon="23.589591"><ele>2363.3</ele><time>2026-04-05T12:31:42.000Z</time></trkpt>
<trkpt lat="42.19951" lon="23.589602"><ele>2363.3</ele><time>2026-04-05T12:31:43.000Z</time></trkpt>
<trkpt lat="42.199517" lon="23.589612"><ele>2363.3</ele><time>2026-04-05T12:31:44.000Z</time></trkpt>
<trkpt lat="42.199525" lon="23.589623"><ele>2363.3</ele><time>2026-04-05T12:31:45.000Z</time></trkpt>
<trkpt lat="42.199534" lon="23.589633"><ele>2363.3</ele><time>2026-04-05T12:31:46.000Z</time></trkpt>
<trkpt lat="42.199542" lon="23.589642"><ele>2361.8</ele><time>2026-04-05T12:31:47.000Z</time></trkpt>
<trkpt lat="42.19955" lon="23.589652"><ele>2361.8</ele><time>2026-04-05T12:31:48.000Z</time></trkpt>
<trkpt lat="42.199559" lon="23.589661"><ele>2361.8</ele><time>2026-04-05T12:31:49.000Z</time></trkpt>
<trkpt lat="42.199568" lon="23.589669"><ele>2361.8</ele><time>2026-04-05T12:31:50.000Z</time></trkpt>
<trkpt lat="42.199578" lon="23.589678"><ele>2361.8</ele><time>2026-04-05T12:31:51.000Z</time></trkpt>
<trkpt lat="42.199589" lon="23.589686"><ele>2361</ele><time>2026-04-05T12:31:52.000Z</time></trkpt>
<trkpt lat="42.1996" lon="23.589694"><ele>2361</ele><time>2026-04-05T12:31:53.000Z</time></trkpt>
<trkpt lat="42.199611" lon="23.589701"><ele>2361</ele><time>2026-04-05T12:31:54.000Z</time></trkpt>
<trkpt lat="42.199623" lon="23.589708"><ele>2361</ele><time>2026-04-05T12:31:55.000Z</time></trkpt>
<trkpt lat="42.199635" lon="23.589715"><ele>2361</ele><time>2026-04-05T12:31:56.000Z</time></trkpt>
<trkpt lat="42.199645" lon="23.589722"><ele>2359.4</ele><time>2026-04-05T12:31:57.000Z</time></trkpt>
<trkpt lat="42.199655" lon="23.589728"><ele>2359.4</ele><time>2026-04-05T12:31:58.000Z</time></trkpt>
<trkpt lat="42.199665" lon="23.589735"><ele>2359.4</ele><time>2026-04-05T12:31:59.000Z</time></trkpt>
<trkpt lat="42.199674" lon="23.589742"><ele>2359.4</ele><time>2026-04-05T12:32:00.000Z</time></trkpt>
<trkpt lat="42.199682" lon="23.589749"><ele>2359.4</ele><time>2026-04-05T12:32:01.000Z</time></trkpt>
<trkpt lat="42.199691" lon="23.589756"><ele>2357.9</ele><time>2026-04-05T12:32:02.000Z</time></trkpt>
<trkpt lat="42.1997" lon="23.589763"><ele>2357.9</ele><time>2026-04-05T12:32:03.000Z</time></trkpt>
<trkpt lat="42.199708" lon="23.589769"><ele>2357.9</ele><time>2026-04-05T12:32:04.000Z</time></trkpt>
<trkpt lat="42.199717" lon="23.589775"><ele>2357.9</ele><time>2026-04-05T12:32:05.000Z</time></trkpt>
<trkpt lat="42.199726" lon="23.589782"><ele>2357.9</ele><time>2026-04-05T12:32:06.000Z</time></trkpt>
<trkpt lat="42.199734" lon="23.589788"><ele>2357.2</ele><time>2026-04-05T12:32:07.000Z</time></trkpt>
<trkpt lat="42.199742" lon="23.589793"><ele>2357.2</ele><time>2026-04-05T12:32:08.000Z</time></trkpt>
<trkpt lat="42.19975" lon="23.589798"><ele>2357.2</ele><time>2026-04-05T12:32:09.000Z</time></trkpt>
<trkpt lat="42.199758" lon="23.589803"><ele>2357.2</ele><time>2026-04-05T12:32:10.000Z</time></trkpt>
<trkpt lat="42.199766" lon="23.589809"><ele>2357.2</ele><time>2026-04-05T12:32:11.000Z</time></trkpt>
<trkpt lat="42.199774" lon="23.589816"><ele>2356.1</ele><time>2026-04-05T12:32:12.000Z</time></trkpt>
<trkpt lat="42.199783" lon="23.589825"><ele>2356.1</ele><time>2026-04-05T12:32:13.000Z</time></trkpt>
<trkpt lat="42.199792" lon="23.589834"><ele>2356.1</ele><time>2026-04-05T12:32:14.000Z</time></trkpt>
<trkpt lat="42.1998" lon="23.589843"><ele>2356.1</ele><time>2026-04-05T12:32:15.000Z</time></trkpt>
<trkpt lat="42.199808" lon="23.589852"><ele>2356.1</ele><time>2026-04-05T12:32:16.000Z</time></trkpt>
<trkpt lat="42.199817" lon="23.58986"><ele>2355.3</ele><time>2026-04-05T12:32:17.000Z</time></trkpt>
<trkpt lat="42.199827" lon="23.589867"><ele>2355.3</ele><time>2026-04-05T12:32:18.000Z</time></trkpt>
<trkpt lat="42.199837" lon="23.589875"><ele>2355.3</ele><time>2026-04-05T12:32:19.000Z</time></trkpt>
<trkpt lat="42.199847" lon="23.589883"><ele>2355.3</ele><time>2026-04-05T12:32:20.000Z</time></trkpt>
<trkpt lat="42.199857" lon="23.589891"><ele>2355.3</ele><time>2026-04-05T12:32:21.000Z</time></trkpt>
<trkpt lat="42.199866" lon="23.589899"><ele>2355</ele><time>2026-04-05T12:32:22.000Z</time></trkpt>
<trkpt lat="42.199875" lon="23.589907"><ele>2355</ele><time>2026-04-05T12:32:23.000Z</time></trkpt>
<trkpt lat="42.199884" lon="23.589916"><ele>2355</ele><time>2026-04-05T12:32:24.000Z</time></trkpt>
<trkpt lat="42.199892" lon="23.589924"><ele>2355</ele><time>2026-04-05T12:32:25.000Z</time></trkpt>
<trkpt lat="42.199901" lon="23.589931"><ele>2355</ele><time>2026-04-05T12:32:26.000Z</time></trkpt>
<trkpt lat="42.19991" lon="23.589938"><ele>2354.7</ele><time>2026-04-05T12:32:27.000Z</time></trkpt>
<trkpt lat="42.199918" lon="23.589945"><ele>2354.7</ele><time>2026-04-05T12:32:28.000Z</time></trkpt>
<trkpt lat="42.199927" lon="23.589951"><ele>2354.7</ele><time>2026-04-05T12:32:29.000Z</time></trkpt>
<trkpt lat="42.199936" lon="23.589958"><ele>2354.7</ele><time>2026-04-05T12:32:30.000Z</time></trkpt>
<trkpt lat="42.199944" lon="23.589966"><ele>2354.7</ele><time>2026-04-05T12:32:31.000Z</time></trkpt>
<trkpt lat="42.199952" lon="23.589973"><ele>2354</ele><time>2026-04-05T12:32:32.000Z</time></trkpt>
<trkpt lat="42.199961" lon="23.589979"><ele>2354</ele><time>2026-04-05T12:32:33.000Z</time></trkpt>
<trkpt lat="42.19997" lon="23.589984"><ele>2354</ele><time>2026-04-05T12:32:34.000Z</time></trkpt>
<trkpt lat="42.19998" lon="23.589989"><ele>2354</ele><time>2026-04-05T12:32:35.000Z</time></trkpt>
<trkpt lat="42.19999" lon="23.589993"><ele>2354</ele><time>2026-04-05T12:32:36.000Z</time></trkpt>
<trkpt lat="42.200001" lon="23.589997"><ele>2353.5</ele><time>2026-04-05T12:32:37.000Z</time></trkpt>
<trkpt lat="42.200013" lon="23.590001"><ele>2353.5</ele><time>2026-04-05T12:32:38.000Z</time></trkpt>
<trkpt lat="42.200024" lon="23.590005"><ele>2353.5</ele><time>2026-04-05T12:32:39.000Z</time></trkpt>
<trkpt lat="42.200035" lon="23.59001"><ele>2353.5</ele><time>2026-04-05T12:32:40.000Z</time></trkpt>
<trkpt lat="42.200045" lon="23.590013"><ele>2353.5</ele><time>2026-04-05T12:32:41.000Z</time></trkpt>
<trkpt lat="42.200056" lon="23.590016"><ele>2352.3</ele><time>2026-04-05T12:32:42.000Z</time></trkpt>
<trkpt lat="42.200066" lon="23.590018"><ele>2352.3</ele><time>2026-04-05T12:32:43.000Z</time></trkpt>
<trkpt lat="42.200076" lon="23.590022"><ele>2352.3</ele><time>2026-04-05T12:32:44.000Z</time></trkpt>
<trkpt lat="42.200087" lon="23.590026"><ele>2352.3</ele><time>2026-04-05T12:32:45.000Z</time></trkpt>
<trkpt lat="42.200098" lon="23.590031"><ele>2352.3</ele><time>2026-04-05T12:32:46.000Z</time></trkpt>
<trkpt lat="42.200108" lon="23.590036"><ele>2351.2</ele><time>2026-04-05T12:32:47.000Z</time></trkpt>
<trkpt lat="42.200119" lon="23.590042"><ele>2351.2</ele><time>2026-04-05T12:32:48.000Z</time></trkpt>
<trkpt lat="42.200129" lon="23.590048"><ele>2351.2</ele><time>2026-04-05T12:32:49.000Z</time></trkpt>
<trkpt lat="42.20014" lon="23.590054"><ele>2351.2</ele><time>2026-04-05T12:32:50.000Z</time></trkpt>
<trkpt lat="42.200151" lon="23.590062"><ele>2351.2</ele><time>2026-04-05T12:32:51.000Z</time></trkpt>
<trkpt lat="42.200162" lon="23.590069"><ele>2350.7</ele><time>2026-04-05T12:32:52.000Z</time></trkpt>
<trkpt lat="42.200174" lon="23.590076"><ele>2350.7</ele><time>2026-04-05T12:32:53.000Z</time></trkpt>
<trkpt lat="42.200185" lon="23.590083"><ele>2350.7</ele><time>2026-04-05T12:32:54.000Z</time></trkpt>
<trkpt lat="42.200195" lon="23.590091"><ele>2350.7</ele><time>2026-04-05T12:32:55.000Z</time></trkpt>
<trkpt lat="42.200205" lon="23.590098"><ele>2350.7</ele><time>2026-04-05T12:32:56.000Z</time></trkpt>
<trkpt lat="42.200215" lon="23.590105"><ele>2349.6</ele><time>2026-04-05T12:32:57.000Z</time></trkpt>
<trkpt lat="42.200225" lon="23.590111"><ele>2349.6</ele><time>2026-04-05T12:32:58.000Z</time></trkpt>
<trkpt lat="42.200235" lon="23.590116"><ele>2349.6</ele><time>2026-04-05T12:32:59.000Z</time></trkpt>
<trkpt lat="42.200246" lon="23.590121"><ele>2349.6</ele><time>2026-04-05T12:33:00.000Z</time></trkpt>
<trkpt lat="42.200257" lon="23.590126"><ele>2349.6</ele><time>2026-04-05T12:33:01.000Z</time></trkpt>
<trkpt lat="42.200268" lon="23.590131"><ele>2348.4</ele><time>2026-04-05T12:33:02.000Z</time></trkpt>
<trkpt lat="42.200279" lon="23.590136"><ele>2348.4</ele><time>2026-04-05T12:33:03.000Z</time></trkpt>
<trkpt lat="42.20029" lon="23.590141"><ele>2348.4</ele><time>2026-04-05T12:33:04.000Z</time></trkpt>
<trkpt lat="42.200301" lon="23.590147"><ele>2348.4</ele><time>2026-04-05T12:33:05.000Z</time></trkpt>
<trkpt lat="42.200312" lon="23.590152"><ele>2348.4</ele><time>2026-04-05T12:33:06.000Z</time></trkpt>
<trkpt lat="42.200321" lon="23.590157"><ele>2347.8</ele><time>2026-04-05T12:33:07.000Z</time></trkpt>
<trkpt lat="42.200331" lon="23.590163"><ele>2347.8</ele><time>2026-04-05T12:33:08.000Z</time></trkpt>
<trkpt lat="42.20034" lon="23.590169"><ele>2347.8</ele><time>2026-04-05T12:33:09.000Z</time></trkpt>
<trkpt lat="42.200348" lon="23.590175"><ele>2347.8</ele><time>2026-04-05T12:33:10.000Z</time></trkpt>
<trkpt lat="42.200355" lon="23.590181"><ele>2347.8</ele><time>2026-04-05T12:33:11.000Z</time></trkpt>
<trkpt lat="42.200363" lon="23.590187"><ele>2346.6</ele><time>2026-04-05T12:33:12.000Z</time></trkpt>
<trkpt lat="42.20037" lon="23.590192"><ele>2346.6</ele><time>2026-04-05T12:33:13.000Z</time></trkpt>
<trkpt lat="42.200377" lon="23.590198"><ele>2346.6</ele><time>2026-04-05T12:33:14.000Z</time></trkpt>
<trkpt lat="42.200387" lon="23.590203"><ele>2346.6</ele><time>2026-04-05T12:33:15.000Z</time></trkpt>
<trkpt lat="42.200396" lon="23.590209"><ele>2346.6</ele><time>2026-04-05T12:33:16.000Z</time></trkpt>
<trkpt lat="42.200406" lon="23.590215"><ele>2345.4</ele><time>2026-04-05T12:33:17.000Z</time></trkpt>
<trkpt lat="42.200417" lon="23.59022"><ele>2345.4</ele><time>2026-04-05T12:33:18.000Z</time></trkpt>
<trkpt lat="42.200427" lon="23.590226"><ele>2345.4</ele><time>2026-04-05T12:33:19.000Z</time></trkpt>
<trkpt lat="42.200438" lon="23.590232"><ele>2345.4</ele><time>2026-04-05T12:33:20.000Z</time></trkpt>
<trkpt lat="42.200449" lon="23.59024"><ele>2345.4</ele><time>2026-04-05T12:33:21.000Z</time></trkpt>
<trkpt lat="42.200459" lon="23.590248"><ele>2344.8</ele><time>2026-04-05T12:33:22.000Z</time></trkpt>
<trkpt lat="42.200469" lon="23.590256"><ele>2344.8</ele><time>2026-04-05T12:33:23.000Z</time></trkpt>
<trkpt lat="42.200479" lon="23.590265"><ele>2344.8</ele><time>2026-04-05T12:33:24.000Z</time></trkpt>
<trkpt lat="42.200488" lon="23.590272"><ele>2344.8</ele><time>2026-04-05T12:33:25.000Z</time></trkpt>
<trkpt lat="42.200496" lon="23.590279"><ele>2344.8</ele><time>2026-04-05T12:33:26.000Z</time></trkpt>
<trkpt lat="42.200504" lon="23.590286"><ele>2343.6</ele><time>2026-04-05T12:33:27.000Z</time></trkpt>
<trkpt lat="42.200512" lon="23.590292"><ele>2343.6</ele><time>2026-04-05T12:33:28.000Z</time></trkpt>
<trkpt lat="42.200521" lon="23.590297"><ele>2343.6</ele><time>2026-04-05T12:33:29.000Z</time></trkpt>
<trkpt lat="42.20053" lon="23.590305"><ele>2343.6</ele><time>2026-04-05T12:33:30.000Z</time></trkpt>
<trkpt lat="42.200539" lon="23.590312"><ele>2343.6</ele><time>2026-04-05T12:33:31.000Z</time></trkpt>
<trkpt lat="42.200547" lon="23.590317"><ele>2342.2</ele><time>2026-04-05T12:33:32.000Z</time></trkpt>
<trkpt lat="42.200556" lon="23.590322"><ele>2342.2</ele><time>2026-04-05T12:33:33.000Z</time></trkpt>
<trkpt lat="42.200564" lon="23.590327"><ele>2342.2</ele><time>2026-04-05T12:33:34.000Z</time></trkpt>
<trkpt lat="42.200573" lon="23.590331"><ele>2342.2</ele><time>2026-04-05T12:33:35.000Z</time></trkpt>
<trkpt lat="42.200582" lon="23.590336"><ele>2342.2</ele><time>2026-04-05T12:33:36.000Z</time></trkpt>
<trkpt lat="42.200592" lon="23.590342"><ele>2341.6</ele><time>2026-04-05T12:33:37.000Z</time></trkpt>
<trkpt lat="42.200601" lon="23.590349"><ele>2341.6</ele><time>2026-04-05T12:33:38.000Z</time></trkpt>
<trkpt lat="42.20061" lon="23.590355"><ele>2341.6</ele><time>2026-04-05T12:33:39.000Z</time></trkpt>
<trkpt lat="42.20062" lon="23.590362"><ele>2341.6</ele><time>2026-04-05T12:33:40.000Z</time></trkpt>
<trkpt lat="42.20063" lon="23.590369"><ele>2341.6</ele><time>2026-04-05T12:33:41.000Z</time></trkpt>
<trkpt lat="42.200639" lon="23.590376"><ele>2340.2</ele><time>2026-04-05T12:33:42.000Z</time></trkpt>
<trkpt lat="42.20065" lon="23.590383"><ele>2340.2</ele><time>2026-04-05T12:33:43.000Z</time></trkpt>
<trkpt lat="42.20066" lon="23.590389"><ele>2340.2</ele><time>2026-04-05T12:33:44.000Z</time></trkpt>
<trkpt lat="42.200671" lon="23.590396"><ele>2340.2</ele><time>2026-04-05T12:33:45.000Z</time></trkpt>
<trkpt lat="42.200682" lon="23.590402"><ele>2340.2</ele><time>2026-04-05T12:33:46.000Z</time></trkpt>
<trkpt lat="42.200693" lon="23.59041"><ele>2338.9</ele><time>2026-04-05T12:33:47.000Z</time></trkpt>
<trkpt lat="42.200704" lon="23.590418"><ele>2338.9</ele><time>2026-04-05T12:33:48.000Z</time></trkpt>
<trkpt lat="42.200715" lon="23.590425"><ele>2338.9</ele><time>2026-04-05T12:33:49.000Z</time></trkpt>
<trkpt lat="42.200726" lon="23.590433"><ele>2338.9</ele><time>2026-04-05T12:33:50.000Z</time></trkpt>
<trkpt lat="42.200736" lon="23.590441"><ele>2338.9</ele><time>2026-04-05T12:33:51.000Z</time></trkpt>
<trkpt lat="42.200746" lon="23.590446"><ele>2338.1</ele><time>2026-04-05T12:33:52.000Z</time></trkpt>
<trkpt lat="42.200756" lon="23.590452"><ele>2338.1</ele><time>2026-04-05T12:33:53.000Z</time></trkpt>
<trkpt lat="42.200764" lon="23.590457"><ele>2338.1</ele><time>2026-04-05T12:33:54.000Z</time></trkpt>
<trkpt lat="42.200771" lon="23.59046"><ele>2338.1</ele><time>2026-04-05T12:33:55.000Z</time></trkpt>
<trkpt lat="42.200775" lon="23.590462"><ele>2338.1</ele><time>2026-04-05T12:33:56.000Z</time></trkpt>
<trkpt lat="42.200778" lon="23.590464"><ele>2336.6</ele><time>2026-04-05T12:33:57.000Z</time></trkpt>
<trkpt lat="42.200778" lon="23.590465"><ele>2336.6</ele><time>2026-04-05T12:33:58.000Z</time></trkpt>
<trkpt lat="42.200777" lon="23.590466"><ele>2336.6</ele><time>2026-04-05T12:33:59.000Z</time></trkpt>
<trkpt lat="42.200776" lon="23.590468"><ele>2336.6</ele><time>2026-04-05T12:34:00.000Z</time></trkpt>
<trkpt lat="42.200774" lon="23.59047"><ele>2336.6</ele><time>2026-04-05T12:34:01.000Z</time></trkpt>
<trkpt lat="42.200773" lon="23.590472"><ele>2335.3</ele><time>2026-04-05T12:34:02.000Z</time></trkpt>
<trkpt lat="42.200773" lon="23.590474"><ele>2335.3</ele><time>2026-04-05T12:34:03.000Z</time></trkpt>
<trkpt lat="42.200776" lon="23.590476"><ele>2335.3</ele><time>2026-04-05T12:34:04.000Z</time></trkpt>
<trkpt lat="42.200781" lon="23.590478"><ele>2335.3</ele><time>2026-04-05T12:34:05.000Z</time></trkpt>
<trkpt lat="42.200789" lon="23.590481"><ele>2335.3</ele><time>2026-04-05T12:34:06.000Z</time></trkpt>
<trkpt lat="42.200798" lon="23.590486"><ele>2334.7</ele><time>2026-04-05T12:34:07.000Z</time></trkpt>
<trkpt lat="42.200807" lon="23.590492"><ele>2334.7</ele><time>2026-04-05T12:34:08.000Z</time></trkpt>
<trkpt lat="42.200818" lon="23.590498"><ele>2334.7</ele><time>2026-04-05T12:34:09.000Z</time></trkpt>
<trkpt lat="42.200828" lon="23.590502"><ele>2334.7</ele><time>2026-04-05T12:34:10.000Z</time></trkpt>
<trkpt lat="42.200837" lon="23.590507"><ele>2334.7</ele><time>2026-04-05T12:34:11.000Z</time></trkpt>
<trkpt lat="42.200847" lon="23.59051"><ele>2333.9</ele><time>2026-04-05T12:34:12.000Z</time></trkpt>
<trkpt lat="42.200857" lon="23.590514"><ele>2333.9</ele><time>2026-04-05T12:34:13.000Z</time></trkpt>
<trkpt lat="42.200866" lon="23.590518"><ele>2333.9</ele><time>2026-04-05T12:34:14.000Z</time></trkpt>
<trkpt lat="42.200876" lon="23.590521"><ele>2333.9</ele><time>2026-04-05T12:34:15.000Z</time></trkpt>
<trkpt lat="42.200885" lon="23.590526"><ele>2333.9</ele><time>2026-04-05T12:34:16.000Z</time></trkpt>
<trkpt lat="42.200895" lon="23.59053"><ele>2333.3</ele><time>2026-04-05T12:34:17.000Z</time></trkpt>
<trkpt lat="42.200903" lon="23.590534"><ele>2333.3</ele><time>2026-04-05T12:34:18.000Z</time></trkpt>
<trkpt lat="42.200911" lon="23.590537"><ele>2333.3</ele><time>2026-04-05T12:34:19.000Z</time></trkpt>
<trkpt lat="42.200918" lon="23.59054"><ele>2333.3</ele><time>2026-04-05T12:34:20.000Z</time></trkpt>
<trkpt lat="42.200925" lon="23.590544"><ele>2333.3</ele><time>2026-04-05T12:34:21.000Z</time></trkpt>
<trkpt lat="42.200932" lon="23.590547"><ele>2333</ele><time>2026-04-05T12:34:22.000Z</time></trkpt>
<trkpt lat="42.200941" lon="23.59055"><ele>2333</ele><time>2026-04-05T12:34:23.000Z</time></trkpt>
<trkpt lat="42.200951" lon="23.590553"><ele>2333</ele><time>2026-04-05T12:34:24.000Z</time></trkpt>
<trkpt lat="42.200961" lon="23.590556"><ele>2333</ele><time>2026-04-05T12:34:25.000Z</time></trkpt>
<trkpt lat="42.200972" lon="23.590558"><ele>2333</ele><time>2026-04-05T12:34:26.000Z</time></trkpt>
<trkpt lat="42.200981" lon="23.590561"><ele>2331.8</ele><time>2026-04-05T12:34:27.000Z</time></trkpt>
<trkpt lat="42.200991" lon="23.590564"><ele>2331.8</ele><time>2026-04-05T12:34:28.000Z</time></trkpt>
<trkpt lat="42.201" lon="23.590569"><ele>2331.8</ele><time>2026-04-05T12:34:29.000Z</time></trkpt>
<trkpt lat="42.20101" lon="23.590575"><ele>2331.8</ele><time>2026-04-05T12:34:30.000Z</time></trkpt>
<trkpt lat="42.20102" lon="23.590582"><ele>2331.8</ele><time>2026-04-05T12:34:31.000Z</time></trkpt>
<trkpt lat="42.20103" lon="23.590588"><ele>2330.2</ele><time>2026-04-05T12:34:32.000Z</time></trkpt>
<trkpt lat="42.201041" lon="23.590594"><ele>2330.2</ele><time>2026-04-05T12:34:33.000Z</time></trkpt>
<trkpt lat="42.201051" lon="23.590599"><ele>2330.2</ele><time>2026-04-05T12:34:34.000Z</time></trkpt>
<trkpt lat="42.20106" lon="23.590603"><ele>2330.2</ele><time>2026-04-05T12:34:35.000Z</time></trkpt>
<trkpt lat="42.20107" lon="23.590607"><ele>2330.2</ele><time>2026-04-05T12:34:36.000Z</time></trkpt>
<trkpt lat="42.201079" lon="23.590612"><ele>2329.3</ele><time>2026-04-05T12:34:37.000Z</time></trkpt>
<trkpt lat="42.201087" lon="23.590617"><ele>2329.3</ele><time>2026-04-05T12:34:38.000Z</time></trkpt>
<trkpt lat="42.201097" lon="23.590622"><ele>2329.3</ele><time>2026-04-05T12:34:39.000Z</time></trkpt>
<trkpt lat="42.201107" lon="23.590628"><ele>2329.3</ele><time>2026-04-05T12:34:40.000Z</time></trkpt>
<trkpt lat="42.201116" lon="23.590634"><ele>2329.3</ele><time>2026-04-05T12:34:41.000Z</time></trkpt>
<trkpt lat="42.201125" lon="23.59064"><ele>2327.7</ele><time>2026-04-05T12:34:42.000Z</time></trkpt>
<trkpt lat="42.201135" lon="23.590646"><ele>2327.7</ele><time>2026-04-05T12:34:43.000Z</time></trkpt>
<trkpt lat="42.201144" lon="23.590652"><ele>2327.7</ele><time>2026-04-05T12:34:44.000Z</time></trkpt>
<trkpt lat="42.201153" lon="23.590658"><ele>2327.7</ele><time>2026-04-05T12:34:45.000Z</time></trkpt>
<trkpt lat="42.201164" lon="23.590663"><ele>2327.7</ele><time>2026-04-05T12:34:46.000Z</time></trkpt>
<trkpt lat="42.201175" lon="23.590667"><ele>2326.2</ele><time>2026-04-05T12:34:47.000Z</time></trkpt>
<trkpt lat="42.201186" lon="23.590671"><ele>2326.2</ele><time>2026-04-05T12:34:48.000Z</time></trkpt>
<trkpt lat="42.201197" lon="23.590673"><ele>2326.2</ele><time>2026-04-05T12:34:49.000Z</time></trkpt>
<trkpt lat="42.201207" lon="23.590676"><ele>2326.2</ele><time>2026-04-05T12:34:50.000Z</time></trkpt>
<trkpt lat="42.201217" lon="23.590679"><ele>2326.2</ele><time>2026-04-05T12:34:51.000Z</time></trkpt>
<trkpt lat="42.201226" lon="23.590682"><ele>2325.5</ele><time>2026-04-05T12:34:52.000Z</time></trkpt>
<trkpt lat="42.201236" lon="23.590686"><ele>2325.5</ele><time>2026-04-05T12:34:53.000Z</time></trkpt>
<trkpt lat="42.201246" lon="23.590691"><ele>2325.5</ele><time>2026-04-05T12:34:54.000Z</time></trkpt>
<trkpt lat="42.201256" lon="23.590696"><ele>2325.5</ele><time>2026-04-05T12:34:55.000Z</time></trkpt>
<trkpt lat="42.201266" lon="23.5907"><ele>2325.5</ele><time>2026-04-05T12:34:56.000Z</time></trkpt>
<trkpt lat="42.201276" lon="23.590705"><ele>2324.2</ele><time>2026-04-05T12:34:57.000Z</time></trkpt>
<trkpt lat="42.201287" lon="23.590709"><ele>2324.2</ele><time>2026-04-05T12:34:58.000Z</time></trkpt>
<trkpt lat="42.201297" lon="23.590713"><ele>2324.2</ele><time>2026-04-05T12:34:59.000Z</time></trkpt>
<trkpt lat="42.201306" lon="23.590715"><ele>2324.2</ele><time>2026-04-05T12:35:00.000Z</time></trkpt>
<trkpt lat="42.201315" lon="23.590718"><ele>2324.2</ele><time>2026-04-05T12:35:01.000Z</time></trkpt>
<trkpt lat="42.201324" lon="23.590722"><ele>2322.9</ele><time>2026-04-05T12:35:02.000Z</time></trkpt>
<trkpt lat="42.201333" lon="23.590725"><ele>2322.9</ele><time>2026-04-05T12:35:03.000Z</time></trkpt>
<trkpt lat="42.201342" lon="23.59073"><ele>2322.9</ele><time>2026-04-05T12:35:04.000Z</time></trkpt>
<trkpt lat="42.201351" lon="23.590736"><ele>2322.9</ele><time>2026-04-05T12:35:05.000Z</time></trkpt>
<trkpt lat="42.201361" lon="23.590742"><ele>2322.9</ele><time>2026-04-05T12:35:06.000Z</time></trkpt>
<trkpt lat="42.201372" lon="23.590748"><ele>2322.3</ele><time>2026-04-05T12:35:07.000Z</time></trkpt>
<trkpt lat="42.201383" lon="23.590753"><ele>2322.3</ele><time>2026-04-05T12:35:08.000Z</time></trkpt>
<trkpt lat="42.201393" lon="23.590757"><ele>2322.3</ele><time>2026-04-05T12:35:09.000Z</time></trkpt>
<trkpt lat="42.201403" lon="23.590762"><ele>2322.3</ele><time>2026-04-05T12:35:10.000Z</time></trkpt>
<trkpt lat="42.201415" lon="23.590767"><ele>2322.3</ele><time>2026-04-05T12:35:11.000Z</time></trkpt>
<trkpt lat="42.201426" lon="23.590773"><ele>2320.8</ele><time>2026-04-05T12:35:12.000Z</time></trkpt>
<trkpt lat="42.201437" lon="23.590779"><ele>2320.8</ele><time>2026-04-05T12:35:13.000Z</time></trkpt>
<trkpt lat="42.201449" lon="23.590786"><ele>2320.8</ele><time>2026-04-05T12:35:14.000Z</time></trkpt>
<trkpt lat="42.201459" lon="23.590793"><ele>2320.8</ele><time>2026-04-05T12:35:15.000Z</time></trkpt>
<trkpt lat="42.201468" lon="23.590797"><ele>2320.8</ele><time>2026-04-05T12:35:16.000Z</time></trkpt>
<trkpt lat="42.201474" lon="23.590801"><ele>2319.3</ele><time>2026-04-05T12:35:17.000Z</time></trkpt>
<trkpt lat="42.201478" lon="23.590802"><ele>2319.3</ele><time>2026-04-05T12:35:18.000Z</time></trkpt>
<trkpt lat="42.20148" lon="23.590802"><ele>2319.3</ele><time>2026-04-05T12:35:19.000Z</time></trkpt>
<trkpt lat="42.201481" lon="23.590801"><ele>2319.3</ele><time>2026-04-05T12:35:20.000Z</time></trkpt>
<trkpt lat="42.201483" lon="23.590802"><ele>2319.3</ele><time>2026-04-05T12:35:21.000Z</time></trkpt>
<trkpt lat="42.201487" lon="23.590804"><ele>2318.6</ele><time>2026-04-05T12:35:22.000Z</time></trkpt>
<trkpt lat="42.201493" lon="23.590808"><ele>2318.6</ele><time>2026-04-05T12:35:23.000Z</time></trkpt>
<trkpt lat="42.201501" lon="23.590814"><ele>2318.6</ele><time>2026-04-05T12:35:24.000Z</time></trkpt>
<trkpt lat="42.201511" lon="23.59082"><ele>2318.6</ele><time>2026-04-05T12:35:25.000Z</time></trkpt>
<trkpt lat="42.201521" lon="23.590826"><ele>2318.6</ele><time>2026-04-05T12:35:26.000Z</time></trkpt>
<trkpt lat="42.201531" lon="23.59083"><ele>2317.2</ele><time>2026-04-05T12:35:27.000Z</time></trkpt>
<trkpt lat="42.201541" lon="23.590835"><ele>2317.2</ele><time>2026-04-05T12:35:28.000Z</time></trkpt>
<trkpt lat="42.201551" lon="23.590841"><ele>2317.2</ele><time>2026-04-05T12:35:29.000Z</time></trkpt>
<trkpt lat="42.201561" lon="23.590847"><ele>2317.2</ele><time>2026-04-05T12:35:30.000Z</time></trkpt>
<trkpt lat="42.20157" lon="23.590852"><ele>2317.2</ele><time>2026-04-05T12:35:31.000Z</time></trkpt>
<trkpt lat="42.20158" lon="23.590858"><ele>2316</ele><time>2026-04-05T12:35:32.000Z</time></trkpt>
<trkpt lat="42.201591" lon="23.590865"><ele>2316</ele><time>2026-04-05T12:35:33.000Z</time></trkpt>
<trkpt lat="42.201603" lon="23.590871"><ele>2316</ele><time>2026-04-05T12:35:34.000Z</time></trkpt>
<trkpt lat="42.201614" lon="23.590878"><ele>2316</ele><time>2026-04-05T12:35:35.000Z</time></trkpt>
<trkpt lat="42.201626" lon="23.590886"><ele>2316</ele><time>2026-04-05T12:35:36.000Z</time></trkpt>
<trkpt lat="42.201638" lon="23.590893"><ele>2315.4</ele><time>2026-04-05T12:35:37.000Z</time></trkpt>
<trkpt lat="42.20165" lon="23.5909"><ele>2315.4</ele><time>2026-04-05T12:35:38.000Z</time></trkpt>
<trkpt lat="42.201663" lon="23.590907"><ele>2315.4</ele><time>2026-04-05T12:35:39.000Z</time></trkpt>
<trkpt lat="42.201674" lon="23.590914"><ele>2315.4</ele><time>2026-04-05T12:35:40.000Z</time></trkpt>
<trkpt lat="42.201685" lon="23.590921"><ele>2315.4</ele><time>2026-04-05T12:35:41.000Z</time></trkpt>
<trkpt lat="42.201696" lon="23.590928"><ele>2313.9</ele><time>2026-04-05T12:35:42.000Z</time></trkpt>
<trkpt lat="42.201707" lon="23.590936"><ele>2313.9</ele><time>2026-04-05T12:35:43.000Z</time></trkpt>
<trkpt lat="42.201718" lon="23.590944"><ele>2313.9</ele><time>2026-04-05T12:35:44.000Z</time></trkpt>
<trkpt lat="42.20173" lon="23.590951"><ele>2313.9</ele><time>2026-04-05T12:35:45.000Z</time></trkpt>
<trkpt lat="42.201742" lon="23.590958"><ele>2313.9</ele><time>2026-04-05T12:35:46.000Z</time></trkpt>
<trkpt lat="42.201755" lon="23.590964"><ele>2312.3</ele><time>2026-04-05T12:35:47.000Z</time></trkpt>
<trkpt lat="42.201767" lon="23.590969"><ele>2312.3</ele><time>2026-04-05T12:35:48.000Z</time></trkpt>
<trkpt lat="42.201779" lon="23.590972"><ele>2312.3</ele><time>2026-04-05T12:35:49.000Z</time></trkpt>
<trkpt lat="42.201792" lon="23.590974"><ele>2312.3</ele><time>2026-04-05T12:35:50.000Z</time></trkpt>
<trkpt lat="42.201805" lon="23.590976"><ele>2312.3</ele><time>2026-04-05T12:35:51.000Z</time></trkpt>
<trkpt lat="42.201818" lon="23.590976"><ele>2311.5</ele><time>2026-04-05T12:35:52.000Z</time></trkpt>
<trkpt lat="42.20183" lon="23.590976"><ele>2311.5</ele><time>2026-04-05T12:35:53.000Z</time></trkpt>
<trkpt lat="42.201842" lon="23.590977"><ele>2311.5</ele><time>2026-04-05T12:35:54.000Z</time></trkpt>
<trkpt lat="42.201855" lon="23.590978"><ele>2311.5</ele><time>2026-04-05T12:35:55.000Z</time></trkpt>
<trkpt lat="42.201867" lon="23.59098"><ele>2311.5</ele><time>2026-04-05T12:35:56.000Z</time></trkpt>
<trkpt lat="42.201878" lon="23.590983"><ele>2309.9</ele><time>2026-04-05T12:35:57.000Z</time></trkpt>
<trkpt lat="42.201887" lon="23.590985"><ele>2309.9</ele><time>2026-04-05T12:35:58.000Z</time></trkpt>
<trkpt lat="42.201895" lon="23.590987"><ele>2309.9</ele><time>2026-04-05T12:35:59.000Z</time></trkpt>
<trkpt lat="42.201899" lon="23.590988"><ele>2309.9</ele><time>2026-04-05T12:36:00.000Z</time></trkpt>
<trkpt lat="42.201901" lon="23.59099"><ele>2309.9</ele><time>2026-04-05T12:36:01.000Z</time></trkpt>
<trkpt lat="42.201902" lon="23.59099"><ele>2308.5</ele><time>2026-04-05T12:36:02.000Z</time></trkpt>
<trkpt lat="42.201902" lon="23.590992"><ele>2308.5</ele><time>2026-04-05T12:36:03.000Z</time></trkpt>
<trkpt lat="42.201904" lon="23.590993"><ele>2308.5</ele><time>2026-04-05T12:36:04.000Z</time></trkpt>
<trkpt lat="42.201908" lon="23.590993"><ele>2308.5</ele><time>2026-04-05T12:36:05.000Z</time></trkpt>
<trkpt lat="42.201915" lon="23.590994"><ele>2308.5</ele><time>2026-04-05T12:36:06.000Z</time></trkpt>
<trkpt lat="42.201925" lon="23.590994"><ele>2307.8</ele><time>2026-04-05T12:36:07.000Z</time></trkpt>
<trkpt lat="42.201936" lon="23.590994"><ele>2307.8</ele><time>2026-04-05T12:36:08.000Z</time></trkpt>
<trkpt lat="42.201949" lon="23.590994"><ele>2307.8</ele><time>2026-04-05T12:36:09.000Z</time></trkpt>
<trkpt lat="42.201961" lon="23.590995"><ele>2307.8</ele><time>2026-04-05T12:36:10.000Z</time></trkpt>
<trkpt lat="42.201973" lon="23.590995"><ele>2307.8</ele><time>2026-04-05T12:36:11.000Z</time></trkpt>
<trkpt lat="42.201984" lon="23.590996"><ele>2306.9</ele><time>2026-04-05T12:36:12.000Z</time></trkpt>
<trkpt lat="42.201996" lon="23.590996"><ele>2306.9</ele><time>2026-04-05T12:36:13.000Z</time></trkpt>
<trkpt lat="42.202007" lon="23.590996"><ele>2306.9</ele><time>2026-04-05T12:36:14.000Z</time></trkpt>
<trkpt lat="42.202019" lon="23.590996"><ele>2306.9</ele><time>2026-04-05T12:36:15.000Z</time></trkpt>
<trkpt lat="42.202032" lon="23.590996"><ele>2306.9</ele><time>2026-04-05T12:36:16.000Z</time></trkpt>
<trkpt lat="42.202044" lon="23.590997"><ele>2306.2</ele><time>2026-04-05T12:36:17.000Z</time></trkpt>
<trkpt lat="42.202056" lon="23.590998"><ele>2306.2</ele><time>2026-04-05T12:36:18.000Z</time></trkpt>
<trkpt lat="42.202069" lon="23.590999"><ele>2306.2</ele><time>2026-04-05T12:36:19.000Z</time></trkpt>
<trkpt lat="42.20208" lon="23.590999"><ele>2306.2</ele><time>2026-04-05T12:36:20.000Z</time></trkpt>
<trkpt lat="42.202092" lon="23.590999"><ele>2306.2</ele><time>2026-04-05T12:36:21.000Z</time></trkpt>
<trkpt lat="42.202103" lon="23.590998"><ele>2305.9</ele><time>2026-04-05T12:36:22.000Z</time></trkpt>
<trkpt lat="42.202115" lon="23.590996"><ele>2305.9</ele><time>2026-04-05T12:36:23.000Z</time></trkpt>
<trkpt lat="42.202127" lon="23.590994"><ele>2305.9</ele><time>2026-04-05T12:36:24.000Z</time></trkpt>
<trkpt lat="42.202138" lon="23.590992"><ele>2305.9</ele><time>2026-04-05T12:36:25.000Z</time></trkpt>
<trkpt lat="42.20215" lon="23.59099"><ele>2305.9</ele><time>2026-04-05T12:36:26.000Z</time></trkpt>
<trkpt lat="42.202162" lon="23.590987"><ele>2305</ele><time>2026-04-05T12:36:27.000Z</time></trkpt>
<trkpt lat="42.202173" lon="23.590984"><ele>2305</ele><time>2026-04-05T12:36:28.000Z</time></trkpt>
<trkpt lat="42.202185" lon="23.590979"><ele>2305</ele><time>2026-04-05T12:36:29.000Z</time></trkpt>
<trkpt lat="42.202198" lon="23.590975"><ele>2305</ele><time>2026-04-05T12:36:30.000Z</time></trkpt>
<trkpt lat="42.20221" lon="23.59097"><ele>2305</ele><time>2026-04-05T12:36:31.000Z</time></trkpt>
<trkpt lat="42.202222" lon="23.590965"><ele>2303.8</ele><time>2026-04-05T12:36:32.000Z</time></trkpt>
<trkpt lat="42.202233" lon="23.59096"><ele>2303.8</ele><time>2026-04-05T12:36:33.000Z</time></trkpt>
<trkpt lat="42.202246" lon="23.590955"><ele>2303.8</ele><time>2026-04-05T12:36:34.000Z</time></trkpt>
<trkpt lat="42.202258" lon="23.590949"><ele>2303.8</ele><time>2026-04-05T12:36:35.000Z</time></trkpt>
<trkpt lat="42.20227" lon="23.590943"><ele>2303.8</ele><time>2026-04-05T12:36:36.000Z</time></trkpt>
<trkpt lat="42.202282" lon="23.590938"><ele>2303.3</ele><time>2026-04-05T12:36:37.000Z</time></trkpt>
<trkpt lat="42.202294" lon="23.590933"><ele>2303.3</ele><time>2026-04-05T12:36:38.000Z</time></trkpt>
<trkpt lat="42.202306" lon="23.590928"><ele>2303.3</ele><time>2026-04-05T12:36:39.000Z</time></trkpt>
<trkpt lat="42.202317" lon="23.590924"><ele>2303.3</ele><time>2026-04-05T12:36:40.000Z</time></trkpt>
<trkpt lat="42.202328" lon="23.590919"><ele>2303.3</ele><time>2026-04-05T12:36:41.000Z</time></trkpt>
<trkpt lat="42.20234" lon="23.590914"><ele>2302.2</ele><time>2026-04-05T12:36:42.000Z</time></trkpt>
<trkpt lat="42.202352" lon="23.590908"><ele>2302.2</ele><time>2026-04-05T12:36:43.000Z</time></trkpt>
<trkpt lat="42.202364" lon="23.590903"><ele>2302.2</ele><time>2026-04-05T12:36:44.000Z</time></trkpt>
<trkpt lat="42.202375" lon="23.590898"><ele>2302.2</ele><time>2026-04-05T12:36:45.000Z</time></trkpt>
<trkpt lat="42.202387" lon="23.590893"><ele>2302.2</ele><time>2026-04-05T12:36:46.000Z</time></trkpt>
<trkpt lat="42.202399" lon="23.590888"><ele>2301.2</ele><time>2026-04-05T12:36:47.000Z</time></trkpt>
<trkpt lat="42.20241" lon="23.590883"><ele>2301.2</ele><time>2026-04-05T12:36:48.000Z</time></trkpt>
<trkpt lat="42.202421" lon="23.590878"><ele>2301.2</ele><time>2026-04-05T12:36:49.000Z</time></trkpt>
<trkpt lat="42.202432" lon="23.590872"><ele>2301.2</ele><time>2026-04-05T12:36:50.000Z</time></trkpt>
<trkpt lat="42.202444" lon="23.590866"><ele>2301.2</ele><time>2026-04-05T12:36:51.000Z</time></trkpt>
<trkpt lat="42.202455" lon="23.590859"><ele>2300.6</ele><time>2026-04-05T12:36:52.000Z</time></trkpt>
<trkpt lat="42.202467" lon="23.590853"><ele>2300.6</ele><time>2026-04-05T12:36:53.000Z</time></trkpt>
<trkpt lat="42.202479" lon="23.590848"><ele>2300.6</ele><time>2026-04-05T12:36:54.000Z</time></trkpt>
<trkpt lat="42.202491" lon="23.590843"><ele>2300.6</ele><time>2026-04-05T12:36:55.000Z</time></trkpt>
<trkpt lat="42.202502" lon="23.590838"><ele>2300.6</ele><time>2026-04-05T12:36:56.000Z</time></trkpt>
<trkpt lat="42.202513" lon="23.590835"><ele>2299.5</ele><time>2026-04-05T12:36:57.000Z</time></trkpt>
<trkpt lat="42.202525" lon="23.590832"><ele>2299.5</ele><time>2026-04-05T12:36:58.000Z</time></trkpt>
<trkpt lat="42.202536" lon="23.590829"><ele>2299.5</ele><time>2026-04-05T12:36:59.000Z</time></trkpt>
<trkpt lat="42.202548" lon="23.590827"><ele>2299.5</ele><time>2026-04-05T12:37:00.000Z</time></trkpt>
<trkpt lat="42.202561" lon="23.590824"><ele>2299.5</ele><time>2026-04-05T12:37:01.000Z</time></trkpt>
<trkpt lat="42.202573" lon="23.590821"><ele>2298.1</ele><time>2026-04-05T12:37:02.000Z</time></trkpt>
<trkpt lat="42.202585" lon="23.590817"><ele>2298.1</ele><time>2026-04-05T12:37:03.000Z</time></trkpt>
<trkpt lat="42.202597" lon="23.590814"><ele>2298.1</ele><time>2026-04-05T12:37:04.000Z</time></trkpt>
<trkpt lat="42.202608" lon="23.59081"><ele>2298.1</ele><time>2026-04-05T12:37:05.000Z</time></trkpt>
<trkpt lat="42.202617" lon="23.590807"><ele>2298.1</ele><time>2026-04-05T12:37:06.000Z</time></trkpt>
<trkpt lat="42.202626" lon="23.590805"><ele>2297.4</ele><time>2026-04-05T12:37:07.000Z</time></trkpt>
<trkpt lat="42.202636" lon="23.590802"><ele>2297.4</ele><time>2026-04-05T12:37:08.000Z</time></trkpt>
<trkpt lat="42.202646" lon="23.5908"><ele>2297.4</ele><time>2026-04-05T12:37:09.000Z</time></trkpt>
<trkpt lat="42.202657" lon="23.590797"><ele>2297.4</ele><time>2026-04-05T12:37:10.000Z</time></trkpt>
<trkpt lat="42.202669" lon="23.590793"><ele>2297.4</ele><time>2026-04-05T12:37:11.000Z</time></trkpt>
<trkpt lat="42.202682" lon="23.590788"><ele>2296.2</ele><time>2026-04-05T12:37:12.000Z</time></trkpt>
<trkpt lat="42.202694" lon="23.590783"><ele>2296.2</ele><time>2026-04-05T12:37:13.000Z</time></trkpt>
<trkpt lat="42.202707" lon="23.590778"><ele>2296.2</ele><time>2026-04-05T12:37:14.000Z</time></trkpt>
<trkpt lat="42.202719" lon="23.590773"><ele>2296.2</ele><time>2026-04-05T12:37:15.000Z</time></trkpt>
<trkpt lat="42.20273" lon="23.590769"><ele>2296.2</ele><time>2026-04-05T12:37:16.000Z</time></trkpt>
<trkpt lat="42.202741" lon="23.590764"><ele>2295.1</ele><time>2026-04-05T12:37:17.000Z</time></trkpt>
<trkpt lat="42.202752" lon="23.59076"><ele>2295.1</ele><time>2026-04-05T12:37:18.000Z</time></trkpt>
<trkpt lat="42.202764" lon="23.590756"><ele>2295.1</ele><time>2026-04-05T12:37:19.000Z</time></trkpt>
<trkpt lat="42.202775" lon="23.590753"><ele>2295.1</ele><time>2026-04-05T12:37:20.000Z</time></trkpt>
<trkpt lat="42.202787" lon="23.590749"><ele>2295.1</ele><time>2026-04-05T12:37:21.000Z</time></trkpt>
<trkpt lat="42.202799" lon="23.590745"><ele>2294.7</ele><time>2026-04-05T12:37:22.000Z</time></trkpt>
<trkpt lat="42.202812" lon="23.590741"><ele>2294.7</ele><time>2026-04-05T12:37:23.000Z</time></trkpt>
<trkpt lat="42.202823" lon="23.590737"><ele>2294.7</ele><time>2026-04-05T12:37:24.000Z</time></trkpt>
<trkpt lat="42.202833" lon="23.590733"><ele>2294.7</ele><time>2026-04-05T12:37:25.000Z</time></trkpt>
<trkpt lat="42.202844" lon="23.590729"><ele>2294.7</ele><time>2026-04-05T12:37:26.000Z</time></trkpt>
<trkpt lat="42.202854" lon="23.590726"><ele>2293.7</ele><time>2026-04-05T12:37:27.000Z</time></trkpt>
<trkpt lat="42.202864" lon="23.590723"><ele>2293.7</ele><time>2026-04-05T12:37:28.000Z</time></trkpt>
<trkpt lat="42.202874" lon="23.590719"><ele>2293.7</ele><time>2026-04-05T12:37:29.000Z</time></trkpt>
<trkpt lat="42.202886" lon="23.590714"><ele>2293.7</ele><time>2026-04-05T12:37:30.000Z</time></trkpt>
<trkpt lat="42.202896" lon="23.59071"><ele>2293.7</ele><time>2026-04-05T12:37:31.000Z</time></trkpt>
<trkpt lat="42.202907" lon="23.590706"><ele>2292.8</ele><time>2026-04-05T12:37:32.000Z</time></trkpt>
<trkpt lat="42.202917" lon="23.590703"><ele>2292.8</ele><time>2026-04-05T12:37:33.000Z</time></trkpt>
<trkpt lat="42.202927" lon="23.590701"><ele>2292.8</ele><time>2026-04-05T12:37:34.000Z</time></trkpt>
<trkpt lat="42.202937" lon="23.5907"><ele>2292.8</ele><time>2026-04-05T12:37:35.000Z</time></trkpt>
<trkpt lat="42.202947" lon="23.590699"><ele>2292.8</ele><time>2026-04-05T12:37:36.000Z</time></trkpt>
<trkpt lat="42.202956" lon="23.590697"><ele>2292.3</ele><time>2026-04-05T12:37:37.000Z</time></trkpt>
<trkpt lat="42.202965" lon="23.590694"><ele>2292.3</ele><time>2026-04-05T12:37:38.000Z</time></trkpt>
<trkpt lat="42.202975" lon="23.590691"><ele>2292.3</ele><time>2026-04-05T12:37:39.000Z</time></trkpt>
<trkpt lat="42.202985" lon="23.590688"><ele>2292.3</ele><time>2026-04-05T12:37:40.000Z</time></trkpt>
<trkpt lat="42.202996" lon="23.590684"><ele>2292.3</ele><time>2026-04-05T12:37:41.000Z</time></trkpt>
<trkpt lat="42.203007" lon="23.590681"><ele>2291.6</ele><time>2026-04-05T12:37:42.000Z</time></trkpt>
<trkpt lat="42.203019" lon="23.590678"><ele>2291.6</ele><time>2026-04-05T12:37:43.000Z</time></trkpt>
<trkpt lat="42.203031" lon="23.590675"><ele>2291.6</ele><time>2026-04-05T12:37:44.000Z</time></trkpt>
<trkpt lat="42.203043" lon="23.590672"><ele>2291.6</ele><time>2026-04-05T12:37:45.000Z</time></trkpt>
<trkpt lat="42.203055" lon="23.59067"><ele>2291.6</ele><time>2026-04-05T12:37:46.000Z</time></trkpt>
<trkpt lat="42.203066" lon="23.590668"><ele>2291.3</ele><time>2026-04-05T12:37:47.000Z</time></trkpt>
<trkpt lat="42.203077" lon="23.590666"><ele>2291.3</ele><time>2026-04-05T12:37:48.000Z</time></trkpt>
<trkpt lat="42.203087" lon="23.590665"><ele>2291.3</ele><time>2026-04-05T12:37:49.000Z</time></trkpt>
<trkpt lat="42.203096" lon="23.590663"><ele>2291.3</ele><time>2026-04-05T12:37:50.000Z</time></trkpt>
<trkpt lat="42.203106" lon="23.59066"><ele>2291.3</ele><time>2026-04-05T12:37:51.000Z</time></trkpt>
<trkpt lat="42.203116" lon="23.590657"><ele>2291.1</ele><time>2026-04-05T12:37:52.000Z</time></trkpt>
<trkpt lat="42.203128" lon="23.590654"><ele>2291.1</ele><time>2026-04-05T12:37:53.000Z</time></trkpt>
<trkpt lat="42.203141" lon="23.590651"><ele>2291.1</ele><time>2026-04-05T12:37:54.000Z</time></trkpt>
<trkpt lat="42.203154" lon="23.590649"><ele>2291.1</ele><time>2026-04-05T12:37:55.000Z</time></trkpt>
<trkpt lat="42.203167" lon="23.590647"><ele>2291.1</ele><time>2026-04-05T12:37:56.000Z</time></trkpt>
<trkpt lat="42.203179" lon="23.590646"><ele>2290.6</ele><time>2026-04-05T12:37:57.000Z</time></trkpt>
<trkpt lat="42.203191" lon="23.590644"><ele>2290.6</ele><time>2026-04-05T12:37:58.000Z</time></trkpt>
<trkpt lat="42.203203" lon="23.590642"><ele>2290.6</ele><time>2026-04-05T12:37:59.000Z</time></trkpt>
<trkpt lat="42.203214" lon="23.590639"><ele>2290.6</ele><time>2026-04-05T12:38:00.000Z</time></trkpt>
<trkpt lat="42.203225" lon="23.590636"><ele>2290.6</ele><time>2026-04-05T12:38:01.000Z</time></trkpt>
<trkpt lat="42.203236" lon="23.590632"><ele>2289.5</ele><time>2026-04-05T12:38:02.000Z</time></trkpt>
<trkpt lat="42.203246" lon="23.590629"><ele>2289.5</ele><time>2026-04-05T12:38:03.000Z</time></trkpt>
<trkpt lat="42.203256" lon="23.590628"><ele>2289.5</ele><time>2026-04-05T12:38:04.000Z</time></trkpt>
<trkpt lat="42.203264" lon="23.590627"><ele>2289.5</ele><time>2026-04-05T12:38:05.000Z</time></trkpt>
<trkpt lat="42.203272" lon="23.590626"><ele>2289.5</ele><time>2026-04-05T12:38:06.000Z</time></trkpt>
<trkpt lat="42.203281" lon="23.590624"><ele>2288.9</ele><time>2026-04-05T12:38:07.000Z</time></trkpt>
<trkpt lat="42.20329" lon="23.590621"><ele>2288.9</ele><time>2026-04-05T12:38:08.000Z</time></trkpt>
<trkpt lat="42.2033" lon="23.590617"><ele>2288.9</ele><time>2026-04-05T12:38:09.000Z</time></trkpt>
<trkpt lat="42.203312" lon="23.590612"><ele>2288.9</ele><time>2026-04-05T12:38:10.000Z</time></trkpt>
<trkpt lat="42.203324" lon="23.590606"><ele>2288.9</ele><time>2026-04-05T12:38:11.000Z</time></trkpt>
<trkpt lat="42.203336" lon="23.590601"><ele>2287.5</ele><time>2026-04-05T12:38:12.000Z</time></trkpt>
<trkpt lat="42.203347" lon="23.590595"><ele>2287.5</ele><time>2026-04-05T12:38:13.000Z</time></trkpt>
<trkpt lat="42.203359" lon="23.590588"><ele>2287.5</ele><time>2026-04-05T12:38:14.000Z</time></trkpt>
<trkpt lat="42.20337" lon="23.590581"><ele>2287.5</ele><time>2026-04-05T12:38:15.000Z</time></trkpt>
<trkpt lat="42.203381" lon="23.590574"><ele>2287.5</ele><time>2026-04-05T12:38:16.000Z</time></trkpt>
<trkpt lat="42.203391" lon="23.590566"><ele>2286.4</ele><time>2026-04-05T12:38:17.000Z</time></trkpt>
<trkpt lat="42.203402" lon="23.590559"><ele>2286.4</ele><time>2026-04-05T12:38:18.000Z</time></trkpt>
<trkpt lat="42.203412" lon="23.590551"><ele>2286.4</ele><time>2026-04-05T12:38:19.000Z</time></trkpt>
<trkpt lat="42.203422" lon="23.590543"><ele>2286.4</ele><time>2026-04-05T12:38:20.000Z</time></trkpt>
<trkpt lat="42.203431" lon="23.590533"><ele>2286.4</ele><time>2026-04-05T12:38:21.000Z</time></trkpt>
<trkpt lat="42.20344" lon="23.590522"><ele>2285.9</ele><time>2026-04-05T12:38:22.000Z</time></trkpt>
<trkpt lat="42.203448" lon="23.590512"><ele>2285.9</ele><time>2026-04-05T12:38:23.000Z</time></trkpt>
<trkpt lat="42.203456" lon="23.590502"><ele>2285.9</ele><time>2026-04-05T12:38:24.000Z</time></trkpt>
<trkpt lat="42.203465" lon="23.590492"><ele>2285.9</ele><time>2026-04-05T12:38:25.000Z</time></trkpt>
<trkpt lat="42.203473" lon="23.590482"><ele>2285.9</ele><time>2026-04-05T12:38:26.000Z</time></trkpt>
<trkpt lat="42.203481" lon="23.590472"><ele>2285</ele><time>2026-04-05T12:38:27.000Z</time></trkpt>
<trkpt lat="42.203489" lon="23.590462"><ele>2285</ele><time>2026-04-05T12:38:28.000Z</time></trkpt>
<trkpt lat="42.203497" lon="23.590451"><ele>2285</ele><time>2026-04-05T12:38:29.000Z</time></trkpt>
<trkpt lat="42.203504" lon="23.590439"><ele>2285</ele><time>2026-04-05T12:38:30.000Z</time></trkpt>
<trkpt lat="42.203511" lon="23.590426"><ele>2285</ele><time>2026-04-05T12:38:31.000Z</time></trkpt>
<trkpt lat="42.203518" lon="23.590413"><ele>2284.2</ele><time>2026-04-05T12:38:32.000Z</time></trkpt>
<trkpt lat="42.203525" lon="23.590401"><ele>2284.2</ele><time>2026-04-05T12:38:33.000Z</time></trkpt>
<trkpt lat="42.203533" lon="23.590388"><ele>2284.2</ele><time>2026-04-05T12:38:34.000Z</time></trkpt>
<trkpt lat="42.20354" lon="23.590376"><ele>2284.2</ele><time>2026-04-05T12:38:35.000Z</time></trkpt>
<trkpt lat="42.203548" lon="23.590365"><ele>2284.2</ele><time>2026-04-05T12:38:36.000Z</time></trkpt>
<trkpt lat="42.203557" lon="23.590354"><ele>2283.9</ele><time>2026-04-05T12:38:37.000Z</time></trkpt>
<trkpt lat="42.203565" lon="23.590342"><ele>2283.9</ele><time>2026-04-05T12:38:38.000Z</time></trkpt>
<trkpt lat="42.203574" lon="23.59033"><ele>2283.9</ele><time>2026-04-05T12:38:39.000Z</time></trkpt>
<trkpt lat="42.203583" lon="23.590318"><ele>2283.9</ele><time>2026-04-05T12:38:40.000Z</time></trkpt>
<trkpt lat="42.203592" lon="23.590307"><ele>2283.9</ele><time>2026-04-05T12:38:41.000Z</time></trkpt>
<trkpt lat="42.2036" lon="23.590295"><ele>2283.5</ele><time>2026-04-05T12:38:42.000Z</time></trkpt>
<trkpt lat="42.203609" lon="23.590285"><ele>2283.5</ele><time>2026-04-05T12:38:43.000Z</time></trkpt>
<trkpt lat="42.203618" lon="23.590274"><ele>2283.5</ele><time>2026-04-05T12:38:44.000Z</time></trkpt>
<trkpt lat="42.203627" lon="23.590264"><ele>2283.5</ele><time>2026-04-05T12:38:45.000Z</time></trkpt>
<trkpt lat="42.203637" lon="23.590253"><ele>2283.5</ele><time>2026-04-05T12:38:46.000Z</time></trkpt>
<trkpt lat="42.203647" lon="23.590242"><ele>2283</ele><time>2026-04-05T12:38:47.000Z</time></trkpt>
<trkpt lat="42.203657" lon="23.590232"><ele>2283</ele><time>2026-04-05T12:38:48.000Z</time></trkpt>
<trkpt lat="42.203668" lon="23.590222"><ele>2283</ele><time>2026-04-05T12:38:49.000Z</time></trkpt>
<trkpt lat="42.203679" lon="23.590212"><ele>2283</ele><time>2026-04-05T12:38:50.000Z</time></trkpt>
<trkpt lat="42.20369" lon="23.590204"><ele>2283</ele><time>2026-04-05T12:38:51.000Z</time></trkpt>
<trkpt lat="42.203701" lon="23.590195"><ele>2282.5</ele><time>2026-04-05T12:38:52.000Z</time></trkpt>
<trkpt lat="42.203711" lon="23.590186"><ele>2282.5</ele><time>2026-04-05T12:38:53.000Z</time></trkpt>
<trkpt lat="42.20372" lon="23.590177"><ele>2282.5</ele><time>2026-04-05T12:38:54.000Z</time></trkpt>
<trkpt lat="42.20373" lon="23.590169"><ele>2282.5</ele><time>2026-04-05T12:38:55.000Z</time></trkpt>
<trkpt lat="42.203739" lon="23.59016"><ele>2282.5</ele><time>2026-04-05T12:38:56.000Z</time></trkpt>
<trkpt lat="42.203747" lon="23.590152"><ele>2281.6</ele><time>2026-04-05T12:38:57.000Z</time></trkpt>
<trkpt lat="42.203756" lon="23.590144"><ele>2281.6</ele><time>2026-04-05T12:38:58.000Z</time></trkpt>
<trkpt lat="42.203766" lon="23.590137"><ele>2281.6</ele><time>2026-04-05T12:38:59.000Z</time></trkpt>
<trkpt lat="42.203774" lon="23.59013"><ele>2281.6</ele><time>2026-04-05T12:39:00.000Z</time></trkpt>
<trkpt lat="42.203781" lon="23.590125"><ele>2281.6</ele><time>2026-04-05T12:39:01.000Z</time></trkpt>
<trkpt lat="42.203787" lon="23.590119"><ele>2280.6</ele><time>2026-04-05T12:39:02.000Z</time></trkpt>
<trkpt lat="42.203793" lon="23.590112"><ele>2280.6</ele><time>2026-04-05T12:39:03.000Z</time></trkpt>
<trkpt lat="42.203799" lon="23.590106"><ele>2280.6</ele><time>2026-04-05T12:39:04.000Z</time></trkpt>
<trkpt lat="42.203805" lon="23.590097"><ele>2280.6</ele><time>2026-04-05T12:39:05.000Z</time></trkpt>
<trkpt lat="42.203814" lon="23.590088"><ele>2280.6</ele><time>2026-04-05T12:39:06.000Z</time></trkpt>
<trkpt lat="42.203825" lon="23.59008"><ele>2280.2</ele><time>2026-04-05T12:39:07.000Z</time></trkpt>
<trkpt lat="42.203835" lon="23.590071"><ele>2280.2</ele><time>2026-04-05T12:39:08.000Z</time></trkpt>
<trkpt lat="42.203845" lon="23.590061"><ele>2280.2</ele><time>2026-04-05T12:39:09.000Z</time></trkpt>
<trkpt lat="42.203855" lon="23.590051"><ele>2280.2</ele><time>2026-04-05T12:39:10.000Z</time></trkpt>
<trkpt lat="42.203864" lon="23.590042"><ele>2280.2</ele><time>2026-04-05T12:39:11.000Z</time></trkpt>
<trkpt lat="42.203874" lon="23.590032"><ele>2279.4</ele><time>2026-04-05T12:39:12.000Z</time></trkpt>
<trkpt lat="42.203883" lon="23.590024"><ele>2279.4</ele><time>2026-04-05T12:39:13.000Z</time></trkpt>
<trkpt lat="42.203893" lon="23.590015"><ele>2279.4</ele><time>2026-04-05T12:39:14.000Z</time></trkpt>
<trkpt lat="42.203904" lon="23.590007"><ele>2279.4</ele><time>2026-04-05T12:39:15.000Z</time></trkpt>
<trkpt lat="42.203915" lon="23.589998"><ele>2279.4</ele><time>2026-04-05T12:39:16.000Z</time></trkpt>
<trkpt lat="42.203926" lon="23.589989"><ele>2278.6</ele><time>2026-04-05T12:39:17.000Z</time></trkpt>
<trkpt lat="42.203937" lon="23.589981"><ele>2278.6</ele><time>2026-04-05T12:39:18.000Z</time></trkpt>
<trkpt lat="42.203948" lon="23.589973"><ele>2278.6</ele><time>2026-04-05T12:39:19.000Z</time></trkpt>
<trkpt lat="42.203958" lon="23.589965"><ele>2278.6</ele><time>2026-04-05T12:39:20.000Z</time></trkpt>
<trkpt lat="42.203969" lon="23.589958"><ele>2278.6</ele><time>2026-04-05T12:39:21.000Z</time></trkpt>
<trkpt lat="42.203979" lon="23.589952"><ele>2278.2</ele><time>2026-04-05T12:39:22.000Z</time></trkpt>
<trkpt lat="42.203989" lon="23.589944"><ele>2278.2</ele><time>2026-04-05T12:39:23.000Z</time></trkpt>
<trkpt lat="42.204" lon="23.589937"><ele>2278.2</ele><time>2026-04-05T12:39:24.000Z</time></trkpt>
<trkpt lat="42.204011" lon="23.589929"><ele>2278.2</ele><time>2026-04-05T12:39:25.000Z</time></trkpt>
<trkpt lat="42.204022" lon="23.589922"><ele>2278.2</ele><time>2026-04-05T12:39:26.000Z</time></trkpt>
<trkpt lat="42.204033" lon="23.589913"><ele>2277.6</ele><time>2026-04-05T12:39:27.000Z</time></trkpt>
<trkpt lat="42.204043" lon="23.589905"><ele>2277.6</ele><time>2026-04-05T12:39:28.000Z</time></trkpt>
<trkpt lat="42.204053" lon="23.589895"><ele>2277.6</ele><time>2026-04-05T12:39:29.000Z</time></trkpt>
<trkpt lat="42.204062" lon="23.589886"><ele>2277.6</ele><time>2026-04-05T12:39:30.000Z</time></trkpt>
<trkpt lat="42.204072" lon="23.589877"><ele>2277.6</ele><time>2026-04-05T12:39:31.000Z</time></trkpt>
<trkpt lat="42.204081" lon="23.589868"><ele>2277.1</ele><time>2026-04-05T12:39:32.000Z</time></trkpt>
<trkpt lat="42.204091" lon="23.589859"><ele>2277.1</ele><time>2026-04-05T12:39:33.000Z</time></trkpt>
<trkpt lat="42.2041" lon="23.58985"><ele>2277.1</ele><time>2026-04-05T12:39:34.000Z</time></trkpt>
<trkpt lat="42.204108" lon="23.58984"><ele>2277.1</ele><time>2026-04-05T12:39:35.000Z</time></trkpt>
<trkpt lat="42.204116" lon="23.58983"><ele>2277.1</ele><time>2026-04-05T12:39:36.000Z</time></trkpt>
<trkpt lat="42.204124" lon="23.58982"><ele>2276.9</ele><time>2026-04-05T12:39:37.000Z</time></trkpt>
<trkpt lat="42.204131" lon="23.58981"><ele>2276.9</ele><time>2026-04-05T12:39:38.000Z</time></trkpt>
<trkpt lat="42.204138" lon="23.5898"><ele>2276.9</ele><time>2026-04-05T12:39:39.000Z</time></trkpt>
<trkpt lat="42.204145" lon="23.589791"><ele>2276.9</ele><time>2026-04-05T12:39:40.000Z</time></trkpt>
<trkpt lat="42.204154" lon="23.589781"><ele>2276.9</ele><time>2026-04-05T12:39:41.000Z</time></trkpt>
<trkpt lat="42.204163" lon="23.589771"><ele>2276.4</ele><time>2026-04-05T12:39:42.000Z</time></trkpt>
<trkpt lat="42.204172" lon="23.589761"><ele>2276.4</ele><time>2026-04-05T12:39:43.000Z</time></trkpt>
<trkpt lat="42.204182" lon="23.589752"><ele>2276.4</ele><time>2026-04-05T12:39:44.000Z</time></trkpt>
<trkpt lat="42.204191" lon="23.589742"><ele>2276.4</ele><time>2026-04-05T12:39:45.000Z</time></trkpt>
<trkpt lat="42.2042" lon="23.589732"><ele>2276.4</ele><time>2026-04-05T12:39:46.000Z</time></trkpt>
<trkpt lat="42.204209" lon="23.589723"><ele>2276.1</ele><time>2026-04-05T12:39:47.000Z</time></trkpt>
<trkpt lat="42.204217" lon="23.589712"><ele>2276.1</ele><time>2026-04-05T12:39:48.000Z</time></trkpt>
<trkpt lat="42.204226" lon="23.589701"><ele>2276.1</ele><time>2026-04-05T12:39:49.000Z</time></trkpt>
<trkpt lat="42.204235" lon="23.58969"><ele>2276.1</ele><time>2026-04-05T12:39:50.000Z</time></trkpt>
<trkpt lat="42.204245" lon="23.589679"><ele>2276.1</ele><time>2026-04-05T12:39:51.000Z</time></trkpt>
<trkpt lat="42.204253" lon="23.589668"><ele>2276</ele><time>2026-04-05T12:39:52.000Z</time></trkpt>
<trkpt lat="42.204262" lon="23.589657"><ele>2276</ele><time>2026-04-05T12:39:53.000Z</time></trkpt>
<trkpt lat="42.20427" lon="23.589647"><ele>2276</ele><time>2026-04-05T12:39:54.000Z</time></trkpt>
<trkpt lat="42.204278" lon="23.589636"><ele>2276</ele><time>2026-04-05T12:39:55.000Z</time></trkpt>
<trkpt lat="42.204286" lon="23.589625"><ele>2276</ele><time>2026-04-05T12:39:56.000Z</time></trkpt>
<trkpt lat="42.204296" lon="23.589614"><ele>2275.9</ele><time>2026-04-05T12:39:57.000Z</time></trkpt>
<trkpt lat="42.204305" lon="23.589603"><ele>2275.9</ele><time>2026-04-05T12:39:58.000Z</time></trkpt>
<trkpt lat="42.204315" lon="23.589592"><ele>2275.9</ele><time>2026-04-05T12:39:59.000Z</time></trkpt>
<trkpt lat="42.204324" lon="23.589582"><ele>2275.9</ele><time>2026-04-05T12:40:00.000Z</time></trkpt>
<trkpt lat="42.204333" lon="23.589572"><ele>2275.9</ele><time>2026-04-05T12:40:01.000Z</time></trkpt>
<trkpt lat="42.204341" lon="23.589562"><ele>2275.7</ele><time>2026-04-05T12:40:02.000Z</time></trkpt>
<trkpt lat="42.204349" lon="23.589553"><ele>2275.7</ele><time>2026-04-05T12:40:03.000Z</time></trkpt>
<trkpt lat="42.204358" lon="23.589544"><ele>2275.7</ele><time>2026-04-05T12:40:04.000Z</time></trkpt>
<trkpt lat="42.204366" lon="23.589534"><ele>2275.7</ele><time>2026-04-05T12:40:05.000Z</time></trkpt>
<trkpt lat="42.204376" lon="23.589525"><ele>2275.7</ele><time>2026-04-05T12:40:06.000Z</time></trkpt>
<trkpt lat="42.204385" lon="23.589515"><ele>2275.5</ele><time>2026-04-05T12:40:07.000Z</time></trkpt>
<trkpt lat="42.204395" lon="23.589505"><ele>2275.5</ele><time>2026-04-05T12:40:08.000Z</time></trkpt>
<trkpt lat="42.204404" lon="23.589495"><ele>2275.5</ele><time>2026-04-05T12:40:09.000Z</time></trkpt>
<trkpt lat="42.204413" lon="23.589486"><ele>2275.5</ele><time>2026-04-05T12:40:10.000Z</time></trkpt>
<trkpt lat="42.204422" lon="23.589475"><ele>2275.5</ele><time>2026-04-05T12:40:11.000Z</time></trkpt>
<trkpt lat="42.204431" lon="23.589465"><ele>2275.1</ele><time>2026-04-05T12:40:12.000Z</time></trkpt>
<trkpt lat="42.20444" lon="23.589455"><ele>2275.1</ele><time>2026-04-05T12:40:13.000Z</time></trkpt>
<trkpt lat="42.204449" lon="23.589444"><ele>2275.1</ele><time>2026-04-05T12:40:14.000Z</time></trkpt>
<trkpt lat="42.204459" lon="23.589434"><ele>2275.1</ele><time>2026-04-05T12:40:15.000Z</time></trkpt>
<trkpt lat="42.204469" lon="23.589426"><ele>2275.1</ele><time>2026-04-05T12:40:16.000Z</time></trkpt>
<trkpt lat="42.204478" lon="23.589418"><ele>2274.5</ele><time>2026-04-05T12:40:17.000Z</time></trkpt>
<trkpt lat="42.204487" lon="23.58941"><ele>2274.5</ele><time>2026-04-05T12:40:18.000Z</time></trkpt>
<trkpt lat="42.204496" lon="23.589402"><ele>2274.5</ele><time>2026-04-05T12:40:19.000Z</time></trkpt>
<trkpt lat="42.204505" lon="23.589394"><ele>2274.5</ele><time>2026-04-05T12:40:20.000Z</time></trkpt>
<trkpt lat="42.204514" lon="23.589385"><ele>2274.5</ele><time>2026-04-05T12:40:21.000Z</time></trkpt>
<trkpt lat="42.204522" lon="23.589376"><ele>2274.2</ele><time>2026-04-05T12:40:22.000Z</time></trkpt>
<trkpt lat="42.204531" lon="23.589368"><ele>2274.2</ele><time>2026-04-05T12:40:23.000Z</time></trkpt>
<trkpt lat="42.20454" lon="23.58936"><ele>2274.2</ele><time>2026-04-05T12:40:24.000Z</time></trkpt>
<trkpt lat="42.204548" lon="23.589352"><ele>2274.2</ele><time>2026-04-05T12:40:25.000Z</time></trkpt>
<trkpt lat="42.204557" lon="23.589343"><ele>2274.2</ele><time>2026-04-05T12:40:26.000Z</time></trkpt>
<trkpt lat="42.204566" lon="23.589335"><ele>2273.8</ele><time>2026-04-05T12:40:27.000Z</time></trkpt>
<trkpt lat="42.204575" lon="23.589326"><ele>2273.8</ele><time>2026-04-05T12:40:28.000Z</time></trkpt>
<trkpt lat="42.204584" lon="23.589317"><ele>2273.8</ele><time>2026-04-05T12:40:29.000Z</time></trkpt>
<trkpt lat="42.204593" lon="23.589308"><ele>2273.8</ele><time>2026-04-05T12:40:30.000Z</time></trkpt>
<trkpt lat="42.204602" lon="23.589299"><ele>2273.8</ele><time>2026-04-05T12:40:31.000Z</time></trkpt>
<trkpt lat="42.204611" lon="23.589291"><ele>2273.6</ele><time>2026-04-05T12:40:32.000Z</time></trkpt>
<trkpt lat="42.204619" lon="23.589282"><ele>2273.6</ele><time>2026-04-05T12:40:33.000Z</time></trkpt>
<trkpt lat="42.204628" lon="23.589274"><ele>2273.6</ele><time>2026-04-05T12:40:34.000Z</time></trkpt>
<trkpt lat="42.204637" lon="23.589265"><ele>2273.6</ele><time>2026-04-05T12:40:35.000Z</time></trkpt>
<trkpt lat="42.204646" lon="23.589255"><ele>2273.6</ele><time>2026-04-05T12:40:36.000Z</time></trkpt>
<trkpt lat="42.204655" lon="23.589245"><ele>2273.5</ele><time>2026-04-05T12:40:37.000Z</time></trkpt>
<trkpt lat="42.204664" lon="23.589234"><ele>2273.5</ele><time>2026-04-05T12:40:38.000Z</time></trkpt>
<trkpt lat="42.204673" lon="23.589223"><ele>2273.5</ele><time>2026-04-05T12:40:39.000Z</time></trkpt>
<trkpt lat="42.204682" lon="23.589212"><ele>2273.5</ele><time>2026-04-05T12:40:40.000Z</time></trkpt>
<trkpt lat="42.20469" lon="23.589202"><ele>2273.5</ele><time>2026-04-05T12:40:41.000Z</time></trkpt>
<trkpt lat="42.204699" lon="23.589191"><ele>2273.3</ele><time>2026-04-05T12:40:42.000Z</time></trkpt>
<trkpt lat="42.204708" lon="23.589181"><ele>2273.3</ele><time>2026-04-05T12:40:43.000Z</time></trkpt>
<trkpt lat="42.204718" lon="23.58917"><ele>2273.3</ele><time>2026-04-05T12:40:44.000Z</time></trkpt>
<trkpt lat="42.204727" lon="23.589161"><ele>2273.3</ele><time>2026-04-05T12:40:45.000Z</time></trkpt>
<trkpt lat="42.204737" lon="23.589151"><ele>2273.3</ele><time>2026-04-05T12:40:46.000Z</time></trkpt>
<trkpt lat="42.204747" lon="23.589141"><ele>2272.8</ele><time>2026-04-05T12:40:47.000Z</time></trkpt>
<trkpt lat="42.204757" lon="23.589132"><ele>2272.8</ele><time>2026-04-05T12:40:48.000Z</time></trkpt>
<trkpt lat="42.204766" lon="23.589123"><ele>2272.8</ele><time>2026-04-05T12:40:49.000Z</time></trkpt>
<trkpt lat="42.204775" lon="23.589115"><ele>2272.8</ele><time>2026-04-05T12:40:50.000Z</time></trkpt>
<trkpt lat="42.204784" lon="23.589108"><ele>2272.8</ele><time>2026-04-05T12:40:51.000Z</time></trkpt>
<trkpt lat="42.204793" lon="23.589101"><ele>2272.5</ele><time>2026-04-05T12:40:52.000Z</time></trkpt>
<trkpt lat="42.204802" lon="23.589094"><ele>2272.5</ele><time>2026-04-05T12:40:53.000Z</time></trkpt>
<trkpt lat="42.204811" lon="23.589088"><ele>2272.5</ele><time>2026-04-05T12:40:54.000Z</time></trkpt>
<trkpt lat="42.204821" lon="23.589081"><ele>2272.5</ele><time>2026-04-05T12:40:55.000Z</time></trkpt>
<trkpt lat="42.20483" lon="23.589075"><ele>2272.5</ele><time>2026-04-05T12:40:56.000Z</time></trkpt>
<trkpt lat="42.204838" lon="23.589068"><ele>2272</ele><time>2026-04-05T12:40:57.000Z</time></trkpt>
<trkpt lat="42.204847" lon="23.589061"><ele>2272</ele><time>2026-04-05T12:40:58.000Z</time></trkpt>
<trkpt lat="42.204856" lon="23.589055"><ele>2272</ele><time>2026-04-05T12:40:59.000Z</time></trkpt>
<trkpt lat="42.204864" lon="23.589048"><ele>2272</ele><time>2026-04-05T12:41:00.000Z</time></trkpt>
<trkpt lat="42.204873" lon="23.589042"><ele>2272</ele><time>2026-04-05T12:41:01.000Z</time></trkpt>
<trkpt lat="42.204881" lon="23.589035"><ele>2271.8</ele><time>2026-04-05T12:41:02.000Z</time></trkpt>
<trkpt lat="42.20489" lon="23.589028"><ele>2271.8</ele><time>2026-04-05T12:41:03.000Z</time></trkpt>
<trkpt lat="42.204898" lon="23.58902"><ele>2271.8</ele><time>2026-04-05T12:41:04.000Z</time></trkpt>
<trkpt lat="42.204906" lon="23.589012"><ele>2271.8</ele><time>2026-04-05T12:41:05.000Z</time></trkpt>
<trkpt lat="42.204914" lon="23.589005"><ele>2271.8</ele><time>2026-04-05T12:41:06.000Z</time></trkpt>
<trkpt lat="42.204922" lon="23.588997"><ele>2271.8</ele><time>2026-04-05T12:41:07.000Z</time></trkpt>
<trkpt lat="42.204931" lon="23.58899"><ele>2271.8</ele><time>2026-04-05T12:41:08.000Z</time></trkpt>
<trkpt lat="42.20494" lon="23.588983"><ele>2271.8</ele><time>2026-04-05T12:41:09.000Z</time></trkpt>
<trkpt lat="42.20495" lon="23.588975"><ele>2271.8</ele><time>2026-04-05T12:41:10.000Z</time></trkpt>
<trkpt lat="42.204961" lon="23.588967"><ele>2271.8</ele><time>2026-04-05T12:41:11.000Z</time></trkpt>
<trkpt lat="42.204971" lon="23.588958"><ele>2271.8</ele><time>2026-04-05T12:41:12.000Z</time></trkpt>
<trkpt lat="42.20498" lon="23.588949"><ele>2271.8</ele><time>2026-04-05T12:41:13.000Z</time></trkpt>
<trkpt lat="42.204989" lon="23.588941"><ele>2271.8</ele><time>2026-04-05T12:41:14.000Z</time></trkpt>
<trkpt lat="42.204998" lon="23.588933"><ele>2271.8</ele><time>2026-04-05T12:41:15.000Z</time></trkpt>
<trkpt lat="42.205007" lon="23.588925"><ele>2271.8</ele><time>2026-04-05T12:41:16.000Z</time></trkpt>
<trkpt lat="42.205016" lon="23.588919"><ele>2271.6</ele><time>2026-04-05T12:41:17.000Z</time></trkpt>
<trkpt lat="42.205026" lon="23.588912"><ele>2271.6</ele><time>2026-04-05T12:41:18.000Z</time></trkpt>
<trkpt lat="42.205035" lon="23.588906"><ele>2271.6</ele><time>2026-04-05T12:41:19.000Z</time></trkpt>
<trkpt lat="42.205045" lon="23.588898"><ele>2271.6</ele><time>2026-04-05T12:41:20.000Z</time></trkpt>
<trkpt lat="42.205054" lon="23.58889"><ele>2271.6</ele><time>2026-04-05T12:41:21.000Z</time></trkpt>
<trkpt lat="42.205064" lon="23.588883"><ele>2271.4</ele><time>2026-04-05T12:41:22.000Z</time></trkpt>
<trkpt lat="42.205073" lon="23.588875"><ele>2271.4</ele><time>2026-04-05T12:41:23.000Z</time></trkpt>
<trkpt lat="42.205083" lon="23.588867"><ele>2271.4</ele><time>2026-04-05T12:41:24.000Z</time></trkpt>
<trkpt lat="42.205094" lon="23.58886"><ele>2271.4</ele><time>2026-04-05T12:41:25.000Z</time></trkpt>
<trkpt lat="42.205104" lon="23.588852"><ele>2271.4</ele><time>2026-04-05T12:41:26.000Z</time></trkpt>
<trkpt lat="42.205114" lon="23.588845"><ele>2270.9</ele><time>2026-04-05T12:41:27.000Z</time></trkpt>
<trkpt lat="42.205124" lon="23.588838"><ele>2270.9</ele><time>2026-04-05T12:41:28.000Z</time></trkpt>
<trkpt lat="42.205135" lon="23.58883"><ele>2270.9</ele><time>2026-04-05T12:41:29.000Z</time></trkpt>
<trkpt lat="42.205146" lon="23.588822"><ele>2270.9</ele><time>2026-04-05T12:41:30.000Z</time></trkpt>
<trkpt lat="42.205156" lon="23.588815"><ele>2270.9</ele><time>2026-04-05T12:41:31.000Z</time></trkpt>
<trkpt lat="42.205166" lon="23.588808"><ele>2270.5</ele><time>2026-04-05T12:41:32.000Z</time></trkpt>
<trkpt lat="42.205176" lon="23.5888"><ele>2270.5</ele><time>2026-04-05T12:41:33.000Z</time></trkpt>
<trkpt lat="42.205185" lon="23.588794"><ele>2270.5</ele><time>2026-04-05T12:41:34.000Z</time></trkpt>
<trkpt lat="42.205193" lon="23.588788"><ele>2270.5</ele><time>2026-04-05T12:41:35.000Z</time></trkpt>
<trkpt lat="42.205202" lon="23.588781"><ele>2270.5</ele><time>2026-04-05T12:41:36.000Z</time></trkpt>
<trkpt lat="42.205212" lon="23.588774"><ele>2270.4</ele><time>2026-04-05T12:41:37.000Z</time></trkpt>
<trkpt lat="42.205222" lon="23.588766"><ele>2270.4</ele><time>2026-04-05T12:41:38.000Z</time></trkpt>
<trkpt lat="42.205232" lon="23.588759"><ele>2270.4</ele><time>2026-04-05T12:41:39.000Z</time></trkpt>
<trkpt lat="42.205241" lon="23.588751"><ele>2270.4</ele><time>2026-04-05T12:41:40.000Z</time></trkpt>
<trkpt lat="42.20525" lon="23.588744"><ele>2270.4</ele><time>2026-04-05T12:41:41.000Z</time></trkpt>
<trkpt lat="42.205259" lon="23.588739"><ele>2270.2</ele><time>2026-04-05T12:41:42.000Z</time></trkpt>
<trkpt lat="42.205269" lon="23.588736"><ele>2270.2</ele><time>2026-04-05T12:41:43.000Z</time></trkpt>
<trkpt lat="42.205278" lon="23.588733"><ele>2270.2</ele><time>2026-04-05T12:41:44.000Z</time></trkpt>
<trkpt lat="42.205287" lon="23.588729"><ele>2270.2</ele><time>2026-04-05T12:41:45.000Z</time></trkpt>
<trkpt lat="42.205297" lon="23.588726"><ele>2270.2</ele><time>2026-04-05T12:41:46.000Z</time></trkpt>
<trkpt lat="42.205306" lon="23.58872"><ele>2270.1</ele><time>2026-04-05T12:41:47.000Z</time></trkpt>
<trkpt lat="42.205315" lon="23.588715"><ele>2270.1</ele><time>2026-04-05T12:41:48.000Z</time></trkpt>
<trkpt lat="42.205325" lon="23.588708"><ele>2270.1</ele><time>2026-04-05T12:41:49.000Z</time></trkpt>
<trkpt lat="42.205335" lon="23.588701"><ele>2270.1</ele><time>2026-04-05T12:41:50.000Z</time></trkpt>
<trkpt lat="42.205346" lon="23.588693"><ele>2270.1</ele><time>2026-04-05T12:41:51.000Z</time></trkpt>
<trkpt lat="42.205356" lon="23.588686"><ele>2270</ele><time>2026-04-05T12:41:52.000Z</time></trkpt>
<trkpt lat="42.205365" lon="23.588679"><ele>2270</ele><time>2026-04-05T12:41:53.000Z</time></trkpt>
<trkpt lat="42.205375" lon="23.588672"><ele>2270</ele><time>2026-04-05T12:41:54.000Z</time></trkpt>
<trkpt lat="42.205384" lon="23.588666"><ele>2270</ele><time>2026-04-05T12:41:55.000Z</time></trkpt>
<trkpt lat="42.205394" lon="23.588659"><ele>2270</ele><time>2026-04-05T12:41:56.000Z</time></trkpt>
<trkpt lat="42.205403" lon="23.588651"><ele>2269.9</ele><time>2026-04-05T12:41:57.000Z</time></trkpt>
<trkpt lat="42.205412" lon="23.588643"><ele>2269.9</ele><time>2026-04-05T12:41:58.000Z</time></trkpt>
<trkpt lat="42.205421" lon="23.588634"><ele>2269.9</ele><time>2026-04-05T12:41:59.000Z</time></trkpt>
<trkpt lat="42.205431" lon="23.588624"><ele>2269.9</ele><time>2026-04-05T12:42:00.000Z</time></trkpt>
<trkpt lat="42.205442" lon="23.588615"><ele>2269.9</ele><time>2026-04-05T12:42:01.000Z</time></trkpt>
<trkpt lat="42.205452" lon="23.588606"><ele>2269.8</ele><time>2026-04-05T12:42:02.000Z</time></trkpt>
<trkpt lat="42.205463" lon="23.588598"><ele>2269.8</ele><time>2026-04-05T12:42:03.000Z</time></trkpt>
<trkpt lat="42.205473" lon="23.588592"><ele>2269.8</ele><time>2026-04-05T12:42:04.000Z</time></trkpt>
<trkpt lat="42.205483" lon="23.588586"><ele>2269.8</ele><time>2026-04-05T12:42:05.000Z</time></trkpt>
<trkpt lat="42.205493" lon="23.588581"><ele>2269.8</ele><time>2026-04-05T12:42:06.000Z</time></trkpt>
<trkpt lat="42.205502" lon="23.588575"><ele>2269.8</ele><time>2026-04-05T12:42:07.000Z</time></trkpt>
<trkpt lat="42.205511" lon="23.588569"><ele>2269.8</ele><time>2026-04-05T12:42:08.000Z</time></trkpt>
<trkpt lat="42.205521" lon="23.588563"><ele>2269.8</ele><time>2026-04-05T12:42:09.000Z</time></trkpt>
<trkpt lat="42.20553" lon="23.588556"><ele>2269.8</ele><time>2026-04-05T12:42:10.000Z</time></trkpt>
<trkpt lat="42.205539" lon="23.588548"><ele>2269.8</ele><time>2026-04-05T12:42:11.000Z</time></trkpt>
<trkpt lat="42.205549" lon="23.588541"><ele>2269.6</ele><time>2026-04-05T12:42:12.000Z</time></trkpt>
<trkpt lat="42.20556" lon="23.588533"><ele>2269.6</ele><time>2026-04-05T12:42:13.000Z</time></trkpt>
<trkpt lat="42.205571" lon="23.588526"><ele>2269.6</ele><time>2026-04-05T12:42:14.000Z</time></trkpt>
<trkpt lat="42.205583" lon="23.588519"><ele>2269.6</ele><time>2026-04-05T12:42:15.000Z</time></trkpt>
<trkpt lat="42.205593" lon="23.588514"><ele>2269.6</ele><time>2026-04-05T12:42:16.000Z</time></trkpt>
<trkpt lat="42.205605" lon="23.588509"><ele>2269.3</ele><time>2026-04-05T12:42:17.000Z</time></trkpt>
<trkpt lat="42.205617" lon="23.588504"><ele>2269.3</ele><time>2026-04-05T12:42:18.000Z</time></trkpt>
<trkpt lat="42.205628" lon="23.588498"><ele>2269.3</ele><time>2026-04-05T12:42:19.000Z</time></trkpt>
<trkpt lat="42.205639" lon="23.588491"><ele>2269.3</ele><time>2026-04-05T12:42:20.000Z</time></trkpt>
<trkpt lat="42.20565" lon="23.588484"><ele>2269.3</ele><time>2026-04-05T12:42:21.000Z</time></trkpt>
<trkpt lat="42.205659" lon="23.588478"><ele>2269.1</ele><time>2026-04-05T12:42:22.000Z</time></trkpt>
<trkpt lat="42.205667" lon="23.588471"><ele>2269.1</ele><time>2026-04-05T12:42:23.000Z</time></trkpt>
<trkpt lat="42.205675" lon="23.588464"><ele>2269.1</ele><time>2026-04-05T12:42:24.000Z</time></trkpt>
<trkpt lat="42.205683" lon="23.588457"><ele>2269.1</ele><time>2026-04-05T12:42:25.000Z</time></trkpt>
<trkpt lat="42.205692" lon="23.58845"><ele>2269.1</ele><time>2026-04-05T12:42:26.000Z</time></trkpt>
<trkpt lat="42.205701" lon="23.588443"><ele>2268.8</ele><time>2026-04-05T12:42:27.000Z</time></trkpt>
<trkpt lat="42.205711" lon="23.588436"><ele>2268.8</ele><time>2026-04-05T12:42:28.000Z</time></trkpt>
<trkpt lat="42.205721" lon="23.588429"><ele>2268.8</ele><time>2026-04-05T12:42:29.000Z</time></trkpt>
<trkpt lat="42.205731" lon="23.588423"><ele>2268.8</ele><time>2026-04-05T12:42:30.000Z</time></trkpt>
<trkpt lat="42.205741" lon="23.588416"><ele>2268.8</ele><time>2026-04-05T12:42:31.000Z</time></trkpt>
<trkpt lat="42.20575" lon="23.58841"><ele>2268.9</ele><time>2026-04-05T12:42:32.000Z</time></trkpt>
<trkpt lat="42.20576" lon="23.588405"><ele>2268.9</ele><time>2026-04-05T12:42:33.000Z</time></trkpt>
<trkpt lat="42.205771" lon="23.588399"><ele>2268.9</ele><time>2026-04-05T12:42:34.000Z</time></trkpt>
<trkpt lat="42.20578" lon="23.588394"><ele>2268.9</ele><time>2026-04-05T12:42:35.000Z</time></trkpt>
<trkpt lat="42.205788" lon="23.58839"><ele>2268.9</ele><time>2026-04-05T12:42:36.000Z</time></trkpt>
<trkpt lat="42.205794" lon="23.588387"><ele>2269</ele><time>2026-04-05T12:42:37.000Z</time></trkpt>
<trkpt lat="42.2058" lon="23.588384"><ele>2269</ele><time>2026-04-05T12:42:38.000Z</time></trkpt>
<trkpt lat="42.205806" lon="23.58838"><ele>2269</ele><time>2026-04-05T12:42:39.000Z</time></trkpt>
<trkpt lat="42.205813" lon="23.588377"><ele>2269</ele><time>2026-04-05T12:42:40.000Z</time></trkpt>
<trkpt lat="42.205821" lon="23.588372"><ele>2269</ele><time>2026-04-05T12:42:41.000Z</time></trkpt>
<trkpt lat="42.205832" lon="23.588366"><ele>2269.1</ele><time>2026-04-05T12:42:42.000Z</time></trkpt>
<trkpt lat="42.205843" lon="23.588361"><ele>2269.1</ele><time>2026-04-05T12:42:43.000Z</time></trkpt>
<trkpt lat="42.205855" lon="23.588358"><ele>2269.1</ele><time>2026-04-05T12:42:44.000Z</time></trkpt>
<trkpt lat="42.205866" lon="23.588355"><ele>2269.1</ele><time>2026-04-05T12:42:45.000Z</time></trkpt>
<trkpt lat="42.205877" lon="23.588354"><ele>2269.1</ele><time>2026-04-05T12:42:46.000Z</time></trkpt>
<trkpt lat="42.205887" lon="23.588352"><ele>2269.2</ele><time>2026-04-05T12:42:47.000Z</time></trkpt>
<trkpt lat="42.205897" lon="23.588351"><ele>2269.2</ele><time>2026-04-05T12:42:48.000Z</time></trkpt>
<trkpt lat="42.205907" lon="23.588349"><ele>2269.2</ele><time>2026-04-05T12:42:49.000Z</time></trkpt>
<trkpt lat="42.205918" lon="23.588347"><ele>2269.2</ele><time>2026-04-05T12:42:50.000Z</time></trkpt>
<trkpt lat="42.205929" lon="23.588346"><ele>2269.2</ele><time>2026-04-05T12:42:51.000Z</time></trkpt>
<trkpt lat="42.20594" lon="23.588345"><ele>2269.1</ele><time>2026-04-05T12:42:52.000Z</time></trkpt>
<trkpt lat="42.205951" lon="23.588344"><ele>2269.1</ele><time>2026-04-05T12:42:53.000Z</time></trkpt>
<trkpt lat="42.205962" lon="23.588343"><ele>2269.1</ele><time>2026-04-05T12:42:54.000Z</time></trkpt>
<trkpt lat="42.205973" lon="23.588342"><ele>2269.1</ele><time>2026-04-05T12:42:55.000Z</time></trkpt>
<trkpt lat="42.205984" lon="23.58834"><ele>2269.1</ele><time>2026-04-05T12:42:56.000Z</time></trkpt>
<trkpt lat="42.205994" lon="23.588339"><ele>2268.9</ele><time>2026-04-05T12:42:57.000Z</time></trkpt>
<trkpt lat="42.206005" lon="23.588338"><ele>2268.9</ele><time>2026-04-05T12:42:58.000Z</time></trkpt>
<trkpt lat="42.206015" lon="23.588337"><ele>2268.9</ele><time>2026-04-05T12:42:59.000Z</time></trkpt>
<trkpt lat="42.206024" lon="23.588336"><ele>2268.9</ele><time>2026-04-05T12:43:00.000Z</time></trkpt>
<trkpt lat="42.206034" lon="23.588334"><ele>2268.9</ele><time>2026-04-05T12:43:01.000Z</time></trkpt>
<trkpt lat="42.206045" lon="23.588331"><ele>2268.4</ele><time>2026-04-05T12:43:02.000Z</time></trkpt>
<trkpt lat="42.206056" lon="23.588329"><ele>2268.4</ele><time>2026-04-05T12:43:03.000Z</time></trkpt>
<trkpt lat="42.206067" lon="23.588327"><ele>2268.4</ele><time>2026-04-05T12:43:04.000Z</time></trkpt>
<trkpt lat="42.206078" lon="23.588325"><ele>2268.4</ele><time>2026-04-05T12:43:05.000Z</time></trkpt>
<trkpt lat="42.206089" lon="23.588324"><ele>2268.4</ele><time>2026-04-05T12:43:06.000Z</time></trkpt>
<trkpt lat="42.206101" lon="23.588323"><ele>2268.1</ele><time>2026-04-05T12:43:07.000Z</time></trkpt>
<trkpt lat="42.206113" lon="23.588321"><ele>2268.1</ele><time>2026-04-05T12:43:08.000Z</time></trkpt>
<trkpt lat="42.206125" lon="23.588319"><ele>2268.1</ele><time>2026-04-05T12:43:09.000Z</time></trkpt>
<trkpt lat="42.206138" lon="23.588316"><ele>2268.1</ele><time>2026-04-05T12:43:10.000Z</time></trkpt>
<trkpt lat="42.20615" lon="23.588313"><ele>2268.1</ele><time>2026-04-05T12:43:11.000Z</time></trkpt>
<trkpt lat="42.206161" lon="23.58831"><ele>2267.7</ele><time>2026-04-05T12:43:12.000Z</time></trkpt>
<trkpt lat="42.206173" lon="23.588307"><ele>2267.7</ele><time>2026-04-05T12:43:13.000Z</time></trkpt>
<trkpt lat="42.206184" lon="23.588304"><ele>2267.7</ele><time>2026-04-05T12:43:14.000Z</time></trkpt>
<trkpt lat="42.206196" lon="23.5883"><ele>2267.7</ele><time>2026-04-05T12:43:15.000Z</time></trkpt>
<trkpt lat="42.206207" lon="23.588297"><ele>2267.7</ele><time>2026-04-05T12:43:16.000Z</time></trkpt>
<trkpt lat="42.206218" lon="23.588293"><ele>2267.3</ele><time>2026-04-05T12:43:17.000Z</time></trkpt>
<trkpt lat="42.206228" lon="23.588288"><ele>2267.3</ele><time>2026-04-05T12:43:18.000Z</time></trkpt>
<trkpt lat="42.206238" lon="23.588283"><ele>2267.3</ele><time>2026-04-05T12:43:19.000Z</time></trkpt>
<trkpt lat="42.206249" lon="23.588277"><ele>2267.3</ele><time>2026-04-05T12:43:20.000Z</time></trkpt>
<trkpt lat="42.20626" lon="23.588272"><ele>2267.3</ele><time>2026-04-05T12:43:21.000Z</time></trkpt>
<trkpt lat="42.206271" lon="23.588268"><ele>2267</ele><time>2026-04-05T12:43:22.000Z</time></trkpt>
<trkpt lat="42.206282" lon="23.588263"><ele>2267</ele><time>2026-04-05T12:43:23.000Z</time></trkpt>
<trkpt lat="42.206293" lon="23.58826"><ele>2267</ele><time>2026-04-05T12:43:24.000Z</time></trkpt>
<trkpt lat="42.206304" lon="23.588257"><ele>2267</ele><time>2026-04-05T12:43:25.000Z</time></trkpt>
<trkpt lat="42.206315" lon="23.588255"><ele>2267</ele><time>2026-04-05T12:43:26.000Z</time></trkpt>
<trkpt lat="42.206326" lon="23.588251"><ele>2266.3</ele><time>2026-04-05T12:43:27.000Z</time></trkpt>
<trkpt lat="42.206336" lon="23.588248"><ele>2266.3</ele><time>2026-04-05T12:43:28.000Z</time></trkpt>
<trkpt lat="42.206346" lon="23.588244"><ele>2266.3</ele><time>2026-04-05T12:43:29.000Z</time></trkpt>
<trkpt lat="42.206356" lon="23.58824"><ele>2266.3</ele><time>2026-04-05T12:43:30.000Z</time></trkpt>
<trkpt lat="42.206367" lon="23.588237"><ele>2266.3</ele><time>2026-04-05T12:43:31.000Z</time></trkpt>
<trkpt lat="42.206378" lon="23.588233"><ele>2265.3</ele><time>2026-04-05T12:43:32.000Z</time></trkpt>
<trkpt lat="42.20639" lon="23.588229"><ele>2265.3</ele><time>2026-04-05T12:43:33.000Z</time></trkpt>
<trkpt lat="42.206402" lon="23.588224"><ele>2265.3</ele><time>2026-04-05T12:43:34.000Z</time></trkpt>
<trkpt lat="42.206414" lon="23.588219"><ele>2265.3</ele><time>2026-04-05T12:43:35.000Z</time></trkpt>
<trkpt lat="42.206425" lon="23.588214"><ele>2265.3</ele><time>2026-04-05T12:43:36.000Z</time></trkpt>
<trkpt lat="42.206436" lon="23.58821"><ele>2264.7</ele><time>2026-04-05T12:43:37.000Z</time></trkpt>
<trkpt lat="42.206446" lon="23.588206"><ele>2264.7</ele><time>2026-04-05T12:43:38.000Z</time></trkpt>
<trkpt lat="42.206457" lon="23.588203"><ele>2264.7</ele><time>2026-04-05T12:43:39.000Z</time></trkpt>
<trkpt lat="42.206467" lon="23.5882"><ele>2264.7</ele><time>2026-04-05T12:43:40.000Z</time></trkpt>
<trkpt lat="42.206478" lon="23.588197"><ele>2264.7</ele><time>2026-04-05T12:43:41.000Z</time></trkpt>
<trkpt lat="42.206489" lon="23.588195"><ele>2263.5</ele><time>2026-04-05T12:43:42.000Z</time></trkpt>
<trkpt lat="42.2065" lon="23.588192"><ele>2263.5</ele><time>2026-04-05T12:43:43.000Z</time></trkpt>
<trkpt lat="42.206511" lon="23.588191"><ele>2263.5</ele><time>2026-04-05T12:43:44.000Z</time></trkpt>
<trkpt lat="42.206523" lon="23.588189"><ele>2263.5</ele><time>2026-04-05T12:43:45.000Z</time></trkpt>
<trkpt lat="42.206535" lon="23.588189"><ele>2263.5</ele><time>2026-04-05T12:43:46.000Z</time></trkpt>
<trkpt lat="42.206547" lon="23.588188"><ele>2262.3</ele><time>2026-04-05T12:43:47.000Z</time></trkpt>
<trkpt lat="42.206558" lon="23.588188"><ele>2262.3</ele><time>2026-04-05T12:43:48.000Z</time></trkpt>
<trkpt lat="42.206569" lon="23.588188"><ele>2262.3</ele><time>2026-04-05T12:43:49.000Z</time></trkpt>
<trkpt lat="42.20658" lon="23.588188"><ele>2262.3</ele><time>2026-04-05T12:43:50.000Z</time></trkpt>
<trkpt lat="42.206591" lon="23.588189"><ele>2262.3</ele><time>2026-04-05T12:43:51.000Z</time></trkpt>
<trkpt lat="42.206602" lon="23.588189"><ele>2261.8</ele><time>2026-04-05T12:43:52.000Z</time></trkpt>
<trkpt lat="42.206614" lon="23.588191"><ele>2261.8</ele><time>2026-04-05T12:43:53.000Z</time></trkpt>
<trkpt lat="42.206626" lon="23.588192"><ele>2261.8</ele><time>2026-04-05T12:43:54.000Z</time></trkpt>
<trkpt lat="42.206637" lon="23.588194"><ele>2261.8</ele><time>2026-04-05T12:43:55.000Z</time></trkpt>
<trkpt lat="42.206648" lon="23.588196"><ele>2261.8</ele><time>2026-04-05T12:43:56.000Z</time></trkpt>
<trkpt lat="42.206659" lon="23.588198"><ele>2260.7</ele><time>2026-04-05T12:43:57.000Z</time></trkpt>
<trkpt lat="42.206671" lon="23.5882"><ele>2260.7</ele><time>2026-04-05T12:43:58.000Z</time></trkpt>
<trkpt lat="42.206682" lon="23.588201"><ele>2260.7</ele><time>2026-04-05T12:43:59.000Z</time></trkpt>
<trkpt lat="42.206693" lon="23.588203"><ele>2260.7</ele><time>2026-04-05T12:44:00.000Z</time></trkpt>
<trkpt lat="42.206704" lon="23.588204"><ele>2260.7</ele><time>2026-04-05T12:44:01.000Z</time></trkpt>
<trkpt lat="42.206715" lon="23.588205"><ele>2259.8</ele><time>2026-04-05T12:44:02.000Z</time></trkpt>
<trkpt lat="42.206725" lon="23.588205"><ele>2259.8</ele><time>2026-04-05T12:44:03.000Z</time></trkpt>
<trkpt lat="42.206736" lon="23.588206"><ele>2259.8</ele><time>2026-04-05T12:44:04.000Z</time></trkpt>
<trkpt lat="42.206747" lon="23.588207"><ele>2259.8</ele><time>2026-04-05T12:44:05.000Z</time></trkpt>
<trkpt lat="42.206758" lon="23.588208"><ele>2259.8</ele><time>2026-04-05T12:44:06.000Z</time></trkpt>
<trkpt lat="42.206769" lon="23.588209"><ele>2259.4</ele><time>2026-04-05T12:44:07.000Z</time></trkpt>
<trkpt lat="42.206781" lon="23.588211"><ele>2259.4</ele><time>2026-04-05T12:44:08.000Z</time></trkpt>
<trkpt lat="42.206794" lon="23.588214"><ele>2259.4</ele><time>2026-04-05T12:44:09.000Z</time></trkpt>
<trkpt lat="42.206805" lon="23.588216"><ele>2259.4</ele><time>2026-04-05T12:44:10.000Z</time></trkpt>
<trkpt lat="42.206816" lon="23.588219"><ele>2259.4</ele><time>2026-04-05T12:44:11.000Z</time></trkpt>
<trkpt lat="42.206826" lon="23.588224"><ele>2258.8</ele><time>2026-04-05T12:44:12.000Z</time></trkpt>
<trkpt lat="42.206836" lon="23.588228"><ele>2258.8</ele><time>2026-04-05T12:44:13.000Z</time></trkpt>
<trkpt lat="42.206845" lon="23.58823"><ele>2258.8</ele><time>2026-04-05T12:44:14.000Z</time></trkpt>
<trkpt lat="42.206855" lon="23.588232"><ele>2258.8</ele><time>2026-04-05T12:44:15.000Z</time></trkpt>
<trkpt lat="42.206865" lon="23.588233"><ele>2258.8</ele><time>2026-04-05T12:44:16.000Z</time></trkpt>
<trkpt lat="42.206876" lon="23.588234"><ele>2258.2</ele><time>2026-04-05T12:44:17.000Z</time></trkpt>
<trkpt lat="42.206887" lon="23.588233"><ele>2258.2</ele><time>2026-04-05T12:44:18.000Z</time></trkpt>
<trkpt lat="42.206898" lon="23.588232"><ele>2258.2</ele><time>2026-04-05T12:44:19.000Z</time></trkpt>
<trkpt lat="42.20691" lon="23.58823"><ele>2258.2</ele><time>2026-04-05T12:44:20.000Z</time></trkpt>
<trkpt lat="42.206921" lon="23.588228"><ele>2258.2</ele><time>2026-04-05T12:44:21.000Z</time></trkpt>
<trkpt lat="42.206933" lon="23.588225"><ele>2257.8</ele><time>2026-04-05T12:44:22.000Z</time></trkpt>
<trkpt lat="42.206945" lon="23.588224"><ele>2257.8</ele><time>2026-04-05T12:44:23.000Z</time></trkpt>
<trkpt lat="42.206956" lon="23.588221"><ele>2257.8</ele><time>2026-04-05T12:44:24.000Z</time></trkpt>
<trkpt lat="42.206967" lon="23.588218"><ele>2257.8</ele><time>2026-04-05T12:44:25.000Z</time></trkpt>
<trkpt lat="42.206979" lon="23.588216"><ele>2257.8</ele><time>2026-04-05T12:44:26.000Z</time></trkpt>
<trkpt lat="42.206989" lon="23.588213"><ele>2257.1</ele><time>2026-04-05T12:44:27.000Z</time></trkpt>
<trkpt lat="42.207" lon="23.58821"><ele>2257.1</ele><time>2026-04-05T12:44:28.000Z</time></trkpt>
<trkpt lat="42.20701" lon="23.588207"><ele>2257.1</ele><time>2026-04-05T12:44:29.000Z</time></trkpt>
<trkpt lat="42.20702" lon="23.588206"><ele>2257.1</ele><time>2026-04-05T12:44:30.000Z</time></trkpt>
<trkpt lat="42.207031" lon="23.588203"><ele>2257.1</ele><time>2026-04-05T12:44:31.000Z</time></trkpt>
<trkpt lat="42.207041" lon="23.5882"><ele>2256.3</ele><time>2026-04-05T12:44:32.000Z</time></trkpt>
<trkpt lat="42.207052" lon="23.588198"><ele>2256.3</ele><time>2026-04-05T12:44:33.000Z</time></trkpt>
<trkpt lat="42.207064" lon="23.588195"><ele>2256.3</ele><time>2026-04-05T12:44:34.000Z</time></trkpt>
<trkpt lat="42.207076" lon="23.588192"><ele>2256.3</ele><time>2026-04-05T12:44:35.000Z</time></trkpt>
<trkpt lat="42.207089" lon="23.588189"><ele>2256.3</ele><time>2026-04-05T12:44:36.000Z</time></trkpt>
<trkpt lat="42.207101" lon="23.588185"><ele>2256</ele><time>2026-04-05T12:44:37.000Z</time></trkpt>
<trkpt lat="42.207113" lon="23.588182"><ele>2256</ele><time>2026-04-05T12:44:38.000Z</time></trkpt>
<trkpt lat="42.207125" lon="23.588178"><ele>2256</ele><time>2026-04-05T12:44:39.000Z</time></trkpt>
<trkpt lat="42.207136" lon="23.588173"><ele>2256</ele><time>2026-04-05T12:44:40.000Z</time></trkpt>
<trkpt lat="42.207147" lon="23.588167"><ele>2256</ele><time>2026-04-05T12:44:41.000Z</time></trkpt>
<trkpt lat="42.207158" lon="23.588161"><ele>2255.3</ele><time>2026-04-05T12:44:42.000Z</time></trkpt>
<trkpt lat="42.207169" lon="23.588154"><ele>2255.3</ele><time>2026-04-05T12:44:43.000Z</time></trkpt>
<trkpt lat="42.207181" lon="23.588147"><ele>2255.3</ele><time>2026-04-05T12:44:44.000Z</time></trkpt>
<trkpt lat="42.207193" lon="23.58814"><ele>2255.3</ele><time>2026-04-05T12:44:45.000Z</time></trkpt>
<trkpt lat="42.207204" lon="23.588132"><ele>2255.3</ele><time>2026-04-05T12:44:46.000Z</time></trkpt>
<trkpt lat="42.207213" lon="23.588125"><ele>2254.5</ele><time>2026-04-05T12:44:47.000Z</time></trkpt>
<trkpt lat="42.207222" lon="23.588118"><ele>2254.5</ele><time>2026-04-05T12:44:48.000Z</time></trkpt>
<trkpt lat="42.20723" lon="23.58811"><ele>2254.5</ele><time>2026-04-05T12:44:49.000Z</time></trkpt>
<trkpt lat="42.207238" lon="23.588102"><ele>2254.5</ele><time>2026-04-05T12:44:50.000Z</time></trkpt>
<trkpt lat="42.207247" lon="23.588094"><ele>2254.5</ele><time>2026-04-05T12:44:51.000Z</time></trkpt>
<trkpt lat="42.207255" lon="23.588086"><ele>2254.1</ele><time>2026-04-05T12:44:52.000Z</time></trkpt>
<trkpt lat="42.207264" lon="23.588078"><ele>2254.1</ele><time>2026-04-05T12:44:53.000Z</time></trkpt>
<trkpt lat="42.207273" lon="23.58807"><ele>2254.1</ele><time>2026-04-05T12:44:54.000Z</time></trkpt>
<trkpt lat="42.207282" lon="23.588062"><ele>2254.1</ele><time>2026-04-05T12:44:55.000Z</time></trkpt>
<trkpt lat="42.207291" lon="23.588055"><ele>2254.1</ele><time>2026-04-05T12:44:56.000Z</time></trkpt>
<trkpt lat="42.207301" lon="23.588048"><ele>2253.2</ele><time>2026-04-05T12:44:57.000Z</time></trkpt>
<trkpt lat="42.207311" lon="23.58804"><ele>2253.2</ele><time>2026-04-05T12:44:58.000Z</time></trkpt>
<trkpt lat="42.207321" lon="23.588032"><ele>2253.2</ele><time>2026-04-05T12:44:59.000Z</time></trkpt>
<trkpt lat="42.207331" lon="23.588023"><ele>2253.2</ele><time>2026-04-05T12:45:00.000Z</time></trkpt>
<trkpt lat="42.20734" lon="23.588014"><ele>2253.2</ele><time>2026-04-05T12:45:01.000Z</time></trkpt>
<trkpt lat="42.20735" lon="23.588004"><ele>2252.3</ele><time>2026-04-05T12:45:02.000Z</time></trkpt>
<trkpt lat="42.207359" lon="23.587995"><ele>2252.3</ele><time>2026-04-05T12:45:03.000Z</time></trkpt>
<trkpt lat="42.207368" lon="23.587985"><ele>2252.3</ele><time>2026-04-05T12:45:04.000Z</time></trkpt>
<trkpt lat="42.207377" lon="23.587977"><ele>2252.3</ele><time>2026-04-05T12:45:05.000Z</time></trkpt>
<trkpt lat="42.207386" lon="23.587968"><ele>2252.3</ele><time>2026-04-05T12:45:06.000Z</time></trkpt>
<trkpt lat="42.207395" lon="23.587959"><ele>2252</ele><time>2026-04-05T12:45:07.000Z</time></trkpt>
<trkpt lat="42.207404" lon="23.587952"><ele>2252</ele><time>2026-04-05T12:45:08.000Z</time></trkpt>
<trkpt lat="42.207414" lon="23.587944"><ele>2252</ele><time>2026-04-05T12:45:09.000Z</time></trkpt>
<trkpt lat="42.207423" lon="23.587937"><ele>2252</ele><time>2026-04-05T12:45:10.000Z</time></trkpt>
<trkpt lat="42.207433" lon="23.587931"><ele>2252</ele><time>2026-04-05T12:45:11.000Z</time></trkpt>
<trkpt lat="42.207443" lon="23.587925"><ele>2251.3</ele><time>2026-04-05T12:45:12.000Z</time></trkpt>
<trkpt lat="42.207453" lon="23.587918"><ele>2251.3</ele><time>2026-04-05T12:45:13.000Z</time></trkpt>
<trkpt lat="42.207463" lon="23.587911"><ele>2251.3</ele><time>2026-04-05T12:45:14.000Z</time></trkpt>
<trkpt lat="42.207472" lon="23.587905"><ele>2251.3</ele><time>2026-04-05T12:45:15.000Z</time></trkpt>
<trkpt lat="42.207481" lon="23.587897"><ele>2251.3</ele><time>2026-04-05T12:45:16.000Z</time></trkpt>
<trkpt lat="42.20749" lon="23.587889"><ele>2250.3</ele><time>2026-04-05T12:45:17.000Z</time></trkpt>
<trkpt lat="42.207498" lon="23.58788"><ele>2250.3</ele><time>2026-04-05T12:45:18.000Z</time></trkpt>
<trkpt lat="42.207507" lon="23.587871"><ele>2250.3</ele><time>2026-04-05T12:45:19.000Z</time></trkpt>
<trkpt lat="42.207515" lon="23.587864"><ele>2250.3</ele><time>2026-04-05T12:45:20.000Z</time></trkpt>
<trkpt lat="42.207524" lon="23.587856"><ele>2250.3</ele><time>2026-04-05T12:45:21.000Z</time></trkpt>
<trkpt lat="42.207533" lon="23.58785"><ele>2249.7</ele><time>2026-04-05T12:45:22.000Z</time></trkpt>
<trkpt lat="42.207541" lon="23.587844"><ele>2249.7</ele><time>2026-04-05T12:45:23.000Z</time></trkpt>
<trkpt lat="42.20755" lon="23.587838"><ele>2249.7</ele><time>2026-04-05T12:45:24.000Z</time></trkpt>
<trkpt lat="42.207559" lon="23.587831"><ele>2249.7</ele><time>2026-04-05T12:45:25.000Z</time></trkpt>
<trkpt lat="42.207568" lon="23.587823"><ele>2249.7</ele><time>2026-04-05T12:45:26.000Z</time></trkpt>
<trkpt lat="42.207576" lon="23.587816"><ele>2248.5</ele><time>2026-04-05T12:45:27.000Z</time></trkpt>
<trkpt lat="42.207585" lon="23.587809"><ele>2248.5</ele><time>2026-04-05T12:45:28.000Z</time></trkpt>
<trkpt lat="42.207595" lon="23.587802"><ele>2248.5</ele><time>2026-04-05T12:45:29.000Z</time></trkpt>
<trkpt lat="42.207604" lon="23.587795"><ele>2248.5</ele><time>2026-04-05T12:45:30.000Z</time></trkpt>
<trkpt lat="42.207614" lon="23.587788"><ele>2248.5</ele><time>2026-04-05T12:45:31.000Z</time></trkpt>
<trkpt lat="42.207623" lon="23.587781"><ele>2247.4</ele><time>2026-04-05T12:45:32.000Z</time></trkpt>
<trkpt lat="42.207632" lon="23.587773"><ele>2247.4</ele><time>2026-04-05T12:45:33.000Z</time></trkpt>
<trkpt lat="42.207641" lon="23.587765"><ele>2247.4</ele><time>2026-04-05T12:45:34.000Z</time></trkpt>
<trkpt lat="42.20765" lon="23.587758"><ele>2247.4</ele><time>2026-04-05T12:45:35.000Z</time></trkpt>
<trkpt lat="42.207659" lon="23.587752"><ele>2247.4</ele><time>2026-04-05T12:45:36.000Z</time></trkpt>
<trkpt lat="42.207669" lon="23.587746"><ele>2246.8</ele><time>2026-04-05T12:45:37.000Z</time></trkpt>
<trkpt lat="42.20768" lon="23.587742"><ele>2246.8</ele><time>2026-04-05T12:45:38.000Z</time></trkpt>
<trkpt lat="42.207691" lon="23.587738"><ele>2246.8</ele><time>2026-04-05T12:45:39.000Z</time></trkpt>
<trkpt lat="42.207702" lon="23.587736"><ele>2246.8</ele><time>2026-04-05T12:45:40.000Z</time></trkpt>
<trkpt lat="42.207713" lon="23.587733"><ele>2246.8</ele><time>2026-04-05T12:45:41.000Z</time></trkpt>
<trkpt lat="42.207724" lon="23.587729"><ele>2245.5</ele><time>2026-04-05T12:45:42.000Z</time></trkpt>
<trkpt lat="42.207735" lon="23.587725"><ele>2245.5</ele><time>2026-04-05T12:45:43.000Z</time></trkpt>
<trkpt lat="42.207747" lon="23.58772"><ele>2245.5</ele><time>2026-04-05T12:45:44.000Z</time></trkpt>
<trkpt lat="42.207758" lon="23.587716"><ele>2245.5</ele><time>2026-04-05T12:45:45.000Z</time></trkpt>
<trkpt lat="42.207769" lon="23.587712"><ele>2245.5</ele><time>2026-04-05T12:45:46.000Z</time></trkpt>
<trkpt lat="42.20778" lon="23.587707"><ele>2244.3</ele><time>2026-04-05T12:45:47.000Z</time></trkpt>
<trkpt lat="42.207791" lon="23.587702"><ele>2244.3</ele><time>2026-04-05T12:45:48.000Z</time></trkpt>
<trkpt lat="42.207801" lon="23.587697"><ele>2244.3</ele><time>2026-04-05T12:45:49.000Z</time></trkpt>
<trkpt lat="42.207811" lon="23.587691"><ele>2244.3</ele><time>2026-04-05T12:45:50.000Z</time></trkpt>
<trkpt lat="42.207822" lon="23.587685"><ele>2244.3</ele><time>2026-04-05T12:45:51.000Z</time></trkpt>
<trkpt lat="42.207832" lon="23.587679"><ele>2243.8</ele><time>2026-04-05T12:45:52.000Z</time></trkpt>
<trkpt lat="42.207843" lon="23.587673"><ele>2243.8</ele><time>2026-04-05T12:45:53.000Z</time></trkpt>
<trkpt lat="42.207854" lon="23.587668"><ele>2243.8</ele><time>2026-04-05T12:45:54.000Z</time></trkpt>
<trkpt lat="42.207865" lon="23.587663"><ele>2243.8</ele><time>2026-04-05T12:45:55.000Z</time></trkpt>
<trkpt lat="42.207875" lon="23.587658"><ele>2243.8</ele><time>2026-04-05T12:45:56.000Z</time></trkpt>
<trkpt lat="42.207886" lon="23.587652"><ele>2242.8</ele><time>2026-04-05T12:45:57.000Z</time></trkpt>
<trkpt lat="42.207896" lon="23.587646"><ele>2242.8</ele><time>2026-04-05T12:45:58.000Z</time></trkpt>
<trkpt lat="42.207907" lon="23.58764"><ele>2242.8</ele><time>2026-04-05T12:45:59.000Z</time></trkpt>
<trkpt lat="42.207918" lon="23.587633"><ele>2242.8</ele><time>2026-04-05T12:46:00.000Z</time></trkpt>
<trkpt lat="42.207929" lon="23.587627"><ele>2242.8</ele><time>2026-04-05T12:46:01.000Z</time></trkpt>
<trkpt lat="42.207941" lon="23.587621"><ele>2241.8</ele><time>2026-04-05T12:46:02.000Z</time></trkpt>
<trkpt lat="42.207952" lon="23.587616"><ele>2241.8</ele><time>2026-04-05T12:46:03.000Z</time></trkpt>
<trkpt lat="42.207963" lon="23.587611"><ele>2241.8</ele><time>2026-04-05T12:46:04.000Z</time></trkpt>
<trkpt lat="42.207973" lon="23.587605"><ele>2241.8</ele><time>2026-04-05T12:46:05.000Z</time></trkpt>
<trkpt lat="42.207981" lon="23.587598"><ele>2241.8</ele><time>2026-04-05T12:46:06.000Z</time></trkpt>
<trkpt lat="42.207989" lon="23.587591"><ele>2241.3</ele><time>2026-04-05T12:46:07.000Z</time></trkpt>
<trkpt lat="42.207997" lon="23.587583"><ele>2241.3</ele><time>2026-04-05T12:46:08.000Z</time></trkpt>
<trkpt lat="42.208006" lon="23.587576"><ele>2241.3</ele><time>2026-04-05T12:46:09.000Z</time></trkpt>
<trkpt lat="42.208015" lon="23.587569"><ele>2241.3</ele><time>2026-04-05T12:46:10.000Z</time></trkpt>
<trkpt lat="42.208026" lon="23.587563"><ele>2241.3</ele><time>2026-04-05T12:46:11.000Z</time></trkpt>
<trkpt lat="42.208036" lon="23.587556"><ele>2240.2</ele><time>2026-04-05T12:46:12.000Z</time></trkpt>
<trkpt lat="42.208047" lon="23.58755"><ele>2240.2</ele><time>2026-04-05T12:46:13.000Z</time></trkpt>
<trkpt lat="42.208058" lon="23.587543"><ele>2240.2</ele><time>2026-04-05T12:46:14.000Z</time></trkpt>
<trkpt lat="42.208068" lon="23.587536"><ele>2240.2</ele><time>2026-04-05T12:46:15.000Z</time></trkpt>
<trkpt lat="42.208079" lon="23.58753"><ele>2240.2</ele><time>2026-04-05T12:46:16.000Z</time></trkpt>
<trkpt lat="42.208089" lon="23.587525"><ele>2238.9</ele><time>2026-04-05T12:46:17.000Z</time></trkpt>
<trkpt lat="42.208099" lon="23.587519"><ele>2238.9</ele><time>2026-04-05T12:46:18.000Z</time></trkpt>
<trkpt lat="42.208109" lon="23.587514"><ele>2238.9</ele><time>2026-04-05T12:46:19.000Z</time></trkpt>
<trkpt lat="42.20812" lon="23.587508"><ele>2238.9</ele><time>2026-04-05T12:46:20.000Z</time></trkpt>
<trkpt lat="42.20813" lon="23.587504"><ele>2238.9</ele><time>2026-04-05T12:46:21.000Z</time></trkpt>
<trkpt lat="42.208142" lon="23.5875"><ele>2238.3</ele><time>2026-04-05T12:46:22.000Z</time></trkpt>
<trkpt lat="42.208153" lon="23.587497"><ele>2238.3</ele><time>2026-04-05T12:46:23.000Z</time></trkpt>
<trkpt lat="42.208165" lon="23.587497"><ele>2238.3</ele><time>2026-04-05T12:46:24.000Z</time></trkpt>
<trkpt lat="42.208176" lon="23.587496"><ele>2238.3</ele><time>2026-04-05T12:46:25.000Z</time></trkpt>
<trkpt lat="42.208187" lon="23.587495"><ele>2238.3</ele><time>2026-04-05T12:46:26.000Z</time></trkpt>
<trkpt lat="42.208198" lon="23.587495"><ele>2237.2</ele><time>2026-04-05T12:46:27.000Z</time></trkpt>
<trkpt lat="42.208209" lon="23.587494"><ele>2237.2</ele><time>2026-04-05T12:46:28.000Z</time></trkpt>
<trkpt lat="42.20822" lon="23.587492"><ele>2237.2</ele><time>2026-04-05T12:46:29.000Z</time></trkpt>
<trkpt lat="42.208232" lon="23.58749"><ele>2237.2</ele><time>2026-04-05T12:46:30.000Z</time></trkpt>
<trkpt lat="42.208245" lon="23.587489"><ele>2237.2</ele><time>2026-04-05T12:46:31.000Z</time></trkpt>
<trkpt lat="42.208257" lon="23.587489"><ele>2236.3</ele><time>2026-04-05T12:46:32.000Z</time></trkpt>
<trkpt lat="42.208271" lon="23.587489"><ele>2236.3</ele><time>2026-04-05T12:46:33.000Z</time></trkpt>
<trkpt lat="42.208284" lon="23.58749"><ele>2236.3</ele><time>2026-04-05T12:46:34.000Z</time></trkpt>
<trkpt lat="42.208297" lon="23.587491"><ele>2236.3</ele><time>2026-04-05T12:46:35.000Z</time></trkpt>
<trkpt lat="42.20831" lon="23.587492"><ele>2236.3</ele><time>2026-04-05T12:46:36.000Z</time></trkpt>
<trkpt lat="42.208322" lon="23.587492"><ele>2236</ele><time>2026-04-05T12:46:37.000Z</time></trkpt>
<trkpt lat="42.208333" lon="23.587491"><ele>2236</ele><time>2026-04-05T12:46:38.000Z</time></trkpt>
<trkpt lat="42.208344" lon="23.587489"><ele>2236</ele><time>2026-04-05T12:46:39.000Z</time></trkpt>
<trkpt lat="42.208354" lon="23.587487"><ele>2236</ele><time>2026-04-05T12:46:40.000Z</time></trkpt>
<trkpt lat="42.208363" lon="23.587483"><ele>2236</ele><time>2026-04-05T12:46:41.000Z</time></trkpt>
<trkpt lat="42.208373" lon="23.587479"><ele>2235.1</ele><time>2026-04-05T12:46:42.000Z</time></trkpt>
<trkpt lat="42.208383" lon="23.587475"><ele>2235.1</ele><time>2026-04-05T12:46:43.000Z</time></trkpt>
<trkpt lat="42.208393" lon="23.587469"><ele>2235.1</ele><time>2026-04-05T12:46:44.000Z</time></trkpt>
<trkpt lat="42.208403" lon="23.587464"><ele>2235.1</ele><time>2026-04-05T12:46:45.000Z</time></trkpt>
<trkpt lat="42.208414" lon="23.587458"><ele>2235.1</ele><time>2026-04-05T12:46:46.000Z</time></trkpt>
<trkpt lat="42.208424" lon="23.587452"><ele>2233.9</ele><time>2026-04-05T12:46:47.000Z</time></trkpt>
<trkpt lat="42.208435" lon="23.587446"><ele>2233.9</ele><time>2026-04-05T12:46:48.000Z</time></trkpt>
<trkpt lat="42.208445" lon="23.587438"><ele>2233.9</ele><time>2026-04-05T12:46:49.000Z</time></trkpt>
<trkpt lat="42.208456" lon="23.58743"><ele>2233.9</ele><time>2026-04-05T12:46:50.000Z</time></trkpt>
<trkpt lat="42.208467" lon="23.587422"><ele>2233.9</ele><time>2026-04-05T12:46:51.000Z</time></trkpt>
<trkpt lat="42.208477" lon="23.587412"><ele>2233.2</ele><time>2026-04-05T12:46:52.000Z</time></trkpt>
<trkpt lat="42.208488" lon="23.587404"><ele>2233.2</ele><time>2026-04-05T12:46:53.000Z</time></trkpt>
<trkpt lat="42.208499" lon="23.587396"><ele>2233.2</ele><time>2026-04-05T12:46:54.000Z</time></trkpt>
<trkpt lat="42.208509" lon="23.587389"><ele>2233.2</ele><time>2026-04-05T12:46:55.000Z</time></trkpt>
<trkpt lat="42.208519" lon="23.587382"><ele>2233.2</ele><time>2026-04-05T12:46:56.000Z</time></trkpt>
<trkpt lat="42.208529" lon="23.587376"><ele>2232</ele><time>2026-04-05T12:46:57.000Z</time></trkpt>
<trkpt lat="42.208538" lon="23.587368"><ele>2232</ele><time>2026-04-05T12:46:58.000Z</time></trkpt>
<trkpt lat="42.208548" lon="23.58736"><ele>2232</ele><time>2026-04-05T12:46:59.000Z</time></trkpt>
<trkpt lat="42.208557" lon="23.587351"><ele>2232</ele><time>2026-04-05T12:47:00.000Z</time></trkpt>
<trkpt lat="42.208568" lon="23.587342"><ele>2232</ele><time>2026-04-05T12:47:01.000Z</time></trkpt>
<trkpt lat="42.208579" lon="23.587335"><ele>2230.9</ele><time>2026-04-05T12:47:02.000Z</time></trkpt>
<trkpt lat="42.20859" lon="23.587328"><ele>2230.9</ele><time>2026-04-05T12:47:03.000Z</time></trkpt>
<trkpt lat="42.208601" lon="23.587323"><ele>2230.9</ele><time>2026-04-05T12:47:04.000Z</time></trkpt>
<trkpt lat="42.208611" lon="23.587318"><ele>2230.9</ele><time>2026-04-05T12:47:05.000Z</time></trkpt>
<trkpt lat="42.208621" lon="23.587312"><ele>2230.9</ele><time>2026-04-05T12:47:06.000Z</time></trkpt>
<trkpt lat="42.20863" lon="23.587306"><ele>2230.5</ele><time>2026-04-05T12:47:07.000Z</time></trkpt>
<trkpt lat="42.20864" lon="23.587299"><ele>2230.5</ele><time>2026-04-05T12:47:08.000Z</time></trkpt>
<trkpt lat="42.208649" lon="23.587292"><ele>2230.5</ele><time>2026-04-05T12:47:09.000Z</time></trkpt>
<trkpt lat="42.20866" lon="23.587286"><ele>2230.5</ele><time>2026-04-05T12:47:10.000Z</time></trkpt>
<trkpt lat="42.208671" lon="23.587279"><ele>2230.5</ele><time>2026-04-05T12:47:11.000Z</time></trkpt>
<trkpt lat="42.208682" lon="23.587273"><ele>2229.4</ele><time>2026-04-05T12:47:12.000Z</time></trkpt>
<trkpt lat="42.208693" lon="23.587267"><ele>2229.4</ele><time>2026-04-05T12:47:13.000Z</time></trkpt>
<trkpt lat="42.208703" lon="23.58726"><ele>2229.4</ele><time>2026-04-05T12:47:14.000Z</time></trkpt>
<trkpt lat="42.208713" lon="23.587254"><ele>2229.4</ele><time>2026-04-05T12:47:15.000Z</time></trkpt>
<trkpt lat="42.208723" lon="23.587249"><ele>2229.4</ele><time>2026-04-05T12:47:16.000Z</time></trkpt>
<trkpt lat="42.208733" lon="23.587245"><ele>2228.3</ele><time>2026-04-05T12:47:17.000Z</time></trkpt>
<trkpt lat="42.208744" lon="23.587241"><ele>2228.3</ele><time>2026-04-05T12:47:18.000Z</time></trkpt>
<trkpt lat="42.208754" lon="23.587238"><ele>2228.3</ele><time>2026-04-05T12:47:19.000Z</time></trkpt>
<trkpt lat="42.208765" lon="23.587234"><ele>2228.3</ele><time>2026-04-05T12:47:20.000Z</time></trkpt>
<trkpt lat="42.208777" lon="23.587229"><ele>2228.3</ele><time>2026-04-05T12:47:21.000Z</time></trkpt>
<trkpt lat="42.208788" lon="23.587225"><ele>2227.7</ele><time>2026-04-05T12:47:22.000Z</time></trkpt>
<trkpt lat="42.2088" lon="23.58722"><ele>2227.7</ele><time>2026-04-05T12:47:23.000Z</time></trkpt>
<trkpt lat="42.208812" lon="23.587215"><ele>2227.7</ele><time>2026-04-05T12:47:24.000Z</time></trkpt>
<trkpt lat="42.208824" lon="23.587212"><ele>2227.7</ele><time>2026-04-05T12:47:25.000Z</time></trkpt>
<trkpt lat="42.208835" lon="23.587209"><ele>2227.7</ele><time>2026-04-05T12:47:26.000Z</time></trkpt>
<trkpt lat="42.208847" lon="23.587207"><ele>2226.6</ele><time>2026-04-05T12:47:27.000Z</time></trkpt>
<trkpt lat="42.208858" lon="23.587204"><ele>2226.6</ele><time>2026-04-05T12:47:28.000Z</time></trkpt>
<trkpt lat="42.208869" lon="23.587203"><ele>2226.6</ele><time>2026-04-05T12:47:29.000Z</time></trkpt>
<trkpt lat="42.20888" lon="23.587201"><ele>2226.6</ele><time>2026-04-05T12:47:30.000Z</time></trkpt>
<trkpt lat="42.208891" lon="23.5872"><ele>2226.6</ele><time>2026-04-05T12:47:31.000Z</time></trkpt>
<trkpt lat="42.208903" lon="23.5872"><ele>2225.5</ele><time>2026-04-05T12:47:32.000Z</time></trkpt>
<trkpt lat="42.208915" lon="23.5872"><ele>2225.5</ele><time>2026-04-05T12:47:33.000Z</time></trkpt>
<trkpt lat="42.208927" lon="23.5872"><ele>2225.5</ele><time>2026-04-05T12:47:34.000Z</time></trkpt>
<trkpt lat="42.208939" lon="23.587199"><ele>2225.5</ele><time>2026-04-05T12:47:35.000Z</time></trkpt>
<trkpt lat="42.208951" lon="23.587198"><ele>2225.5</ele><time>2026-04-05T12:47:36.000Z</time></trkpt>
<trkpt lat="42.208962" lon="23.587198"><ele>2225</ele><time>2026-04-05T12:47:37.000Z</time></trkpt>
<trkpt lat="42.208972" lon="23.587197"><ele>2225</ele><time>2026-04-05T12:47:38.000Z</time></trkpt>
<trkpt lat="42.208983" lon="23.587196"><ele>2225</ele><time>2026-04-05T12:47:39.000Z</time></trkpt>
<trkpt lat="42.208994" lon="23.587195"><ele>2225</ele><time>2026-04-05T12:47:40.000Z</time></trkpt>
<trkpt lat="42.209005" lon="23.587194"><ele>2225</ele><time>2026-04-05T12:47:41.000Z</time></trkpt>
<trkpt lat="42.209017" lon="23.587193"><ele>2224.1</ele><time>2026-04-05T12:47:42.000Z</time></trkpt>
<trkpt lat="42.209028" lon="23.587193"><ele>2224.1</ele><time>2026-04-05T12:47:43.000Z</time></trkpt>
<trkpt lat="42.20904" lon="23.587193"><ele>2224.1</ele><time>2026-04-05T12:47:44.000Z</time></trkpt>
<trkpt lat="42.209051" lon="23.587193"><ele>2224.1</ele><time>2026-04-05T12:47:45.000Z</time></trkpt>
<trkpt lat="42.209063" lon="23.587193"><ele>2224.1</ele><time>2026-04-05T12:47:46.000Z</time></trkpt>
<trkpt lat="42.209074" lon="23.587193"><ele>2223.4</ele><time>2026-04-05T12:47:47.000Z</time></trkpt>
<trkpt lat="42.209085" lon="23.587192"><ele>2223.4</ele><time>2026-04-05T12:47:48.000Z</time></trkpt>
<trkpt lat="42.209096" lon="23.58719"><ele>2223.4</ele><time>2026-04-05T12:47:49.000Z</time></trkpt>
<trkpt lat="42.209107" lon="23.587189"><ele>2223.4</ele><time>2026-04-05T12:47:50.000Z</time></trkpt>
<trkpt lat="42.209119" lon="23.587188"><ele>2223.4</ele><time>2026-04-05T12:47:51.000Z</time></trkpt>
<trkpt lat="42.209131" lon="23.587188"><ele>2222.9</ele><time>2026-04-05T12:47:52.000Z</time></trkpt>
<trkpt lat="42.209143" lon="23.587187"><ele>2222.9</ele><time>2026-04-05T12:47:53.000Z</time></trkpt>
<trkpt lat="42.209155" lon="23.587187"><ele>2222.9</ele><time>2026-04-05T12:47:54.000Z</time></trkpt>
<trkpt lat="42.209167" lon="23.587187"><ele>2222.9</ele><time>2026-04-05T12:47:55.000Z</time></trkpt>
<trkpt lat="42.20918" lon="23.587187"><ele>2222.9</ele><time>2026-04-05T12:47:56.000Z</time></trkpt>
<trkpt lat="42.209192" lon="23.587186"><ele>2221.9</ele><time>2026-04-05T12:47:57.000Z</time></trkpt>
<trkpt lat="42.209205" lon="23.587185"><ele>2221.9</ele><time>2026-04-05T12:47:58.000Z</time></trkpt>
<trkpt lat="42.209217" lon="23.587183"><ele>2221.9</ele><time>2026-04-05T12:47:59.000Z</time></trkpt>
<trkpt lat="42.209231" lon="23.587182"><ele>2221.9</ele><time>2026-04-05T12:48:00.000Z</time></trkpt>
<trkpt lat="42.209244" lon="23.587181"><ele>2221.9</ele><time>2026-04-05T12:48:01.000Z</time></trkpt>
<trkpt lat="42.209258" lon="23.587181"><ele>2220.8</ele><time>2026-04-05T12:48:02.000Z</time></trkpt>
<trkpt lat="42.209271" lon="23.587181"><ele>2220.8</ele><time>2026-04-05T12:48:03.000Z</time></trkpt>
<trkpt lat="42.209284" lon="23.587181"><ele>2220.8</ele><time>2026-04-05T12:48:04.000Z</time></trkpt>
<trkpt lat="42.209296" lon="23.587181"><ele>2220.8</ele><time>2026-04-05T12:48:05.000Z</time></trkpt>
<trkpt lat="42.209308" lon="23.587179"><ele>2220.8</ele><time>2026-04-05T12:48:06.000Z</time></trkpt>
<trkpt lat="42.209319" lon="23.587177"><ele>2220.1</ele><time>2026-04-05T12:48:07.000Z</time></trkpt>
<trkpt lat="42.209331" lon="23.587175"><ele>2220.1</ele><time>2026-04-05T12:48:08.000Z</time></trkpt>
<trkpt lat="42.209343" lon="23.587173"><ele>2220.1</ele><time>2026-04-05T12:48:09.000Z</time></trkpt>
<trkpt lat="42.209355" lon="23.58717"><ele>2220.1</ele><time>2026-04-05T12:48:10.000Z</time></trkpt>
<trkpt lat="42.209369" lon="23.587169"><ele>2220.1</ele><time>2026-04-05T12:48:11.000Z</time></trkpt>
<trkpt lat="42.209382" lon="23.587169"><ele>2218.7</ele><time>2026-04-05T12:48:12.000Z</time></trkpt>
<trkpt lat="42.209395" lon="23.587168"><ele>2218.7</ele><time>2026-04-05T12:48:13.000Z</time></trkpt>
<trkpt lat="42.209409" lon="23.587167"><ele>2218.7</ele><time>2026-04-05T12:48:14.000Z</time></trkpt>
<trkpt lat="42.209422" lon="23.587165"><ele>2218.7</ele><time>2026-04-05T12:48:15.000Z</time></trkpt>
<trkpt lat="42.209434" lon="23.587162"><ele>2218.7</ele><time>2026-04-05T12:48:16.000Z</time></trkpt>
<trkpt lat="42.209447" lon="23.587158"><ele>2217.1</ele><time>2026-04-05T12:48:17.000Z</time></trkpt>
<trkpt lat="42.209459" lon="23.587155"><ele>2217.1</ele><time>2026-04-05T12:48:18.000Z</time></trkpt>
<trkpt lat="42.209471" lon="23.587152"><ele>2217.1</ele><time>2026-04-05T12:48:19.000Z</time></trkpt>
<trkpt lat="42.209483" lon="23.58715"><ele>2217.1</ele><time>2026-04-05T12:48:20.000Z</time></trkpt>
<trkpt lat="42.209494" lon="23.587148"><ele>2217.1</ele><time>2026-04-05T12:48:21.000Z</time></trkpt>
<trkpt lat="42.209506" lon="23.587146"><ele>2216.3</ele><time>2026-04-05T12:48:22.000Z</time></trkpt>
<trkpt lat="42.209517" lon="23.587144"><ele>2216.3</ele><time>2026-04-05T12:48:23.000Z</time></trkpt>
<trkpt lat="42.209529" lon="23.587142"><ele>2216.3</ele><time>2026-04-05T12:48:24.000Z</time></trkpt>
<trkpt lat="42.209541" lon="23.587139"><ele>2216.3</ele><time>2026-04-05T12:48:25.000Z</time></trkpt>
<trkpt lat="42.209553" lon="23.587136"><ele>2216.3</ele><time>2026-04-05T12:48:26.000Z</time></trkpt>
<trkpt lat="42.209565" lon="23.587132"><ele>2214.8</ele><time>2026-04-05T12:48:27.000Z</time></trkpt>
<trkpt lat="42.209577" lon="23.587129"><ele>2214.8</ele><time>2026-04-05T12:48:28.000Z</time></trkpt>
<trkpt lat="42.20959" lon="23.587125"><ele>2214.8</ele><time>2026-04-05T12:48:29.000Z</time></trkpt>
<trkpt lat="42.209602" lon="23.587122"><ele>2214.8</ele><time>2026-04-05T12:48:30.000Z</time></trkpt>
<trkpt lat="42.209614" lon="23.587119"><ele>2214.8</ele><time>2026-04-05T12:48:31.000Z</time></trkpt>
<trkpt lat="42.209625" lon="23.587117"><ele>2213.3</ele><time>2026-04-05T12:48:32.000Z</time></trkpt>
<trkpt lat="42.209635" lon="23.587114"><ele>2213.3</ele><time>2026-04-05T12:48:33.000Z</time></trkpt>
<trkpt lat="42.209646" lon="23.587113"><ele>2213.3</ele><time>2026-04-05T12:48:34.000Z</time></trkpt>
<trkpt lat="42.209655" lon="23.58711"><ele>2213.3</ele><time>2026-04-05T12:48:35.000Z</time></trkpt>
<trkpt lat="42.209665" lon="23.587108"><ele>2213.3</ele><time>2026-04-05T12:48:36.000Z</time></trkpt>
<trkpt lat="42.209675" lon="23.587107"><ele>2212.6</ele><time>2026-04-05T12:48:37.000Z</time></trkpt>
<trkpt lat="42.209685" lon="23.587107"><ele>2212.6</ele><time>2026-04-05T12:48:38.000Z</time></trkpt>
<trkpt lat="42.209694" lon="23.587106"><ele>2212.6</ele><time>2026-04-05T12:48:39.000Z</time></trkpt>
<trkpt lat="42.209703" lon="23.587105"><ele>2212.6</ele><time>2026-04-05T12:48:40.000Z</time></trkpt>
<trkpt lat="42.209713" lon="23.587103"><ele>2212.6</ele><time>2026-04-05T12:48:41.000Z</time></trkpt>
<trkpt lat="42.209723" lon="23.587101"><ele>2211</ele><time>2026-04-05T12:48:42.000Z</time></trkpt>
<trkpt lat="42.209734" lon="23.587099"><ele>2211</ele><time>2026-04-05T12:48:43.000Z</time></trkpt>
<trkpt lat="42.209745" lon="23.587098"><ele>2211</ele><time>2026-04-05T12:48:44.000Z</time></trkpt>
<trkpt lat="42.209756" lon="23.587098"><ele>2211</ele><time>2026-04-05T12:48:45.000Z</time></trkpt>
<trkpt lat="42.209766" lon="23.587097"><ele>2211</ele><time>2026-04-05T12:48:46.000Z</time></trkpt>
<trkpt lat="42.209777" lon="23.587097"><ele>2209.4</ele><time>2026-04-05T12:48:47.000Z</time></trkpt>
<trkpt lat="42.209788" lon="23.587096"><ele>2209.4</ele><time>2026-04-05T12:48:48.000Z</time></trkpt>
<trkpt lat="42.209799" lon="23.587094"><ele>2209.4</ele><time>2026-04-05T12:48:49.000Z</time></trkpt>
<trkpt lat="42.20981" lon="23.58709"><ele>2209.4</ele><time>2026-04-05T12:48:50.000Z</time></trkpt>
<trkpt lat="42.209821" lon="23.587086"><ele>2209.4</ele><time>2026-04-05T12:48:51.000Z</time></trkpt>
<trkpt lat="42.209832" lon="23.587083"><ele>2208.8</ele><time>2026-04-05T12:48:52.000Z</time></trkpt>
<trkpt lat="42.209844" lon="23.58708"><ele>2208.8</ele><time>2026-04-05T12:48:53.000Z</time></trkpt>
<trkpt lat="42.209856" lon="23.587078"><ele>2208.8</ele><time>2026-04-05T12:48:54.000Z</time></trkpt>
<trkpt lat="42.209868" lon="23.587075"><ele>2208.8</ele><time>2026-04-05T12:48:55.000Z</time></trkpt>
<trkpt lat="42.209882" lon="23.587072"><ele>2208.8</ele><time>2026-04-05T12:48:56.000Z</time></trkpt>
<trkpt lat="42.209895" lon="23.58707"><ele>2207.6</ele><time>2026-04-05T12:48:57.000Z</time></trkpt>
<trkpt lat="42.209908" lon="23.587066"><ele>2207.6</ele><time>2026-04-05T12:48:58.000Z</time></trkpt>
<trkpt lat="42.209921" lon="23.587063"><ele>2207.6</ele><time>2026-04-05T12:48:59.000Z</time></trkpt>
<trkpt lat="42.209933" lon="23.587061"><ele>2207.6</ele><time>2026-04-05T12:49:00.000Z</time></trkpt>
<trkpt lat="42.209945" lon="23.58706"><ele>2207.6</ele><time>2026-04-05T12:49:01.000Z</time></trkpt>
<trkpt lat="42.209957" lon="23.587058"><ele>2206.5</ele><time>2026-04-05T12:49:02.000Z</time></trkpt>
<trkpt lat="42.209969" lon="23.587056"><ele>2206.5</ele><time>2026-04-05T12:49:03.000Z</time></trkpt>
<trkpt lat="42.209981" lon="23.587056"><ele>2206.5</ele><time>2026-04-05T12:49:04.000Z</time></trkpt>
<trkpt lat="42.209993" lon="23.587055"><ele>2206.5</ele><time>2026-04-05T12:49:05.000Z</time></trkpt>
<trkpt lat="42.210006" lon="23.587054"><ele>2206.5</ele><time>2026-04-05T12:49:06.000Z</time></trkpt>
<trkpt lat="42.210019" lon="23.587052"><ele>2206</ele><time>2026-04-05T12:49:07.000Z</time></trkpt>
<trkpt lat="42.210033" lon="23.587051"><ele>2206</ele><time>2026-04-05T12:49:08.000Z</time></trkpt>
<trkpt lat="42.210046" lon="23.587049"><ele>2206</ele><time>2026-04-05T12:49:09.000Z</time></trkpt>
<trkpt lat="42.210058" lon="23.587048"><ele>2206</ele><time>2026-04-05T12:49:10.000Z</time></trkpt>
<trkpt lat="42.210071" lon="23.587048"><ele>2206</ele><time>2026-04-05T12:49:11.000Z</time></trkpt>
<trkpt lat="42.210083" lon="23.587048"><ele>2204.8</ele><time>2026-04-05T12:49:12.000Z</time></trkpt>
<trkpt lat="42.210095" lon="23.587048"><ele>2204.8</ele><time>2026-04-05T12:49:13.000Z</time></trkpt>
<trkpt lat="42.210108" lon="23.587047"><ele>2204.8</ele><time>2026-04-05T12:49:14.000Z</time></trkpt>
<trkpt lat="42.210121" lon="23.587047"><ele>2204.8</ele><time>2026-04-05T12:49:15.000Z</time></trkpt>
<trkpt lat="42.210135" lon="23.587046"><ele>2204.8</ele><time>2026-04-05T12:49:16.000Z</time></trkpt>
<trkpt lat="42.210149" lon="23.587046"><ele>2203.3</ele><time>2026-04-05T12:49:17.000Z</time></trkpt>
<trkpt lat="42.210162" lon="23.587045"><ele>2203.3</ele><time>2026-04-05T12:49:18.000Z</time></trkpt>
<trkpt lat="42.210176" lon="23.587045"><ele>2203.3</ele><time>2026-04-05T12:49:19.000Z</time></trkpt>
<trkpt lat="42.21019" lon="23.587045"><ele>2203.3</ele><time>2026-04-05T12:49:20.000Z</time></trkpt>
<trkpt lat="42.210203" lon="23.587044"><ele>2203.3</ele><time>2026-04-05T12:49:21.000Z</time></trkpt>
<trkpt lat="42.210216" lon="23.587045"><ele>2202.5</ele><time>2026-04-05T12:49:22.000Z</time></trkpt>
<trkpt lat="42.210229" lon="23.587044"><ele>2202.5</ele><time>2026-04-05T12:49:23.000Z</time></trkpt>
<trkpt lat="42.210242" lon="23.587043"><ele>2202.5</ele><time>2026-04-05T12:49:24.000Z</time></trkpt>
<trkpt lat="42.210254" lon="23.587042"><ele>2202.5</ele><time>2026-04-05T12:49:25.000Z</time></trkpt>
<trkpt lat="42.210267" lon="23.587041"><ele>2202.5</ele><time>2026-04-05T12:49:26.000Z</time></trkpt>
<trkpt lat="42.21028" lon="23.58704"><ele>2201.1</ele><time>2026-04-05T12:49:27.000Z</time></trkpt>
<trkpt lat="42.210293" lon="23.58704"><ele>2201.1</ele><time>2026-04-05T12:49:28.000Z</time></trkpt>
<trkpt lat="42.210306" lon="23.587042"><ele>2201.1</ele><time>2026-04-05T12:49:29.000Z</time></trkpt>
<trkpt lat="42.210319" lon="23.587044"><ele>2201.1</ele><time>2026-04-05T12:49:30.000Z</time></trkpt>
<trkpt lat="42.210333" lon="23.587046"><ele>2201.1</ele><time>2026-04-05T12:49:31.000Z</time></trkpt>
<trkpt lat="42.210346" lon="23.587048"><ele>2199.9</ele><time>2026-04-05T12:49:32.000Z</time></trkpt>
<trkpt lat="42.210359" lon="23.58705"><ele>2199.9</ele><time>2026-04-05T12:49:33.000Z</time></trkpt>
<trkpt lat="42.210373" lon="23.587051"><ele>2199.9</ele><time>2026-04-05T12:49:34.000Z</time></trkpt>
<trkpt lat="42.210386" lon="23.587052"><ele>2199.9</ele><time>2026-04-05T12:49:35.000Z</time></trkpt>
<trkpt lat="42.2104" lon="23.587054"><ele>2199.9</ele><time>2026-04-05T12:49:36.000Z</time></trkpt>
<trkpt lat="42.210413" lon="23.587056"><ele>2199.4</ele><time>2026-04-05T12:49:37.000Z</time></trkpt>
<trkpt lat="42.210427" lon="23.587056"><ele>2199.4</ele><time>2026-04-05T12:49:38.000Z</time></trkpt>
<trkpt lat="42.21044" lon="23.587056"><ele>2199.4</ele><time>2026-04-05T12:49:39.000Z</time></trkpt>
<trkpt lat="42.210453" lon="23.587057"><ele>2199.4</ele><time>2026-04-05T12:49:40.000Z</time></trkpt>
<trkpt lat="42.210466" lon="23.587056"><ele>2199.4</ele><time>2026-04-05T12:49:41.000Z</time></trkpt>
<trkpt lat="42.210479" lon="23.587054"><ele>2198.2</ele><time>2026-04-05T12:49:42.000Z</time></trkpt>
<trkpt lat="42.210491" lon="23.587053"><ele>2198.2</ele><time>2026-04-05T12:49:43.000Z</time></trkpt>
<trkpt lat="42.210504" lon="23.587052"><ele>2198.2</ele><time>2026-04-05T12:49:44.000Z</time></trkpt>
<trkpt lat="42.210518" lon="23.58705"><ele>2198.2</ele><time>2026-04-05T12:49:45.000Z</time></trkpt>
<trkpt lat="42.210531" lon="23.587048"><ele>2198.2</ele><time>2026-04-05T12:49:46.000Z</time></trkpt>
<trkpt lat="42.210544" lon="23.587047"><ele>2196.7</ele><time>2026-04-05T12:49:47.000Z</time></trkpt>
<trkpt lat="42.210557" lon="23.587045"><ele>2196.7</ele><time>2026-04-05T12:49:48.000Z</time></trkpt>
<trkpt lat="42.210571" lon="23.587044"><ele>2196.7</ele><time>2026-04-05T12:49:49.000Z</time></trkpt>
<trkpt lat="42.210583" lon="23.587044"><ele>2196.7</ele><time>2026-04-05T12:49:50.000Z</time></trkpt>
<trkpt lat="42.210595" lon="23.587044"><ele>2196.7</ele><time>2026-04-05T12:49:51.000Z</time></trkpt>
<trkpt lat="42.210607" lon="23.587044"><ele>2195.8</ele><time>2026-04-05T12:49:52.000Z</time></trkpt>
<trkpt lat="42.210619" lon="23.587044"><ele>2195.8</ele><time>2026-04-05T12:49:53.000Z</time></trkpt>
<trkpt lat="42.210629" lon="23.587043"><ele>2195.8</ele><time>2026-04-05T12:49:54.000Z</time></trkpt>
<trkpt lat="42.21064" lon="23.587042"><ele>2195.8</ele><time>2026-04-05T12:49:55.000Z</time></trkpt>
<trkpt lat="42.210652" lon="23.587042"><ele>2195.8</ele><time>2026-04-05T12:49:56.000Z</time></trkpt>
<trkpt lat="42.210663" lon="23.587042"><ele>2194.3</ele><time>2026-04-05T12:49:57.000Z</time></trkpt>
<trkpt lat="42.210674" lon="23.587043"><ele>2194.3</ele><time>2026-04-05T12:49:58.000Z</time></trkpt>
<trkpt lat="42.210686" lon="23.587044"><ele>2194.3</ele><time>2026-04-05T12:49:59.000Z</time></trkpt>
<trkpt lat="42.210699" lon="23.587045"><ele>2194.3</ele><time>2026-04-05T12:50:00.000Z</time></trkpt>
<trkpt lat="42.210711" lon="23.587045"><ele>2194.3</ele><time>2026-04-05T12:50:01.000Z</time></trkpt>
<trkpt lat="42.210723" lon="23.587045"><ele>2193.1</ele><time>2026-04-05T12:50:02.000Z</time></trkpt>
<trkpt lat="42.210736" lon="23.587045"><ele>2193.1</ele><time>2026-04-05T12:50:03.000Z</time></trkpt>
<trkpt lat="42.210748" lon="23.587045"><ele>2193.1</ele><time>2026-04-05T12:50:04.000Z</time></trkpt>
<trkpt lat="42.21076" lon="23.587045"><ele>2193.1</ele><time>2026-04-05T12:50:05.000Z</time></trkpt>
<trkpt lat="42.210773" lon="23.587045"><ele>2193.1</ele><time>2026-04-05T12:50:06.000Z</time></trkpt>
<trkpt lat="42.210786" lon="23.587044"><ele>2192.6</ele><time>2026-04-05T12:50:07.000Z</time></trkpt>
<trkpt lat="42.210799" lon="23.587044"><ele>2192.6</ele><time>2026-04-05T12:50:08.000Z</time></trkpt>
<trkpt lat="42.210812" lon="23.587045"><ele>2192.6</ele><time>2026-04-05T12:50:09.000Z</time></trkpt>
<trkpt lat="42.210826" lon="23.587047"><ele>2192.6</ele><time>2026-04-05T12:50:10.000Z</time></trkpt>
<trkpt lat="42.210839" lon="23.587049"><ele>2192.6</ele><time>2026-04-05T12:50:11.000Z</time></trkpt>
<trkpt lat="42.210852" lon="23.587052"><ele>2191.6</ele><time>2026-04-05T12:50:12.000Z</time></trkpt>
<trkpt lat="42.210865" lon="23.587056"><ele>2191.6</ele><time>2026-04-05T12:50:13.000Z</time></trkpt>
<trkpt lat="42.210878" lon="23.587061"><ele>2191.6</ele><time>2026-04-05T12:50:14.000Z</time></trkpt>
<trkpt lat="42.210889" lon="23.587066"><ele>2191.6</ele><time>2026-04-05T12:50:15.000Z</time></trkpt>
<trkpt lat="42.210899" lon="23.58707"><ele>2191.6</ele><time>2026-04-05T12:50:16.000Z</time></trkpt>
<trkpt lat="42.21091" lon="23.587073"><ele>2190.5</ele><time>2026-04-05T12:50:17.000Z</time></trkpt>
<trkpt lat="42.21092" lon="23.587076"><ele>2190.5</ele><time>2026-04-05T12:50:18.000Z</time></trkpt>
<trkpt lat="42.21093" lon="23.587077"><ele>2190.5</ele><time>2026-04-05T12:50:19.000Z</time></trkpt>
<trkpt lat="42.210941" lon="23.587079"><ele>2190.5</ele><time>2026-04-05T12:50:20.000Z</time></trkpt>
<trkpt lat="42.210952" lon="23.587082"><ele>2190.5</ele><time>2026-04-05T12:50:21.000Z</time></trkpt>
<trkpt lat="42.210963" lon="23.587084"><ele>2190</ele><time>2026-04-05T12:50:22.000Z</time></trkpt>
<trkpt lat="42.210975" lon="23.587086"><ele>2190</ele><time>2026-04-05T12:50:23.000Z</time></trkpt>
<trkpt lat="42.210986" lon="23.58709"><ele>2190</ele><time>2026-04-05T12:50:24.000Z</time></trkpt>
<trkpt lat="42.210997" lon="23.587092"><ele>2190</ele><time>2026-04-05T12:50:25.000Z</time></trkpt>
<trkpt lat="42.211008" lon="23.587095"><ele>2190</ele><time>2026-04-05T12:50:26.000Z</time></trkpt>
<trkpt lat="42.211019" lon="23.587098"><ele>2189</ele><time>2026-04-05T12:50:27.000Z</time></trkpt>
<trkpt lat="42.211029" lon="23.587101"><ele>2189</ele><time>2026-04-05T12:50:28.000Z</time></trkpt>
<trkpt lat="42.211039" lon="23.587105"><ele>2189</ele><time>2026-04-05T12:50:29.000Z</time></trkpt>
<trkpt lat="42.21105" lon="23.587107"><ele>2189</ele><time>2026-04-05T12:50:30.000Z</time></trkpt>
<trkpt lat="42.211059" lon="23.587109"><ele>2189</ele><time>2026-04-05T12:50:31.000Z</time></trkpt>
<trkpt lat="42.211067" lon="23.587111"><ele>2188.2</ele><time>2026-04-05T12:50:32.000Z</time></trkpt>
<trkpt lat="42.211074" lon="23.587111"><ele>2188.2</ele><time>2026-04-05T12:50:33.000Z</time></trkpt>
<trkpt lat="42.211078" lon="23.58711"><ele>2188.2</ele><time>2026-04-05T12:50:34.000Z</time></trkpt>
<trkpt lat="42.21108" lon="23.587109"><ele>2188.2</ele><time>2026-04-05T12:50:35.000Z</time></trkpt>
<trkpt lat="42.211082" lon="23.587108"><ele>2188.2</ele><time>2026-04-05T12:50:36.000Z</time></trkpt>
<trkpt lat="42.211083" lon="23.587108"><ele>2187.8</ele><time>2026-04-05T12:50:37.000Z</time></trkpt>
<trkpt lat="42.211085" lon="23.587108"><ele>2187.8</ele><time>2026-04-05T12:50:38.000Z</time></trkpt>
<trkpt lat="42.211089" lon="23.587107"><ele>2187.8</ele><time>2026-04-05T12:50:39.000Z</time></trkpt>
<trkpt lat="42.211092" lon="23.587108"><ele>2187.8</ele><time>2026-04-05T12:50:40.000Z</time></trkpt>
<trkpt lat="42.211094" lon="23.587108"><ele>2187.8</ele><time>2026-04-05T12:50:41.000Z</time></trkpt>
<trkpt lat="42.211096" lon="23.587108"><ele>2187</ele><time>2026-04-05T12:50:42.000Z</time></trkpt>
<trkpt lat="42.211097" lon="23.587107"><ele>2187</ele><time>2026-04-05T12:50:43.000Z</time></trkpt>
<trkpt lat="42.211096" lon="23.587108"><ele>2187</ele><time>2026-04-05T12:50:44.000Z</time></trkpt>
<trkpt lat="42.211096" lon="23.587107"><ele>2187</ele><time>2026-04-05T12:50:45.000Z</time></trkpt>
<trkpt lat="42.211095" lon="23.587107"><ele>2187</ele><time>2026-04-05T12:50:46.000Z</time></trkpt>
<trkpt lat="42.211095" lon="23.587107"><ele>2186.4</ele><time>2026-04-05T12:50:47.000Z</time></trkpt>
<trkpt lat="42.211095" lon="23.587108"><ele>2186.4</ele><time>2026-04-05T12:50:48.000Z</time></trkpt>
<trkpt lat="42.211094" lon="23.587108"><ele>2186.4</ele><time>2026-04-05T12:50:49.000Z</time></trkpt>
<trkpt lat="42.211094" lon="23.587109"><ele>2186.4</ele><time>2026-04-05T12:50:50.000Z</time></trkpt>
<trkpt lat="42.211094" lon="23.587109"><ele>2186.4</ele><time>2026-04-05T12:50:51.000Z</time></trkpt>
<trkpt lat="42.211094" lon="23.587109"><ele>2186.2</ele><time>2026-04-05T12:50:52.000Z</time></trkpt>
<trkpt lat="42.211094" lon="23.587109"><ele>2186.2</ele><time>2026-04-05T12:50:53.000Z</time></trkpt>
<trkpt lat="42.211094" lon="23.587109"><ele>2186.2</ele><time>2026-04-05T12:50:54.000Z</time></trkpt>
<trkpt lat="42.211094" lon="23.587109"><ele>2186.2</ele><time>2026-04-05T12:50:55.000Z</time></trkpt>
<trkpt lat="42.211094" lon="23.587108"><ele>2186.2</ele><time>2026-04-05T12:50:56.000Z</time></trkpt>
<trkpt lat="42.211093" lon="23.587108"><ele>2186.2</ele><time>2026-04-05T12:50:57.000Z</time></trkpt>
<trkpt lat="42.211093" lon="23.587108"><ele>2186.2</ele><time>2026-04-05T12:50:58.000Z</time></trkpt>
<trkpt lat="42.211093" lon="23.587108"><ele>2186.2</ele><time>2026-04-05T12:50:59.000Z</time></trkpt>
<trkpt lat="42.211092" lon="23.587108"><ele>2186.2</ele><time>2026-04-05T12:51:00.000Z</time></trkpt>
<trkpt lat="42.211094" lon="23.587109"><ele>2186.2</ele><time>2026-04-05T12:51:01.000Z</time></trkpt>
<trkpt lat="42.211097" lon="23.587111"><ele>2186.3</ele><time>2026-04-05T12:51:02.000Z</time></trkpt>
<trkpt lat="42.211103" lon="23.587113"><ele>2186.3</ele><time>2026-04-05T12:51:03.000Z</time></trkpt>
<trkpt lat="42.211111" lon="23.587116"><ele>2186.3</ele><time>2026-04-05T12:51:04.000Z</time></trkpt>
<trkpt lat="42.211121" lon="23.58712"><ele>2186.3</ele><time>2026-04-05T12:51:05.000Z</time></trkpt>
<trkpt lat="42.21113" lon="23.587126"><ele>2186.3</ele><time>2026-04-05T12:51:06.000Z</time></trkpt>
<trkpt lat="42.211139" lon="23.587131"><ele>2186.4</ele><time>2026-04-05T12:51:07.000Z</time></trkpt>
<trkpt lat="42.211148" lon="23.587136"><ele>2186.4</ele><time>2026-04-05T12:51:08.000Z</time></trkpt>
<trkpt lat="42.211154" lon="23.587142"><ele>2186.4</ele><time>2026-04-05T12:51:09.000Z</time></trkpt>
<trkpt lat="42.211159" lon="23.587148"><ele>2186.4</ele><time>2026-04-05T12:51:10.000Z</time></trkpt>
<trkpt lat="42.211165" lon="23.587153"><ele>2186.4</ele><time>2026-04-05T12:51:11.000Z</time></trkpt>
<trkpt lat="42.211172" lon="23.587158"><ele>2186.2</ele><time>2026-04-05T12:51:12.000Z</time></trkpt>
<trkpt lat="42.211179" lon="23.587164"><ele>2186.2</ele><time>2026-04-05T12:51:13.000Z</time></trkpt>
<trkpt lat="42.211188" lon="23.587171"><ele>2186.2</ele><time>2026-04-05T12:51:14.000Z</time></trkpt>
<trkpt lat="42.211198" lon="23.587177"><ele>2186.2</ele><time>2026-04-05T12:51:15.000Z</time></trkpt>
<trkpt lat="42.211209" lon="23.587184"><ele>2186.2</ele><time>2026-04-05T12:51:16.000Z</time></trkpt>
<trkpt lat="42.211221" lon="23.587189"><ele>2185.6</ele><time>2026-04-05T12:51:17.000Z</time></trkpt>
<trkpt lat="42.211232" lon="23.587193"><ele>2185.6</ele><time>2026-04-05T12:51:18.000Z</time></trkpt>
<trkpt lat="42.211244" lon="23.587196"><ele>2185.6</ele><time>2026-04-05T12:51:19.000Z</time></trkpt>
<trkpt lat="42.211255" lon="23.587197"><ele>2185.6</ele><time>2026-04-05T12:51:20.000Z</time></trkpt>
<trkpt lat="42.211267" lon="23.587196"><ele>2185.6</ele><time>2026-04-05T12:51:21.000Z</time></trkpt>
<trkpt lat="42.211279" lon="23.587192"><ele>2185.2</ele><time>2026-04-05T12:51:22.000Z</time></trkpt>
<trkpt lat="42.21129" lon="23.587188"><ele>2185.2</ele><time>2026-04-05T12:51:23.000Z</time></trkpt>
<trkpt lat="42.211303" lon="23.587182"><ele>2185.2</ele><time>2026-04-05T12:51:24.000Z</time></trkpt>
<trkpt lat="42.211316" lon="23.587177"><ele>2185.2</ele><time>2026-04-05T12:51:25.000Z</time></trkpt>
<trkpt lat="42.211328" lon="23.587171"><ele>2185.2</ele><time>2026-04-05T12:51:26.000Z</time></trkpt>
<trkpt lat="42.211339" lon="23.587165"><ele>2184.4</ele><time>2026-04-05T12:51:27.000Z</time></trkpt>
<trkpt lat="42.21135" lon="23.58716"><ele>2184.4</ele><time>2026-04-05T12:51:28.000Z</time></trkpt>
<trkpt lat="42.211361" lon="23.587155"><ele>2184.4</ele><time>2026-04-05T12:51:29.000Z</time></trkpt>
<trkpt lat="42.211372" lon="23.587149"><ele>2184.4</ele><time>2026-04-05T12:51:30.000Z</time></trkpt>
<trkpt lat="42.211383" lon="23.587144"><ele>2184.4</ele><time>2026-04-05T12:51:31.000Z</time></trkpt>
<trkpt lat="42.211395" lon="23.58714"><ele>2183.6</ele><time>2026-04-05T12:51:32.000Z</time></trkpt>
<trkpt lat="42.211406" lon="23.587135"><ele>2183.6</ele><time>2026-04-05T12:51:33.000Z</time></trkpt>
<trkpt lat="42.211417" lon="23.58713"><ele>2183.6</ele><time>2026-04-05T12:51:34.000Z</time></trkpt>
<trkpt lat="42.211429" lon="23.587124"><ele>2183.6</ele><time>2026-04-05T12:51:35.000Z</time></trkpt>
<trkpt lat="42.21144" lon="23.587118"><ele>2183.6</ele><time>2026-04-05T12:51:36.000Z</time></trkpt>
<trkpt lat="42.211452" lon="23.587112"><ele>2183.2</ele><time>2026-04-05T12:51:37.000Z</time></trkpt>
<trkpt lat="42.211464" lon="23.587106"><ele>2183.2</ele><time>2026-04-05T12:51:38.000Z</time></trkpt>
<trkpt lat="42.211476" lon="23.587102"><ele>2183.2</ele><time>2026-04-05T12:51:39.000Z</time></trkpt>
<trkpt lat="42.211489" lon="23.587097"><ele>2183.2</ele><time>2026-04-05T12:51:40.000Z</time></trkpt>
<trkpt lat="42.211502" lon="23.587093"><ele>2183.2</ele><time>2026-04-05T12:51:41.000Z</time></trkpt>
<trkpt lat="42.211514" lon="23.587087"><ele>2182.3</ele><time>2026-04-05T12:51:42.000Z</time></trkpt>
<trkpt lat="42.211527" lon="23.587082"><ele>2182.3</ele><time>2026-04-05T12:51:43.000Z</time></trkpt>
<trkpt lat="42.211538" lon="23.587076"><ele>2182.3</ele><time>2026-04-05T12:51:44.000Z</time></trkpt>
<trkpt lat="42.21155" lon="23.587071"><ele>2182.3</ele><time>2026-04-05T12:51:45.000Z</time></trkpt>
<trkpt lat="42.211561" lon="23.587066"><ele>2182.3</ele><time>2026-04-05T12:51:46.000Z</time></trkpt>
<trkpt lat="42.211572" lon="23.587061"><ele>2181.6</ele><time>2026-04-05T12:51:47.000Z</time></trkpt>
<trkpt lat="42.211583" lon="23.587057"><ele>2181.6</ele><time>2026-04-05T12:51:48.000Z</time></trkpt>
<trkpt lat="42.211594" lon="23.587053"><ele>2181.6</ele><time>2026-04-05T12:51:49.000Z</time></trkpt>
<trkpt lat="42.211604" lon="23.587048"><ele>2181.6</ele><time>2026-04-05T12:51:50.000Z</time></trkpt>
<trkpt lat="42.211615" lon="23.587044"><ele>2181.6</ele><time>2026-04-05T12:51:51.000Z</time></trkpt>
<trkpt lat="42.211626" lon="23.587041"><ele>2181.3</ele><time>2026-04-05T12:51:52.000Z</time></trkpt>
<trkpt lat="42.211636" lon="23.587038"><ele>2181.3</ele><time>2026-04-05T12:51:53.000Z</time></trkpt>
<trkpt lat="42.211646" lon="23.587035"><ele>2181.3</ele><time>2026-04-05T12:51:54.000Z</time></trkpt>
<trkpt lat="42.211657" lon="23.587033"><ele>2181.3</ele><time>2026-04-05T12:51:55.000Z</time></trkpt>
<trkpt lat="42.211668" lon="23.587032"><ele>2181.3</ele><time>2026-04-05T12:51:56.000Z</time></trkpt>
<trkpt lat="42.211678" lon="23.58703"><ele>2180.7</ele><time>2026-04-05T12:51:57.000Z</time></trkpt>
<trkpt lat="42.21169" lon="23.587029"><ele>2180.7</ele><time>2026-04-05T12:51:58.000Z</time></trkpt>
<trkpt lat="42.211702" lon="23.587027"><ele>2180.7</ele><time>2026-04-05T12:51:59.000Z</time></trkpt>
<trkpt lat="42.211715" lon="23.587026"><ele>2180.7</ele><time>2026-04-05T12:52:00.000Z</time></trkpt>
<trkpt lat="42.211729" lon="23.587025"><ele>2180.7</ele><time>2026-04-05T12:52:01.000Z</time></trkpt>
<trkpt lat="42.211742" lon="23.587025"><ele>2180</ele><time>2026-04-05T12:52:02.000Z</time></trkpt>
<trkpt lat="42.211756" lon="23.587024"><ele>2180</ele><time>2026-04-05T12:52:03.000Z</time></trkpt>
<trkpt lat="42.211769" lon="23.587025"><ele>2180</ele><time>2026-04-05T12:52:04.000Z</time></trkpt>
<trkpt lat="42.211782" lon="23.587025"><ele>2180</ele><time>2026-04-05T12:52:05.000Z</time></trkpt>
<trkpt lat="42.211794" lon="23.587025"><ele>2180</ele><time>2026-04-05T12:52:06.000Z</time></trkpt>
<trkpt lat="42.211807" lon="23.587025"><ele>2179.7</ele><time>2026-04-05T12:52:07.000Z</time></trkpt>
<trkpt lat="42.211819" lon="23.587026"><ele>2179.7</ele><time>2026-04-05T12:52:08.000Z</time></trkpt>
<trkpt lat="42.211833" lon="23.587026"><ele>2179.7</ele><time>2026-04-05T12:52:09.000Z</time></trkpt>
<trkpt lat="42.211848" lon="23.587027"><ele>2179.7</ele><time>2026-04-05T12:52:10.000Z</time></trkpt>
<trkpt lat="42.211863" lon="23.587028"><ele>2179.7</ele><time>2026-04-05T12:52:11.000Z</time></trkpt>
<trkpt lat="42.211878" lon="23.587029"><ele>2178.9</ele><time>2026-04-05T12:52:12.000Z</time></trkpt>
<trkpt lat="42.211893" lon="23.587029"><ele>2178.9</ele><time>2026-04-05T12:52:13.000Z</time></trkpt>
<trkpt lat="42.211908" lon="23.58703"><ele>2178.9</ele><time>2026-04-05T12:52:14.000Z</time></trkpt>
<trkpt lat="42.211922" lon="23.58703"><ele>2178.9</ele><time>2026-04-05T12:52:15.000Z</time></trkpt>
<trkpt lat="42.211934" lon="23.58703"><ele>2178.9</ele><time>2026-04-05T12:52:16.000Z</time></trkpt>
<trkpt lat="42.211946" lon="23.587031"><ele>2177.9</ele><time>2026-04-05T12:52:17.000Z</time></trkpt>
<trkpt lat="42.211958" lon="23.587033"><ele>2177.9</ele><time>2026-04-05T12:52:18.000Z</time></trkpt>
<trkpt lat="42.211969" lon="23.587035"><ele>2177.9</ele><time>2026-04-05T12:52:19.000Z</time></trkpt>
<trkpt lat="42.21198" lon="23.587037"><ele>2177.9</ele><time>2026-04-05T12:52:20.000Z</time></trkpt>
<trkpt lat="42.211992" lon="23.587039"><ele>2177.9</ele><time>2026-04-05T12:52:21.000Z</time></trkpt>
<trkpt lat="42.212004" lon="23.58704"><ele>2177.3</ele><time>2026-04-05T12:52:22.000Z</time></trkpt>
<trkpt lat="42.212017" lon="23.587039"><ele>2177.3</ele><time>2026-04-05T12:52:23.000Z</time></trkpt>
<trkpt lat="42.21203" lon="23.587038"><ele>2177.3</ele><time>2026-04-05T12:52:24.000Z</time></trkpt>
<trkpt lat="42.212043" lon="23.587035"><ele>2177.3</ele><time>2026-04-05T12:52:25.000Z</time></trkpt>
<trkpt lat="42.212057" lon="23.587033"><ele>2177.3</ele><time>2026-04-05T12:52:26.000Z</time></trkpt>
<trkpt lat="42.212071" lon="23.587032"><ele>2176</ele><time>2026-04-05T12:52:27.000Z</time></trkpt>
<trkpt lat="42.212085" lon="23.587031"><ele>2176</ele><time>2026-04-05T12:52:28.000Z</time></trkpt>
<trkpt lat="42.2121" lon="23.587031"><ele>2176</ele><time>2026-04-05T12:52:29.000Z</time></trkpt>
<trkpt lat="42.212114" lon="23.587032"><ele>2176</ele><time>2026-04-05T12:52:30.000Z</time></trkpt>
<trkpt lat="42.212128" lon="23.587032"><ele>2176</ele><time>2026-04-05T12:52:31.000Z</time></trkpt>
<trkpt lat="42.212141" lon="23.587032"><ele>2174.6</ele><time>2026-04-05T12:52:32.000Z</time></trkpt>
<trkpt lat="42.212155" lon="23.587031"><ele>2174.6</ele><time>2026-04-05T12:52:33.000Z</time></trkpt>
<trkpt lat="42.212168" lon="23.587029"><ele>2174.6</ele><time>2026-04-05T12:52:34.000Z</time></trkpt>
<trkpt lat="42.21218" lon="23.587028"><ele>2174.6</ele><time>2026-04-05T12:52:35.000Z</time></trkpt>
<trkpt lat="42.212191" lon="23.587026"><ele>2174.6</ele><time>2026-04-05T12:52:36.000Z</time></trkpt>
<trkpt lat="42.212202" lon="23.587025"><ele>2173.9</ele><time>2026-04-05T12:52:37.000Z</time></trkpt>
<trkpt lat="42.212212" lon="23.587025"><ele>2173.9</ele><time>2026-04-05T12:52:38.000Z</time></trkpt>
<trkpt lat="42.212222" lon="23.587024"><ele>2173.9</ele><time>2026-04-05T12:52:39.000Z</time></trkpt>
<trkpt lat="42.212232" lon="23.587023"><ele>2173.9</ele><time>2026-04-05T12:52:40.000Z</time></trkpt>
<trkpt lat="42.212243" lon="23.587023"><ele>2173.9</ele><time>2026-04-05T12:52:41.000Z</time></trkpt>
<trkpt lat="42.212255" lon="23.587022"><ele>2172.5</ele><time>2026-04-05T12:52:42.000Z</time></trkpt>
<trkpt lat="42.212267" lon="23.587021"><ele>2172.5</ele><time>2026-04-05T12:52:43.000Z</time></trkpt>
<trkpt lat="42.21228" lon="23.587021"><ele>2172.5</ele><time>2026-04-05T12:52:44.000Z</time></trkpt>
<trkpt lat="42.212293" lon="23.58702"><ele>2172.5</ele><time>2026-04-05T12:52:45.000Z</time></trkpt>
<trkpt lat="42.212307" lon="23.587019"><ele>2172.5</ele><time>2026-04-05T12:52:46.000Z</time></trkpt>
<trkpt lat="42.212322" lon="23.587017"><ele>2171.2</ele><time>2026-04-05T12:52:47.000Z</time></trkpt>
<trkpt lat="42.212336" lon="23.587016"><ele>2171.2</ele><time>2026-04-05T12:52:48.000Z</time></trkpt>
<trkpt lat="42.212351" lon="23.587016"><ele>2171.2</ele><time>2026-04-05T12:52:49.000Z</time></trkpt>
<trkpt lat="42.212365" lon="23.587017"><ele>2171.2</ele><time>2026-04-05T12:52:50.000Z</time></trkpt>
<trkpt lat="42.21238" lon="23.587018"><ele>2171.2</ele><time>2026-04-05T12:52:51.000Z</time></trkpt>
<trkpt lat="42.212393" lon="23.587019"><ele>2170.6</ele><time>2026-04-05T12:52:52.000Z</time></trkpt>
<trkpt lat="42.212406" lon="23.587019"><ele>2170.6</ele><time>2026-04-05T12:52:53.000Z</time></trkpt>
<trkpt lat="42.212418" lon="23.587019"><ele>2170.6</ele><time>2026-04-05T12:52:54.000Z</time></trkpt>
<trkpt lat="42.21243" lon="23.58702"><ele>2170.6</ele><time>2026-04-05T12:52:55.000Z</time></trkpt>
<trkpt lat="42.212442" lon="23.587021"><ele>2170.6</ele><time>2026-04-05T12:52:56.000Z</time></trkpt>
<trkpt lat="42.212455" lon="23.587023"><ele>2169.5</ele><time>2026-04-05T12:52:57.000Z</time></trkpt>
<trkpt lat="42.212467" lon="23.587025"><ele>2169.5</ele><time>2026-04-05T12:52:58.000Z</time></trkpt>
<trkpt lat="42.212478" lon="23.587028"><ele>2169.5</ele><time>2026-04-05T12:52:59.000Z</time></trkpt>
<trkpt lat="42.21249" lon="23.587031"><ele>2169.5</ele><time>2026-04-05T12:53:00.000Z</time></trkpt>
<trkpt lat="42.212501" lon="23.587033"><ele>2169.5</ele><time>2026-04-05T12:53:01.000Z</time></trkpt>
<trkpt lat="42.212513" lon="23.587034"><ele>2168.2</ele><time>2026-04-05T12:53:02.000Z</time></trkpt>
<trkpt lat="42.212525" lon="23.587035"><ele>2168.2</ele><time>2026-04-05T12:53:03.000Z</time></trkpt>
<trkpt lat="42.212537" lon="23.587036"><ele>2168.2</ele><time>2026-04-05T12:53:04.000Z</time></trkpt>
<trkpt lat="42.212549" lon="23.587038"><ele>2168.2</ele><time>2026-04-05T12:53:05.000Z</time></trkpt>
<trkpt lat="42.212561" lon="23.587039"><ele>2168.2</ele><time>2026-04-05T12:53:06.000Z</time></trkpt>
<trkpt lat="42.212574" lon="23.587042"><ele>2167.5</ele><time>2026-04-05T12:53:07.000Z</time></trkpt>
<trkpt lat="42.212587" lon="23.587045"><ele>2167.5</ele><time>2026-04-05T12:53:08.000Z</time></trkpt>
<trkpt lat="42.2126" lon="23.587048"><ele>2167.5</ele><time>2026-04-05T12:53:09.000Z</time></trkpt>
<trkpt lat="42.212613" lon="23.587052"><ele>2167.5</ele><time>2026-04-05T12:53:10.000Z</time></trkpt>
<trkpt lat="42.212627" lon="23.587056"><ele>2167.5</ele><time>2026-04-05T12:53:11.000Z</time></trkpt>
<trkpt lat="42.212641" lon="23.58706"><ele>2166.2</ele><time>2026-04-05T12:53:12.000Z</time></trkpt>
<trkpt lat="42.212655" lon="23.587064"><ele>2166.2</ele><time>2026-04-05T12:53:13.000Z</time></trkpt>
<trkpt lat="42.212669" lon="23.587069"><ele>2166.2</ele><time>2026-04-05T12:53:14.000Z</time></trkpt>
<trkpt lat="42.212684" lon="23.587074"><ele>2166.2</ele><time>2026-04-05T12:53:15.000Z</time></trkpt>
<trkpt lat="42.212697" lon="23.58708"><ele>2166.2</ele><time>2026-04-05T12:53:16.000Z</time></trkpt>
<trkpt lat="42.212711" lon="23.587086"><ele>2165.2</ele><time>2026-04-05T12:53:17.000Z</time></trkpt>
<trkpt lat="42.212725" lon="23.58709"><ele>2165.2</ele><time>2026-04-05T12:53:18.000Z</time></trkpt>
<trkpt lat="42.212738" lon="23.587095"><ele>2165.2</ele><time>2026-04-05T12:53:19.000Z</time></trkpt>
<trkpt lat="42.212751" lon="23.587099"><ele>2165.2</ele><time>2026-04-05T12:53:20.000Z</time></trkpt>
<trkpt lat="42.212764" lon="23.587104"><ele>2165.2</ele><time>2026-04-05T12:53:21.000Z</time></trkpt>
<trkpt lat="42.212777" lon="23.587108"><ele>2164.7</ele><time>2026-04-05T12:53:22.000Z</time></trkpt>
<trkpt lat="42.21279" lon="23.587113"><ele>2164.7</ele><time>2026-04-05T12:53:23.000Z</time></trkpt>
<trkpt lat="42.212804" lon="23.587117"><ele>2164.7</ele><time>2026-04-05T12:53:24.000Z</time></trkpt>
<trkpt lat="42.212816" lon="23.587122"><ele>2164.7</ele><time>2026-04-05T12:53:25.000Z</time></trkpt>
<trkpt lat="42.212828" lon="23.587126"><ele>2164.7</ele><time>2026-04-05T12:53:26.000Z</time></trkpt>
<trkpt lat="42.212839" lon="23.587129"><ele>2163.7</ele><time>2026-04-05T12:53:27.000Z</time></trkpt>
<trkpt lat="42.212851" lon="23.587133"><ele>2163.7</ele><time>2026-04-05T12:53:28.000Z</time></trkpt>
<trkpt lat="42.212863" lon="23.587136"><ele>2163.7</ele><time>2026-04-05T12:53:29.000Z</time></trkpt>
<trkpt lat="42.212875" lon="23.587139"><ele>2163.7</ele><time>2026-04-05T12:53:30.000Z</time></trkpt>
<trkpt lat="42.212887" lon="23.587141"><ele>2163.7</ele><time>2026-04-05T12:53:31.000Z</time></trkpt>
<trkpt lat="42.212898" lon="23.587143"><ele>2162.6</ele><time>2026-04-05T12:53:32.000Z</time></trkpt>
<trkpt lat="42.21291" lon="23.587146"><ele>2162.6</ele><time>2026-04-05T12:53:33.000Z</time></trkpt>
<trkpt lat="42.212922" lon="23.587149"><ele>2162.6</ele><time>2026-04-05T12:53:34.000Z</time></trkpt>
<trkpt lat="42.212934" lon="23.587152"><ele>2162.6</ele><time>2026-04-05T12:53:35.000Z</time></trkpt>
<trkpt lat="42.212946" lon="23.587156"><ele>2162.6</ele><time>2026-04-05T12:53:36.000Z</time></trkpt>
<trkpt lat="42.212959" lon="23.587159"><ele>2162</ele><time>2026-04-05T12:53:37.000Z</time></trkpt>
<trkpt lat="42.212971" lon="23.587163"><ele>2162</ele><time>2026-04-05T12:53:38.000Z</time></trkpt>
<trkpt lat="42.212983" lon="23.587167"><ele>2162</ele><time>2026-04-05T12:53:39.000Z</time></trkpt>
<trkpt lat="42.212995" lon="23.587172"><ele>2162</ele><time>2026-04-05T12:53:40.000Z</time></trkpt>
<trkpt lat="42.213007" lon="23.587177"><ele>2162</ele><time>2026-04-05T12:53:41.000Z</time></trkpt>
<trkpt lat="42.213018" lon="23.587182"><ele>2160.7</ele><time>2026-04-05T12:53:42.000Z</time></trkpt>
<trkpt lat="42.213029" lon="23.587186"><ele>2160.7</ele><time>2026-04-05T12:53:43.000Z</time></trkpt>
<trkpt lat="42.21304" lon="23.587191"><ele>2160.7</ele><time>2026-04-05T12:53:44.000Z</time></trkpt>
<trkpt lat="42.213052" lon="23.587195"><ele>2160.7</ele><time>2026-04-05T12:53:45.000Z</time></trkpt>
<trkpt lat="42.213063" lon="23.587198"><ele>2160.7</ele><time>2026-04-05T12:53:46.000Z</time></trkpt>
<trkpt lat="42.213075" lon="23.587201"><ele>2159.2</ele><time>2026-04-05T12:53:47.000Z</time></trkpt>
<trkpt lat="42.213087" lon="23.587203"><ele>2159.2</ele><time>2026-04-05T12:53:48.000Z</time></trkpt>
<trkpt lat="42.2131" lon="23.587206"><ele>2159.2</ele><time>2026-04-05T12:53:49.000Z</time></trkpt>
<trkpt lat="42.213113" lon="23.587209"><ele>2159.2</ele><time>2026-04-05T12:53:50.000Z</time></trkpt>
<trkpt lat="42.213126" lon="23.587212"><ele>2159.2</ele><time>2026-04-05T12:53:51.000Z</time></trkpt>
<trkpt lat="42.213139" lon="23.587215"><ele>2158.5</ele><time>2026-04-05T12:53:52.000Z</time></trkpt>
<trkpt lat="42.213152" lon="23.587219"><ele>2158.5</ele><time>2026-04-05T12:53:53.000Z</time></trkpt>
<trkpt lat="42.213164" lon="23.587223"><ele>2158.5</ele><time>2026-04-05T12:53:54.000Z</time></trkpt>
<trkpt lat="42.213177" lon="23.587229"><ele>2158.5</ele><time>2026-04-05T12:53:55.000Z</time></trkpt>
<trkpt lat="42.213189" lon="23.587235"><ele>2158.5</ele><time>2026-04-05T12:53:56.000Z</time></trkpt>
<trkpt lat="42.2132" lon="23.587241"><ele>2157.1</ele><time>2026-04-05T12:53:57.000Z</time></trkpt>
<trkpt lat="42.213213" lon="23.587247"><ele>2157.1</ele><time>2026-04-05T12:53:58.000Z</time></trkpt>
<trkpt lat="42.213225" lon="23.587253"><ele>2157.1</ele><time>2026-04-05T12:53:59.000Z</time></trkpt>
<trkpt lat="42.213238" lon="23.587258"><ele>2157.1</ele><time>2026-04-05T12:54:00.000Z</time></trkpt>
<trkpt lat="42.213251" lon="23.587263"><ele>2157.1</ele><time>2026-04-05T12:54:01.000Z</time></trkpt>
<trkpt lat="42.213264" lon="23.587268"><ele>2156</ele><time>2026-04-05T12:54:02.000Z</time></trkpt>
<trkpt lat="42.213277" lon="23.587273"><ele>2156</ele><time>2026-04-05T12:54:03.000Z</time></trkpt>
<trkpt lat="42.213289" lon="23.587277"><ele>2156</ele><time>2026-04-05T12:54:04.000Z</time></trkpt>
<trkpt lat="42.213301" lon="23.587282"><ele>2156</ele><time>2026-04-05T12:54:05.000Z</time></trkpt>
<trkpt lat="42.213313" lon="23.587287"><ele>2156</ele><time>2026-04-05T12:54:06.000Z</time></trkpt>
<trkpt lat="42.213325" lon="23.587293"><ele>2155.6</ele><time>2026-04-05T12:54:07.000Z</time></trkpt>
<trkpt lat="42.213337" lon="23.587298"><ele>2155.6</ele><time>2026-04-05T12:54:08.000Z</time></trkpt>
<trkpt lat="42.21335" lon="23.587304"><ele>2155.6</ele><time>2026-04-05T12:54:09.000Z</time></trkpt>
<trkpt lat="42.213362" lon="23.587311"><ele>2155.6</ele><time>2026-04-05T12:54:10.000Z</time></trkpt>
<trkpt lat="42.213374" lon="23.587318"><ele>2155.6</ele><time>2026-04-05T12:54:11.000Z</time></trkpt>
<trkpt lat="42.213385" lon="23.587325"><ele>2154.8</ele><time>2026-04-05T12:54:12.000Z</time></trkpt>
<trkpt lat="42.213395" lon="23.587331"><ele>2154.8</ele><time>2026-04-05T12:54:13.000Z</time></trkpt>
<trkpt lat="42.213404" lon="23.587338"><ele>2154.8</ele><time>2026-04-05T12:54:14.000Z</time></trkpt>
<trkpt lat="42.213413" lon="23.587344"><ele>2154.8</ele><time>2026-04-05T12:54:15.000Z</time></trkpt>
<trkpt lat="42.213421" lon="23.587349"><ele>2154.8</ele><time>2026-04-05T12:54:16.000Z</time></trkpt>
<trkpt lat="42.21343" lon="23.587354"><ele>2153.9</ele><time>2026-04-05T12:54:17.000Z</time></trkpt>
<trkpt lat="42.213439" lon="23.587358"><ele>2153.9</ele><time>2026-04-05T12:54:18.000Z</time></trkpt>
<trkpt lat="42.213449" lon="23.587361"><ele>2153.9</ele><time>2026-04-05T12:54:19.000Z</time></trkpt>
<trkpt lat="42.213459" lon="23.587363"><ele>2153.9</ele><time>2026-04-05T12:54:20.000Z</time></trkpt>
<trkpt lat="42.213469" lon="23.587365"><ele>2153.9</ele><time>2026-04-05T12:54:21.000Z</time></trkpt>
<trkpt lat="42.213479" lon="23.587366"><ele>2153.6</ele><time>2026-04-05T12:54:22.000Z</time></trkpt>
<trkpt lat="42.21349" lon="23.587368"><ele>2153.6</ele><time>2026-04-05T12:54:23.000Z</time></trkpt>
<trkpt lat="42.213501" lon="23.587369"><ele>2153.6</ele><time>2026-04-05T12:54:24.000Z</time></trkpt>
<trkpt lat="42.213511" lon="23.58737"><ele>2153.6</ele><time>2026-04-05T12:54:25.000Z</time></trkpt>
<trkpt lat="42.213519" lon="23.587369"><ele>2153.6</ele><time>2026-04-05T12:54:26.000Z</time></trkpt>
<trkpt lat="42.213528" lon="23.587364"><ele>2152.9</ele><time>2026-04-05T12:54:27.000Z</time></trkpt>
<trkpt lat="42.213535" lon="23.587357"><ele>2152.9</ele><time>2026-04-05T12:54:28.000Z</time></trkpt>
<trkpt lat="42.213541" lon="23.587348"><ele>2152.9</ele><time>2026-04-05T12:54:29.000Z</time></trkpt>
<trkpt lat="42.213549" lon="23.587338"><ele>2152.9</ele><time>2026-04-05T12:54:30.000Z</time></trkpt>
<trkpt lat="42.213559" lon="23.58733"><ele>2152.9</ele><time>2026-04-05T12:54:31.000Z</time></trkpt>
<trkpt lat="42.213569" lon="23.587324"><ele>2152.3</ele><time>2026-04-05T12:54:32.000Z</time></trkpt>
<trkpt lat="42.213579" lon="23.587319"><ele>2152.3</ele><time>2026-04-05T12:54:33.000Z</time></trkpt>
<trkpt lat="42.213589" lon="23.587313"><ele>2152.3</ele><time>2026-04-05T12:54:34.000Z</time></trkpt>
<trkpt lat="42.213599" lon="23.587308"><ele>2152.3</ele><time>2026-04-05T12:54:35.000Z</time></trkpt>
<trkpt lat="42.213608" lon="23.587302"><ele>2152.3</ele><time>2026-04-05T12:54:36.000Z</time></trkpt>
<trkpt lat="42.213616" lon="23.587296"><ele>2152.1</ele><time>2026-04-05T12:54:37.000Z</time></trkpt>
<trkpt lat="42.213624" lon="23.58729"><ele>2152.1</ele><time>2026-04-05T12:54:38.000Z</time></trkpt>
<trkpt lat="42.21363" lon="23.587285"><ele>2152.1</ele><time>2026-04-05T12:54:39.000Z</time></trkpt>
<trkpt lat="42.213635" lon="23.587279"><ele>2152.1</ele><time>2026-04-05T12:54:40.000Z</time></trkpt>
<trkpt lat="42.213641" lon="23.587273"><ele>2152.1</ele><time>2026-04-05T12:54:41.000Z</time></trkpt>
<trkpt lat="42.213646" lon="23.587267"><ele>2151.7</ele><time>2026-04-05T12:54:42.000Z</time></trkpt>
<trkpt lat="42.21365" lon="23.587262"><ele>2151.7</ele><time>2026-04-05T12:54:43.000Z</time></trkpt>
<trkpt lat="42.213654" lon="23.587258"><ele>2151.7</ele><time>2026-04-05T12:54:44.000Z</time></trkpt>
<trkpt lat="42.213655" lon="23.587255"><ele>2151.7</ele><time>2026-04-05T12:54:45.000Z</time></trkpt>
<trkpt lat="42.213656" lon="23.587254"><ele>2151.7</ele><time>2026-04-05T12:54:46.000Z</time></trkpt>
<trkpt lat="42.213656" lon="23.587253"><ele>2151.5</ele><time>2026-04-05T12:54:47.000Z</time></trkpt>
<trkpt lat="42.213656" lon="23.587253"><ele>2151.5</ele><time>2026-04-05T12:54:48.000Z</time></trkpt>
<trkpt lat="42.213656" lon="23.587252"><ele>2151.5</ele><time>2026-04-05T12:54:49.000Z</time></trkpt>
<trkpt lat="42.213656" lon="23.587252"><ele>2151.5</ele><time>2026-04-05T12:54:50.000Z</time></trkpt>
<trkpt lat="42.213656" lon="23.587251"><ele>2151.5</ele><time>2026-04-05T12:54:51.000Z</time></trkpt>
<trkpt lat="42.213656" lon="23.587252"><ele>2151.5</ele><time>2026-04-05T12:54:52.000Z</time></trkpt>
<trkpt lat="42.213657" lon="23.587251"><ele>2151.5</ele><time>2026-04-05T12:54:53.000Z</time></trkpt>
<trkpt lat="42.213659" lon="23.587248"><ele>2151.5</ele><time>2026-04-05T12:54:54.000Z</time></trkpt>
<trkpt lat="42.213662" lon="23.587243"><ele>2151.5</ele><time>2026-04-05T12:54:55.000Z</time></trkpt>
<trkpt lat="42.213665" lon="23.587237"><ele>2151.5</ele><time>2026-04-05T12:54:56.000Z</time></trkpt>
<trkpt lat="42.213669" lon="23.58723"><ele>2151.5</ele><time>2026-04-05T12:54:57.000Z</time></trkpt>
<trkpt lat="42.213674" lon="23.587223"><ele>2151.5</ele><time>2026-04-05T12:54:58.000Z</time></trkpt>
<trkpt lat="42.21368" lon="23.587218"><ele>2151.5</ele><time>2026-04-05T12:54:59.000Z</time></trkpt>
<trkpt lat="42.213686" lon="23.587216"><ele>2151.5</ele><time>2026-04-05T12:55:00.000Z</time></trkpt>
<trkpt lat="42.213693" lon="23.587215"><ele>2151.5</ele><time>2026-04-05T12:55:01.000Z</time></trkpt>
<trkpt lat="42.213699" lon="23.587215"><ele>2151.6</ele><time>2026-04-05T12:55:02.000Z</time></trkpt>
<trkpt lat="42.213704" lon="23.587217"><ele>2151.6</ele><time>2026-04-05T12:55:03.000Z</time></trkpt>
<trkpt lat="42.213707" lon="23.587219"><ele>2151.6</ele><time>2026-04-05T12:55:04.000Z</time></trkpt>
<trkpt lat="42.213709" lon="23.587219"><ele>2151.6</ele><time>2026-04-05T12:55:05.000Z</time></trkpt>
<trkpt lat="42.213711" lon="23.58722"><ele>2151.6</ele><time>2026-04-05T12:55:06.000Z</time></trkpt>
<trkpt lat="42.213712" lon="23.58722"><ele>2151.6</ele><time>2026-04-05T12:55:07.000Z</time></trkpt>
<trkpt lat="42.213713" lon="23.587221"><ele>2151.6</ele><time>2026-04-05T12:55:08.000Z</time></trkpt>
<trkpt lat="42.213714" lon="23.587221"><ele>2151.6</ele><time>2026-04-05T12:55:09.000Z</time></trkpt>
<trkpt lat="42.213714" lon="23.587221"><ele>2151.6</ele><time>2026-04-05T12:55:10.000Z</time></trkpt>
<trkpt lat="42.213715" lon="23.58722"><ele>2151.6</ele><time>2026-04-05T12:55:11.000Z</time></trkpt>
<trkpt lat="42.213716" lon="23.587216"><ele>2151.3</ele><time>2026-04-05T12:55:12.000Z</time></trkpt>
<trkpt lat="42.213719" lon="23.587211"><ele>2151.3</ele><time>2026-04-05T12:55:13.000Z</time></trkpt>
<trkpt lat="42.213724" lon="23.587203"><ele>2151.3</ele><time>2026-04-05T12:55:14.000Z</time></trkpt>
<trkpt lat="42.21373" lon="23.587194"><ele>2151.3</ele><time>2026-04-05T12:55:15.000Z</time></trkpt>
<trkpt lat="42.213737" lon="23.587186"><ele>2151.3</ele><time>2026-04-05T12:55:16.000Z</time></trkpt>
<trkpt lat="42.213744" lon="23.587177"><ele>2151.1</ele><time>2026-04-05T12:55:17.000Z</time></trkpt>
<trkpt lat="42.21375" lon="23.587168"><ele>2151.1</ele><time>2026-04-05T12:55:18.000Z</time></trkpt>
<trkpt lat="42.213758" lon="23.587158"><ele>2151.1</ele><time>2026-04-05T12:55:19.000Z</time></trkpt>
<trkpt lat="42.213766" lon="23.587148"><ele>2151.1</ele><time>2026-04-05T12:55:20.000Z</time></trkpt>
<trkpt lat="42.213774" lon="23.587135"><ele>2151.1</ele><time>2026-04-05T12:55:21.000Z</time></trkpt>
<trkpt lat="42.213782" lon="23.587123"><ele>2151</ele><time>2026-04-05T12:55:22.000Z</time></trkpt>
<trkpt lat="42.21379" lon="23.58711"><ele>2151</ele><time>2026-04-05T12:55:23.000Z</time></trkpt>
<trkpt lat="42.213797" lon="23.587097"><ele>2151</ele><time>2026-04-05T12:55:24.000Z</time></trkpt>
<trkpt lat="42.213805" lon="23.587083"><ele>2151</ele><time>2026-04-05T12:55:25.000Z</time></trkpt>
<trkpt lat="42.213811" lon="23.587071"><ele>2151</ele><time>2026-04-05T12:55:26.000Z</time></trkpt>
<trkpt lat="42.213818" lon="23.587059"><ele>2150.9</ele><time>2026-04-05T12:55:27.000Z</time></trkpt>
<trkpt lat="42.213824" lon="23.587048"><ele>2150.9</ele><time>2026-04-05T12:55:28.000Z</time></trkpt>
<trkpt lat="42.21383" lon="23.587038"><ele>2150.9</ele><time>2026-04-05T12:55:29.000Z</time></trkpt>
<trkpt lat="42.213835" lon="23.587028"><ele>2150.9</ele><time>2026-04-05T12:55:30.000Z</time></trkpt>
<trkpt lat="42.21384" lon="23.587019"><ele>2150.9</ele><time>2026-04-05T12:55:31.000Z</time></trkpt>
<trkpt lat="42.213845" lon="23.587008"><ele>2150.6</ele><time>2026-04-05T12:55:32.000Z</time></trkpt>
<trkpt lat="42.213851" lon="23.586997"><ele>2150.6</ele><time>2026-04-05T12:55:33.000Z</time></trkpt>
<trkpt lat="42.213857" lon="23.586985"><ele>2150.6</ele><time>2026-04-05T12:55:34.000Z</time></trkpt>
<trkpt lat="42.213864" lon="23.586974"><ele>2150.6</ele><time>2026-04-05T12:55:35.000Z</time></trkpt>
<trkpt lat="42.213871" lon="23.586962"><ele>2150.6</ele><time>2026-04-05T12:55:36.000Z</time></trkpt>
<trkpt lat="42.213877" lon="23.586951"><ele>2150.4</ele><time>2026-04-05T12:55:37.000Z</time></trkpt>
<trkpt lat="42.213882" lon="23.58694"><ele>2150.4</ele><time>2026-04-05T12:55:38.000Z</time></trkpt>
<trkpt lat="42.213888" lon="23.586931"><ele>2150.4</ele><time>2026-04-05T12:55:39.000Z</time></trkpt>
<trkpt lat="42.213893" lon="23.586922"><ele>2150.4</ele><time>2026-04-05T12:55:40.000Z</time></trkpt>
<trkpt lat="42.213898" lon="23.586913"><ele>2150.4</ele><time>2026-04-05T12:55:41.000Z</time></trkpt>
<trkpt lat="42.213903" lon="23.586906"><ele>2150</ele><time>2026-04-05T12:55:42.000Z</time></trkpt>
<trkpt lat="42.213909" lon="23.586898"><ele>2150</ele><time>2026-04-05T12:55:43.000Z</time></trkpt>
<trkpt lat="42.213914" lon="23.586892"><ele>2150</ele><time>2026-04-05T12:55:44.000Z</time></trkpt>
<trkpt lat="42.213921" lon="23.586885"><ele>2150</ele><time>2026-04-05T12:55:45.000Z</time></trkpt>
<trkpt lat="42.213927" lon="23.586878"><ele>2150</ele><time>2026-04-05T12:55:46.000Z</time></trkpt>
<trkpt lat="42.213935" lon="23.586872"><ele>2149.9</ele><time>2026-04-05T12:55:47.000Z</time></trkpt>
<trkpt lat="42.213943" lon="23.586865"><ele>2149.9</ele><time>2026-04-05T12:55:48.000Z</time></trkpt>
<trkpt lat="42.21395" lon="23.586857"><ele>2149.9</ele><time>2026-04-05T12:55:49.000Z</time></trkpt>
<trkpt lat="42.213958" lon="23.586849"><ele>2149.9</ele><time>2026-04-05T12:55:50.000Z</time></trkpt>
<trkpt lat="42.213966" lon="23.58684"><ele>2149.9</ele><time>2026-04-05T12:55:51.000Z</time></trkpt>
<trkpt lat="42.213974" lon="23.586831"><ele>2149.9</ele><time>2026-04-05T12:55:52.000Z</time></trkpt>
<trkpt lat="42.213982" lon="23.586821"><ele>2149.9</ele><time>2026-04-05T12:55:53.000Z</time></trkpt>
<trkpt lat="42.213989" lon="23.586811"><ele>2149.9</ele><time>2026-04-05T12:55:54.000Z</time></trkpt>
<trkpt lat="42.213996" lon="23.5868"><ele>2149.9</ele><time>2026-04-05T12:55:55.000Z</time></trkpt>
<trkpt lat="42.214003" lon="23.586791"><ele>2149.9</ele><time>2026-04-05T12:55:56.000Z</time></trkpt>
<trkpt lat="42.21401" lon="23.586781"><ele>2150.1</ele><time>2026-04-05T12:55:57.000Z</time></trkpt>
<trkpt lat="42.214016" lon="23.586772"><ele>2150.1</ele><time>2026-04-05T12:55:58.000Z</time></trkpt>
<trkpt lat="42.214023" lon="23.586764"><ele>2150.1</ele><time>2026-04-05T12:55:59.000Z</time></trkpt>
<trkpt lat="42.214028" lon="23.586757"><ele>2150.1</ele><time>2026-04-05T12:56:00.000Z</time></trkpt>
<trkpt lat="42.214033" lon="23.58675"><ele>2150.1</ele><time>2026-04-05T12:56:01.000Z</time></trkpt>
<trkpt lat="42.214039" lon="23.586743"><ele>2150.3</ele><time>2026-04-05T12:56:02.000Z</time></trkpt>
<trkpt lat="42.214044" lon="23.586737"><ele>2150.3</ele><time>2026-04-05T12:56:03.000Z</time></trkpt>
<trkpt lat="42.214048" lon="23.586731"><ele>2150.3</ele><time>2026-04-05T12:56:04.000Z</time></trkpt>
<trkpt lat="42.214053" lon="23.586725"><ele>2150.3</ele><time>2026-04-05T12:56:05.000Z</time></trkpt>
<trkpt lat="42.214058" lon="23.58672"><ele>2150.3</ele><time>2026-04-05T12:56:06.000Z</time></trkpt>
<trkpt lat="42.214063" lon="23.586715"><ele>2150.5</ele><time>2026-04-05T12:56:07.000Z</time></trkpt>
<trkpt lat="42.214068" lon="23.586709"><ele>2150.5</ele><time>2026-04-05T12:56:08.000Z</time></trkpt>
<trkpt lat="42.214075" lon="23.586703"><ele>2150.5</ele><time>2026-04-05T12:56:09.000Z</time></trkpt>
<trkpt lat="42.214082" lon="23.586697"><ele>2150.5</ele><time>2026-04-05T12:56:10.000Z</time></trkpt>
<trkpt lat="42.214089" lon="23.58669"><ele>2150.5</ele><time>2026-04-05T12:56:11.000Z</time></trkpt>
<trkpt lat="42.214097" lon="23.586684"><ele>2151</ele><time>2026-04-05T12:56:12.000Z</time></trkpt>
<trkpt lat="42.214104" lon="23.586678"><ele>2151</ele><time>2026-04-05T12:56:13.000Z</time></trkpt>
<trkpt lat="42.214112" lon="23.586672"><ele>2151</ele><time>2026-04-05T12:56:14.000Z</time></trkpt>
<trkpt lat="42.214118" lon="23.586668"><ele>2151</ele><time>2026-04-05T12:56:15.000Z</time></trkpt>
<trkpt lat="42.214124" lon="23.586663"><ele>2151</ele><time>2026-04-05T12:56:16.000Z</time></trkpt>
<trkpt lat="42.214131" lon="23.586658"><ele>2151.6</ele><time>2026-04-05T12:56:17.000Z</time></trkpt>
<trkpt lat="42.214138" lon="23.586653"><ele>2151.6</ele><time>2026-04-05T12:56:18.000Z</time></trkpt>
<trkpt lat="42.214144" lon="23.586647"><ele>2151.6</ele><time>2026-04-05T12:56:19.000Z</time></trkpt>
<trkpt lat="42.214151" lon="23.586642"><ele>2151.6</ele><time>2026-04-05T12:56:20.000Z</time></trkpt>
<trkpt lat="42.214158" lon="23.586637"><ele>2151.6</ele><time>2026-04-05T12:56:21.000Z</time></trkpt>
<trkpt lat="42.214165" lon="23.586632"><ele>2152</ele><time>2026-04-05T12:56:22.000Z</time></trkpt>
<trkpt lat="42.214171" lon="23.586627"><ele>2152</ele><time>2026-04-05T12:56:23.000Z</time></trkpt>
<trkpt lat="42.214178" lon="23.586623"><ele>2152</ele><time>2026-04-05T12:56:24.000Z</time></trkpt>
<trkpt lat="42.214186" lon="23.586619"><ele>2152</ele><time>2026-04-05T12:56:25.000Z</time></trkpt>
<trkpt lat="42.214193" lon="23.586616"><ele>2152</ele><time>2026-04-05T12:56:26.000Z</time></trkpt>
<trkpt lat="42.214201" lon="23.586612"><ele>2152.4</ele><time>2026-04-05T12:56:27.000Z</time></trkpt>
<trkpt lat="42.214208" lon="23.586607"><ele>2152.4</ele><time>2026-04-05T12:56:28.000Z</time></trkpt>
<trkpt lat="42.214215" lon="23.586602"><ele>2152.4</ele><time>2026-04-05T12:56:29.000Z</time></trkpt>
<trkpt lat="42.214221" lon="23.586596"><ele>2152.4</ele><time>2026-04-05T12:56:30.000Z</time></trkpt>
<trkpt lat="42.214228" lon="23.58659"><ele>2152.4</ele><time>2026-04-05T12:56:31.000Z</time></trkpt>
<trkpt lat="42.214235" lon="23.586585"><ele>2152.9</ele><time>2026-04-05T12:56:32.000Z</time></trkpt>
<trkpt lat="42.214241" lon="23.586582"><ele>2152.9</ele><time>2026-04-05T12:56:33.000Z</time></trkpt>
<trkpt lat="42.214249" lon="23.586579"><ele>2152.9</ele><time>2026-04-05T12:56:34.000Z</time></trkpt>
<trkpt lat="42.214256" lon="23.586576"><ele>2152.9</ele><time>2026-04-05T12:56:35.000Z</time></trkpt>
<trkpt lat="42.214263" lon="23.586575"><ele>2152.9</ele><time>2026-04-05T12:56:36.000Z</time></trkpt>
<trkpt lat="42.21427" lon="23.586573"><ele>2153.2</ele><time>2026-04-05T12:56:37.000Z</time></trkpt>
<trkpt lat="42.214277" lon="23.58657"><ele>2153.2</ele><time>2026-04-05T12:56:38.000Z</time></trkpt>
<trkpt lat="42.214283" lon="23.586566"><ele>2153.2</ele><time>2026-04-05T12:56:39.000Z</time></trkpt>
<trkpt lat="42.214289" lon="23.586563"><ele>2153.2</ele><time>2026-04-05T12:56:40.000Z</time></trkpt>
<trkpt lat="42.214296" lon="23.586558"><ele>2153.2</ele><time>2026-04-05T12:56:41.000Z</time></trkpt>
<trkpt lat="42.214303" lon="23.586554"><ele>2153.7</ele><time>2026-04-05T12:56:42.000Z</time></trkpt>
<trkpt lat="42.21431" lon="23.58655"><ele>2153.7</ele><time>2026-04-05T12:56:43.000Z</time></trkpt>
<trkpt lat="42.214317" lon="23.586546"><ele>2153.7</ele><time>2026-04-05T12:56:44.000Z</time></trkpt>
<trkpt lat="42.214324" lon="23.586541"><ele>2153.7</ele><time>2026-04-05T12:56:45.000Z</time></trkpt>
<trkpt lat="42.21433" lon="23.586537"><ele>2153.7</ele><time>2026-04-05T12:56:46.000Z</time></trkpt>
<trkpt lat="42.214338" lon="23.586532"><ele>2154.1</ele><time>2026-04-05T12:56:47.000Z</time></trkpt>
<trkpt lat="42.214345" lon="23.586526"><ele>2154.1</ele><time>2026-04-05T12:56:48.000Z</time></trkpt>
<trkpt lat="42.214352" lon="23.586521"><ele>2154.1</ele><time>2026-04-05T12:56:49.000Z</time></trkpt>
<trkpt lat="42.214358" lon="23.586517"><ele>2154.1</ele><time>2026-04-05T12:56:50.000Z</time></trkpt>
<trkpt lat="42.214365" lon="23.586513"><ele>2154.1</ele><time>2026-04-05T12:56:51.000Z</time></trkpt>
<trkpt lat="42.214371" lon="23.58651"><ele>2154.4</ele><time>2026-04-05T12:56:52.000Z</time></trkpt>
<trkpt lat="42.214377" lon="23.586507"><ele>2154.4</ele><time>2026-04-05T12:56:53.000Z</time></trkpt>
<trkpt lat="42.214383" lon="23.586504"><ele>2154.4</ele><time>2026-04-05T12:56:54.000Z</time></trkpt>
<trkpt lat="42.214389" lon="23.586501"><ele>2154.4</ele><time>2026-04-05T12:56:55.000Z</time></trkpt>
<trkpt lat="42.214395" lon="23.586498"><ele>2154.4</ele><time>2026-04-05T12:56:56.000Z</time></trkpt>
<trkpt lat="42.214401" lon="23.586495"><ele>2154.9</ele><time>2026-04-05T12:56:57.000Z</time></trkpt>
<trkpt lat="42.214407" lon="23.586492"><ele>2154.9</ele><time>2026-04-05T12:56:58.000Z</time></trkpt>
<trkpt lat="42.214412" lon="23.58649"><ele>2154.9</ele><time>2026-04-05T12:56:59.000Z</time></trkpt>
<trkpt lat="42.214419" lon="23.586487"><ele>2154.9</ele><time>2026-04-05T12:57:00.000Z</time></trkpt>
<trkpt lat="42.214426" lon="23.586484"><ele>2154.9</ele><time>2026-04-05T12:57:01.000Z</time></trkpt>
<trkpt lat="42.214434" lon="23.58648"><ele>2155.5</ele><time>2026-04-05T12:57:02.000Z</time></trkpt>
<trkpt lat="42.214442" lon="23.586476"><ele>2155.5</ele><time>2026-04-05T12:57:03.000Z</time></trkpt>
<trkpt lat="42.21445" lon="23.586472"><ele>2155.5</ele><time>2026-04-05T12:57:04.000Z</time></trkpt>
<trkpt lat="42.214458" lon="23.586468"><ele>2155.5</ele><time>2026-04-05T12:57:05.000Z</time></trkpt>
<trkpt lat="42.214466" lon="23.586464"><ele>2155.5</ele><time>2026-04-05T12:57:06.000Z</time></trkpt>
<trkpt lat="42.214473" lon="23.586461"><ele>2155.8</ele><time>2026-04-05T12:57:07.000Z</time></trkpt>
<trkpt lat="42.214481" lon="23.586458"><ele>2155.8</ele><time>2026-04-05T12:57:08.000Z</time></trkpt>
<trkpt lat="42.214487" lon="23.586456"><ele>2155.8</ele><time>2026-04-05T12:57:09.000Z</time></trkpt>
<trkpt lat="42.214494" lon="23.586453"><ele>2155.8</ele><time>2026-04-05T12:57:10.000Z</time></trkpt>
<trkpt lat="42.214502" lon="23.586451"><ele>2155.8</ele><time>2026-04-05T12:57:11.000Z</time></trkpt>
<trkpt lat="42.214509" lon="23.586448"><ele>2156.5</ele><time>2026-04-05T12:57:12.000Z</time></trkpt>
<trkpt lat="42.214517" lon="23.586445"><ele>2156.5</ele><time>2026-04-05T12:57:13.000Z</time></trkpt>
<trkpt lat="42.214525" lon="23.586442"><ele>2156.5</ele><time>2026-04-05T12:57:14.000Z</time></trkpt>
<trkpt lat="42.214533" lon="23.58644"><ele>2156.5</ele><time>2026-04-05T12:57:15.000Z</time></trkpt>
<trkpt lat="42.21454" lon="23.586437"><ele>2156.5</ele><time>2026-04-05T12:57:16.000Z</time></trkpt>
<trkpt lat="42.214548" lon="23.586435"><ele>2157.1</ele><time>2026-04-05T12:57:17.000Z</time></trkpt>
<trkpt lat="42.214556" lon="23.586431"><ele>2157.1</ele><time>2026-04-05T12:57:18.000Z</time></trkpt>
<trkpt lat="42.214564" lon="23.586428"><ele>2157.1</ele><time>2026-04-05T12:57:19.000Z</time></trkpt>
<trkpt lat="42.214571" lon="23.586425"><ele>2157.1</ele><time>2026-04-05T12:57:20.000Z</time></trkpt>
<trkpt lat="42.214578" lon="23.586422"><ele>2157.1</ele><time>2026-04-05T12:57:21.000Z</time></trkpt>
<trkpt lat="42.214586" lon="23.586419"><ele>2157.3</ele><time>2026-04-05T12:57:22.000Z</time></trkpt>
<trkpt lat="42.214594" lon="23.586415"><ele>2157.3</ele><time>2026-04-05T12:57:23.000Z</time></trkpt>
<trkpt lat="42.214601" lon="23.586413"><ele>2157.3</ele><time>2026-04-05T12:57:24.000Z</time></trkpt>
<trkpt lat="42.214609" lon="23.58641"><ele>2157.3</ele><time>2026-04-05T12:57:25.000Z</time></trkpt>
<trkpt lat="42.214615" lon="23.586407"><ele>2157.3</ele><time>2026-04-05T12:57:26.000Z</time></trkpt>
<trkpt lat="42.214621" lon="23.586404"><ele>2158</ele><time>2026-04-05T12:57:27.000Z</time></trkpt>
<trkpt lat="42.214626" lon="23.586402"><ele>2158</ele><time>2026-04-05T12:57:28.000Z</time></trkpt>
<trkpt lat="42.214632" lon="23.586399"><ele>2158</ele><time>2026-04-05T12:57:29.000Z</time></trkpt>
<trkpt lat="42.214638" lon="23.586397"><ele>2158</ele><time>2026-04-05T12:57:30.000Z</time></trkpt>
<trkpt lat="42.214645" lon="23.586394"><ele>2158</ele><time>2026-04-05T12:57:31.000Z</time></trkpt>
<trkpt lat="42.214652" lon="23.586392"><ele>2158.6</ele><time>2026-04-05T12:57:32.000Z</time></trkpt>
<trkpt lat="42.214659" lon="23.586389"><ele>2158.6</ele><time>2026-04-05T12:57:33.000Z</time></trkpt>
<trkpt lat="42.214667" lon="23.586387"><ele>2158.6</ele><time>2026-04-05T12:57:34.000Z</time></trkpt>
<trkpt lat="42.214675" lon="23.586384"><ele>2158.6</ele><time>2026-04-05T12:57:35.000Z</time></trkpt>
<trkpt lat="42.214681" lon="23.586382"><ele>2158.6</ele><time>2026-04-05T12:57:36.000Z</time></trkpt>
<trkpt lat="42.214688" lon="23.586379"><ele>2158.8</ele><time>2026-04-05T12:57:37.000Z</time></trkpt>
<trkpt lat="42.214696" lon="23.586377"><ele>2158.8</ele><time>2026-04-05T12:57:38.000Z</time></trkpt>
<trkpt lat="42.214703" lon="23.586375"><ele>2158.8</ele><time>2026-04-05T12:57:39.000Z</time></trkpt>
<trkpt lat="42.21471" lon="23.586373"><ele>2158.8</ele><time>2026-04-05T12:57:40.000Z</time></trkpt>
<trkpt lat="42.214719" lon="23.58637"><ele>2158.8</ele><time>2026-04-05T12:57:41.000Z</time></trkpt>
<trkpt lat="42.214727" lon="23.586367"><ele>2159.2</ele><time>2026-04-05T12:57:42.000Z</time></trkpt>
<trkpt lat="42.214735" lon="23.586364"><ele>2159.2</ele><time>2026-04-05T12:57:43.000Z</time></trkpt>
<trkpt lat="42.214743" lon="23.58636"><ele>2159.2</ele><time>2026-04-05T12:57:44.000Z</time></trkpt>
<trkpt lat="42.214751" lon="23.586357"><ele>2159.2</ele><time>2026-04-05T12:57:45.000Z</time></trkpt>
<trkpt lat="42.214759" lon="23.586355"><ele>2159.2</ele><time>2026-04-05T12:57:46.000Z</time></trkpt>
<trkpt lat="42.214766" lon="23.586352"><ele>2159.7</ele><time>2026-04-05T12:57:47.000Z</time></trkpt>
<trkpt lat="42.214773" lon="23.586351"><ele>2159.7</ele><time>2026-04-05T12:57:48.000Z</time></trkpt>
<trkpt lat="42.21478" lon="23.586349"><ele>2159.7</ele><time>2026-04-05T12:57:49.000Z</time></trkpt>
<trkpt lat="42.214787" lon="23.586347"><ele>2159.7</ele><time>2026-04-05T12:57:50.000Z</time></trkpt>
<trkpt lat="42.214794" lon="23.586344"><ele>2159.7</ele><time>2026-04-05T12:57:51.000Z</time></trkpt>
<trkpt lat="42.214802" lon="23.586342"><ele>2160</ele><time>2026-04-05T12:57:52.000Z</time></trkpt>
<trkpt lat="42.21481" lon="23.586339"><ele>2160</ele><time>2026-04-05T12:57:53.000Z</time></trkpt>
<trkpt lat="42.214818" lon="23.586337"><ele>2160</ele><time>2026-04-05T12:57:54.000Z</time></trkpt>
<trkpt lat="42.214824" lon="23.586334"><ele>2160</ele><time>2026-04-05T12:57:55.000Z</time></trkpt>
<trkpt lat="42.214832" lon="23.586331"><ele>2160</ele><time>2026-04-05T12:57:56.000Z</time></trkpt>
<trkpt lat="42.214839" lon="23.586329"><ele>2160.6</ele><time>2026-04-05T12:57:57.000Z</time></trkpt>
<trkpt lat="42.214846" lon="23.586327"><ele>2160.6</ele><time>2026-04-05T12:57:58.000Z</time></trkpt>
<trkpt lat="42.214851" lon="23.586325"><ele>2160.6</ele><time>2026-04-05T12:57:59.000Z</time></trkpt>
<trkpt lat="42.214856" lon="23.586324"><ele>2160.6</ele><time>2026-04-05T12:58:00.000Z</time></trkpt>
<trkpt lat="42.21486" lon="23.586323"><ele>2160.6</ele><time>2026-04-05T12:58:01.000Z</time></trkpt>
<trkpt lat="42.214864" lon="23.586321"><ele>2161.1</ele><time>2026-04-05T12:58:02.000Z</time></trkpt>
<trkpt lat="42.214866" lon="23.586322"><ele>2161.1</ele><time>2026-04-05T12:58:03.000Z</time></trkpt>
<trkpt lat="42.214868" lon="23.586322"><ele>2161.1</ele><time>2026-04-05T12:58:04.000Z</time></trkpt>
<trkpt lat="42.214871" lon="23.586323"><ele>2161.1</ele><time>2026-04-05T12:58:05.000Z</time></trkpt>
<trkpt lat="42.214872" lon="23.586324"><ele>2161.1</ele><time>2026-04-05T12:58:06.000Z</time></trkpt>
<trkpt lat="42.214873" lon="23.586325"><ele>2161.3</ele><time>2026-04-05T12:58:07.000Z</time></trkpt>
<trkpt lat="42.214875" lon="23.586324"><ele>2161.3</ele><time>2026-04-05T12:58:08.000Z</time></trkpt>
<trkpt lat="42.214878" lon="23.586321"><ele>2161.3</ele><time>2026-04-05T12:58:09.000Z</time></trkpt>
<trkpt lat="42.214882" lon="23.586319"><ele>2161.3</ele><time>2026-04-05T12:58:10.000Z</time></trkpt>
<trkpt lat="42.214887" lon="23.586316"><ele>2161.3</ele><time>2026-04-05T12:58:11.000Z</time></trkpt>
<trkpt lat="42.214894" lon="23.586313"><ele>2161.8</ele><time>2026-04-05T12:58:12.000Z</time></trkpt>
<trkpt lat="42.214901" lon="23.586311"><ele>2161.8</ele><time>2026-04-05T12:58:13.000Z</time></trkpt>
<trkpt lat="42.214908" lon="23.586308"><ele>2161.8</ele><time>2026-04-05T12:58:14.000Z</time></trkpt>
<trkpt lat="42.214915" lon="23.586305"><ele>2161.8</ele><time>2026-04-05T12:58:15.000Z</time></trkpt>
<trkpt lat="42.214923" lon="23.586302"><ele>2161.8</ele><time>2026-04-05T12:58:16.000Z</time></trkpt>
<trkpt lat="42.21493" lon="23.5863"><ele>2162.1</ele><time>2026-04-05T12:58:17.000Z</time></trkpt>
<trkpt lat="42.214938" lon="23.586297"><ele>2162.1</ele><time>2026-04-05T12:58:18.000Z</time></trkpt>
<trkpt lat="42.214947" lon="23.586295"><ele>2162.1</ele><time>2026-04-05T12:58:19.000Z</time></trkpt>
<trkpt lat="42.214955" lon="23.586294"><ele>2162.1</ele><time>2026-04-05T12:58:20.000Z</time></trkpt>
<trkpt lat="42.214963" lon="23.586291"><ele>2162.1</ele><time>2026-04-05T12:58:21.000Z</time></trkpt>
<trkpt lat="42.21497" lon="23.586288"><ele>2162.2</ele><time>2026-04-05T12:58:22.000Z</time></trkpt>
<trkpt lat="42.214978" lon="23.586286"><ele>2162.2</ele><time>2026-04-05T12:58:23.000Z</time></trkpt>
<trkpt lat="42.214986" lon="23.586284"><ele>2162.2</ele><time>2026-04-05T12:58:24.000Z</time></trkpt>
<trkpt lat="42.214994" lon="23.58628"><ele>2162.2</ele><time>2026-04-05T12:58:25.000Z</time></trkpt>
<trkpt lat="42.215001" lon="23.586277"><ele>2162.2</ele><time>2026-04-05T12:58:26.000Z</time></trkpt>
<trkpt lat="42.215009" lon="23.586275"><ele>2162.6</ele><time>2026-04-05T12:58:27.000Z</time></trkpt>
<trkpt lat="42.215016" lon="23.586273"><ele>2162.6</ele><time>2026-04-05T12:58:28.000Z</time></trkpt>
<trkpt lat="42.215023" lon="23.586272"><ele>2162.6</ele><time>2026-04-05T12:58:29.000Z</time></trkpt>
<trkpt lat="42.215031" lon="23.586271"><ele>2162.6</ele><time>2026-04-05T12:58:30.000Z</time></trkpt>
<trkpt lat="42.215038" lon="23.58627"><ele>2162.6</ele><time>2026-04-05T12:58:31.000Z</time></trkpt>
<trkpt lat="42.215046" lon="23.586268"><ele>2163.3</ele><time>2026-04-05T12:58:32.000Z</time></trkpt>
<trkpt lat="42.215054" lon="23.586264"><ele>2163.3</ele><time>2026-04-05T12:58:33.000Z</time></trkpt>
<trkpt lat="42.215061" lon="23.58626"><ele>2163.3</ele><time>2026-04-05T12:58:34.000Z</time></trkpt>
<trkpt lat="42.215068" lon="23.586256"><ele>2163.3</ele><time>2026-04-05T12:58:35.000Z</time></trkpt>
<trkpt lat="42.215075" lon="23.586252"><ele>2163.3</ele><time>2026-04-05T12:58:36.000Z</time></trkpt>
<trkpt lat="42.215082" lon="23.586248"><ele>2163.7</ele><time>2026-04-05T12:58:37.000Z</time></trkpt>
<trkpt lat="42.215089" lon="23.586245"><ele>2163.7</ele><time>2026-04-05T12:58:38.000Z</time></trkpt>
<trkpt lat="42.215095" lon="23.586242"><ele>2163.7</ele><time>2026-04-05T12:58:39.000Z</time></trkpt>
<trkpt lat="42.215102" lon="23.58624"><ele>2163.7</ele><time>2026-04-05T12:58:40.000Z</time></trkpt>
<trkpt lat="42.215108" lon="23.586237"><ele>2163.7</ele><time>2026-04-05T12:58:41.000Z</time></trkpt>
<trkpt lat="42.215114" lon="23.586235"><ele>2164.5</ele><time>2026-04-05T12:58:42.000Z</time></trkpt>
<trkpt lat="42.215121" lon="23.586232"><ele>2164.5</ele><time>2026-04-05T12:58:43.000Z</time></trkpt>
<trkpt lat="42.215129" lon="23.58623"><ele>2164.5</ele><time>2026-04-05T12:58:44.000Z</time></trkpt>
<trkpt lat="42.215136" lon="23.586227"><ele>2164.5</ele><time>2026-04-05T12:58:45.000Z</time></trkpt>
<trkpt lat="42.215143" lon="23.586224"><ele>2164.5</ele><time>2026-04-05T12:58:46.000Z</time></trkpt>
<trkpt lat="42.21515" lon="23.586222"><ele>2165.4</ele><time>2026-04-05T12:58:47.000Z</time></trkpt>
<trkpt lat="42.215156" lon="23.586219"><ele>2165.4</ele><time>2026-04-05T12:58:48.000Z</time></trkpt>
<trkpt lat="42.215162" lon="23.586217"><ele>2165.4</ele><time>2026-04-05T12:58:49.000Z</time></trkpt>
<trkpt lat="42.215168" lon="23.586215"><ele>2165.4</ele><time>2026-04-05T12:58:50.000Z</time></trkpt>
<trkpt lat="42.215175" lon="23.586213"><ele>2165.4</ele><time>2026-04-05T12:58:51.000Z</time></trkpt>
<trkpt lat="42.21518" lon="23.586211"><ele>2165.7</ele><time>2026-04-05T12:58:52.000Z</time></trkpt>
<trkpt lat="42.215187" lon="23.586209"><ele>2165.7</ele><time>2026-04-05T12:58:53.000Z</time></trkpt>
<trkpt lat="42.215193" lon="23.586207"><ele>2165.7</ele><time>2026-04-05T12:58:54.000Z</time></trkpt>
<trkpt lat="42.215199" lon="23.586204"><ele>2165.7</ele><time>2026-04-05T12:58:55.000Z</time></trkpt>
<trkpt lat="42.215205" lon="23.586201"><ele>2165.7</ele><time>2026-04-05T12:58:56.000Z</time></trkpt>
<trkpt lat="42.215212" lon="23.586199"><ele>2166.4</ele><time>2026-04-05T12:58:57.000Z</time></trkpt>
<trkpt lat="42.215218" lon="23.586197"><ele>2166.4</ele><time>2026-04-05T12:58:58.000Z</time></trkpt>
<trkpt lat="42.215225" lon="23.586195"><ele>2166.4</ele><time>2026-04-05T12:58:59.000Z</time></trkpt>
<trkpt lat="42.215233" lon="23.586194"><ele>2166.4</ele><time>2026-04-05T12:59:00.000Z</time></trkpt>
<trkpt lat="42.215241" lon="23.586191"><ele>2166.4</ele><time>2026-04-05T12:59:01.000Z</time></trkpt>
<trkpt lat="42.215248" lon="23.586189"><ele>2167.2</ele><time>2026-04-05T12:59:02.000Z</time></trkpt>
<trkpt lat="42.215256" lon="23.586186"><ele>2167.2</ele><time>2026-04-05T12:59:03.000Z</time></trkpt>
<trkpt lat="42.215264" lon="23.586184"><ele>2167.2</ele><time>2026-04-05T12:59:04.000Z</time></trkpt>
<trkpt lat="42.21527" lon="23.586181"><ele>2167.2</ele><time>2026-04-05T12:59:05.000Z</time></trkpt>
<trkpt lat="42.215277" lon="23.586177"><ele>2167.2</ele><time>2026-04-05T12:59:06.000Z</time></trkpt>
<trkpt lat="42.215284" lon="23.586174"><ele>2167.6</ele><time>2026-04-05T12:59:07.000Z</time></trkpt>
<trkpt lat="42.215291" lon="23.586171"><ele>2167.6</ele><time>2026-04-05T12:59:08.000Z</time></trkpt>
<trkpt lat="42.215299" lon="23.586168"><ele>2167.6</ele><time>2026-04-05T12:59:09.000Z</time></trkpt>
<trkpt lat="42.215307" lon="23.586165"><ele>2167.6</ele><time>2026-04-05T12:59:10.000Z</time></trkpt>
<trkpt lat="42.215317" lon="23.586163"><ele>2167.6</ele><time>2026-04-05T12:59:11.000Z</time></trkpt>
<trkpt lat="42.215327" lon="23.586161"><ele>2168.4</ele><time>2026-04-05T12:59:12.000Z</time></trkpt>
<trkpt lat="42.215336" lon="23.586157"><ele>2168.4</ele><time>2026-04-05T12:59:13.000Z</time></trkpt>
<trkpt lat="42.215344" lon="23.586153"><ele>2168.4</ele><time>2026-04-05T12:59:14.000Z</time></trkpt>
<trkpt lat="42.215353" lon="23.586149"><ele>2168.4</ele><time>2026-04-05T12:59:15.000Z</time></trkpt>
<trkpt lat="42.215361" lon="23.586145"><ele>2168.4</ele><time>2026-04-05T12:59:16.000Z</time></trkpt>
<trkpt lat="42.215368" lon="23.586141"><ele>2169.3</ele><time>2026-04-05T12:59:17.000Z</time></trkpt>
<trkpt lat="42.215376" lon="23.586138"><ele>2169.3</ele><time>2026-04-05T12:59:18.000Z</time></trkpt>
<trkpt lat="42.215385" lon="23.586134"><ele>2169.3</ele><time>2026-04-05T12:59:19.000Z</time></trkpt>
<trkpt lat="42.215393" lon="23.58613"><ele>2169.3</ele><time>2026-04-05T12:59:20.000Z</time></trkpt>
<trkpt lat="42.215402" lon="23.586126"><ele>2169.3</ele><time>2026-04-05T12:59:21.000Z</time></trkpt>
<trkpt lat="42.215411" lon="23.586121"><ele>2169.7</ele><time>2026-04-05T12:59:22.000Z</time></trkpt>
<trkpt lat="42.215419" lon="23.586116"><ele>2169.7</ele><time>2026-04-05T12:59:23.000Z</time></trkpt>
<trkpt lat="42.215426" lon="23.586111"><ele>2169.7</ele><time>2026-04-05T12:59:24.000Z</time></trkpt>
<trkpt lat="42.215433" lon="23.586107"><ele>2169.7</ele><time>2026-04-05T12:59:25.000Z</time></trkpt>
<trkpt lat="42.215439" lon="23.586103"><ele>2169.7</ele><time>2026-04-05T12:59:26.000Z</time></trkpt>
<trkpt lat="42.215444" lon="23.5861"><ele>2170.1</ele><time>2026-04-05T12:59:27.000Z</time></trkpt>
<trkpt lat="42.215447" lon="23.586097"><ele>2170.1</ele><time>2026-04-05T12:59:28.000Z</time></trkpt>
<trkpt lat="42.21545" lon="23.586095"><ele>2170.1</ele><time>2026-04-05T12:59:29.000Z</time></trkpt>
<trkpt lat="42.215452" lon="23.586092"><ele>2170.1</ele><time>2026-04-05T12:59:30.000Z</time></trkpt>
<trkpt lat="42.215456" lon="23.586088"><ele>2170.1</ele><time>2026-04-05T12:59:31.000Z</time></trkpt>
<trkpt lat="42.21546" lon="23.586083"><ele>2170.5</ele><time>2026-04-05T12:59:32.000Z</time></trkpt>
<trkpt lat="42.215466" lon="23.586078"><ele>2170.5</ele><time>2026-04-05T12:59:33.000Z</time></trkpt>
<trkpt lat="42.215471" lon="23.586075"><ele>2170.5</ele><time>2026-04-05T12:59:34.000Z</time></trkpt>
<trkpt lat="42.215475" lon="23.58607"><ele>2170.5</ele><time>2026-04-05T12:59:35.000Z</time></trkpt>
<trkpt lat="42.215478" lon="23.586065"><ele>2170.5</ele><time>2026-04-05T12:59:36.000Z</time></trkpt>
<trkpt lat="42.215479" lon="23.586061"><ele>2170.7</ele><time>2026-04-05T12:59:37.000Z</time></trkpt>
<trkpt lat="42.21548" lon="23.586056"><ele>2170.7</ele><time>2026-04-05T12:59:38.000Z</time></trkpt>
<trkpt lat="42.21548" lon="23.58605"><ele>2170.7</ele><time>2026-04-05T12:59:39.000Z</time></trkpt>
<trkpt lat="42.215481" lon="23.586047"><ele>2170.7</ele><time>2026-04-05T12:59:40.000Z</time></trkpt>
<trkpt lat="42.215483" lon="23.586044"><ele>2170.7</ele><time>2026-04-05T12:59:41.000Z</time></trkpt>
<trkpt lat="42.215487" lon="23.586042"><ele>2171.2</ele><time>2026-04-05T12:59:42.000Z</time></trkpt>
<trkpt lat="42.215492" lon="23.58604"><ele>2171.2</ele><time>2026-04-05T12:59:43.000Z</time></trkpt>
<trkpt lat="42.215498" lon="23.586038"><ele>2171.2</ele><time>2026-04-05T12:59:44.000Z</time></trkpt>
<trkpt lat="42.215505" lon="23.586035"><ele>2171.2</ele><time>2026-04-05T12:59:45.000Z</time></trkpt>
<trkpt lat="42.215513" lon="23.586032"><ele>2171.2</ele><time>2026-04-05T12:59:46.000Z</time></trkpt>
<trkpt lat="42.215521" lon="23.586028"><ele>2171.5</ele><time>2026-04-05T12:59:47.000Z</time></trkpt>
<trkpt lat="42.215529" lon="23.586024"><ele>2171.5</ele><time>2026-04-05T12:59:48.000Z</time></trkpt>
<trkpt lat="42.215538" lon="23.586019"><ele>2171.5</ele><time>2026-04-05T12:59:49.000Z</time></trkpt>
<trkpt lat="42.215546" lon="23.586012"><ele>2171.5</ele><time>2026-04-05T12:59:50.000Z</time></trkpt>
<trkpt lat="42.215554" lon="23.586007"><ele>2171.5</ele><time>2026-04-05T12:59:51.000Z</time></trkpt>
<trkpt lat="42.215563" lon="23.586002"><ele>2171.7</ele><time>2026-04-05T12:59:52.000Z</time></trkpt>
<trkpt lat="42.215572" lon="23.585997"><ele>2171.7</ele><time>2026-04-05T12:59:53.000Z</time></trkpt>
<trkpt lat="42.215581" lon="23.585992"><ele>2171.7</ele><time>2026-04-05T12:59:54.000Z</time></trkpt>
<trkpt lat="42.21559" lon="23.585988"><ele>2171.7</ele><time>2026-04-05T12:59:55.000Z</time></trkpt>
<trkpt lat="42.215599" lon="23.585983"><ele>2171.7</ele><time>2026-04-05T12:59:56.000Z</time></trkpt>
<trkpt lat="42.21561" lon="23.585977"><ele>2172</ele><time>2026-04-05T12:59:57.000Z</time></trkpt>
<trkpt lat="42.215619" lon="23.585972"><ele>2172</ele><time>2026-04-05T12:59:58.000Z</time></trkpt>
<trkpt lat="42.215629" lon="23.585967"><ele>2172</ele><time>2026-04-05T12:59:59.000Z</time></trkpt>
<trkpt lat="42.215638" lon="23.585962"><ele>2172</ele><time>2026-04-05T13:00:00.000Z</time></trkpt>
<trkpt lat="42.215648" lon="23.585956"><ele>2172</ele><time>2026-04-05T13:00:01.000Z</time></trkpt>
<trkpt lat="42.215657" lon="23.58595"><ele>2172.5</ele><time>2026-04-05T13:00:02.000Z</time></trkpt>
<trkpt lat="42.215666" lon="23.585944"><ele>2172.5</ele><time>2026-04-05T13:00:03.000Z</time></trkpt>
<trkpt lat="42.215674" lon="23.585938"><ele>2172.5</ele><time>2026-04-05T13:00:04.000Z</time></trkpt>
<trkpt lat="42.215682" lon="23.585932"><ele>2172.5</ele><time>2026-04-05T13:00:05.000Z</time></trkpt>
<trkpt lat="42.215691" lon="23.585927"><ele>2172.5</ele><time>2026-04-05T13:00:06.000Z</time></trkpt>
<trkpt lat="42.2157" lon="23.585923"><ele>2172.7</ele><time>2026-04-05T13:00:07.000Z</time></trkpt>
<trkpt lat="42.215707" lon="23.585919"><ele>2172.7</ele><time>2026-04-05T13:00:08.000Z</time></trkpt>
<trkpt lat="42.215716" lon="23.585915"><ele>2172.7</ele><time>2026-04-05T13:00:09.000Z</time></trkpt>
<trkpt lat="42.215724" lon="23.585912"><ele>2172.7</ele><time>2026-04-05T13:00:10.000Z</time></trkpt>
<trkpt lat="42.215732" lon="23.585908"><ele>2172.7</ele><time>2026-04-05T13:00:11.000Z</time></trkpt>
<trkpt lat="42.215739" lon="23.585904"><ele>2173.2</ele><time>2026-04-05T13:00:12.000Z</time></trkpt>
<trkpt lat="42.215747" lon="23.585901"><ele>2173.2</ele><time>2026-04-05T13:00:13.000Z</time></trkpt>
<trkpt lat="42.215755" lon="23.585898"><ele>2173.2</ele><time>2026-04-05T13:00:14.000Z</time></trkpt>
<trkpt lat="42.215763" lon="23.585894"><ele>2173.2</ele><time>2026-04-05T13:00:15.000Z</time></trkpt>
<trkpt lat="42.21577" lon="23.585891"><ele>2173.2</ele><time>2026-04-05T13:00:16.000Z</time></trkpt>
<trkpt lat="42.215776" lon="23.585889"><ele>2173.7</ele><time>2026-04-05T13:00:17.000Z</time></trkpt>
<trkpt lat="42.215784" lon="23.585886"><ele>2173.7</ele><time>2026-04-05T13:00:18.000Z</time></trkpt>
<trkpt lat="42.215791" lon="23.585884"><ele>2173.7</ele><time>2026-04-05T13:00:19.000Z</time></trkpt>
<trkpt lat="42.215798" lon="23.585883"><ele>2173.7</ele><time>2026-04-05T13:00:20.000Z</time></trkpt>
<trkpt lat="42.215805" lon="23.585881"><ele>2173.7</ele><time>2026-04-05T13:00:21.000Z</time></trkpt>
<trkpt lat="42.215813" lon="23.585879"><ele>2173.9</ele><time>2026-04-05T13:00:22.000Z</time></trkpt>
<trkpt lat="42.21582" lon="23.585878"><ele>2173.9</ele><time>2026-04-05T13:00:23.000Z</time></trkpt>
<trkpt lat="42.215828" lon="23.585876"><ele>2173.9</ele><time>2026-04-05T13:00:24.000Z</time></trkpt>
<trkpt lat="42.215837" lon="23.585874"><ele>2173.9</ele><time>2026-04-05T13:00:25.000Z</time></trkpt>
<trkpt lat="42.215846" lon="23.585871"><ele>2173.9</ele><time>2026-04-05T13:00:26.000Z</time></trkpt>
<trkpt lat="42.215855" lon="23.585868"><ele>2174.5</ele><time>2026-04-05T13:00:27.000Z</time></trkpt>
<trkpt lat="42.215864" lon="23.585864"><ele>2174.5</ele><time>2026-04-05T13:00:28.000Z</time></trkpt>
<trkpt lat="42.215872" lon="23.58586"><ele>2174.5</ele><time>2026-04-05T13:00:29.000Z</time></trkpt>
<trkpt lat="42.215882" lon="23.585855"><ele>2174.5</ele><time>2026-04-05T13:00:30.000Z</time></trkpt>
<trkpt lat="42.215891" lon="23.585851"><ele>2174.5</ele><time>2026-04-05T13:00:31.000Z</time></trkpt>
<trkpt lat="42.2159" lon="23.585847"><ele>2175.1</ele><time>2026-04-05T13:00:32.000Z</time></trkpt>
<trkpt lat="42.21591" lon="23.585842"><ele>2175.1</ele><time>2026-04-05T13:00:33.000Z</time></trkpt>
<trkpt lat="42.215919" lon="23.585838"><ele>2175.1</ele><time>2026-04-05T13:00:34.000Z</time></trkpt>
<trkpt lat="42.215928" lon="23.585834"><ele>2175.1</ele><time>2026-04-05T13:00:35.000Z</time></trkpt>
<trkpt lat="42.215937" lon="23.585831"><ele>2175.1</ele><time>2026-04-05T13:00:36.000Z</time></trkpt>
<trkpt lat="42.215946" lon="23.585827"><ele>2175.3</ele><time>2026-04-05T13:00:37.000Z</time></trkpt>
<trkpt lat="42.215955" lon="23.585824"><ele>2175.3</ele><time>2026-04-05T13:00:38.000Z</time></trkpt>
<trkpt lat="42.215963" lon="23.585821"><ele>2175.3</ele><time>2026-04-05T13:00:39.000Z</time></trkpt>
<trkpt lat="42.215972" lon="23.585817"><ele>2175.3</ele><time>2026-04-05T13:00:40.000Z</time></trkpt>
<trkpt lat="42.21598" lon="23.585814"><ele>2175.3</ele><time>2026-04-05T13:00:41.000Z</time></trkpt>
<trkpt lat="42.215989" lon="23.58581"><ele>2175.7</ele><time>2026-04-05T13:00:42.000Z</time></trkpt>
<trkpt lat="42.215997" lon="23.585806"><ele>2175.7</ele><time>2026-04-05T13:00:43.000Z</time></trkpt>
<trkpt lat="42.216006" lon="23.585802"><ele>2175.7</ele><time>2026-04-05T13:00:44.000Z</time></trkpt>
<trkpt lat="42.216015" lon="23.585797"><ele>2175.7</ele><time>2026-04-05T13:00:45.000Z</time></trkpt>
<trkpt lat="42.216024" lon="23.585793"><ele>2175.7</ele><time>2026-04-05T13:00:46.000Z</time></trkpt>
<trkpt lat="42.216032" lon="23.585788"><ele>2175.9</ele><time>2026-04-05T13:00:47.000Z</time></trkpt>
<trkpt lat="42.216041" lon="23.585784"><ele>2175.9</ele><time>2026-04-05T13:00:48.000Z</time></trkpt>
<trkpt lat="42.21605" lon="23.585781"><ele>2175.9</ele><time>2026-04-05T13:00:49.000Z</time></trkpt>
<trkpt lat="42.216058" lon="23.585777"><ele>2175.9</ele><time>2026-04-05T13:00:50.000Z</time></trkpt>
<trkpt lat="42.216066" lon="23.585773"><ele>2175.9</ele><time>2026-04-05T13:00:51.000Z</time></trkpt>
<trkpt lat="42.216075" lon="23.585769"><ele>2176.1</ele><time>2026-04-05T13:00:52.000Z</time></trkpt>
<trkpt lat="42.216082" lon="23.585764"><ele>2176.1</ele><time>2026-04-05T13:00:53.000Z</time></trkpt>
<trkpt lat="42.21609" lon="23.58576"><ele>2176.1</ele><time>2026-04-05T13:00:54.000Z</time></trkpt>
<trkpt lat="42.216098" lon="23.585754"><ele>2176.1</ele><time>2026-04-05T13:00:55.000Z</time></trkpt>
<trkpt lat="42.216106" lon="23.585748"><ele>2176.1</ele><time>2026-04-05T13:00:56.000Z</time></trkpt>
<trkpt lat="42.216114" lon="23.585742"><ele>2176.3</ele><time>2026-04-05T13:00:57.000Z</time></trkpt>
<trkpt lat="42.216123" lon="23.585736"><ele>2176.3</ele><time>2026-04-05T13:00:58.000Z</time></trkpt>
<trkpt lat="42.216132" lon="23.585729"><ele>2176.3</ele><time>2026-04-05T13:00:59.000Z</time></trkpt>
<trkpt lat="42.21614" lon="23.585723"><ele>2176.3</ele><time>2026-04-05T13:01:00.000Z</time></trkpt>
<trkpt lat="42.216148" lon="23.585716"><ele>2176.3</ele><time>2026-04-05T13:01:01.000Z</time></trkpt>
<trkpt lat="42.216157" lon="23.585709"><ele>2176.5</ele><time>2026-04-05T13:01:02.000Z</time></trkpt>
<trkpt lat="42.216165" lon="23.585701"><ele>2176.5</ele><time>2026-04-05T13:01:03.000Z</time></trkpt>
<trkpt lat="42.216173" lon="23.585694"><ele>2176.5</ele><time>2026-04-05T13:01:04.000Z</time></trkpt>
<trkpt lat="42.216181" lon="23.585687"><ele>2176.5</ele><time>2026-04-05T13:01:05.000Z</time></trkpt>
<trkpt lat="42.216189" lon="23.58568"><ele>2176.5</ele><time>2026-04-05T13:01:06.000Z</time></trkpt>
<trkpt lat="42.216196" lon="23.585673"><ele>2176.8</ele><time>2026-04-05T13:01:07.000Z</time></trkpt>
<trkpt lat="42.216203" lon="23.585666"><ele>2176.8</ele><time>2026-04-05T13:01:08.000Z</time></trkpt>
<trkpt lat="42.216209" lon="23.585659"><ele>2176.8</ele><time>2026-04-05T13:01:09.000Z</time></trkpt>
<trkpt lat="42.216216" lon="23.585651"><ele>2176.8</ele><time>2026-04-05T13:01:10.000Z</time></trkpt>
<trkpt lat="42.216223" lon="23.585644"><ele>2176.8</ele><time>2026-04-05T13:01:11.000Z</time></trkpt>
<trkpt lat="42.21623" lon="23.585637"><ele>2177.3</ele><time>2026-04-05T13:01:12.000Z</time></trkpt>
<trkpt lat="42.216239" lon="23.58563"><ele>2177.3</ele><time>2026-04-05T13:01:13.000Z</time></trkpt>
<trkpt lat="42.216248" lon="23.585623"><ele>2177.3</ele><time>2026-04-05T13:01:14.000Z</time></trkpt>
<trkpt lat="42.216256" lon="23.585616"><ele>2177.3</ele><time>2026-04-05T13:01:15.000Z</time></trkpt>
<trkpt lat="42.216265" lon="23.585609"><ele>2177.3</ele><time>2026-04-05T13:01:16.000Z</time></trkpt>
<trkpt lat="42.216274" lon="23.585602"><ele>2177.8</ele><time>2026-04-05T13:01:17.000Z</time></trkpt>
<trkpt lat="42.216283" lon="23.585594"><ele>2177.8</ele><time>2026-04-05T13:01:18.000Z</time></trkpt>
<trkpt lat="42.216292" lon="23.585588"><ele>2177.8</ele><time>2026-04-05T13:01:19.000Z</time></trkpt>
<trkpt lat="42.216301" lon="23.585582"><ele>2177.8</ele><time>2026-04-05T13:01:20.000Z</time></trkpt>
<trkpt lat="42.21631" lon="23.585576"><ele>2177.8</ele><time>2026-04-05T13:01:21.000Z</time></trkpt>
<trkpt lat="42.216319" lon="23.585571"><ele>2178</ele><time>2026-04-05T13:01:22.000Z</time></trkpt>
<trkpt lat="42.216328" lon="23.585565"><ele>2178</ele><time>2026-04-05T13:01:23.000Z</time></trkpt>
<trkpt lat="42.216337" lon="23.585559"><ele>2178</ele><time>2026-04-05T13:01:24.000Z</time></trkpt>
<trkpt lat="42.216346" lon="23.585553"><ele>2178</ele><time>2026-04-05T13:01:25.000Z</time></trkpt>
<trkpt lat="42.216355" lon="23.585547"><ele>2178</ele><time>2026-04-05T13:01:26.000Z</time></trkpt>
<trkpt lat="42.216364" lon="23.58554"><ele>2178.4</ele><time>2026-04-05T13:01:27.000Z</time></trkpt>
<trkpt lat="42.216374" lon="23.585534"><ele>2178.4</ele><time>2026-04-05T13:01:28.000Z</time></trkpt>
<trkpt lat="42.216383" lon="23.585528"><ele>2178.4</ele><time>2026-04-05T13:01:29.000Z</time></trkpt>
<trkpt lat="42.216392" lon="23.585522"><ele>2178.4</ele><time>2026-04-05T13:01:30.000Z</time></trkpt>
<trkpt lat="42.216401" lon="23.585515"><ele>2178.4</ele><time>2026-04-05T13:01:31.000Z</time></trkpt>
<trkpt lat="42.21641" lon="23.585507"><ele>2178.9</ele><time>2026-04-05T13:01:32.000Z</time></trkpt>
<trkpt lat="42.216419" lon="23.5855"><ele>2178.9</ele><time>2026-04-05T13:01:33.000Z</time></trkpt>
<trkpt lat="42.216427" lon="23.585493"><ele>2178.9</ele><time>2026-04-05T13:01:34.000Z</time></trkpt>
<trkpt lat="42.216435" lon="23.585487"><ele>2178.9</ele><time>2026-04-05T13:01:35.000Z</time></trkpt>
<trkpt lat="42.216443" lon="23.58548"><ele>2178.9</ele><time>2026-04-05T13:01:36.000Z</time></trkpt>
<trkpt lat="42.216451" lon="23.585474"><ele>2179.2</ele><time>2026-04-05T13:01:37.000Z</time></trkpt>
<trkpt lat="42.21646" lon="23.585468"><ele>2179.2</ele><time>2026-04-05T13:01:38.000Z</time></trkpt>
<trkpt lat="42.21647" lon="23.585461"><ele>2179.2</ele><time>2026-04-05T13:01:39.000Z</time></trkpt>
<trkpt lat="42.216479" lon="23.585454"><ele>2179.2</ele><time>2026-04-05T13:01:40.000Z</time></trkpt>
<trkpt lat="42.216488" lon="23.585447"><ele>2179.2</ele><time>2026-04-05T13:01:41.000Z</time></trkpt>
<trkpt lat="42.216496" lon="23.58544"><ele>2179.9</ele><time>2026-04-05T13:01:42.000Z</time></trkpt>
<trkpt lat="42.216503" lon="23.585433"><ele>2179.9</ele><time>2026-04-05T13:01:43.000Z</time></trkpt>
<trkpt lat="42.216511" lon="23.585427"><ele>2179.9</ele><time>2026-04-05T13:01:44.000Z</time></trkpt>
<trkpt lat="42.216517" lon="23.585421"><ele>2179.9</ele><time>2026-04-05T13:01:45.000Z</time></trkpt>
<trkpt lat="42.216524" lon="23.585415"><ele>2179.9</ele><time>2026-04-05T13:01:46.000Z</time></trkpt>
<trkpt lat="42.216531" lon="23.58541"><ele>2180.5</ele><time>2026-04-05T13:01:47.000Z</time></trkpt>
<trkpt lat="42.216538" lon="23.585404"><ele>2180.5</ele><time>2026-04-05T13:01:48.000Z</time></trkpt>
<trkpt lat="42.216544" lon="23.585398"><ele>2180.5</ele><time>2026-04-05T13:01:49.000Z</time></trkpt>
<trkpt lat="42.216551" lon="23.585391"><ele>2180.5</ele><time>2026-04-05T13:01:50.000Z</time></trkpt>
<trkpt lat="42.216558" lon="23.585383"><ele>2180.5</ele><time>2026-04-05T13:01:51.000Z</time></trkpt>
<trkpt lat="42.216564" lon="23.585376"><ele>2180.8</ele><time>2026-04-05T13:01:52.000Z</time></trkpt>
<trkpt lat="42.21657" lon="23.585369"><ele>2180.8</ele><time>2026-04-05T13:01:53.000Z</time></trkpt>
<trkpt lat="42.216577" lon="23.585362"><ele>2180.8</ele><time>2026-04-05T13:01:54.000Z</time></trkpt>
<trkpt lat="42.216584" lon="23.585355"><ele>2180.8</ele><time>2026-04-05T13:01:55.000Z</time></trkpt>
<trkpt lat="42.216591" lon="23.585349"><ele>2180.8</ele><time>2026-04-05T13:01:56.000Z</time></trkpt>
<trkpt lat="42.216599" lon="23.585343"><ele>2181.1</ele><time>2026-04-05T13:01:57.000Z</time></trkpt>
<trkpt lat="42.216608" lon="23.585337"><ele>2181.1</ele><time>2026-04-05T13:01:58.000Z</time></trkpt>
<trkpt lat="42.216616" lon="23.585331"><ele>2181.1</ele><time>2026-04-05T13:01:59.000Z</time></trkpt>
<trkpt lat="42.216622" lon="23.585326"><ele>2181.1</ele><time>2026-04-05T13:02:00.000Z</time></trkpt>
<trkpt lat="42.216627" lon="23.585322"><ele>2181.1</ele><time>2026-04-05T13:02:01.000Z</time></trkpt>
<trkpt lat="42.216631" lon="23.585319"><ele>2181.6</ele><time>2026-04-05T13:02:02.000Z</time></trkpt>
<trkpt lat="42.216635" lon="23.585316"><ele>2181.6</ele><time>2026-04-05T13:02:03.000Z</time></trkpt>
<trkpt lat="42.216638" lon="23.585312"><ele>2181.6</ele><time>2026-04-05T13:02:04.000Z</time></trkpt>
<trkpt lat="42.216643" lon="23.585309"><ele>2181.6</ele><time>2026-04-05T13:02:05.000Z</time></trkpt>
<trkpt lat="42.216647" lon="23.585307"><ele>2181.6</ele><time>2026-04-05T13:02:06.000Z</time></trkpt>
<trkpt lat="42.216651" lon="23.585306"><ele>2181.9</ele><time>2026-04-05T13:02:07.000Z</time></trkpt>
<trkpt lat="42.216654" lon="23.585305"><ele>2181.9</ele><time>2026-04-05T13:02:08.000Z</time></trkpt>
<trkpt lat="42.216655" lon="23.585306"><ele>2181.9</ele><time>2026-04-05T13:02:09.000Z</time></trkpt>
<trkpt lat="42.216655" lon="23.585307"><ele>2181.9</ele><time>2026-04-05T13:02:10.000Z</time></trkpt>
<trkpt lat="42.216654" lon="23.585308"><ele>2181.9</ele><time>2026-04-05T13:02:11.000Z</time></trkpt>
<trkpt lat="42.216653" lon="23.585308"><ele>2182.6</ele><time>2026-04-05T13:02:12.000Z</time></trkpt>
<trkpt lat="42.216652" lon="23.585308"><ele>2182.6</ele><time>2026-04-05T13:02:13.000Z</time></trkpt>
<trkpt lat="42.216652" lon="23.585309"><ele>2182.6</ele><time>2026-04-05T13:02:14.000Z</time></trkpt>
<trkpt lat="42.216651" lon="23.585309"><ele>2182.6</ele><time>2026-04-05T13:02:15.000Z</time></trkpt>
<trkpt lat="42.21665" lon="23.58531"><ele>2182.6</ele><time>2026-04-05T13:02:16.000Z</time></trkpt>
<trkpt lat="42.216648" lon="23.58531"><ele>2183.1</ele><time>2026-04-05T13:02:17.000Z</time></trkpt>
<trkpt lat="42.216647" lon="23.58531"><ele>2183.1</ele><time>2026-04-05T13:02:18.000Z</time></trkpt>
<trkpt lat="42.216646" lon="23.58531"><ele>2183.1</ele><time>2026-04-05T13:02:19.000Z</time></trkpt>
<trkpt lat="42.216646" lon="23.585308"><ele>2183.1</ele><time>2026-04-05T13:02:20.000Z</time></trkpt>
<trkpt lat="42.216647" lon="23.585306"><ele>2183.1</ele><time>2026-04-05T13:02:21.000Z</time></trkpt>
<trkpt lat="42.216649" lon="23.585303"><ele>2183.3</ele><time>2026-04-05T13:02:22.000Z</time></trkpt>
<trkpt lat="42.216651" lon="23.5853"><ele>2183.3</ele><time>2026-04-05T13:02:23.000Z</time></trkpt>
<trkpt lat="42.216652" lon="23.585298"><ele>2183.3</ele><time>2026-04-05T13:02:24.000Z</time></trkpt>
<trkpt lat="42.216653" lon="23.585297"><ele>2183.3</ele><time>2026-04-05T13:02:25.000Z</time></trkpt>
<trkpt lat="42.216654" lon="23.585296"><ele>2183.3</ele><time>2026-04-05T13:02:26.000Z</time></trkpt>
<trkpt lat="42.216654" lon="23.585297"><ele>2183.5</ele><time>2026-04-05T13:02:27.000Z</time></trkpt>
<trkpt lat="42.216654" lon="23.585298"><ele>2183.5</ele><time>2026-04-05T13:02:28.000Z</time></trkpt>
<trkpt lat="42.216654" lon="23.585298"><ele>2183.5</ele><time>2026-04-05T13:02:29.000Z</time></trkpt>
<trkpt lat="42.216654" lon="23.585299"><ele>2183.5</ele><time>2026-04-05T13:02:30.000Z</time></trkpt>
<trkpt lat="42.216655" lon="23.5853"><ele>2183.5</ele><time>2026-04-05T13:02:31.000Z</time></trkpt>
<trkpt lat="42.216655" lon="23.5853"><ele>2183.5</ele><time>2026-04-05T13:02:32.000Z</time></trkpt>
<trkpt lat="42.216656" lon="23.5853"><ele>2183.5</ele><time>2026-04-05T13:02:33.000Z</time></trkpt>
<trkpt lat="42.216656" lon="23.5853"><ele>2183.5</ele><time>2026-04-05T13:02:34.000Z</time></trkpt>
<trkpt lat="42.216656" lon="23.5853"><ele>2183.5</ele><time>2026-04-05T13:02:35.000Z</time></trkpt>
<trkpt lat="42.216656" lon="23.585301"><ele>2183.5</ele><time>2026-04-05T13:02:36.000Z</time></trkpt>
<trkpt lat="42.216655" lon="23.585302"><ele>2183.4</ele><time>2026-04-05T13:02:37.000Z</time></trkpt>
<trkpt lat="42.216654" lon="23.585303"><ele>2183.4</ele><time>2026-04-05T13:02:38.000Z</time></trkpt>
<trkpt lat="42.216654" lon="23.585304"><ele>2183.4</ele><time>2026-04-05T13:02:39.000Z</time></trkpt>
<trkpt lat="42.216653" lon="23.585305"><ele>2183.4</ele><time>2026-04-05T13:02:40.000Z</time></trkpt>
<trkpt lat="42.216652" lon="23.585305"><ele>2183.4</ele><time>2026-04-05T13:02:41.000Z</time></trkpt>
<trkpt lat="42.216652" lon="23.585304"><ele>2183.3</ele><time>2026-04-05T13:02:42.000Z</time></trkpt>
<trkpt lat="42.216651" lon="23.585303"><ele>2183.3</ele><time>2026-04-05T13:02:43.000Z</time></trkpt>
<trkpt lat="42.216651" lon="23.585303"><ele>2183.3</ele><time>2026-04-05T13:02:44.000Z</time></trkpt>
<trkpt lat="42.216651" lon="23.585302"><ele>2183.3</ele><time>2026-04-05T13:02:45.000Z</time></trkpt>
<trkpt lat="42.21665" lon="23.585302"><ele>2183.3</ele><time>2026-04-05T13:02:46.000Z</time></trkpt>
<trkpt lat="42.21665" lon="23.585302"><ele>2183.6</ele><time>2026-04-05T13:02:47.000Z</time></trkpt>
<trkpt lat="42.21665" lon="23.585302"><ele>2183.6</ele><time>2026-04-05T13:02:48.000Z</time></trkpt>
<trkpt lat="42.21665" lon="23.585301"><ele>2183.6</ele><time>2026-04-05T13:02:49.000Z</time></trkpt>
<trkpt lat="42.21665" lon="23.585301"><ele>2183.6</ele><time>2026-04-05T13:02:50.000Z</time></trkpt>
<trkpt lat="42.21665" lon="23.585301"><ele>2183.6</ele><time>2026-04-05T13:02:51.000Z</time></trkpt>
<trkpt lat="42.21665" lon="23.5853"><ele>2183.9</ele><time>2026-04-05T13:02:52.000Z</time></trkpt>
<trkpt lat="42.216651" lon="23.585301"><ele>2183.9</ele><time>2026-04-05T13:02:53.000Z</time></trkpt>
<trkpt lat="42.21665" lon="23.585301"><ele>2183.9</ele><time>2026-04-05T13:02:54.000Z</time></trkpt>
<trkpt lat="42.21665" lon="23.585301"><ele>2183.9</ele><time>2026-04-05T13:02:55.000Z</time></trkpt>
<trkpt lat="42.216649" lon="23.585301"><ele>2183.9</ele><time>2026-04-05T13:02:56.000Z</time></trkpt>
<trkpt lat="42.216648" lon="23.585301"><ele>2184.1</ele><time>2026-04-05T13:02:57.000Z</time></trkpt>
<trkpt lat="42.216647" lon="23.585302"><ele>2184.1</ele><time>2026-04-05T13:02:58.000Z</time></trkpt>
<trkpt lat="42.216646" lon="23.585302"><ele>2184.1</ele><time>2026-04-05T13:02:59.000Z</time></trkpt>
<trkpt lat="42.216645" lon="23.585303"><ele>2184.1</ele><time>2026-04-05T13:03:00.000Z</time></trkpt>
<trkpt lat="42.216644" lon="23.585304"><ele>2184.1</ele><time>2026-04-05T13:03:01.000Z</time></trkpt>
<trkpt lat="42.216644" lon="23.585305"><ele>2183.8</ele><time>2026-04-05T13:03:02.000Z</time></trkpt>
<trkpt lat="42.216644" lon="23.585306"><ele>2183.8</ele><time>2026-04-05T13:03:03.000Z</time></trkpt>
<trkpt lat="42.216644" lon="23.585307"><ele>2183.8</ele><time>2026-04-05T13:03:04.000Z</time></trkpt>
<trkpt lat="42.216643" lon="23.585307"><ele>2183.8</ele><time>2026-04-05T13:03:05.000Z</time></trkpt>
<trkpt lat="42.216643" lon="23.585308"><ele>2183.8</ele><time>2026-04-05T13:03:06.000Z</time></trkpt>
<trkpt lat="42.216643" lon="23.585309"><ele>2183.7</ele><time>2026-04-05T13:03:07.000Z</time></trkpt>
<trkpt lat="42.216642" lon="23.585308"><ele>2183.7</ele><time>2026-04-05T13:03:08.000Z</time></trkpt>
<trkpt lat="42.216642" lon="23.585309"><ele>2183.7</ele><time>2026-04-05T13:03:09.000Z</time></trkpt>
<trkpt lat="42.216642" lon="23.585309"><ele>2183.7</ele><time>2026-04-05T13:03:10.000Z</time></trkpt>
<trkpt lat="42.216641" lon="23.585308"><ele>2183.7</ele><time>2026-04-05T13:03:11.000Z</time></trkpt>
<trkpt lat="42.21664" lon="23.585308"><ele>2183.5</ele><time>2026-04-05T13:03:12.000Z</time></trkpt>
<trkpt lat="42.21664" lon="23.585308"><ele>2183.5</ele><time>2026-04-05T13:03:13.000Z</time></trkpt>
<trkpt lat="42.216639" lon="23.585308"><ele>2183.5</ele><time>2026-04-05T13:03:14.000Z</time></trkpt>
<trkpt lat="42.216639" lon="23.585309"><ele>2183.5</ele><time>2026-04-05T13:03:15.000Z</time></trkpt>
<trkpt lat="42.21664" lon="23.585309"><ele>2183.5</ele><time>2026-04-05T13:03:16.000Z</time></trkpt>
<trkpt lat="42.21664" lon="23.58531"><ele>2183.9</ele><time>2026-04-05T13:03:17.000Z</time></trkpt>
<trkpt lat="42.21664" lon="23.585312"><ele>2183.9</ele><time>2026-04-05T13:03:18.000Z</time></trkpt>
<trkpt lat="42.21664" lon="23.585314"><ele>2183.9</ele><time>2026-04-05T13:03:19.000Z</time></trkpt>
<trkpt lat="42.21664" lon="23.585315"><ele>2183.9</ele><time>2026-04-05T13:03:20.000Z</time></trkpt>
<trkpt lat="42.21664" lon="23.585316"><ele>2183.9</ele><time>2026-04-05T13:03:21.000Z</time></trkpt>
<trkpt lat="42.21664" lon="23.585316"><ele>2184</ele><time>2026-04-05T13:03:22.000Z</time></trkpt>
<trkpt lat="42.21664" lon="23.585316"><ele>2184</ele><time>2026-04-05T13:03:23.000Z</time></trkpt>
<trkpt lat="42.21664" lon="23.585315"><ele>2184</ele><time>2026-04-05T13:03:24.000Z</time></trkpt>
<trkpt lat="42.216641" lon="23.585315"><ele>2184</ele><time>2026-04-05T13:03:25.000Z</time></trkpt>
<trkpt lat="42.216641" lon="23.585313"><ele>2184</ele><time>2026-04-05T13:03:26.000Z</time></trkpt>
<trkpt lat="42.216643" lon="23.58531"><ele>2184.1</ele><time>2026-04-05T13:03:27.000Z</time></trkpt>
<trkpt lat="42.216645" lon="23.585306"><ele>2184.1</ele><time>2026-04-05T13:03:28.000Z</time></trkpt>
<trkpt lat="42.216648" lon="23.585302"><ele>2184.1</ele><time>2026-04-05T13:03:29.000Z</time></trkpt>
<trkpt lat="42.216652" lon="23.585295"><ele>2184.1</ele><time>2026-04-05T13:03:30.000Z</time></trkpt>
<trkpt lat="42.216657" lon="23.585288"><ele>2184.1</ele><time>2026-04-05T13:03:31.000Z</time></trkpt>
<trkpt lat="42.216663" lon="23.585281"><ele>2184.1</ele><time>2026-04-05T13:03:32.000Z</time></trkpt>
<trkpt lat="42.21667" lon="23.585274"><ele>2184.1</ele><time>2026-04-05T13:03:33.000Z</time></trkpt>
<trkpt lat="42.216677" lon="23.585266"><ele>2184.1</ele><time>2026-04-05T13:03:34.000Z</time></trkpt>
<trkpt lat="42.216684" lon="23.585259"><ele>2184.1</ele><time>2026-04-05T13:03:35.000Z</time></trkpt>
<trkpt lat="42.216692" lon="23.585252"><ele>2184.1</ele><time>2026-04-05T13:03:36.000Z</time></trkpt>
<trkpt lat="42.2167" lon="23.585245"><ele>2184.1</ele><time>2026-04-05T13:03:37.000Z</time></trkpt>
<trkpt lat="42.216708" lon="23.585238"><ele>2184.1</ele><time>2026-04-05T13:03:38.000Z</time></trkpt>
<trkpt lat="42.216715" lon="23.585229"><ele>2184.1</ele><time>2026-04-05T13:03:39.000Z</time></trkpt>
<trkpt lat="42.216722" lon="23.585222"><ele>2184.1</ele><time>2026-04-05T13:03:40.000Z</time></trkpt>
<trkpt lat="42.216728" lon="23.585215"><ele>2184.1</ele><time>2026-04-05T13:03:41.000Z</time></trkpt>
<trkpt lat="42.216734" lon="23.585209"><ele>2184.4</ele><time>2026-04-05T13:03:42.000Z</time></trkpt>
<trkpt lat="42.216739" lon="23.585203"><ele>2184.4</ele><time>2026-04-05T13:03:43.000Z</time></trkpt>
<trkpt lat="42.216743" lon="23.585198"><ele>2184.4</ele><time>2026-04-05T13:03:44.000Z</time></trkpt>
<trkpt lat="42.216748" lon="23.585192"><ele>2184.4</ele><time>2026-04-05T13:03:45.000Z</time></trkpt>
<trkpt lat="42.216753" lon="23.585187"><ele>2184.4</ele><time>2026-04-05T13:03:46.000Z</time></trkpt>
<trkpt lat="42.216757" lon="23.585182"><ele>2184.8</ele><time>2026-04-05T13:03:47.000Z</time></trkpt>
<trkpt lat="42.216761" lon="23.585179"><ele>2184.8</ele><time>2026-04-05T13:03:48.000Z</time></trkpt>
<trkpt lat="42.216765" lon="23.585174"><ele>2184.8</ele><time>2026-04-05T13:03:49.000Z</time></trkpt>
<trkpt lat="42.216769" lon="23.585169"><ele>2184.8</ele><time>2026-04-05T13:03:50.000Z</time></trkpt>
<trkpt lat="42.216773" lon="23.585163"><ele>2184.8</ele><time>2026-04-05T13:03:51.000Z</time></trkpt>
<trkpt lat="42.216778" lon="23.585156"><ele>2185.1</ele><time>2026-04-05T13:03:52.000Z</time></trkpt>
<trkpt lat="42.216784" lon="23.585149"><ele>2185.1</ele><time>2026-04-05T13:03:53.000Z</time></trkpt>
<trkpt lat="42.21679" lon="23.585142"><ele>2185.1</ele><time>2026-04-05T13:03:54.000Z</time></trkpt>
<trkpt lat="42.216796" lon="23.585134"><ele>2185.1</ele><time>2026-04-05T13:03:55.000Z</time></trkpt>
<trkpt lat="42.216802" lon="23.585127"><ele>2185.1</ele><time>2026-04-05T13:03:56.000Z</time></trkpt>
<trkpt lat="42.216808" lon="23.58512"><ele>2185.9</ele><time>2026-04-05T13:03:57.000Z</time></trkpt>
<trkpt lat="42.216815" lon="23.585112"><ele>2185.9</ele><time>2026-04-05T13:03:58.000Z</time></trkpt>
<trkpt lat="42.216823" lon="23.585106"><ele>2185.9</ele><time>2026-04-05T13:03:59.000Z</time></trkpt>
<trkpt lat="42.216832" lon="23.5851"><ele>2185.9</ele><time>2026-04-05T13:04:00.000Z</time></trkpt>
<trkpt lat="42.216841" lon="23.585094"><ele>2185.9</ele><time>2026-04-05T13:04:01.000Z</time></trkpt>
<trkpt lat="42.21685" lon="23.585088"><ele>2186.7</ele><time>2026-04-05T13:04:02.000Z</time></trkpt>
<trkpt lat="42.216858" lon="23.585082"><ele>2186.7</ele><time>2026-04-05T13:04:03.000Z</time></trkpt>
<trkpt lat="42.216867" lon="23.585076"><ele>2186.7</ele><time>2026-04-05T13:04:04.000Z</time></trkpt>
<trkpt lat="42.216875" lon="23.58507"><ele>2186.7</ele><time>2026-04-05T13:04:05.000Z</time></trkpt>
<trkpt lat="42.216883" lon="23.585063"><ele>2186.7</ele><time>2026-04-05T13:04:06.000Z</time></trkpt>
<trkpt lat="42.216892" lon="23.585056"><ele>2186.9</ele><time>2026-04-05T13:04:07.000Z</time></trkpt>
<trkpt lat="42.2169" lon="23.58505"><ele>2186.9</ele><time>2026-04-05T13:04:08.000Z</time></trkpt>
<trkpt lat="42.216908" lon="23.585043"><ele>2186.9</ele><time>2026-04-05T13:04:09.000Z</time></trkpt>
<trkpt lat="42.216917" lon="23.585036"><ele>2186.9</ele><time>2026-04-05T13:04:10.000Z</time></trkpt>
<trkpt lat="42.216924" lon="23.58503"><ele>2186.9</ele><time>2026-04-05T13:04:11.000Z</time></trkpt>
<trkpt lat="42.216932" lon="23.585024"><ele>2187.2</ele><time>2026-04-05T13:04:12.000Z</time></trkpt>
<trkpt lat="42.216941" lon="23.585018"><ele>2187.2</ele><time>2026-04-05T13:04:13.000Z</time></trkpt>
<trkpt lat="42.21695" lon="23.585011"><ele>2187.2</ele><time>2026-04-05T13:04:14.000Z</time></trkpt>
<trkpt lat="42.216959" lon="23.585004"><ele>2187.2</ele><time>2026-04-05T13:04:15.000Z</time></trkpt>
<trkpt lat="42.216969" lon="23.584998"><ele>2187.2</ele><time>2026-04-05T13:04:16.000Z</time></trkpt>
<trkpt lat="42.216979" lon="23.584991"><ele>2187.5</ele><time>2026-04-05T13:04:17.000Z</time></trkpt>
<trkpt lat="42.216989" lon="23.584985"><ele>2187.5</ele><time>2026-04-05T13:04:18.000Z</time></trkpt>
<trkpt lat="42.216999" lon="23.58498"><ele>2187.5</ele><time>2026-04-05T13:04:19.000Z</time></trkpt>
<trkpt lat="42.217008" lon="23.584975"><ele>2187.5</ele><time>2026-04-05T13:04:20.000Z</time></trkpt>
<trkpt lat="42.217017" lon="23.58497"><ele>2187.5</ele><time>2026-04-05T13:04:21.000Z</time></trkpt>
<trkpt lat="42.217026" lon="23.584965"><ele>2187.8</ele><time>2026-04-05T13:04:22.000Z</time></trkpt>
<trkpt lat="42.217036" lon="23.58496"><ele>2187.8</ele><time>2026-04-05T13:04:23.000Z</time></trkpt>
<trkpt lat="42.217045" lon="23.584956"><ele>2187.8</ele><time>2026-04-05T13:04:24.000Z</time></trkpt>
<trkpt lat="42.217054" lon="23.584952"><ele>2187.8</ele><time>2026-04-05T13:04:25.000Z</time></trkpt>
<trkpt lat="42.217064" lon="23.584948"><ele>2187.8</ele><time>2026-04-05T13:04:26.000Z</time></trkpt>
<trkpt lat="42.217072" lon="23.584945"><ele>2188.4</ele><time>2026-04-05T13:04:27.000Z</time></trkpt>
<trkpt lat="42.217081" lon="23.58494"><ele>2188.4</ele><time>2026-04-05T13:04:28.000Z</time></trkpt>
<trkpt lat="42.217088" lon="23.584936"><ele>2188.4</ele><time>2026-04-05T13:04:29.000Z</time></trkpt>
<trkpt lat="42.217096" lon="23.584932"><ele>2188.4</ele><time>2026-04-05T13:04:30.000Z</time></trkpt>
<trkpt lat="42.217103" lon="23.584928"><ele>2188.4</ele><time>2026-04-05T13:04:31.000Z</time></trkpt>
<trkpt lat="42.217111" lon="23.584923"><ele>2188.9</ele><time>2026-04-05T13:04:32.000Z</time></trkpt>
<trkpt lat="42.217118" lon="23.584919"><ele>2188.9</ele><time>2026-04-05T13:04:33.000Z</time></trkpt>
<trkpt lat="42.217125" lon="23.584915"><ele>2188.9</ele><time>2026-04-05T13:04:34.000Z</time></trkpt>
<trkpt lat="42.217133" lon="23.58491"><ele>2188.9</ele><time>2026-04-05T13:04:35.000Z</time></trkpt>
<trkpt lat="42.217141" lon="23.584906"><ele>2188.9</ele><time>2026-04-05T13:04:36.000Z</time></trkpt>
<trkpt lat="42.21715" lon="23.584902"><ele>2189.2</ele><time>2026-04-05T13:04:37.000Z</time></trkpt>
<trkpt lat="42.217159" lon="23.584898"><ele>2189.2</ele><time>2026-04-05T13:04:38.000Z</time></trkpt>
<trkpt lat="42.217168" lon="23.584894"><ele>2189.2</ele><time>2026-04-05T13:04:39.000Z</time></trkpt>
<trkpt lat="42.217176" lon="23.58489"><ele>2189.2</ele><time>2026-04-05T13:04:40.000Z</time></trkpt>
<trkpt lat="42.217186" lon="23.584886"><ele>2189.2</ele><time>2026-04-05T13:04:41.000Z</time></trkpt>
<trkpt lat="42.217195" lon="23.584883"><ele>2189.6</ele><time>2026-04-05T13:04:42.000Z</time></trkpt>
<trkpt lat="42.217203" lon="23.58488"><ele>2189.6</ele><time>2026-04-05T13:04:43.000Z</time></trkpt>
<trkpt lat="42.217212" lon="23.584877"><ele>2189.6</ele><time>2026-04-05T13:04:44.000Z</time></trkpt>
<trkpt lat="42.217222" lon="23.584874"><ele>2189.6</ele><time>2026-04-05T13:04:45.000Z</time></trkpt>
<trkpt lat="42.21723" lon="23.584872"><ele>2189.6</ele><time>2026-04-05T13:04:46.000Z</time></trkpt>
<trkpt lat="42.217238" lon="23.584869"><ele>2190.2</ele><time>2026-04-05T13:04:47.000Z</time></trkpt>
<trkpt lat="42.217247" lon="23.584865"><ele>2190.2</ele><time>2026-04-05T13:04:48.000Z</time></trkpt>
<trkpt lat="42.217254" lon="23.584861"><ele>2190.2</ele><time>2026-04-05T13:04:49.000Z</time></trkpt>
<trkpt lat="42.217262" lon="23.584857"><ele>2190.2</ele><time>2026-04-05T13:04:50.000Z</time></trkpt>
<trkpt lat="42.21727" lon="23.584853"><ele>2190.2</ele><time>2026-04-05T13:04:51.000Z</time></trkpt>
<trkpt lat="42.217279" lon="23.584848"><ele>2190.5</ele><time>2026-04-05T13:04:52.000Z</time></trkpt>
<trkpt lat="42.217287" lon="23.584844"><ele>2190.5</ele><time>2026-04-05T13:04:53.000Z</time></trkpt>
<trkpt lat="42.217296" lon="23.58484"><ele>2190.5</ele><time>2026-04-05T13:04:54.000Z</time></trkpt>
<trkpt lat="42.217304" lon="23.584837"><ele>2190.5</ele><time>2026-04-05T13:04:55.000Z</time></trkpt>
<trkpt lat="42.217313" lon="23.584833"><ele>2190.5</ele><time>2026-04-05T13:04:56.000Z</time></trkpt>
<trkpt lat="42.217322" lon="23.584829"><ele>2191.1</ele><time>2026-04-05T13:04:57.000Z</time></trkpt>
<trkpt lat="42.217332" lon="23.584825"><ele>2191.1</ele><time>2026-04-05T13:04:58.000Z</time></trkpt>
<trkpt lat="42.217341" lon="23.584821"><ele>2191.1</ele><time>2026-04-05T13:04:59.000Z</time></trkpt>
<trkpt lat="42.21735" lon="23.584816"><ele>2191.1</ele><time>2026-04-05T13:05:00.000Z</time></trkpt>
<trkpt lat="42.217359" lon="23.584811"><ele>2191.1</ele><time>2026-04-05T13:05:01.000Z</time></trkpt>
<trkpt lat="42.217367" lon="23.584807"><ele>2191.7</ele><time>2026-04-05T13:05:02.000Z</time></trkpt>
<trkpt lat="42.217376" lon="23.584804"><ele>2191.7</ele><time>2026-04-05T13:05:03.000Z</time></trkpt>
<trkpt lat="42.217384" lon="23.584802"><ele>2191.7</ele><time>2026-04-05T13:05:04.000Z</time></trkpt>
<trkpt lat="42.217394" lon="23.5848"><ele>2191.7</ele><time>2026-04-05T13:05:05.000Z</time></trkpt>
<trkpt lat="42.217404" lon="23.584798"><ele>2191.7</ele><time>2026-04-05T13:05:06.000Z</time></trkpt>
<trkpt lat="42.217413" lon="23.584795"><ele>2192</ele><time>2026-04-05T13:05:07.000Z</time></trkpt>
<trkpt lat="42.217423" lon="23.584792"><ele>2192</ele><time>2026-04-05T13:05:08.000Z</time></trkpt>
<trkpt lat="42.217434" lon="23.584789"><ele>2192</ele><time>2026-04-05T13:05:09.000Z</time></trkpt>
<trkpt lat="42.217444" lon="23.584788"><ele>2192</ele><time>2026-04-05T13:05:10.000Z</time></trkpt>
<trkpt lat="42.217454" lon="23.584785"><ele>2192</ele><time>2026-04-05T13:05:11.000Z</time></trkpt>
<trkpt lat="42.217463" lon="23.584783"><ele>2192.5</ele><time>2026-04-05T13:05:12.000Z</time></trkpt>
<trkpt lat="42.217473" lon="23.58478"><ele>2192.5</ele><time>2026-04-05T13:05:13.000Z</time></trkpt>
<trkpt lat="42.217482" lon="23.584776"><ele>2192.5</ele><time>2026-04-05T13:05:14.000Z</time></trkpt>
<trkpt lat="42.21749" lon="23.584771"><ele>2192.5</ele><time>2026-04-05T13:05:15.000Z</time></trkpt>
<trkpt lat="42.217498" lon="23.584767"><ele>2192.5</ele><time>2026-04-05T13:05:16.000Z</time></trkpt>
<trkpt lat="42.217506" lon="23.584762"><ele>2192.7</ele><time>2026-04-05T13:05:17.000Z</time></trkpt>
<trkpt lat="42.217512" lon="23.584759"><ele>2192.7</ele><time>2026-04-05T13:05:18.000Z</time></trkpt>
<trkpt lat="42.217517" lon="23.584756"><ele>2192.7</ele><time>2026-04-05T13:05:19.000Z</time></trkpt>
<trkpt lat="42.21752" lon="23.584754"><ele>2192.7</ele><time>2026-04-05T13:05:20.000Z</time></trkpt>
<trkpt lat="42.217522" lon="23.584751"><ele>2192.7</ele><time>2026-04-05T13:05:21.000Z</time></trkpt>
<trkpt lat="42.217524" lon="23.584748"><ele>2192.7</ele><time>2026-04-05T13:05:22.000Z</time></trkpt>
<trkpt lat="42.217527" lon="23.584745"><ele>2192.7</ele><time>2026-04-05T13:05:23.000Z</time></trkpt>
<trkpt lat="42.217531" lon="23.584741"><ele>2192.7</ele><time>2026-04-05T13:05:24.000Z</time></trkpt>
<trkpt lat="42.217538" lon="23.584738"><ele>2192.7</ele><time>2026-04-05T13:05:25.000Z</time></trkpt>
<trkpt lat="42.217544" lon="23.584735"><ele>2192.7</ele><time>2026-04-05T13:05:26.000Z</time></trkpt>
<trkpt lat="42.217551" lon="23.584732"><ele>2192.8</ele><time>2026-04-05T13:05:27.000Z</time></trkpt>
<trkpt lat="42.217558" lon="23.584729"><ele>2192.8</ele><time>2026-04-05T13:05:28.000Z</time></trkpt>
<trkpt lat="42.217566" lon="23.584725"><ele>2192.8</ele><time>2026-04-05T13:05:29.000Z</time></trkpt>
<trkpt lat="42.217572" lon="23.584723"><ele>2192.8</ele><time>2026-04-05T13:05:30.000Z</time></trkpt>
<trkpt lat="42.21758" lon="23.584719"><ele>2192.8</ele><time>2026-04-05T13:05:31.000Z</time></trkpt>
<trkpt lat="42.217587" lon="23.584715"><ele>2193.1</ele><time>2026-04-05T13:05:32.000Z</time></trkpt>
<trkpt lat="42.217594" lon="23.584711"><ele>2193.1</ele><time>2026-04-05T13:05:33.000Z</time></trkpt>
<trkpt lat="42.217601" lon="23.584707"><ele>2193.1</ele><time>2026-04-05T13:05:34.000Z</time></trkpt>
<trkpt lat="42.217609" lon="23.584704"><ele>2193.1</ele><time>2026-04-05T13:05:35.000Z</time></trkpt>
<trkpt lat="42.217617" lon="23.584701"><ele>2193.1</ele><time>2026-04-05T13:05:36.000Z</time></trkpt>
<trkpt lat="42.217623" lon="23.5847"><ele>2193.3</ele><time>2026-04-05T13:05:37.000Z</time></trkpt>
<trkpt lat="42.21763" lon="23.584698"><ele>2193.3</ele><time>2026-04-05T13:05:38.000Z</time></trkpt>
<trkpt lat="42.217637" lon="23.584696"><ele>2193.3</ele><time>2026-04-05T13:05:39.000Z</time></trkpt>
<trkpt lat="42.217643" lon="23.584694"><ele>2193.3</ele><time>2026-04-05T13:05:40.000Z</time></trkpt>
<trkpt lat="42.21765" lon="23.58469"><ele>2193.3</ele><time>2026-04-05T13:05:41.000Z</time></trkpt>
<trkpt lat="42.217656" lon="23.584686"><ele>2193.8</ele><time>2026-04-05T13:05:42.000Z</time></trkpt>
<trkpt lat="42.217663" lon="23.584683"><ele>2193.8</ele><time>2026-04-05T13:05:43.000Z</time></trkpt>
<trkpt lat="42.21767" lon="23.584679"><ele>2193.8</ele><time>2026-04-05T13:05:44.000Z</time></trkpt>
<trkpt lat="42.217678" lon="23.584675"><ele>2193.8</ele><time>2026-04-05T13:05:45.000Z</time></trkpt>
<trkpt lat="42.217685" lon="23.584672"><ele>2193.8</ele><time>2026-04-05T13:05:46.000Z</time></trkpt>
<trkpt lat="42.217692" lon="23.584669"><ele>2194.2</ele><time>2026-04-05T13:05:47.000Z</time></trkpt>
<trkpt lat="42.217699" lon="23.584665"><ele>2194.2</ele><time>2026-04-05T13:05:48.000Z</time></trkpt>
<trkpt lat="42.217704" lon="23.584663"><ele>2194.2</ele><time>2026-04-05T13:05:49.000Z</time></trkpt>
<trkpt lat="42.21771" lon="23.584661"><ele>2194.2</ele><time>2026-04-05T13:05:50.000Z</time></trkpt>
<trkpt lat="42.217716" lon="23.584659"><ele>2194.2</ele><time>2026-04-05T13:05:51.000Z</time></trkpt>
<trkpt lat="42.217721" lon="23.584658"><ele>2194.5</ele><time>2026-04-05T13:05:52.000Z</time></trkpt>
<trkpt lat="42.217728" lon="23.584657"><ele>2194.5</ele><time>2026-04-05T13:05:53.000Z</time></trkpt>
<trkpt lat="42.217735" lon="23.584654"><ele>2194.5</ele><time>2026-04-05T13:05:54.000Z</time></trkpt>
<trkpt lat="42.217742" lon="23.584652"><ele>2194.5</ele><time>2026-04-05T13:05:55.000Z</time></trkpt>
<trkpt lat="42.217749" lon="23.584651"><ele>2194.5</ele><time>2026-04-05T13:05:56.000Z</time></trkpt>
<trkpt lat="42.217757" lon="23.58465"><ele>2195</ele><time>2026-04-05T13:05:57.000Z</time></trkpt>
<trkpt lat="42.217764" lon="23.584648"><ele>2195</ele><time>2026-04-05T13:05:58.000Z</time></trkpt>
<trkpt lat="42.21777" lon="23.584647"><ele>2195</ele><time>2026-04-05T13:05:59.000Z</time></trkpt>
<trkpt lat="42.217777" lon="23.584645"><ele>2195</ele><time>2026-04-05T13:06:00.000Z</time></trkpt>
<trkpt lat="42.217784" lon="23.584643"><ele>2195</ele><time>2026-04-05T13:06:01.000Z</time></trkpt>
<trkpt lat="42.21779" lon="23.584641"><ele>2195.6</ele><time>2026-04-05T13:06:02.000Z</time></trkpt>
<trkpt lat="42.217797" lon="23.584639"><ele>2195.6</ele><time>2026-04-05T13:06:03.000Z</time></trkpt>
<trkpt lat="42.217804" lon="23.584638"><ele>2195.6</ele><time>2026-04-05T13:06:04.000Z</time></trkpt>
<trkpt lat="42.217811" lon="23.584635"><ele>2195.6</ele><time>2026-04-05T13:06:05.000Z</time></trkpt>
<trkpt lat="42.217818" lon="23.584633"><ele>2195.6</ele><time>2026-04-05T13:06:06.000Z</time></trkpt>
<trkpt lat="42.217825" lon="23.58463"><ele>2195.9</ele><time>2026-04-05T13:06:07.000Z</time></trkpt>
<trkpt lat="42.217831" lon="23.584627"><ele>2195.9</ele><time>2026-04-05T13:06:08.000Z</time></trkpt>
<trkpt lat="42.217839" lon="23.584624"><ele>2195.9</ele><time>2026-04-05T13:06:09.000Z</time></trkpt>
<trkpt lat="42.217846" lon="23.584622"><ele>2195.9</ele><time>2026-04-05T13:06:10.000Z</time></trkpt>
<trkpt lat="42.217853" lon="23.58462"><ele>2195.9</ele><time>2026-04-05T13:06:11.000Z</time></trkpt>
<trkpt lat="42.217861" lon="23.584618"><ele>2196.6</ele><time>2026-04-05T13:06:12.000Z</time></trkpt>
<trkpt lat="42.217868" lon="23.584616"><ele>2196.6</ele><time>2026-04-05T13:06:13.000Z</time></trkpt>
<trkpt lat="42.217875" lon="23.584614"><ele>2196.6</ele><time>2026-04-05T13:06:14.000Z</time></trkpt>
<trkpt lat="42.217882" lon="23.584612"><ele>2196.6</ele><time>2026-04-05T13:06:15.000Z</time></trkpt>
<trkpt lat="42.217889" lon="23.584609"><ele>2196.6</ele><time>2026-04-05T13:06:16.000Z</time></trkpt>
<trkpt lat="42.217896" lon="23.584607"><ele>2197.2</ele><time>2026-04-05T13:06:17.000Z</time></trkpt>
<trkpt lat="42.2179" lon="23.584607"><ele>2197.2</ele><time>2026-04-05T13:06:18.000Z</time></trkpt>
<trkpt lat="42.217905" lon="23.584607"><ele>2197.2</ele><time>2026-04-05T13:06:19.000Z</time></trkpt>
<trkpt lat="42.217906" lon="23.584608"><ele>2197.2</ele><time>2026-04-05T13:06:20.000Z</time></trkpt>
<trkpt lat="42.217907" lon="23.584609"><ele>2197.2</ele><time>2026-04-05T13:06:21.000Z</time></trkpt>
<trkpt lat="42.217906" lon="23.58461"><ele>2197.5</ele><time>2026-04-05T13:06:22.000Z</time></trkpt>
<trkpt lat="42.217906" lon="23.58461"><ele>2197.5</ele><time>2026-04-05T13:06:23.000Z</time></trkpt>
<trkpt lat="42.217906" lon="23.58461"><ele>2197.5</ele><time>2026-04-05T13:06:24.000Z</time></trkpt>
<trkpt lat="42.217906" lon="23.58461"><ele>2197.5</ele><time>2026-04-05T13:06:25.000Z</time></trkpt>
<trkpt lat="42.217907" lon="23.584609"><ele>2197.5</ele><time>2026-04-05T13:06:26.000Z</time></trkpt>
<trkpt lat="42.217907" lon="23.584608"><ele>2198</ele><time>2026-04-05T13:06:27.000Z</time></trkpt>
<trkpt lat="42.217908" lon="23.584608"><ele>2198</ele><time>2026-04-05T13:06:28.000Z</time></trkpt>
<trkpt lat="42.217908" lon="23.584608"><ele>2198</ele><time>2026-04-05T13:06:29.000Z</time></trkpt>
<trkpt lat="42.217908" lon="23.584607"><ele>2198</ele><time>2026-04-05T13:06:30.000Z</time></trkpt>
<trkpt lat="42.217908" lon="23.584607"><ele>2198</ele><time>2026-04-05T13:06:31.000Z</time></trkpt>
<trkpt lat="42.217907" lon="23.584607"><ele>2198.5</ele><time>2026-04-05T13:06:32.000Z</time></trkpt>
<trkpt lat="42.217907" lon="23.584607"><ele>2198.5</ele><time>2026-04-05T13:06:33.000Z</time></trkpt>
<trkpt lat="42.217907" lon="23.584606"><ele>2198.5</ele><time>2026-04-05T13:06:34.000Z</time></trkpt>
<trkpt lat="42.217906" lon="23.584605"><ele>2198.5</ele><time>2026-04-05T13:06:35.000Z</time></trkpt>
<trkpt lat="42.217906" lon="23.584604"><ele>2198.5</ele><time>2026-04-05T13:06:36.000Z</time></trkpt>
<trkpt lat="42.217906" lon="23.584603"><ele>2198.6</ele><time>2026-04-05T13:06:37.000Z</time></trkpt>
<trkpt lat="42.217906" lon="23.584602"><ele>2198.6</ele><time>2026-04-05T13:06:38.000Z</time></trkpt>
<trkpt lat="42.217906" lon="23.584602"><ele>2198.6</ele><time>2026-04-05T13:06:39.000Z</time></trkpt>
<trkpt lat="42.217906" lon="23.584602"><ele>2198.6</ele><time>2026-04-05T13:06:40.000Z</time></trkpt>
<trkpt lat="42.217906" lon="23.584601"><ele>2198.6</ele><time>2026-04-05T13:06:41.000Z</time></trkpt>
<trkpt lat="42.217906" lon="23.584601"><ele>2198.8</ele><time>2026-04-05T13:06:42.000Z</time></trkpt>
<trkpt lat="42.217906" lon="23.5846"><ele>2198.8</ele><time>2026-04-05T13:06:43.000Z</time></trkpt>
<trkpt lat="42.217906" lon="23.5846"><ele>2198.8</ele><time>2026-04-05T13:06:44.000Z</time></trkpt>
<trkpt lat="42.217906" lon="23.5846"><ele>2198.8</ele><time>2026-04-05T13:06:45.000Z</time></trkpt>
<trkpt lat="42.217906" lon="23.5846"><ele>2198.8</ele><time>2026-04-05T13:06:46.000Z</time></trkpt>
<trkpt lat="42.217905" lon="23.5846"><ele>2198.7</ele><time>2026-04-05T13:06:47.000Z</time></trkpt>
<trkpt lat="42.217905" lon="23.584599"><ele>2198.7</ele><time>2026-04-05T13:06:48.000Z</time></trkpt>
<trkpt lat="42.217904" lon="23.584599"><ele>2198.7</ele><time>2026-04-05T13:06:49.000Z</time></trkpt>
<trkpt lat="42.217904" lon="23.584598"><ele>2198.7</ele><time>2026-04-05T13:06:50.000Z</time></trkpt>
<trkpt lat="42.217903" lon="23.584598"><ele>2198.7</ele><time>2026-04-05T13:06:51.000Z</time></trkpt>
<trkpt lat="42.217903" lon="23.584598"><ele>2198.7</ele><time>2026-04-05T13:06:52.000Z</time></trkpt>
<trkpt lat="42.217903" lon="23.584598"><ele>2198.7</ele><time>2026-04-05T13:06:53.000Z</time></trkpt>
<trkpt lat="42.217903" lon="23.584598"><ele>2198.7</ele><time>2026-04-05T13:06:54.000Z</time></trkpt>
<trkpt lat="42.217903" lon="23.584598"><ele>2198.7</ele><time>2026-04-05T13:06:55.000Z</time></trkpt>
<trkpt lat="42.217903" lon="23.584598"><ele>2198.7</ele><time>2026-04-05T13:06:56.000Z</time></trkpt>
<trkpt lat="42.217903" lon="23.584598"><ele>2198.6</ele><time>2026-04-05T13:06:57.000Z</time></trkpt>
<trkpt lat="42.217903" lon="23.584598"><ele>2198.6</ele><time>2026-04-05T13:06:58.000Z</time></trkpt>
<trkpt lat="42.217903" lon="23.584598"><ele>2198.6</ele><time>2026-04-05T13:06:59.000Z</time></trkpt>
<trkpt lat="42.217903" lon="23.584598"><ele>2198.6</ele><time>2026-04-05T13:07:00.000Z</time></trkpt>
<trkpt lat="42.217904" lon="23.584598"><ele>2198.6</ele><time>2026-04-05T13:07:01.000Z</time></trkpt>
<trkpt lat="42.217906" lon="23.584599"><ele>2198.7</ele><time>2026-04-05T13:07:02.000Z</time></trkpt>
<trkpt lat="42.217908" lon="23.5846"><ele>2198.7</ele><time>2026-04-05T13:07:03.000Z</time></trkpt>
<trkpt lat="42.217912" lon="23.584601"><ele>2198.7</ele><time>2026-04-05T13:07:04.000Z</time></trkpt>
<trkpt lat="42.217917" lon="23.5846"><ele>2198.7</ele><time>2026-04-05T13:07:05.000Z</time></trkpt>
<trkpt lat="42.217923" lon="23.584598"><ele>2198.7</ele><time>2026-04-05T13:07:06.000Z</time></trkpt>
<trkpt lat="42.217929" lon="23.584596"><ele>2198.7</ele><time>2026-04-05T13:07:07.000Z</time></trkpt>
<trkpt lat="42.217935" lon="23.584594"><ele>2198.7</ele><time>2026-04-05T13:07:08.000Z</time></trkpt>
<trkpt lat="42.217941" lon="23.584592"><ele>2198.7</ele><time>2026-04-05T13:07:09.000Z</time></trkpt>
<trkpt lat="42.217948" lon="23.584591"><ele>2198.7</ele><time>2026-04-05T13:07:10.000Z</time></trkpt>
<trkpt lat="42.217955" lon="23.584589"><ele>2198.7</ele><time>2026-04-05T13:07:11.000Z</time></trkpt>
<trkpt lat="42.217962" lon="23.584586"><ele>2198.8</ele><time>2026-04-05T13:07:12.000Z</time></trkpt>
<trkpt lat="42.217969" lon="23.584583"><ele>2198.8</ele><time>2026-04-05T13:07:13.000Z</time></trkpt>
<trkpt lat="42.217976" lon="23.58458"><ele>2198.8</ele><time>2026-04-05T13:07:14.000Z</time></trkpt>
<trkpt lat="42.217982" lon="23.584578"><ele>2198.8</ele><time>2026-04-05T13:07:15.000Z</time></trkpt>
<trkpt lat="42.217988" lon="23.584575"><ele>2198.8</ele><time>2026-04-05T13:07:16.000Z</time></trkpt>
<trkpt lat="42.217995" lon="23.584571"><ele>2198.9</ele><time>2026-04-05T13:07:17.000Z</time></trkpt>
<trkpt lat="42.218001" lon="23.584567"><ele>2198.9</ele><time>2026-04-05T13:07:18.000Z</time></trkpt>
<trkpt lat="42.218006" lon="23.584564"><ele>2198.9</ele><time>2026-04-05T13:07:19.000Z</time></trkpt>
<trkpt lat="42.218012" lon="23.584559"><ele>2198.9</ele><time>2026-04-05T13:07:20.000Z</time></trkpt>
<trkpt lat="42.218019" lon="23.584556"><ele>2198.9</ele><time>2026-04-05T13:07:21.000Z</time></trkpt>
<trkpt lat="42.218025" lon="23.584553"><ele>2199.1</ele><time>2026-04-05T13:07:22.000Z</time></trkpt>
<trkpt lat="42.218031" lon="23.584551"><ele>2199.1</ele><time>2026-04-05T13:07:23.000Z</time></trkpt>
<trkpt lat="42.218038" lon="23.584548"><ele>2199.1</ele><time>2026-04-05T13:07:24.000Z</time></trkpt>
<trkpt lat="42.218045" lon="23.584546"><ele>2199.1</ele><time>2026-04-05T13:07:25.000Z</time></trkpt>
<trkpt lat="42.218051" lon="23.584543"><ele>2199.1</ele><time>2026-04-05T13:07:26.000Z</time></trkpt>
<trkpt lat="42.218057" lon="23.584541"><ele>2199.7</ele><time>2026-04-05T13:07:27.000Z</time></trkpt>
<trkpt lat="42.218064" lon="23.584539"><ele>2199.7</ele><time>2026-04-05T13:07:28.000Z</time></trkpt>
<trkpt lat="42.218071" lon="23.584538"><ele>2199.7</ele><time>2026-04-05T13:07:29.000Z</time></trkpt>
<trkpt lat="42.218079" lon="23.584538"><ele>2199.7</ele><time>2026-04-05T13:07:30.000Z</time></trkpt>
<trkpt lat="42.218086" lon="23.584537"><ele>2199.7</ele><time>2026-04-05T13:07:31.000Z</time></trkpt>
<trkpt lat="42.218094" lon="23.584536"><ele>2200.6</ele><time>2026-04-05T13:07:32.000Z</time></trkpt>
<trkpt lat="42.218101" lon="23.584534"><ele>2200.6</ele><time>2026-04-05T13:07:33.000Z</time></trkpt>
<trkpt lat="42.218108" lon="23.584532"><ele>2200.6</ele><time>2026-04-05T13:07:34.000Z</time></trkpt>
<trkpt lat="42.218114" lon="23.58453"><ele>2200.6</ele><time>2026-04-05T13:07:35.000Z</time></trkpt>
<trkpt lat="42.218122" lon="23.584528"><ele>2200.6</ele><time>2026-04-05T13:07:36.000Z</time></trkpt>
<trkpt lat="42.218129" lon="23.584527"><ele>2201.1</ele><time>2026-04-05T13:07:37.000Z</time></trkpt>
<trkpt lat="42.218137" lon="23.584526"><ele>2201.1</ele><time>2026-04-05T13:07:38.000Z</time></trkpt>
<trkpt lat="42.218144" lon="23.584526"><ele>2201.1</ele><time>2026-04-05T13:07:39.000Z</time></trkpt>
<trkpt lat="42.218151" lon="23.584525"><ele>2201.1</ele><time>2026-04-05T13:07:40.000Z</time></trkpt>
<trkpt lat="42.218159" lon="23.584523"><ele>2201.1</ele><time>2026-04-05T13:07:41.000Z</time></trkpt>
<trkpt lat="42.218166" lon="23.584522"><ele>2201.9</ele><time>2026-04-05T13:07:42.000Z</time></trkpt>
<trkpt lat="42.218174" lon="23.584522"><ele>2201.9</ele><time>2026-04-05T13:07:43.000Z</time></trkpt>
<trkpt lat="42.218181" lon="23.584522"><ele>2201.9</ele><time>2026-04-05T13:07:44.000Z</time></trkpt>
<trkpt lat="42.218188" lon="23.584522"><ele>2201.9</ele><time>2026-04-05T13:07:45.000Z</time></trkpt>
<trkpt lat="42.218194" lon="23.584524"><ele>2201.9</ele><time>2026-04-05T13:07:46.000Z</time></trkpt>
<trkpt lat="42.218201" lon="23.584526"><ele>2202.7</ele><time>2026-04-05T13:07:47.000Z</time></trkpt>
<trkpt lat="42.218207" lon="23.584528"><ele>2202.7</ele><time>2026-04-05T13:07:48.000Z</time></trkpt>
<trkpt lat="42.218213" lon="23.584531"><ele>2202.7</ele><time>2026-04-05T13:07:49.000Z</time></trkpt>
<trkpt lat="42.218218" lon="23.584534"><ele>2202.7</ele><time>2026-04-05T13:07:50.000Z</time></trkpt>
<trkpt lat="42.218225" lon="23.584536"><ele>2202.7</ele><time>2026-04-05T13:07:51.000Z</time></trkpt>
<trkpt lat="42.218231" lon="23.584537"><ele>2203</ele><time>2026-04-05T13:07:52.000Z</time></trkpt>
<trkpt lat="42.218237" lon="23.584538"><ele>2203</ele><time>2026-04-05T13:07:53.000Z</time></trkpt>
<trkpt lat="42.218243" lon="23.584539"><ele>2203</ele><time>2026-04-05T13:07:54.000Z</time></trkpt>
<trkpt lat="42.21825" lon="23.584538"><ele>2203</ele><time>2026-04-05T13:07:55.000Z</time></trkpt>
<trkpt lat="42.218256" lon="23.584538"><ele>2203</ele><time>2026-04-05T13:07:56.000Z</time></trkpt>
<trkpt lat="42.218262" lon="23.584537"><ele>2203.9</ele><time>2026-04-05T13:07:57.000Z</time></trkpt>
<trkpt lat="42.218269" lon="23.584536"><ele>2203.9</ele><time>2026-04-05T13:07:58.000Z</time></trkpt>
<trkpt lat="42.218275" lon="23.584535"><ele>2203.9</ele><time>2026-04-05T13:07:59.000Z</time></trkpt>
<trkpt lat="42.218281" lon="23.584534"><ele>2203.9</ele><time>2026-04-05T13:08:00.000Z</time></trkpt>
<trkpt lat="42.218288" lon="23.584534"><ele>2203.9</ele><time>2026-04-05T13:08:01.000Z</time></trkpt>
<trkpt lat="42.218295" lon="23.584534"><ele>2204.8</ele><time>2026-04-05T13:08:02.000Z</time></trkpt>
<trkpt lat="42.218301" lon="23.584534"><ele>2204.8</ele><time>2026-04-05T13:08:03.000Z</time></trkpt>
<trkpt lat="42.218308" lon="23.584534"><ele>2204.8</ele><time>2026-04-05T13:08:04.000Z</time></trkpt>
<trkpt lat="42.218314" lon="23.584535"><ele>2204.8</ele><time>2026-04-05T13:08:05.000Z</time></trkpt>
<trkpt lat="42.218319" lon="23.584535"><ele>2204.8</ele><time>2026-04-05T13:08:06.000Z</time></trkpt>
<trkpt lat="42.218324" lon="23.584534"><ele>2205.3</ele><time>2026-04-05T13:08:07.000Z</time></trkpt>
<trkpt lat="42.21833" lon="23.584533"><ele>2205.3</ele><time>2026-04-05T13:08:08.000Z</time></trkpt>
<trkpt lat="42.218336" lon="23.584532"><ele>2205.3</ele><time>2026-04-05T13:08:09.000Z</time></trkpt>
<trkpt lat="42.218342" lon="23.584531"><ele>2205.3</ele><time>2026-04-05T13:08:10.000Z</time></trkpt>
<trkpt lat="42.218348" lon="23.58453"><ele>2205.3</ele><time>2026-04-05T13:08:11.000Z</time></trkpt>
<trkpt lat="42.218354" lon="23.58453"><ele>2206.2</ele><time>2026-04-05T13:08:12.000Z</time></trkpt>
<trkpt lat="42.218359" lon="23.58453"><ele>2206.2</ele><time>2026-04-05T13:08:13.000Z</time></trkpt>
<trkpt lat="42.218364" lon="23.584531"><ele>2206.2</ele><time>2026-04-05T13:08:14.000Z</time></trkpt>
<trkpt lat="42.21837" lon="23.584532"><ele>2206.2</ele><time>2026-04-05T13:08:15.000Z</time></trkpt>
<trkpt lat="42.218376" lon="23.584533"><ele>2206.2</ele><time>2026-04-05T13:08:16.000Z</time></trkpt>
<trkpt lat="42.218382" lon="23.584536"><ele>2207</ele><time>2026-04-05T13:08:17.000Z</time></trkpt>
<trkpt lat="42.218388" lon="23.584538"><ele>2207</ele><time>2026-04-05T13:08:18.000Z</time></trkpt>
<trkpt lat="42.218393" lon="23.584539"><ele>2207</ele><time>2026-04-05T13:08:19.000Z</time></trkpt>
<trkpt lat="42.218398" lon="23.584541"><ele>2207</ele><time>2026-04-05T13:08:20.000Z</time></trkpt>
<trkpt lat="42.218404" lon="23.584542"><ele>2207</ele><time>2026-04-05T13:08:21.000Z</time></trkpt>
<trkpt lat="42.218409" lon="23.584543"><ele>2207.5</ele><time>2026-04-05T13:08:22.000Z</time></trkpt>
<trkpt lat="42.218413" lon="23.584544"><ele>2207.5</ele><time>2026-04-05T13:08:23.000Z</time></trkpt>
<trkpt lat="42.218418" lon="23.584545"><ele>2207.5</ele><time>2026-04-05T13:08:24.000Z</time></trkpt>
<trkpt lat="42.218424" lon="23.584546"><ele>2207.5</ele><time>2026-04-05T13:08:25.000Z</time></trkpt>
<trkpt lat="42.218429" lon="23.584547"><ele>2207.5</ele><time>2026-04-05T13:08:26.000Z</time></trkpt>
<trkpt lat="42.218434" lon="23.584548"><ele>2208.3</ele><time>2026-04-05T13:08:27.000Z</time></trkpt>
<trkpt lat="42.21844" lon="23.584549"><ele>2208.3</ele><time>2026-04-05T13:08:28.000Z</time></trkpt>
<trkpt lat="42.218446" lon="23.58455"><ele>2208.3</ele><time>2026-04-05T13:08:29.000Z</time></trkpt>
<trkpt lat="42.218453" lon="23.584552"><ele>2208.3</ele><time>2026-04-05T13:08:30.000Z</time></trkpt>
<trkpt lat="42.218458" lon="23.584553"><ele>2208.3</ele><time>2026-04-05T13:08:31.000Z</time></trkpt>
<trkpt lat="42.218463" lon="23.584555"><ele>2209</ele><time>2026-04-05T13:08:32.000Z</time></trkpt>
<trkpt lat="42.218469" lon="23.584557"><ele>2209</ele><time>2026-04-05T13:08:33.000Z</time></trkpt>
<trkpt lat="42.218474" lon="23.584558"><ele>2209</ele><time>2026-04-05T13:08:34.000Z</time></trkpt>
<trkpt lat="42.218479" lon="23.584559"><ele>2209</ele><time>2026-04-05T13:08:35.000Z</time></trkpt>
<trkpt lat="42.218484" lon="23.584562"><ele>2209</ele><time>2026-04-05T13:08:36.000Z</time></trkpt>
<trkpt lat="42.218489" lon="23.584563"><ele>2209.4</ele><time>2026-04-05T13:08:37.000Z</time></trkpt>
<trkpt lat="42.218493" lon="23.584565"><ele>2209.4</ele><time>2026-04-05T13:08:38.000Z</time></trkpt>
<trkpt lat="42.218498" lon="23.584567"><ele>2209.4</ele><time>2026-04-05T13:08:39.000Z</time></trkpt>
<trkpt lat="42.218503" lon="23.584569"><ele>2209.4</ele><time>2026-04-05T13:08:40.000Z</time></trkpt>
<trkpt lat="42.218507" lon="23.584571"><ele>2209.4</ele><time>2026-04-05T13:08:41.000Z</time></trkpt>
<trkpt lat="42.218513" lon="23.584573"><ele>2210.3</ele><time>2026-04-05T13:08:42.000Z</time></trkpt>
<trkpt lat="42.218518" lon="23.584576"><ele>2210.3</ele><time>2026-04-05T13:08:43.000Z</time></trkpt>
<trkpt lat="42.218522" lon="23.584578"><ele>2210.3</ele><time>2026-04-05T13:08:44.000Z</time></trkpt>
<trkpt lat="42.218527" lon="23.584581"><ele>2210.3</ele><time>2026-04-05T13:08:45.000Z</time></trkpt>
<trkpt lat="42.218532" lon="23.584583"><ele>2210.3</ele><time>2026-04-05T13:08:46.000Z</time></trkpt>
<trkpt lat="42.218537" lon="23.584585"><ele>2211.3</ele><time>2026-04-05T13:08:47.000Z</time></trkpt>
<trkpt lat="42.218543" lon="23.584586"><ele>2211.3</ele><time>2026-04-05T13:08:48.000Z</time></trkpt>
<trkpt lat="42.218548" lon="23.584586"><ele>2211.3</ele><time>2026-04-05T13:08:49.000Z</time></trkpt>
<trkpt lat="42.218555" lon="23.584587"><ele>2211.3</ele><time>2026-04-05T13:08:50.000Z</time></trkpt>
<trkpt lat="42.218561" lon="23.584589"><ele>2211.3</ele><time>2026-04-05T13:08:51.000Z</time></trkpt>
<trkpt lat="42.218568" lon="23.584591"><ele>2211.7</ele><time>2026-04-05T13:08:52.000Z</time></trkpt>
<trkpt lat="42.218575" lon="23.584595"><ele>2211.7</ele><time>2026-04-05T13:08:53.000Z</time></trkpt>
<trkpt lat="42.218582" lon="23.584598"><ele>2211.7</ele><time>2026-04-05T13:08:54.000Z</time></trkpt>
<trkpt lat="42.218588" lon="23.584601"><ele>2211.7</ele><time>2026-04-05T13:08:55.000Z</time></trkpt>
<trkpt lat="42.218595" lon="23.584605"><ele>2211.7</ele><time>2026-04-05T13:08:56.000Z</time></trkpt>
<trkpt lat="42.218601" lon="23.584609"><ele>2212.5</ele><time>2026-04-05T13:08:57.000Z</time></trkpt>
<trkpt lat="42.218607" lon="23.584612"><ele>2212.5</ele><time>2026-04-05T13:08:58.000Z</time></trkpt>
<trkpt lat="42.218613" lon="23.584616"><ele>2212.5</ele><time>2026-04-05T13:08:59.000Z</time></trkpt>
<trkpt lat="42.21862" lon="23.584621"><ele>2212.5</ele><time>2026-04-05T13:09:00.000Z</time></trkpt>
<trkpt lat="42.218625" lon="23.584625"><ele>2212.5</ele><time>2026-04-05T13:09:01.000Z</time></trkpt>
<trkpt lat="42.218631" lon="23.58463"><ele>2213.1</ele><time>2026-04-05T13:09:02.000Z</time></trkpt>
<trkpt lat="42.218637" lon="23.584634"><ele>2213.1</ele><time>2026-04-05T13:09:03.000Z</time></trkpt>
<trkpt lat="42.218642" lon="23.584638"><ele>2213.1</ele><time>2026-04-05T13:09:04.000Z</time></trkpt>
<trkpt lat="42.218648" lon="23.584642"><ele>2213.1</ele><time>2026-04-05T13:09:05.000Z</time></trkpt>
<trkpt lat="42.218656" lon="23.584647"><ele>2213.1</ele><time>2026-04-05T13:09:06.000Z</time></trkpt>
<trkpt lat="42.218663" lon="23.584652"><ele>2213.5</ele><time>2026-04-05T13:09:07.000Z</time></trkpt>
<trkpt lat="42.218671" lon="23.584658"><ele>2213.5</ele><time>2026-04-05T13:09:08.000Z</time></trkpt>
<trkpt lat="42.21868" lon="23.584664"><ele>2213.5</ele><time>2026-04-05T13:09:09.000Z</time></trkpt>
<trkpt lat="42.218689" lon="23.584671"><ele>2213.5</ele><time>2026-04-05T13:09:10.000Z</time></trkpt>
<trkpt lat="42.218697" lon="23.584676"><ele>2213.5</ele><time>2026-04-05T13:09:11.000Z</time></trkpt>
<trkpt lat="42.218706" lon="23.584682"><ele>2214.1</ele><time>2026-04-05T13:09:12.000Z</time></trkpt>
<trkpt lat="42.218714" lon="23.584688"><ele>2214.1</ele><time>2026-04-05T13:09:13.000Z</time></trkpt>
<trkpt lat="42.218721" lon="23.584693"><ele>2214.1</ele><time>2026-04-05T13:09:14.000Z</time></trkpt>
<trkpt lat="42.218728" lon="23.584698"><ele>2214.1</ele><time>2026-04-05T13:09:15.000Z</time></trkpt>
<trkpt lat="42.218735" lon="23.584704"><ele>2214.1</ele><time>2026-04-05T13:09:16.000Z</time></trkpt>
<trkpt lat="42.218743" lon="23.58471"><ele>2214.6</ele><time>2026-04-05T13:09:17.000Z</time></trkpt>
<trkpt lat="42.218749" lon="23.584715"><ele>2214.6</ele><time>2026-04-05T13:09:18.000Z</time></trkpt>
<trkpt lat="42.218756" lon="23.584721"><ele>2214.6</ele><time>2026-04-05T13:09:19.000Z</time></trkpt>
<trkpt lat="42.218764" lon="23.584727"><ele>2214.6</ele><time>2026-04-05T13:09:20.000Z</time></trkpt>
<trkpt lat="42.218771" lon="23.584732"><ele>2214.6</ele><time>2026-04-05T13:09:21.000Z</time></trkpt>
<trkpt lat="42.218778" lon="23.584737"><ele>2214.8</ele><time>2026-04-05T13:09:22.000Z</time></trkpt>
<trkpt lat="42.218786" lon="23.584741"><ele>2214.8</ele><time>2026-04-05T13:09:23.000Z</time></trkpt>
<trkpt lat="42.218794" lon="23.584746"><ele>2214.8</ele><time>2026-04-05T13:09:24.000Z</time></trkpt>
<trkpt lat="42.218802" lon="23.58475"><ele>2214.8</ele><time>2026-04-05T13:09:25.000Z</time></trkpt>
<trkpt lat="42.218809" lon="23.584753"><ele>2214.8</ele><time>2026-04-05T13:09:26.000Z</time></trkpt>
<trkpt lat="42.218817" lon="23.584755"><ele>2215.3</ele><time>2026-04-05T13:09:27.000Z</time></trkpt>
<trkpt lat="42.218825" lon="23.584758"><ele>2215.3</ele><time>2026-04-05T13:09:28.000Z</time></trkpt>
<trkpt lat="42.218831" lon="23.58476"><ele>2215.3</ele><time>2026-04-05T13:09:29.000Z</time></trkpt>
<trkpt lat="42.218837" lon="23.584763"><ele>2215.3</ele><time>2026-04-05T13:09:30.000Z</time></trkpt>
<trkpt lat="42.218845" lon="23.584767"><ele>2215.3</ele><time>2026-04-05T13:09:31.000Z</time></trkpt>
<trkpt lat="42.218852" lon="23.58477"><ele>2215.7</ele><time>2026-04-05T13:09:32.000Z</time></trkpt>
<trkpt lat="42.218859" lon="23.584775"><ele>2215.7</ele><time>2026-04-05T13:09:33.000Z</time></trkpt>
<trkpt lat="42.218867" lon="23.584779"><ele>2215.7</ele><time>2026-04-05T13:09:34.000Z</time></trkpt>
<trkpt lat="42.218875" lon="23.584782"><ele>2215.7</ele><time>2026-04-05T13:09:35.000Z</time></trkpt>
<trkpt lat="42.218882" lon="23.584786"><ele>2215.7</ele><time>2026-04-05T13:09:36.000Z</time></trkpt>
<trkpt lat="42.218891" lon="23.584791"><ele>2216</ele><time>2026-04-05T13:09:37.000Z</time></trkpt>
<trkpt lat="42.2189" lon="23.584795"><ele>2216</ele><time>2026-04-05T13:09:38.000Z</time></trkpt>
<trkpt lat="42.218908" lon="23.584798"><ele>2216</ele><time>2026-04-05T13:09:39.000Z</time></trkpt>
<trkpt lat="42.218917" lon="23.584801"><ele>2216</ele><time>2026-04-05T13:09:40.000Z</time></trkpt>
<trkpt lat="42.218926" lon="23.584803"><ele>2216</ele><time>2026-04-05T13:09:41.000Z</time></trkpt>
<trkpt lat="42.218934" lon="23.584805"><ele>2216.6</ele><time>2026-04-05T13:09:42.000Z</time></trkpt>
<trkpt lat="42.218942" lon="23.584808"><ele>2216.6</ele><time>2026-04-05T13:09:43.000Z</time></trkpt>
<trkpt lat="42.21895" lon="23.58481"><ele>2216.6</ele><time>2026-04-05T13:09:44.000Z</time></trkpt>
<trkpt lat="42.218957" lon="23.584811"><ele>2216.6</ele><time>2026-04-05T13:09:45.000Z</time></trkpt>
<trkpt lat="42.218964" lon="23.584813"><ele>2216.6</ele><time>2026-04-05T13:09:46.000Z</time></trkpt>
<trkpt lat="42.218971" lon="23.584814"><ele>2217.1</ele><time>2026-04-05T13:09:47.000Z</time></trkpt>
<trkpt lat="42.218977" lon="23.584815"><ele>2217.1</ele><time>2026-04-05T13:09:48.000Z</time></trkpt>
<trkpt lat="42.218982" lon="23.584816"><ele>2217.1</ele><time>2026-04-05T13:09:49.000Z</time></trkpt>
<trkpt lat="42.218987" lon="23.584818"><ele>2217.1</ele><time>2026-04-05T13:09:50.000Z</time></trkpt>
<trkpt lat="42.218993" lon="23.58482"><ele>2217.1</ele><time>2026-04-05T13:09:51.000Z</time></trkpt>
<trkpt lat="42.218999" lon="23.584821"><ele>2217.3</ele><time>2026-04-05T13:09:52.000Z</time></trkpt>
<trkpt lat="42.219007" lon="23.584824"><ele>2217.3</ele><time>2026-04-05T13:09:53.000Z</time></trkpt>
<trkpt lat="42.219015" lon="23.584826"><ele>2217.3</ele><time>2026-04-05T13:09:54.000Z</time></trkpt>
<trkpt lat="42.219022" lon="23.584827"><ele>2217.3</ele><time>2026-04-05T13:09:55.000Z</time></trkpt>
<trkpt lat="42.219028" lon="23.584829"><ele>2217.3</ele><time>2026-04-05T13:09:56.000Z</time></trkpt>
<trkpt lat="42.219035" lon="23.584831"><ele>2217.6</ele><time>2026-04-05T13:09:57.000Z</time></trkpt>
<trkpt lat="42.21904" lon="23.584833"><ele>2217.6</ele><time>2026-04-05T13:09:58.000Z</time></trkpt>
<trkpt lat="42.219047" lon="23.584836"><ele>2217.6</ele><time>2026-04-05T13:09:59.000Z</time></trkpt>
<trkpt lat="42.219054" lon="23.584839"><ele>2217.6</ele><time>2026-04-05T13:10:00.000Z</time></trkpt>
<trkpt lat="42.21906" lon="23.584842"><ele>2217.6</ele><time>2026-04-05T13:10:01.000Z</time></trkpt>
<trkpt lat="42.219067" lon="23.584845"><ele>2217.8</ele><time>2026-04-05T13:10:02.000Z</time></trkpt>
<trkpt lat="42.219074" lon="23.584848"><ele>2217.8</ele><time>2026-04-05T13:10:03.000Z</time></trkpt>
<trkpt lat="42.219081" lon="23.58485"><ele>2217.8</ele><time>2026-04-05T13:10:04.000Z</time></trkpt>
<trkpt lat="42.219089" lon="23.58485"><ele>2217.8</ele><time>2026-04-05T13:10:05.000Z</time></trkpt>
<trkpt lat="42.219097" lon="23.584851"><ele>2217.8</ele><time>2026-04-05T13:10:06.000Z</time></trkpt>
<trkpt lat="42.219105" lon="23.584851"><ele>2217.9</ele><time>2026-04-05T13:10:07.000Z</time></trkpt>
<trkpt lat="42.219113" lon="23.584851"><ele>2217.9</ele><time>2026-04-05T13:10:08.000Z</time></trkpt>
<trkpt lat="42.21912" lon="23.584852"><ele>2217.9</ele><time>2026-04-05T13:10:09.000Z</time></trkpt>
<trkpt lat="42.219127" lon="23.584853"><ele>2217.9</ele><time>2026-04-05T13:10:10.000Z</time></trkpt>
<trkpt lat="42.219135" lon="23.584854"><ele>2217.9</ele><time>2026-04-05T13:10:11.000Z</time></trkpt>
<trkpt lat="42.219143" lon="23.584856"><ele>2218.5</ele><time>2026-04-05T13:10:12.000Z</time></trkpt>
<trkpt lat="42.219151" lon="23.584857"><ele>2218.5</ele><time>2026-04-05T13:10:13.000Z</time></trkpt>
<trkpt lat="42.219159" lon="23.584858"><ele>2218.5</ele><time>2026-04-05T13:10:14.000Z</time></trkpt>
<trkpt lat="42.219166" lon="23.58486"><ele>2218.5</ele><time>2026-04-05T13:10:15.000Z</time></trkpt>
<trkpt lat="42.219173" lon="23.584861"><ele>2218.5</ele><time>2026-04-05T13:10:16.000Z</time></trkpt>
<trkpt lat="42.219178" lon="23.584861"><ele>2219.4</ele><time>2026-04-05T13:10:17.000Z</time></trkpt>
<trkpt lat="42.219185" lon="23.584862"><ele>2219.4</ele><time>2026-04-05T13:10:18.000Z</time></trkpt>
<trkpt lat="42.219191" lon="23.584862"><ele>2219.4</ele><time>2026-04-05T13:10:19.000Z</time></trkpt>
<trkpt lat="42.219197" lon="23.584861"><ele>2219.4</ele><time>2026-04-05T13:10:20.000Z</time></trkpt>
<trkpt lat="42.219205" lon="23.584861"><ele>2219.4</ele><time>2026-04-05T13:10:21.000Z</time></trkpt>
<trkpt lat="42.219212" lon="23.584861"><ele>2219.8</ele><time>2026-04-05T13:10:22.000Z</time></trkpt>
<trkpt lat="42.219217" lon="23.584862"><ele>2219.8</ele><time>2026-04-05T13:10:23.000Z</time></trkpt>
<trkpt lat="42.219223" lon="23.584863"><ele>2219.8</ele><time>2026-04-05T13:10:24.000Z</time></trkpt>
<trkpt lat="42.219226" lon="23.584865"><ele>2219.8</ele><time>2026-04-05T13:10:25.000Z</time></trkpt>
<trkpt lat="42.219228" lon="23.584867"><ele>2219.8</ele><time>2026-04-05T13:10:26.000Z</time></trkpt>
<trkpt lat="42.219229" lon="23.584867"><ele>2220.5</ele><time>2026-04-05T13:10:27.000Z</time></trkpt>
<trkpt lat="42.21923" lon="23.584866"><ele>2220.5</ele><time>2026-04-05T13:10:28.000Z</time></trkpt>
<trkpt lat="42.219231" lon="23.584865"><ele>2220.5</ele><time>2026-04-05T13:10:29.000Z</time></trkpt>
<trkpt lat="42.219234" lon="23.584863"><ele>2220.5</ele><time>2026-04-05T13:10:30.000Z</time></trkpt>
<trkpt lat="42.219237" lon="23.584863"><ele>2220.5</ele><time>2026-04-05T13:10:31.000Z</time></trkpt>
<trkpt lat="42.21924" lon="23.584862"><ele>2221.1</ele><time>2026-04-05T13:10:32.000Z</time></trkpt>
<trkpt lat="42.219243" lon="23.584864"><ele>2221.1</ele><time>2026-04-05T13:10:33.000Z</time></trkpt>
<trkpt lat="42.219245" lon="23.584865"><ele>2221.1</ele><time>2026-04-05T13:10:34.000Z</time></trkpt>
<trkpt lat="42.219249" lon="23.584866"><ele>2221.1</ele><time>2026-04-05T13:10:35.000Z</time></trkpt>
<trkpt lat="42.21925" lon="23.584867"><ele>2221.1</ele><time>2026-04-05T13:10:36.000Z</time></trkpt>
<trkpt lat="42.219251" lon="23.584867"><ele>2221.4</ele><time>2026-04-05T13:10:37.000Z</time></trkpt>
<trkpt lat="42.219252" lon="23.584867"><ele>2221.4</ele><time>2026-04-05T13:10:38.000Z</time></trkpt>
<trkpt lat="42.219252" lon="23.584868"><ele>2221.4</ele><time>2026-04-05T13:10:39.000Z</time></trkpt>
<trkpt lat="42.219251" lon="23.584868"><ele>2221.4</ele><time>2026-04-05T13:10:40.000Z</time></trkpt>
<trkpt lat="42.219251" lon="23.584867"><ele>2221.4</ele><time>2026-04-05T13:10:41.000Z</time></trkpt>
<trkpt lat="42.219252" lon="23.584867"><ele>2221.8</ele><time>2026-04-05T13:10:42.000Z</time></trkpt>
<trkpt lat="42.219251" lon="23.584866"><ele>2221.8</ele><time>2026-04-05T13:10:43.000Z</time></trkpt>
<trkpt lat="42.219251" lon="23.584865"><ele>2221.8</ele><time>2026-04-05T13:10:44.000Z</time></trkpt>
<trkpt lat="42.219251" lon="23.584864"><ele>2221.8</ele><time>2026-04-05T13:10:45.000Z</time></trkpt>
<trkpt lat="42.219251" lon="23.584863"><ele>2221.8</ele><time>2026-04-05T13:10:46.000Z</time></trkpt>
<trkpt lat="42.219251" lon="23.584862"><ele>2222.2</ele><time>2026-04-05T13:10:47.000Z</time></trkpt>
<trkpt lat="42.21925" lon="23.584861"><ele>2222.2</ele><time>2026-04-05T13:10:48.000Z</time></trkpt>
<trkpt lat="42.21925" lon="23.58486"><ele>2222.2</ele><time>2026-04-05T13:10:49.000Z</time></trkpt>
<trkpt lat="42.21925" lon="23.58486"><ele>2222.2</ele><time>2026-04-05T13:10:50.000Z</time></trkpt>
<trkpt lat="42.219251" lon="23.58486"><ele>2222.2</ele><time>2026-04-05T13:10:51.000Z</time></trkpt>
<trkpt lat="42.219251" lon="23.58486"><ele>2222.4</ele><time>2026-04-05T13:10:52.000Z</time></trkpt>
<trkpt lat="42.219251" lon="23.58486"><ele>2222.4</ele><time>2026-04-05T13:10:53.000Z</time></trkpt>
<trkpt lat="42.219251" lon="23.58486"><ele>2222.4</ele><time>2026-04-05T13:10:54.000Z</time></trkpt>
<trkpt lat="42.219252" lon="23.584861"><ele>2222.4</ele><time>2026-04-05T13:10:55.000Z</time></trkpt>
<trkpt lat="42.219252" lon="23.584861"><ele>2222.4</ele><time>2026-04-05T13:10:56.000Z</time></trkpt>
<trkpt lat="42.219252" lon="23.584862"><ele>2222.6</ele><time>2026-04-05T13:10:57.000Z</time></trkpt>
<trkpt lat="42.219253" lon="23.584862"><ele>2222.6</ele><time>2026-04-05T13:10:58.000Z</time></trkpt>
<trkpt lat="42.219253" lon="23.584863"><ele>2222.6</ele><time>2026-04-05T13:10:59.000Z</time></trkpt>
<trkpt lat="42.219253" lon="23.584863"><ele>2222.6</ele><time>2026-04-05T13:11:00.000Z</time></trkpt>
<trkpt lat="42.219253" lon="23.584863"><ele>2222.6</ele><time>2026-04-05T13:11:01.000Z</time></trkpt>
<trkpt lat="42.219253" lon="23.584863"><ele>2222.8</ele><time>2026-04-05T13:11:02.000Z</time></trkpt>
<trkpt lat="42.219253" lon="23.584863"><ele>2222.8</ele><time>2026-04-05T13:11:03.000Z</time></trkpt>
<trkpt lat="42.219253" lon="23.584863"><ele>2222.8</ele><time>2026-04-05T13:11:04.000Z</time></trkpt>
<trkpt lat="42.219253" lon="23.584863"><ele>2222.8</ele><time>2026-04-05T13:11:05.000Z</time></trkpt>
<trkpt lat="42.219253" lon="23.584863"><ele>2222.8</ele><time>2026-04-05T13:11:06.000Z</time></trkpt>
<trkpt lat="42.219253" lon="23.584863"><ele>2222.9</ele><time>2026-04-05T13:11:07.000Z</time></trkpt>
<trkpt lat="42.219253" lon="23.584863"><ele>2222.9</ele><time>2026-04-05T13:11:08.000Z</time></trkpt>
<trkpt lat="42.219253" lon="23.584863"><ele>2222.9</ele><time>2026-04-05T13:11:09.000Z</time></trkpt>
<trkpt lat="42.219253" lon="23.584863"><ele>2222.9</ele><time>2026-04-05T13:11:10.000Z</time></trkpt>
<trkpt lat="42.219253" lon="23.584863"><ele>2222.9</ele><time>2026-04-05T13:11:11.000Z</time></trkpt>
<trkpt lat="42.219253" lon="23.584863"><ele>2223.1</ele><time>2026-04-05T13:11:12.000Z</time></trkpt>
<trkpt lat="42.219253" lon="23.584863"><ele>2223.1</ele><time>2026-04-05T13:11:13.000Z</time></trkpt>
<trkpt lat="42.219252" lon="23.584863"><ele>2223.1</ele><time>2026-04-05T13:11:14.000Z</time></trkpt>
<trkpt lat="42.219252" lon="23.584863"><ele>2223.1</ele><time>2026-04-05T13:11:15.000Z</time></trkpt>
<trkpt lat="42.219252" lon="23.584863"><ele>2223.1</ele><time>2026-04-05T13:11:16.000Z</time></trkpt>
<trkpt lat="42.219252" lon="23.584863"><ele>2223.3</ele><time>2026-04-05T13:11:17.000Z</time></trkpt>
<trkpt lat="42.219252" lon="23.584863"><ele>2223.3</ele><time>2026-04-05T13:11:18.000Z</time></trkpt>
<trkpt lat="42.219252" lon="23.584863"><ele>2223.3</ele><time>2026-04-05T13:11:19.000Z</time></trkpt>
<trkpt lat="42.219252" lon="23.584863"><ele>2223.3</ele><time>2026-04-05T13:11:20.000Z</time></trkpt>
<trkpt lat="42.219251" lon="23.584863"><ele>2223.3</ele><time>2026-04-05T13:11:21.000Z</time></trkpt>
<trkpt lat="42.219251" lon="23.584863"><ele>2223.3</ele><time>2026-04-05T13:11:22.000Z</time></trkpt>
<trkpt lat="42.21925" lon="23.584864"><ele>2223.3</ele><time>2026-04-05T13:11:23.000Z</time></trkpt>
<trkpt lat="42.219249" lon="23.584864"><ele>2223.3</ele><time>2026-04-05T13:11:24.000Z</time></trkpt>
<trkpt lat="42.219249" lon="23.584865"><ele>2223.3</ele><time>2026-04-05T13:11:25.000Z</time></trkpt>
<trkpt lat="42.219248" lon="23.584865"><ele>2223.3</ele><time>2026-04-05T13:11:26.000Z</time></trkpt>
<trkpt lat="42.219248" lon="23.584866"><ele>2223.3</ele><time>2026-04-05T13:11:27.000Z</time></trkpt>
<trkpt lat="42.219248" lon="23.584866"><ele>2223.3</ele><time>2026-04-05T13:11:28.000Z</time></trkpt>
<trkpt lat="42.219247" lon="23.584865"><ele>2223.3</ele><time>2026-04-05T13:11:29.000Z</time></trkpt>
<trkpt lat="42.219247" lon="23.584865"><ele>2223.3</ele><time>2026-04-05T13:11:30.000Z</time></trkpt>
<trkpt lat="42.219247" lon="23.584865"><ele>2223.3</ele><time>2026-04-05T13:11:31.000Z</time></trkpt>
<trkpt lat="42.219247" lon="23.584865"><ele>2223.4</ele><time>2026-04-05T13:11:32.000Z</time></trkpt>
<trkpt lat="42.219247" lon="23.584865"><ele>2223.4</ele><time>2026-04-05T13:11:33.000Z</time></trkpt>
<trkpt lat="42.219247" lon="23.584865"><ele>2223.4</ele><time>2026-04-05T13:11:34.000Z</time></trkpt>
<trkpt lat="42.219248" lon="23.584865"><ele>2223.4</ele><time>2026-04-05T13:11:35.000Z</time></trkpt>
<trkpt lat="42.219247" lon="23.584865"><ele>2223.4</ele><time>2026-04-05T13:11:36.000Z</time></trkpt>
<trkpt lat="42.219247" lon="23.584866"><ele>2223.4</ele><time>2026-04-05T13:11:37.000Z</time></trkpt>
<trkpt lat="42.219246" lon="23.584866"><ele>2223.4</ele><time>2026-04-05T13:11:38.000Z</time></trkpt>
<trkpt lat="42.219245" lon="23.584866"><ele>2223.4</ele><time>2026-04-05T13:11:39.000Z</time></trkpt>
<trkpt lat="42.219244" lon="23.584867"><ele>2223.4</ele><time>2026-04-05T13:11:40.000Z</time></trkpt>
<trkpt lat="42.219244" lon="23.584867"><ele>2223.4</ele><time>2026-04-05T13:11:41.000Z</time></trkpt>
<trkpt lat="42.219243" lon="23.584866"><ele>2223.4</ele><time>2026-04-05T13:11:42.000Z</time></trkpt>
<trkpt lat="42.219243" lon="23.584866"><ele>2223.4</ele><time>2026-04-05T13:11:43.000Z</time></trkpt>
<trkpt lat="42.219243" lon="23.584866"><ele>2223.4</ele><time>2026-04-05T13:11:44.000Z</time></trkpt>
<trkpt lat="42.219243" lon="23.584866"><ele>2223.4</ele><time>2026-04-05T13:11:45.000Z</time></trkpt>
<trkpt lat="42.219243" lon="23.584866"><ele>2223.4</ele><time>2026-04-05T13:11:46.000Z</time></trkpt>
<trkpt lat="42.219243" lon="23.584866"><ele>2223.2</ele><time>2026-04-05T13:11:47.000Z</time></trkpt>
<trkpt lat="42.219243" lon="23.584866"><ele>2223.2</ele><time>2026-04-05T13:11:48.000Z</time></trkpt>
<trkpt lat="42.219243" lon="23.584866"><ele>2223.2</ele><time>2026-04-05T13:11:49.000Z</time></trkpt>
<trkpt lat="42.219243" lon="23.584866"><ele>2223.2</ele><time>2026-04-05T13:11:50.000Z</time></trkpt>
<trkpt lat="42.219243" lon="23.584866"><ele>2223.2</ele><time>2026-04-05T13:11:51.000Z</time></trkpt>
<trkpt lat="42.219244" lon="23.584868"><ele>2223.1</ele><time>2026-04-05T13:11:52.000Z</time></trkpt>
<trkpt lat="42.219246" lon="23.58487"><ele>2223.1</ele><time>2026-04-05T13:11:53.000Z</time></trkpt>
<trkpt lat="42.219247" lon="23.584874"><ele>2223.1</ele><time>2026-04-05T13:11:54.000Z</time></trkpt>
<trkpt lat="42.219249" lon="23.584877"><ele>2223.1</ele><time>2026-04-05T13:11:55.000Z</time></trkpt>
<trkpt lat="42.21925" lon="23.58488"><ele>2223.1</ele><time>2026-04-05T13:11:56.000Z</time></trkpt>
<trkpt lat="42.219249" lon="23.584881"><ele>2222.9</ele><time>2026-04-05T13:11:57.000Z</time></trkpt>
<trkpt lat="42.219249" lon="23.584882"><ele>2222.9</ele><time>2026-04-05T13:11:58.000Z</time></trkpt>
<trkpt lat="42.219248" lon="23.584882"><ele>2222.9</ele><time>2026-04-05T13:11:59.000Z</time></trkpt>
<trkpt lat="42.219248" lon="23.584882"><ele>2222.9</ele><time>2026-04-05T13:12:00.000Z</time></trkpt>
<trkpt lat="42.219248" lon="23.584882"><ele>2222.9</ele><time>2026-04-05T13:12:01.000Z</time></trkpt>
<trkpt lat="42.219248" lon="23.584882"><ele>2222.8</ele><time>2026-04-05T13:12:02.000Z</time></trkpt>
<trkpt lat="42.219248" lon="23.584882"><ele>2222.8</ele><time>2026-04-05T13:12:03.000Z</time></trkpt>
<trkpt lat="42.219248" lon="23.584882"><ele>2222.8</ele><time>2026-04-05T13:12:04.000Z</time></trkpt>
<trkpt lat="42.219248" lon="23.584882"><ele>2222.8</ele><time>2026-04-05T13:12:05.000Z</time></trkpt>
<trkpt lat="42.219248" lon="23.584882"><ele>2222.8</ele><time>2026-04-05T13:12:06.000Z</time></trkpt>
<trkpt lat="42.219248" lon="23.584882"><ele>2222.7</ele><time>2026-04-05T13:12:07.000Z</time></trkpt>
<trkpt lat="42.219248" lon="23.584882"><ele>2222.7</ele><time>2026-04-05T13:12:08.000Z</time></trkpt>
<trkpt lat="42.219248" lon="23.584882"><ele>2222.7</ele><time>2026-04-05T13:12:09.000Z</time></trkpt>
<trkpt lat="42.219248" lon="23.584882"><ele>2222.7</ele><time>2026-04-05T13:12:10.000Z</time></trkpt>
<trkpt lat="42.219248" lon="23.584882"><ele>2222.7</ele><time>2026-04-05T13:12:11.000Z</time></trkpt>
<trkpt lat="42.219248" lon="23.584882"><ele>2222.6</ele><time>2026-04-05T13:12:12.000Z</time></trkpt>
<trkpt lat="42.219248" lon="23.584882"><ele>2222.6</ele><time>2026-04-05T13:12:13.000Z</time></trkpt>
<trkpt lat="42.219248" lon="23.584882"><ele>2222.6</ele><time>2026-04-05T13:12:14.000Z</time></trkpt>
<trkpt lat="42.219248" lon="23.584882"><ele>2222.6</ele><time>2026-04-05T13:12:15.000Z</time></trkpt>
<trkpt lat="42.219248" lon="23.584882"><ele>2222.6</ele><time>2026-04-05T13:12:16.000Z</time></trkpt>
<trkpt lat="42.219248" lon="23.584882"><ele>2222.7</ele><time>2026-04-05T13:12:17.000Z</time></trkpt>
<trkpt lat="42.219248" lon="23.584882"><ele>2222.7</ele><time>2026-04-05T13:12:18.000Z</time></trkpt>
<trkpt lat="42.219248" lon="23.584882"><ele>2222.7</ele><time>2026-04-05T13:12:19.000Z</time></trkpt>
<trkpt lat="42.219247" lon="23.584882"><ele>2222.7</ele><time>2026-04-05T13:12:20.000Z</time></trkpt>
<trkpt lat="42.219247" lon="23.584881"><ele>2222.7</ele><time>2026-04-05T13:12:21.000Z</time></trkpt>
<trkpt lat="42.219246" lon="23.584881"><ele>2222.7</ele><time>2026-04-05T13:12:22.000Z</time></trkpt>
<trkpt lat="42.219245" lon="23.58488"><ele>2222.7</ele><time>2026-04-05T13:12:23.000Z</time></trkpt>
<trkpt lat="42.219245" lon="23.58488"><ele>2222.7</ele><time>2026-04-05T13:12:24.000Z</time></trkpt>
<trkpt lat="42.219244" lon="23.58488"><ele>2222.7</ele><time>2026-04-05T13:12:25.000Z</time></trkpt>
<trkpt lat="42.219244" lon="23.58488"><ele>2222.7</ele><time>2026-04-05T13:12:26.000Z</time></trkpt>
<trkpt lat="42.219244" lon="23.58488"><ele>2222.7</ele><time>2026-04-05T13:12:27.000Z</time></trkpt>
<trkpt lat="42.219244" lon="23.58488"><ele>2222.7</ele><time>2026-04-05T13:12:28.000Z</time></trkpt>
<trkpt lat="42.219244" lon="23.58488"><ele>2222.7</ele><time>2026-04-05T13:12:29.000Z</time></trkpt>
<trkpt lat="42.219244" lon="23.58488"><ele>2222.7</ele><time>2026-04-05T13:12:30.000Z</time></trkpt>
<trkpt lat="42.219244" lon="23.58488"><ele>2222.7</ele><time>2026-04-05T13:12:31.000Z</time></trkpt>
<trkpt lat="42.219244" lon="23.58488"><ele>2222.7</ele><time>2026-04-05T13:12:32.000Z</time></trkpt>
<trkpt lat="42.219244" lon="23.58488"><ele>2222.7</ele><time>2026-04-05T13:12:33.000Z</time></trkpt>
<trkpt lat="42.219244" lon="23.58488"><ele>2222.7</ele><time>2026-04-05T13:12:34.000Z</time></trkpt>
<trkpt lat="42.219244" lon="23.58488"><ele>2222.7</ele><time>2026-04-05T13:12:35.000Z</time></trkpt>
<trkpt lat="42.219244" lon="23.58488"><ele>2222.7</ele><time>2026-04-05T13:12:36.000Z</time></trkpt>
<trkpt lat="42.219244" lon="23.58488"><ele>2222.7</ele><time>2026-04-05T13:12:37.000Z</time></trkpt>
<trkpt lat="42.219244" lon="23.58488"><ele>2222.7</ele><time>2026-04-05T13:12:38.000Z</time></trkpt>
<trkpt lat="42.219244" lon="23.58488"><ele>2222.7</ele><time>2026-04-05T13:12:39.000Z</time></trkpt>
<trkpt lat="42.219244" lon="23.58488"><ele>2222.7</ele><time>2026-04-05T13:12:40.000Z</time></trkpt>
<trkpt lat="42.219244" lon="23.58488"><ele>2222.7</ele><time>2026-04-05T13:12:41.000Z</time></trkpt>
<trkpt lat="42.219244" lon="23.58488"><ele>2222.9</ele><time>2026-04-05T13:12:42.000Z</time></trkpt>
<trkpt lat="42.219244" lon="23.58488"><ele>2222.9</ele><time>2026-04-05T13:12:43.000Z</time></trkpt>
<trkpt lat="42.219244" lon="23.58488"><ele>2222.9</ele><time>2026-04-05T13:12:44.000Z</time></trkpt>
<trkpt lat="42.219244" lon="23.58488"><ele>2222.9</ele><time>2026-04-05T13:12:45.000Z</time></trkpt>
<trkpt lat="42.219245" lon="23.58488"><ele>2222.9</ele><time>2026-04-05T13:12:46.000Z</time></trkpt>
<trkpt lat="42.219246" lon="23.58488"><ele>2223.1</ele><time>2026-04-05T13:12:47.000Z</time></trkpt>
<trkpt lat="42.219246" lon="23.584879"><ele>2223.1</ele><time>2026-04-05T13:12:48.000Z</time></trkpt>
<trkpt lat="42.219247" lon="23.584878"><ele>2223.1</ele><time>2026-04-05T13:12:49.000Z</time></trkpt>
<trkpt lat="42.219248" lon="23.584877"><ele>2223.1</ele><time>2026-04-05T13:12:50.000Z</time></trkpt>
<trkpt lat="42.219249" lon="23.584877"><ele>2223.1</ele><time>2026-04-05T13:12:51.000Z</time></trkpt>
<trkpt lat="42.219249" lon="23.584876"><ele>2223.2</ele><time>2026-04-05T13:12:52.000Z</time></trkpt>
<trkpt lat="42.219249" lon="23.584876"><ele>2223.2</ele><time>2026-04-05T13:12:53.000Z</time></trkpt>
<trkpt lat="42.219249" lon="23.584876"><ele>2223.2</ele><time>2026-04-05T13:12:54.000Z</time></trkpt>
<trkpt lat="42.219249" lon="23.584876"><ele>2223.2</ele><time>2026-04-05T13:12:55.000Z</time></trkpt>
<trkpt lat="42.21925" lon="23.584876"><ele>2223.2</ele><time>2026-04-05T13:12:56.000Z</time></trkpt>
<trkpt lat="42.21925" lon="23.584874"><ele>2223.2</ele><time>2026-04-05T13:12:57.000Z</time></trkpt>
<trkpt lat="42.219251" lon="23.584872"><ele>2223.2</ele><time>2026-04-05T13:12:58.000Z</time></trkpt>
<trkpt lat="42.219252" lon="23.58487"><ele>2223.2</ele><time>2026-04-05T13:12:59.000Z</time></trkpt>
<trkpt lat="42.219254" lon="23.584869"><ele>2223.2</ele><time>2026-04-05T13:13:00.000Z</time></trkpt>
<trkpt lat="42.219257" lon="23.584867"><ele>2223.2</ele><time>2026-04-05T13:13:01.000Z</time></trkpt>
<trkpt lat="42.219261" lon="23.584868"><ele>2223.2</ele><time>2026-04-05T13:13:02.000Z</time></trkpt>
<trkpt lat="42.219267" lon="23.58487"><ele>2223.2</ele><time>2026-04-05T13:13:03.000Z</time></trkpt>
<trkpt lat="42.219274" lon="23.584871"><ele>2223.2</ele><time>2026-04-05T13:13:04.000Z</time></trkpt>
<trkpt lat="42.219282" lon="23.584873"><ele>2223.2</ele><time>2026-04-05T13:13:05.000Z</time></trkpt>
<trkpt lat="42.219291" lon="23.584875"><ele>2223.2</ele><time>2026-04-05T13:13:06.000Z</time></trkpt>
<trkpt lat="42.219298" lon="23.584876"><ele>2223.1</ele><time>2026-04-05T13:13:07.000Z</time></trkpt>
<trkpt lat="42.219303" lon="23.584878"><ele>2223.1</ele><time>2026-04-05T13:13:08.000Z</time></trkpt>
<trkpt lat="42.219306" lon="23.584879"><ele>2223.1</ele><time>2026-04-05T13:13:09.000Z</time></trkpt>
<trkpt lat="42.219306" lon="23.58488"><ele>2223.1</ele><time>2026-04-05T13:13:10.000Z</time></trkpt>
<trkpt lat="42.219306" lon="23.58488"><ele>2223.1</ele><time>2026-04-05T13:13:11.000Z</time></trkpt>
<trkpt lat="42.219306" lon="23.584881"><ele>2223.2</ele><time>2026-04-05T13:13:12.000Z</time></trkpt>
<trkpt lat="42.219307" lon="23.58488"><ele>2223.2</ele><time>2026-04-05T13:13:13.000Z</time></trkpt>
<trkpt lat="42.219311" lon="23.58488"><ele>2223.2</ele><time>2026-04-05T13:13:14.000Z</time></trkpt>
<trkpt lat="42.219316" lon="23.584879"><ele>2223.2</ele><time>2026-04-05T13:13:15.000Z</time></trkpt>
<trkpt lat="42.219322" lon="23.584879"><ele>2223.2</ele><time>2026-04-05T13:13:16.000Z</time></trkpt>
<trkpt lat="42.21933" lon="23.584878"><ele>2223.5</ele><time>2026-04-05T13:13:17.000Z</time></trkpt>
<trkpt lat="42.219337" lon="23.584878"><ele>2223.5</ele><time>2026-04-05T13:13:18.000Z</time></trkpt>
<trkpt lat="42.219345" lon="23.584878"><ele>2223.5</ele><time>2026-04-05T13:13:19.000Z</time></trkpt>
<trkpt lat="42.219351" lon="23.584878"><ele>2223.5</ele><time>2026-04-05T13:13:20.000Z</time></trkpt>
<trkpt lat="42.219356" lon="23.58488"><ele>2223.5</ele><time>2026-04-05T13:13:21.000Z</time></trkpt>
<trkpt lat="42.21936" lon="23.584882"><ele>2223.7</ele><time>2026-04-05T13:13:22.000Z</time></trkpt>
<trkpt lat="42.219364" lon="23.584883"><ele>2223.7</ele><time>2026-04-05T13:13:23.000Z</time></trkpt>
<trkpt lat="42.219368" lon="23.584883"><ele>2223.7</ele><time>2026-04-05T13:13:24.000Z</time></trkpt>
<trkpt lat="42.219372" lon="23.584884"><ele>2223.7</ele><time>2026-04-05T13:13:25.000Z</time></trkpt>
<trkpt lat="42.219377" lon="23.584883"><ele>2223.7</ele><time>2026-04-05T13:13:26.000Z</time></trkpt>
<trkpt lat="42.219382" lon="23.584882"><ele>2224.2</ele><time>2026-04-05T13:13:27.000Z</time></trkpt>
<trkpt lat="42.219387" lon="23.584882"><ele>2224.2</ele><time>2026-04-05T13:13:28.000Z</time></trkpt>
<trkpt lat="42.219391" lon="23.584882"><ele>2224.2</ele><time>2026-04-05T13:13:29.000Z</time></trkpt>
<trkpt lat="42.219395" lon="23.584881"><ele>2224.2</ele><time>2026-04-05T13:13:30.000Z</time></trkpt>
<trkpt lat="42.2194" lon="23.584879"><ele>2224.2</ele><time>2026-04-05T13:13:31.000Z</time></trkpt>
<trkpt lat="42.219405" lon="23.584876"><ele>2224.6</ele><time>2026-04-05T13:13:32.000Z</time></trkpt>
<trkpt lat="42.21941" lon="23.584874"><ele>2224.6</ele><time>2026-04-05T13:13:33.000Z</time></trkpt>
<trkpt lat="42.219416" lon="23.58487"><ele>2224.6</ele><time>2026-04-05T13:13:34.000Z</time></trkpt>
<trkpt lat="42.219421" lon="23.584866"><ele>2224.6</ele><time>2026-04-05T13:13:35.000Z</time></trkpt>
<trkpt lat="42.219427" lon="23.584862"><ele>2224.6</ele><time>2026-04-05T13:13:36.000Z</time></trkpt>
<trkpt lat="42.219433" lon="23.584858"><ele>2224.8</ele><time>2026-04-05T13:13:37.000Z</time></trkpt>
<trkpt lat="42.21944" lon="23.584855"><ele>2224.8</ele><time>2026-04-05T13:13:38.000Z</time></trkpt>
<trkpt lat="42.219445" lon="23.584852"><ele>2224.8</ele><time>2026-04-05T13:13:39.000Z</time></trkpt>
<trkpt lat="42.219452" lon="23.584849"><ele>2224.8</ele><time>2026-04-05T13:13:40.000Z</time></trkpt>
<trkpt lat="42.219457" lon="23.584846"><ele>2224.8</ele><time>2026-04-05T13:13:41.000Z</time></trkpt>
<trkpt lat="42.219462" lon="23.584844"><ele>2225.2</ele><time>2026-04-05T13:13:42.000Z</time></trkpt>
<trkpt lat="42.219467" lon="23.584841"><ele>2225.2</ele><time>2026-04-05T13:13:43.000Z</time></trkpt>
<trkpt lat="42.219471" lon="23.584839"><ele>2225.2</ele><time>2026-04-05T13:13:44.000Z</time></trkpt>
<trkpt lat="42.219476" lon="23.584836"><ele>2225.2</ele><time>2026-04-05T13:13:45.000Z</time></trkpt>
<trkpt lat="42.21948" lon="23.584834"><ele>2225.2</ele><time>2026-04-05T13:13:46.000Z</time></trkpt>
<trkpt lat="42.219485" lon="23.584832"><ele>2225.5</ele><time>2026-04-05T13:13:47.000Z</time></trkpt>
<trkpt lat="42.219491" lon="23.584829"><ele>2225.5</ele><time>2026-04-05T13:13:48.000Z</time></trkpt>
<trkpt lat="42.219497" lon="23.584826"><ele>2225.5</ele><time>2026-04-05T13:13:49.000Z</time></trkpt>
<trkpt lat="42.219502" lon="23.584823"><ele>2225.5</ele><time>2026-04-05T13:13:50.000Z</time></trkpt>
<trkpt lat="42.219508" lon="23.584819"><ele>2225.5</ele><time>2026-04-05T13:13:51.000Z</time></trkpt>
<trkpt lat="42.219515" lon="23.584815"><ele>2225.7</ele><time>2026-04-05T13:13:52.000Z</time></trkpt>
<trkpt lat="42.219522" lon="23.584812"><ele>2225.7</ele><time>2026-04-05T13:13:53.000Z</time></trkpt>
<trkpt lat="42.219529" lon="23.584808"><ele>2225.7</ele><time>2026-04-05T13:13:54.000Z</time></trkpt>
<trkpt lat="42.219536" lon="23.584803"><ele>2225.7</ele><time>2026-04-05T13:13:55.000Z</time></trkpt>
<trkpt lat="42.219543" lon="23.584799"><ele>2225.7</ele><time>2026-04-05T13:13:56.000Z</time></trkpt>
<trkpt lat="42.219551" lon="23.584794"><ele>2226.2</ele><time>2026-04-05T13:13:57.000Z</time></trkpt>
<trkpt lat="42.219558" lon="23.584788"><ele>2226.2</ele><time>2026-04-05T13:13:58.000Z</time></trkpt>
<trkpt lat="42.219566" lon="23.584782"><ele>2226.2</ele><time>2026-04-05T13:13:59.000Z</time></trkpt>
<trkpt lat="42.219573" lon="23.584776"><ele>2226.2</ele><time>2026-04-05T13:14:00.000Z</time></trkpt>
<trkpt lat="42.21958" lon="23.58477"><ele>2226.2</ele><time>2026-04-05T13:14:01.000Z</time></trkpt>
<trkpt lat="42.219585" lon="23.584762"><ele>2227</ele><time>2026-04-05T13:14:02.000Z</time></trkpt>
<trkpt lat="42.21959" lon="23.584755"><ele>2227</ele><time>2026-04-05T13:14:03.000Z</time></trkpt>
<trkpt lat="42.219595" lon="23.584749"><ele>2227</ele><time>2026-04-05T13:14:04.000Z</time></trkpt>
<trkpt lat="42.2196" lon="23.584741"><ele>2227</ele><time>2026-04-05T13:14:05.000Z</time></trkpt>
<trkpt lat="42.219605" lon="23.584734"><ele>2227</ele><time>2026-04-05T13:14:06.000Z</time></trkpt>
<trkpt lat="42.21961" lon="23.584728"><ele>2227.4</ele><time>2026-04-05T13:14:07.000Z</time></trkpt>
<trkpt lat="42.219615" lon="23.584721"><ele>2227.4</ele><time>2026-04-05T13:14:08.000Z</time></trkpt>
<trkpt lat="42.21962" lon="23.584713"><ele>2227.4</ele><time>2026-04-05T13:14:09.000Z</time></trkpt>
<trkpt lat="42.219625" lon="23.584705"><ele>2227.4</ele><time>2026-04-05T13:14:10.000Z</time></trkpt>
<trkpt lat="42.219631" lon="23.584698"><ele>2227.4</ele><time>2026-04-05T13:14:11.000Z</time></trkpt>
<trkpt lat="42.219637" lon="23.58469"><ele>2228.1</ele><time>2026-04-05T13:14:12.000Z</time></trkpt>
<trkpt lat="42.219643" lon="23.584682"><ele>2228.1</ele><time>2026-04-05T13:14:13.000Z</time></trkpt>
<trkpt lat="42.219649" lon="23.584675"><ele>2228.1</ele><time>2026-04-05T13:14:14.000Z</time></trkpt>
<trkpt lat="42.219656" lon="23.584668"><ele>2228.1</ele><time>2026-04-05T13:14:15.000Z</time></trkpt>
<trkpt lat="42.219663" lon="23.58466"><ele>2228.1</ele><time>2026-04-05T13:14:16.000Z</time></trkpt>
<trkpt lat="42.21967" lon="23.584652"><ele>2228.6</ele><time>2026-04-05T13:14:17.000Z</time></trkpt>
<trkpt lat="42.219676" lon="23.584644"><ele>2228.6</ele><time>2026-04-05T13:14:18.000Z</time></trkpt>
<trkpt lat="42.219683" lon="23.584636"><ele>2228.6</ele><time>2026-04-05T13:14:19.000Z</time></trkpt>
<trkpt lat="42.219689" lon="23.584629"><ele>2228.6</ele><time>2026-04-05T13:14:20.000Z</time></trkpt>
<trkpt lat="42.219695" lon="23.58462"><ele>2228.6</ele><time>2026-04-05T13:14:21.000Z</time></trkpt>
<trkpt lat="42.219701" lon="23.584612"><ele>2228.9</ele><time>2026-04-05T13:14:22.000Z</time></trkpt>
<trkpt lat="42.219706" lon="23.584605"><ele>2228.9</ele><time>2026-04-05T13:14:23.000Z</time></trkpt>
<trkpt lat="42.219712" lon="23.584597"><ele>2228.9</ele><time>2026-04-05T13:14:24.000Z</time></trkpt>
<trkpt lat="42.219718" lon="23.584589"><ele>2228.9</ele><time>2026-04-05T13:14:25.000Z</time></trkpt>
<trkpt lat="42.219723" lon="23.584581"><ele>2228.9</ele><time>2026-04-05T13:14:26.000Z</time></trkpt>
<trkpt lat="42.219728" lon="23.584573"><ele>2229.4</ele><time>2026-04-05T13:14:27.000Z</time></trkpt>
<trkpt lat="42.219733" lon="23.584566"><ele>2229.4</ele><time>2026-04-05T13:14:28.000Z</time></trkpt>
<trkpt lat="42.219738" lon="23.584557"><ele>2229.4</ele><time>2026-04-05T13:14:29.000Z</time></trkpt>
<trkpt lat="42.219743" lon="23.584549"><ele>2229.4</ele><time>2026-04-05T13:14:30.000Z</time></trkpt>
<trkpt lat="42.219748" lon="23.584542"><ele>2229.4</ele><time>2026-04-05T13:14:31.000Z</time></trkpt>
<trkpt lat="42.219753" lon="23.584535"><ele>2230</ele><time>2026-04-05T13:14:32.000Z</time></trkpt>
<trkpt lat="42.219759" lon="23.584528"><ele>2230</ele><time>2026-04-05T13:14:33.000Z</time></trkpt>
<trkpt lat="42.219766" lon="23.584522"><ele>2230</ele><time>2026-04-05T13:14:34.000Z</time></trkpt>
<trkpt lat="42.219772" lon="23.584516"><ele>2230</ele><time>2026-04-05T13:14:35.000Z</time></trkpt>
<trkpt lat="42.219778" lon="23.58451"><ele>2230</ele><time>2026-04-05T13:14:36.000Z</time></trkpt>
<trkpt lat="42.219785" lon="23.584504"><ele>2230.4</ele><time>2026-04-05T13:14:37.000Z</time></trkpt>
<trkpt lat="42.219792" lon="23.584498"><ele>2230.4</ele><time>2026-04-05T13:14:38.000Z</time></trkpt>
<trkpt lat="42.219799" lon="23.584492"><ele>2230.4</ele><time>2026-04-05T13:14:39.000Z</time></trkpt>
<trkpt lat="42.219806" lon="23.584487"><ele>2230.4</ele><time>2026-04-05T13:14:40.000Z</time></trkpt>
<trkpt lat="42.219813" lon="23.584481"><ele>2230.4</ele><time>2026-04-05T13:14:41.000Z</time></trkpt>
<trkpt lat="42.21982" lon="23.584475"><ele>2231.2</ele><time>2026-04-05T13:14:42.000Z</time></trkpt>
<trkpt lat="42.219826" lon="23.584469"><ele>2231.2</ele><time>2026-04-05T13:14:43.000Z</time></trkpt>
<trkpt lat="42.219832" lon="23.584462"><ele>2231.2</ele><time>2026-04-05T13:14:44.000Z</time></trkpt>
<trkpt lat="42.219838" lon="23.584455"><ele>2231.2</ele><time>2026-04-05T13:14:45.000Z</time></trkpt>
<trkpt lat="42.219844" lon="23.584448"><ele>2231.2</ele><time>2026-04-05T13:14:46.000Z</time></trkpt>
<trkpt lat="42.21985" lon="23.584442"><ele>2232</ele><time>2026-04-05T13:14:47.000Z</time></trkpt>
<trkpt lat="42.219856" lon="23.584437"><ele>2232</ele><time>2026-04-05T13:14:48.000Z</time></trkpt>
<trkpt lat="42.219863" lon="23.584432"><ele>2232</ele><time>2026-04-05T13:14:49.000Z</time></trkpt>
<trkpt lat="42.219869" lon="23.584427"><ele>2232</ele><time>2026-04-05T13:14:50.000Z</time></trkpt>
<trkpt lat="42.219874" lon="23.584424"><ele>2232</ele><time>2026-04-05T13:14:51.000Z</time></trkpt>
<trkpt lat="42.219879" lon="23.584419"><ele>2232.4</ele><time>2026-04-05T13:14:52.000Z</time></trkpt>
<trkpt lat="42.219884" lon="23.584415"><ele>2232.4</ele><time>2026-04-05T13:14:53.000Z</time></trkpt>
<trkpt lat="42.219888" lon="23.58441"><ele>2232.4</ele><time>2026-04-05T13:14:54.000Z</time></trkpt>
<trkpt lat="42.219895" lon="23.584404"><ele>2232.4</ele><time>2026-04-05T13:14:55.000Z</time></trkpt>
<trkpt lat="42.219903" lon="23.584399"><ele>2232.4</ele><time>2026-04-05T13:14:56.000Z</time></trkpt>
<trkpt lat="42.219911" lon="23.584393"><ele>2233.1</ele><time>2026-04-05T13:14:57.000Z</time></trkpt>
<trkpt lat="42.219919" lon="23.584388"><ele>2233.1</ele><time>2026-04-05T13:14:58.000Z</time></trkpt>
<trkpt lat="42.219928" lon="23.584382"><ele>2233.1</ele><time>2026-04-05T13:14:59.000Z</time></trkpt>
<trkpt lat="42.219936" lon="23.584375"><ele>2233.1</ele><time>2026-04-05T13:15:00.000Z</time></trkpt>
<trkpt lat="42.219943" lon="23.584368"><ele>2233.1</ele><time>2026-04-05T13:15:01.000Z</time></trkpt>
<trkpt lat="42.219951" lon="23.584362"><ele>2233.6</ele><time>2026-04-05T13:15:02.000Z</time></trkpt>
<trkpt lat="42.21996" lon="23.584355"><ele>2233.6</ele><time>2026-04-05T13:15:03.000Z</time></trkpt>
<trkpt lat="42.219969" lon="23.584349"><ele>2233.6</ele><time>2026-04-05T13:15:04.000Z</time></trkpt>
<trkpt lat="42.219977" lon="23.584341"><ele>2233.6</ele><time>2026-04-05T13:15:05.000Z</time></trkpt>
<trkpt lat="42.219986" lon="23.584333"><ele>2233.6</ele><time>2026-04-05T13:15:06.000Z</time></trkpt>
<trkpt lat="42.219995" lon="23.584325"><ele>2233.9</ele><time>2026-04-05T13:15:07.000Z</time></trkpt>
<trkpt lat="42.220003" lon="23.584317"><ele>2233.9</ele><time>2026-04-05T13:15:08.000Z</time></trkpt>
<trkpt lat="42.220011" lon="23.58431"><ele>2233.9</ele><time>2026-04-05T13:15:09.000Z</time></trkpt>
<trkpt lat="42.22002" lon="23.584303"><ele>2233.9</ele><time>2026-04-05T13:15:10.000Z</time></trkpt>
<trkpt lat="42.220028" lon="23.584297"><ele>2233.9</ele><time>2026-04-05T13:15:11.000Z</time></trkpt>
<trkpt lat="42.220035" lon="23.584291"><ele>2234.1</ele><time>2026-04-05T13:15:12.000Z</time></trkpt>
<trkpt lat="42.220042" lon="23.584284"><ele>2234.1</ele><time>2026-04-05T13:15:13.000Z</time></trkpt>
<trkpt lat="42.220049" lon="23.584278"><ele>2234.1</ele><time>2026-04-05T13:15:14.000Z</time></trkpt>
<trkpt lat="42.220055" lon="23.584271"><ele>2234.1</ele><time>2026-04-05T13:15:15.000Z</time></trkpt>
<trkpt lat="42.22006" lon="23.584264"><ele>2234.1</ele><time>2026-04-05T13:15:16.000Z</time></trkpt>
<trkpt lat="42.220066" lon="23.584258"><ele>2234.2</ele><time>2026-04-05T13:15:17.000Z</time></trkpt>
<trkpt lat="42.220071" lon="23.584252"><ele>2234.2</ele><time>2026-04-05T13:15:18.000Z</time></trkpt>
<trkpt lat="42.220077" lon="23.584245"><ele>2234.2</ele><time>2026-04-05T13:15:19.000Z</time></trkpt>
<trkpt lat="42.220083" lon="23.58424"><ele>2234.2</ele><time>2026-04-05T13:15:20.000Z</time></trkpt>
<trkpt lat="42.22009" lon="23.584234"><ele>2234.2</ele><time>2026-04-05T13:15:21.000Z</time></trkpt>
<trkpt lat="42.220098" lon="23.584226"><ele>2234.2</ele><time>2026-04-05T13:15:22.000Z</time></trkpt>
<trkpt lat="42.220105" lon="23.584219"><ele>2234.2</ele><time>2026-04-05T13:15:23.000Z</time></trkpt>
<trkpt lat="42.220113" lon="23.584212"><ele>2234.2</ele><time>2026-04-05T13:15:24.000Z</time></trkpt>
<trkpt lat="42.22012" lon="23.584206"><ele>2234.2</ele><time>2026-04-05T13:15:25.000Z</time></trkpt>
<trkpt lat="42.220127" lon="23.5842"><ele>2234.2</ele><time>2026-04-05T13:15:26.000Z</time></trkpt>
<trkpt lat="42.220135" lon="23.584193"><ele>2234.6</ele><time>2026-04-05T13:15:27.000Z</time></trkpt>
<trkpt lat="42.220141" lon="23.584188"><ele>2234.6</ele><time>2026-04-05T13:15:28.000Z</time></trkpt>
<trkpt lat="42.220147" lon="23.584181"><ele>2234.6</ele><time>2026-04-05T13:15:29.000Z</time></trkpt>
<trkpt lat="42.220155" lon="23.584173"><ele>2234.6</ele><time>2026-04-05T13:15:30.000Z</time></trkpt>
<trkpt lat="42.220161" lon="23.584164"><ele>2234.6</ele><time>2026-04-05T13:15:31.000Z</time></trkpt>
<trkpt lat="42.220169" lon="23.584156"><ele>2235.2</ele><time>2026-04-05T13:15:32.000Z</time></trkpt>
<trkpt lat="42.220177" lon="23.584147"><ele>2235.2</ele><time>2026-04-05T13:15:33.000Z</time></trkpt>
<trkpt lat="42.220185" lon="23.584138"><ele>2235.2</ele><time>2026-04-05T13:15:34.000Z</time></trkpt>
<trkpt lat="42.220193" lon="23.584129"><ele>2235.2</ele><time>2026-04-05T13:15:35.000Z</time></trkpt>
<trkpt lat="42.2202" lon="23.584122"><ele>2235.2</ele><time>2026-04-05T13:15:36.000Z</time></trkpt>
<trkpt lat="42.220208" lon="23.584115"><ele>2235.6</ele><time>2026-04-05T13:15:37.000Z</time></trkpt>
<trkpt lat="42.220216" lon="23.584108"><ele>2235.6</ele><time>2026-04-05T13:15:38.000Z</time></trkpt>
<trkpt lat="42.220225" lon="23.584102"><ele>2235.6</ele><time>2026-04-05T13:15:39.000Z</time></trkpt>
<trkpt lat="42.220233" lon="23.584096"><ele>2235.6</ele><time>2026-04-05T13:15:40.000Z</time></trkpt>
<trkpt lat="42.220241" lon="23.584089"><ele>2235.6</ele><time>2026-04-05T13:15:41.000Z</time></trkpt>
<trkpt lat="42.220248" lon="23.584086"><ele>2236.3</ele><time>2026-04-05T13:15:42.000Z</time></trkpt>
<trkpt lat="42.220253" lon="23.584084"><ele>2236.3</ele><time>2026-04-05T13:15:43.000Z</time></trkpt>
<trkpt lat="42.220256" lon="23.584083"><ele>2236.3</ele><time>2026-04-05T13:15:44.000Z</time></trkpt>
<trkpt lat="42.220258" lon="23.584081"><ele>2236.3</ele><time>2026-04-05T13:15:45.000Z</time></trkpt>
<trkpt lat="42.22026" lon="23.584079"><ele>2236.3</ele><time>2026-04-05T13:15:46.000Z</time></trkpt>
<trkpt lat="42.220263" lon="23.584076"><ele>2236.9</ele><time>2026-04-05T13:15:47.000Z</time></trkpt>
<trkpt lat="42.220267" lon="23.584071"><ele>2236.9</ele><time>2026-04-05T13:15:48.000Z</time></trkpt>
<trkpt lat="42.220273" lon="23.584067"><ele>2236.9</ele><time>2026-04-05T13:15:49.000Z</time></trkpt>
<trkpt lat="42.220278" lon="23.584063"><ele>2236.9</ele><time>2026-04-05T13:15:50.000Z</time></trkpt>
<trkpt lat="42.220282" lon="23.584061"><ele>2236.9</ele><time>2026-04-05T13:15:51.000Z</time></trkpt>
<trkpt lat="42.220286" lon="23.584058"><ele>2237.1</ele><time>2026-04-05T13:15:52.000Z</time></trkpt>
<trkpt lat="42.220288" lon="23.584056"><ele>2237.1</ele><time>2026-04-05T13:15:53.000Z</time></trkpt>
<trkpt lat="42.220289" lon="23.584055"><ele>2237.1</ele><time>2026-04-05T13:15:54.000Z</time></trkpt>
<trkpt lat="42.22029" lon="23.584053"><ele>2237.1</ele><time>2026-04-05T13:15:55.000Z</time></trkpt>
<trkpt lat="42.220291" lon="23.584051"><ele>2237.1</ele><time>2026-04-05T13:15:56.000Z</time></trkpt>
<trkpt lat="42.220293" lon="23.58405"><ele>2237.5</ele><time>2026-04-05T13:15:57.000Z</time></trkpt>
<trkpt lat="42.220296" lon="23.584047"><ele>2237.5</ele><time>2026-04-05T13:15:58.000Z</time></trkpt>
<trkpt lat="42.220301" lon="23.584044"><ele>2237.5</ele><time>2026-04-05T13:15:59.000Z</time></trkpt>
<trkpt lat="42.220306" lon="23.584041"><ele>2237.5</ele><time>2026-04-05T13:16:00.000Z</time></trkpt>
<trkpt lat="42.220312" lon="23.584037"><ele>2237.5</ele><time>2026-04-05T13:16:01.000Z</time></trkpt>
<trkpt lat="42.220319" lon="23.584034"><ele>2237.7</ele><time>2026-04-05T13:16:02.000Z</time></trkpt>
<trkpt lat="42.220326" lon="23.58403"><ele>2237.7</ele><time>2026-04-05T13:16:03.000Z</time></trkpt>
<trkpt lat="42.220333" lon="23.584027"><ele>2237.7</ele><time>2026-04-05T13:16:04.000Z</time></trkpt>
<trkpt lat="42.220341" lon="23.584024"><ele>2237.7</ele><time>2026-04-05T13:16:05.000Z</time></trkpt>
<trkpt lat="42.22035" lon="23.584021"><ele>2237.7</ele><time>2026-04-05T13:16:06.000Z</time></trkpt>
<trkpt lat="42.220358" lon="23.584017"><ele>2237.8</ele><time>2026-04-05T13:16:07.000Z</time></trkpt>
<trkpt lat="42.220366" lon="23.584013"><ele>2237.8</ele><time>2026-04-05T13:16:08.000Z</time></trkpt>
<trkpt lat="42.220375" lon="23.584009"><ele>2237.8</ele><time>2026-04-05T13:16:09.000Z</time></trkpt>
<trkpt lat="42.220384" lon="23.584005"><ele>2237.8</ele><time>2026-04-05T13:16:10.000Z</time></trkpt>
<trkpt lat="42.220393" lon="23.584"><ele>2237.8</ele><time>2026-04-05T13:16:11.000Z</time></trkpt>
<trkpt lat="42.220403" lon="23.583996"><ele>2238</ele><time>2026-04-05T13:16:12.000Z</time></trkpt>
<trkpt lat="42.220412" lon="23.583991"><ele>2238</ele><time>2026-04-05T13:16:13.000Z</time></trkpt>
<trkpt lat="42.220421" lon="23.583986"><ele>2238</ele><time>2026-04-05T13:16:14.000Z</time></trkpt>
<trkpt lat="42.22043" lon="23.583981"><ele>2238</ele><time>2026-04-05T13:16:15.000Z</time></trkpt>
<trkpt lat="42.220439" lon="23.583975"><ele>2238</ele><time>2026-04-05T13:16:16.000Z</time></trkpt>
<trkpt lat="42.220448" lon="23.583969"><ele>2238.2</ele><time>2026-04-05T13:16:17.000Z</time></trkpt>
<trkpt lat="42.220458" lon="23.583964"><ele>2238.2</ele><time>2026-04-05T13:16:18.000Z</time></trkpt>
<trkpt lat="42.220468" lon="23.583959"><ele>2238.2</ele><time>2026-04-05T13:16:19.000Z</time></trkpt>
<trkpt lat="42.220478" lon="23.583955"><ele>2238.2</ele><time>2026-04-05T13:16:20.000Z</time></trkpt>
<trkpt lat="42.220489" lon="23.583951"><ele>2238.2</ele><time>2026-04-05T13:16:21.000Z</time></trkpt>
<trkpt lat="42.2205" lon="23.583947"><ele>2238.3</ele><time>2026-04-05T13:16:22.000Z</time></trkpt>
<trkpt lat="42.22051" lon="23.583943"><ele>2238.3</ele><time>2026-04-05T13:16:23.000Z</time></trkpt>
<trkpt lat="42.22052" lon="23.583938"><ele>2238.3</ele><time>2026-04-05T13:16:24.000Z</time></trkpt>
<trkpt lat="42.220529" lon="23.583932"><ele>2238.3</ele><time>2026-04-05T13:16:25.000Z</time></trkpt>
<trkpt lat="42.220539" lon="23.583926"><ele>2238.3</ele><time>2026-04-05T13:16:26.000Z</time></trkpt>
<trkpt lat="42.220549" lon="23.58392"><ele>2238.4</ele><time>2026-04-05T13:16:27.000Z</time></trkpt>
<trkpt lat="42.220559" lon="23.583914"><ele>2238.4</ele><time>2026-04-05T13:16:28.000Z</time></trkpt>
<trkpt lat="42.220569" lon="23.583908"><ele>2238.4</ele><time>2026-04-05T13:16:29.000Z</time></trkpt>
<trkpt lat="42.220578" lon="23.583902"><ele>2238.4</ele><time>2026-04-05T13:16:30.000Z</time></trkpt>
<trkpt lat="42.220587" lon="23.583897"><ele>2238.4</ele><time>2026-04-05T13:16:31.000Z</time></trkpt>
<trkpt lat="42.220596" lon="23.583892"><ele>2238.7</ele><time>2026-04-05T13:16:32.000Z</time></trkpt>
<trkpt lat="42.220606" lon="23.583887"><ele>2238.7</ele><time>2026-04-05T13:16:33.000Z</time></trkpt>
<trkpt lat="42.220615" lon="23.583881"><ele>2238.7</ele><time>2026-04-05T13:16:34.000Z</time></trkpt>
<trkpt lat="42.220624" lon="23.583875"><ele>2238.7</ele><time>2026-04-05T13:16:35.000Z</time></trkpt>
<trkpt lat="42.220633" lon="23.583869"><ele>2238.7</ele><time>2026-04-05T13:16:36.000Z</time></trkpt>
<trkpt lat="42.220643" lon="23.583862"><ele>2238.9</ele><time>2026-04-05T13:16:37.000Z</time></trkpt>
<trkpt lat="42.22065" lon="23.583854"><ele>2238.9</ele><time>2026-04-05T13:16:38.000Z</time></trkpt>
<trkpt lat="42.220657" lon="23.583848"><ele>2238.9</ele><time>2026-04-05T13:16:39.000Z</time></trkpt>
<trkpt lat="42.220665" lon="23.583841"><ele>2238.9</ele><time>2026-04-05T13:16:40.000Z</time></trkpt>
<trkpt lat="42.220672" lon="23.583835"><ele>2238.9</ele><time>2026-04-05T13:16:41.000Z</time></trkpt>
<trkpt lat="42.220678" lon="23.58383"><ele>2239.4</ele><time>2026-04-05T13:16:42.000Z</time></trkpt>
<trkpt lat="42.220684" lon="23.583825"><ele>2239.4</ele><time>2026-04-05T13:16:43.000Z</time></trkpt>
<trkpt lat="42.220692" lon="23.583819"><ele>2239.4</ele><time>2026-04-05T13:16:44.000Z</time></trkpt>
<trkpt lat="42.2207" lon="23.583814"><ele>2239.4</ele><time>2026-04-05T13:16:45.000Z</time></trkpt>
<trkpt lat="42.220707" lon="23.583808"><ele>2239.4</ele><time>2026-04-05T13:16:46.000Z</time></trkpt>
<trkpt lat="42.220716" lon="23.583803"><ele>2239.8</ele><time>2026-04-05T13:16:47.000Z</time></trkpt>
<trkpt lat="42.220725" lon="23.583796"><ele>2239.8</ele><time>2026-04-05T13:16:48.000Z</time></trkpt>
<trkpt lat="42.220734" lon="23.583791"><ele>2239.8</ele><time>2026-04-05T13:16:49.000Z</time></trkpt>
<trkpt lat="42.220743" lon="23.583786"><ele>2239.8</ele><time>2026-04-05T13:16:50.000Z</time></trkpt>
<trkpt lat="42.220752" lon="23.583781"><ele>2239.8</ele><time>2026-04-05T13:16:51.000Z</time></trkpt>
<trkpt lat="42.220762" lon="23.583776"><ele>2240</ele><time>2026-04-05T13:16:52.000Z</time></trkpt>
<trkpt lat="42.22077" lon="23.58377"><ele>2240</ele><time>2026-04-05T13:16:53.000Z</time></trkpt>
<trkpt lat="42.220779" lon="23.583764"><ele>2240</ele><time>2026-04-05T13:16:54.000Z</time></trkpt>
<trkpt lat="42.220786" lon="23.583757"><ele>2240</ele><time>2026-04-05T13:16:55.000Z</time></trkpt>
<trkpt lat="42.220794" lon="23.583749"><ele>2240</ele><time>2026-04-05T13:16:56.000Z</time></trkpt>
<trkpt lat="42.220801" lon="23.583741"><ele>2240.3</ele><time>2026-04-05T13:16:57.000Z</time></trkpt>
<trkpt lat="42.220808" lon="23.583734"><ele>2240.3</ele><time>2026-04-05T13:16:58.000Z</time></trkpt>
<trkpt lat="42.220815" lon="23.583727"><ele>2240.3</ele><time>2026-04-05T13:16:59.000Z</time></trkpt>
<trkpt lat="42.220823" lon="23.583721"><ele>2240.3</ele><time>2026-04-05T13:17:00.000Z</time></trkpt>
<trkpt lat="42.220832" lon="23.583715"><ele>2240.3</ele><time>2026-04-05T13:17:01.000Z</time></trkpt>
<trkpt lat="42.22084" lon="23.58371"><ele>2240.7</ele><time>2026-04-05T13:17:02.000Z</time></trkpt>
<trkpt lat="42.220848" lon="23.583704"><ele>2240.7</ele><time>2026-04-05T13:17:03.000Z</time></trkpt>
<trkpt lat="42.220856" lon="23.583697"><ele>2240.7</ele><time>2026-04-05T13:17:04.000Z</time></trkpt>
<trkpt lat="42.220864" lon="23.58369"><ele>2240.7</ele><time>2026-04-05T13:17:05.000Z</time></trkpt>
<trkpt lat="42.220872" lon="23.583683"><ele>2240.7</ele><time>2026-04-05T13:17:06.000Z</time></trkpt>
<trkpt lat="42.22088" lon="23.583676"><ele>2241</ele><time>2026-04-05T13:17:07.000Z</time></trkpt>
<trkpt lat="42.220888" lon="23.583669"><ele>2241</ele><time>2026-04-05T13:17:08.000Z</time></trkpt>
<trkpt lat="42.220895" lon="23.583663"><ele>2241</ele><time>2026-04-05T13:17:09.000Z</time></trkpt>
<trkpt lat="42.220903" lon="23.583656"><ele>2241</ele><time>2026-04-05T13:17:10.000Z</time></trkpt>
<trkpt lat="42.22091" lon="23.58365"><ele>2241</ele><time>2026-04-05T13:17:11.000Z</time></trkpt>
<trkpt lat="42.220917" lon="23.583643"><ele>2241.4</ele><time>2026-04-05T13:17:12.000Z</time></trkpt>
<trkpt lat="42.220923" lon="23.583636"><ele>2241.4</ele><time>2026-04-05T13:17:13.000Z</time></trkpt>
<trkpt lat="42.220929" lon="23.583628"><ele>2241.4</ele><time>2026-04-05T13:17:14.000Z</time></trkpt>
<trkpt lat="42.220935" lon="23.58362"><ele>2241.4</ele><time>2026-04-05T13:17:15.000Z</time></trkpt>
<trkpt lat="42.220941" lon="23.583613"><ele>2241.4</ele><time>2026-04-05T13:17:16.000Z</time></trkpt>
<trkpt lat="42.220946" lon="23.583608"><ele>2241.8</ele><time>2026-04-05T13:17:17.000Z</time></trkpt>
<trkpt lat="42.220949" lon="23.583605"><ele>2241.8</ele><time>2026-04-05T13:17:18.000Z</time></trkpt>
<trkpt lat="42.220951" lon="23.583605"><ele>2241.8</ele><time>2026-04-05T13:17:19.000Z</time></trkpt>
<trkpt lat="42.220952" lon="23.583605"><ele>2241.8</ele><time>2026-04-05T13:17:20.000Z</time></trkpt>
<trkpt lat="42.220951" lon="23.583606"><ele>2241.8</ele><time>2026-04-05T13:17:21.000Z</time></trkpt>
<trkpt lat="42.220951" lon="23.583605"><ele>2242</ele><time>2026-04-05T13:17:22.000Z</time></trkpt>
<trkpt lat="42.22095" lon="23.583603"><ele>2242</ele><time>2026-04-05T13:17:23.000Z</time></trkpt>
<trkpt lat="42.22095" lon="23.583602"><ele>2242</ele><time>2026-04-05T13:17:24.000Z</time></trkpt>
<trkpt lat="42.220949" lon="23.583601"><ele>2242</ele><time>2026-04-05T13:17:25.000Z</time></trkpt>
<trkpt lat="42.220948" lon="23.5836"><ele>2242</ele><time>2026-04-05T13:17:26.000Z</time></trkpt>
<trkpt lat="42.220946" lon="23.583599"><ele>2242.4</ele><time>2026-04-05T13:17:27.000Z</time></trkpt>
<trkpt lat="42.220946" lon="23.583599"><ele>2242.4</ele><time>2026-04-05T13:17:28.000Z</time></trkpt>
<trkpt lat="42.220946" lon="23.5836"><ele>2242.4</ele><time>2026-04-05T13:17:29.000Z</time></trkpt>
<trkpt lat="42.220946" lon="23.5836"><ele>2242.4</ele><time>2026-04-05T13:17:30.000Z</time></trkpt>
<trkpt lat="42.220947" lon="23.5836"><ele>2242.4</ele><time>2026-04-05T13:17:31.000Z</time></trkpt>
<trkpt lat="42.220948" lon="23.583601"><ele>2242.7</ele><time>2026-04-05T13:17:32.000Z</time></trkpt>
<trkpt lat="42.220949" lon="23.583601"><ele>2242.7</ele><time>2026-04-05T13:17:33.000Z</time></trkpt>
<trkpt lat="42.220949" lon="23.583601"><ele>2242.7</ele><time>2026-04-05T13:17:34.000Z</time></trkpt>
<trkpt lat="42.22095" lon="23.583602"><ele>2242.7</ele><time>2026-04-05T13:17:35.000Z</time></trkpt>
<trkpt lat="42.22095" lon="23.583602"><ele>2242.7</ele><time>2026-04-05T13:17:36.000Z</time></trkpt>
<trkpt lat="42.22095" lon="23.583602"><ele>2242.7</ele><time>2026-04-05T13:17:37.000Z</time></trkpt>
<trkpt lat="42.22095" lon="23.583602"><ele>2242.7</ele><time>2026-04-05T13:17:38.000Z</time></trkpt>
<trkpt lat="42.22095" lon="23.583602"><ele>2242.7</ele><time>2026-04-05T13:17:39.000Z</time></trkpt>
<trkpt lat="42.220951" lon="23.583601"><ele>2242.7</ele><time>2026-04-05T13:17:40.000Z</time></trkpt>
<trkpt lat="42.220951" lon="23.583601"><ele>2242.7</ele><time>2026-04-05T13:17:41.000Z</time></trkpt>
<trkpt lat="42.220951" lon="23.583601"><ele>2242.7</ele><time>2026-04-05T13:17:42.000Z</time></trkpt>
<trkpt lat="42.220951" lon="23.583601"><ele>2242.7</ele><time>2026-04-05T13:17:43.000Z</time></trkpt>
<trkpt lat="42.220951" lon="23.583602"><ele>2242.7</ele><time>2026-04-05T13:17:44.000Z</time></trkpt>
<trkpt lat="42.220951" lon="23.583602"><ele>2242.7</ele><time>2026-04-05T13:17:45.000Z</time></trkpt>
<trkpt lat="42.22095" lon="23.583602"><ele>2242.7</ele><time>2026-04-05T13:17:46.000Z</time></trkpt>
<trkpt lat="42.220949" lon="23.583601"><ele>2242.7</ele><time>2026-04-05T13:17:47.000Z</time></trkpt>
<trkpt lat="42.220948" lon="23.583599"><ele>2242.7</ele><time>2026-04-05T13:17:48.000Z</time></trkpt>
<trkpt lat="42.220949" lon="23.583595"><ele>2242.7</ele><time>2026-04-05T13:17:49.000Z</time></trkpt>
<trkpt lat="42.22095" lon="23.583589"><ele>2242.7</ele><time>2026-04-05T13:17:50.000Z</time></trkpt>
<trkpt lat="42.220954" lon="23.583582"><ele>2242.7</ele><time>2026-04-05T13:17:51.000Z</time></trkpt>
<trkpt lat="42.220958" lon="23.583573"><ele>2242.6</ele><time>2026-04-05T13:17:52.000Z</time></trkpt>
<trkpt lat="42.220963" lon="23.583565"><ele>2242.6</ele><time>2026-04-05T13:17:53.000Z</time></trkpt>
<trkpt lat="42.220969" lon="23.583555"><ele>2242.6</ele><time>2026-04-05T13:17:54.000Z</time></trkpt>
<trkpt lat="42.220974" lon="23.583547"><ele>2242.6</ele><time>2026-04-05T13:17:55.000Z</time></trkpt>
<trkpt lat="42.220979" lon="23.583538"><ele>2242.6</ele><time>2026-04-05T13:17:56.000Z</time></trkpt>
<trkpt lat="42.220985" lon="23.583529"><ele>2242.7</ele><time>2026-04-05T13:17:57.000Z</time></trkpt>
<trkpt lat="42.22099" lon="23.583521"><ele>2242.7</ele><time>2026-04-05T13:17:58.000Z</time></trkpt>
<trkpt lat="42.220995" lon="23.583512"><ele>2242.7</ele><time>2026-04-05T13:17:59.000Z</time></trkpt>
<trkpt lat="42.221" lon="23.583502"><ele>2242.7</ele><time>2026-04-05T13:18:00.000Z</time></trkpt>
<trkpt lat="42.221004" lon="23.583493"><ele>2242.7</ele><time>2026-04-05T13:18:01.000Z</time></trkpt>
<trkpt lat="42.221008" lon="23.583483"><ele>2243.1</ele><time>2026-04-05T13:18:02.000Z</time></trkpt>
<trkpt lat="42.221012" lon="23.583472"><ele>2243.1</ele><time>2026-04-05T13:18:03.000Z</time></trkpt>
<trkpt lat="42.221017" lon="23.583462"><ele>2243.1</ele><time>2026-04-05T13:18:04.000Z</time></trkpt>
<trkpt lat="42.221022" lon="23.583451"><ele>2243.1</ele><time>2026-04-05T13:18:05.000Z</time></trkpt>
<trkpt lat="42.221027" lon="23.583441"><ele>2243.1</ele><time>2026-04-05T13:18:06.000Z</time></trkpt>
<trkpt lat="42.221033" lon="23.58343"><ele>2243.3</ele><time>2026-04-05T13:18:07.000Z</time></trkpt>
<trkpt lat="42.22104" lon="23.58342"><ele>2243.3</ele><time>2026-04-05T13:18:08.000Z</time></trkpt>
<trkpt lat="42.221046" lon="23.58341"><ele>2243.3</ele><time>2026-04-05T13:18:09.000Z</time></trkpt>
<trkpt lat="42.221051" lon="23.583402"><ele>2243.3</ele><time>2026-04-05T13:18:10.000Z</time></trkpt>
<trkpt lat="42.221056" lon="23.583396"><ele>2243.3</ele><time>2026-04-05T13:18:11.000Z</time></trkpt>
<trkpt lat="42.221059" lon="23.583391"><ele>2244</ele><time>2026-04-05T13:18:12.000Z</time></trkpt>
<trkpt lat="42.22106" lon="23.583387"><ele>2244</ele><time>2026-04-05T13:18:13.000Z</time></trkpt>
<trkpt lat="42.221061" lon="23.583385"><ele>2244</ele><time>2026-04-05T13:18:14.000Z</time></trkpt>
<trkpt lat="42.22106" lon="23.583384"><ele>2244</ele><time>2026-04-05T13:18:15.000Z</time></trkpt>
<trkpt lat="42.221059" lon="23.583383"><ele>2244</ele><time>2026-04-05T13:18:16.000Z</time></trkpt>
<trkpt lat="42.221058" lon="23.583382"><ele>2244.7</ele><time>2026-04-05T13:18:17.000Z</time></trkpt>
<trkpt lat="42.221059" lon="23.583383"><ele>2244.7</ele><time>2026-04-05T13:18:18.000Z</time></trkpt>
<trkpt lat="42.22106" lon="23.583384"><ele>2244.7</ele><time>2026-04-05T13:18:19.000Z</time></trkpt>
<trkpt lat="42.22106" lon="23.583385"><ele>2244.7</ele><time>2026-04-05T13:18:20.000Z</time></trkpt>
<trkpt lat="42.221061" lon="23.583386"><ele>2244.7</ele><time>2026-04-05T13:18:21.000Z</time></trkpt>
<trkpt lat="42.221061" lon="23.583386"><ele>2245</ele><time>2026-04-05T13:18:22.000Z</time></trkpt>
<trkpt lat="42.221061" lon="23.583387"><ele>2245</ele><time>2026-04-05T13:18:23.000Z</time></trkpt>
<trkpt lat="42.22106" lon="23.583387"><ele>2245</ele><time>2026-04-05T13:18:24.000Z</time></trkpt>
<trkpt lat="42.22106" lon="23.583387"><ele>2245</ele><time>2026-04-05T13:18:25.000Z</time></trkpt>
<trkpt lat="42.22106" lon="23.583387"><ele>2245</ele><time>2026-04-05T13:18:26.000Z</time></trkpt>
<trkpt lat="42.221059" lon="23.583387"><ele>2245.4</ele><time>2026-04-05T13:18:27.000Z</time></trkpt>
<trkpt lat="42.221059" lon="23.583386"><ele>2245.4</ele><time>2026-04-05T13:18:28.000Z</time></trkpt>
<trkpt lat="42.221059" lon="23.583386"><ele>2245.4</ele><time>2026-04-05T13:18:29.000Z</time></trkpt>
<trkpt lat="42.22106" lon="23.583386"><ele>2245.4</ele><time>2026-04-05T13:18:30.000Z</time></trkpt>
<trkpt lat="42.22106" lon="23.583385"><ele>2245.4</ele><time>2026-04-05T13:18:31.000Z</time></trkpt>
<trkpt lat="42.22106" lon="23.583385"><ele>2245.6</ele><time>2026-04-05T13:18:32.000Z</time></trkpt>
<trkpt lat="42.22106" lon="23.583385"><ele>2245.6</ele><time>2026-04-05T13:18:33.000Z</time></trkpt>
<trkpt lat="42.22106" lon="23.583385"><ele>2245.6</ele><time>2026-04-05T13:18:34.000Z</time></trkpt>
<trkpt lat="42.22106" lon="23.583385"><ele>2245.6</ele><time>2026-04-05T13:18:35.000Z</time></trkpt>
<trkpt lat="42.22106" lon="23.583385"><ele>2245.6</ele><time>2026-04-05T13:18:36.000Z</time></trkpt>
<trkpt lat="42.22106" lon="23.583385"><ele>2245.6</ele><time>2026-04-05T13:18:37.000Z</time></trkpt>
<trkpt lat="42.22106" lon="23.583385"><ele>2245.6</ele><time>2026-04-05T13:18:38.000Z</time></trkpt>
<trkpt lat="42.22106" lon="23.583385"><ele>2245.6</ele><time>2026-04-05T13:18:39.000Z</time></trkpt>
<trkpt lat="42.22106" lon="23.583385"><ele>2245.6</ele><time>2026-04-05T13:18:40.000Z</time></trkpt>
<trkpt lat="42.22106" lon="23.583385"><ele>2245.6</ele><time>2026-04-05T13:18:41.000Z</time></trkpt>
<trkpt lat="42.22106" lon="23.583385"><ele>2245.5</ele><time>2026-04-05T13:18:42.000Z</time></trkpt>
<trkpt lat="42.22106" lon="23.583385"><ele>2245.5</ele><time>2026-04-05T13:18:43.000Z</time></trkpt>
<trkpt lat="42.22106" lon="23.583385"><ele>2245.5</ele><time>2026-04-05T13:18:44.000Z</time></trkpt>
<trkpt lat="42.22106" lon="23.583385"><ele>2245.5</ele><time>2026-04-05T13:18:45.000Z</time></trkpt>
<trkpt lat="42.22106" lon="23.583385"><ele>2245.5</ele><time>2026-04-05T13:18:46.000Z</time></trkpt>
<trkpt lat="42.22106" lon="23.583385"><ele>2245.4</ele><time>2026-04-05T13:18:47.000Z</time></trkpt>
<trkpt lat="42.22106" lon="23.583385"><ele>2245.4</ele><time>2026-04-05T13:18:48.000Z</time></trkpt>
<trkpt lat="42.221061" lon="23.583385"><ele>2245.4</ele><time>2026-04-05T13:18:49.000Z</time></trkpt>
<trkpt lat="42.221061" lon="23.583385"><ele>2245.4</ele><time>2026-04-05T13:18:50.000Z</time></trkpt>
<trkpt lat="42.221061" lon="23.583385"><ele>2245.4</ele><time>2026-04-05T13:18:51.000Z</time></trkpt>
<trkpt lat="42.221062" lon="23.583385"><ele>2245.4</ele><time>2026-04-05T13:18:52.000Z</time></trkpt>
<trkpt lat="42.221062" lon="23.583385"><ele>2245.4</ele><time>2026-04-05T13:18:53.000Z</time></trkpt>
<trkpt lat="42.221062" lon="23.583385"><ele>2245.4</ele><time>2026-04-05T13:18:54.000Z</time></trkpt>
<trkpt lat="42.221062" lon="23.583385"><ele>2245.4</ele><time>2026-04-05T13:18:55.000Z</time></trkpt>
<trkpt lat="42.221062" lon="23.583384"><ele>2245.4</ele><time>2026-04-05T13:18:56.000Z</time></trkpt>
<trkpt lat="42.221061" lon="23.583386"><ele>2245.5</ele><time>2026-04-05T13:18:57.000Z</time></trkpt>
<trkpt lat="42.22106" lon="23.583387"><ele>2245.5</ele><time>2026-04-05T13:18:58.000Z</time></trkpt>
<trkpt lat="42.22106" lon="23.583389"><ele>2245.5</ele><time>2026-04-05T13:18:59.000Z</time></trkpt>
<trkpt lat="42.221059" lon="23.58339"><ele>2245.5</ele><time>2026-04-05T13:19:00.000Z</time></trkpt>
<trkpt lat="42.221058" lon="23.583392"><ele>2245.5</ele><time>2026-04-05T13:19:01.000Z</time></trkpt>
<trkpt lat="42.221058" lon="23.583391"><ele>2245.6</ele><time>2026-04-05T13:19:02.000Z</time></trkpt>
<trkpt lat="42.221057" lon="23.583391"><ele>2245.6</ele><time>2026-04-05T13:19:03.000Z</time></trkpt>
<trkpt lat="42.221057" lon="23.58339"><ele>2245.6</ele><time>2026-04-05T13:19:04.000Z</time></trkpt>
<trkpt lat="42.221057" lon="23.58339"><ele>2245.6</ele><time>2026-04-05T13:19:05.000Z</time></trkpt>
<trkpt lat="42.221057" lon="23.58339"><ele>2245.6</ele><time>2026-04-05T13:19:06.000Z</time></trkpt>
<trkpt lat="42.221057" lon="23.58339"><ele>2245.6</ele><time>2026-04-05T13:19:07.000Z</time></trkpt>
<trkpt lat="42.221057" lon="23.58339"><ele>2245.6</ele><time>2026-04-05T13:19:08.000Z</time></trkpt>
<trkpt lat="42.221057" lon="23.58339"><ele>2245.6</ele><time>2026-04-05T13:19:09.000Z</time></trkpt>
<trkpt lat="42.221057" lon="23.58339"><ele>2245.6</ele><time>2026-04-05T13:19:10.000Z</time></trkpt>
<trkpt lat="42.221057" lon="23.58339"><ele>2245.6</ele><time>2026-04-05T13:19:11.000Z</time></trkpt>
<trkpt lat="42.221057" lon="23.58339"><ele>2245.6</ele><time>2026-04-05T13:19:12.000Z</time></trkpt>
<trkpt lat="42.221058" lon="23.583388"><ele>2245.6</ele><time>2026-04-05T13:19:13.000Z</time></trkpt>
<trkpt lat="42.221059" lon="23.583385"><ele>2245.6</ele><time>2026-04-05T13:19:14.000Z</time></trkpt>
<trkpt lat="42.22106" lon="23.583381"><ele>2245.6</ele><time>2026-04-05T13:19:15.000Z</time></trkpt>
<trkpt lat="42.221063" lon="23.583374"><ele>2245.6</ele><time>2026-04-05T13:19:16.000Z</time></trkpt>
<trkpt lat="42.221065" lon="23.583365"><ele>2245.3</ele><time>2026-04-05T13:19:17.000Z</time></trkpt>
<trkpt lat="42.221068" lon="23.583357"><ele>2245.3</ele><time>2026-04-05T13:19:18.000Z</time></trkpt>
<trkpt lat="42.221071" lon="23.583348"><ele>2245.3</ele><time>2026-04-05T13:19:19.000Z</time></trkpt>
<trkpt lat="42.221073" lon="23.583338"><ele>2245.3</ele><time>2026-04-05T13:19:20.000Z</time></trkpt>
<trkpt lat="42.221076" lon="23.58333"><ele>2245.3</ele><time>2026-04-05T13:19:21.000Z</time></trkpt>
<trkpt lat="42.221078" lon="23.583321"><ele>2245.2</ele><time>2026-04-05T13:19:22.000Z</time></trkpt>
<trkpt lat="42.22108" lon="23.583312"><ele>2245.2</ele><time>2026-04-05T13:19:23.000Z</time></trkpt>
<trkpt lat="42.221081" lon="23.583303"><ele>2245.2</ele><time>2026-04-05T13:19:24.000Z</time></trkpt>
<trkpt lat="42.221083" lon="23.583294"><ele>2245.2</ele><time>2026-04-05T13:19:25.000Z</time></trkpt>
<trkpt lat="42.221085" lon="23.583285"><ele>2245.2</ele><time>2026-04-05T13:19:26.000Z</time></trkpt>
<trkpt lat="42.221088" lon="23.583275"><ele>2245.2</ele><time>2026-04-05T13:19:27.000Z</time></trkpt>
<trkpt lat="42.22109" lon="23.583266"><ele>2245.2</ele><time>2026-04-05T13:19:28.000Z</time></trkpt>
<trkpt lat="42.221093" lon="23.583257"><ele>2245.2</ele><time>2026-04-05T13:19:29.000Z</time></trkpt>
<trkpt lat="42.221095" lon="23.583247"><ele>2245.2</ele><time>2026-04-05T13:19:30.000Z</time></trkpt>
<trkpt lat="42.221097" lon="23.583238"><ele>2245.2</ele><time>2026-04-05T13:19:31.000Z</time></trkpt>
<trkpt lat="42.2211" lon="23.583228"><ele>2245.6</ele><time>2026-04-05T13:19:32.000Z</time></trkpt>
<trkpt lat="42.221103" lon="23.583218"><ele>2245.6</ele><time>2026-04-05T13:19:33.000Z</time></trkpt>
<trkpt lat="42.221106" lon="23.583208"><ele>2245.6</ele><time>2026-04-05T13:19:34.000Z</time></trkpt>
<trkpt lat="42.221108" lon="23.583198"><ele>2245.6</ele><time>2026-04-05T13:19:35.000Z</time></trkpt>
<trkpt lat="42.22111" lon="23.583187"><ele>2245.6</ele><time>2026-04-05T13:19:36.000Z</time></trkpt>
<trkpt lat="42.221111" lon="23.583175"><ele>2245.9</ele><time>2026-04-05T13:19:37.000Z</time></trkpt>
<trkpt lat="42.221113" lon="23.583164"><ele>2245.9</ele><time>2026-04-05T13:19:38.000Z</time></trkpt>
<trkpt lat="42.221115" lon="23.583152"><ele>2245.9</ele><time>2026-04-05T13:19:39.000Z</time></trkpt>
<trkpt lat="42.221117" lon="23.583141"><ele>2245.9</ele><time>2026-04-05T13:19:40.000Z</time></trkpt>
<trkpt lat="42.221119" lon="23.58313"><ele>2245.9</ele><time>2026-04-05T13:19:41.000Z</time></trkpt>
<trkpt lat="42.221121" lon="23.583119"><ele>2246.5</ele><time>2026-04-05T13:19:42.000Z</time></trkpt>
<trkpt lat="42.221123" lon="23.583109"><ele>2246.5</ele><time>2026-04-05T13:19:43.000Z</time></trkpt>
<trkpt lat="42.221125" lon="23.583099"><ele>2246.5</ele><time>2026-04-05T13:19:44.000Z</time></trkpt>
<trkpt lat="42.221127" lon="23.58309"><ele>2246.5</ele><time>2026-04-05T13:19:45.000Z</time></trkpt>
<trkpt lat="42.221129" lon="23.58308"><ele>2246.5</ele><time>2026-04-05T13:19:46.000Z</time></trkpt>
<trkpt lat="42.22113" lon="23.58307"><ele>2247.3</ele><time>2026-04-05T13:19:47.000Z</time></trkpt>
<trkpt lat="42.221132" lon="23.583061"><ele>2247.3</ele><time>2026-04-05T13:19:48.000Z</time></trkpt>
<trkpt lat="42.221133" lon="23.583051"><ele>2247.3</ele><time>2026-04-05T13:19:49.000Z</time></trkpt>
<trkpt lat="42.221135" lon="23.58304"><ele>2247.3</ele><time>2026-04-05T13:19:50.000Z</time></trkpt>
<trkpt lat="42.221137" lon="23.583029"><ele>2247.3</ele><time>2026-04-05T13:19:51.000Z</time></trkpt>
<trkpt lat="42.221139" lon="23.583021"><ele>2247.7</ele><time>2026-04-05T13:19:52.000Z</time></trkpt>
<trkpt lat="42.221142" lon="23.583013"><ele>2247.7</ele><time>2026-04-05T13:19:53.000Z</time></trkpt>
<trkpt lat="42.221147" lon="23.583006"><ele>2247.7</ele><time>2026-04-05T13:19:54.000Z</time></trkpt>
<trkpt lat="42.221151" lon="23.583002"><ele>2247.7</ele><time>2026-04-05T13:19:55.000Z</time></trkpt>
<trkpt lat="42.221156" lon="23.582999"><ele>2247.7</ele><time>2026-04-05T13:19:56.000Z</time></trkpt>
<trkpt lat="42.22116" lon="23.582995"><ele>2248.5</ele><time>2026-04-05T13:19:57.000Z</time></trkpt>
<trkpt lat="42.221163" lon="23.582993"><ele>2248.5</ele><time>2026-04-05T13:19:58.000Z</time></trkpt>
<trkpt lat="42.221165" lon="23.58299"><ele>2248.5</ele><time>2026-04-05T13:19:59.000Z</time></trkpt>
<trkpt lat="42.221165" lon="23.582988"><ele>2248.5</ele><time>2026-04-05T13:20:00.000Z</time></trkpt>
<trkpt lat="42.221165" lon="23.582987"><ele>2248.5</ele><time>2026-04-05T13:20:01.000Z</time></trkpt>
<trkpt lat="42.221164" lon="23.582986"><ele>2249.2</ele><time>2026-04-05T13:20:02.000Z</time></trkpt>
<trkpt lat="42.221164" lon="23.582983"><ele>2249.2</ele><time>2026-04-05T13:20:03.000Z</time></trkpt>
<trkpt lat="42.221164" lon="23.58298"><ele>2249.2</ele><time>2026-04-05T13:20:04.000Z</time></trkpt>
<trkpt lat="42.221163" lon="23.582975"><ele>2249.2</ele><time>2026-04-05T13:20:05.000Z</time></trkpt>
<trkpt lat="42.221164" lon="23.582969"><ele>2249.2</ele><time>2026-04-05T13:20:06.000Z</time></trkpt>
<trkpt lat="42.221164" lon="23.582963"><ele>2249.5</ele><time>2026-04-05T13:20:07.000Z</time></trkpt>
<trkpt lat="42.221165" lon="23.582954"><ele>2249.5</ele><time>2026-04-05T13:20:08.000Z</time></trkpt>
<trkpt lat="42.221167" lon="23.582946"><ele>2249.5</ele><time>2026-04-05T13:20:09.000Z</time></trkpt>
<trkpt lat="42.221169" lon="23.582939"><ele>2249.5</ele><time>2026-04-05T13:20:10.000Z</time></trkpt>
<trkpt lat="42.221171" lon="23.582932"><ele>2249.5</ele><time>2026-04-05T13:20:11.000Z</time></trkpt>
<trkpt lat="42.221173" lon="23.582924"><ele>2250</ele><time>2026-04-05T13:20:12.000Z</time></trkpt>
<trkpt lat="42.221174" lon="23.582917"><ele>2250</ele><time>2026-04-05T13:20:13.000Z</time></trkpt>
<trkpt lat="42.221174" lon="23.582909"><ele>2250</ele><time>2026-04-05T13:20:14.000Z</time></trkpt>
<trkpt lat="42.221175" lon="23.582899"><ele>2250</ele><time>2026-04-05T13:20:15.000Z</time></trkpt>
<trkpt lat="42.221174" lon="23.582891"><ele>2250</ele><time>2026-04-05T13:20:16.000Z</time></trkpt>
<trkpt lat="42.221174" lon="23.582883"><ele>2250.4</ele><time>2026-04-05T13:20:17.000Z</time></trkpt>
<trkpt lat="42.221173" lon="23.582874"><ele>2250.4</ele><time>2026-04-05T13:20:18.000Z</time></trkpt>
<trkpt lat="42.221172" lon="23.582866"><ele>2250.4</ele><time>2026-04-05T13:20:19.000Z</time></trkpt>
<trkpt lat="42.221171" lon="23.582858"><ele>2250.4</ele><time>2026-04-05T13:20:20.000Z</time></trkpt>
<trkpt lat="42.22117" lon="23.58285"><ele>2250.4</ele><time>2026-04-05T13:20:21.000Z</time></trkpt>
<trkpt lat="42.22117" lon="23.58284"><ele>2250.6</ele><time>2026-04-05T13:20:22.000Z</time></trkpt>
<trkpt lat="42.221169" lon="23.582831"><ele>2250.6</ele><time>2026-04-05T13:20:23.000Z</time></trkpt>
<trkpt lat="42.221168" lon="23.582823"><ele>2250.6</ele><time>2026-04-05T13:20:24.000Z</time></trkpt>
<trkpt lat="42.221168" lon="23.582814"><ele>2250.6</ele><time>2026-04-05T13:20:25.000Z</time></trkpt>
<trkpt lat="42.221169" lon="23.582805"><ele>2250.6</ele><time>2026-04-05T13:20:26.000Z</time></trkpt>
<trkpt lat="42.22117" lon="23.582798"><ele>2251.2</ele><time>2026-04-05T13:20:27.000Z</time></trkpt>
<trkpt lat="42.221171" lon="23.582791"><ele>2251.2</ele><time>2026-04-05T13:20:28.000Z</time></trkpt>
<trkpt lat="42.221173" lon="23.582781"><ele>2251.2</ele><time>2026-04-05T13:20:29.000Z</time></trkpt>
<trkpt lat="42.221174" lon="23.582773"><ele>2251.2</ele><time>2026-04-05T13:20:30.000Z</time></trkpt>
<trkpt lat="42.221176" lon="23.582764"><ele>2251.2</ele><time>2026-04-05T13:20:31.000Z</time></trkpt>
<trkpt lat="42.221177" lon="23.582754"><ele>2251.8</ele><time>2026-04-05T13:20:32.000Z</time></trkpt>
<trkpt lat="42.22118" lon="23.582744"><ele>2251.8</ele><time>2026-04-05T13:20:33.000Z</time></trkpt>
<trkpt lat="42.221181" lon="23.582736"><ele>2251.8</ele><time>2026-04-05T13:20:34.000Z</time></trkpt>
<trkpt lat="42.221183" lon="23.582727"><ele>2251.8</ele><time>2026-04-05T13:20:35.000Z</time></trkpt>
<trkpt lat="42.221186" lon="23.582718"><ele>2251.8</ele><time>2026-04-05T13:20:36.000Z</time></trkpt>
<trkpt lat="42.221187" lon="23.582708"><ele>2252.2</ele><time>2026-04-05T13:20:37.000Z</time></trkpt>
<trkpt lat="42.221188" lon="23.582699"><ele>2252.2</ele><time>2026-04-05T13:20:38.000Z</time></trkpt>
<trkpt lat="42.221189" lon="23.58269"><ele>2252.2</ele><time>2026-04-05T13:20:39.000Z</time></trkpt>
<trkpt lat="42.221189" lon="23.582679"><ele>2252.2</ele><time>2026-04-05T13:20:40.000Z</time></trkpt>
<trkpt lat="42.221188" lon="23.58267"><ele>2252.2</ele><time>2026-04-05T13:20:41.000Z</time></trkpt>
<trkpt lat="42.221187" lon="23.582661"><ele>2252.9</ele><time>2026-04-05T13:20:42.000Z</time></trkpt>
<trkpt lat="42.221185" lon="23.58265"><ele>2252.9</ele><time>2026-04-05T13:20:43.000Z</time></trkpt>
<trkpt lat="42.221183" lon="23.58264"><ele>2252.9</ele><time>2026-04-05T13:20:44.000Z</time></trkpt>
<trkpt lat="42.221182" lon="23.58263"><ele>2252.9</ele><time>2026-04-05T13:20:45.000Z</time></trkpt>
<trkpt lat="42.22118" lon="23.582619"><ele>2252.9</ele><time>2026-04-05T13:20:46.000Z</time></trkpt>
<trkpt lat="42.221179" lon="23.582609"><ele>2253.6</ele><time>2026-04-05T13:20:47.000Z</time></trkpt>
<trkpt lat="42.221179" lon="23.582601"><ele>2253.6</ele><time>2026-04-05T13:20:48.000Z</time></trkpt>
<trkpt lat="42.221178" lon="23.582593"><ele>2253.6</ele><time>2026-04-05T13:20:49.000Z</time></trkpt>
<trkpt lat="42.221177" lon="23.582585"><ele>2253.6</ele><time>2026-04-05T13:20:50.000Z</time></trkpt>
<trkpt lat="42.221176" lon="23.582579"><ele>2253.6</ele><time>2026-04-05T13:20:51.000Z</time></trkpt>
<trkpt lat="42.221175" lon="23.582572"><ele>2253.9</ele><time>2026-04-05T13:20:52.000Z</time></trkpt>
<trkpt lat="42.221173" lon="23.582566"><ele>2253.9</ele><time>2026-04-05T13:20:53.000Z</time></trkpt>
<trkpt lat="42.221172" lon="23.582561"><ele>2253.9</ele><time>2026-04-05T13:20:54.000Z</time></trkpt>
<trkpt lat="42.22117" lon="23.582554"><ele>2253.9</ele><time>2026-04-05T13:20:55.000Z</time></trkpt>
<trkpt lat="42.221168" lon="23.582546"><ele>2253.9</ele><time>2026-04-05T13:20:56.000Z</time></trkpt>
<trkpt lat="42.221167" lon="23.58254"><ele>2254.6</ele><time>2026-04-05T13:20:57.000Z</time></trkpt>
<trkpt lat="42.221165" lon="23.582533"><ele>2254.6</ele><time>2026-04-05T13:20:58.000Z</time></trkpt>
<trkpt lat="42.221163" lon="23.582525"><ele>2254.6</ele><time>2026-04-05T13:20:59.000Z</time></trkpt>
<trkpt lat="42.221161" lon="23.582518"><ele>2254.6</ele><time>2026-04-05T13:21:00.000Z</time></trkpt>
<trkpt lat="42.221159" lon="23.582511"><ele>2254.6</ele><time>2026-04-05T13:21:01.000Z</time></trkpt>
<trkpt lat="42.221156" lon="23.582503"><ele>2255.4</ele><time>2026-04-05T13:21:02.000Z</time></trkpt>
<trkpt lat="42.221154" lon="23.582496"><ele>2255.4</ele><time>2026-04-05T13:21:03.000Z</time></trkpt>
<trkpt lat="42.221153" lon="23.582489"><ele>2255.4</ele><time>2026-04-05T13:21:04.000Z</time></trkpt>
<trkpt lat="42.221151" lon="23.582481"><ele>2255.4</ele><time>2026-04-05T13:21:05.000Z</time></trkpt>
<trkpt lat="42.221148" lon="23.582474"><ele>2255.4</ele><time>2026-04-05T13:21:06.000Z</time></trkpt>
<trkpt lat="42.221147" lon="23.582467"><ele>2255.9</ele><time>2026-04-05T13:21:07.000Z</time></trkpt>
<trkpt lat="42.221145" lon="23.582459"><ele>2255.9</ele><time>2026-04-05T13:21:08.000Z</time></trkpt>
<trkpt lat="42.221143" lon="23.582451"><ele>2255.9</ele><time>2026-04-05T13:21:09.000Z</time></trkpt>
<trkpt lat="42.221142" lon="23.582444"><ele>2255.9</ele><time>2026-04-05T13:21:10.000Z</time></trkpt>
<trkpt lat="42.22114" lon="23.582437"><ele>2255.9</ele><time>2026-04-05T13:21:11.000Z</time></trkpt>
<trkpt lat="42.221138" lon="23.58243"><ele>2257.2</ele><time>2026-04-05T13:21:12.000Z</time></trkpt>
<trkpt lat="42.221137" lon="23.582424"><ele>2257.2</ele><time>2026-04-05T13:21:13.000Z</time></trkpt>
<trkpt lat="42.221135" lon="23.582417"><ele>2257.2</ele><time>2026-04-05T13:21:14.000Z</time></trkpt>
<trkpt lat="42.221134" lon="23.582411"><ele>2257.2</ele><time>2026-04-05T13:21:15.000Z</time></trkpt>
<trkpt lat="42.221132" lon="23.582405"><ele>2257.2</ele><time>2026-04-05T13:21:16.000Z</time></trkpt>
<trkpt lat="42.22113" lon="23.582398"><ele>2258.6</ele><time>2026-04-05T13:21:17.000Z</time></trkpt>
<trkpt lat="42.221128" lon="23.582391"><ele>2258.6</ele><time>2026-04-05T13:21:18.000Z</time></trkpt>
<trkpt lat="42.221126" lon="23.582384"><ele>2258.6</ele><time>2026-04-05T13:21:19.000Z</time></trkpt>
<trkpt lat="42.221124" lon="23.582375"><ele>2258.6</ele><time>2026-04-05T13:21:20.000Z</time></trkpt>
<trkpt lat="42.221123" lon="23.582367"><ele>2258.6</ele><time>2026-04-05T13:21:21.000Z</time></trkpt>
<trkpt lat="42.22112" lon="23.582358"><ele>2259.2</ele><time>2026-04-05T13:21:22.000Z</time></trkpt>
<trkpt lat="42.221117" lon="23.582349"><ele>2259.2</ele><time>2026-04-05T13:21:23.000Z</time></trkpt>
<trkpt lat="42.221115" lon="23.582342"><ele>2259.2</ele><time>2026-04-05T13:21:24.000Z</time></trkpt>
<trkpt lat="42.221112" lon="23.582334"><ele>2259.2</ele><time>2026-04-05T13:21:25.000Z</time></trkpt>
<trkpt lat="42.221108" lon="23.582328"><ele>2259.2</ele><time>2026-04-05T13:21:26.000Z</time></trkpt>
<trkpt lat="42.221106" lon="23.582322"><ele>2260.3</ele><time>2026-04-05T13:21:27.000Z</time></trkpt>
<trkpt lat="42.221105" lon="23.582316"><ele>2260.3</ele><time>2026-04-05T13:21:28.000Z</time></trkpt>
<trkpt lat="42.221103" lon="23.582309"><ele>2260.3</ele><time>2026-04-05T13:21:29.000Z</time></trkpt>
<trkpt lat="42.221102" lon="23.582303"><ele>2260.3</ele><time>2026-04-05T13:21:30.000Z</time></trkpt>
<trkpt lat="42.221102" lon="23.582297"><ele>2260.3</ele><time>2026-04-05T13:21:31.000Z</time></trkpt>
<trkpt lat="42.221101" lon="23.582292"><ele>2261.1</ele><time>2026-04-05T13:21:32.000Z</time></trkpt>
<trkpt lat="42.221101" lon="23.58229"><ele>2261.1</ele><time>2026-04-05T13:21:33.000Z</time></trkpt>
<trkpt lat="42.221102" lon="23.582287"><ele>2261.1</ele><time>2026-04-05T13:21:34.000Z</time></trkpt>
<trkpt lat="42.221102" lon="23.582287"><ele>2261.1</ele><time>2026-04-05T13:21:35.000Z</time></trkpt>
<trkpt lat="42.221101" lon="23.582287"><ele>2261.1</ele><time>2026-04-05T13:21:36.000Z</time></trkpt>
<trkpt lat="42.221102" lon="23.582285"><ele>2261.5</ele><time>2026-04-05T13:21:37.000Z</time></trkpt>
<trkpt lat="42.221102" lon="23.582282"><ele>2261.5</ele><time>2026-04-05T13:21:38.000Z</time></trkpt>
<trkpt lat="42.221101" lon="23.582279"><ele>2261.5</ele><time>2026-04-05T13:21:39.000Z</time></trkpt>
<trkpt lat="42.221101" lon="23.582275"><ele>2261.5</ele><time>2026-04-05T13:21:40.000Z</time></trkpt>
<trkpt lat="42.221101" lon="23.582271"><ele>2261.5</ele><time>2026-04-05T13:21:41.000Z</time></trkpt>
<trkpt lat="42.221102" lon="23.582267"><ele>2262.3</ele><time>2026-04-05T13:21:42.000Z</time></trkpt>
<trkpt lat="42.221103" lon="23.582267"><ele>2262.3</ele><time>2026-04-05T13:21:43.000Z</time></trkpt>
<trkpt lat="42.221104" lon="23.582266"><ele>2262.3</ele><time>2026-04-05T13:21:44.000Z</time></trkpt>
<trkpt lat="42.221104" lon="23.582266"><ele>2262.3</ele><time>2026-04-05T13:21:45.000Z</time></trkpt>
<trkpt lat="42.221104" lon="23.582265"><ele>2262.3</ele><time>2026-04-05T13:21:46.000Z</time></trkpt>
<trkpt lat="42.221103" lon="23.582265"><ele>2262.7</ele><time>2026-04-05T13:21:47.000Z</time></trkpt>
<trkpt lat="42.221102" lon="23.582265"><ele>2262.7</ele><time>2026-04-05T13:21:48.000Z</time></trkpt>
<trkpt lat="42.221102" lon="23.582264"><ele>2262.7</ele><time>2026-04-05T13:21:49.000Z</time></trkpt>
<trkpt lat="42.221101" lon="23.582263"><ele>2262.7</ele><time>2026-04-05T13:21:50.000Z</time></trkpt>
<trkpt lat="42.221101" lon="23.582263"><ele>2262.7</ele><time>2026-04-05T13:21:51.000Z</time></trkpt>
<trkpt lat="42.221101" lon="23.582263"><ele>2262.8</ele><time>2026-04-05T13:21:52.000Z</time></trkpt>
<trkpt lat="42.221101" lon="23.582263"><ele>2262.8</ele><time>2026-04-05T13:21:53.000Z</time></trkpt>
<trkpt lat="42.221101" lon="23.582263"><ele>2262.8</ele><time>2026-04-05T13:21:54.000Z</time></trkpt>
<trkpt lat="42.221101" lon="23.582263"><ele>2262.8</ele><time>2026-04-05T13:21:55.000Z</time></trkpt>
<trkpt lat="42.221102" lon="23.582263"><ele>2262.8</ele><time>2026-04-05T13:21:56.000Z</time></trkpt>
<trkpt lat="42.221102" lon="23.582263"><ele>2263</ele><time>2026-04-05T13:21:57.000Z</time></trkpt>
<trkpt lat="42.221103" lon="23.582263"><ele>2263</ele><time>2026-04-05T13:21:58.000Z</time></trkpt>
<trkpt lat="42.221103" lon="23.582263"><ele>2263</ele><time>2026-04-05T13:21:59.000Z</time></trkpt>
<trkpt lat="42.221103" lon="23.582263"><ele>2263</ele><time>2026-04-05T13:22:00.000Z</time></trkpt>
<trkpt lat="42.221103" lon="23.582262"><ele>2263</ele><time>2026-04-05T13:22:01.000Z</time></trkpt>
<trkpt lat="42.221103" lon="23.582262"><ele>2263.1</ele><time>2026-04-05T13:22:02.000Z</time></trkpt>
<trkpt lat="42.221103" lon="23.582261"><ele>2263.1</ele><time>2026-04-05T13:22:03.000Z</time></trkpt>
<trkpt lat="42.221103" lon="23.582261"><ele>2263.1</ele><time>2026-04-05T13:22:04.000Z</time></trkpt>
<trkpt lat="42.221103" lon="23.582261"><ele>2263.1</ele><time>2026-04-05T13:22:05.000Z</time></trkpt>
<trkpt lat="42.221103" lon="23.582261"><ele>2263.1</ele><time>2026-04-05T13:22:06.000Z</time></trkpt>
<trkpt lat="42.221103" lon="23.582261"><ele>2263.1</ele><time>2026-04-05T13:22:07.000Z</time></trkpt>
<trkpt lat="42.221103" lon="23.58226"><ele>2263.1</ele><time>2026-04-05T13:22:08.000Z</time></trkpt>
<trkpt lat="42.221103" lon="23.58226"><ele>2263.1</ele><time>2026-04-05T13:22:09.000Z</time></trkpt>
<trkpt lat="42.221103" lon="23.582259"><ele>2263.1</ele><time>2026-04-05T13:22:10.000Z</time></trkpt>
<trkpt lat="42.221103" lon="23.582258"><ele>2263.1</ele><time>2026-04-05T13:22:11.000Z</time></trkpt>
<trkpt lat="42.221103" lon="23.582257"><ele>2263</ele><time>2026-04-05T13:22:12.000Z</time></trkpt>
<trkpt lat="42.221103" lon="23.582256"><ele>2263</ele><time>2026-04-05T13:22:13.000Z</time></trkpt>
<trkpt lat="42.221103" lon="23.582256"><ele>2263</ele><time>2026-04-05T13:22:14.000Z</time></trkpt>
<trkpt lat="42.221102" lon="23.582256"><ele>2263</ele><time>2026-04-05T13:22:15.000Z</time></trkpt>
<trkpt lat="42.221102" lon="23.582256"><ele>2263</ele><time>2026-04-05T13:22:16.000Z</time></trkpt>
<trkpt lat="42.221102" lon="23.582256"><ele>2262.9</ele><time>2026-04-05T13:22:17.000Z</time></trkpt>
<trkpt lat="42.221102" lon="23.582256"><ele>2262.9</ele><time>2026-04-05T13:22:18.000Z</time></trkpt>
<trkpt lat="42.221101" lon="23.582256"><ele>2262.9</ele><time>2026-04-05T13:22:19.000Z</time></trkpt>
<trkpt lat="42.221101" lon="23.582256"><ele>2262.9</ele><time>2026-04-05T13:22:20.000Z</time></trkpt>
<trkpt lat="42.2211" lon="23.582257"><ele>2262.9</ele><time>2026-04-05T13:22:21.000Z</time></trkpt>
<trkpt lat="42.2211" lon="23.582258"><ele>2262.9</ele><time>2026-04-05T13:22:22.000Z</time></trkpt>
<trkpt lat="42.2211" lon="23.582259"><ele>2262.9</ele><time>2026-04-05T13:22:23.000Z</time></trkpt>
<trkpt lat="42.2211" lon="23.582261"><ele>2262.9</ele><time>2026-04-05T13:22:24.000Z</time></trkpt>
<trkpt lat="42.221101" lon="23.582262"><ele>2262.9</ele><time>2026-04-05T13:22:25.000Z</time></trkpt>
<trkpt lat="42.221101" lon="23.582262"><ele>2262.9</ele><time>2026-04-05T13:22:26.000Z</time></trkpt>
<trkpt lat="42.221101" lon="23.582262"><ele>2263</ele><time>2026-04-05T13:22:27.000Z</time></trkpt>
<trkpt lat="42.2211" lon="23.582262"><ele>2263</ele><time>2026-04-05T13:22:28.000Z</time></trkpt>
<trkpt lat="42.2211" lon="23.582262"><ele>2263</ele><time>2026-04-05T13:22:29.000Z</time></trkpt>
<trkpt lat="42.221099" lon="23.582262"><ele>2263</ele><time>2026-04-05T13:22:30.000Z</time></trkpt>
<trkpt lat="42.221099" lon="23.582262"><ele>2263</ele><time>2026-04-05T13:22:31.000Z</time></trkpt>
<trkpt lat="42.221098" lon="23.582262"><ele>2263.1</ele><time>2026-04-05T13:22:32.000Z</time></trkpt>
<trkpt lat="42.221097" lon="23.582261"><ele>2263.1</ele><time>2026-04-05T13:22:33.000Z</time></trkpt>
<trkpt lat="42.221097" lon="23.582261"><ele>2263.1</ele><time>2026-04-05T13:22:34.000Z</time></trkpt>
<trkpt lat="42.221097" lon="23.582261"><ele>2263.1</ele><time>2026-04-05T13:22:35.000Z</time></trkpt>
<trkpt lat="42.221097" lon="23.582261"><ele>2263.1</ele><time>2026-04-05T13:22:36.000Z</time></trkpt>
<trkpt lat="42.221097" lon="23.582261"><ele>2263.1</ele><time>2026-04-05T13:22:37.000Z</time></trkpt>
<trkpt lat="42.221097" lon="23.582261"><ele>2263.1</ele><time>2026-04-05T13:22:38.000Z</time></trkpt>
<trkpt lat="42.221096" lon="23.582261"><ele>2263.1</ele><time>2026-04-05T13:22:39.000Z</time></trkpt>
<trkpt lat="42.221096" lon="23.582261"><ele>2263.1</ele><time>2026-04-05T13:22:40.000Z</time></trkpt>
<trkpt lat="42.221096" lon="23.58226"><ele>2263.1</ele><time>2026-04-05T13:22:41.000Z</time></trkpt>
<trkpt lat="42.221095" lon="23.58226"><ele>2263</ele><time>2026-04-05T13:22:42.000Z</time></trkpt>
<trkpt lat="42.221095" lon="23.582261"><ele>2263</ele><time>2026-04-05T13:22:43.000Z</time></trkpt>
<trkpt lat="42.221095" lon="23.582261"><ele>2263</ele><time>2026-04-05T13:22:44.000Z</time></trkpt>
<trkpt lat="42.221095" lon="23.582262"><ele>2263</ele><time>2026-04-05T13:22:45.000Z</time></trkpt>
<trkpt lat="42.221094" lon="23.582262"><ele>2263</ele><time>2026-04-05T13:22:46.000Z</time></trkpt>
<trkpt lat="42.221094" lon="23.582262"><ele>2263</ele><time>2026-04-05T13:22:47.000Z</time></trkpt>
<trkpt lat="42.221094" lon="23.582262"><ele>2263</ele><time>2026-04-05T13:22:48.000Z</time></trkpt>
<trkpt lat="42.221094" lon="23.582262"><ele>2263</ele><time>2026-04-05T13:22:49.000Z</time></trkpt>
<trkpt lat="42.221094" lon="23.582262"><ele>2263</ele><time>2026-04-05T13:22:50.000Z</time></trkpt>
<trkpt lat="42.221094" lon="23.582262"><ele>2263</ele><time>2026-04-05T13:22:51.000Z</time></trkpt>
<trkpt lat="42.221093" lon="23.582262"><ele>2263.1</ele><time>2026-04-05T13:22:52.000Z</time></trkpt>
<trkpt lat="42.221093" lon="23.582262"><ele>2263.1</ele><time>2026-04-05T13:22:53.000Z</time></trkpt>
<trkpt lat="42.221093" lon="23.582262"><ele>2263.1</ele><time>2026-04-05T13:22:54.000Z</time></trkpt>
<trkpt lat="42.221093" lon="23.582262"><ele>2263.1</ele><time>2026-04-05T13:22:55.000Z</time></trkpt>
<trkpt lat="42.221093" lon="23.582262"><ele>2263.1</ele><time>2026-04-05T13:22:56.000Z</time></trkpt>
<trkpt lat="42.221093" lon="23.582262"><ele>2263.2</ele><time>2026-04-05T13:22:57.000Z</time></trkpt>
<trkpt lat="42.221094" lon="23.582262"><ele>2263.2</ele><time>2026-04-05T13:22:58.000Z</time></trkpt>
<trkpt lat="42.221094" lon="23.582262"><ele>2263.2</ele><time>2026-04-05T13:22:59.000Z</time></trkpt>
<trkpt lat="42.221095" lon="23.582262"><ele>2263.2</ele><time>2026-04-05T13:23:00.000Z</time></trkpt>
<trkpt lat="42.221095" lon="23.582262"><ele>2263.2</ele><time>2026-04-05T13:23:01.000Z</time></trkpt>
<trkpt lat="42.221095" lon="23.582262"><ele>2263.2</ele><time>2026-04-05T13:23:02.000Z</time></trkpt>
<trkpt lat="42.221095" lon="23.582262"><ele>2263.2</ele><time>2026-04-05T13:23:03.000Z</time></trkpt>
<trkpt lat="42.221095" lon="23.582262"><ele>2263.2</ele><time>2026-04-05T13:23:04.000Z</time></trkpt>
<trkpt lat="42.221095" lon="23.582262"><ele>2263.2</ele><time>2026-04-05T13:23:05.000Z</time></trkpt>
<trkpt lat="42.221095" lon="23.582262"><ele>2263.2</ele><time>2026-04-05T13:23:06.000Z</time></trkpt>
<trkpt lat="42.221095" lon="23.582262"><ele>2263.1</ele><time>2026-04-05T13:23:07.000Z</time></trkpt>
<trkpt lat="42.221095" lon="23.582262"><ele>2263.1</ele><time>2026-04-05T13:23:08.000Z</time></trkpt>
<trkpt lat="42.221095" lon="23.582262"><ele>2263.1</ele><time>2026-04-05T13:23:09.000Z</time></trkpt>
<trkpt lat="42.221095" lon="23.582262"><ele>2263.1</ele><time>2026-04-05T13:23:10.000Z</time></trkpt>
<trkpt lat="42.221095" lon="23.582262"><ele>2263.1</ele><time>2026-04-05T13:23:11.000Z</time></trkpt>
<trkpt lat="42.221095" lon="23.582262"><ele>2263</ele><time>2026-04-05T13:23:12.000Z</time></trkpt>
<trkpt lat="42.221095" lon="23.582262"><ele>2263</ele><time>2026-04-05T13:23:13.000Z</time></trkpt>
<trkpt lat="42.221095" lon="23.582262"><ele>2263</ele><time>2026-04-05T13:23:14.000Z</time></trkpt>
<trkpt lat="42.221095" lon="23.582263"><ele>2263</ele><time>2026-04-05T13:23:15.000Z</time></trkpt>
<trkpt lat="42.221094" lon="23.582263"><ele>2263</ele><time>2026-04-05T13:23:16.000Z</time></trkpt>
<trkpt lat="42.221093" lon="23.582264"><ele>2262.9</ele><time>2026-04-05T13:23:17.000Z</time></trkpt>
<trkpt lat="42.221092" lon="23.582264"><ele>2262.9</ele><time>2026-04-05T13:23:18.000Z</time></trkpt>
<trkpt lat="42.221091" lon="23.582264"><ele>2262.9</ele><time>2026-04-05T13:23:19.000Z</time></trkpt>
<trkpt lat="42.22109" lon="23.582263"><ele>2262.9</ele><time>2026-04-05T13:23:20.000Z</time></trkpt>
<trkpt lat="42.22109" lon="23.582263"><ele>2262.9</ele><time>2026-04-05T13:23:21.000Z</time></trkpt>
<trkpt lat="42.221089" lon="23.582263"><ele>2262.9</ele><time>2026-04-05T13:23:22.000Z</time></trkpt>
<trkpt lat="42.221089" lon="23.582263"><ele>2262.9</ele><time>2026-04-05T13:23:23.000Z</time></trkpt>
<trkpt lat="42.221089" lon="23.582262"><ele>2262.9</ele><time>2026-04-05T13:23:24.000Z</time></trkpt>
<trkpt lat="42.221089" lon="23.582262"><ele>2262.9</ele><time>2026-04-05T13:23:25.000Z</time></trkpt>
<trkpt lat="42.221089" lon="23.582262"><ele>2262.9</ele><time>2026-04-05T13:23:26.000Z</time></trkpt>
<trkpt lat="42.221089" lon="23.582262"><ele>2262.9</ele><time>2026-04-05T13:23:27.000Z</time></trkpt>
<trkpt lat="42.221089" lon="23.582262"><ele>2262.9</ele><time>2026-04-05T13:23:28.000Z</time></trkpt>
<trkpt lat="42.221089" lon="23.582262"><ele>2262.9</ele><time>2026-04-05T13:23:29.000Z</time></trkpt>
<trkpt lat="42.22109" lon="23.582261"><ele>2262.9</ele><time>2026-04-05T13:23:30.000Z</time></trkpt>
<trkpt lat="42.22109" lon="23.582261"><ele>2262.9</ele><time>2026-04-05T13:23:31.000Z</time></trkpt>
<trkpt lat="42.22109" lon="23.582261"><ele>2262.9</ele><time>2026-04-05T13:23:32.000Z</time></trkpt>
<trkpt lat="42.22109" lon="23.582261"><ele>2262.9</ele><time>2026-04-05T13:23:33.000Z</time></trkpt>
<trkpt lat="42.22109" lon="23.582261"><ele>2262.9</ele><time>2026-04-05T13:23:34.000Z</time></trkpt>
<trkpt lat="42.22109" lon="23.582262"><ele>2262.9</ele><time>2026-04-05T13:23:35.000Z</time></trkpt>
<trkpt lat="42.22109" lon="23.582262"><ele>2262.9</ele><time>2026-04-05T13:23:36.000Z</time></trkpt>
<trkpt lat="42.22109" lon="23.582262"><ele>2263</ele><time>2026-04-05T13:23:37.000Z</time></trkpt>
<trkpt lat="42.22109" lon="23.582262"><ele>2263</ele><time>2026-04-05T13:23:38.000Z</time></trkpt>
<trkpt lat="42.221091" lon="23.582262"><ele>2263</ele><time>2026-04-05T13:23:39.000Z</time></trkpt>
<trkpt lat="42.221091" lon="23.582262"><ele>2263</ele><time>2026-04-05T13:23:40.000Z</time></trkpt>
<trkpt lat="42.221091" lon="23.582262"><ele>2263</ele><time>2026-04-05T13:23:41.000Z</time></trkpt>
<trkpt lat="42.221091" lon="23.582261"><ele>2263.2</ele><time>2026-04-05T13:23:42.000Z</time></trkpt>
<trkpt lat="42.221091" lon="23.582261"><ele>2263.2</ele><time>2026-04-05T13:23:43.000Z</time></trkpt>
<trkpt lat="42.221091" lon="23.582261"><ele>2263.2</ele><time>2026-04-05T13:23:44.000Z</time></trkpt>
<trkpt lat="42.221091" lon="23.582261"><ele>2263.2</ele><time>2026-04-05T13:23:45.000Z</time></trkpt>
<trkpt lat="42.221091" lon="23.582261"><ele>2263.2</ele><time>2026-04-05T13:23:46.000Z</time></trkpt>
<trkpt lat="42.221091" lon="23.582261"><ele>2263.3</ele><time>2026-04-05T13:23:47.000Z</time></trkpt>
<trkpt lat="42.221091" lon="23.582261"><ele>2263.3</ele><time>2026-04-05T13:23:48.000Z</time></trkpt>
<trkpt lat="42.221091" lon="23.582261"><ele>2263.3</ele><time>2026-04-05T13:23:49.000Z</time></trkpt>
<trkpt lat="42.221091" lon="23.582261"><ele>2263.3</ele><time>2026-04-05T13:23:50.000Z</time></trkpt>
<trkpt lat="42.221091" lon="23.582261"><ele>2263.3</ele><time>2026-04-05T13:23:51.000Z</time></trkpt>
<trkpt lat="42.221091" lon="23.582261"><ele>2263.2</ele><time>2026-04-05T13:23:52.000Z</time></trkpt>
<trkpt lat="42.221091" lon="23.582261"><ele>2263.2</ele><time>2026-04-05T13:23:53.000Z</time></trkpt>
<trkpt lat="42.221091" lon="23.582261"><ele>2263.2</ele><time>2026-04-05T13:23:54.000Z</time></trkpt>
<trkpt lat="42.221091" lon="23.582261"><ele>2263.2</ele><time>2026-04-05T13:23:55.000Z</time></trkpt>
<trkpt lat="42.221091" lon="23.582261"><ele>2263.2</ele><time>2026-04-05T13:23:56.000Z</time></trkpt>
<trkpt lat="42.221091" lon="23.582261"><ele>2262.9</ele><time>2026-04-05T13:23:57.000Z</time></trkpt>
<trkpt lat="42.221091" lon="23.582261"><ele>2262.9</ele><time>2026-04-05T13:23:58.000Z</time></trkpt>
<trkpt lat="42.221091" lon="23.582261"><ele>2262.9</ele><time>2026-04-05T13:23:59.000Z</time></trkpt>
<trkpt lat="42.221091" lon="23.582261"><ele>2262.9</ele><time>2026-04-05T13:24:00.000Z</time></trkpt>
<trkpt lat="42.221091" lon="23.582261"><ele>2262.9</ele><time>2026-04-05T13:24:01.000Z</time></trkpt>
<trkpt lat="42.221091" lon="23.582261"><ele>2262.9</ele><time>2026-04-05T13:24:02.000Z</time></trkpt>
<trkpt lat="42.221091" lon="23.582261"><ele>2262.9</ele><time>2026-04-05T13:24:03.000Z</time></trkpt>
<trkpt lat="42.221091" lon="23.582261"><ele>2262.9</ele><time>2026-04-05T13:24:04.000Z</time></trkpt>
<trkpt lat="42.221091" lon="23.582261"><ele>2262.9</ele><time>2026-04-05T13:24:05.000Z</time></trkpt>
<trkpt lat="42.221091" lon="23.582261"><ele>2262.9</ele><time>2026-04-05T13:24:06.000Z</time></trkpt>
<trkpt lat="42.221091" lon="23.582261"><ele>2263</ele><time>2026-04-05T13:24:07.000Z</time></trkpt>
<trkpt lat="42.221091" lon="23.582261"><ele>2263</ele><time>2026-04-05T13:24:08.000Z</time></trkpt>
<trkpt lat="42.221091" lon="23.582261"><ele>2263</ele><time>2026-04-05T13:24:09.000Z</time></trkpt>
<trkpt lat="42.221091" lon="23.582261"><ele>2263</ele><time>2026-04-05T13:24:10.000Z</time></trkpt>
<trkpt lat="42.221091" lon="23.582261"><ele>2263</ele><time>2026-04-05T13:24:11.000Z</time></trkpt>
<trkpt lat="42.221091" lon="23.582261"><ele>2263.3</ele><time>2026-04-05T13:24:12.000Z</time></trkpt>
<trkpt lat="42.221091" lon="23.582261"><ele>2263.3</ele><time>2026-04-05T13:24:13.000Z</time></trkpt>
<trkpt lat="42.221091" lon="23.58226"><ele>2263.3</ele><time>2026-04-05T13:24:14.000Z</time></trkpt>
<trkpt lat="42.221091" lon="23.58226"><ele>2263.3</ele><time>2026-04-05T13:24:15.000Z</time></trkpt>
<trkpt lat="42.22109" lon="23.582259"><ele>2263.3</ele><time>2026-04-05T13:24:16.000Z</time></trkpt>
<trkpt lat="42.221087" lon="23.582259"><ele>2263.4</ele><time>2026-04-05T13:24:17.000Z</time></trkpt>
<trkpt lat="42.221084" lon="23.582258"><ele>2263.4</ele><time>2026-04-05T13:24:18.000Z</time></trkpt>
<trkpt lat="42.221081" lon="23.582256"><ele>2263.4</ele><time>2026-04-05T13:24:19.000Z</time></trkpt>
<trkpt lat="42.221077" lon="23.582252"><ele>2263.4</ele><time>2026-04-05T13:24:20.000Z</time></trkpt>
<trkpt lat="42.221073" lon="23.582249"><ele>2263.4</ele><time>2026-04-05T13:24:21.000Z</time></trkpt>
<trkpt lat="42.221071" lon="23.582244"><ele>2263.4</ele><time>2026-04-05T13:24:22.000Z</time></trkpt>
<trkpt lat="42.22107" lon="23.582241"><ele>2263.4</ele><time>2026-04-05T13:24:23.000Z</time></trkpt>
<trkpt lat="42.22107" lon="23.582238"><ele>2263.4</ele><time>2026-04-05T13:24:24.000Z</time></trkpt>
<trkpt lat="42.22107" lon="23.582237"><ele>2263.4</ele><time>2026-04-05T13:24:25.000Z</time></trkpt>
<trkpt lat="42.22107" lon="23.582236"><ele>2263.4</ele><time>2026-04-05T13:24:26.000Z</time></trkpt>
<trkpt lat="42.22107" lon="23.582236"><ele>2263.4</ele><time>2026-04-05T13:24:27.000Z</time></trkpt>
<trkpt lat="42.22107" lon="23.582235"><ele>2263.4</ele><time>2026-04-05T13:24:28.000Z</time></trkpt>
<trkpt lat="42.22107" lon="23.582233"><ele>2263.4</ele><time>2026-04-05T13:24:29.000Z</time></trkpt>
<trkpt lat="42.221068" lon="23.58223"><ele>2263.4</ele><time>2026-04-05T13:24:30.000Z</time></trkpt>
<trkpt lat="42.221067" lon="23.582226"><ele>2263.4</ele><time>2026-04-05T13:24:31.000Z</time></trkpt>
<trkpt lat="42.221066" lon="23.582219"><ele>2263.6</ele><time>2026-04-05T13:24:32.000Z</time></trkpt>
<trkpt lat="42.221064" lon="23.582212"><ele>2263.6</ele><time>2026-04-05T13:24:33.000Z</time></trkpt>
<trkpt lat="42.221062" lon="23.582206"><ele>2263.6</ele><time>2026-04-05T13:24:34.000Z</time></trkpt>
<trkpt lat="42.22106" lon="23.5822"><ele>2263.6</ele><time>2026-04-05T13:24:35.000Z</time></trkpt>
<trkpt lat="42.221058" lon="23.582193"><ele>2263.6</ele><time>2026-04-05T13:24:36.000Z</time></trkpt>
<trkpt lat="42.221056" lon="23.582188"><ele>2263.8</ele><time>2026-04-05T13:24:37.000Z</time></trkpt>
<trkpt lat="42.221054" lon="23.582183"><ele>2263.8</ele><time>2026-04-05T13:24:38.000Z</time></trkpt>
<trkpt lat="42.221051" lon="23.582177"><ele>2263.8</ele><time>2026-04-05T13:24:39.000Z</time></trkpt>
<trkpt lat="42.221049" lon="23.582173"><ele>2263.8</ele><time>2026-04-05T13:24:40.000Z</time></trkpt>
<trkpt lat="42.221046" lon="23.582169"><ele>2263.8</ele><time>2026-04-05T13:24:41.000Z</time></trkpt>
<trkpt lat="42.221043" lon="23.582165"><ele>2264.4</ele><time>2026-04-05T13:24:42.000Z</time></trkpt>
<trkpt lat="42.22104" lon="23.582162"><ele>2264.4</ele><time>2026-04-05T13:24:43.000Z</time></trkpt>
<trkpt lat="42.221038" lon="23.582157"><ele>2264.4</ele><time>2026-04-05T13:24:44.000Z</time></trkpt>
<trkpt lat="42.221037" lon="23.582151"><ele>2264.4</ele><time>2026-04-05T13:24:45.000Z</time></trkpt>
<trkpt lat="42.221035" lon="23.582145"><ele>2264.4</ele><time>2026-04-05T13:24:46.000Z</time></trkpt>
<trkpt lat="42.221034" lon="23.582136"><ele>2265</ele><time>2026-04-05T13:24:47.000Z</time></trkpt>
<trkpt lat="42.221034" lon="23.582127"><ele>2265</ele><time>2026-04-05T13:24:48.000Z</time></trkpt>
<trkpt lat="42.221034" lon="23.582118"><ele>2265</ele><time>2026-04-05T13:24:49.000Z</time></trkpt>
<trkpt lat="42.221033" lon="23.58211"><ele>2265</ele><time>2026-04-05T13:24:50.000Z</time></trkpt>
<trkpt lat="42.221031" lon="23.582102"><ele>2265</ele><time>2026-04-05T13:24:51.000Z</time></trkpt>
<trkpt lat="42.221029" lon="23.582094"><ele>2265.2</ele><time>2026-04-05T13:24:52.000Z</time></trkpt>
<trkpt lat="42.221028" lon="23.582087"><ele>2265.2</ele><time>2026-04-05T13:24:53.000Z</time></trkpt>
<trkpt lat="42.221025" lon="23.582079"><ele>2265.2</ele><time>2026-04-05T13:24:54.000Z</time></trkpt>
<trkpt lat="42.221023" lon="23.582072"><ele>2265.2</ele><time>2026-04-05T13:24:55.000Z</time></trkpt>
<trkpt lat="42.221022" lon="23.582065"><ele>2265.2</ele><time>2026-04-05T13:24:56.000Z</time></trkpt>
<trkpt lat="42.221021" lon="23.582058"><ele>2265.7</ele><time>2026-04-05T13:24:57.000Z</time></trkpt>
<trkpt lat="42.221018" lon="23.582051"><ele>2265.7</ele><time>2026-04-05T13:24:58.000Z</time></trkpt>
<trkpt lat="42.221015" lon="23.582044"><ele>2265.7</ele><time>2026-04-05T13:24:59.000Z</time></trkpt>
<trkpt lat="42.221012" lon="23.582035"><ele>2265.7</ele><time>2026-04-05T13:25:00.000Z</time></trkpt>
<trkpt lat="42.221009" lon="23.582024"><ele>2265.7</ele><time>2026-04-05T13:25:01.000Z</time></trkpt>
<trkpt lat="42.221006" lon="23.582016"><ele>2266.2</ele><time>2026-04-05T13:25:02.000Z</time></trkpt>
<trkpt lat="42.221003" lon="23.582007"><ele>2266.2</ele><time>2026-04-05T13:25:03.000Z</time></trkpt>
<trkpt lat="42.221" lon="23.581997"><ele>2266.2</ele><time>2026-04-05T13:25:04.000Z</time></trkpt>
<trkpt lat="42.220997" lon="23.581988"><ele>2266.2</ele><time>2026-04-05T13:25:05.000Z</time></trkpt>
<trkpt lat="42.220994" lon="23.58198"><ele>2266.2</ele><time>2026-04-05T13:25:06.000Z</time></trkpt>
<trkpt lat="42.220992" lon="23.58197"><ele>2266.5</ele><time>2026-04-05T13:25:07.000Z</time></trkpt>
<trkpt lat="42.22099" lon="23.581959"><ele>2266.5</ele><time>2026-04-05T13:25:08.000Z</time></trkpt>
<trkpt lat="42.220988" lon="23.58195"><ele>2266.5</ele><time>2026-04-05T13:25:09.000Z</time></trkpt>
<trkpt lat="42.220987" lon="23.581941"><ele>2266.5</ele><time>2026-04-05T13:25:10.000Z</time></trkpt>
<trkpt lat="42.220985" lon="23.58193"><ele>2266.5</ele><time>2026-04-05T13:25:11.000Z</time></trkpt>
<trkpt lat="42.220982" lon="23.581921"><ele>2267</ele><time>2026-04-05T13:25:12.000Z</time></trkpt>
<trkpt lat="42.220981" lon="23.581911"><ele>2267</ele><time>2026-04-05T13:25:13.000Z</time></trkpt>
<trkpt lat="42.220979" lon="23.581901"><ele>2267</ele><time>2026-04-05T13:25:14.000Z</time></trkpt>
<trkpt lat="42.220978" lon="23.581891"><ele>2267</ele><time>2026-04-05T13:25:15.000Z</time></trkpt>
<trkpt lat="42.220976" lon="23.581883"><ele>2267</ele><time>2026-04-05T13:25:16.000Z</time></trkpt>
<trkpt lat="42.220974" lon="23.581873"><ele>2267.6</ele><time>2026-04-05T13:25:17.000Z</time></trkpt>
<trkpt lat="42.220971" lon="23.581863"><ele>2267.6</ele><time>2026-04-05T13:25:18.000Z</time></trkpt>
<trkpt lat="42.220969" lon="23.581853"><ele>2267.6</ele><time>2026-04-05T13:25:19.000Z</time></trkpt>
<trkpt lat="42.220966" lon="23.581844"><ele>2267.6</ele><time>2026-04-05T13:25:20.000Z</time></trkpt>
<trkpt lat="42.220964" lon="23.581834"><ele>2267.6</ele><time>2026-04-05T13:25:21.000Z</time></trkpt>
<trkpt lat="42.220962" lon="23.581824"><ele>2267.8</ele><time>2026-04-05T13:25:22.000Z</time></trkpt>
<trkpt lat="42.220962" lon="23.581815"><ele>2267.8</ele><time>2026-04-05T13:25:23.000Z</time></trkpt>
<trkpt lat="42.220962" lon="23.581807"><ele>2267.8</ele><time>2026-04-05T13:25:24.000Z</time></trkpt>
<trkpt lat="42.220962" lon="23.581798"><ele>2267.8</ele><time>2026-04-05T13:25:25.000Z</time></trkpt>
<trkpt lat="42.220962" lon="23.58179"><ele>2267.8</ele><time>2026-04-05T13:25:26.000Z</time></trkpt>
<trkpt lat="42.220963" lon="23.581781"><ele>2268.3</ele><time>2026-04-05T13:25:27.000Z</time></trkpt>
<trkpt lat="42.220962" lon="23.581773"><ele>2268.3</ele><time>2026-04-05T13:25:28.000Z</time></trkpt>
<trkpt lat="42.220962" lon="23.581763"><ele>2268.3</ele><time>2026-04-05T13:25:29.000Z</time></trkpt>
<trkpt lat="42.220961" lon="23.581753"><ele>2268.3</ele><time>2026-04-05T13:25:30.000Z</time></trkpt>
<trkpt lat="42.22096" lon="23.581743"><ele>2268.3</ele><time>2026-04-05T13:25:31.000Z</time></trkpt>
<trkpt lat="42.22096" lon="23.581732"><ele>2269</ele><time>2026-04-05T13:25:32.000Z</time></trkpt>
<trkpt lat="42.22096" lon="23.581721"><ele>2269</ele><time>2026-04-05T13:25:33.000Z</time></trkpt>
<trkpt lat="42.220959" lon="23.581712"><ele>2269</ele><time>2026-04-05T13:25:34.000Z</time></trkpt>
<trkpt lat="42.220959" lon="23.581703"><ele>2269</ele><time>2026-04-05T13:25:35.000Z</time></trkpt>
<trkpt lat="42.220959" lon="23.581694"><ele>2269</ele><time>2026-04-05T13:25:36.000Z</time></trkpt>
<trkpt lat="42.220959" lon="23.581687"><ele>2269.3</ele><time>2026-04-05T13:25:37.000Z</time></trkpt>
<trkpt lat="42.220957" lon="23.581682"><ele>2269.3</ele><time>2026-04-05T13:25:38.000Z</time></trkpt>
<trkpt lat="42.220955" lon="23.581676"><ele>2269.3</ele><time>2026-04-05T13:25:39.000Z</time></trkpt>
<trkpt lat="42.220954" lon="23.58167"><ele>2269.3</ele><time>2026-04-05T13:25:40.000Z</time></trkpt>
<trkpt lat="42.220952" lon="23.581663"><ele>2269.3</ele><time>2026-04-05T13:25:41.000Z</time></trkpt>
<trkpt lat="42.22095" lon="23.581656"><ele>2270.1</ele><time>2026-04-05T13:25:42.000Z</time></trkpt>
<trkpt lat="42.22095" lon="23.581649"><ele>2270.1</ele><time>2026-04-05T13:25:43.000Z</time></trkpt>
<trkpt lat="42.22095" lon="23.581642"><ele>2270.1</ele><time>2026-04-05T13:25:44.000Z</time></trkpt>
<trkpt lat="42.22095" lon="23.581636"><ele>2270.1</ele><time>2026-04-05T13:25:45.000Z</time></trkpt>
<trkpt lat="42.220951" lon="23.581631"><ele>2270.1</ele><time>2026-04-05T13:25:46.000Z</time></trkpt>
<trkpt lat="42.220952" lon="23.581628"><ele>2270.6</ele><time>2026-04-05T13:25:47.000Z</time></trkpt>
<trkpt lat="42.220952" lon="23.581625"><ele>2270.6</ele><time>2026-04-05T13:25:48.000Z</time></trkpt>
<trkpt lat="42.220952" lon="23.581624"><ele>2270.6</ele><time>2026-04-05T13:25:49.000Z</time></trkpt>
<trkpt lat="42.220952" lon="23.581624"><ele>2270.6</ele><time>2026-04-05T13:25:50.000Z</time></trkpt>
<trkpt lat="42.220952" lon="23.581624"><ele>2270.6</ele><time>2026-04-05T13:25:51.000Z</time></trkpt>
<trkpt lat="42.220952" lon="23.581624"><ele>2270.9</ele><time>2026-04-05T13:25:52.000Z</time></trkpt>
<trkpt lat="42.220952" lon="23.581624"><ele>2270.9</ele><time>2026-04-05T13:25:53.000Z</time></trkpt>
<trkpt lat="42.220952" lon="23.581624"><ele>2270.9</ele><time>2026-04-05T13:25:54.000Z</time></trkpt>
<trkpt lat="42.220952" lon="23.581624"><ele>2270.9</ele><time>2026-04-05T13:25:55.000Z</time></trkpt>
<trkpt lat="42.220951" lon="23.581622"><ele>2270.9</ele><time>2026-04-05T13:25:56.000Z</time></trkpt>
<trkpt lat="42.220951" lon="23.581619"><ele>2271.5</ele><time>2026-04-05T13:25:57.000Z</time></trkpt>
<trkpt lat="42.220951" lon="23.581614"><ele>2271.5</ele><time>2026-04-05T13:25:58.000Z</time></trkpt>
<trkpt lat="42.22095" lon="23.581609"><ele>2271.5</ele><time>2026-04-05T13:25:59.000Z</time></trkpt>
<trkpt lat="42.22095" lon="23.581603"><ele>2271.5</ele><time>2026-04-05T13:26:00.000Z</time></trkpt>
<trkpt lat="42.220951" lon="23.581598"><ele>2271.5</ele><time>2026-04-05T13:26:01.000Z</time></trkpt>
<trkpt lat="42.220951" lon="23.581595"><ele>2272.2</ele><time>2026-04-05T13:26:02.000Z</time></trkpt>
<trkpt lat="42.220951" lon="23.581593"><ele>2272.2</ele><time>2026-04-05T13:26:03.000Z</time></trkpt>
<trkpt lat="42.22095" lon="23.581592"><ele>2272.2</ele><time>2026-04-05T13:26:04.000Z</time></trkpt>
<trkpt lat="42.220949" lon="23.581592"><ele>2272.2</ele><time>2026-04-05T13:26:05.000Z</time></trkpt>
<trkpt lat="42.220948" lon="23.581592"><ele>2272.2</ele><time>2026-04-05T13:26:06.000Z</time></trkpt>
<trkpt lat="42.220947" lon="23.581593"><ele>2272.4</ele><time>2026-04-05T13:26:07.000Z</time></trkpt>
<trkpt lat="42.220947" lon="23.581593"><ele>2272.4</ele><time>2026-04-05T13:26:08.000Z</time></trkpt>
<trkpt lat="42.220946" lon="23.581594"><ele>2272.4</ele><time>2026-04-05T13:26:09.000Z</time></trkpt>
<trkpt lat="42.220946" lon="23.581594"><ele>2272.4</ele><time>2026-04-05T13:26:10.000Z</time></trkpt>
<trkpt lat="42.220945" lon="23.581594"><ele>2272.4</ele><time>2026-04-05T13:26:11.000Z</time></trkpt>
<trkpt lat="42.220945" lon="23.581594"><ele>2272.8</ele><time>2026-04-05T13:26:12.000Z</time></trkpt>
<trkpt lat="42.220945" lon="23.581594"><ele>2272.8</ele><time>2026-04-05T13:26:13.000Z</time></trkpt>
<trkpt lat="42.220946" lon="23.581594"><ele>2272.8</ele><time>2026-04-05T13:26:14.000Z</time></trkpt>
<trkpt lat="42.220946" lon="23.581593"><ele>2272.8</ele><time>2026-04-05T13:26:15.000Z</time></trkpt>
<trkpt lat="42.220946" lon="23.581593"><ele>2272.8</ele><time>2026-04-05T13:26:16.000Z</time></trkpt>
<trkpt lat="42.220945" lon="23.581592"><ele>2273.1</ele><time>2026-04-05T13:26:17.000Z</time></trkpt>
<trkpt lat="42.220945" lon="23.58159"><ele>2273.1</ele><time>2026-04-05T13:26:18.000Z</time></trkpt>
<trkpt lat="42.220944" lon="23.581589"><ele>2273.1</ele><time>2026-04-05T13:26:19.000Z</time></trkpt>
<trkpt lat="42.220943" lon="23.581586"><ele>2273.1</ele><time>2026-04-05T13:26:20.000Z</time></trkpt>
<trkpt lat="42.220941" lon="23.581582"><ele>2273.1</ele><time>2026-04-05T13:26:21.000Z</time></trkpt>
<trkpt lat="42.220939" lon="23.581575"><ele>2273.3</ele><time>2026-04-05T13:26:22.000Z</time></trkpt>
<trkpt lat="42.220937" lon="23.581567"><ele>2273.3</ele><time>2026-04-05T13:26:23.000Z</time></trkpt>
<trkpt lat="42.220935" lon="23.581558"><ele>2273.3</ele><time>2026-04-05T13:26:24.000Z</time></trkpt>
<trkpt lat="42.220934" lon="23.581547"><ele>2273.3</ele><time>2026-04-05T13:26:25.000Z</time></trkpt>
<trkpt lat="42.220933" lon="23.581537"><ele>2273.3</ele><time>2026-04-05T13:26:26.000Z</time></trkpt>
<trkpt lat="42.220933" lon="23.581528"><ele>2273.6</ele><time>2026-04-05T13:26:27.000Z</time></trkpt>
<trkpt lat="42.220933" lon="23.581519"><ele>2273.6</ele><time>2026-04-05T13:26:28.000Z</time></trkpt>
<trkpt lat="42.220934" lon="23.58151"><ele>2273.6</ele><time>2026-04-05T13:26:29.000Z</time></trkpt>
<trkpt lat="42.220934" lon="23.581501"><ele>2273.6</ele><time>2026-04-05T13:26:30.000Z</time></trkpt>
<trkpt lat="42.220935" lon="23.581493"><ele>2273.6</ele><time>2026-04-05T13:26:31.000Z</time></trkpt>
<trkpt lat="42.220935" lon="23.581484"><ele>2274</ele><time>2026-04-05T13:26:32.000Z</time></trkpt>
<trkpt lat="42.220936" lon="23.581474"><ele>2274</ele><time>2026-04-05T13:26:33.000Z</time></trkpt>
<trkpt lat="42.220937" lon="23.581464"><ele>2274</ele><time>2026-04-05T13:26:34.000Z</time></trkpt>
<trkpt lat="42.220937" lon="23.581455"><ele>2274</ele><time>2026-04-05T13:26:35.000Z</time></trkpt>
<trkpt lat="42.220938" lon="23.581445"><ele>2274</ele><time>2026-04-05T13:26:36.000Z</time></trkpt>
<trkpt lat="42.220939" lon="23.581436"><ele>2274.4</ele><time>2026-04-05T13:26:37.000Z</time></trkpt>
<trkpt lat="42.22094" lon="23.581426"><ele>2274.4</ele><time>2026-04-05T13:26:38.000Z</time></trkpt>
<trkpt lat="42.22094" lon="23.581416"><ele>2274.4</ele><time>2026-04-05T13:26:39.000Z</time></trkpt>
<trkpt lat="42.22094" lon="23.581406"><ele>2274.4</ele><time>2026-04-05T13:26:40.000Z</time></trkpt>
<trkpt lat="42.220939" lon="23.581397"><ele>2274.4</ele><time>2026-04-05T13:26:41.000Z</time></trkpt>
<trkpt lat="42.220937" lon="23.581386"><ele>2275.6</ele><time>2026-04-05T13:26:42.000Z</time></trkpt>
<trkpt lat="42.220936" lon="23.581375"><ele>2275.6</ele><time>2026-04-05T13:26:43.000Z</time></trkpt>
<trkpt lat="42.220935" lon="23.581366"><ele>2275.6</ele><time>2026-04-05T13:26:44.000Z</time></trkpt>
<trkpt lat="42.220934" lon="23.581356"><ele>2275.6</ele><time>2026-04-05T13:26:45.000Z</time></trkpt>
<trkpt lat="42.220933" lon="23.581347"><ele>2275.6</ele><time>2026-04-05T13:26:46.000Z</time></trkpt>
<trkpt lat="42.220934" lon="23.581339"><ele>2276.9</ele><time>2026-04-05T13:26:47.000Z</time></trkpt>
<trkpt lat="42.220934" lon="23.581331"><ele>2276.9</ele><time>2026-04-05T13:26:48.000Z</time></trkpt>
<trkpt lat="42.220934" lon="23.581323"><ele>2276.9</ele><time>2026-04-05T13:26:49.000Z</time></trkpt>
<trkpt lat="42.220934" lon="23.581316"><ele>2276.9</ele><time>2026-04-05T13:26:50.000Z</time></trkpt>
<trkpt lat="42.220935" lon="23.581307"><ele>2276.9</ele><time>2026-04-05T13:26:51.000Z</time></trkpt>
<trkpt lat="42.220936" lon="23.581299"><ele>2277.5</ele><time>2026-04-05T13:26:52.000Z</time></trkpt>
<trkpt lat="42.220937" lon="23.581291"><ele>2277.5</ele><time>2026-04-05T13:26:53.000Z</time></trkpt>
<trkpt lat="42.220938" lon="23.581284"><ele>2277.5</ele><time>2026-04-05T13:26:54.000Z</time></trkpt>
<trkpt lat="42.220939" lon="23.581276"><ele>2277.5</ele><time>2026-04-05T13:26:55.000Z</time></trkpt>
<trkpt lat="42.220939" lon="23.581269"><ele>2277.5</ele><time>2026-04-05T13:26:56.000Z</time></trkpt>
<trkpt lat="42.220939" lon="23.581263"><ele>2278.7</ele><time>2026-04-05T13:26:57.000Z</time></trkpt>
<trkpt lat="42.22094" lon="23.581255"><ele>2278.7</ele><time>2026-04-05T13:26:58.000Z</time></trkpt>
<trkpt lat="42.22094" lon="23.581247"><ele>2278.7</ele><time>2026-04-05T13:26:59.000Z</time></trkpt>
<trkpt lat="42.22094" lon="23.58124"><ele>2278.7</ele><time>2026-04-05T13:27:00.000Z</time></trkpt>
<trkpt lat="42.220941" lon="23.581232"><ele>2278.7</ele><time>2026-04-05T13:27:01.000Z</time></trkpt>
<trkpt lat="42.220942" lon="23.581224"><ele>2280</ele><time>2026-04-05T13:27:02.000Z</time></trkpt>
<trkpt lat="42.220944" lon="23.581214"><ele>2280</ele><time>2026-04-05T13:27:03.000Z</time></trkpt>
<trkpt lat="42.220945" lon="23.581204"><ele>2280</ele><time>2026-04-05T13:27:04.000Z</time></trkpt>
<trkpt lat="42.220947" lon="23.581195"><ele>2280</ele><time>2026-04-05T13:27:05.000Z</time></trkpt>
<trkpt lat="42.220948" lon="23.581184"><ele>2280</ele><time>2026-04-05T13:27:06.000Z</time></trkpt>
<trkpt lat="42.22095" lon="23.581174"><ele>2280.6</ele><time>2026-04-05T13:27:07.000Z</time></trkpt>
<trkpt lat="42.220951" lon="23.581165"><ele>2280.6</ele><time>2026-04-05T13:27:08.000Z</time></trkpt>
<trkpt lat="42.220952" lon="23.581157"><ele>2280.6</ele><time>2026-04-05T13:27:09.000Z</time></trkpt>
<trkpt lat="42.220953" lon="23.581148"><ele>2280.6</ele><time>2026-04-05T13:27:10.000Z</time></trkpt>
<trkpt lat="42.220954" lon="23.581139"><ele>2280.6</ele><time>2026-04-05T13:27:11.000Z</time></trkpt>
<trkpt lat="42.220955" lon="23.58113"><ele>2281.8</ele><time>2026-04-05T13:27:12.000Z</time></trkpt>
<trkpt lat="42.220956" lon="23.581121"><ele>2281.8</ele><time>2026-04-05T13:27:13.000Z</time></trkpt>
<trkpt lat="42.220958" lon="23.581112"><ele>2281.8</ele><time>2026-04-05T13:27:14.000Z</time></trkpt>
<trkpt lat="42.220959" lon="23.581103"><ele>2281.8</ele><time>2026-04-05T13:27:15.000Z</time></trkpt>
<trkpt lat="42.22096" lon="23.581095"><ele>2281.8</ele><time>2026-04-05T13:27:16.000Z</time></trkpt>
<trkpt lat="42.220961" lon="23.581087"><ele>2283.1</ele><time>2026-04-05T13:27:17.000Z</time></trkpt>
<trkpt lat="42.220962" lon="23.581079"><ele>2283.1</ele><time>2026-04-05T13:27:18.000Z</time></trkpt>
<trkpt lat="42.220964" lon="23.581073"><ele>2283.1</ele><time>2026-04-05T13:27:19.000Z</time></trkpt>
<trkpt lat="42.220966" lon="23.581066"><ele>2283.1</ele><time>2026-04-05T13:27:20.000Z</time></trkpt>
<trkpt lat="42.220968" lon="23.581059"><ele>2283.1</ele><time>2026-04-05T13:27:21.000Z</time></trkpt>
<trkpt lat="42.22097" lon="23.581052"><ele>2283.7</ele><time>2026-04-05T13:27:22.000Z</time></trkpt>
<trkpt lat="42.220972" lon="23.581045"><ele>2283.7</ele><time>2026-04-05T13:27:23.000Z</time></trkpt>
<trkpt lat="42.220973" lon="23.581039"><ele>2283.7</ele><time>2026-04-05T13:27:24.000Z</time></trkpt>
<trkpt lat="42.220975" lon="23.581034"><ele>2283.7</ele><time>2026-04-05T13:27:25.000Z</time></trkpt>
<trkpt lat="42.220977" lon="23.581028"><ele>2283.7</ele><time>2026-04-05T13:27:26.000Z</time></trkpt>
<trkpt lat="42.220978" lon="23.581023"><ele>2285</ele><time>2026-04-05T13:27:27.000Z</time></trkpt>
<trkpt lat="42.22098" lon="23.581018"><ele>2285</ele><time>2026-04-05T13:27:28.000Z</time></trkpt>
<trkpt lat="42.220983" lon="23.581011"><ele>2285</ele><time>2026-04-05T13:27:29.000Z</time></trkpt>
<trkpt lat="42.220985" lon="23.581005"><ele>2285</ele><time>2026-04-05T13:27:30.000Z</time></trkpt>
<trkpt lat="42.220988" lon="23.580998"><ele>2285</ele><time>2026-04-05T13:27:31.000Z</time></trkpt>
<trkpt lat="42.220991" lon="23.580991"><ele>2286.2</ele><time>2026-04-05T13:27:32.000Z</time></trkpt>
<trkpt lat="42.220994" lon="23.580985"><ele>2286.2</ele><time>2026-04-05T13:27:33.000Z</time></trkpt>
<trkpt lat="42.220998" lon="23.580978"><ele>2286.2</ele><time>2026-04-05T13:27:34.000Z</time></trkpt>
<trkpt lat="42.221002" lon="23.580972"><ele>2286.2</ele><time>2026-04-05T13:27:35.000Z</time></trkpt>
<trkpt lat="42.221006" lon="23.580965"><ele>2286.2</ele><time>2026-04-05T13:27:36.000Z</time></trkpt>
<trkpt lat="42.22101" lon="23.580959"><ele>2286.8</ele><time>2026-04-05T13:27:37.000Z</time></trkpt>
<trkpt lat="42.221014" lon="23.580952"><ele>2286.8</ele><time>2026-04-05T13:27:38.000Z</time></trkpt>
<trkpt lat="42.221016" lon="23.580946"><ele>2286.8</ele><time>2026-04-05T13:27:39.000Z</time></trkpt>
<trkpt lat="42.221019" lon="23.58094"><ele>2286.8</ele><time>2026-04-05T13:27:40.000Z</time></trkpt>
<trkpt lat="42.221022" lon="23.580934"><ele>2286.8</ele><time>2026-04-05T13:27:41.000Z</time></trkpt>
<trkpt lat="42.221025" lon="23.58093"><ele>2288.3</ele><time>2026-04-05T13:27:42.000Z</time></trkpt>
<trkpt lat="42.221027" lon="23.580925"><ele>2288.3</ele><time>2026-04-05T13:27:43.000Z</time></trkpt>
<trkpt lat="42.221031" lon="23.58092"><ele>2288.3</ele><time>2026-04-05T13:27:44.000Z</time></trkpt>
<trkpt lat="42.221034" lon="23.580916"><ele>2288.3</ele><time>2026-04-05T13:27:45.000Z</time></trkpt>
<trkpt lat="42.221035" lon="23.580914"><ele>2288.3</ele><time>2026-04-05T13:27:46.000Z</time></trkpt>
<trkpt lat="42.221036" lon="23.580911"><ele>2289.7</ele><time>2026-04-05T13:27:47.000Z</time></trkpt>
<trkpt lat="42.221037" lon="23.58091"><ele>2289.7</ele><time>2026-04-05T13:27:48.000Z</time></trkpt>
<trkpt lat="42.221037" lon="23.580909"><ele>2289.7</ele><time>2026-04-05T13:27:49.000Z</time></trkpt>
<trkpt lat="42.221035" lon="23.580907"><ele>2289.7</ele><time>2026-04-05T13:27:50.000Z</time></trkpt>
<trkpt lat="42.221035" lon="23.580906"><ele>2289.7</ele><time>2026-04-05T13:27:51.000Z</time></trkpt>
<trkpt lat="42.221034" lon="23.580904"><ele>2290.4</ele><time>2026-04-05T13:27:52.000Z</time></trkpt>
<trkpt lat="42.221033" lon="23.580903"><ele>2290.4</ele><time>2026-04-05T13:27:53.000Z</time></trkpt>
<trkpt lat="42.221032" lon="23.580903"><ele>2290.4</ele><time>2026-04-05T13:27:54.000Z</time></trkpt>
<trkpt lat="42.221032" lon="23.580903"><ele>2290.4</ele><time>2026-04-05T13:27:55.000Z</time></trkpt>
<trkpt lat="42.221032" lon="23.580903"><ele>2290.4</ele><time>2026-04-05T13:27:56.000Z</time></trkpt>
<trkpt lat="42.221032" lon="23.580903"><ele>2291.4</ele><time>2026-04-05T13:27:57.000Z</time></trkpt>
<trkpt lat="42.221032" lon="23.580903"><ele>2291.4</ele><time>2026-04-05T13:27:58.000Z</time></trkpt>
<trkpt lat="42.221032" lon="23.580903"><ele>2291.4</ele><time>2026-04-05T13:27:59.000Z</time></trkpt>
<trkpt lat="42.221032" lon="23.580903"><ele>2291.4</ele><time>2026-04-05T13:28:00.000Z</time></trkpt>
<trkpt lat="42.221032" lon="23.580903"><ele>2291.4</ele><time>2026-04-05T13:28:01.000Z</time></trkpt>
<trkpt lat="42.221032" lon="23.580903"><ele>2292.1</ele><time>2026-04-05T13:28:02.000Z</time></trkpt>
<trkpt lat="42.221031" lon="23.580902"><ele>2292.1</ele><time>2026-04-05T13:28:03.000Z</time></trkpt>
<trkpt lat="42.221031" lon="23.580902"><ele>2292.1</ele><time>2026-04-05T13:28:04.000Z</time></trkpt>
<trkpt lat="42.221031" lon="23.580902"><ele>2292.1</ele><time>2026-04-05T13:28:05.000Z</time></trkpt>
<trkpt lat="42.221031" lon="23.580902"><ele>2292.1</ele><time>2026-04-05T13:28:06.000Z</time></trkpt>
<trkpt lat="42.221031" lon="23.580902"><ele>2292.4</ele><time>2026-04-05T13:28:07.000Z</time></trkpt>
<trkpt lat="42.221031" lon="23.580902"><ele>2292.4</ele><time>2026-04-05T13:28:08.000Z</time></trkpt>
<trkpt lat="42.221031" lon="23.580902"><ele>2292.4</ele><time>2026-04-05T13:28:09.000Z</time></trkpt>
<trkpt lat="42.221032" lon="23.580902"><ele>2292.4</ele><time>2026-04-05T13:28:10.000Z</time></trkpt>
<trkpt lat="42.221032" lon="23.580902"><ele>2292.4</ele><time>2026-04-05T13:28:11.000Z</time></trkpt>
<trkpt lat="42.221032" lon="23.580902"><ele>2292.6</ele><time>2026-04-05T13:28:12.000Z</time></trkpt>
<trkpt lat="42.221032" lon="23.580902"><ele>2292.6</ele><time>2026-04-05T13:28:13.000Z</time></trkpt>
<trkpt lat="42.221032" lon="23.580902"><ele>2292.6</ele><time>2026-04-05T13:28:14.000Z</time></trkpt>
<trkpt lat="42.221031" lon="23.580902"><ele>2292.6</ele><time>2026-04-05T13:28:15.000Z</time></trkpt>
<trkpt lat="42.221031" lon="23.580902"><ele>2292.6</ele><time>2026-04-05T13:28:16.000Z</time></trkpt>
<trkpt lat="42.22103" lon="23.580902"><ele>2292.5</ele><time>2026-04-05T13:28:17.000Z</time></trkpt>
<trkpt lat="42.221029" lon="23.580901"><ele>2292.5</ele><time>2026-04-05T13:28:18.000Z</time></trkpt>
<trkpt lat="42.221028" lon="23.5809"><ele>2292.5</ele><time>2026-04-05T13:28:19.000Z</time></trkpt>
<trkpt lat="42.221027" lon="23.580899"><ele>2292.5</ele><time>2026-04-05T13:28:20.000Z</time></trkpt>
<trkpt lat="42.221026" lon="23.580899"><ele>2292.5</ele><time>2026-04-05T13:28:21.000Z</time></trkpt>
<trkpt lat="42.221026" lon="23.580898"><ele>2292.4</ele><time>2026-04-05T13:28:22.000Z</time></trkpt>
<trkpt lat="42.221026" lon="23.580898"><ele>2292.4</ele><time>2026-04-05T13:28:23.000Z</time></trkpt>
<trkpt lat="42.221026" lon="23.5809"><ele>2292.4</ele><time>2026-04-05T13:28:24.000Z</time></trkpt>
<trkpt lat="42.221026" lon="23.580901"><ele>2292.4</ele><time>2026-04-05T13:28:25.000Z</time></trkpt>
<trkpt lat="42.221027" lon="23.580902"><ele>2292.4</ele><time>2026-04-05T13:28:26.000Z</time></trkpt>
<trkpt lat="42.221027" lon="23.580904"><ele>2292.4</ele><time>2026-04-05T13:28:27.000Z</time></trkpt>
<trkpt lat="42.221026" lon="23.580905"><ele>2292.4</ele><time>2026-04-05T13:28:28.000Z</time></trkpt>
<trkpt lat="42.221026" lon="23.580904"><ele>2292.4</ele><time>2026-04-05T13:28:29.000Z</time></trkpt>
<trkpt lat="42.221026" lon="23.580904"><ele>2292.4</ele><time>2026-04-05T13:28:30.000Z</time></trkpt>
<trkpt lat="42.221025" lon="23.580904"><ele>2292.4</ele><time>2026-04-05T13:28:31.000Z</time></trkpt>
<trkpt lat="42.221025" lon="23.580904"><ele>2292.4</ele><time>2026-04-05T13:28:32.000Z</time></trkpt>
<trkpt lat="42.221026" lon="23.580903"><ele>2292.4</ele><time>2026-04-05T13:28:33.000Z</time></trkpt>
<trkpt lat="42.221028" lon="23.5809"><ele>2292.4</ele><time>2026-04-05T13:28:34.000Z</time></trkpt>
<trkpt lat="42.221031" lon="23.580897"><ele>2292.4</ele><time>2026-04-05T13:28:35.000Z</time></trkpt>
<trkpt lat="42.221034" lon="23.580893"><ele>2292.4</ele><time>2026-04-05T13:28:36.000Z</time></trkpt>
<trkpt lat="42.221039" lon="23.580889"><ele>2292.4</ele><time>2026-04-05T13:28:37.000Z</time></trkpt>
<trkpt lat="42.221043" lon="23.580884"><ele>2292.4</ele><time>2026-04-05T13:28:38.000Z</time></trkpt>
<trkpt lat="42.221047" lon="23.580879"><ele>2292.4</ele><time>2026-04-05T13:28:39.000Z</time></trkpt>
<trkpt lat="42.221051" lon="23.580875"><ele>2292.4</ele><time>2026-04-05T13:28:40.000Z</time></trkpt>
<trkpt lat="42.221055" lon="23.58087"><ele>2292.4</ele><time>2026-04-05T13:28:41.000Z</time></trkpt>
<trkpt lat="42.221058" lon="23.580864"><ele>2292.4</ele><time>2026-04-05T13:28:42.000Z</time></trkpt>
<trkpt lat="42.221062" lon="23.58086"><ele>2292.4</ele><time>2026-04-05T13:28:43.000Z</time></trkpt>
<trkpt lat="42.221064" lon="23.580855"><ele>2292.4</ele><time>2026-04-05T13:28:44.000Z</time></trkpt>
<trkpt lat="42.221067" lon="23.58085"><ele>2292.4</ele><time>2026-04-05T13:28:45.000Z</time></trkpt>
<trkpt lat="42.22107" lon="23.580843"><ele>2292.4</ele><time>2026-04-05T13:28:46.000Z</time></trkpt>
<trkpt lat="42.221072" lon="23.580837"><ele>2292.8</ele><time>2026-04-05T13:28:47.000Z</time></trkpt>
<trkpt lat="42.221074" lon="23.580831"><ele>2292.8</ele><time>2026-04-05T13:28:48.000Z</time></trkpt>
<trkpt lat="42.221076" lon="23.580826"><ele>2292.8</ele><time>2026-04-05T13:28:49.000Z</time></trkpt>
<trkpt lat="42.221078" lon="23.58082"><ele>2292.8</ele><time>2026-04-05T13:28:50.000Z</time></trkpt>
<trkpt lat="42.22108" lon="23.580815"><ele>2292.8</ele><time>2026-04-05T13:28:51.000Z</time></trkpt>
<trkpt lat="42.221081" lon="23.58081"><ele>2293.2</ele><time>2026-04-05T13:28:52.000Z</time></trkpt>
<trkpt lat="42.221082" lon="23.580804"><ele>2293.2</ele><time>2026-04-05T13:28:53.000Z</time></trkpt>
<trkpt lat="42.221084" lon="23.580798"><ele>2293.2</ele><time>2026-04-05T13:28:54.000Z</time></trkpt>
<trkpt lat="42.221085" lon="23.580791"><ele>2293.2</ele><time>2026-04-05T13:28:55.000Z</time></trkpt>
<trkpt lat="42.221086" lon="23.580784"><ele>2293.2</ele><time>2026-04-05T13:28:56.000Z</time></trkpt>
<trkpt lat="42.221087" lon="23.580777"><ele>2294.1</ele><time>2026-04-05T13:28:57.000Z</time></trkpt>
<trkpt lat="42.221087" lon="23.580769"><ele>2294.1</ele><time>2026-04-05T13:28:58.000Z</time></trkpt>
<trkpt lat="42.221087" lon="23.580762"><ele>2294.1</ele><time>2026-04-05T13:28:59.000Z</time></trkpt>
<trkpt lat="42.221087" lon="23.580755"><ele>2294.1</ele><time>2026-04-05T13:29:00.000Z</time></trkpt>
<trkpt lat="42.221086" lon="23.580748"><ele>2294.1</ele><time>2026-04-05T13:29:01.000Z</time></trkpt>
<trkpt lat="42.221085" lon="23.580741"><ele>2294.9</ele><time>2026-04-05T13:29:02.000Z</time></trkpt>
<trkpt lat="42.221086" lon="23.580735"><ele>2294.9</ele><time>2026-04-05T13:29:03.000Z</time></trkpt>
<trkpt lat="42.221087" lon="23.580732"><ele>2294.9</ele><time>2026-04-05T13:29:04.000Z</time></trkpt>
<trkpt lat="42.221087" lon="23.580729"><ele>2294.9</ele><time>2026-04-05T13:29:05.000Z</time></trkpt>
<trkpt lat="42.221088" lon="23.580727"><ele>2294.9</ele><time>2026-04-05T13:29:06.000Z</time></trkpt>
<trkpt lat="42.221088" lon="23.580727"><ele>2295.3</ele><time>2026-04-05T13:29:07.000Z</time></trkpt>
<trkpt lat="42.221088" lon="23.580726"><ele>2295.3</ele><time>2026-04-05T13:29:08.000Z</time></trkpt>
<trkpt lat="42.221087" lon="23.580724"><ele>2295.3</ele><time>2026-04-05T13:29:09.000Z</time></trkpt>
<trkpt lat="42.221087" lon="23.580723"><ele>2295.3</ele><time>2026-04-05T13:29:10.000Z</time></trkpt>
<trkpt lat="42.221087" lon="23.580722"><ele>2295.3</ele><time>2026-04-05T13:29:11.000Z</time></trkpt>
<trkpt lat="42.221088" lon="23.580721"><ele>2295.9</ele><time>2026-04-05T13:29:12.000Z</time></trkpt>
<trkpt lat="42.221088" lon="23.58072"><ele>2295.9</ele><time>2026-04-05T13:29:13.000Z</time></trkpt>
<trkpt lat="42.221088" lon="23.58072"><ele>2295.9</ele><time>2026-04-05T13:29:14.000Z</time></trkpt>
<trkpt lat="42.221088" lon="23.58072"><ele>2295.9</ele><time>2026-04-05T13:29:15.000Z</time></trkpt>
<trkpt lat="42.221088" lon="23.580719"><ele>2295.9</ele><time>2026-04-05T13:29:16.000Z</time></trkpt>
<trkpt lat="42.221088" lon="23.58072"><ele>2296.2</ele><time>2026-04-05T13:29:17.000Z</time></trkpt>
<trkpt lat="42.221088" lon="23.580721"><ele>2296.2</ele><time>2026-04-05T13:29:18.000Z</time></trkpt>
<trkpt lat="42.221087" lon="23.580722"><ele>2296.2</ele><time>2026-04-05T13:29:19.000Z</time></trkpt>
<trkpt lat="42.221086" lon="23.580723"><ele>2296.2</ele><time>2026-04-05T13:29:20.000Z</time></trkpt>
<trkpt lat="42.221085" lon="23.580724"><ele>2296.2</ele><time>2026-04-05T13:29:21.000Z</time></trkpt>
<trkpt lat="42.221084" lon="23.580724"><ele>2296.3</ele><time>2026-04-05T13:29:22.000Z</time></trkpt>
<trkpt lat="42.221083" lon="23.580724"><ele>2296.3</ele><time>2026-04-05T13:29:23.000Z</time></trkpt>
<trkpt lat="42.221083" lon="23.580724"><ele>2296.3</ele><time>2026-04-05T13:29:24.000Z</time></trkpt>
<trkpt lat="42.221082" lon="23.580724"><ele>2296.3</ele><time>2026-04-05T13:29:25.000Z</time></trkpt>
<trkpt lat="42.221082" lon="23.580724"><ele>2296.3</ele><time>2026-04-05T13:29:26.000Z</time></trkpt>
<trkpt lat="42.221082" lon="23.580724"><ele>2296.4</ele><time>2026-04-05T13:29:27.000Z</time></trkpt>
<trkpt lat="42.221082" lon="23.580724"><ele>2296.4</ele><time>2026-04-05T13:29:28.000Z</time></trkpt>
<trkpt lat="42.221082" lon="23.580724"><ele>2296.4</ele><time>2026-04-05T13:29:29.000Z</time></trkpt>
<trkpt lat="42.221081" lon="23.580723"><ele>2296.4</ele><time>2026-04-05T13:29:30.000Z</time></trkpt>
<trkpt lat="42.221081" lon="23.580723"><ele>2296.4</ele><time>2026-04-05T13:29:31.000Z</time></trkpt>
<trkpt lat="42.221081" lon="23.580723"><ele>2296.5</ele><time>2026-04-05T13:29:32.000Z</time></trkpt>
<trkpt lat="42.221081" lon="23.580723"><ele>2296.5</ele><time>2026-04-05T13:29:33.000Z</time></trkpt>
<trkpt lat="42.221081" lon="23.580723"><ele>2296.5</ele><time>2026-04-05T13:29:34.000Z</time></trkpt>
<trkpt lat="42.221081" lon="23.580723"><ele>2296.5</ele><time>2026-04-05T13:29:35.000Z</time></trkpt>
<trkpt lat="42.221081" lon="23.580722"><ele>2296.5</ele><time>2026-04-05T13:29:36.000Z</time></trkpt>
<trkpt lat="42.221081" lon="23.58072"><ele>2296.5</ele><time>2026-04-05T13:29:37.000Z</time></trkpt>
<trkpt lat="42.221081" lon="23.580719"><ele>2296.5</ele><time>2026-04-05T13:29:38.000Z</time></trkpt>
<trkpt lat="42.22108" lon="23.580718"><ele>2296.5</ele><time>2026-04-05T13:29:39.000Z</time></trkpt>
<trkpt lat="42.22108" lon="23.580718"><ele>2296.5</ele><time>2026-04-05T13:29:40.000Z</time></trkpt>
<trkpt lat="42.221081" lon="23.580719"><ele>2296.5</ele><time>2026-04-05T13:29:41.000Z</time></trkpt>
<trkpt lat="42.221081" lon="23.580719"><ele>2296.5</ele><time>2026-04-05T13:29:42.000Z</time></trkpt>
<trkpt lat="42.221081" lon="23.58072"><ele>2296.5</ele><time>2026-04-05T13:29:43.000Z</time></trkpt>
<trkpt lat="42.221081" lon="23.58072"><ele>2296.5</ele><time>2026-04-05T13:29:44.000Z</time></trkpt>
<trkpt lat="42.221081" lon="23.580719"><ele>2296.5</ele><time>2026-04-05T13:29:45.000Z</time></trkpt>
<trkpt lat="42.221082" lon="23.580718"><ele>2296.5</ele><time>2026-04-05T13:29:46.000Z</time></trkpt>
<trkpt lat="42.221082" lon="23.580717"><ele>2296.6</ele><time>2026-04-05T13:29:47.000Z</time></trkpt>
<trkpt lat="42.221082" lon="23.580717"><ele>2296.6</ele><time>2026-04-05T13:29:48.000Z</time></trkpt>
<trkpt lat="42.221082" lon="23.580717"><ele>2296.6</ele><time>2026-04-05T13:29:49.000Z</time></trkpt>
<trkpt lat="42.221082" lon="23.580717"><ele>2296.6</ele><time>2026-04-05T13:29:50.000Z</time></trkpt>
<trkpt lat="42.221081" lon="23.580716"><ele>2296.6</ele><time>2026-04-05T13:29:51.000Z</time></trkpt>
<trkpt lat="42.221082" lon="23.580714"><ele>2296.6</ele><time>2026-04-05T13:29:52.000Z</time></trkpt>
<trkpt lat="42.221083" lon="23.580711"><ele>2296.6</ele><time>2026-04-05T13:29:53.000Z</time></trkpt>
<trkpt lat="42.221086" lon="23.580708"><ele>2296.6</ele><time>2026-04-05T13:29:54.000Z</time></trkpt>
<trkpt lat="42.22109" lon="23.580703"><ele>2296.6</ele><time>2026-04-05T13:29:55.000Z</time></trkpt>
<trkpt lat="42.221095" lon="23.580698"><ele>2296.6</ele><time>2026-04-05T13:29:56.000Z</time></trkpt>
<trkpt lat="42.2211" lon="23.580693"><ele>2296.5</ele><time>2026-04-05T13:29:57.000Z</time></trkpt>
<trkpt lat="42.221105" lon="23.580687"><ele>2296.5</ele><time>2026-04-05T13:29:58.000Z</time></trkpt>
<trkpt lat="42.221109" lon="23.580682"><ele>2296.5</ele><time>2026-04-05T13:29:59.000Z</time></trkpt>
<trkpt lat="42.221114" lon="23.580676"><ele>2296.5</ele><time>2026-04-05T13:30:00.000Z</time></trkpt>
<trkpt lat="42.221117" lon="23.58067"><ele>2296.5</ele><time>2026-04-05T13:30:01.000Z</time></trkpt>
<trkpt lat="42.221121" lon="23.580663"><ele>2296.6</ele><time>2026-04-05T13:30:02.000Z</time></trkpt>
<trkpt lat="42.221125" lon="23.580655"><ele>2296.6</ele><time>2026-04-05T13:30:03.000Z</time></trkpt>
<trkpt lat="42.221128" lon="23.580649"><ele>2296.6</ele><time>2026-04-05T13:30:04.000Z</time></trkpt>
<trkpt lat="42.221131" lon="23.580644"><ele>2296.6</ele><time>2026-04-05T13:30:05.000Z</time></trkpt>
<trkpt lat="42.221133" lon="23.580641"><ele>2296.6</ele><time>2026-04-05T13:30:06.000Z</time></trkpt>
<trkpt lat="42.221133" lon="23.580639"><ele>2296.8</ele><time>2026-04-05T13:30:07.000Z</time></trkpt>
<trkpt lat="42.221133" lon="23.580637"><ele>2296.8</ele><time>2026-04-05T13:30:08.000Z</time></trkpt>
<trkpt lat="42.221133" lon="23.580635"><ele>2296.8</ele><time>2026-04-05T13:30:09.000Z</time></trkpt>
<trkpt lat="42.221132" lon="23.580632"><ele>2296.8</ele><time>2026-04-05T13:30:10.000Z</time></trkpt>
<trkpt lat="42.221131" lon="23.580628"><ele>2296.8</ele><time>2026-04-05T13:30:11.000Z</time></trkpt>
<trkpt lat="42.221132" lon="23.580625"><ele>2297.5</ele><time>2026-04-05T13:30:12.000Z</time></trkpt>
<trkpt lat="42.221132" lon="23.580622"><ele>2297.5</ele><time>2026-04-05T13:30:13.000Z</time></trkpt>
<trkpt lat="42.221132" lon="23.580618"><ele>2297.5</ele><time>2026-04-05T13:30:14.000Z</time></trkpt>
<trkpt lat="42.221135" lon="23.580613"><ele>2297.5</ele><time>2026-04-05T13:30:15.000Z</time></trkpt>
<trkpt lat="42.221138" lon="23.580607"><ele>2297.5</ele><time>2026-04-05T13:30:16.000Z</time></trkpt>
<trkpt lat="42.221141" lon="23.5806"><ele>2298.1</ele><time>2026-04-05T13:30:17.000Z</time></trkpt>
<trkpt lat="42.221144" lon="23.580592"><ele>2298.1</ele><time>2026-04-05T13:30:18.000Z</time></trkpt>
<trkpt lat="42.221147" lon="23.580585"><ele>2298.1</ele><time>2026-04-05T13:30:19.000Z</time></trkpt>
<trkpt lat="42.22115" lon="23.580579"><ele>2298.1</ele><time>2026-04-05T13:30:20.000Z</time></trkpt>
<trkpt lat="42.221153" lon="23.580573"><ele>2298.1</ele><time>2026-04-05T13:30:21.000Z</time></trkpt>
<trkpt lat="42.221157" lon="23.580569"><ele>2298.4</ele><time>2026-04-05T13:30:22.000Z</time></trkpt>
<trkpt lat="42.221161" lon="23.580565"><ele>2298.4</ele><time>2026-04-05T13:30:23.000Z</time></trkpt>
<trkpt lat="42.221165" lon="23.580561"><ele>2298.4</ele><time>2026-04-05T13:30:24.000Z</time></trkpt>
<trkpt lat="42.22117" lon="23.580558"><ele>2298.4</ele><time>2026-04-05T13:30:25.000Z</time></trkpt>
<trkpt lat="42.221174" lon="23.580553"><ele>2298.4</ele><time>2026-04-05T13:30:26.000Z</time></trkpt>
<trkpt lat="42.221178" lon="23.580548"><ele>2298.8</ele><time>2026-04-05T13:30:27.000Z</time></trkpt>
<trkpt lat="42.221182" lon="23.580542"><ele>2298.8</ele><time>2026-04-05T13:30:28.000Z</time></trkpt>
<trkpt lat="42.221186" lon="23.580537"><ele>2298.8</ele><time>2026-04-05T13:30:29.000Z</time></trkpt>
<trkpt lat="42.221191" lon="23.580531"><ele>2298.8</ele><time>2026-04-05T13:30:30.000Z</time></trkpt>
<trkpt lat="42.221196" lon="23.580525"><ele>2298.8</ele><time>2026-04-05T13:30:31.000Z</time></trkpt>
<trkpt lat="42.221201" lon="23.58052"><ele>2299.4</ele><time>2026-04-05T13:30:32.000Z</time></trkpt>
<trkpt lat="42.221206" lon="23.580514"><ele>2299.4</ele><time>2026-04-05T13:30:33.000Z</time></trkpt>
<trkpt lat="42.221212" lon="23.580509"><ele>2299.4</ele><time>2026-04-05T13:30:34.000Z</time></trkpt>
<trkpt lat="42.221218" lon="23.580504"><ele>2299.4</ele><time>2026-04-05T13:30:35.000Z</time></trkpt>
<trkpt lat="42.221223" lon="23.5805"><ele>2299.4</ele><time>2026-04-05T13:30:36.000Z</time></trkpt>
<trkpt lat="42.221229" lon="23.580496"><ele>2299.6</ele><time>2026-04-05T13:30:37.000Z</time></trkpt>
<trkpt lat="42.221234" lon="23.58049"><ele>2299.6</ele><time>2026-04-05T13:30:38.000Z</time></trkpt>
<trkpt lat="42.221239" lon="23.580486"><ele>2299.6</ele><time>2026-04-05T13:30:39.000Z</time></trkpt>
<trkpt lat="42.221245" lon="23.580481"><ele>2299.6</ele><time>2026-04-05T13:30:40.000Z</time></trkpt>
<trkpt lat="42.221249" lon="23.580478"><ele>2299.6</ele><time>2026-04-05T13:30:41.000Z</time></trkpt>
<trkpt lat="42.221252" lon="23.580476"><ele>2300.3</ele><time>2026-04-05T13:30:42.000Z</time></trkpt>
<trkpt lat="42.221254" lon="23.580475"><ele>2300.3</ele><time>2026-04-05T13:30:43.000Z</time></trkpt>
<trkpt lat="42.221254" lon="23.580475"><ele>2300.3</ele><time>2026-04-05T13:30:44.000Z</time></trkpt>
<trkpt lat="42.221252" lon="23.580475"><ele>2300.3</ele><time>2026-04-05T13:30:45.000Z</time></trkpt>
<trkpt lat="42.221251" lon="23.580474"><ele>2300.3</ele><time>2026-04-05T13:30:46.000Z</time></trkpt>
<trkpt lat="42.22125" lon="23.580473"><ele>2301.1</ele><time>2026-04-05T13:30:47.000Z</time></trkpt>
<trkpt lat="42.221248" lon="23.580472"><ele>2301.1</ele><time>2026-04-05T13:30:48.000Z</time></trkpt>
<trkpt lat="42.221248" lon="23.580472"><ele>2301.1</ele><time>2026-04-05T13:30:49.000Z</time></trkpt>
<trkpt lat="42.221247" lon="23.580471"><ele>2301.1</ele><time>2026-04-05T13:30:50.000Z</time></trkpt>
<trkpt lat="42.221247" lon="23.580471"><ele>2301.1</ele><time>2026-04-05T13:30:51.000Z</time></trkpt>
<trkpt lat="42.221247" lon="23.580471"><ele>2301.5</ele><time>2026-04-05T13:30:52.000Z</time></trkpt>
<trkpt lat="42.221247" lon="23.580471"><ele>2301.5</ele><time>2026-04-05T13:30:53.000Z</time></trkpt>
<trkpt lat="42.22125" lon="23.58047"><ele>2301.5</ele><time>2026-04-05T13:30:54.000Z</time></trkpt>
<trkpt lat="42.221254" lon="23.580468"><ele>2301.5</ele><time>2026-04-05T13:30:55.000Z</time></trkpt>
<trkpt lat="42.22126" lon="23.580465"><ele>2301.5</ele><time>2026-04-05T13:30:56.000Z</time></trkpt>
<trkpt lat="42.221267" lon="23.580461"><ele>2301.8</ele><time>2026-04-05T13:30:57.000Z</time></trkpt>
<trkpt lat="42.221275" lon="23.580455"><ele>2301.8</ele><time>2026-04-05T13:30:58.000Z</time></trkpt>
<trkpt lat="42.221282" lon="23.580452"><ele>2301.8</ele><time>2026-04-05T13:30:59.000Z</time></trkpt>
<trkpt lat="42.221288" lon="23.580447"><ele>2301.8</ele><time>2026-04-05T13:31:00.000Z</time></trkpt>
<trkpt lat="42.221293" lon="23.580443"><ele>2301.8</ele><time>2026-04-05T13:31:01.000Z</time></trkpt>
<trkpt lat="42.221299" lon="23.580439"><ele>2301.9</ele><time>2026-04-05T13:31:02.000Z</time></trkpt>
<trkpt lat="42.221303" lon="23.580435"><ele>2301.9</ele><time>2026-04-05T13:31:03.000Z</time></trkpt>
<trkpt lat="42.221308" lon="23.580429"><ele>2301.9</ele><time>2026-04-05T13:31:04.000Z</time></trkpt>
<trkpt lat="42.221314" lon="23.580423"><ele>2301.9</ele><time>2026-04-05T13:31:05.000Z</time></trkpt>
<trkpt lat="42.22132" lon="23.580417"><ele>2301.9</ele><time>2026-04-05T13:31:06.000Z</time></trkpt>
<trkpt lat="42.221325" lon="23.580411"><ele>2301.9</ele><time>2026-04-05T13:31:07.000Z</time></trkpt>
<trkpt lat="42.22133" lon="23.580405"><ele>2301.9</ele><time>2026-04-05T13:31:08.000Z</time></trkpt>
<trkpt lat="42.221335" lon="23.580399"><ele>2301.9</ele><time>2026-04-05T13:31:09.000Z</time></trkpt>
<trkpt lat="42.22134" lon="23.580393"><ele>2301.9</ele><time>2026-04-05T13:31:10.000Z</time></trkpt>
<trkpt lat="42.221346" lon="23.580386"><ele>2301.9</ele><time>2026-04-05T13:31:11.000Z</time></trkpt>
<trkpt lat="42.221352" lon="23.580379"><ele>2302.4</ele><time>2026-04-05T13:31:12.000Z</time></trkpt>
<trkpt lat="42.221359" lon="23.580373"><ele>2302.4</ele><time>2026-04-05T13:31:13.000Z</time></trkpt>
<trkpt lat="42.221366" lon="23.580369"><ele>2302.4</ele><time>2026-04-05T13:31:14.000Z</time></trkpt>
<trkpt lat="42.221374" lon="23.580365"><ele>2302.4</ele><time>2026-04-05T13:31:15.000Z</time></trkpt>
<trkpt lat="42.221383" lon="23.580363"><ele>2302.4</ele><time>2026-04-05T13:31:16.000Z</time></trkpt>
<trkpt lat="42.221391" lon="23.58036"><ele>2303.2</ele><time>2026-04-05T13:31:17.000Z</time></trkpt>
<trkpt lat="42.221399" lon="23.580358"><ele>2303.2</ele><time>2026-04-05T13:31:18.000Z</time></trkpt>
<trkpt lat="42.221408" lon="23.580356"><ele>2303.2</ele><time>2026-04-05T13:31:19.000Z</time></trkpt>
<trkpt lat="42.221416" lon="23.580355"><ele>2303.2</ele><time>2026-04-05T13:31:20.000Z</time></trkpt>
<trkpt lat="42.221424" lon="23.580354"><ele>2303.2</ele><time>2026-04-05T13:31:21.000Z</time></trkpt>
<trkpt lat="42.221432" lon="23.580355"><ele>2303.6</ele><time>2026-04-05T13:31:22.000Z</time></trkpt>
<trkpt lat="42.22144" lon="23.580356"><ele>2303.6</ele><time>2026-04-05T13:31:23.000Z</time></trkpt>
<trkpt lat="42.221447" lon="23.580356"><ele>2303.6</ele><time>2026-04-05T13:31:24.000Z</time></trkpt>
<trkpt lat="42.221454" lon="23.580356"><ele>2303.6</ele><time>2026-04-05T13:31:25.000Z</time></trkpt>
<trkpt lat="42.221461" lon="23.580355"><ele>2303.6</ele><time>2026-04-05T13:31:26.000Z</time></trkpt>
<trkpt lat="42.221468" lon="23.580351"><ele>2304.4</ele><time>2026-04-05T13:31:27.000Z</time></trkpt>
<trkpt lat="42.221474" lon="23.580347"><ele>2304.4</ele><time>2026-04-05T13:31:28.000Z</time></trkpt>
<trkpt lat="42.221482" lon="23.580341"><ele>2304.4</ele><time>2026-04-05T13:31:29.000Z</time></trkpt>
<trkpt lat="42.221489" lon="23.580335"><ele>2304.4</ele><time>2026-04-05T13:31:30.000Z</time></trkpt>
<trkpt lat="42.221497" lon="23.580331"><ele>2304.4</ele><time>2026-04-05T13:31:31.000Z</time></trkpt>
<trkpt lat="42.221506" lon="23.58033"><ele>2305.1</ele><time>2026-04-05T13:31:32.000Z</time></trkpt>
<trkpt lat="42.221515" lon="23.580329"><ele>2305.1</ele><time>2026-04-05T13:31:33.000Z</time></trkpt>
<trkpt lat="42.221523" lon="23.58033"><ele>2305.1</ele><time>2026-04-05T13:31:34.000Z</time></trkpt>
<trkpt lat="42.221531" lon="23.580329"><ele>2305.1</ele><time>2026-04-05T13:31:35.000Z</time></trkpt>
<trkpt lat="42.221538" lon="23.580328"><ele>2305.1</ele><time>2026-04-05T13:31:36.000Z</time></trkpt>
<trkpt lat="42.221545" lon="23.580325"><ele>2305.5</ele><time>2026-04-05T13:31:37.000Z</time></trkpt>
<trkpt lat="42.221552" lon="23.580322"><ele>2305.5</ele><time>2026-04-05T13:31:38.000Z</time></trkpt>
<trkpt lat="42.221559" lon="23.580317"><ele>2305.5</ele><time>2026-04-05T13:31:39.000Z</time></trkpt>
<trkpt lat="42.221566" lon="23.580313"><ele>2305.5</ele><time>2026-04-05T13:31:40.000Z</time></trkpt>
<trkpt lat="42.221573" lon="23.580308"><ele>2305.5</ele><time>2026-04-05T13:31:41.000Z</time></trkpt>
<trkpt lat="42.22158" lon="23.580303"><ele>2306.2</ele><time>2026-04-05T13:31:42.000Z</time></trkpt>
<trkpt lat="42.221587" lon="23.580298"><ele>2306.2</ele><time>2026-04-05T13:31:43.000Z</time></trkpt>
<trkpt lat="42.221593" lon="23.580293"><ele>2306.2</ele><time>2026-04-05T13:31:44.000Z</time></trkpt>
<trkpt lat="42.221601" lon="23.580289"><ele>2306.2</ele><time>2026-04-05T13:31:45.000Z</time></trkpt>
<trkpt lat="42.221608" lon="23.580284"><ele>2306.2</ele><time>2026-04-05T13:31:46.000Z</time></trkpt>
<trkpt lat="42.221616" lon="23.58028"><ele>2306.8</ele><time>2026-04-05T13:31:47.000Z</time></trkpt>
<trkpt lat="42.221624" lon="23.580276"><ele>2306.8</ele><time>2026-04-05T13:31:48.000Z</time></trkpt>
<trkpt lat="42.221633" lon="23.580272"><ele>2306.8</ele><time>2026-04-05T13:31:49.000Z</time></trkpt>
<trkpt lat="42.221641" lon="23.58027"><ele>2306.8</ele><time>2026-04-05T13:31:50.000Z</time></trkpt>
<trkpt lat="42.221649" lon="23.580268"><ele>2306.8</ele><time>2026-04-05T13:31:51.000Z</time></trkpt>
<trkpt lat="42.221658" lon="23.580267"><ele>2307.2</ele><time>2026-04-05T13:31:52.000Z</time></trkpt>
<trkpt lat="42.221666" lon="23.580266"><ele>2307.2</ele><time>2026-04-05T13:31:53.000Z</time></trkpt>
<trkpt lat="42.221674" lon="23.580266"><ele>2307.2</ele><time>2026-04-05T13:31:54.000Z</time></trkpt>
<trkpt lat="42.221682" lon="23.580267"><ele>2307.2</ele><time>2026-04-05T13:31:55.000Z</time></trkpt>
<trkpt lat="42.221689" lon="23.580266"><ele>2307.2</ele><time>2026-04-05T13:31:56.000Z</time></trkpt>
<trkpt lat="42.221696" lon="23.580264"><ele>2308</ele><time>2026-04-05T13:31:57.000Z</time></trkpt>
<trkpt lat="42.221703" lon="23.580262"><ele>2308</ele><time>2026-04-05T13:31:58.000Z</time></trkpt>
<trkpt lat="42.22171" lon="23.580259"><ele>2308</ele><time>2026-04-05T13:31:59.000Z</time></trkpt>
<trkpt lat="42.221716" lon="23.580255"><ele>2308</ele><time>2026-04-05T13:32:00.000Z</time></trkpt>
<trkpt lat="42.221723" lon="23.580252"><ele>2308</ele><time>2026-04-05T13:32:01.000Z</time></trkpt>
<trkpt lat="42.221729" lon="23.580249"><ele>2308.8</ele><time>2026-04-05T13:32:02.000Z</time></trkpt>
<trkpt lat="42.221735" lon="23.580245"><ele>2308.8</ele><time>2026-04-05T13:32:03.000Z</time></trkpt>
<trkpt lat="42.221742" lon="23.580243"><ele>2308.8</ele><time>2026-04-05T13:32:04.000Z</time></trkpt>
<trkpt lat="42.221749" lon="23.580241"><ele>2308.8</ele><time>2026-04-05T13:32:05.000Z</time></trkpt>
<trkpt lat="42.221756" lon="23.58024"><ele>2308.8</ele><time>2026-04-05T13:32:06.000Z</time></trkpt>
<trkpt lat="42.221763" lon="23.58024"><ele>2309.2</ele><time>2026-04-05T13:32:07.000Z</time></trkpt>
<trkpt lat="42.221771" lon="23.580241"><ele>2309.2</ele><time>2026-04-05T13:32:08.000Z</time></trkpt>
<trkpt lat="42.221779" lon="23.580241"><ele>2309.2</ele><time>2026-04-05T13:32:09.000Z</time></trkpt>
<trkpt lat="42.221786" lon="23.580243"><ele>2309.2</ele><time>2026-04-05T13:32:10.000Z</time></trkpt>
<trkpt lat="42.221794" lon="23.580244"><ele>2309.2</ele><time>2026-04-05T13:32:11.000Z</time></trkpt>
<trkpt lat="42.221803" lon="23.580244"><ele>2309.8</ele><time>2026-04-05T13:32:12.000Z</time></trkpt>
<trkpt lat="42.22181" lon="23.580244"><ele>2309.8</ele><time>2026-04-05T13:32:13.000Z</time></trkpt>
<trkpt lat="42.221818" lon="23.580243"><ele>2309.8</ele><time>2026-04-05T13:32:14.000Z</time></trkpt>
<trkpt lat="42.221826" lon="23.580242"><ele>2309.8</ele><time>2026-04-05T13:32:15.000Z</time></trkpt>
<trkpt lat="42.221833" lon="23.580239"><ele>2309.8</ele><time>2026-04-05T13:32:16.000Z</time></trkpt>
<trkpt lat="42.221841" lon="23.580237"><ele>2310.4</ele><time>2026-04-05T13:32:17.000Z</time></trkpt>
<trkpt lat="42.22185" lon="23.580234"><ele>2310.4</ele><time>2026-04-05T13:32:18.000Z</time></trkpt>
<trkpt lat="42.221857" lon="23.580232"><ele>2310.4</ele><time>2026-04-05T13:32:19.000Z</time></trkpt>
<trkpt lat="42.221865" lon="23.58023"><ele>2310.4</ele><time>2026-04-05T13:32:20.000Z</time></trkpt>
<trkpt lat="42.221873" lon="23.580226"><ele>2310.4</ele><time>2026-04-05T13:32:21.000Z</time></trkpt>
<trkpt lat="42.221881" lon="23.580223"><ele>2310.6</ele><time>2026-04-05T13:32:22.000Z</time></trkpt>
<trkpt lat="42.221887" lon="23.580219"><ele>2310.6</ele><time>2026-04-05T13:32:23.000Z</time></trkpt>
<trkpt lat="42.221896" lon="23.580215"><ele>2310.6</ele><time>2026-04-05T13:32:24.000Z</time></trkpt>
<trkpt lat="42.221904" lon="23.58021"><ele>2310.6</ele><time>2026-04-05T13:32:25.000Z</time></trkpt>
<trkpt lat="42.221911" lon="23.580207"><ele>2310.6</ele><time>2026-04-05T13:32:26.000Z</time></trkpt>
<trkpt lat="42.221919" lon="23.580204"><ele>2311.2</ele><time>2026-04-05T13:32:27.000Z</time></trkpt>
<trkpt lat="42.221927" lon="23.580201"><ele>2311.2</ele><time>2026-04-05T13:32:28.000Z</time></trkpt>
<trkpt lat="42.221934" lon="23.580198"><ele>2311.2</ele><time>2026-04-05T13:32:29.000Z</time></trkpt>
<trkpt lat="42.22194" lon="23.580194"><ele>2311.2</ele><time>2026-04-05T13:32:30.000Z</time></trkpt>
<trkpt lat="42.221948" lon="23.58019"><ele>2311.2</ele><time>2026-04-05T13:32:31.000Z</time></trkpt>
<trkpt lat="42.221954" lon="23.580186"><ele>2312</ele><time>2026-04-05T13:32:32.000Z</time></trkpt>
<trkpt lat="42.221961" lon="23.580182"><ele>2312</ele><time>2026-04-05T13:32:33.000Z</time></trkpt>
<trkpt lat="42.221968" lon="23.580179"><ele>2312</ele><time>2026-04-05T13:32:34.000Z</time></trkpt>
<trkpt lat="42.221976" lon="23.580176"><ele>2312</ele><time>2026-04-05T13:32:35.000Z</time></trkpt>
<trkpt lat="42.221983" lon="23.580175"><ele>2312</ele><time>2026-04-05T13:32:36.000Z</time></trkpt>
<trkpt lat="42.221992" lon="23.580173"><ele>2312.4</ele><time>2026-04-05T13:32:37.000Z</time></trkpt>
<trkpt lat="42.222" lon="23.580171"><ele>2312.4</ele><time>2026-04-05T13:32:38.000Z</time></trkpt>
<trkpt lat="42.222007" lon="23.58017"><ele>2312.4</ele><time>2026-04-05T13:32:39.000Z</time></trkpt>
<trkpt lat="42.222014" lon="23.580168"><ele>2312.4</ele><time>2026-04-05T13:32:40.000Z</time></trkpt>
<trkpt lat="42.222022" lon="23.580167"><ele>2312.4</ele><time>2026-04-05T13:32:41.000Z</time></trkpt>
<trkpt lat="42.222028" lon="23.580166"><ele>2313.3</ele><time>2026-04-05T13:32:42.000Z</time></trkpt>
<trkpt lat="42.222035" lon="23.580165"><ele>2313.3</ele><time>2026-04-05T13:32:43.000Z</time></trkpt>
<trkpt lat="42.222042" lon="23.580165"><ele>2313.3</ele><time>2026-04-05T13:32:44.000Z</time></trkpt>
<trkpt lat="42.222048" lon="23.580164"><ele>2313.3</ele><time>2026-04-05T13:32:45.000Z</time></trkpt>
<trkpt lat="42.222055" lon="23.580164"><ele>2313.3</ele><time>2026-04-05T13:32:46.000Z</time></trkpt>
<trkpt lat="42.222062" lon="23.580165"><ele>2314.1</ele><time>2026-04-05T13:32:47.000Z</time></trkpt>
<trkpt lat="42.222069" lon="23.580165"><ele>2314.1</ele><time>2026-04-05T13:32:48.000Z</time></trkpt>
<trkpt lat="42.222075" lon="23.580165"><ele>2314.1</ele><time>2026-04-05T13:32:49.000Z</time></trkpt>
<trkpt lat="42.222081" lon="23.580164"><ele>2314.1</ele><time>2026-04-05T13:32:50.000Z</time></trkpt>
<trkpt lat="42.222088" lon="23.580161"><ele>2314.1</ele><time>2026-04-05T13:32:51.000Z</time></trkpt>
<trkpt lat="42.222095" lon="23.580156"><ele>2314.6</ele><time>2026-04-05T13:32:52.000Z</time></trkpt>
<trkpt lat="42.222102" lon="23.580154"><ele>2314.6</ele><time>2026-04-05T13:32:53.000Z</time></trkpt>
<trkpt lat="42.22211" lon="23.580153"><ele>2314.6</ele><time>2026-04-05T13:32:54.000Z</time></trkpt>
<trkpt lat="42.222118" lon="23.580154"><ele>2314.6</ele><time>2026-04-05T13:32:55.000Z</time></trkpt>
<trkpt lat="42.222126" lon="23.580156"><ele>2314.6</ele><time>2026-04-05T13:32:56.000Z</time></trkpt>
<trkpt lat="42.222134" lon="23.58016"><ele>2315.6</ele><time>2026-04-05T13:32:57.000Z</time></trkpt>
<trkpt lat="42.222141" lon="23.580162"><ele>2315.6</ele><time>2026-04-05T13:32:58.000Z</time></trkpt>
<trkpt lat="42.222149" lon="23.580162"><ele>2315.6</ele><time>2026-04-05T13:32:59.000Z</time></trkpt>
<trkpt lat="42.222156" lon="23.580161"><ele>2315.6</ele><time>2026-04-05T13:33:00.000Z</time></trkpt>
<trkpt lat="42.222164" lon="23.580158"><ele>2315.6</ele><time>2026-04-05T13:33:01.000Z</time></trkpt>
<trkpt lat="42.22217" lon="23.580155"><ele>2316.4</ele><time>2026-04-05T13:33:02.000Z</time></trkpt>
<trkpt lat="42.222177" lon="23.580151"><ele>2316.4</ele><time>2026-04-05T13:33:03.000Z</time></trkpt>
<trkpt lat="42.222185" lon="23.580147"><ele>2316.4</ele><time>2026-04-05T13:33:04.000Z</time></trkpt>
<trkpt lat="42.222191" lon="23.580144"><ele>2316.4</ele><time>2026-04-05T13:33:05.000Z</time></trkpt>
<trkpt lat="42.222199" lon="23.580142"><ele>2316.4</ele><time>2026-04-05T13:33:06.000Z</time></trkpt>
<trkpt lat="42.222207" lon="23.580141"><ele>2316.7</ele><time>2026-04-05T13:33:07.000Z</time></trkpt>
<trkpt lat="42.222214" lon="23.58014"><ele>2316.7</ele><time>2026-04-05T13:33:08.000Z</time></trkpt>
<trkpt lat="42.222221" lon="23.58014"><ele>2316.7</ele><time>2026-04-05T13:33:09.000Z</time></trkpt>
<trkpt lat="42.222229" lon="23.58014"><ele>2316.7</ele><time>2026-04-05T13:33:10.000Z</time></trkpt>
<trkpt lat="42.222236" lon="23.580139"><ele>2316.7</ele><time>2026-04-05T13:33:11.000Z</time></trkpt>
<trkpt lat="42.222243" lon="23.580138"><ele>2317.2</ele><time>2026-04-05T13:33:12.000Z</time></trkpt>
<trkpt lat="42.222251" lon="23.580137"><ele>2317.2</ele><time>2026-04-05T13:33:13.000Z</time></trkpt>
<trkpt lat="42.222258" lon="23.580136"><ele>2317.2</ele><time>2026-04-05T13:33:14.000Z</time></trkpt>
<trkpt lat="42.222265" lon="23.580136"><ele>2317.2</ele><time>2026-04-05T13:33:15.000Z</time></trkpt>
<trkpt lat="42.222272" lon="23.580137"><ele>2317.2</ele><time>2026-04-05T13:33:16.000Z</time></trkpt>
<trkpt lat="42.222278" lon="23.580138"><ele>2317.8</ele><time>2026-04-05T13:33:17.000Z</time></trkpt>
<trkpt lat="42.222282" lon="23.58014"><ele>2317.8</ele><time>2026-04-05T13:33:18.000Z</time></trkpt>
<trkpt lat="42.222286" lon="23.580141"><ele>2317.8</ele><time>2026-04-05T13:33:19.000Z</time></trkpt>
<trkpt lat="42.222287" lon="23.58014"><ele>2317.8</ele><time>2026-04-05T13:33:20.000Z</time></trkpt>
<trkpt lat="42.222287" lon="23.580139"><ele>2317.8</ele><time>2026-04-05T13:33:21.000Z</time></trkpt>
<trkpt lat="42.222287" lon="23.580135"><ele>2318.1</ele><time>2026-04-05T13:33:22.000Z</time></trkpt>
<trkpt lat="42.222288" lon="23.580132"><ele>2318.1</ele><time>2026-04-05T13:33:23.000Z</time></trkpt>
<trkpt lat="42.22229" lon="23.58013"><ele>2318.1</ele><time>2026-04-05T13:33:24.000Z</time></trkpt>
<trkpt lat="42.222294" lon="23.580128"><ele>2318.1</ele><time>2026-04-05T13:33:25.000Z</time></trkpt>
<trkpt lat="42.222299" lon="23.580127"><ele>2318.1</ele><time>2026-04-05T13:33:26.000Z</time></trkpt>
<trkpt lat="42.222306" lon="23.580127"><ele>2318.6</ele><time>2026-04-05T13:33:27.000Z</time></trkpt>
<trkpt lat="42.222314" lon="23.580127"><ele>2318.6</ele><time>2026-04-05T13:33:28.000Z</time></trkpt>
<trkpt lat="42.222323" lon="23.580126"><ele>2318.6</ele><time>2026-04-05T13:33:29.000Z</time></trkpt>
<trkpt lat="42.222331" lon="23.580126"><ele>2318.6</ele><time>2026-04-05T13:33:30.000Z</time></trkpt>
<trkpt lat="42.22234" lon="23.580126"><ele>2318.6</ele><time>2026-04-05T13:33:31.000Z</time></trkpt>
<trkpt lat="42.222349" lon="23.580125"><ele>2319.1</ele><time>2026-04-05T13:33:32.000Z</time></trkpt>
<trkpt lat="42.222357" lon="23.580125"><ele>2319.1</ele><time>2026-04-05T13:33:33.000Z</time></trkpt>
<trkpt lat="42.222364" lon="23.580127"><ele>2319.1</ele><time>2026-04-05T13:33:34.000Z</time></trkpt>
<trkpt lat="42.222371" lon="23.580128"><ele>2319.1</ele><time>2026-04-05T13:33:35.000Z</time></trkpt>
<trkpt lat="42.222379" lon="23.58013"><ele>2319.1</ele><time>2026-04-05T13:33:36.000Z</time></trkpt>
<trkpt lat="42.222386" lon="23.580132"><ele>2319.4</ele><time>2026-04-05T13:33:37.000Z</time></trkpt>
<trkpt lat="42.222394" lon="23.580133"><ele>2319.4</ele><time>2026-04-05T13:33:38.000Z</time></trkpt>
<trkpt lat="42.222401" lon="23.580134"><ele>2319.4</ele><time>2026-04-05T13:33:39.000Z</time></trkpt>
<trkpt lat="42.222408" lon="23.580134"><ele>2319.4</ele><time>2026-04-05T13:33:40.000Z</time></trkpt>
<trkpt lat="42.222416" lon="23.580136"><ele>2319.4</ele><time>2026-04-05T13:33:41.000Z</time></trkpt>
<trkpt lat="42.222424" lon="23.580136"><ele>2320</ele><time>2026-04-05T13:33:42.000Z</time></trkpt>
<trkpt lat="42.22243" lon="23.580136"><ele>2320</ele><time>2026-04-05T13:33:43.000Z</time></trkpt>
<trkpt lat="42.222438" lon="23.580135"><ele>2320</ele><time>2026-04-05T13:33:44.000Z</time></trkpt>
<trkpt lat="42.222446" lon="23.580135"><ele>2320</ele><time>2026-04-05T13:33:45.000Z</time></trkpt>
<trkpt lat="42.222453" lon="23.580133"><ele>2320</ele><time>2026-04-05T13:33:46.000Z</time></trkpt>
<trkpt lat="42.22246" lon="23.580133"><ele>2320.7</ele><time>2026-04-05T13:33:47.000Z</time></trkpt>
<trkpt lat="42.222468" lon="23.580133"><ele>2320.7</ele><time>2026-04-05T13:33:48.000Z</time></trkpt>
<trkpt lat="42.222474" lon="23.580133"><ele>2320.7</ele><time>2026-04-05T13:33:49.000Z</time></trkpt>
<trkpt lat="42.222481" lon="23.580132"><ele>2320.7</ele><time>2026-04-05T13:33:50.000Z</time></trkpt>
<trkpt lat="42.222488" lon="23.580132"><ele>2320.7</ele><time>2026-04-05T13:33:51.000Z</time></trkpt>
<trkpt lat="42.222495" lon="23.580131"><ele>2321.1</ele><time>2026-04-05T13:33:52.000Z</time></trkpt>
<trkpt lat="42.222502" lon="23.580131"><ele>2321.1</ele><time>2026-04-05T13:33:53.000Z</time></trkpt>
<trkpt lat="42.222509" lon="23.580131"><ele>2321.1</ele><time>2026-04-05T13:33:54.000Z</time></trkpt>
<trkpt lat="42.222516" lon="23.580131"><ele>2321.1</ele><time>2026-04-05T13:33:55.000Z</time></trkpt>
<trkpt lat="42.222523" lon="23.580131"><ele>2321.1</ele><time>2026-04-05T13:33:56.000Z</time></trkpt>
<trkpt lat="42.222531" lon="23.580131"><ele>2321.8</ele><time>2026-04-05T13:33:57.000Z</time></trkpt>
<trkpt lat="42.222538" lon="23.580131"><ele>2321.8</ele><time>2026-04-05T13:33:58.000Z</time></trkpt>
<trkpt lat="42.222545" lon="23.580131"><ele>2321.8</ele><time>2026-04-05T13:33:59.000Z</time></trkpt>
<trkpt lat="42.222554" lon="23.580131"><ele>2321.8</ele><time>2026-04-05T13:34:00.000Z</time></trkpt>
<trkpt lat="42.222561" lon="23.580131"><ele>2321.8</ele><time>2026-04-05T13:34:01.000Z</time></trkpt>
<trkpt lat="42.222568" lon="23.58013"><ele>2322.8</ele><time>2026-04-05T13:34:02.000Z</time></trkpt>
<trkpt lat="42.222577" lon="23.58013"><ele>2322.8</ele><time>2026-04-05T13:34:03.000Z</time></trkpt>
<trkpt lat="42.222584" lon="23.580131"><ele>2322.8</ele><time>2026-04-05T13:34:04.000Z</time></trkpt>
<trkpt lat="42.22259" lon="23.580132"><ele>2322.8</ele><time>2026-04-05T13:34:05.000Z</time></trkpt>
<trkpt lat="42.222597" lon="23.580133"><ele>2322.8</ele><time>2026-04-05T13:34:06.000Z</time></trkpt>
<trkpt lat="42.222605" lon="23.580134"><ele>2323.3</ele><time>2026-04-05T13:34:07.000Z</time></trkpt>
<trkpt lat="42.222612" lon="23.580135"><ele>2323.3</ele><time>2026-04-05T13:34:08.000Z</time></trkpt>
<trkpt lat="42.22262" lon="23.580135"><ele>2323.3</ele><time>2026-04-05T13:34:09.000Z</time></trkpt>
<trkpt lat="42.222628" lon="23.580134"><ele>2323.3</ele><time>2026-04-05T13:34:10.000Z</time></trkpt>
<trkpt lat="42.222635" lon="23.580134"><ele>2323.3</ele><time>2026-04-05T13:34:11.000Z</time></trkpt>
<trkpt lat="42.222643" lon="23.580133"><ele>2324.2</ele><time>2026-04-05T13:34:12.000Z</time></trkpt>
<trkpt lat="42.222651" lon="23.580132"><ele>2324.2</ele><time>2026-04-05T13:34:13.000Z</time></trkpt>
<trkpt lat="42.222659" lon="23.580131"><ele>2324.2</ele><time>2026-04-05T13:34:14.000Z</time></trkpt>
<trkpt lat="42.222666" lon="23.580131"><ele>2324.2</ele><time>2026-04-05T13:34:15.000Z</time></trkpt>
<trkpt lat="42.222675" lon="23.580131"><ele>2324.2</ele><time>2026-04-05T13:34:16.000Z</time></trkpt>
<trkpt lat="42.222684" lon="23.580132"><ele>2324.9</ele><time>2026-04-05T13:34:17.000Z</time></trkpt>
<trkpt lat="42.222692" lon="23.580134"><ele>2324.9</ele><time>2026-04-05T13:34:18.000Z</time></trkpt>
<trkpt lat="42.222701" lon="23.580135"><ele>2324.9</ele><time>2026-04-05T13:34:19.000Z</time></trkpt>
<trkpt lat="42.22271" lon="23.580135"><ele>2324.9</ele><time>2026-04-05T13:34:20.000Z</time></trkpt>
<trkpt lat="42.222717" lon="23.580136"><ele>2324.9</ele><time>2026-04-05T13:34:21.000Z</time></trkpt>
<trkpt lat="42.222726" lon="23.580136"><ele>2325.1</ele><time>2026-04-05T13:34:22.000Z</time></trkpt>
<trkpt lat="42.222735" lon="23.580137"><ele>2325.1</ele><time>2026-04-05T13:34:23.000Z</time></trkpt>
<trkpt lat="42.222743" lon="23.580139"><ele>2325.1</ele><time>2026-04-05T13:34:24.000Z</time></trkpt>
<trkpt lat="42.22275" lon="23.58014"><ele>2325.1</ele><time>2026-04-05T13:34:25.000Z</time></trkpt>
<trkpt lat="42.222757" lon="23.580142"><ele>2325.1</ele><time>2026-04-05T13:34:26.000Z</time></trkpt>
<trkpt lat="42.222762" lon="23.580143"><ele>2325.6</ele><time>2026-04-05T13:34:27.000Z</time></trkpt>
<trkpt lat="42.222764" lon="23.580143"><ele>2325.6</ele><time>2026-04-05T13:34:28.000Z</time></trkpt>
<trkpt lat="42.222765" lon="23.580145"><ele>2325.6</ele><time>2026-04-05T13:34:29.000Z</time></trkpt>
<trkpt lat="42.222765" lon="23.580145"><ele>2325.6</ele><time>2026-04-05T13:34:30.000Z</time></trkpt>
<trkpt lat="42.222765" lon="23.580145"><ele>2325.6</ele><time>2026-04-05T13:34:31.000Z</time></trkpt>
<trkpt lat="42.222765" lon="23.580145"><ele>2326</ele><time>2026-04-05T13:34:32.000Z</time></trkpt>
<trkpt lat="42.222765" lon="23.580144"><ele>2326</ele><time>2026-04-05T13:34:33.000Z</time></trkpt>
<trkpt lat="42.222765" lon="23.580143"><ele>2326</ele><time>2026-04-05T13:34:34.000Z</time></trkpt>
<trkpt lat="42.222764" lon="23.580142"><ele>2326</ele><time>2026-04-05T13:34:35.000Z</time></trkpt>
<trkpt lat="42.222765" lon="23.580141"><ele>2326</ele><time>2026-04-05T13:34:36.000Z</time></trkpt>
<trkpt lat="42.222768" lon="23.580139"><ele>2326.2</ele><time>2026-04-05T13:34:37.000Z</time></trkpt>
<trkpt lat="42.222772" lon="23.580138"><ele>2326.2</ele><time>2026-04-05T13:34:38.000Z</time></trkpt>
<trkpt lat="42.222779" lon="23.580139"><ele>2326.2</ele><time>2026-04-05T13:34:39.000Z</time></trkpt>
<trkpt lat="42.222787" lon="23.580139"><ele>2326.2</ele><time>2026-04-05T13:34:40.000Z</time></trkpt>
<trkpt lat="42.222795" lon="23.58014"><ele>2326.2</ele><time>2026-04-05T13:34:41.000Z</time></trkpt>
<trkpt lat="42.222802" lon="23.580142"><ele>2326.4</ele><time>2026-04-05T13:34:42.000Z</time></trkpt>
<trkpt lat="42.222809" lon="23.580143"><ele>2326.4</ele><time>2026-04-05T13:34:43.000Z</time></trkpt>
<trkpt lat="42.222816" lon="23.580144"><ele>2326.4</ele><time>2026-04-05T13:34:44.000Z</time></trkpt>
<trkpt lat="42.222824" lon="23.580143"><ele>2326.4</ele><time>2026-04-05T13:34:45.000Z</time></trkpt>
<trkpt lat="42.222832" lon="23.580142"><ele>2326.4</ele><time>2026-04-05T13:34:46.000Z</time></trkpt>
<trkpt lat="42.22284" lon="23.580142"><ele>2326.4</ele><time>2026-04-05T13:34:47.000Z</time></trkpt>
<trkpt lat="42.22285" lon="23.580141"><ele>2326.4</ele><time>2026-04-05T13:34:48.000Z</time></trkpt>
<trkpt lat="42.222859" lon="23.580142"><ele>2326.4</ele><time>2026-04-05T13:34:49.000Z</time></trkpt>
<trkpt lat="42.222868" lon="23.580143"><ele>2326.4</ele><time>2026-04-05T13:34:50.000Z</time></trkpt>
<trkpt lat="42.222877" lon="23.580144"><ele>2326.4</ele><time>2026-04-05T13:34:51.000Z</time></trkpt>
<trkpt lat="42.222886" lon="23.580145"><ele>2326.4</ele><time>2026-04-05T13:34:52.000Z</time></trkpt>
<trkpt lat="42.222895" lon="23.580146"><ele>2326.4</ele><time>2026-04-05T13:34:53.000Z</time></trkpt>
<trkpt lat="42.222904" lon="23.580147"><ele>2326.4</ele><time>2026-04-05T13:34:54.000Z</time></trkpt>
<trkpt lat="42.222913" lon="23.580147"><ele>2326.4</ele><time>2026-04-05T13:34:55.000Z</time></trkpt>
<trkpt lat="42.222922" lon="23.580148"><ele>2326.4</ele><time>2026-04-05T13:34:56.000Z</time></trkpt>
<trkpt lat="42.222931" lon="23.580149"><ele>2326.6</ele><time>2026-04-05T13:34:57.000Z</time></trkpt>
<trkpt lat="42.22294" lon="23.58015"><ele>2326.6</ele><time>2026-04-05T13:34:58.000Z</time></trkpt>
<trkpt lat="42.222949" lon="23.580151"><ele>2326.6</ele><time>2026-04-05T13:34:59.000Z</time></trkpt>
<trkpt lat="42.222958" lon="23.580152"><ele>2326.6</ele><time>2026-04-05T13:35:00.000Z</time></trkpt>
<trkpt lat="42.222968" lon="23.580151"><ele>2326.6</ele><time>2026-04-05T13:35:01.000Z</time></trkpt>
<trkpt lat="42.222977" lon="23.580151"><ele>2327.2</ele><time>2026-04-05T13:35:02.000Z</time></trkpt>
<trkpt lat="42.222986" lon="23.58015"><ele>2327.2</ele><time>2026-04-05T13:35:03.000Z</time></trkpt>
<trkpt lat="42.222996" lon="23.58015"><ele>2327.2</ele><time>2026-04-05T13:35:04.000Z</time></trkpt>
<trkpt lat="42.223005" lon="23.580151"><ele>2327.2</ele><time>2026-04-05T13:35:05.000Z</time></trkpt>
<trkpt lat="42.223013" lon="23.580151"><ele>2327.2</ele><time>2026-04-05T13:35:06.000Z</time></trkpt>
<trkpt lat="42.223022" lon="23.580152"><ele>2327.4</ele><time>2026-04-05T13:35:07.000Z</time></trkpt>
<trkpt lat="42.223031" lon="23.580152"><ele>2327.4</ele><time>2026-04-05T13:35:08.000Z</time></trkpt>
<trkpt lat="42.223039" lon="23.580152"><ele>2327.4</ele><time>2026-04-05T13:35:09.000Z</time></trkpt>
<trkpt lat="42.223048" lon="23.580152"><ele>2327.4</ele><time>2026-04-05T13:35:10.000Z</time></trkpt>
<trkpt lat="42.223055" lon="23.580152"><ele>2327.4</ele><time>2026-04-05T13:35:11.000Z</time></trkpt>
<trkpt lat="42.223062" lon="23.580151"><ele>2328</ele><time>2026-04-05T13:35:12.000Z</time></trkpt>
<trkpt lat="42.22307" lon="23.580151"><ele>2328</ele><time>2026-04-05T13:35:13.000Z</time></trkpt>
<trkpt lat="42.223077" lon="23.58015"><ele>2328</ele><time>2026-04-05T13:35:14.000Z</time></trkpt>
<trkpt lat="42.223084" lon="23.580148"><ele>2328</ele><time>2026-04-05T13:35:15.000Z</time></trkpt>
<trkpt lat="42.223092" lon="23.580146"><ele>2328</ele><time>2026-04-05T13:35:16.000Z</time></trkpt>
<trkpt lat="42.2231" lon="23.580145"><ele>2328.5</ele><time>2026-04-05T13:35:17.000Z</time></trkpt>
<trkpt lat="42.223107" lon="23.580144"><ele>2328.5</ele><time>2026-04-05T13:35:18.000Z</time></trkpt>
<trkpt lat="42.223115" lon="23.580144"><ele>2328.5</ele><time>2026-04-05T13:35:19.000Z</time></trkpt>
<trkpt lat="42.223124" lon="23.580144"><ele>2328.5</ele><time>2026-04-05T13:35:20.000Z</time></trkpt>
<trkpt lat="42.223132" lon="23.580144"><ele>2328.5</ele><time>2026-04-05T13:35:21.000Z</time></trkpt>
<trkpt lat="42.22314" lon="23.580144"><ele>2328.8</ele><time>2026-04-05T13:35:22.000Z</time></trkpt>
<trkpt lat="42.223149" lon="23.580145"><ele>2328.8</ele><time>2026-04-05T13:35:23.000Z</time></trkpt>
<trkpt lat="42.223158" lon="23.580146"><ele>2328.8</ele><time>2026-04-05T13:35:24.000Z</time></trkpt>
<trkpt lat="42.223167" lon="23.580148"><ele>2328.8</ele><time>2026-04-05T13:35:25.000Z</time></trkpt>
<trkpt lat="42.223176" lon="23.58015"><ele>2328.8</ele><time>2026-04-05T13:35:26.000Z</time></trkpt>
<trkpt lat="42.223185" lon="23.580152"><ele>2329.3</ele><time>2026-04-05T13:35:27.000Z</time></trkpt>
<trkpt lat="42.223195" lon="23.580153"><ele>2329.3</ele><time>2026-04-05T13:35:28.000Z</time></trkpt>
<trkpt lat="42.223203" lon="23.580154"><ele>2329.3</ele><time>2026-04-05T13:35:29.000Z</time></trkpt>
<trkpt lat="42.223212" lon="23.580154"><ele>2329.3</ele><time>2026-04-05T13:35:30.000Z</time></trkpt>
<trkpt lat="42.223221" lon="23.580154"><ele>2329.3</ele><time>2026-04-05T13:35:31.000Z</time></trkpt>
<trkpt lat="42.223231" lon="23.580152"><ele>2329.7</ele><time>2026-04-05T13:35:32.000Z</time></trkpt>
<trkpt lat="42.22324" lon="23.580152"><ele>2329.7</ele><time>2026-04-05T13:35:33.000Z</time></trkpt>
<trkpt lat="42.22325" lon="23.580151"><ele>2329.7</ele><time>2026-04-05T13:35:34.000Z</time></trkpt>
<trkpt lat="42.22326" lon="23.580151"><ele>2329.7</ele><time>2026-04-05T13:35:35.000Z</time></trkpt>
<trkpt lat="42.22327" lon="23.58015"><ele>2329.7</ele><time>2026-04-05T13:35:36.000Z</time></trkpt>
<trkpt lat="42.22328" lon="23.580149"><ele>2329.8</ele><time>2026-04-05T13:35:37.000Z</time></trkpt>
<trkpt lat="42.22329" lon="23.580148"><ele>2329.8</ele><time>2026-04-05T13:35:38.000Z</time></trkpt>
<trkpt lat="42.223299" lon="23.580146"><ele>2329.8</ele><time>2026-04-05T13:35:39.000Z</time></trkpt>
<trkpt lat="42.223309" lon="23.580144"><ele>2329.8</ele><time>2026-04-05T13:35:40.000Z</time></trkpt>
<trkpt lat="42.223319" lon="23.580141"><ele>2329.8</ele><time>2026-04-05T13:35:41.000Z</time></trkpt>
<trkpt lat="42.223328" lon="23.580138"><ele>2329.9</ele><time>2026-04-05T13:35:42.000Z</time></trkpt>
<trkpt lat="42.223339" lon="23.580135"><ele>2329.9</ele><time>2026-04-05T13:35:43.000Z</time></trkpt>
<trkpt lat="42.22335" lon="23.580131"><ele>2329.9</ele><time>2026-04-05T13:35:44.000Z</time></trkpt>
<trkpt lat="42.223361" lon="23.580129"><ele>2329.9</ele><time>2026-04-05T13:35:45.000Z</time></trkpt>
<trkpt lat="42.223371" lon="23.580127"><ele>2329.9</ele><time>2026-04-05T13:35:46.000Z</time></trkpt>
<trkpt lat="42.223381" lon="23.580126"><ele>2330.1</ele><time>2026-04-05T13:35:47.000Z</time></trkpt>
<trkpt lat="42.22339" lon="23.580125"><ele>2330.1</ele><time>2026-04-05T13:35:48.000Z</time></trkpt>
<trkpt lat="42.2234" lon="23.580125"><ele>2330.1</ele><time>2026-04-05T13:35:49.000Z</time></trkpt>
<trkpt lat="42.223409" lon="23.580125"><ele>2330.1</ele><time>2026-04-05T13:35:50.000Z</time></trkpt>
<trkpt lat="42.223418" lon="23.580124"><ele>2330.1</ele><time>2026-04-05T13:35:51.000Z</time></trkpt>
<trkpt lat="42.223427" lon="23.580125"><ele>2330.2</ele><time>2026-04-05T13:35:52.000Z</time></trkpt>
<trkpt lat="42.223437" lon="23.580125"><ele>2330.2</ele><time>2026-04-05T13:35:53.000Z</time></trkpt>
<trkpt lat="42.223446" lon="23.580126"><ele>2330.2</ele><time>2026-04-05T13:35:54.000Z</time></trkpt>
<trkpt lat="42.223456" lon="23.580126"><ele>2330.2</ele><time>2026-04-05T13:35:55.000Z</time></trkpt>
<trkpt lat="42.223466" lon="23.580126"><ele>2330.2</ele><time>2026-04-05T13:35:56.000Z</time></trkpt>
<trkpt lat="42.223475" lon="23.580125"><ele>2330.6</ele><time>2026-04-05T13:35:57.000Z</time></trkpt>
<trkpt lat="42.223484" lon="23.580124"><ele>2330.6</ele><time>2026-04-05T13:35:58.000Z</time></trkpt>
<trkpt lat="42.223493" lon="23.580122"><ele>2330.6</ele><time>2026-04-05T13:35:59.000Z</time></trkpt>
<trkpt lat="42.223502" lon="23.580121"><ele>2330.6</ele><time>2026-04-05T13:36:00.000Z</time></trkpt>
<trkpt lat="42.223511" lon="23.580119"><ele>2330.6</ele><time>2026-04-05T13:36:01.000Z</time></trkpt>
<trkpt lat="42.223521" lon="23.580117"><ele>2331.1</ele><time>2026-04-05T13:36:02.000Z</time></trkpt>
<trkpt lat="42.223529" lon="23.580115"><ele>2331.1</ele><time>2026-04-05T13:36:03.000Z</time></trkpt>
<trkpt lat="42.223535" lon="23.580114"><ele>2331.1</ele><time>2026-04-05T13:36:04.000Z</time></trkpt>
<trkpt lat="42.22354" lon="23.580112"><ele>2331.1</ele><time>2026-04-05T13:36:05.000Z</time></trkpt>
<trkpt lat="42.223546" lon="23.580109"><ele>2331.1</ele><time>2026-04-05T13:36:06.000Z</time></trkpt>
<trkpt lat="42.223551" lon="23.580107"><ele>2331.3</ele><time>2026-04-05T13:36:07.000Z</time></trkpt>
<trkpt lat="42.223557" lon="23.580105"><ele>2331.3</ele><time>2026-04-05T13:36:08.000Z</time></trkpt>
<trkpt lat="42.223565" lon="23.580102"><ele>2331.3</ele><time>2026-04-05T13:36:09.000Z</time></trkpt>
<trkpt lat="42.223573" lon="23.580099"><ele>2331.3</ele><time>2026-04-05T13:36:10.000Z</time></trkpt>
<trkpt lat="42.22358" lon="23.580097"><ele>2331.3</ele><time>2026-04-05T13:36:11.000Z</time></trkpt>
<trkpt lat="42.223588" lon="23.580095"><ele>2331.6</ele><time>2026-04-05T13:36:12.000Z</time></trkpt>
<trkpt lat="42.223595" lon="23.580093"><ele>2331.6</ele><time>2026-04-05T13:36:13.000Z</time></trkpt>
<trkpt lat="42.223603" lon="23.58009"><ele>2331.6</ele><time>2026-04-05T13:36:14.000Z</time></trkpt>
<trkpt lat="42.223611" lon="23.580088"><ele>2331.6</ele><time>2026-04-05T13:36:15.000Z</time></trkpt>
<trkpt lat="42.223619" lon="23.580085"><ele>2331.6</ele><time>2026-04-05T13:36:16.000Z</time></trkpt>
<trkpt lat="42.223628" lon="23.580082"><ele>2331.8</ele><time>2026-04-05T13:36:17.000Z</time></trkpt>
<trkpt lat="42.223637" lon="23.58008"><ele>2331.8</ele><time>2026-04-05T13:36:18.000Z</time></trkpt>
<trkpt lat="42.223647" lon="23.580078"><ele>2331.8</ele><time>2026-04-05T13:36:19.000Z</time></trkpt>
<trkpt lat="42.223656" lon="23.580075"><ele>2331.8</ele><time>2026-04-05T13:36:20.000Z</time></trkpt>
<trkpt lat="42.223665" lon="23.580073"><ele>2331.8</ele><time>2026-04-05T13:36:21.000Z</time></trkpt>
<trkpt lat="42.223674" lon="23.58007"><ele>2331.9</ele><time>2026-04-05T13:36:22.000Z</time></trkpt>
<trkpt lat="42.223682" lon="23.580065"><ele>2331.9</ele><time>2026-04-05T13:36:23.000Z</time></trkpt>
<trkpt lat="42.22369" lon="23.58006"><ele>2331.9</ele><time>2026-04-05T13:36:24.000Z</time></trkpt>
<trkpt lat="42.223698" lon="23.580056"><ele>2331.9</ele><time>2026-04-05T13:36:25.000Z</time></trkpt>
<trkpt lat="42.223707" lon="23.580053"><ele>2331.9</ele><time>2026-04-05T13:36:26.000Z</time></trkpt>
<trkpt lat="42.223715" lon="23.580049"><ele>2332.2</ele><time>2026-04-05T13:36:27.000Z</time></trkpt>
<trkpt lat="42.223724" lon="23.580045"><ele>2332.2</ele><time>2026-04-05T13:36:28.000Z</time></trkpt>
<trkpt lat="42.223732" lon="23.580043"><ele>2332.2</ele><time>2026-04-05T13:36:29.000Z</time></trkpt>
<trkpt lat="42.223741" lon="23.580041"><ele>2332.2</ele><time>2026-04-05T13:36:30.000Z</time></trkpt>
<trkpt lat="42.223749" lon="23.580039"><ele>2332.2</ele><time>2026-04-05T13:36:31.000Z</time></trkpt>
<trkpt lat="42.223757" lon="23.580038"><ele>2332.5</ele><time>2026-04-05T13:36:32.000Z</time></trkpt>
<trkpt lat="42.223766" lon="23.580036"><ele>2332.5</ele><time>2026-04-05T13:36:33.000Z</time></trkpt>
<trkpt lat="42.223774" lon="23.580035"><ele>2332.5</ele><time>2026-04-05T13:36:34.000Z</time></trkpt>
<trkpt lat="42.223783" lon="23.580034"><ele>2332.5</ele><time>2026-04-05T13:36:35.000Z</time></trkpt>
<trkpt lat="42.223792" lon="23.580032"><ele>2332.5</ele><time>2026-04-05T13:36:36.000Z</time></trkpt>
<trkpt lat="42.223801" lon="23.58003"><ele>2332.6</ele><time>2026-04-05T13:36:37.000Z</time></trkpt>
<trkpt lat="42.22381" lon="23.580028"><ele>2332.6</ele><time>2026-04-05T13:36:38.000Z</time></trkpt>
<trkpt lat="42.223819" lon="23.580026"><ele>2332.6</ele><time>2026-04-05T13:36:39.000Z</time></trkpt>
<trkpt lat="42.223828" lon="23.580024"><ele>2332.6</ele><time>2026-04-05T13:36:40.000Z</time></trkpt>
<trkpt lat="42.223836" lon="23.580021"><ele>2332.6</ele><time>2026-04-05T13:36:41.000Z</time></trkpt>
<trkpt lat="42.223845" lon="23.580019"><ele>2333</ele><time>2026-04-05T13:36:42.000Z</time></trkpt>
<trkpt lat="42.223854" lon="23.580017"><ele>2333</ele><time>2026-04-05T13:36:43.000Z</time></trkpt>
<trkpt lat="42.223862" lon="23.580016"><ele>2333</ele><time>2026-04-05T13:36:44.000Z</time></trkpt>
<trkpt lat="42.223872" lon="23.580014"><ele>2333</ele><time>2026-04-05T13:36:45.000Z</time></trkpt>
<trkpt lat="42.223881" lon="23.580014"><ele>2333</ele><time>2026-04-05T13:36:46.000Z</time></trkpt>
<trkpt lat="42.223891" lon="23.580013"><ele>2333.5</ele><time>2026-04-05T13:36:47.000Z</time></trkpt>
<trkpt lat="42.223899" lon="23.580012"><ele>2333.5</ele><time>2026-04-05T13:36:48.000Z</time></trkpt>
<trkpt lat="42.223908" lon="23.58001"><ele>2333.5</ele><time>2026-04-05T13:36:49.000Z</time></trkpt>
<trkpt lat="42.223915" lon="23.580008"><ele>2333.5</ele><time>2026-04-05T13:36:50.000Z</time></trkpt>
<trkpt lat="42.223923" lon="23.580006"><ele>2333.5</ele><time>2026-04-05T13:36:51.000Z</time></trkpt>
<trkpt lat="42.223932" lon="23.580004"><ele>2333.8</ele><time>2026-04-05T13:36:52.000Z</time></trkpt>
<trkpt lat="42.22394" lon="23.580002"><ele>2333.8</ele><time>2026-04-05T13:36:53.000Z</time></trkpt>
<trkpt lat="42.223949" lon="23.58"><ele>2333.8</ele><time>2026-04-05T13:36:54.000Z</time></trkpt>
<trkpt lat="42.223958" lon="23.579999"><ele>2333.8</ele><time>2026-04-05T13:36:55.000Z</time></trkpt>
<trkpt lat="42.223967" lon="23.579998"><ele>2333.8</ele><time>2026-04-05T13:36:56.000Z</time></trkpt>
<trkpt lat="42.223976" lon="23.579996"><ele>2334.5</ele><time>2026-04-05T13:36:57.000Z</time></trkpt>
<trkpt lat="42.223984" lon="23.579994"><ele>2334.5</ele><time>2026-04-05T13:36:58.000Z</time></trkpt>
<trkpt lat="42.223991" lon="23.579992"><ele>2334.5</ele><time>2026-04-05T13:36:59.000Z</time></trkpt>
<trkpt lat="42.223999" lon="23.579988"><ele>2334.5</ele><time>2026-04-05T13:37:00.000Z</time></trkpt>
<trkpt lat="42.224008" lon="23.579985"><ele>2334.5</ele><time>2026-04-05T13:37:01.000Z</time></trkpt>
<trkpt lat="42.224016" lon="23.579982"><ele>2335.1</ele><time>2026-04-05T13:37:02.000Z</time></trkpt>
<trkpt lat="42.224024" lon="23.579978"><ele>2335.1</ele><time>2026-04-05T13:37:03.000Z</time></trkpt>
<trkpt lat="42.224033" lon="23.579975"><ele>2335.1</ele><time>2026-04-05T13:37:04.000Z</time></trkpt>
<trkpt lat="42.224042" lon="23.579973"><ele>2335.1</ele><time>2026-04-05T13:37:05.000Z</time></trkpt>
<trkpt lat="42.224051" lon="23.57997"><ele>2335.1</ele><time>2026-04-05T13:37:06.000Z</time></trkpt>
<trkpt lat="42.22406" lon="23.579967"><ele>2335.4</ele><time>2026-04-05T13:37:07.000Z</time></trkpt>
<trkpt lat="42.22407" lon="23.579964"><ele>2335.4</ele><time>2026-04-05T13:37:08.000Z</time></trkpt>
<trkpt lat="42.224079" lon="23.579961"><ele>2335.4</ele><time>2026-04-05T13:37:09.000Z</time></trkpt>
<trkpt lat="42.224089" lon="23.579959"><ele>2335.4</ele><time>2026-04-05T13:37:10.000Z</time></trkpt>
<trkpt lat="42.224097" lon="23.579957"><ele>2335.4</ele><time>2026-04-05T13:37:11.000Z</time></trkpt>
<trkpt lat="42.224105" lon="23.579956"><ele>2335.9</ele><time>2026-04-05T13:37:12.000Z</time></trkpt>
<trkpt lat="42.224114" lon="23.579956"><ele>2335.9</ele><time>2026-04-05T13:37:13.000Z</time></trkpt>
<trkpt lat="42.224123" lon="23.579956"><ele>2335.9</ele><time>2026-04-05T13:37:14.000Z</time></trkpt>
<trkpt lat="42.224132" lon="23.579956"><ele>2335.9</ele><time>2026-04-05T13:37:15.000Z</time></trkpt>
<trkpt lat="42.224141" lon="23.579955"><ele>2335.9</ele><time>2026-04-05T13:37:16.000Z</time></trkpt>
<trkpt lat="42.224151" lon="23.579953"><ele>2336.4</ele><time>2026-04-05T13:37:17.000Z</time></trkpt>
<trkpt lat="42.224159" lon="23.579952"><ele>2336.4</ele><time>2026-04-05T13:37:18.000Z</time></trkpt>
<trkpt lat="42.224167" lon="23.57995"><ele>2336.4</ele><time>2026-04-05T13:37:19.000Z</time></trkpt>
<trkpt lat="42.224176" lon="23.579949"><ele>2336.4</ele><time>2026-04-05T13:37:20.000Z</time></trkpt>
<trkpt lat="42.224185" lon="23.579947"><ele>2336.4</ele><time>2026-04-05T13:37:21.000Z</time></trkpt>
<trkpt lat="42.224193" lon="23.579945"><ele>2336.6</ele><time>2026-04-05T13:37:22.000Z</time></trkpt>
<trkpt lat="42.224202" lon="23.579941"><ele>2336.6</ele><time>2026-04-05T13:37:23.000Z</time></trkpt>
<trkpt lat="42.22421" lon="23.579938"><ele>2336.6</ele><time>2026-04-05T13:37:24.000Z</time></trkpt>
<trkpt lat="42.224218" lon="23.579934"><ele>2336.6</ele><time>2026-04-05T13:37:25.000Z</time></trkpt>
<trkpt lat="42.224226" lon="23.579932"><ele>2336.6</ele><time>2026-04-05T13:37:26.000Z</time></trkpt>
<trkpt lat="42.224235" lon="23.579931"><ele>2337</ele><time>2026-04-05T13:37:27.000Z</time></trkpt>
<trkpt lat="42.224243" lon="23.57993"><ele>2337</ele><time>2026-04-05T13:37:28.000Z</time></trkpt>
<trkpt lat="42.224252" lon="23.579929"><ele>2337</ele><time>2026-04-05T13:37:29.000Z</time></trkpt>
<trkpt lat="42.224261" lon="23.579929"><ele>2337</ele><time>2026-04-05T13:37:30.000Z</time></trkpt>
<trkpt lat="42.22427" lon="23.579928"><ele>2337</ele><time>2026-04-05T13:37:31.000Z</time></trkpt>
<trkpt lat="42.22428" lon="23.579928"><ele>2337.2</ele><time>2026-04-05T13:37:32.000Z</time></trkpt>
<trkpt lat="42.224288" lon="23.579928"><ele>2337.2</ele><time>2026-04-05T13:37:33.000Z</time></trkpt>
<trkpt lat="42.224298" lon="23.579928"><ele>2337.2</ele><time>2026-04-05T13:37:34.000Z</time></trkpt>
<trkpt lat="42.224307" lon="23.579927"><ele>2337.2</ele><time>2026-04-05T13:37:35.000Z</time></trkpt>
<trkpt lat="42.224316" lon="23.579926"><ele>2337.2</ele><time>2026-04-05T13:37:36.000Z</time></trkpt>
<trkpt lat="42.224324" lon="23.579924"><ele>2337.4</ele><time>2026-04-05T13:37:37.000Z</time></trkpt>
<trkpt lat="42.224333" lon="23.579922"><ele>2337.4</ele><time>2026-04-05T13:37:38.000Z</time></trkpt>
<trkpt lat="42.224342" lon="23.579921"><ele>2337.4</ele><time>2026-04-05T13:37:39.000Z</time></trkpt>
<trkpt lat="42.22435" lon="23.57992"><ele>2337.4</ele><time>2026-04-05T13:37:40.000Z</time></trkpt>
<trkpt lat="42.224355" lon="23.579921"><ele>2337.4</ele><time>2026-04-05T13:37:41.000Z</time></trkpt>
<trkpt lat="42.22436" lon="23.579921"><ele>2337.8</ele><time>2026-04-05T13:37:42.000Z</time></trkpt>
<trkpt lat="42.224362" lon="23.57992"><ele>2337.8</ele><time>2026-04-05T13:37:43.000Z</time></trkpt>
<trkpt lat="42.224363" lon="23.579918"><ele>2337.8</ele><time>2026-04-05T13:37:44.000Z</time></trkpt>
<trkpt lat="42.224365" lon="23.579916"><ele>2337.8</ele><time>2026-04-05T13:37:45.000Z</time></trkpt>
<trkpt lat="42.224368" lon="23.579914"><ele>2337.8</ele><time>2026-04-05T13:37:46.000Z</time></trkpt>
<trkpt lat="42.224372" lon="23.579912"><ele>2338.2</ele><time>2026-04-05T13:37:47.000Z</time></trkpt>
<trkpt lat="42.224377" lon="23.579912"><ele>2338.2</ele><time>2026-04-05T13:37:48.000Z</time></trkpt>
<trkpt lat="42.224381" lon="23.579912"><ele>2338.2</ele><time>2026-04-05T13:37:49.000Z</time></trkpt>
<trkpt lat="42.224384" lon="23.579912"><ele>2338.2</ele><time>2026-04-05T13:37:50.000Z</time></trkpt>
<trkpt lat="42.224386" lon="23.57991"><ele>2338.2</ele><time>2026-04-05T13:37:51.000Z</time></trkpt>
<trkpt lat="42.224387" lon="23.579908"><ele>2338.5</ele><time>2026-04-05T13:37:52.000Z</time></trkpt>
<trkpt lat="42.224387" lon="23.579906"><ele>2338.5</ele><time>2026-04-05T13:37:53.000Z</time></trkpt>
<trkpt lat="42.224387" lon="23.579904"><ele>2338.5</ele><time>2026-04-05T13:37:54.000Z</time></trkpt>
<trkpt lat="42.224387" lon="23.579902"><ele>2338.5</ele><time>2026-04-05T13:37:55.000Z</time></trkpt>
<trkpt lat="42.224387" lon="23.579903"><ele>2338.5</ele><time>2026-04-05T13:37:56.000Z</time></trkpt>
<trkpt lat="42.224387" lon="23.579903"><ele>2338.9</ele><time>2026-04-05T13:37:57.000Z</time></trkpt>
<trkpt lat="42.224387" lon="23.579903"><ele>2338.9</ele><time>2026-04-05T13:37:58.000Z</time></trkpt>
<trkpt lat="42.224387" lon="23.579903"><ele>2338.9</ele><time>2026-04-05T13:37:59.000Z</time></trkpt>
<trkpt lat="42.224387" lon="23.579904"><ele>2338.9</ele><time>2026-04-05T13:38:00.000Z</time></trkpt>
<trkpt lat="42.224386" lon="23.579904"><ele>2338.9</ele><time>2026-04-05T13:38:01.000Z</time></trkpt>
<trkpt lat="42.224386" lon="23.579904"><ele>2339.1</ele><time>2026-04-05T13:38:02.000Z</time></trkpt>
<trkpt lat="42.224386" lon="23.579904"><ele>2339.1</ele><time>2026-04-05T13:38:03.000Z</time></trkpt>
<trkpt lat="42.224386" lon="23.579904"><ele>2339.1</ele><time>2026-04-05T13:38:04.000Z</time></trkpt>
<trkpt lat="42.224386" lon="23.579904"><ele>2339.1</ele><time>2026-04-05T13:38:05.000Z</time></trkpt>
<trkpt lat="42.224386" lon="23.579904"><ele>2339.1</ele><time>2026-04-05T13:38:06.000Z</time></trkpt>
<trkpt lat="42.224386" lon="23.579904"><ele>2339.2</ele><time>2026-04-05T13:38:07.000Z</time></trkpt>
<trkpt lat="42.224386" lon="23.579904"><ele>2339.2</ele><time>2026-04-05T13:38:08.000Z</time></trkpt>
<trkpt lat="42.224386" lon="23.579904"><ele>2339.2</ele><time>2026-04-05T13:38:09.000Z</time></trkpt>
<trkpt lat="42.224386" lon="23.579904"><ele>2339.2</ele><time>2026-04-05T13:38:10.000Z</time></trkpt>
<trkpt lat="42.224386" lon="23.579904"><ele>2339.2</ele><time>2026-04-05T13:38:11.000Z</time></trkpt>
<trkpt lat="42.224386" lon="23.579904"><ele>2339.2</ele><time>2026-04-05T13:38:12.000Z</time></trkpt>
<trkpt lat="42.224386" lon="23.579904"><ele>2339.2</ele><time>2026-04-05T13:38:13.000Z</time></trkpt>
<trkpt lat="42.224386" lon="23.579904"><ele>2339.2</ele><time>2026-04-05T13:38:14.000Z</time></trkpt>
<trkpt lat="42.224386" lon="23.579904"><ele>2339.2</ele><time>2026-04-05T13:38:15.000Z</time></trkpt>
<trkpt lat="42.224386" lon="23.579904"><ele>2339.2</ele><time>2026-04-05T13:38:16.000Z</time></trkpt>
<trkpt lat="42.224386" lon="23.579904"><ele>2339.2</ele><time>2026-04-05T13:38:17.000Z</time></trkpt>
<trkpt lat="42.224386" lon="23.579904"><ele>2339.2</ele><time>2026-04-05T13:38:18.000Z</time></trkpt>
<trkpt lat="42.224386" lon="23.579904"><ele>2339.2</ele><time>2026-04-05T13:38:19.000Z</time></trkpt>
<trkpt lat="42.224386" lon="23.579904"><ele>2339.2</ele><time>2026-04-05T13:38:20.000Z</time></trkpt>
<trkpt lat="42.224385" lon="23.579905"><ele>2339.2</ele><time>2026-04-05T13:38:21.000Z</time></trkpt>
<trkpt lat="42.224385" lon="23.579905"><ele>2339.1</ele><time>2026-04-05T13:38:22.000Z</time></trkpt>
<trkpt lat="42.224384" lon="23.579906"><ele>2339.1</ele><time>2026-04-05T13:38:23.000Z</time></trkpt>
<trkpt lat="42.224383" lon="23.579907"><ele>2339.1</ele><time>2026-04-05T13:38:24.000Z</time></trkpt>
<trkpt lat="42.224382" lon="23.579908"><ele>2339.1</ele><time>2026-04-05T13:38:25.000Z</time></trkpt>
<trkpt lat="42.224382" lon="23.579909"><ele>2339.1</ele><time>2026-04-05T13:38:26.000Z</time></trkpt>
<trkpt lat="42.224382" lon="23.579909"><ele>2339</ele><time>2026-04-05T13:38:27.000Z</time></trkpt>
<trkpt lat="42.224382" lon="23.579909"><ele>2339</ele><time>2026-04-05T13:38:28.000Z</time></trkpt>
<trkpt lat="42.224383" lon="23.579908"><ele>2339</ele><time>2026-04-05T13:38:29.000Z</time></trkpt>
<trkpt lat="42.224383" lon="23.579907"><ele>2339</ele><time>2026-04-05T13:38:30.000Z</time></trkpt>
<trkpt lat="42.224383" lon="23.579906"><ele>2339</ele><time>2026-04-05T13:38:31.000Z</time></trkpt>
<trkpt lat="42.224384" lon="23.579905"><ele>2338.9</ele><time>2026-04-05T13:38:32.000Z</time></trkpt>
<trkpt lat="42.224383" lon="23.579904"><ele>2338.9</ele><time>2026-04-05T13:38:33.000Z</time></trkpt>
<trkpt lat="42.224383" lon="23.579904"><ele>2338.9</ele><time>2026-04-05T13:38:34.000Z</time></trkpt>
<trkpt lat="42.224383" lon="23.579904"><ele>2338.9</ele><time>2026-04-05T13:38:35.000Z</time></trkpt>
<trkpt lat="42.224383" lon="23.579904"><ele>2338.9</ele><time>2026-04-05T13:38:36.000Z</time></trkpt>
<trkpt lat="42.224382" lon="23.579904"><ele>2338.8</ele><time>2026-04-05T13:38:37.000Z</time></trkpt>
<trkpt lat="42.224382" lon="23.579904"><ele>2338.8</ele><time>2026-04-05T13:38:38.000Z</time></trkpt>
<trkpt lat="42.224382" lon="23.579904"><ele>2338.8</ele><time>2026-04-05T13:38:39.000Z</time></trkpt>
<trkpt lat="42.224382" lon="23.579904"><ele>2338.8</ele><time>2026-04-05T13:38:40.000Z</time></trkpt>
<trkpt lat="42.224382" lon="23.579904"><ele>2338.8</ele><time>2026-04-05T13:38:41.000Z</time></trkpt>
<trkpt lat="42.224382" lon="23.579904"><ele>2338.7</ele><time>2026-04-05T13:38:42.000Z</time></trkpt>
<trkpt lat="42.224382" lon="23.579903"><ele>2338.7</ele><time>2026-04-05T13:38:43.000Z</time></trkpt>
<trkpt lat="42.224382" lon="23.579903"><ele>2338.7</ele><time>2026-04-05T13:38:44.000Z</time></trkpt>
<trkpt lat="42.224382" lon="23.579903"><ele>2338.7</ele><time>2026-04-05T13:38:45.000Z</time></trkpt>
<trkpt lat="42.224382" lon="23.579902"><ele>2338.7</ele><time>2026-04-05T13:38:46.000Z</time></trkpt>
<trkpt lat="42.224382" lon="23.579902"><ele>2338.7</ele><time>2026-04-05T13:38:47.000Z</time></trkpt>
<trkpt lat="42.224382" lon="23.579902"><ele>2338.7</ele><time>2026-04-05T13:38:48.000Z</time></trkpt>
<trkpt lat="42.224382" lon="23.579902"><ele>2338.7</ele><time>2026-04-05T13:38:49.000Z</time></trkpt>
<trkpt lat="42.224382" lon="23.579903"><ele>2338.7</ele><time>2026-04-05T13:38:50.000Z</time></trkpt>
<trkpt lat="42.224382" lon="23.579903"><ele>2338.7</ele><time>2026-04-05T13:38:51.000Z</time></trkpt>
<trkpt lat="42.224382" lon="23.579903"><ele>2338.7</ele><time>2026-04-05T13:38:52.000Z</time></trkpt>
<trkpt lat="42.224382" lon="23.579903"><ele>2338.7</ele><time>2026-04-05T13:38:53.000Z</time></trkpt>
<trkpt lat="42.224382" lon="23.579903"><ele>2338.7</ele><time>2026-04-05T13:38:54.000Z</time></trkpt>
<trkpt lat="42.224382" lon="23.579903"><ele>2338.7</ele><time>2026-04-05T13:38:55.000Z</time></trkpt>
<trkpt lat="42.224382" lon="23.579903"><ele>2338.7</ele><time>2026-04-05T13:38:56.000Z</time></trkpt>
<trkpt lat="42.224382" lon="23.579903"><ele>2338.5</ele><time>2026-04-05T13:38:57.000Z</time></trkpt>
<trkpt lat="42.224382" lon="23.579903"><ele>2338.5</ele><time>2026-04-05T13:38:58.000Z</time></trkpt>
<trkpt lat="42.224382" lon="23.579903"><ele>2338.5</ele><time>2026-04-05T13:38:59.000Z</time></trkpt>
<trkpt lat="42.224382" lon="23.579903"><ele>2338.5</ele><time>2026-04-05T13:39:00.000Z</time></trkpt>
<trkpt lat="42.224382" lon="23.579903"><ele>2338.5</ele><time>2026-04-05T13:39:01.000Z</time></trkpt>
<trkpt lat="42.224382" lon="23.579903"><ele>2338.5</ele><time>2026-04-05T13:39:02.000Z</time></trkpt>
<trkpt lat="42.224382" lon="23.579903"><ele>2338.5</ele><time>2026-04-05T13:39:03.000Z</time></trkpt>
<trkpt lat="42.224382" lon="23.579903"><ele>2338.5</ele><time>2026-04-05T13:39:04.000Z</time></trkpt>
<trkpt lat="42.224381" lon="23.579903"><ele>2338.5</ele><time>2026-04-05T13:39:05.000Z</time></trkpt>
<trkpt lat="42.224381" lon="23.579903"><ele>2338.5</ele><time>2026-04-05T13:39:06.000Z</time></trkpt>
<trkpt lat="42.22438" lon="23.579904"><ele>2338.5</ele><time>2026-04-05T13:39:07.000Z</time></trkpt>
<trkpt lat="42.224379" lon="23.579904"><ele>2338.5</ele><time>2026-04-05T13:39:08.000Z</time></trkpt>
<trkpt lat="42.224379" lon="23.579904"><ele>2338.5</ele><time>2026-04-05T13:39:09.000Z</time></trkpt>
<trkpt lat="42.224379" lon="23.579904"><ele>2338.5</ele><time>2026-04-05T13:39:10.000Z</time></trkpt>
<trkpt lat="42.224379" lon="23.579904"><ele>2338.5</ele><time>2026-04-05T13:39:11.000Z</time></trkpt>
<trkpt lat="42.224379" lon="23.579903"><ele>2338.6</ele><time>2026-04-05T13:39:12.000Z</time></trkpt>
<trkpt lat="42.224378" lon="23.579903"><ele>2338.6</ele><time>2026-04-05T13:39:13.000Z</time></trkpt>
<trkpt lat="42.224378" lon="23.579902"><ele>2338.6</ele><time>2026-04-05T13:39:14.000Z</time></trkpt>
<trkpt lat="42.224378" lon="23.579902"><ele>2338.6</ele><time>2026-04-05T13:39:15.000Z</time></trkpt>
<trkpt lat="42.224378" lon="23.579901"><ele>2338.6</ele><time>2026-04-05T13:39:16.000Z</time></trkpt>
<trkpt lat="42.224378" lon="23.579901"><ele>2338.7</ele><time>2026-04-05T13:39:17.000Z</time></trkpt>
<trkpt lat="42.224378" lon="23.579901"><ele>2338.7</ele><time>2026-04-05T13:39:18.000Z</time></trkpt>
<trkpt lat="42.224378" lon="23.579901"><ele>2338.7</ele><time>2026-04-05T13:39:19.000Z</time></trkpt>
<trkpt lat="42.224378" lon="23.579901"><ele>2338.7</ele><time>2026-04-05T13:39:20.000Z</time></trkpt>
<trkpt lat="42.224378" lon="23.579901"><ele>2338.7</ele><time>2026-04-05T13:39:21.000Z</time></trkpt>
<trkpt lat="42.224378" lon="23.579901"><ele>2338.7</ele><time>2026-04-05T13:39:22.000Z</time></trkpt>
<trkpt lat="42.224378" lon="23.579901"><ele>2338.7</ele><time>2026-04-05T13:39:23.000Z</time></trkpt>
<trkpt lat="42.224378" lon="23.579902"><ele>2338.7</ele><time>2026-04-05T13:39:24.000Z</time></trkpt>
<trkpt lat="42.224378" lon="23.579903"><ele>2338.7</ele><time>2026-04-05T13:39:25.000Z</time></trkpt>
<trkpt lat="42.224378" lon="23.579904"><ele>2338.7</ele><time>2026-04-05T13:39:26.000Z</time></trkpt>
<trkpt lat="42.224378" lon="23.579905"><ele>2338.6</ele><time>2026-04-05T13:39:27.000Z</time></trkpt>
<trkpt lat="42.224378" lon="23.579906"><ele>2338.6</ele><time>2026-04-05T13:39:28.000Z</time></trkpt>
<trkpt lat="42.224378" lon="23.579906"><ele>2338.6</ele><time>2026-04-05T13:39:29.000Z</time></trkpt>
<trkpt lat="42.224378" lon="23.579906"><ele>2338.6</ele><time>2026-04-05T13:39:30.000Z</time></trkpt>
<trkpt lat="42.224378" lon="23.579906"><ele>2338.6</ele><time>2026-04-05T13:39:31.000Z</time></trkpt>
<trkpt lat="42.224378" lon="23.579906"><ele>2338.6</ele><time>2026-04-05T13:39:32.000Z</time></trkpt>
<trkpt lat="42.224378" lon="23.579906"><ele>2338.6</ele><time>2026-04-05T13:39:33.000Z</time></trkpt>
<trkpt lat="42.224378" lon="23.579906"><ele>2338.6</ele><time>2026-04-05T13:39:34.000Z</time></trkpt>
<trkpt lat="42.224378" lon="23.579906"><ele>2338.6</ele><time>2026-04-05T13:39:35.000Z</time></trkpt>
<trkpt lat="42.224378" lon="23.579906"><ele>2338.6</ele><time>2026-04-05T13:39:36.000Z</time></trkpt>
<trkpt lat="42.224378" lon="23.579906"><ele>2338.6</ele><time>2026-04-05T13:39:37.000Z</time></trkpt>
<trkpt lat="42.224378" lon="23.579906"><ele>2338.6</ele><time>2026-04-05T13:39:38.000Z</time></trkpt>
<trkpt lat="42.224378" lon="23.579906"><ele>2338.6</ele><time>2026-04-05T13:39:39.000Z</time></trkpt>
<trkpt lat="42.224377" lon="23.579906"><ele>2338.6</ele><time>2026-04-05T13:39:40.000Z</time></trkpt>
<trkpt lat="42.224377" lon="23.579906"><ele>2338.6</ele><time>2026-04-05T13:39:41.000Z</time></trkpt>
<trkpt lat="42.224377" lon="23.579906"><ele>2338.8</ele><time>2026-04-05T13:39:42.000Z</time></trkpt>
<trkpt lat="42.224377" lon="23.579906"><ele>2338.8</ele><time>2026-04-05T13:39:43.000Z</time></trkpt>
<trkpt lat="42.224377" lon="23.579906"><ele>2338.8</ele><time>2026-04-05T13:39:44.000Z</time></trkpt>
<trkpt lat="42.224376" lon="23.579907"><ele>2338.8</ele><time>2026-04-05T13:39:45.000Z</time></trkpt>
<trkpt lat="42.224376" lon="23.579907"><ele>2338.8</ele><time>2026-04-05T13:39:46.000Z</time></trkpt>
<trkpt lat="42.224376" lon="23.579908"><ele>2338.9</ele><time>2026-04-05T13:39:47.000Z</time></trkpt>
<trkpt lat="42.224376" lon="23.579909"><ele>2338.9</ele><time>2026-04-05T13:39:48.000Z</time></trkpt>
<trkpt lat="42.224376" lon="23.579909"><ele>2338.9</ele><time>2026-04-05T13:39:49.000Z</time></trkpt>
<trkpt lat="42.224376" lon="23.57991"><ele>2338.9</ele><time>2026-04-05T13:39:50.000Z</time></trkpt>
<trkpt lat="42.224376" lon="23.57991"><ele>2338.9</ele><time>2026-04-05T13:39:51.000Z</time></trkpt>
<trkpt lat="42.224376" lon="23.57991"><ele>2338.9</ele><time>2026-04-05T13:39:52.000Z</time></trkpt>
<trkpt lat="42.224375" lon="23.57991"><ele>2338.9</ele><time>2026-04-05T13:39:53.000Z</time></trkpt>
<trkpt lat="42.224376" lon="23.579908"><ele>2338.9</ele><time>2026-04-05T13:39:54.000Z</time></trkpt>
<trkpt lat="42.224376" lon="23.579907"><ele>2338.9</ele><time>2026-04-05T13:39:55.000Z</time></trkpt>
<trkpt lat="42.224376" lon="23.579905"><ele>2338.9</ele><time>2026-04-05T13:39:56.000Z</time></trkpt>
<trkpt lat="42.224376" lon="23.579904"><ele>2338.8</ele><time>2026-04-05T13:39:57.000Z</time></trkpt>
<trkpt lat="42.224377" lon="23.579902"><ele>2338.8</ele><time>2026-04-05T13:39:58.000Z</time></trkpt>
<trkpt lat="42.224379" lon="23.579903"><ele>2338.8</ele><time>2026-04-05T13:39:59.000Z</time></trkpt>
<trkpt lat="42.224382" lon="23.579903"><ele>2338.8</ele><time>2026-04-05T13:40:00.000Z</time></trkpt>
<trkpt lat="42.224387" lon="23.579903"><ele>2338.8</ele><time>2026-04-05T13:40:01.000Z</time></trkpt>
<trkpt lat="42.224393" lon="23.579903"><ele>2338.7</ele><time>2026-04-05T13:40:02.000Z</time></trkpt>
<trkpt lat="42.2244" lon="23.579902"><ele>2338.7</ele><time>2026-04-05T13:40:03.000Z</time></trkpt>
<trkpt lat="42.224406" lon="23.579901"><ele>2338.7</ele><time>2026-04-05T13:40:04.000Z</time></trkpt>
<trkpt lat="42.224413" lon="23.579899"><ele>2338.7</ele><time>2026-04-05T13:40:05.000Z</time></trkpt>
<trkpt lat="42.224421" lon="23.579897"><ele>2338.7</ele><time>2026-04-05T13:40:06.000Z</time></trkpt>
<trkpt lat="42.224429" lon="23.579896"><ele>2338.6</ele><time>2026-04-05T13:40:07.000Z</time></trkpt>
<trkpt lat="42.224436" lon="23.579894"><ele>2338.6</ele><time>2026-04-05T13:40:08.000Z</time></trkpt>
<trkpt lat="42.224445" lon="23.579893"><ele>2338.6</ele><time>2026-04-05T13:40:09.000Z</time></trkpt>
<trkpt lat="42.224454" lon="23.579891"><ele>2338.6</ele><time>2026-04-05T13:40:10.000Z</time></trkpt>
<trkpt lat="42.224462" lon="23.57989"><ele>2338.6</ele><time>2026-04-05T13:40:11.000Z</time></trkpt>
<trkpt lat="42.224471" lon="23.579888"><ele>2338.7</ele><time>2026-04-05T13:40:12.000Z</time></trkpt>
<trkpt lat="42.22448" lon="23.579887"><ele>2338.7</ele><time>2026-04-05T13:40:13.000Z</time></trkpt>
<trkpt lat="42.224488" lon="23.579886"><ele>2338.7</ele><time>2026-04-05T13:40:14.000Z</time></trkpt>
<trkpt lat="42.224496" lon="23.579886"><ele>2338.7</ele><time>2026-04-05T13:40:15.000Z</time></trkpt>
<trkpt lat="42.224505" lon="23.579885"><ele>2338.7</ele><time>2026-04-05T13:40:16.000Z</time></trkpt>
<trkpt lat="42.224514" lon="23.579886"><ele>2338.8</ele><time>2026-04-05T13:40:17.000Z</time></trkpt>
<trkpt lat="42.224522" lon="23.579887"><ele>2338.8</ele><time>2026-04-05T13:40:18.000Z</time></trkpt>
<trkpt lat="42.22453" lon="23.579887"><ele>2338.8</ele><time>2026-04-05T13:40:19.000Z</time></trkpt>
<trkpt lat="42.22454" lon="23.579888"><ele>2338.8</ele><time>2026-04-05T13:40:20.000Z</time></trkpt>
<trkpt lat="42.22455" lon="23.579888"><ele>2338.8</ele><time>2026-04-05T13:40:21.000Z</time></trkpt>
<trkpt lat="42.224559" lon="23.579888"><ele>2338.8</ele><time>2026-04-05T13:40:22.000Z</time></trkpt>
<trkpt lat="42.224569" lon="23.579886"><ele>2338.8</ele><time>2026-04-05T13:40:23.000Z</time></trkpt>
<trkpt lat="42.224578" lon="23.579884"><ele>2338.8</ele><time>2026-04-05T13:40:24.000Z</time></trkpt>
<trkpt lat="42.224585" lon="23.579883"><ele>2338.8</ele><time>2026-04-05T13:40:25.000Z</time></trkpt>
<trkpt lat="42.224591" lon="23.579882"><ele>2338.8</ele><time>2026-04-05T13:40:26.000Z</time></trkpt>
<trkpt lat="42.224595" lon="23.579882"><ele>2339</ele><time>2026-04-05T13:40:27.000Z</time></trkpt>
<trkpt lat="42.224596" lon="23.579882"><ele>2339</ele><time>2026-04-05T13:40:28.000Z</time></trkpt>
<trkpt lat="42.224597" lon="23.579882"><ele>2339</ele><time>2026-04-05T13:40:29.000Z</time></trkpt>
<trkpt lat="42.224597" lon="23.579882"><ele>2339</ele><time>2026-04-05T13:40:30.000Z</time></trkpt>
<trkpt lat="42.224596" lon="23.579882"><ele>2339</ele><time>2026-04-05T13:40:31.000Z</time></trkpt>
<trkpt lat="42.224596" lon="23.579881"><ele>2339.4</ele><time>2026-04-05T13:40:32.000Z</time></trkpt>
<trkpt lat="42.224595" lon="23.579881"><ele>2339.4</ele><time>2026-04-05T13:40:33.000Z</time></trkpt>
<trkpt lat="42.224595" lon="23.57988"><ele>2339.4</ele><time>2026-04-05T13:40:34.000Z</time></trkpt>
<trkpt lat="42.224595" lon="23.57988"><ele>2339.4</ele><time>2026-04-05T13:40:35.000Z</time></trkpt>
<trkpt lat="42.224596" lon="23.57988"><ele>2339.4</ele><time>2026-04-05T13:40:36.000Z</time></trkpt>
<trkpt lat="42.224597" lon="23.579879"><ele>2339.6</ele><time>2026-04-05T13:40:37.000Z</time></trkpt>
<trkpt lat="42.2246" lon="23.579878"><ele>2339.6</ele><time>2026-04-05T13:40:38.000Z</time></trkpt>
<trkpt lat="42.224603" lon="23.579877"><ele>2339.6</ele><time>2026-04-05T13:40:39.000Z</time></trkpt>
<trkpt lat="42.224608" lon="23.579875"><ele>2339.6</ele><time>2026-04-05T13:40:40.000Z</time></trkpt>
<trkpt lat="42.224611" lon="23.579873"><ele>2339.6</ele><time>2026-04-05T13:40:41.000Z</time></trkpt>
<trkpt lat="42.224616" lon="23.57987"><ele>2340.1</ele><time>2026-04-05T13:40:42.000Z</time></trkpt>
<trkpt lat="42.224622" lon="23.579868"><ele>2340.1</ele><time>2026-04-05T13:40:43.000Z</time></trkpt>
<trkpt lat="42.224628" lon="23.579866"><ele>2340.1</ele><time>2026-04-05T13:40:44.000Z</time></trkpt>
<trkpt lat="42.224636" lon="23.579864"><ele>2340.1</ele><time>2026-04-05T13:40:45.000Z</time></trkpt>
<trkpt lat="42.224643" lon="23.579861"><ele>2340.1</ele><time>2026-04-05T13:40:46.000Z</time></trkpt>
<trkpt lat="42.224651" lon="23.579859"><ele>2340.5</ele><time>2026-04-05T13:40:47.000Z</time></trkpt>
<trkpt lat="42.224659" lon="23.579857"><ele>2340.5</ele><time>2026-04-05T13:40:48.000Z</time></trkpt>
<trkpt lat="42.224667" lon="23.579856"><ele>2340.5</ele><time>2026-04-05T13:40:49.000Z</time></trkpt>
<trkpt lat="42.224674" lon="23.579855"><ele>2340.5</ele><time>2026-04-05T13:40:50.000Z</time></trkpt>
<trkpt lat="42.22468" lon="23.579856"><ele>2340.5</ele><time>2026-04-05T13:40:51.000Z</time></trkpt>
<trkpt lat="42.224686" lon="23.579857"><ele>2340.6</ele><time>2026-04-05T13:40:52.000Z</time></trkpt>
<trkpt lat="42.224693" lon="23.579858"><ele>2340.6</ele><time>2026-04-05T13:40:53.000Z</time></trkpt>
<trkpt lat="42.224701" lon="23.579859"><ele>2340.6</ele><time>2026-04-05T13:40:54.000Z</time></trkpt>
<trkpt lat="42.224708" lon="23.57986"><ele>2340.6</ele><time>2026-04-05T13:40:55.000Z</time></trkpt>
<trkpt lat="42.224717" lon="23.57986"><ele>2340.6</ele><time>2026-04-05T13:40:56.000Z</time></trkpt>
<trkpt lat="42.224727" lon="23.579859"><ele>2340.8</ele><time>2026-04-05T13:40:57.000Z</time></trkpt>
<trkpt lat="42.224738" lon="23.579859"><ele>2340.8</ele><time>2026-04-05T13:40:58.000Z</time></trkpt>
<trkpt lat="42.224748" lon="23.579858"><ele>2340.8</ele><time>2026-04-05T13:40:59.000Z</time></trkpt>
<trkpt lat="42.224759" lon="23.579858"><ele>2340.8</ele><time>2026-04-05T13:41:00.000Z</time></trkpt>
<trkpt lat="42.22477" lon="23.579859"><ele>2340.8</ele><time>2026-04-05T13:41:01.000Z</time></trkpt>
<trkpt lat="42.22478" lon="23.579859"><ele>2341</ele><time>2026-04-05T13:41:02.000Z</time></trkpt>
<trkpt lat="42.224791" lon="23.579859"><ele>2341</ele><time>2026-04-05T13:41:03.000Z</time></trkpt>
<trkpt lat="42.224801" lon="23.579859"><ele>2341</ele><time>2026-04-05T13:41:04.000Z</time></trkpt>
<trkpt lat="42.224811" lon="23.57986"><ele>2341</ele><time>2026-04-05T13:41:05.000Z</time></trkpt>
<trkpt lat="42.224821" lon="23.579861"><ele>2341</ele><time>2026-04-05T13:41:06.000Z</time></trkpt>
<trkpt lat="42.224831" lon="23.579862"><ele>2341.1</ele><time>2026-04-05T13:41:07.000Z</time></trkpt>
<trkpt lat="42.224841" lon="23.579865"><ele>2341.1</ele><time>2026-04-05T13:41:08.000Z</time></trkpt>
<trkpt lat="42.224851" lon="23.579867"><ele>2341.1</ele><time>2026-04-05T13:41:09.000Z</time></trkpt>
<trkpt lat="42.224861" lon="23.579871"><ele>2341.1</ele><time>2026-04-05T13:41:10.000Z</time></trkpt>
<trkpt lat="42.224871" lon="23.579874"><ele>2341.1</ele><time>2026-04-05T13:41:11.000Z</time></trkpt>
<trkpt lat="42.224881" lon="23.579876"><ele>2341.4</ele><time>2026-04-05T13:41:12.000Z</time></trkpt>
<trkpt lat="42.224891" lon="23.579877"><ele>2341.4</ele><time>2026-04-05T13:41:13.000Z</time></trkpt>
<trkpt lat="42.224901" lon="23.579878"><ele>2341.4</ele><time>2026-04-05T13:41:14.000Z</time></trkpt>
<trkpt lat="42.22491" lon="23.579879"><ele>2341.4</ele><time>2026-04-05T13:41:15.000Z</time></trkpt>
<trkpt lat="42.224919" lon="23.579881"><ele>2341.4</ele><time>2026-04-05T13:41:16.000Z</time></trkpt>
<trkpt lat="42.224929" lon="23.579883"><ele>2341.6</ele><time>2026-04-05T13:41:17.000Z</time></trkpt>
<trkpt lat="42.224939" lon="23.579885"><ele>2341.6</ele><time>2026-04-05T13:41:18.000Z</time></trkpt>
<trkpt lat="42.224948" lon="23.579888"><ele>2341.6</ele><time>2026-04-05T13:41:19.000Z</time></trkpt>
<trkpt lat="42.224958" lon="23.57989"><ele>2341.6</ele><time>2026-04-05T13:41:20.000Z</time></trkpt>
<trkpt lat="42.224968" lon="23.579891"><ele>2341.6</ele><time>2026-04-05T13:41:21.000Z</time></trkpt>
<trkpt lat="42.224978" lon="23.579894"><ele>2341.7</ele><time>2026-04-05T13:41:22.000Z</time></trkpt>
<trkpt lat="42.224986" lon="23.579896"><ele>2341.7</ele><time>2026-04-05T13:41:23.000Z</time></trkpt>
<trkpt lat="42.224994" lon="23.579898"><ele>2341.7</ele><time>2026-04-05T13:41:24.000Z</time></trkpt>
<trkpt lat="42.225002" lon="23.579901"><ele>2341.7</ele><time>2026-04-05T13:41:25.000Z</time></trkpt>
<trkpt lat="42.22501" lon="23.579905"><ele>2341.7</ele><time>2026-04-05T13:41:26.000Z</time></trkpt>
<trkpt lat="42.225019" lon="23.579908"><ele>2341.7</ele><time>2026-04-05T13:41:27.000Z</time></trkpt>
<trkpt lat="42.225027" lon="23.579911"><ele>2341.7</ele><time>2026-04-05T13:41:28.000Z</time></trkpt>
<trkpt lat="42.225037" lon="23.579914"><ele>2341.7</ele><time>2026-04-05T13:41:29.000Z</time></trkpt>
<trkpt lat="42.225047" lon="23.579916"><ele>2341.7</ele><time>2026-04-05T13:41:30.000Z</time></trkpt>
<trkpt lat="42.225057" lon="23.579918"><ele>2341.7</ele><time>2026-04-05T13:41:31.000Z</time></trkpt>
<trkpt lat="42.225067" lon="23.57992"><ele>2341.7</ele><time>2026-04-05T13:41:32.000Z</time></trkpt>
<trkpt lat="42.225078" lon="23.579922"><ele>2341.7</ele><time>2026-04-05T13:41:33.000Z</time></trkpt>
<trkpt lat="42.225088" lon="23.579924"><ele>2341.7</ele><time>2026-04-05T13:41:34.000Z</time></trkpt>
<trkpt lat="42.225099" lon="23.579926"><ele>2341.7</ele><time>2026-04-05T13:41:35.000Z</time></trkpt>
<trkpt lat="42.225109" lon="23.579927"><ele>2341.7</ele><time>2026-04-05T13:41:36.000Z</time></trkpt>
<trkpt lat="42.225118" lon="23.579928"><ele>2341.7</ele><time>2026-04-05T13:41:37.000Z</time></trkpt>
<trkpt lat="42.225128" lon="23.579929"><ele>2341.7</ele><time>2026-04-05T13:41:38.000Z</time></trkpt>
<trkpt lat="42.225137" lon="23.57993"><ele>2341.7</ele><time>2026-04-05T13:41:39.000Z</time></trkpt>
<trkpt lat="42.225146" lon="23.57993"><ele>2341.7</ele><time>2026-04-05T13:41:40.000Z</time></trkpt>
<trkpt lat="42.225155" lon="23.579932"><ele>2341.7</ele><time>2026-04-05T13:41:41.000Z</time></trkpt>
<trkpt lat="42.225165" lon="23.579934"><ele>2341.7</ele><time>2026-04-05T13:41:42.000Z</time></trkpt>
<trkpt lat="42.225174" lon="23.579936"><ele>2341.7</ele><time>2026-04-05T13:41:43.000Z</time></trkpt>
<trkpt lat="42.225183" lon="23.579939"><ele>2341.7</ele><time>2026-04-05T13:41:44.000Z</time></trkpt>
<trkpt lat="42.225192" lon="23.579944"><ele>2341.7</ele><time>2026-04-05T13:41:45.000Z</time></trkpt>
<trkpt lat="42.2252" lon="23.579949"><ele>2341.7</ele><time>2026-04-05T13:41:46.000Z</time></trkpt>
<trkpt lat="42.225209" lon="23.579954"><ele>2341.9</ele><time>2026-04-05T13:41:47.000Z</time></trkpt>
<trkpt lat="42.225217" lon="23.57996"><ele>2341.9</ele><time>2026-04-05T13:41:48.000Z</time></trkpt>
<trkpt lat="42.225225" lon="23.579965"><ele>2341.9</ele><time>2026-04-05T13:41:49.000Z</time></trkpt>
<trkpt lat="42.225234" lon="23.57997"><ele>2341.9</ele><time>2026-04-05T13:41:50.000Z</time></trkpt>
<trkpt lat="42.225242" lon="23.579974"><ele>2341.9</ele><time>2026-04-05T13:41:51.000Z</time></trkpt>
<trkpt lat="42.22525" lon="23.579978"><ele>2342.2</ele><time>2026-04-05T13:41:52.000Z</time></trkpt>
<trkpt lat="42.225258" lon="23.579983"><ele>2342.2</ele><time>2026-04-05T13:41:53.000Z</time></trkpt>
<trkpt lat="42.225267" lon="23.579989"><ele>2342.2</ele><time>2026-04-05T13:41:54.000Z</time></trkpt>
<trkpt lat="42.225275" lon="23.579994"><ele>2342.2</ele><time>2026-04-05T13:41:55.000Z</time></trkpt>
<trkpt lat="42.225283" lon="23.58"><ele>2342.2</ele><time>2026-04-05T13:41:56.000Z</time></trkpt>
<trkpt lat="42.22529" lon="23.580006"><ele>2342.8</ele><time>2026-04-05T13:41:57.000Z</time></trkpt>
<trkpt lat="42.225297" lon="23.580011"><ele>2342.8</ele><time>2026-04-05T13:41:58.000Z</time></trkpt>
<trkpt lat="42.225304" lon="23.580016"><ele>2342.8</ele><time>2026-04-05T13:41:59.000Z</time></trkpt>
<trkpt lat="42.225311" lon="23.580021"><ele>2342.8</ele><time>2026-04-05T13:42:00.000Z</time></trkpt>
<trkpt lat="42.22532" lon="23.580027"><ele>2342.8</ele><time>2026-04-05T13:42:01.000Z</time></trkpt>
<trkpt lat="42.225329" lon="23.580033"><ele>2343.4</ele><time>2026-04-05T13:42:02.000Z</time></trkpt>
<trkpt lat="42.225337" lon="23.580039"><ele>2343.4</ele><time>2026-04-05T13:42:03.000Z</time></trkpt>
<trkpt lat="42.225346" lon="23.580046"><ele>2343.4</ele><time>2026-04-05T13:42:04.000Z</time></trkpt>
<trkpt lat="42.225354" lon="23.580053"><ele>2343.4</ele><time>2026-04-05T13:42:05.000Z</time></trkpt>
<trkpt lat="42.225362" lon="23.58006"><ele>2343.4</ele><time>2026-04-05T13:42:06.000Z</time></trkpt>
<trkpt lat="42.22537" lon="23.580066"><ele>2343.6</ele><time>2026-04-05T13:42:07.000Z</time></trkpt>
<trkpt lat="42.225378" lon="23.580072"><ele>2343.6</ele><time>2026-04-05T13:42:08.000Z</time></trkpt>
<trkpt lat="42.225387" lon="23.580077"><ele>2343.6</ele><time>2026-04-05T13:42:09.000Z</time></trkpt>
<trkpt lat="42.225396" lon="23.580082"><ele>2343.6</ele><time>2026-04-05T13:42:10.000Z</time></trkpt>
<trkpt lat="42.225404" lon="23.580086"><ele>2343.6</ele><time>2026-04-05T13:42:11.000Z</time></trkpt>
<trkpt lat="42.225414" lon="23.58009"><ele>2343.9</ele><time>2026-04-05T13:42:12.000Z</time></trkpt>
<trkpt lat="42.225424" lon="23.580093"><ele>2343.9</ele><time>2026-04-05T13:42:13.000Z</time></trkpt>
<trkpt lat="42.225433" lon="23.580097"><ele>2343.9</ele><time>2026-04-05T13:42:14.000Z</time></trkpt>
<trkpt lat="42.225442" lon="23.580101"><ele>2343.9</ele><time>2026-04-05T13:42:15.000Z</time></trkpt>
<trkpt lat="42.225451" lon="23.580105"><ele>2343.9</ele><time>2026-04-05T13:42:16.000Z</time></trkpt>
<trkpt lat="42.225459" lon="23.580109"><ele>2344.1</ele><time>2026-04-05T13:42:17.000Z</time></trkpt>
<trkpt lat="42.225466" lon="23.580113"><ele>2344.1</ele><time>2026-04-05T13:42:18.000Z</time></trkpt>
<trkpt lat="42.225474" lon="23.580115"><ele>2344.1</ele><time>2026-04-05T13:42:19.000Z</time></trkpt>
<trkpt lat="42.225481" lon="23.580115"><ele>2344.1</ele><time>2026-04-05T13:42:20.000Z</time></trkpt>
<trkpt lat="42.225487" lon="23.580115"><ele>2344.1</ele><time>2026-04-05T13:42:21.000Z</time></trkpt>
<trkpt lat="42.225494" lon="23.580114"><ele>2344.2</ele><time>2026-04-05T13:42:22.000Z</time></trkpt>
<trkpt lat="42.225501" lon="23.580114"><ele>2344.2</ele><time>2026-04-05T13:42:23.000Z</time></trkpt>
<trkpt lat="42.225509" lon="23.580113"><ele>2344.2</ele><time>2026-04-05T13:42:24.000Z</time></trkpt>
<trkpt lat="42.225516" lon="23.580114"><ele>2344.2</ele><time>2026-04-05T13:42:25.000Z</time></trkpt>
<trkpt lat="42.225524" lon="23.580115"><ele>2344.2</ele><time>2026-04-05T13:42:26.000Z</time></trkpt>
<trkpt lat="42.225531" lon="23.580117"><ele>2344.4</ele><time>2026-04-05T13:42:27.000Z</time></trkpt>
<trkpt lat="42.225538" lon="23.580119"><ele>2344.4</ele><time>2026-04-05T13:42:28.000Z</time></trkpt>
<trkpt lat="42.225544" lon="23.580122"><ele>2344.4</ele><time>2026-04-05T13:42:29.000Z</time></trkpt>
<trkpt lat="42.225551" lon="23.580125"><ele>2344.4</ele><time>2026-04-05T13:42:30.000Z</time></trkpt>
<trkpt lat="42.225559" lon="23.580127"><ele>2344.4</ele><time>2026-04-05T13:42:31.000Z</time></trkpt>
<trkpt lat="42.225567" lon="23.58013"><ele>2344.9</ele><time>2026-04-05T13:42:32.000Z</time></trkpt>
<trkpt lat="42.225575" lon="23.580133"><ele>2344.9</ele><time>2026-04-05T13:42:33.000Z</time></trkpt>
<trkpt lat="42.225582" lon="23.580137"><ele>2344.9</ele><time>2026-04-05T13:42:34.000Z</time></trkpt>
<trkpt lat="42.225588" lon="23.580142"><ele>2344.9</ele><time>2026-04-05T13:42:35.000Z</time></trkpt>
<trkpt lat="42.225594" lon="23.580147"><ele>2344.9</ele><time>2026-04-05T13:42:36.000Z</time></trkpt>
<trkpt lat="42.225601" lon="23.580151"><ele>2345.3</ele><time>2026-04-05T13:42:37.000Z</time></trkpt>
<trkpt lat="42.225608" lon="23.580156"><ele>2345.3</ele><time>2026-04-05T13:42:38.000Z</time></trkpt>
<trkpt lat="42.225617" lon="23.580158"><ele>2345.3</ele><time>2026-04-05T13:42:39.000Z</time></trkpt>
<trkpt lat="42.225625" lon="23.58016"><ele>2345.3</ele><time>2026-04-05T13:42:40.000Z</time></trkpt>
<trkpt lat="42.225634" lon="23.580161"><ele>2345.3</ele><time>2026-04-05T13:42:41.000Z</time></trkpt>
<trkpt lat="42.225643" lon="23.580163"><ele>2346.1</ele><time>2026-04-05T13:42:42.000Z</time></trkpt>
<trkpt lat="42.225651" lon="23.580164"><ele>2346.1</ele><time>2026-04-05T13:42:43.000Z</time></trkpt>
<trkpt lat="42.22566" lon="23.580166"><ele>2346.1</ele><time>2026-04-05T13:42:44.000Z</time></trkpt>
<trkpt lat="42.225669" lon="23.580169"><ele>2346.1</ele><time>2026-04-05T13:42:45.000Z</time></trkpt>
<trkpt lat="42.225677" lon="23.580172"><ele>2346.1</ele><time>2026-04-05T13:42:46.000Z</time></trkpt>
<trkpt lat="42.225685" lon="23.580175"><ele>2347</ele><time>2026-04-05T13:42:47.000Z</time></trkpt>
<trkpt lat="42.225694" lon="23.580179"><ele>2347</ele><time>2026-04-05T13:42:48.000Z</time></trkpt>
<trkpt lat="42.225702" lon="23.580182"><ele>2347</ele><time>2026-04-05T13:42:49.000Z</time></trkpt>
<trkpt lat="42.225709" lon="23.580186"><ele>2347</ele><time>2026-04-05T13:42:50.000Z</time></trkpt>
<trkpt lat="42.225717" lon="23.580189"><ele>2347</ele><time>2026-04-05T13:42:51.000Z</time></trkpt>
<trkpt lat="42.225725" lon="23.580191"><ele>2347.4</ele><time>2026-04-05T13:42:52.000Z</time></trkpt>
<trkpt lat="42.225732" lon="23.580193"><ele>2347.4</ele><time>2026-04-05T13:42:53.000Z</time></trkpt>
<trkpt lat="42.225741" lon="23.580196"><ele>2347.4</ele><time>2026-04-05T13:42:54.000Z</time></trkpt>
<trkpt lat="42.22575" lon="23.580199"><ele>2347.4</ele><time>2026-04-05T13:42:55.000Z</time></trkpt>
<trkpt lat="42.225758" lon="23.580204"><ele>2347.4</ele><time>2026-04-05T13:42:56.000Z</time></trkpt>
<trkpt lat="42.225764" lon="23.580207"><ele>2348.1</ele><time>2026-04-05T13:42:57.000Z</time></trkpt>
<trkpt lat="42.22577" lon="23.580209"><ele>2348.1</ele><time>2026-04-05T13:42:58.000Z</time></trkpt>
<trkpt lat="42.225774" lon="23.580209"><ele>2348.1</ele><time>2026-04-05T13:42:59.000Z</time></trkpt>
<trkpt lat="42.225776" lon="23.580208"><ele>2348.1</ele><time>2026-04-05T13:43:00.000Z</time></trkpt>
<trkpt lat="42.225779" lon="23.580205"><ele>2348.1</ele><time>2026-04-05T13:43:01.000Z</time></trkpt>
<trkpt lat="42.225783" lon="23.580203"><ele>2348.7</ele><time>2026-04-05T13:43:02.000Z</time></trkpt>
<trkpt lat="42.225786" lon="23.580201"><ele>2348.7</ele><time>2026-04-05T13:43:03.000Z</time></trkpt>
<trkpt lat="42.22579" lon="23.580201"><ele>2348.7</ele><time>2026-04-05T13:43:04.000Z</time></trkpt>
<trkpt lat="42.225795" lon="23.580202"><ele>2348.7</ele><time>2026-04-05T13:43:05.000Z</time></trkpt>
<trkpt lat="42.225801" lon="23.580202"><ele>2348.7</ele><time>2026-04-05T13:43:06.000Z</time></trkpt>
<trkpt lat="42.225807" lon="23.580205"><ele>2349</ele><time>2026-04-05T13:43:07.000Z</time></trkpt>
<trkpt lat="42.225813" lon="23.580208"><ele>2349</ele><time>2026-04-05T13:43:08.000Z</time></trkpt>
<trkpt lat="42.225819" lon="23.58021"><ele>2349</ele><time>2026-04-05T13:43:09.000Z</time></trkpt>
<trkpt lat="42.225826" lon="23.580212"><ele>2349</ele><time>2026-04-05T13:43:10.000Z</time></trkpt>
<trkpt lat="42.225832" lon="23.580215"><ele>2349</ele><time>2026-04-05T13:43:11.000Z</time></trkpt>
<trkpt lat="42.225838" lon="23.580217"><ele>2349.4</ele><time>2026-04-05T13:43:12.000Z</time></trkpt>
<trkpt lat="42.225844" lon="23.580218"><ele>2349.4</ele><time>2026-04-05T13:43:13.000Z</time></trkpt>
<trkpt lat="42.22585" lon="23.58022"><ele>2349.4</ele><time>2026-04-05T13:43:14.000Z</time></trkpt>
<trkpt lat="42.225856" lon="23.580223"><ele>2349.4</ele><time>2026-04-05T13:43:15.000Z</time></trkpt>
<trkpt lat="42.225862" lon="23.580226"><ele>2349.4</ele><time>2026-04-05T13:43:16.000Z</time></trkpt>
<trkpt lat="42.225869" lon="23.580231"><ele>2349.7</ele><time>2026-04-05T13:43:17.000Z</time></trkpt>
<trkpt lat="42.225877" lon="23.580236"><ele>2349.7</ele><time>2026-04-05T13:43:18.000Z</time></trkpt>
<trkpt lat="42.225884" lon="23.580241"><ele>2349.7</ele><time>2026-04-05T13:43:19.000Z</time></trkpt>
<trkpt lat="42.225891" lon="23.580246"><ele>2349.7</ele><time>2026-04-05T13:43:20.000Z</time></trkpt>
<trkpt lat="42.225898" lon="23.58025"><ele>2349.7</ele><time>2026-04-05T13:43:21.000Z</time></trkpt>
<trkpt lat="42.225907" lon="23.580254"><ele>2349.8</ele><time>2026-04-05T13:43:22.000Z</time></trkpt>
<trkpt lat="42.225914" lon="23.580256"><ele>2349.8</ele><time>2026-04-05T13:43:23.000Z</time></trkpt>
<trkpt lat="42.225922" lon="23.580258"><ele>2349.8</ele><time>2026-04-05T13:43:24.000Z</time></trkpt>
<trkpt lat="42.225931" lon="23.580261"><ele>2349.8</ele><time>2026-04-05T13:43:25.000Z</time></trkpt>
<trkpt lat="42.225939" lon="23.580263"><ele>2349.8</ele><time>2026-04-05T13:43:26.000Z</time></trkpt>
<trkpt lat="42.225946" lon="23.580265"><ele>2350.3</ele><time>2026-04-05T13:43:27.000Z</time></trkpt>
<trkpt lat="42.225954" lon="23.580268"><ele>2350.3</ele><time>2026-04-05T13:43:28.000Z</time></trkpt>
<trkpt lat="42.225962" lon="23.580271"><ele>2350.3</ele><time>2026-04-05T13:43:29.000Z</time></trkpt>
<trkpt lat="42.225969" lon="23.580275"><ele>2350.3</ele><time>2026-04-05T13:43:30.000Z</time></trkpt>
<trkpt lat="42.225975" lon="23.580279"><ele>2350.3</ele><time>2026-04-05T13:43:31.000Z</time></trkpt>
<trkpt lat="42.225982" lon="23.580285"><ele>2351.1</ele><time>2026-04-05T13:43:32.000Z</time></trkpt>
<trkpt lat="42.225987" lon="23.58029"><ele>2351.1</ele><time>2026-04-05T13:43:33.000Z</time></trkpt>
<trkpt lat="42.225993" lon="23.580295"><ele>2351.1</ele><time>2026-04-05T13:43:34.000Z</time></trkpt>
<trkpt lat="42.225998" lon="23.580298"><ele>2351.1</ele><time>2026-04-05T13:43:35.000Z</time></trkpt>
<trkpt lat="42.226003" lon="23.580302"><ele>2351.1</ele><time>2026-04-05T13:43:36.000Z</time></trkpt>
<trkpt lat="42.226009" lon="23.580305"><ele>2351.5</ele><time>2026-04-05T13:43:37.000Z</time></trkpt>
<trkpt lat="42.226014" lon="23.580309"><ele>2351.5</ele><time>2026-04-05T13:43:38.000Z</time></trkpt>
<trkpt lat="42.226019" lon="23.580312"><ele>2351.5</ele><time>2026-04-05T13:43:39.000Z</time></trkpt>
<trkpt lat="42.226025" lon="23.580316"><ele>2351.5</ele><time>2026-04-05T13:43:40.000Z</time></trkpt>
<trkpt lat="42.226031" lon="23.580321"><ele>2351.5</ele><time>2026-04-05T13:43:41.000Z</time></trkpt>
<trkpt lat="42.226037" lon="23.580325"><ele>2352.6</ele><time>2026-04-05T13:43:42.000Z</time></trkpt>
<trkpt lat="42.226042" lon="23.58033"><ele>2352.6</ele><time>2026-04-05T13:43:43.000Z</time></trkpt>
<trkpt lat="42.226046" lon="23.580335"><ele>2352.6</ele><time>2026-04-05T13:43:44.000Z</time></trkpt>
<trkpt lat="42.226049" lon="23.580339"><ele>2352.6</ele><time>2026-04-05T13:43:45.000Z</time></trkpt>
<trkpt lat="42.22605" lon="23.58034"><ele>2352.6</ele><time>2026-04-05T13:43:46.000Z</time></trkpt>
<trkpt lat="42.226051" lon="23.58034"><ele>2353.6</ele><time>2026-04-05T13:43:47.000Z</time></trkpt>
<trkpt lat="42.226053" lon="23.58034"><ele>2353.6</ele><time>2026-04-05T13:43:48.000Z</time></trkpt>
<trkpt lat="42.226055" lon="23.58034"><ele>2353.6</ele><time>2026-04-05T13:43:49.000Z</time></trkpt>
<trkpt lat="42.226059" lon="23.58034"><ele>2353.6</ele><time>2026-04-05T13:43:50.000Z</time></trkpt>
<trkpt lat="42.226063" lon="23.580341"><ele>2353.6</ele><time>2026-04-05T13:43:51.000Z</time></trkpt>
<trkpt lat="42.226067" lon="23.580342"><ele>2354.1</ele><time>2026-04-05T13:43:52.000Z</time></trkpt>
<trkpt lat="42.226072" lon="23.580344"><ele>2354.1</ele><time>2026-04-05T13:43:53.000Z</time></trkpt>
<trkpt lat="42.226077" lon="23.580348"><ele>2354.1</ele><time>2026-04-05T13:43:54.000Z</time></trkpt>
<trkpt lat="42.226081" lon="23.580352"><ele>2354.1</ele><time>2026-04-05T13:43:55.000Z</time></trkpt>
<trkpt lat="42.226086" lon="23.580358"><ele>2354.1</ele><time>2026-04-05T13:43:56.000Z</time></trkpt>
<trkpt lat="42.22609" lon="23.580365"><ele>2354.9</ele><time>2026-04-05T13:43:57.000Z</time></trkpt>
<trkpt lat="42.226094" lon="23.580372"><ele>2354.9</ele><time>2026-04-05T13:43:58.000Z</time></trkpt>
<trkpt lat="42.226098" lon="23.580378"><ele>2354.9</ele><time>2026-04-05T13:43:59.000Z</time></trkpt>
<trkpt lat="42.226103" lon="23.580384"><ele>2354.9</ele><time>2026-04-05T13:44:00.000Z</time></trkpt>
<trkpt lat="42.226108" lon="23.580389"><ele>2354.9</ele><time>2026-04-05T13:44:01.000Z</time></trkpt>
<trkpt lat="42.226113" lon="23.580395"><ele>2355.4</ele><time>2026-04-05T13:44:02.000Z</time></trkpt>
<trkpt lat="42.226118" lon="23.5804"><ele>2355.4</ele><time>2026-04-05T13:44:03.000Z</time></trkpt>
<trkpt lat="42.226123" lon="23.580405"><ele>2355.4</ele><time>2026-04-05T13:44:04.000Z</time></trkpt>
<trkpt lat="42.226128" lon="23.58041"><ele>2355.4</ele><time>2026-04-05T13:44:05.000Z</time></trkpt>
<trkpt lat="42.226133" lon="23.580414"><ele>2355.4</ele><time>2026-04-05T13:44:06.000Z</time></trkpt>
<trkpt lat="42.226139" lon="23.58042"><ele>2355.7</ele><time>2026-04-05T13:44:07.000Z</time></trkpt>
<trkpt lat="42.226144" lon="23.580425"><ele>2355.7</ele><time>2026-04-05T13:44:08.000Z</time></trkpt>
<trkpt lat="42.226149" lon="23.58043"><ele>2355.7</ele><time>2026-04-05T13:44:09.000Z</time></trkpt>
<trkpt lat="42.226154" lon="23.580436"><ele>2355.7</ele><time>2026-04-05T13:44:10.000Z</time></trkpt>
<trkpt lat="42.226158" lon="23.580441"><ele>2355.7</ele><time>2026-04-05T13:44:11.000Z</time></trkpt>
<trkpt lat="42.226162" lon="23.580446"><ele>2356.4</ele><time>2026-04-05T13:44:12.000Z</time></trkpt>
<trkpt lat="42.226168" lon="23.580451"><ele>2356.4</ele><time>2026-04-05T13:44:13.000Z</time></trkpt>
<trkpt lat="42.226173" lon="23.580455"><ele>2356.4</ele><time>2026-04-05T13:44:14.000Z</time></trkpt>
<trkpt lat="42.226178" lon="23.58046"><ele>2356.4</ele><time>2026-04-05T13:44:15.000Z</time></trkpt>
<trkpt lat="42.226183" lon="23.580466"><ele>2356.4</ele><time>2026-04-05T13:44:16.000Z</time></trkpt>
<trkpt lat="42.226186" lon="23.580472"><ele>2357.3</ele><time>2026-04-05T13:44:17.000Z</time></trkpt>
<trkpt lat="42.226188" lon="23.580478"><ele>2357.3</ele><time>2026-04-05T13:44:18.000Z</time></trkpt>
<trkpt lat="42.226188" lon="23.580482"><ele>2357.3</ele><time>2026-04-05T13:44:19.000Z</time></trkpt>
<trkpt lat="42.226188" lon="23.580485"><ele>2357.3</ele><time>2026-04-05T13:44:20.000Z</time></trkpt>
<trkpt lat="42.226189" lon="23.580487"><ele>2357.3</ele><time>2026-04-05T13:44:21.000Z</time></trkpt>
<trkpt lat="42.226189" lon="23.580487"><ele>2357.8</ele><time>2026-04-05T13:44:22.000Z</time></trkpt>
<trkpt lat="42.22619" lon="23.580487"><ele>2357.8</ele><time>2026-04-05T13:44:23.000Z</time></trkpt>
<trkpt lat="42.22619" lon="23.580488"><ele>2357.8</ele><time>2026-04-05T13:44:24.000Z</time></trkpt>
<trkpt lat="42.226191" lon="23.580489"><ele>2357.8</ele><time>2026-04-05T13:44:25.000Z</time></trkpt>
<trkpt lat="42.226191" lon="23.580489"><ele>2357.8</ele><time>2026-04-05T13:44:26.000Z</time></trkpt>
<trkpt lat="42.226193" lon="23.580491"><ele>2358.7</ele><time>2026-04-05T13:44:27.000Z</time></trkpt>
<trkpt lat="42.226196" lon="23.580493"><ele>2358.7</ele><time>2026-04-05T13:44:28.000Z</time></trkpt>
<trkpt lat="42.2262" lon="23.580496"><ele>2358.7</ele><time>2026-04-05T13:44:29.000Z</time></trkpt>
<trkpt lat="42.226205" lon="23.580499"><ele>2358.7</ele><time>2026-04-05T13:44:30.000Z</time></trkpt>
<trkpt lat="42.22621" lon="23.580504"><ele>2358.7</ele><time>2026-04-05T13:44:31.000Z</time></trkpt>
<trkpt lat="42.226215" lon="23.580508"><ele>2359.4</ele><time>2026-04-05T13:44:32.000Z</time></trkpt>
<trkpt lat="42.226221" lon="23.580512"><ele>2359.4</ele><time>2026-04-05T13:44:33.000Z</time></trkpt>
<trkpt lat="42.226227" lon="23.580516"><ele>2359.4</ele><time>2026-04-05T13:44:34.000Z</time></trkpt>
<trkpt lat="42.226232" lon="23.58052"><ele>2359.4</ele><time>2026-04-05T13:44:35.000Z</time></trkpt>
<trkpt lat="42.226237" lon="23.580524"><ele>2359.4</ele><time>2026-04-05T13:44:36.000Z</time></trkpt>
<trkpt lat="42.226243" lon="23.580529"><ele>2359.6</ele><time>2026-04-05T13:44:37.000Z</time></trkpt>
<trkpt lat="42.226247" lon="23.580536"><ele>2359.6</ele><time>2026-04-05T13:44:38.000Z</time></trkpt>
<trkpt lat="42.226252" lon="23.580542"><ele>2359.6</ele><time>2026-04-05T13:44:39.000Z</time></trkpt>
<trkpt lat="42.226256" lon="23.580549"><ele>2359.6</ele><time>2026-04-05T13:44:40.000Z</time></trkpt>
<trkpt lat="42.22626" lon="23.580556"><ele>2359.6</ele><time>2026-04-05T13:44:41.000Z</time></trkpt>
<trkpt lat="42.226264" lon="23.580563"><ele>2360.1</ele><time>2026-04-05T13:44:42.000Z</time></trkpt>
<trkpt lat="42.226269" lon="23.580569"><ele>2360.1</ele><time>2026-04-05T13:44:43.000Z</time></trkpt>
<trkpt lat="42.226274" lon="23.580575"><ele>2360.1</ele><time>2026-04-05T13:44:44.000Z</time></trkpt>
<trkpt lat="42.226279" lon="23.580582"><ele>2360.1</ele><time>2026-04-05T13:44:45.000Z</time></trkpt>
<trkpt lat="42.226284" lon="23.580588"><ele>2360.1</ele><time>2026-04-05T13:44:46.000Z</time></trkpt>
<trkpt lat="42.226288" lon="23.580594"><ele>2360.8</ele><time>2026-04-05T13:44:47.000Z</time></trkpt>
<trkpt lat="42.226293" lon="23.580601"><ele>2360.8</ele><time>2026-04-05T13:44:48.000Z</time></trkpt>
<trkpt lat="42.226297" lon="23.580607"><ele>2360.8</ele><time>2026-04-05T13:44:49.000Z</time></trkpt>
<trkpt lat="42.226302" lon="23.580614"><ele>2360.8</ele><time>2026-04-05T13:44:50.000Z</time></trkpt>
<trkpt lat="42.226307" lon="23.580622"><ele>2360.8</ele><time>2026-04-05T13:44:51.000Z</time></trkpt>
<trkpt lat="42.226313" lon="23.580631"><ele>2361.1</ele><time>2026-04-05T13:44:52.000Z</time></trkpt>
<trkpt lat="42.226318" lon="23.580639"><ele>2361.1</ele><time>2026-04-05T13:44:53.000Z</time></trkpt>
<trkpt lat="42.226323" lon="23.580648"><ele>2361.1</ele><time>2026-04-05T13:44:54.000Z</time></trkpt>
<trkpt lat="42.226329" lon="23.580657"><ele>2361.1</ele><time>2026-04-05T13:44:55.000Z</time></trkpt>
<trkpt lat="42.226335" lon="23.580664"><ele>2361.1</ele><time>2026-04-05T13:44:56.000Z</time></trkpt>
<trkpt lat="42.22634" lon="23.580672"><ele>2361.9</ele><time>2026-04-05T13:44:57.000Z</time></trkpt>
<trkpt lat="42.226346" lon="23.580682"><ele>2361.9</ele><time>2026-04-05T13:44:58.000Z</time></trkpt>
<trkpt lat="42.226351" lon="23.580691"><ele>2361.9</ele><time>2026-04-05T13:44:59.000Z</time></trkpt>
<trkpt lat="42.226356" lon="23.580701"><ele>2361.9</ele><time>2026-04-05T13:45:00.000Z</time></trkpt>
<trkpt lat="42.226361" lon="23.580712"><ele>2361.9</ele><time>2026-04-05T13:45:01.000Z</time></trkpt>
<trkpt lat="42.226366" lon="23.580722"><ele>2362.6</ele><time>2026-04-05T13:45:02.000Z</time></trkpt>
<trkpt lat="42.226371" lon="23.580731"><ele>2362.6</ele><time>2026-04-05T13:45:03.000Z</time></trkpt>
<trkpt lat="42.226377" lon="23.58074"><ele>2362.6</ele><time>2026-04-05T13:45:04.000Z</time></trkpt>
<trkpt lat="42.226383" lon="23.580748"><ele>2362.6</ele><time>2026-04-05T13:45:05.000Z</time></trkpt>
<trkpt lat="42.226388" lon="23.580756"><ele>2362.6</ele><time>2026-04-05T13:45:06.000Z</time></trkpt>
<trkpt lat="42.226393" lon="23.580764"><ele>2363</ele><time>2026-04-05T13:45:07.000Z</time></trkpt>
<trkpt lat="42.226398" lon="23.580772"><ele>2363</ele><time>2026-04-05T13:45:08.000Z</time></trkpt>
<trkpt lat="42.226403" lon="23.580779"><ele>2363</ele><time>2026-04-05T13:45:09.000Z</time></trkpt>
<trkpt lat="42.226408" lon="23.580785"><ele>2363</ele><time>2026-04-05T13:45:10.000Z</time></trkpt>
<trkpt lat="42.226413" lon="23.580792"><ele>2363</ele><time>2026-04-05T13:45:11.000Z</time></trkpt>
<trkpt lat="42.226418" lon="23.580798"><ele>2363.5</ele><time>2026-04-05T13:45:12.000Z</time></trkpt>
<trkpt lat="42.226422" lon="23.580806"><ele>2363.5</ele><time>2026-04-05T13:45:13.000Z</time></trkpt>
<trkpt lat="42.226426" lon="23.580815"><ele>2363.5</ele><time>2026-04-05T13:45:14.000Z</time></trkpt>
<trkpt lat="42.22643" lon="23.580824"><ele>2363.5</ele><time>2026-04-05T13:45:15.000Z</time></trkpt>
<trkpt lat="42.226433" lon="23.580832"><ele>2363.5</ele><time>2026-04-05T13:45:16.000Z</time></trkpt>
<trkpt lat="42.226438" lon="23.580839"><ele>2364</ele><time>2026-04-05T13:45:17.000Z</time></trkpt>
<trkpt lat="42.226444" lon="23.580844"><ele>2364</ele><time>2026-04-05T13:45:18.000Z</time></trkpt>
<trkpt lat="42.226452" lon="23.580849"><ele>2364</ele><time>2026-04-05T13:45:19.000Z</time></trkpt>
<trkpt lat="42.226459" lon="23.580854"><ele>2364</ele><time>2026-04-05T13:45:20.000Z</time></trkpt>
<trkpt lat="42.226466" lon="23.58086"><ele>2364</ele><time>2026-04-05T13:45:21.000Z</time></trkpt>
<trkpt lat="42.226473" lon="23.580867"><ele>2364.3</ele><time>2026-04-05T13:45:22.000Z</time></trkpt>
<trkpt lat="42.226479" lon="23.580874"><ele>2364.3</ele><time>2026-04-05T13:45:23.000Z</time></trkpt>
<trkpt lat="42.226484" lon="23.58088"><ele>2364.3</ele><time>2026-04-05T13:45:24.000Z</time></trkpt>
<trkpt lat="42.226491" lon="23.580886"><ele>2364.3</ele><time>2026-04-05T13:45:25.000Z</time></trkpt>
<trkpt lat="42.226498" lon="23.580891"><ele>2364.3</ele><time>2026-04-05T13:45:26.000Z</time></trkpt>
<trkpt lat="42.226505" lon="23.580896"><ele>2364.9</ele><time>2026-04-05T13:45:27.000Z</time></trkpt>
<trkpt lat="42.226513" lon="23.580901"><ele>2364.9</ele><time>2026-04-05T13:45:28.000Z</time></trkpt>
<trkpt lat="42.226521" lon="23.580907"><ele>2364.9</ele><time>2026-04-05T13:45:29.000Z</time></trkpt>
<trkpt lat="42.226528" lon="23.580913"><ele>2364.9</ele><time>2026-04-05T13:45:30.000Z</time></trkpt>
<trkpt lat="42.226535" lon="23.58092"><ele>2364.9</ele><time>2026-04-05T13:45:31.000Z</time></trkpt>
<trkpt lat="42.226542" lon="23.580927"><ele>2365.6</ele><time>2026-04-05T13:45:32.000Z</time></trkpt>
<trkpt lat="42.226548" lon="23.580935"><ele>2365.6</ele><time>2026-04-05T13:45:33.000Z</time></trkpt>
<trkpt lat="42.226553" lon="23.580943"><ele>2365.6</ele><time>2026-04-05T13:45:34.000Z</time></trkpt>
<trkpt lat="42.226559" lon="23.580952"><ele>2365.6</ele><time>2026-04-05T13:45:35.000Z</time></trkpt>
<trkpt lat="42.226564" lon="23.580961"><ele>2365.6</ele><time>2026-04-05T13:45:36.000Z</time></trkpt>
<trkpt lat="42.226569" lon="23.58097"><ele>2365.9</ele><time>2026-04-05T13:45:37.000Z</time></trkpt>
<trkpt lat="42.226575" lon="23.580979"><ele>2365.9</ele><time>2026-04-05T13:45:38.000Z</time></trkpt>
<trkpt lat="42.226582" lon="23.580989"><ele>2365.9</ele><time>2026-04-05T13:45:39.000Z</time></trkpt>
<trkpt lat="42.226589" lon="23.580997"><ele>2365.9</ele><time>2026-04-05T13:45:40.000Z</time></trkpt>
<trkpt lat="42.226596" lon="23.581005"><ele>2365.9</ele><time>2026-04-05T13:45:41.000Z</time></trkpt>
<trkpt lat="42.226603" lon="23.581014"><ele>2366.2</ele><time>2026-04-05T13:45:42.000Z</time></trkpt>
<trkpt lat="42.226611" lon="23.581021"><ele>2366.2</ele><time>2026-04-05T13:45:43.000Z</time></trkpt>
<trkpt lat="42.226618" lon="23.581028"><ele>2366.2</ele><time>2026-04-05T13:45:44.000Z</time></trkpt>
<trkpt lat="42.226626" lon="23.581034"><ele>2366.2</ele><time>2026-04-05T13:45:45.000Z</time></trkpt>
<trkpt lat="42.226632" lon="23.581039"><ele>2366.2</ele><time>2026-04-05T13:45:46.000Z</time></trkpt>
<trkpt lat="42.226637" lon="23.581044"><ele>2366.5</ele><time>2026-04-05T13:45:47.000Z</time></trkpt>
<trkpt lat="42.226642" lon="23.581049"><ele>2366.5</ele><time>2026-04-05T13:45:48.000Z</time></trkpt>
<trkpt lat="42.226647" lon="23.581056"><ele>2366.5</ele><time>2026-04-05T13:45:49.000Z</time></trkpt>
<trkpt lat="42.226651" lon="23.581063"><ele>2366.5</ele><time>2026-04-05T13:45:50.000Z</time></trkpt>
<trkpt lat="42.226656" lon="23.581073"><ele>2366.5</ele><time>2026-04-05T13:45:51.000Z</time></trkpt>
<trkpt lat="42.226662" lon="23.581083"><ele>2366.6</ele><time>2026-04-05T13:45:52.000Z</time></trkpt>
<trkpt lat="42.226668" lon="23.581093"><ele>2366.6</ele><time>2026-04-05T13:45:53.000Z</time></trkpt>
<trkpt lat="42.226675" lon="23.581102"><ele>2366.6</ele><time>2026-04-05T13:45:54.000Z</time></trkpt>
<trkpt lat="42.226683" lon="23.581109"><ele>2366.6</ele><time>2026-04-05T13:45:55.000Z</time></trkpt>
<trkpt lat="42.226691" lon="23.581116"><ele>2366.6</ele><time>2026-04-05T13:45:56.000Z</time></trkpt>
<trkpt lat="42.226699" lon="23.581121"><ele>2366.8</ele><time>2026-04-05T13:45:57.000Z</time></trkpt>
<trkpt lat="42.226708" lon="23.581126"><ele>2366.8</ele><time>2026-04-05T13:45:58.000Z</time></trkpt>
<trkpt lat="42.226717" lon="23.581131"><ele>2366.8</ele><time>2026-04-05T13:45:59.000Z</time></trkpt>
<trkpt lat="42.226725" lon="23.581135"><ele>2366.8</ele><time>2026-04-05T13:46:00.000Z</time></trkpt>
<trkpt lat="42.226734" lon="23.581139"><ele>2366.8</ele><time>2026-04-05T13:46:01.000Z</time></trkpt>
<trkpt lat="42.226743" lon="23.581144"><ele>2366.9</ele><time>2026-04-05T13:46:02.000Z</time></trkpt>
<trkpt lat="42.226752" lon="23.581149"><ele>2366.9</ele><time>2026-04-05T13:46:03.000Z</time></trkpt>
<trkpt lat="42.22676" lon="23.581154"><ele>2366.9</ele><time>2026-04-05T13:46:04.000Z</time></trkpt>
<trkpt lat="42.226769" lon="23.581158"><ele>2366.9</ele><time>2026-04-05T13:46:05.000Z</time></trkpt>
<trkpt lat="42.226778" lon="23.58116"><ele>2366.9</ele><time>2026-04-05T13:46:06.000Z</time></trkpt>
<trkpt lat="42.226787" lon="23.581158"><ele>2366.9</ele><time>2026-04-05T13:46:07.000Z</time></trkpt>
<trkpt lat="42.226795" lon="23.581155"><ele>2366.9</ele><time>2026-04-05T13:46:08.000Z</time></trkpt>
<trkpt lat="42.226804" lon="23.581149"><ele>2366.9</ele><time>2026-04-05T13:46:09.000Z</time></trkpt>
<trkpt lat="42.226811" lon="23.581143"><ele>2366.9</ele><time>2026-04-05T13:46:10.000Z</time></trkpt>
<trkpt lat="42.226818" lon="23.581138"><ele>2366.9</ele><time>2026-04-05T13:46:11.000Z</time></trkpt>
<trkpt lat="42.226824" lon="23.581136"><ele>2366.7</ele><time>2026-04-05T13:46:12.000Z</time></trkpt>
<trkpt lat="42.226831" lon="23.581135"><ele>2366.7</ele><time>2026-04-05T13:46:13.000Z</time></trkpt>
<trkpt lat="42.226839" lon="23.581137"><ele>2366.7</ele><time>2026-04-05T13:46:14.000Z</time></trkpt>
<trkpt lat="42.226848" lon="23.58114"><ele>2366.7</ele><time>2026-04-05T13:46:15.000Z</time></trkpt>
<trkpt lat="42.226859" lon="23.581143"><ele>2366.7</ele><time>2026-04-05T13:46:16.000Z</time></trkpt>
<trkpt lat="42.22687" lon="23.581144"><ele>2366.1</ele><time>2026-04-05T13:46:17.000Z</time></trkpt>
<trkpt lat="42.226881" lon="23.581145"><ele>2366.1</ele><time>2026-04-05T13:46:18.000Z</time></trkpt>
<trkpt lat="42.226893" lon="23.581145"><ele>2366.1</ele><time>2026-04-05T13:46:19.000Z</time></trkpt>
<trkpt lat="42.226902" lon="23.581142"><ele>2366.1</ele><time>2026-04-05T13:46:20.000Z</time></trkpt>
<trkpt lat="42.22691" lon="23.581138"><ele>2366.1</ele><time>2026-04-05T13:46:21.000Z</time></trkpt>
<trkpt lat="42.226916" lon="23.581133"><ele>2365.8</ele><time>2026-04-05T13:46:22.000Z</time></trkpt>
<trkpt lat="42.22692" lon="23.581129"><ele>2365.8</ele><time>2026-04-05T13:46:23.000Z</time></trkpt>
<trkpt lat="42.226921" lon="23.581123"><ele>2365.8</ele><time>2026-04-05T13:46:24.000Z</time></trkpt>
<trkpt lat="42.226921" lon="23.581118"><ele>2365.8</ele><time>2026-04-05T13:46:25.000Z</time></trkpt>
<trkpt lat="42.226921" lon="23.581115"><ele>2365.8</ele><time>2026-04-05T13:46:26.000Z</time></trkpt>
<trkpt lat="42.22692" lon="23.581113"><ele>2365.1</ele><time>2026-04-05T13:46:27.000Z</time></trkpt>
<trkpt lat="42.22692" lon="23.581112"><ele>2365.1</ele><time>2026-04-05T13:46:28.000Z</time></trkpt>
<trkpt lat="42.226919" lon="23.581112"><ele>2365.1</ele><time>2026-04-05T13:46:29.000Z</time></trkpt>
<trkpt lat="42.226919" lon="23.581113"><ele>2365.1</ele><time>2026-04-05T13:46:30.000Z</time></trkpt>
<trkpt lat="42.226919" lon="23.581114"><ele>2365.1</ele><time>2026-04-05T13:46:31.000Z</time></trkpt>
<trkpt lat="42.226919" lon="23.581115"><ele>2364.5</ele><time>2026-04-05T13:46:32.000Z</time></trkpt>
<trkpt lat="42.226919" lon="23.581116"><ele>2364.5</ele><time>2026-04-05T13:46:33.000Z</time></trkpt>
<trkpt lat="42.226919" lon="23.581117"><ele>2364.5</ele><time>2026-04-05T13:46:34.000Z</time></trkpt>
<trkpt lat="42.226919" lon="23.581118"><ele>2364.5</ele><time>2026-04-05T13:46:35.000Z</time></trkpt>
<trkpt lat="42.226919" lon="23.581118"><ele>2364.5</ele><time>2026-04-05T13:46:36.000Z</time></trkpt>
<trkpt lat="42.226919" lon="23.581118"><ele>2364.3</ele><time>2026-04-05T13:46:37.000Z</time></trkpt>
<trkpt lat="42.226919" lon="23.58112"><ele>2364.3</ele><time>2026-04-05T13:46:38.000Z</time></trkpt>
<trkpt lat="42.226919" lon="23.581121"><ele>2364.3</ele><time>2026-04-05T13:46:39.000Z</time></trkpt>
<trkpt lat="42.226919" lon="23.581122"><ele>2364.3</ele><time>2026-04-05T13:46:40.000Z</time></trkpt>
<trkpt lat="42.22692" lon="23.581123"><ele>2364.3</ele><time>2026-04-05T13:46:41.000Z</time></trkpt>
<trkpt lat="42.226919" lon="23.581124"><ele>2364.2</ele><time>2026-04-05T13:46:42.000Z</time></trkpt>
<trkpt lat="42.226919" lon="23.581124"><ele>2364.2</ele><time>2026-04-05T13:46:43.000Z</time></trkpt>
<trkpt lat="42.226918" lon="23.581125"><ele>2364.2</ele><time>2026-04-05T13:46:44.000Z</time></trkpt>
<trkpt lat="42.226917" lon="23.581126"><ele>2364.2</ele><time>2026-04-05T13:46:45.000Z</time></trkpt>
<trkpt lat="42.226916" lon="23.581127"><ele>2364.2</ele><time>2026-04-05T13:46:46.000Z</time></trkpt>
<trkpt lat="42.226915" lon="23.581127"><ele>2364.3</ele><time>2026-04-05T13:46:47.000Z</time></trkpt>
<trkpt lat="42.226914" lon="23.581127"><ele>2364.3</ele><time>2026-04-05T13:46:48.000Z</time></trkpt>
<trkpt lat="42.226915" lon="23.581127"><ele>2364.3</ele><time>2026-04-05T13:46:49.000Z</time></trkpt>
<trkpt lat="42.226915" lon="23.581127"><ele>2364.3</ele><time>2026-04-05T13:46:50.000Z</time></trkpt>
<trkpt lat="42.226916" lon="23.581127"><ele>2364.3</ele><time>2026-04-05T13:46:51.000Z</time></trkpt>
<trkpt lat="42.226917" lon="23.581127"><ele>2364.3</ele><time>2026-04-05T13:46:52.000Z</time></trkpt>
<trkpt lat="42.226917" lon="23.581127"><ele>2364.3</ele><time>2026-04-05T13:46:53.000Z</time></trkpt>
<trkpt lat="42.226917" lon="23.581127"><ele>2364.3</ele><time>2026-04-05T13:46:54.000Z</time></trkpt>
<trkpt lat="42.226917" lon="23.581127"><ele>2364.3</ele><time>2026-04-05T13:46:55.000Z</time></trkpt>
<trkpt lat="42.226917" lon="23.581127"><ele>2364.3</ele><time>2026-04-05T13:46:56.000Z</time></trkpt>
<trkpt lat="42.226917" lon="23.581127"><ele>2364.3</ele><time>2026-04-05T13:46:57.000Z</time></trkpt>
<trkpt lat="42.226917" lon="23.581127"><ele>2364.3</ele><time>2026-04-05T13:46:58.000Z</time></trkpt>
<trkpt lat="42.226917" lon="23.581127"><ele>2364.3</ele><time>2026-04-05T13:46:59.000Z</time></trkpt>
<trkpt lat="42.226917" lon="23.581127"><ele>2364.3</ele><time>2026-04-05T13:47:00.000Z</time></trkpt>
<trkpt lat="42.226917" lon="23.581127"><ele>2364.3</ele><time>2026-04-05T13:47:01.000Z</time></trkpt>
<trkpt lat="42.226917" lon="23.581126"><ele>2364.4</ele><time>2026-04-05T13:47:02.000Z</time></trkpt>
<trkpt lat="42.226917" lon="23.581125"><ele>2364.4</ele><time>2026-04-05T13:47:03.000Z</time></trkpt>
<trkpt lat="42.226917" lon="23.581123"><ele>2364.4</ele><time>2026-04-05T13:47:04.000Z</time></trkpt>
<trkpt lat="42.226916" lon="23.581121"><ele>2364.4</ele><time>2026-04-05T13:47:05.000Z</time></trkpt>
<trkpt lat="42.226916" lon="23.58112"><ele>2364.4</ele><time>2026-04-05T13:47:06.000Z</time></trkpt>
<trkpt lat="42.226916" lon="23.581119"><ele>2364.4</ele><time>2026-04-05T13:47:07.000Z</time></trkpt>
<trkpt lat="42.226916" lon="23.581118"><ele>2364.4</ele><time>2026-04-05T13:47:08.000Z</time></trkpt>
<trkpt lat="42.226917" lon="23.581117"><ele>2364.4</ele><time>2026-04-05T13:47:09.000Z</time></trkpt>
<trkpt lat="42.226916" lon="23.581114"><ele>2364.4</ele><time>2026-04-05T13:47:10.000Z</time></trkpt>
<trkpt lat="42.226916" lon="23.581112"><ele>2364.4</ele><time>2026-04-05T13:47:11.000Z</time></trkpt>
<trkpt lat="42.226916" lon="23.58111"><ele>2364.5</ele><time>2026-04-05T13:47:12.000Z</time></trkpt>
<trkpt lat="42.226916" lon="23.581108"><ele>2364.5</ele><time>2026-04-05T13:47:13.000Z</time></trkpt>
<trkpt lat="42.226916" lon="23.581107"><ele>2364.5</ele><time>2026-04-05T13:47:14.000Z</time></trkpt>
<trkpt lat="42.226916" lon="23.581107"><ele>2364.5</ele><time>2026-04-05T13:47:15.000Z</time></trkpt>
<trkpt lat="42.226916" lon="23.581107"><ele>2364.5</ele><time>2026-04-05T13:47:16.000Z</time></trkpt>
<trkpt lat="42.226916" lon="23.581107"><ele>2364.5</ele><time>2026-04-05T13:47:17.000Z</time></trkpt>
<trkpt lat="42.226916" lon="23.581107"><ele>2364.5</ele><time>2026-04-05T13:47:18.000Z</time></trkpt>
<trkpt lat="42.226917" lon="23.581108"><ele>2364.5</ele><time>2026-04-05T13:47:19.000Z</time></trkpt>
<trkpt lat="42.226917" lon="23.581108"><ele>2364.5</ele><time>2026-04-05T13:47:20.000Z</time></trkpt>
<trkpt lat="42.226918" lon="23.581109"><ele>2364.5</ele><time>2026-04-05T13:47:21.000Z</time></trkpt>
<trkpt lat="42.226918" lon="23.581109"><ele>2364.5</ele><time>2026-04-05T13:47:22.000Z</time></trkpt>
<trkpt lat="42.226918" lon="23.58111"><ele>2364.5</ele><time>2026-04-05T13:47:23.000Z</time></trkpt>
<trkpt lat="42.226919" lon="23.58111"><ele>2364.5</ele><time>2026-04-05T13:47:24.000Z</time></trkpt>
<trkpt lat="42.226919" lon="23.58111"><ele>2364.5</ele><time>2026-04-05T13:47:25.000Z</time></trkpt>
<trkpt lat="42.226919" lon="23.58111"><ele>2364.5</ele><time>2026-04-05T13:47:26.000Z</time></trkpt>
<trkpt lat="42.226919" lon="23.58111"><ele>2364.4</ele><time>2026-04-05T13:47:27.000Z</time></trkpt>
<trkpt lat="42.226919" lon="23.58111"><ele>2364.4</ele><time>2026-04-05T13:47:28.000Z</time></trkpt>
<trkpt lat="42.226919" lon="23.58111"><ele>2364.4</ele><time>2026-04-05T13:47:29.000Z</time></trkpt>
<trkpt lat="42.226919" lon="23.58111"><ele>2364.4</ele><time>2026-04-05T13:47:30.000Z</time></trkpt>
<trkpt lat="42.226919" lon="23.58111"><ele>2364.4</ele><time>2026-04-05T13:47:31.000Z</time></trkpt>
<trkpt lat="42.226919" lon="23.58111"><ele>2364.3</ele><time>2026-04-05T13:47:32.000Z</time></trkpt>
<trkpt lat="42.226919" lon="23.58111"><ele>2364.3</ele><time>2026-04-05T13:47:33.000Z</time></trkpt>
<trkpt lat="42.226919" lon="23.58111"><ele>2364.3</ele><time>2026-04-05T13:47:34.000Z</time></trkpt>
<trkpt lat="42.226919" lon="23.58111"><ele>2364.3</ele><time>2026-04-05T13:47:35.000Z</time></trkpt>
<trkpt lat="42.226919" lon="23.58111"><ele>2364.3</ele><time>2026-04-05T13:47:36.000Z</time></trkpt>
<trkpt lat="42.226919" lon="23.58111"><ele>2364.3</ele><time>2026-04-05T13:47:37.000Z</time></trkpt>
<trkpt lat="42.226919" lon="23.58111"><ele>2364.3</ele><time>2026-04-05T13:47:38.000Z</time></trkpt>
<trkpt lat="42.226919" lon="23.58111"><ele>2364.3</ele><time>2026-04-05T13:47:39.000Z</time></trkpt>
<trkpt lat="42.226919" lon="23.58111"><ele>2364.3</ele><time>2026-04-05T13:47:40.000Z</time></trkpt>
<trkpt lat="42.226919" lon="23.58111"><ele>2364.3</ele><time>2026-04-05T13:47:41.000Z</time></trkpt>
<trkpt lat="42.226919" lon="23.58111"><ele>2364.3</ele><time>2026-04-05T13:47:42.000Z</time></trkpt>
<trkpt lat="42.22692" lon="23.581111"><ele>2364.3</ele><time>2026-04-05T13:47:43.000Z</time></trkpt>
<trkpt lat="42.22692" lon="23.581112"><ele>2364.3</ele><time>2026-04-05T13:47:44.000Z</time></trkpt>
<trkpt lat="42.22692" lon="23.581114"><ele>2364.3</ele><time>2026-04-05T13:47:45.000Z</time></trkpt>
<trkpt lat="42.226919" lon="23.581115"><ele>2364.3</ele><time>2026-04-05T13:47:46.000Z</time></trkpt>
<trkpt lat="42.226919" lon="23.581116"><ele>2364.2</ele><time>2026-04-05T13:47:47.000Z</time></trkpt>
<trkpt lat="42.226919" lon="23.581116"><ele>2364.2</ele><time>2026-04-05T13:47:48.000Z</time></trkpt>
<trkpt lat="42.226919" lon="23.581116"><ele>2364.2</ele><time>2026-04-05T13:47:49.000Z</time></trkpt>
<trkpt lat="42.226919" lon="23.581117"><ele>2364.2</ele><time>2026-04-05T13:47:50.000Z</time></trkpt>
<trkpt lat="42.226919" lon="23.581117"><ele>2364.2</ele><time>2026-04-05T13:47:51.000Z</time></trkpt>
<trkpt lat="42.226919" lon="23.581117"><ele>2364.2</ele><time>2026-04-05T13:47:52.000Z</time></trkpt>
<trkpt lat="42.226919" lon="23.581118"><ele>2364.2</ele><time>2026-04-05T13:47:53.000Z</time></trkpt>
<trkpt lat="42.226918" lon="23.581118"><ele>2364.2</ele><time>2026-04-05T13:47:54.000Z</time></trkpt>
<trkpt lat="42.226918" lon="23.581118"><ele>2364.2</ele><time>2026-04-05T13:47:55.000Z</time></trkpt>
<trkpt lat="42.226918" lon="23.581118"><ele>2364.2</ele><time>2026-04-05T13:47:56.000Z</time></trkpt>
<trkpt lat="42.226918" lon="23.581117"><ele>2364.2</ele><time>2026-04-05T13:47:57.000Z</time></trkpt>
<trkpt lat="42.226919" lon="23.581116"><ele>2364.2</ele><time>2026-04-05T13:47:58.000Z</time></trkpt>
<trkpt lat="42.226919" lon="23.581116"><ele>2364.2</ele><time>2026-04-05T13:47:59.000Z</time></trkpt>
<trkpt lat="42.22692" lon="23.581116"><ele>2364.2</ele><time>2026-04-05T13:48:00.000Z</time></trkpt>
<trkpt lat="42.22692" lon="23.581116"><ele>2364.2</ele><time>2026-04-05T13:48:01.000Z</time></trkpt>
<trkpt lat="42.226921" lon="23.581115"><ele>2364.4</ele><time>2026-04-05T13:48:02.000Z</time></trkpt>
<trkpt lat="42.226921" lon="23.581114"><ele>2364.4</ele><time>2026-04-05T13:48:03.000Z</time></trkpt>
<trkpt lat="42.226921" lon="23.581112"><ele>2364.4</ele><time>2026-04-05T13:48:04.000Z</time></trkpt>
<trkpt lat="42.226922" lon="23.581111"><ele>2364.4</ele><time>2026-04-05T13:48:05.000Z</time></trkpt>
<trkpt lat="42.226922" lon="23.581109"><ele>2364.4</ele><time>2026-04-05T13:48:06.000Z</time></trkpt>
<trkpt lat="42.226922" lon="23.581108"><ele>2364.4</ele><time>2026-04-05T13:48:07.000Z</time></trkpt>
<trkpt lat="42.226921" lon="23.581108"><ele>2364.4</ele><time>2026-04-05T13:48:08.000Z</time></trkpt>
<trkpt lat="42.226921" lon="23.581108"><ele>2364.4</ele><time>2026-04-05T13:48:09.000Z</time></trkpt>
<trkpt lat="42.226921" lon="23.581108"><ele>2364.4</ele><time>2026-04-05T13:48:10.000Z</time></trkpt>
<trkpt lat="42.22692" lon="23.581108"><ele>2364.4</ele><time>2026-04-05T13:48:11.000Z</time></trkpt>
<trkpt lat="42.22692" lon="23.581108"><ele>2364.4</ele><time>2026-04-05T13:48:12.000Z</time></trkpt>
<trkpt lat="42.226919" lon="23.581109"><ele>2364.4</ele><time>2026-04-05T13:48:13.000Z</time></trkpt>
<trkpt lat="42.226919" lon="23.581109"><ele>2364.4</ele><time>2026-04-05T13:48:14.000Z</time></trkpt>
<trkpt lat="42.226918" lon="23.58111"><ele>2364.4</ele><time>2026-04-05T13:48:15.000Z</time></trkpt>
<trkpt lat="42.226918" lon="23.58111"><ele>2364.4</ele><time>2026-04-05T13:48:16.000Z</time></trkpt>
<trkpt lat="42.226918" lon="23.581111"><ele>2364.4</ele><time>2026-04-05T13:48:17.000Z</time></trkpt>
<trkpt lat="42.226919" lon="23.581111"><ele>2364.4</ele><time>2026-04-05T13:48:18.000Z</time></trkpt>
<trkpt lat="42.226919" lon="23.581111"><ele>2364.4</ele><time>2026-04-05T13:48:19.000Z</time></trkpt>
<trkpt lat="42.22692" lon="23.581111"><ele>2364.4</ele><time>2026-04-05T13:48:20.000Z</time></trkpt>
<trkpt lat="42.22692" lon="23.581111"><ele>2364.4</ele><time>2026-04-05T13:48:21.000Z</time></trkpt>
<trkpt lat="42.22692" lon="23.581111"><ele>2364.4</ele><time>2026-04-05T13:48:22.000Z</time></trkpt>
<trkpt lat="42.22692" lon="23.581111"><ele>2364.4</ele><time>2026-04-05T13:48:23.000Z</time></trkpt>
<trkpt lat="42.22692" lon="23.58111"><ele>2364.4</ele><time>2026-04-05T13:48:24.000Z</time></trkpt>
<trkpt lat="42.22692" lon="23.581109"><ele>2364.4</ele><time>2026-04-05T13:48:25.000Z</time></trkpt>
<trkpt lat="42.226921" lon="23.581108"><ele>2364.4</ele><time>2026-04-05T13:48:26.000Z</time></trkpt>
<trkpt lat="42.226921" lon="23.581107"><ele>2364.5</ele><time>2026-04-05T13:48:27.000Z</time></trkpt>
<trkpt lat="42.226922" lon="23.581107"><ele>2364.5</ele><time>2026-04-05T13:48:28.000Z</time></trkpt>
<trkpt lat="42.226921" lon="23.581106"><ele>2364.5</ele><time>2026-04-05T13:48:29.000Z</time></trkpt>
<trkpt lat="42.226921" lon="23.581107"><ele>2364.5</ele><time>2026-04-05T13:48:30.000Z</time></trkpt>
<trkpt lat="42.226921" lon="23.581107"><ele>2364.5</ele><time>2026-04-05T13:48:31.000Z</time></trkpt>
<trkpt lat="42.226921" lon="23.581106"><ele>2364.6</ele><time>2026-04-05T13:48:32.000Z</time></trkpt>
<trkpt lat="42.226921" lon="23.581106"><ele>2364.6</ele><time>2026-04-05T13:48:33.000Z</time></trkpt>
<trkpt lat="42.226921" lon="23.581106"><ele>2364.6</ele><time>2026-04-05T13:48:34.000Z</time></trkpt>
<trkpt lat="42.226922" lon="23.581106"><ele>2364.6</ele><time>2026-04-05T13:48:35.000Z</time></trkpt>
<trkpt lat="42.226922" lon="23.581106"><ele>2364.6</ele><time>2026-04-05T13:48:36.000Z</time></trkpt>
<trkpt lat="42.226922" lon="23.581106"><ele>2364.6</ele><time>2026-04-05T13:48:37.000Z</time></trkpt>
<trkpt lat="42.226922" lon="23.581106"><ele>2364.6</ele><time>2026-04-05T13:48:38.000Z</time></trkpt>
<trkpt lat="42.226922" lon="23.581107"><ele>2364.6</ele><time>2026-04-05T13:48:39.000Z</time></trkpt>
<trkpt lat="42.226922" lon="23.581107"><ele>2364.6</ele><time>2026-04-05T13:48:40.000Z</time></trkpt>
<trkpt lat="42.226922" lon="23.581107"><ele>2364.6</ele><time>2026-04-05T13:48:41.000Z</time></trkpt>
<trkpt lat="42.226922" lon="23.581106"><ele>2364.9</ele><time>2026-04-05T13:48:42.000Z</time></trkpt>
<trkpt lat="42.226923" lon="23.581106"><ele>2364.9</ele><time>2026-04-05T13:48:43.000Z</time></trkpt>
<trkpt lat="42.226923" lon="23.581105"><ele>2364.9</ele><time>2026-04-05T13:48:44.000Z</time></trkpt>
<trkpt lat="42.226924" lon="23.581105"><ele>2364.9</ele><time>2026-04-05T13:48:45.000Z</time></trkpt>
<trkpt lat="42.226925" lon="23.581104"><ele>2364.9</ele><time>2026-04-05T13:48:46.000Z</time></trkpt>
<trkpt lat="42.226925" lon="23.581103"><ele>2365.1</ele><time>2026-04-05T13:48:47.000Z</time></trkpt>
<trkpt lat="42.226925" lon="23.581103"><ele>2365.1</ele><time>2026-04-05T13:48:48.000Z</time></trkpt>
<trkpt lat="42.226925" lon="23.581103"><ele>2365.1</ele><time>2026-04-05T13:48:49.000Z</time></trkpt>
<trkpt lat="42.226926" lon="23.581103"><ele>2365.1</ele><time>2026-04-05T13:48:50.000Z</time></trkpt>
<trkpt lat="42.226926" lon="23.581102"><ele>2365.1</ele><time>2026-04-05T13:48:51.000Z</time></trkpt>
<trkpt lat="42.226926" lon="23.581101"><ele>2365</ele><time>2026-04-05T13:48:52.000Z</time></trkpt>
<trkpt lat="42.226926" lon="23.581099"><ele>2365</ele><time>2026-04-05T13:48:53.000Z</time></trkpt>
<trkpt lat="42.226926" lon="23.581099"><ele>2365</ele><time>2026-04-05T13:48:54.000Z</time></trkpt>
<trkpt lat="42.226926" lon="23.581098"><ele>2365</ele><time>2026-04-05T13:48:55.000Z</time></trkpt>
<trkpt lat="42.226925" lon="23.581098"><ele>2365</ele><time>2026-04-05T13:48:56.000Z</time></trkpt>
<trkpt lat="42.226925" lon="23.581098"><ele>2364.9</ele><time>2026-04-05T13:48:57.000Z</time></trkpt>
<trkpt lat="42.226925" lon="23.581098"><ele>2364.9</ele><time>2026-04-05T13:48:58.000Z</time></trkpt>
<trkpt lat="42.226925" lon="23.581099"><ele>2364.9</ele><time>2026-04-05T13:48:59.000Z</time></trkpt>
<trkpt lat="42.226924" lon="23.5811"><ele>2364.9</ele><time>2026-04-05T13:49:00.000Z</time></trkpt>
<trkpt lat="42.226924" lon="23.5811"><ele>2364.9</ele><time>2026-04-05T13:49:01.000Z</time></trkpt>
<trkpt lat="42.226923" lon="23.581101"><ele>2364.8</ele><time>2026-04-05T13:49:02.000Z</time></trkpt>
<trkpt lat="42.226923" lon="23.581102"><ele>2364.8</ele><time>2026-04-05T13:49:03.000Z</time></trkpt>
<trkpt lat="42.226922" lon="23.581102"><ele>2364.8</ele><time>2026-04-05T13:49:04.000Z</time></trkpt>
<trkpt lat="42.226922" lon="23.581102"><ele>2364.8</ele><time>2026-04-05T13:49:05.000Z</time></trkpt>
<trkpt lat="42.226922" lon="23.581102"><ele>2364.8</ele><time>2026-04-05T13:49:06.000Z</time></trkpt>
<trkpt lat="42.226922" lon="23.581102"><ele>2364.7</ele><time>2026-04-05T13:49:07.000Z</time></trkpt>
<trkpt lat="42.226923" lon="23.581102"><ele>2364.7</ele><time>2026-04-05T13:49:08.000Z</time></trkpt>
<trkpt lat="42.226924" lon="23.581102"><ele>2364.7</ele><time>2026-04-05T13:49:09.000Z</time></trkpt>
<trkpt lat="42.226924" lon="23.581102"><ele>2364.7</ele><time>2026-04-05T13:49:10.000Z</time></trkpt>
<trkpt lat="42.226925" lon="23.5811"><ele>2364.7</ele><time>2026-04-05T13:49:11.000Z</time></trkpt>
<trkpt lat="42.226927" lon="23.581099"><ele>2364.7</ele><time>2026-04-05T13:49:12.000Z</time></trkpt>
<trkpt lat="42.226928" lon="23.581098"><ele>2364.7</ele><time>2026-04-05T13:49:13.000Z</time></trkpt>
<trkpt lat="42.226928" lon="23.581097"><ele>2364.7</ele><time>2026-04-05T13:49:14.000Z</time></trkpt>
<trkpt lat="42.22693" lon="23.581096"><ele>2364.7</ele><time>2026-04-05T13:49:15.000Z</time></trkpt>
<trkpt lat="42.22693" lon="23.581096"><ele>2364.7</ele><time>2026-04-05T13:49:16.000Z</time></trkpt>
<trkpt lat="42.22693" lon="23.581096"><ele>2364.7</ele><time>2026-04-05T13:49:17.000Z</time></trkpt>
<trkpt lat="42.22693" lon="23.581097"><ele>2364.7</ele><time>2026-04-05T13:49:18.000Z</time></trkpt>
<trkpt lat="42.22693" lon="23.581097"><ele>2364.7</ele><time>2026-04-05T13:49:19.000Z</time></trkpt>
<trkpt lat="42.22693" lon="23.581097"><ele>2364.7</ele><time>2026-04-05T13:49:20.000Z</time></trkpt>
<trkpt lat="42.22693" lon="23.581096"><ele>2364.7</ele><time>2026-04-05T13:49:21.000Z</time></trkpt>
<trkpt lat="42.226931" lon="23.581096"><ele>2364.6</ele><time>2026-04-05T13:49:22.000Z</time></trkpt>
<trkpt lat="42.226931" lon="23.581096"><ele>2364.6</ele><time>2026-04-05T13:49:23.000Z</time></trkpt>
<trkpt lat="42.226931" lon="23.581096"><ele>2364.6</ele><time>2026-04-05T13:49:24.000Z</time></trkpt>
<trkpt lat="42.226931" lon="23.581096"><ele>2364.6</ele><time>2026-04-05T13:49:25.000Z</time></trkpt>
<trkpt lat="42.22693" lon="23.581097"><ele>2364.6</ele><time>2026-04-05T13:49:26.000Z</time></trkpt>
<trkpt lat="42.226929" lon="23.581097"><ele>2364.4</ele><time>2026-04-05T13:49:27.000Z</time></trkpt>
<trkpt lat="42.226928" lon="23.581098"><ele>2364.4</ele><time>2026-04-05T13:49:28.000Z</time></trkpt>
<trkpt lat="42.226927" lon="23.581099"><ele>2364.4</ele><time>2026-04-05T13:49:29.000Z</time></trkpt>
<trkpt lat="42.226926" lon="23.5811"><ele>2364.4</ele><time>2026-04-05T13:49:30.000Z</time></trkpt>
<trkpt lat="42.226926" lon="23.581101"><ele>2364.4</ele><time>2026-04-05T13:49:31.000Z</time></trkpt>
<trkpt lat="42.226926" lon="23.581101"><ele>2364.2</ele><time>2026-04-05T13:49:32.000Z</time></trkpt>
<trkpt lat="42.226926" lon="23.581102"><ele>2364.2</ele><time>2026-04-05T13:49:33.000Z</time></trkpt>
<trkpt lat="42.226927" lon="23.581103"><ele>2364.2</ele><time>2026-04-05T13:49:34.000Z</time></trkpt>
<trkpt lat="42.226927" lon="23.581104"><ele>2364.2</ele><time>2026-04-05T13:49:35.000Z</time></trkpt>
<trkpt lat="42.226927" lon="23.581104"><ele>2364.2</ele><time>2026-04-05T13:49:36.000Z</time></trkpt>
<trkpt lat="42.226927" lon="23.581104"><ele>2364.3</ele><time>2026-04-05T13:49:37.000Z</time></trkpt>
<trkpt lat="42.226927" lon="23.581104"><ele>2364.3</ele><time>2026-04-05T13:49:38.000Z</time></trkpt>
<trkpt lat="42.226927" lon="23.581104"><ele>2364.3</ele><time>2026-04-05T13:49:39.000Z</time></trkpt>
<trkpt lat="42.226927" lon="23.581104"><ele>2364.3</ele><time>2026-04-05T13:49:40.000Z</time></trkpt>
<trkpt lat="42.226927" lon="23.581104"><ele>2364.3</ele><time>2026-04-05T13:49:41.000Z</time></trkpt>
<trkpt lat="42.226927" lon="23.581104"><ele>2364.5</ele><time>2026-04-05T13:49:42.000Z</time></trkpt>
<trkpt lat="42.226927" lon="23.581104"><ele>2364.5</ele><time>2026-04-05T13:49:43.000Z</time></trkpt>
<trkpt lat="42.226927" lon="23.581104"><ele>2364.5</ele><time>2026-04-05T13:49:44.000Z</time></trkpt>
<trkpt lat="42.226927" lon="23.581103"><ele>2364.5</ele><time>2026-04-05T13:49:45.000Z</time></trkpt>
<trkpt lat="42.226927" lon="23.581102"><ele>2364.5</ele><time>2026-04-05T13:49:46.000Z</time></trkpt>
<trkpt lat="42.226927" lon="23.5811"><ele>2364.9</ele><time>2026-04-05T13:49:47.000Z</time></trkpt>
<trkpt lat="42.226927" lon="23.581099"><ele>2364.9</ele><time>2026-04-05T13:49:48.000Z</time></trkpt>
<trkpt lat="42.226927" lon="23.581099"><ele>2364.9</ele><time>2026-04-05T13:49:49.000Z</time></trkpt>
<trkpt lat="42.226926" lon="23.581099"><ele>2364.9</ele><time>2026-04-05T13:49:50.000Z</time></trkpt>
<trkpt lat="42.226926" lon="23.5811"><ele>2364.9</ele><time>2026-04-05T13:49:51.000Z</time></trkpt>
<trkpt lat="42.226926" lon="23.581101"><ele>2364.9</ele><time>2026-04-05T13:49:52.000Z</time></trkpt>
<trkpt lat="42.226926" lon="23.581101"><ele>2364.9</ele><time>2026-04-05T13:49:53.000Z</time></trkpt>
<trkpt lat="42.226926" lon="23.581101"><ele>2364.9</ele><time>2026-04-05T13:49:54.000Z</time></trkpt>
<trkpt lat="42.226926" lon="23.581101"><ele>2364.9</ele><time>2026-04-05T13:49:55.000Z</time></trkpt>
<trkpt lat="42.226926" lon="23.581101"><ele>2364.9</ele><time>2026-04-05T13:49:56.000Z</time></trkpt>
<trkpt lat="42.226926" lon="23.581102"><ele>2364.8</ele><time>2026-04-05T13:49:57.000Z</time></trkpt>
<trkpt lat="42.226925" lon="23.581103"><ele>2364.8</ele><time>2026-04-05T13:49:58.000Z</time></trkpt>
<trkpt lat="42.226925" lon="23.581103"><ele>2364.8</ele><time>2026-04-05T13:49:59.000Z</time></trkpt>
<trkpt lat="42.226925" lon="23.581104"><ele>2364.8</ele><time>2026-04-05T13:50:00.000Z</time></trkpt>
<trkpt lat="42.226925" lon="23.581104"><ele>2364.8</ele><time>2026-04-05T13:50:01.000Z</time></trkpt>
<trkpt lat="42.226924" lon="23.581104"><ele>2364.7</ele><time>2026-04-05T13:50:02.000Z</time></trkpt>
<trkpt lat="42.226925" lon="23.581104"><ele>2364.7</ele><time>2026-04-05T13:50:03.000Z</time></trkpt>
<trkpt lat="42.226925" lon="23.581104"><ele>2364.7</ele><time>2026-04-05T13:50:04.000Z</time></trkpt>
<trkpt lat="42.226925" lon="23.581105"><ele>2364.7</ele><time>2026-04-05T13:50:05.000Z</time></trkpt>
<trkpt lat="42.226925" lon="23.581105"><ele>2364.7</ele><time>2026-04-05T13:50:06.000Z</time></trkpt>
<trkpt lat="42.226925" lon="23.581105"><ele>2364.7</ele><time>2026-04-05T13:50:07.000Z</time></trkpt>
<trkpt lat="42.226925" lon="23.581105"><ele>2364.7</ele><time>2026-04-05T13:50:08.000Z</time></trkpt>
<trkpt lat="42.226925" lon="23.581105"><ele>2364.7</ele><time>2026-04-05T13:50:09.000Z</time></trkpt>
<trkpt lat="42.226926" lon="23.581106"><ele>2364.7</ele><time>2026-04-05T13:50:10.000Z</time></trkpt>
<trkpt lat="42.226926" lon="23.581106"><ele>2364.7</ele><time>2026-04-05T13:50:11.000Z</time></trkpt>
<trkpt lat="42.226926" lon="23.581107"><ele>2364.7</ele><time>2026-04-05T13:50:12.000Z</time></trkpt>
<trkpt lat="42.226927" lon="23.581108"><ele>2364.7</ele><time>2026-04-05T13:50:13.000Z</time></trkpt>
<trkpt lat="42.226926" lon="23.581109"><ele>2364.7</ele><time>2026-04-05T13:50:14.000Z</time></trkpt>
<trkpt lat="42.226926" lon="23.58111"><ele>2364.7</ele><time>2026-04-05T13:50:15.000Z</time></trkpt>
<trkpt lat="42.226926" lon="23.581111"><ele>2364.7</ele><time>2026-04-05T13:50:16.000Z</time></trkpt>
<trkpt lat="42.226926" lon="23.581112"><ele>2364.5</ele><time>2026-04-05T13:50:17.000Z</time></trkpt>
<trkpt lat="42.226925" lon="23.581112"><ele>2364.5</ele><time>2026-04-05T13:50:18.000Z</time></trkpt>
<trkpt lat="42.226926" lon="23.581113"><ele>2364.5</ele><time>2026-04-05T13:50:19.000Z</time></trkpt>
<trkpt lat="42.226926" lon="23.581114"><ele>2364.5</ele><time>2026-04-05T13:50:20.000Z</time></trkpt>
<trkpt lat="42.226927" lon="23.581114"><ele>2364.5</ele><time>2026-04-05T13:50:21.000Z</time></trkpt>
<trkpt lat="42.226927" lon="23.581115"><ele>2364.3</ele><time>2026-04-05T13:50:22.000Z</time></trkpt>
<trkpt lat="42.226927" lon="23.581116"><ele>2364.3</ele><time>2026-04-05T13:50:23.000Z</time></trkpt>
<trkpt lat="42.226926" lon="23.58112"><ele>2364.3</ele><time>2026-04-05T13:50:24.000Z</time></trkpt>
<trkpt lat="42.226924" lon="23.581125"><ele>2364.3</ele><time>2026-04-05T13:50:25.000Z</time></trkpt>
<trkpt lat="42.22692" lon="23.58113"><ele>2364.3</ele><time>2026-04-05T13:50:26.000Z</time></trkpt>
<trkpt lat="42.226915" lon="23.581133"><ele>2364.1</ele><time>2026-04-05T13:50:27.000Z</time></trkpt>
<trkpt lat="42.22691" lon="23.581135"><ele>2364.1</ele><time>2026-04-05T13:50:28.000Z</time></trkpt>
<trkpt lat="42.226905" lon="23.581133"><ele>2364.1</ele><time>2026-04-05T13:50:29.000Z</time></trkpt>
<trkpt lat="42.2269" lon="23.581129"><ele>2364.1</ele><time>2026-04-05T13:50:30.000Z</time></trkpt>
<trkpt lat="42.226897" lon="23.581125"><ele>2364.1</ele><time>2026-04-05T13:50:31.000Z</time></trkpt>
<trkpt lat="42.226894" lon="23.58112"><ele>2364.1</ele><time>2026-04-05T13:50:32.000Z</time></trkpt>
<trkpt lat="42.226892" lon="23.581114"><ele>2364.1</ele><time>2026-04-05T13:50:33.000Z</time></trkpt>
<trkpt lat="42.226891" lon="23.581109"><ele>2364.1</ele><time>2026-04-05T13:50:34.000Z</time></trkpt>
<trkpt lat="42.22689" lon="23.581104"><ele>2364.1</ele><time>2026-04-05T13:50:35.000Z</time></trkpt>
<trkpt lat="42.226889" lon="23.581098"><ele>2364.1</ele><time>2026-04-05T13:50:36.000Z</time></trkpt>
<trkpt lat="42.226888" lon="23.581093"><ele>2364.3</ele><time>2026-04-05T13:50:37.000Z</time></trkpt>
<trkpt lat="42.226886" lon="23.581087"><ele>2364.3</ele><time>2026-04-05T13:50:38.000Z</time></trkpt>
<trkpt lat="42.226884" lon="23.581079"><ele>2364.3</ele><time>2026-04-05T13:50:39.000Z</time></trkpt>
<trkpt lat="42.226882" lon="23.58107"><ele>2364.3</ele><time>2026-04-05T13:50:40.000Z</time></trkpt>
<trkpt lat="42.226878" lon="23.58106"><ele>2364.3</ele><time>2026-04-05T13:50:41.000Z</time></trkpt>
<trkpt lat="42.226874" lon="23.58105"><ele>2364.6</ele><time>2026-04-05T13:50:42.000Z</time></trkpt>
<trkpt lat="42.22687" lon="23.58104"><ele>2364.6</ele><time>2026-04-05T13:50:43.000Z</time></trkpt>
<trkpt lat="42.226865" lon="23.581031"><ele>2364.6</ele><time>2026-04-05T13:50:44.000Z</time></trkpt>
<trkpt lat="42.22686" lon="23.581023"><ele>2364.6</ele><time>2026-04-05T13:50:45.000Z</time></trkpt>
<trkpt lat="42.226857" lon="23.581017"><ele>2364.6</ele><time>2026-04-05T13:50:46.000Z</time></trkpt>
<trkpt lat="42.226853" lon="23.58101"><ele>2364.9</ele><time>2026-04-05T13:50:47.000Z</time></trkpt>
<trkpt lat="42.226848" lon="23.581002"><ele>2364.9</ele><time>2026-04-05T13:50:48.000Z</time></trkpt>
<trkpt lat="42.226845" lon="23.580992"><ele>2364.9</ele><time>2026-04-05T13:50:49.000Z</time></trkpt>
<trkpt lat="42.226844" lon="23.580982"><ele>2364.9</ele><time>2026-04-05T13:50:50.000Z</time></trkpt>
<trkpt lat="42.226844" lon="23.580969"><ele>2364.9</ele><time>2026-04-05T13:50:51.000Z</time></trkpt>
<trkpt lat="42.226844" lon="23.580959"><ele>2364.9</ele><time>2026-04-05T13:50:52.000Z</time></trkpt>
<trkpt lat="42.226846" lon="23.580949"><ele>2364.9</ele><time>2026-04-05T13:50:53.000Z</time></trkpt>
<trkpt lat="42.226847" lon="23.580941"><ele>2364.9</ele><time>2026-04-05T13:50:54.000Z</time></trkpt>
<trkpt lat="42.226847" lon="23.580934"><ele>2364.9</ele><time>2026-04-05T13:50:55.000Z</time></trkpt>
<trkpt lat="42.226847" lon="23.580926"><ele>2364.9</ele><time>2026-04-05T13:50:56.000Z</time></trkpt>
<trkpt lat="42.226848" lon="23.580914"><ele>2365.1</ele><time>2026-04-05T13:50:57.000Z</time></trkpt>
<trkpt lat="42.226851" lon="23.580902"><ele>2365.1</ele><time>2026-04-05T13:50:58.000Z</time></trkpt>
<trkpt lat="42.226854" lon="23.580889"><ele>2365.1</ele><time>2026-04-05T13:50:59.000Z</time></trkpt>
<trkpt lat="42.22686" lon="23.580876"><ele>2365.1</ele><time>2026-04-05T13:51:00.000Z</time></trkpt>
<trkpt lat="42.226867" lon="23.580864"><ele>2365.1</ele><time>2026-04-05T13:51:01.000Z</time></trkpt>
<trkpt lat="42.226876" lon="23.580854"><ele>2365.3</ele><time>2026-04-05T13:51:02.000Z</time></trkpt>
<trkpt lat="42.226885" lon="23.580846"><ele>2365.3</ele><time>2026-04-05T13:51:03.000Z</time></trkpt>
<trkpt lat="42.226895" lon="23.580841"><ele>2365.3</ele><time>2026-04-05T13:51:04.000Z</time></trkpt>
<trkpt lat="42.226903" lon="23.580836"><ele>2365.3</ele><time>2026-04-05T13:51:05.000Z</time></trkpt>
<trkpt lat="42.226911" lon="23.580834"><ele>2365.3</ele><time>2026-04-05T13:51:06.000Z</time></trkpt>
<trkpt lat="42.226918" lon="23.580835"><ele>2365.2</ele><time>2026-04-05T13:51:07.000Z</time></trkpt>
<trkpt lat="42.226925" lon="23.580837"><ele>2365.2</ele><time>2026-04-05T13:51:08.000Z</time></trkpt>
<trkpt lat="42.226933" lon="23.580841"><ele>2365.2</ele><time>2026-04-05T13:51:09.000Z</time></trkpt>
<trkpt lat="42.22694" lon="23.580845"><ele>2365.2</ele><time>2026-04-05T13:51:10.000Z</time></trkpt>
<trkpt lat="42.226945" lon="23.580848"><ele>2365.2</ele><time>2026-04-05T13:51:11.000Z</time></trkpt>
<trkpt lat="42.22695" lon="23.580851"><ele>2365</ele><time>2026-04-05T13:51:12.000Z</time></trkpt>
<trkpt lat="42.226954" lon="23.580854"><ele>2365</ele><time>2026-04-05T13:51:13.000Z</time></trkpt>
<trkpt lat="42.226956" lon="23.580854"><ele>2365</ele><time>2026-04-05T13:51:14.000Z</time></trkpt>
<trkpt lat="42.226958" lon="23.580855"><ele>2365</ele><time>2026-04-05T13:51:15.000Z</time></trkpt>
<trkpt lat="42.226962" lon="23.580856"><ele>2365</ele><time>2026-04-05T13:51:16.000Z</time></trkpt>
<trkpt lat="42.226966" lon="23.580857"><ele>2364.6</ele><time>2026-04-05T13:51:17.000Z</time></trkpt>
<trkpt lat="42.226971" lon="23.580858"><ele>2364.6</ele><time>2026-04-05T13:51:18.000Z</time></trkpt>
<trkpt lat="42.226977" lon="23.580861"><ele>2364.6</ele><time>2026-04-05T13:51:19.000Z</time></trkpt>
<trkpt lat="42.226977" lon="23.580861"><ele>2364.5</ele><time>2026-04-05T13:51:22.000Z</time></trkpt>
<trkpt lat="42.226977" lon="23.580861"><ele>2364.4</ele><time>2026-04-05T13:51:27.000Z</time></trkpt>
<trkpt lat="42.226977" lon="23.580861"><ele>2364.2</ele><time>2026-04-05T13:51:32.000Z</time></trkpt>
<trkpt lat="42.226977" lon="23.580861"><ele>2364.3</ele><time>2026-04-05T13:51:37.000Z</time></trkpt>
<trkpt lat="42.226977" lon="23.580861"><ele>2365</ele><time>2026-04-05T13:51:42.000Z</time></trkpt>
<trkpt lat="42.226977" lon="23.580861"><ele>2366</ele><time>2026-04-05T13:51:47.000Z</time></trkpt>
</trkseg></trk></gpx>